<?xml version='1.0' encoding='UTF-8'?><gpx version="1.1" creator="JPX - https://github.com/jenetics/jpx" xmlns="http://www.topografix.com/GPX/1/1"><trk><trkseg><trkpt lat="31.487093526723392" lon="-4.214379689993665"><ele>813.0</ele><time>2026-03-23T07:45:36.001Z</time></trkpt><trkpt lat="31.487017423495008" lon="-4.2143138108203555"><ele>813.0</ele><time>2026-03-23T07:45:38.001Z</time></trkpt><trkpt lat="31.486937321392475" lon="-4.21422718571229"><ele>813.0</ele><time>2026-03-23T07:45:40.001Z</time></trkpt><trkpt lat="31.48687954697233" lon="-4.214161868289573"><ele>813.0</ele><time>2026-03-23T07:45:42.001Z</time></trkpt><trkpt lat="31.486825670898497" lon="-4.214122690296636"><ele>813.0</ele><time>2026-03-23T07:45:44.001Z</time></trkpt><trkpt lat="31.486774001424934" lon="-4.214079044112891"><ele>813.0</ele><time>2026-03-23T07:45:47.001Z</time></trkpt><trkpt lat="31.486689708557407" lon="-4.21410641852075"><ele>813.0</ele><time>2026-03-23T07:47:42Z</time></trkpt><trkpt lat="31.486610030648084" lon="-4.214109874580357"><ele>813.0</ele><time>2026-03-23T07:47:44Z</time></trkpt><trkpt lat="31.48656397339406" lon="-4.2140288200226355"><ele>813.0</ele><time>2026-03-23T07:47:46Z</time></trkpt><trkpt lat="31.486491378951214" lon="-4.213956115321615"><ele>813.0</ele><time>2026-03-23T07:48:03.001Z</time></trkpt><trkpt lat="31.48643672604002" lon="-4.2138979945885655"><ele>813.0</ele><time>2026-03-23T07:48:04.001Z</time></trkpt><trkpt lat="31.486381684481255" lon="-4.21381951613879"><ele>813.0</ele><time>2026-03-23T07:48:05.001Z</time></trkpt><trkpt lat="31.486342636874646" lon="-4.213707210010361"><ele>813.2</ele><time>2026-03-23T07:48:07.001Z</time></trkpt><trkpt lat="31.48637787746891" lon="-4.213575742759007"><ele>813.4</ele><time>2026-03-23T07:48:09.001Z</time></trkpt><trkpt lat="31.48647482914895" lon="-4.2134861984040315"><ele>813.6</ele><time>2026-03-23T07:48:11.001Z</time></trkpt><trkpt lat="31.486547198676316" lon="-4.213402909752933"><ele>813.8000000000001</ele><time>2026-03-23T07:48:13.001Z</time></trkpt><trkpt lat="31.4866067016684" lon="-4.213322630028734"><ele>814.0</ele><time>2026-03-23T07:48:15.001Z</time></trkpt><trkpt lat="31.486673739579334" lon="-4.213253055299656"><ele>813.8000000000001</ele><time>2026-03-23T07:48:16.999Z</time></trkpt><trkpt lat="31.486748115346344" lon="-4.213150105782481"><ele>813.6</ele><time>2026-03-23T07:48:18.999Z</time></trkpt><trkpt lat="31.48679616449365" lon="-4.213095572452689"><ele>813.4</ele><time>2026-03-23T07:48:19.999Z</time></trkpt><trkpt lat="31.486851999502147" lon="-4.213031819709221"><ele>813.2</ele><time>2026-03-23T07:48:20.999Z</time></trkpt><trkpt lat="31.486920562366493" lon="-4.212953811108191"><ele>813.0</ele><time>2026-03-23T07:48:21.999Z</time></trkpt><trkpt lat="31.486994845389816" lon="-4.212869294289605"><ele>813.0</ele><time>2026-03-23T07:48:22.999Z</time></trkpt><trkpt lat="31.487063471249094" lon="-4.212791214014763"><ele>813.0</ele><time>2026-03-23T07:48:23.999Z</time></trkpt><trkpt lat="31.48714367747835" lon="-4.21269995796876"><ele>813.0</ele><time>2026-03-23T07:48:24.999Z</time></trkpt><trkpt lat="31.487233837795248" lon="-4.21259737648768"><ele>813.0</ele><time>2026-03-23T07:48:25.999Z</time></trkpt><trkpt lat="31.487330600439957" lon="-4.212487283094444"><ele>813.3333333333333</ele><time>2026-03-23T07:48:26.999Z</time></trkpt><trkpt lat="31.487440058476903" lon="-4.212362745273983"><ele>813.6666666666666</ele><time>2026-03-23T07:48:27.999Z</time></trkpt><trkpt lat="31.48755018855625" lon="-4.2122371558967675"><ele>814.0</ele><time>2026-03-23T07:48:28.999Z</time></trkpt><trkpt lat="31.487673317652536" lon="-4.212097274032263"><ele>814.0</ele><time>2026-03-23T07:48:29.999Z</time></trkpt><trkpt lat="31.487800703626228" lon="-4.211952556079174"><ele>814.0</ele><time>2026-03-23T07:48:30.999Z</time></trkpt><trkpt lat="31.48792213543624" lon="-4.211814602417949"><ele>814.0</ele><time>2026-03-23T07:48:31.999Z</time></trkpt><trkpt lat="31.488048410723355" lon="-4.211671041167003"><ele>815.6666666666666</ele><time>2026-03-23T07:48:32.999Z</time></trkpt><trkpt lat="31.488175033299523" lon="-4.21152684698251"><ele>817.3333333333333</ele><time>2026-03-23T07:48:33.999Z</time></trkpt><trkpt lat="31.48830304445339" lon="-4.2113807829789875"><ele>819.0</ele><time>2026-03-23T07:48:34.999Z</time></trkpt><trkpt lat="31.488432425491016" lon="-4.2112338756826"><ele>819.0</ele><time>2026-03-23T07:48:35.999Z</time></trkpt><trkpt lat="31.48855974879802" lon="-4.21108947374999"><ele>819.0</ele><time>2026-03-23T07:48:36.999Z</time></trkpt><trkpt lat="31.488690326206783" lon="-4.210941429987919"><ele>819.0</ele><time>2026-03-23T07:48:37.999Z</time></trkpt><trkpt lat="31.48882382955225" lon="-4.210790503222376"><ele>818.3333333333333</ele><time>2026-03-23T07:48:38.999Z</time></trkpt><trkpt lat="31.488955858718093" lon="-4.210641243046914"><ele>817.6666666666666</ele><time>2026-03-23T07:48:39.999Z</time></trkpt><trkpt lat="31.4890790075682" lon="-4.210502022121283"><ele>817.0</ele><time>2026-03-23T07:48:40.999Z</time></trkpt><trkpt lat="31.489207831730063" lon="-4.210356385245067"><ele>817.0</ele><time>2026-03-23T07:48:41.999Z</time></trkpt><trkpt lat="31.489339416125357" lon="-4.210207627866784"><ele>817.0</ele><time>2026-03-23T07:48:42.999Z</time></trkpt><trkpt lat="31.48946851288885" lon="-4.210061304614381"><ele>817.0</ele><time>2026-03-23T07:48:43.999Z</time></trkpt><trkpt lat="31.489610909475818" lon="-4.209925512029019"><ele>817.3333333333333</ele><time>2026-03-23T07:48:44.999Z</time></trkpt><trkpt lat="31.48973946902753" lon="-4.209779110804035"><ele>817.6666666666667</ele><time>2026-03-23T07:48:45.999Z</time></trkpt><trkpt lat="31.489870016681255" lon="-4.20963270848171"><ele>818.0</ele><time>2026-03-23T07:48:47Z</time></trkpt><trkpt lat="31.489965978012137" lon="-4.209452381355495"><ele>818.0</ele><time>2026-03-23T07:48:48Z</time></trkpt><trkpt lat="31.490080930365444" lon="-4.209290323456116"><ele>818.0</ele><time>2026-03-23T07:48:49Z</time></trkpt><trkpt lat="31.49019757811242" lon="-4.2091253495682235"><ele>818.0</ele><time>2026-03-23T07:48:50Z</time></trkpt><trkpt lat="31.490313906054975" lon="-4.2089608280701025"><ele>818.3333333333334</ele><time>2026-03-23T07:48:51Z</time></trkpt><trkpt lat="31.490474210654742" lon="-4.208816776866215"><ele>818.6666666666667</ele><time>2026-03-23T07:48:52Z</time></trkpt><trkpt lat="31.490624743670956" lon="-4.208677575554519"><ele>819.0</ele><time>2026-03-23T07:48:53Z</time></trkpt><trkpt lat="31.49078194823612" lon="-4.2085315424014675"><ele>819.0</ele><time>2026-03-23T07:48:54Z</time></trkpt><trkpt lat="31.490941463851616" lon="-4.208381981376276"><ele>819.0</ele><time>2026-03-23T07:48:55Z</time></trkpt><trkpt lat="31.491097035382914" lon="-4.208207228851381"><ele>819.0</ele><time>2026-03-23T07:48:56Z</time></trkpt><trkpt lat="31.491254461478896" lon="-4.2080305983516055"><ele>818.3333333333333</ele><time>2026-03-23T07:48:57Z</time></trkpt><trkpt lat="31.491411051482054" lon="-4.20785329879194"><ele>817.6666666666666</ele><time>2026-03-23T07:48:58Z</time></trkpt><trkpt lat="31.49156950475237" lon="-4.2076762924898485"><ele>817.0</ele><time>2026-03-23T07:48:59Z</time></trkpt><trkpt lat="31.491732269609496" lon="-4.207493313376939"><ele>817.3333333333333</ele><time>2026-03-23T07:49:00Z</time></trkpt><trkpt lat="31.491899172422002" lon="-4.207305682655774"><ele>817.6666666666667</ele><time>2026-03-23T07:49:01Z</time></trkpt><trkpt lat="31.492035167365927" lon="-4.207167674795329"><ele>818.0</ele><time>2026-03-23T07:49:02Z</time></trkpt><trkpt lat="31.492194139491474" lon="-4.2069788545077245"><ele>818.0</ele><time>2026-03-23T07:49:03Z</time></trkpt><trkpt lat="31.492358877882594" lon="-4.2067925302935985"><ele>818.0</ele><time>2026-03-23T07:49:04Z</time></trkpt><trkpt lat="31.49252783432332" lon="-4.206601839087182"><ele>819.0</ele><time>2026-03-23T07:49:05Z</time></trkpt><trkpt lat="31.49269816680295" lon="-4.206409596261329"><ele>820.0</ele><time>2026-03-23T07:49:06Z</time></trkpt><trkpt lat="31.492867692694997" lon="-4.206215474764538"><ele>820.0</ele><time>2026-03-23T07:49:07Z</time></trkpt><trkpt lat="31.493050834232726" lon="-4.206011929798268"><ele>820.0</ele><time>2026-03-23T07:49:08Z</time></trkpt><trkpt lat="31.493240840872865" lon="-4.205801012084933"><ele>820.5</ele><time>2026-03-23T07:49:09Z</time></trkpt><trkpt lat="31.493436554197505" lon="-4.2055807954622875"><ele>821.0</ele><time>2026-03-23T07:49:10Z</time></trkpt><trkpt lat="31.493624713154787" lon="-4.205335307288349"><ele>820.5</ele><time>2026-03-23T07:49:11Z</time></trkpt><trkpt lat="31.493832824881117" lon="-4.205092592694939"><ele>820.0</ele><time>2026-03-23T07:49:12Z</time></trkpt><trkpt lat="31.494058569580893" lon="-4.204876766270697"><ele>820.5</ele><time>2026-03-23T07:49:13Z</time></trkpt><trkpt lat="31.49424116039759" lon="-4.204673514060161"><ele>821.0</ele><time>2026-03-23T07:49:14Z</time></trkpt><trkpt lat="31.49442357541948" lon="-4.204475883628718"><ele>821.5</ele><time>2026-03-23T07:49:15Z</time></trkpt><trkpt lat="31.49462134930677" lon="-4.204270583326818"><ele>822.0</ele><time>2026-03-23T07:49:16Z</time></trkpt><trkpt lat="31.494836668888766" lon="-4.204060802793667"><ele>822.5</ele><time>2026-03-23T07:49:17Z</time></trkpt><trkpt lat="31.495051506489737" lon="-4.203884669963147"><ele>823.0</ele><time>2026-03-23T07:49:18Z</time></trkpt><trkpt lat="31.495263144996123" lon="-4.203728834888355"><ele>822.5</ele><time>2026-03-23T07:49:19Z</time></trkpt><trkpt lat="31.495468774241942" lon="-4.20358753992522"><ele>822.0</ele><time>2026-03-23T07:49:20Z</time></trkpt><trkpt lat="31.495667587526576" lon="-4.203482727025952"><ele>822.0</ele><time>2026-03-23T07:49:21Z</time></trkpt><trkpt lat="31.495854852450158" lon="-4.203407381950198"><ele>822.0</ele><time>2026-03-23T07:49:22Z</time></trkpt><trkpt lat="31.496027807190234" lon="-4.203334694269732"><ele>822.0</ele><time>2026-03-23T07:49:23Z</time></trkpt><trkpt lat="31.496183149317485" lon="-4.203259985872599"><ele>821.75</ele><time>2026-03-23T07:49:24Z</time></trkpt><trkpt lat="31.496319890856178" lon="-4.203194495155189"><ele>821.5</ele><time>2026-03-23T07:49:25Z</time></trkpt><trkpt lat="31.496443487519354" lon="-4.203128569065406"><ele>821.25</ele><time>2026-03-23T07:49:26Z</time></trkpt><trkpt lat="31.49654458086867" lon="-4.203078360862763"><ele>821.0</ele><time>2026-03-23T07:49:27Z</time></trkpt><trkpt lat="31.496631455397587" lon="-4.2030379281164425"><ele>821.5</ele><time>2026-03-23T07:49:28Z</time></trkpt><trkpt lat="31.496710728068734" lon="-4.2030024212984"><ele>822.0</ele><time>2026-03-23T07:49:29Z</time></trkpt><trkpt lat="31.496806654449923" lon="-4.202955112149685"><ele>822.5</ele><time>2026-03-23T07:49:30Z</time></trkpt><trkpt lat="31.496926098828364" lon="-4.202897816597112"><ele>823.0</ele><time>2026-03-23T07:49:31Z</time></trkpt><trkpt lat="31.497066705919362" lon="-4.2028201939088765"><ele>822.3333333333333</ele><time>2026-03-23T07:49:32Z</time></trkpt><trkpt lat="31.497224587706814" lon="-4.202739289288151"><ele>821.6666666666667</ele><time>2026-03-23T07:49:33Z</time></trkpt><trkpt lat="31.497381861137075" lon="-4.202657114160691"><ele>821.0</ele><time>2026-03-23T07:49:34Z</time></trkpt><trkpt lat="31.497519665442532" lon="-4.202584948725401"><ele>821.0</ele><time>2026-03-23T07:49:35Z</time></trkpt><trkpt lat="31.497644491819205" lon="-4.202519277699414"><ele>821.0</ele><time>2026-03-23T07:49:36Z</time></trkpt><trkpt lat="31.497755172234356" lon="-4.202461414587178"><ele>821.0</ele><time>2026-03-23T07:49:37Z</time></trkpt><trkpt lat="31.497856757733924" lon="-4.202411050381777"><ele>821.0</ele><time>2026-03-23T07:49:38Z</time></trkpt><trkpt lat="31.49795051753324" lon="-4.202361458564123"><ele>821.1666666666667</ele><time>2026-03-23T07:49:39Z</time></trkpt><trkpt lat="31.498034230296778" lon="-4.2023125232790655"><ele>821.3333333333334</ele><time>2026-03-23T07:49:40Z</time></trkpt><trkpt lat="31.49811186352498" lon="-4.20226933928302"><ele>821.5</ele><time>2026-03-23T07:49:41Z</time></trkpt><trkpt lat="31.498186382568544" lon="-4.202230658372969"><ele>821.6666666666667</ele><time>2026-03-23T07:49:42Z</time></trkpt><trkpt lat="31.498251049684278" lon="-4.202189906914075"><ele>821.8333333333334</ele><time>2026-03-23T07:49:43Z</time></trkpt><trkpt lat="31.498312399489198" lon="-4.2021546269183245"><ele>822.0</ele><time>2026-03-23T07:49:44Z</time></trkpt><trkpt lat="31.498415115319684" lon="-4.202101306393136"><ele>822.0</ele><time>2026-03-23T07:49:46Z</time></trkpt><trkpt lat="31.49849029494977" lon="-4.2020641036124715"><ele>822.0</ele><time>2026-03-23T07:49:47Z</time></trkpt><trkpt lat="31.498581787093602" lon="-4.202023041679797"><ele>822.0</ele><time>2026-03-23T07:49:48.001Z</time></trkpt><trkpt lat="31.498680078506354" lon="-4.201980493385221"><ele>822.0</ele><time>2026-03-23T07:49:49.001Z</time></trkpt><trkpt lat="31.4987978407561" lon="-4.201940151242699"><ele>822.0</ele><time>2026-03-23T07:49:50.001Z</time></trkpt><trkpt lat="31.498935390442284" lon="-4.201891776218759"><ele>822.0</ele><time>2026-03-23T07:49:51.001Z</time></trkpt><trkpt lat="31.499097373710025" lon="-4.201838127960637"><ele>822.0</ele><time>2026-03-23T07:49:52.001Z</time></trkpt><trkpt lat="31.49918828629837" lon="-4.201795401259859"><ele>822.0</ele><time>2026-03-23T07:49:53.001Z</time></trkpt><trkpt lat="31.499276434260278" lon="-4.201760697121878"><ele>822.0</ele><time>2026-03-23T07:49:54.001Z</time></trkpt><trkpt lat="31.49934397428905" lon="-4.201735650814761"><ele>822.0</ele><time>2026-03-23T07:49:55.001Z</time></trkpt><trkpt lat="31.499467189201813" lon="-4.201727484725953"><ele>822.0</ele><time>2026-03-23T07:50:12.001Z</time></trkpt><trkpt lat="31.499571945691798" lon="-4.201715322247529"><ele>822.0</ele><time>2026-03-23T07:50:13.001Z</time></trkpt><trkpt lat="31.499686436912675" lon="-4.20171059183187"><ele>822.0</ele><time>2026-03-23T07:50:14.001Z</time></trkpt><trkpt lat="31.49982163449595" lon="-4.2017080601223125"><ele>822.0</ele><time>2026-03-23T07:50:15.001Z</time></trkpt><trkpt lat="31.499974068462585" lon="-4.201702995123216"><ele>822.0</ele><time>2026-03-23T07:50:16.001Z</time></trkpt><trkpt lat="31.500138294181045" lon="-4.201702503725857"><ele>822.0</ele><time>2026-03-23T07:50:17.001Z</time></trkpt><trkpt lat="31.500325404744178" lon="-4.201711188657367"><ele>822.0</ele><time>2026-03-23T07:50:18.001Z</time></trkpt><trkpt lat="31.500525200583088" lon="-4.201735348095201"><ele>822.3333333333333</ele><time>2026-03-23T07:50:19.001Z</time></trkpt><trkpt lat="31.50071488144397" lon="-4.201762179365203"><ele>822.6666666666666</ele><time>2026-03-23T07:50:20.001Z</time></trkpt><trkpt lat="31.50092287089619" lon="-4.201793270614239"><ele>823.0</ele><time>2026-03-23T07:50:21.001Z</time></trkpt><trkpt lat="31.501157571940766" lon="-4.201821231012684"><ele>823.0</ele><time>2026-03-23T07:50:21.999Z</time></trkpt><trkpt lat="31.501379476859857" lon="-4.2018523208237"><ele>823.0</ele><time>2026-03-23T07:50:22.999Z</time></trkpt><trkpt lat="31.50160358948012" lon="-4.2018818865280805"><ele>823.0</ele><time>2026-03-23T07:50:23.999Z</time></trkpt><trkpt lat="31.501838278568197" lon="-4.201910026295973"><ele>823.0</ele><time>2026-03-23T07:50:24.999Z</time></trkpt><trkpt lat="31.502078431610332" lon="-4.201936841606613"><ele>823.0</ele><time>2026-03-23T07:50:25.999Z</time></trkpt><trkpt lat="31.50231214106825" lon="-4.201964640669501"><ele>822.3333333333333</ele><time>2026-03-23T07:50:26.999Z</time></trkpt><trkpt lat="31.50252612082683" lon="-4.201988098812247"><ele>821.6666666666667</ele><time>2026-03-23T07:50:27.999Z</time></trkpt><trkpt lat="31.502755669609783" lon="-4.202013997241192"><ele>821.0</ele><time>2026-03-23T07:50:28.999Z</time></trkpt><trkpt lat="31.502986692396817" lon="-4.2020380364601815"><ele>821.0</ele><time>2026-03-23T07:50:29.999Z</time></trkpt><trkpt lat="31.503215189841047" lon="-4.2020679020612945"><ele>821.0</ele><time>2026-03-23T07:50:30.999Z</time></trkpt><trkpt lat="31.50343248525704" lon="-4.202096509064966"><ele>821.0</ele><time>2026-03-23T07:50:31.999Z</time></trkpt><trkpt lat="31.503628480217323" lon="-4.202120719207175"><ele>821.3333333333334</ele><time>2026-03-23T07:50:32.999Z</time></trkpt><trkpt lat="31.503806875527328" lon="-4.202143974213976"><ele>821.6666666666667</ele><time>2026-03-23T07:50:33.999Z</time></trkpt><trkpt lat="31.503969356194105" lon="-4.202166784822312"><ele>822.0</ele><time>2026-03-23T07:50:34.999Z</time></trkpt><trkpt lat="31.50412163229398" lon="-4.202184967288168"><ele>822.0</ele><time>2026-03-23T07:50:35.999Z</time></trkpt><trkpt lat="31.504263375863545" lon="-4.202201776309307"><ele>822.0</ele><time>2026-03-23T07:50:36.999Z</time></trkpt><trkpt lat="31.504391709701647" lon="-4.2022192557436195"><ele>822.0</ele><time>2026-03-23T07:50:37.999Z</time></trkpt><trkpt lat="31.504510812102716" lon="-4.202232776325861"><ele>822.0</ele><time>2026-03-23T07:50:38.999Z</time></trkpt><trkpt lat="31.504660090008823" lon="-4.202253481733812"><ele>822.3333333333333</ele><time>2026-03-23T07:50:39.999Z</time></trkpt><trkpt lat="31.504829974435886" lon="-4.202278372084434"><ele>822.6666666666666</ele><time>2026-03-23T07:50:40.999Z</time></trkpt><trkpt lat="31.505028907030006" lon="-4.2023051587094"><ele>823.0</ele><time>2026-03-23T07:50:41.999Z</time></trkpt><trkpt lat="31.50525119882914" lon="-4.202332097352296"><ele>823.0</ele><time>2026-03-23T07:50:42.999Z</time></trkpt><trkpt lat="31.505487464465673" lon="-4.202356429929665"><ele>823.0</ele><time>2026-03-23T07:50:44Z</time></trkpt><trkpt lat="31.505739758527028" lon="-4.202372870839573"><ele>823.0</ele><time>2026-03-23T07:50:45Z</time></trkpt><trkpt lat="31.505965543360443" lon="-4.202340226751274"><ele>823.0</ele><time>2026-03-23T07:50:46Z</time></trkpt><trkpt lat="31.506192914186666" lon="-4.202336000437457"><ele>823.0</ele><time>2026-03-23T07:50:47Z</time></trkpt><trkpt lat="31.506409926928264" lon="-4.202260425615018"><ele>823.0</ele><time>2026-03-23T07:50:48Z</time></trkpt><trkpt lat="31.506620289312767" lon="-4.2021965444338445"><ele>823.0</ele><time>2026-03-23T07:50:49Z</time></trkpt><trkpt lat="31.506828452623257" lon="-4.202116820121864"><ele>823.0</ele><time>2026-03-23T07:50:50Z</time></trkpt><trkpt lat="31.507033718262033" lon="-4.202021807729128"><ele>823.0</ele><time>2026-03-23T07:50:51Z</time></trkpt><trkpt lat="31.507237817890207" lon="-4.201916201510991"><ele>823.0</ele><time>2026-03-23T07:50:52Z</time></trkpt><trkpt lat="31.507416625113724" lon="-4.20178374029073"><ele>824.5</ele><time>2026-03-23T07:50:53Z</time></trkpt><trkpt lat="31.507609629640125" lon="-4.201644166087341"><ele>826.0</ele><time>2026-03-23T07:50:54Z</time></trkpt><trkpt lat="31.5077943811765" lon="-4.201490200787382"><ele>826.0</ele><time>2026-03-23T07:50:55Z</time></trkpt><trkpt lat="31.507982051659724" lon="-4.2013314867617035"><ele>826.0</ele><time>2026-03-23T07:50:56Z</time></trkpt><trkpt lat="31.50816894958992" lon="-4.201160079957762"><ele>826.0</ele><time>2026-03-23T07:50:57Z</time></trkpt><trkpt lat="31.508363538524264" lon="-4.2009828855021025"><ele>826.0</ele><time>2026-03-23T07:50:58Z</time></trkpt><trkpt lat="31.50857856756256" lon="-4.200811435243516"><ele>826.0</ele><time>2026-03-23T07:50:59Z</time></trkpt><trkpt lat="31.508783438846333" lon="-4.200599789410995"><ele>826.0</ele><time>2026-03-23T07:51:00Z</time></trkpt><trkpt lat="31.509010027180757" lon="-4.200393687566196"><ele>826.0</ele><time>2026-03-23T07:51:01Z</time></trkpt><trkpt lat="31.5092435750287" lon="-4.200180562086423"><ele>826.0</ele><time>2026-03-23T07:51:02Z</time></trkpt><trkpt lat="31.50945771535402" lon="-4.1999849884405185"><ele>826.0</ele><time>2026-03-23T07:51:03Z</time></trkpt><trkpt lat="31.50964335172671" lon="-4.19981493761844"><ele>826.0</ele><time>2026-03-23T07:51:04Z</time></trkpt><trkpt lat="31.50981656675402" lon="-4.199656265361719"><ele>826.0</ele><time>2026-03-23T07:51:05Z</time></trkpt><trkpt lat="31.50997136626568" lon="-4.1995153872543325"><ele>826.0</ele><time>2026-03-23T07:51:06Z</time></trkpt><trkpt lat="31.510121102766313" lon="-4.199379973892496"><ele>826.0</ele><time>2026-03-23T07:51:07Z</time></trkpt><trkpt lat="31.510256141665653" lon="-4.19925887697815"><ele>826.0</ele><time>2026-03-23T07:51:08Z</time></trkpt><trkpt lat="31.51038769800065" lon="-4.199140903036186"><ele>826.0</ele><time>2026-03-23T07:51:09Z</time></trkpt><trkpt lat="31.510532110427718" lon="-4.199011471200358"><ele>826.0</ele><time>2026-03-23T07:51:10Z</time></trkpt><trkpt lat="31.510677057408508" lon="-4.198881121432367"><ele>826.0</ele><time>2026-03-23T07:51:11Z</time></trkpt><trkpt lat="31.51083498912293" lon="-4.198760850237398"><ele>826.0</ele><time>2026-03-23T07:51:12Z</time></trkpt><trkpt lat="31.51098263852583" lon="-4.198625166999811"><ele>826.0</ele><time>2026-03-23T07:51:13Z</time></trkpt><trkpt lat="31.511133011265823" lon="-4.198490751131687"><ele>826.6666666666666</ele><time>2026-03-23T07:51:14Z</time></trkpt><trkpt lat="31.51127753345448" lon="-4.1983573596484085"><ele>827.3333333333333</ele><time>2026-03-23T07:51:15Z</time></trkpt><trkpt lat="31.51142153274939" lon="-4.198224261717627"><ele>828.0</ele><time>2026-03-23T07:51:16Z</time></trkpt><trkpt lat="31.511549794269193" lon="-4.198108754686867"><ele>828.0</ele><time>2026-03-23T07:51:17Z</time></trkpt><trkpt lat="31.51166064215809" lon="-4.198010433205606"><ele>828.0</ele><time>2026-03-23T07:51:18Z</time></trkpt><trkpt lat="31.51174719846741" lon="-4.197914235035503"><ele>828.0</ele><time>2026-03-23T07:51:19Z</time></trkpt><trkpt lat="31.511814308779588" lon="-4.197825338088938"><ele>828.0</ele><time>2026-03-23T07:51:20Z</time></trkpt><trkpt lat="31.511865083720153" lon="-4.19775815355638"><ele>828.0</ele><time>2026-03-23T07:51:21Z</time></trkpt><trkpt lat="31.511928977253138" lon="-4.197757906074642"><ele>828.0</ele><time>2026-03-23T07:51:24Z</time></trkpt><trkpt lat="31.512026685561" lon="-4.19776695318008"><ele>828.0</ele><time>2026-03-23T07:51:25Z</time></trkpt><trkpt lat="31.51204499586249" lon="-4.197851369930277"><ele>828.0</ele><time>2026-03-23T07:51:26Z</time></trkpt><trkpt lat="31.51202486847129" lon="-4.197993546819455"><ele>828.0</ele><time>2026-03-23T07:51:27Z</time></trkpt><trkpt lat="31.51201525454442" lon="-4.198121013297156"><ele>828.0</ele><time>2026-03-23T07:51:28Z</time></trkpt><trkpt lat="31.51200704580026" lon="-4.198256846016173"><ele>828.0</ele><time>2026-03-23T07:51:29Z</time></trkpt><trkpt lat="31.512004934574133" lon="-4.198423786265641"><ele>828.0</ele><time>2026-03-23T07:51:30Z</time></trkpt><trkpt lat="31.51201985482492" lon="-4.198595949027801"><ele>828.0</ele><time>2026-03-23T07:51:31.001Z</time></trkpt><trkpt lat="31.5120245976469" lon="-4.198795945438136"><ele>828.0</ele><time>2026-03-23T07:51:32.001Z</time></trkpt><trkpt lat="31.51202921228555" lon="-4.19903564008856"><ele>828.0</ele><time>2026-03-23T07:51:33.001Z</time></trkpt><trkpt lat="31.51203972929591" lon="-4.199294929772407"><ele>828.0</ele><time>2026-03-23T07:51:34.001Z</time></trkpt><trkpt lat="31.51204712928759" lon="-4.1995749303225205"><ele>828.0</ele><time>2026-03-23T07:51:35.001Z</time></trkpt><trkpt lat="31.51206720114175" lon="-4.199881299223102"><ele>828.0</ele><time>2026-03-23T07:51:36.001Z</time></trkpt><trkpt lat="31.51208761165512" lon="-4.2002160539819835"><ele>828.0</ele><time>2026-03-23T07:51:37.001Z</time></trkpt><trkpt lat="31.51211197237676" lon="-4.20055375673561"><ele>828.0</ele><time>2026-03-23T07:51:38.001Z</time></trkpt><trkpt lat="31.51214887542605" lon="-4.200910347723076"><ele>828.5</ele><time>2026-03-23T07:51:39.001Z</time></trkpt><trkpt lat="31.512193622477678" lon="-4.20127635614801"><ele>829.0</ele><time>2026-03-23T07:51:40.001Z</time></trkpt><trkpt lat="31.512229880658335" lon="-4.2016196566124195"><ele>829.5</ele><time>2026-03-23T07:51:41.001Z</time></trkpt><trkpt lat="31.512272280540987" lon="-4.20195581288391"><ele>830.0</ele><time>2026-03-23T07:51:42.001Z</time></trkpt><trkpt lat="31.512320271219313" lon="-4.202290558439561"><ele>829.5</ele><time>2026-03-23T07:51:43.001Z</time></trkpt><trkpt lat="31.51237134383417" lon="-4.202623201832307"><ele>829.0</ele><time>2026-03-23T07:51:44.001Z</time></trkpt><trkpt lat="31.51243111586587" lon="-4.202948033754848"><ele>829.0</ele><time>2026-03-23T07:51:45.001Z</time></trkpt><trkpt lat="31.512487033229167" lon="-4.203254888250096"><ele>829.0</ele><time>2026-03-23T07:51:46.001Z</time></trkpt><trkpt lat="31.512537385058106" lon="-4.203559119170777"><ele>829.0</ele><time>2026-03-23T07:51:47.001Z</time></trkpt><trkpt lat="31.512586119709745" lon="-4.203860191192786"><ele>829.0</ele><time>2026-03-23T07:51:48.001Z</time></trkpt><trkpt lat="31.512628802503496" lon="-4.2041641385588795"><ele>829.5</ele><time>2026-03-23T07:51:49.001Z</time></trkpt><trkpt lat="31.512657702702345" lon="-4.204469361493196"><ele>830.0</ele><time>2026-03-23T07:51:50.001Z</time></trkpt><trkpt lat="31.51268049934546" lon="-4.204789038744109"><ele>830.5</ele><time>2026-03-23T07:51:51.001Z</time></trkpt><trkpt lat="31.512708040121986" lon="-4.205105499757856"><ele>831.0</ele><time>2026-03-23T07:51:52.001Z</time></trkpt><trkpt lat="31.512748091439242" lon="-4.20541905463853"><ele>830.5</ele><time>2026-03-23T07:51:53.001Z</time></trkpt><trkpt lat="31.51278970762661" lon="-4.205730948639691"><ele>830.0</ele><time>2026-03-23T07:51:54.001Z</time></trkpt><trkpt lat="31.512826662790793" lon="-4.206046794489851"><ele>830.0</ele><time>2026-03-23T07:51:55.001Z</time></trkpt><trkpt lat="31.51285939320442" lon="-4.206368800776233"><ele>830.0</ele><time>2026-03-23T07:51:56.001Z</time></trkpt><trkpt lat="31.51289083462618" lon="-4.206695748685525"><ele>831.0</ele><time>2026-03-23T07:51:57.001Z</time></trkpt><trkpt lat="31.512923539144474" lon="-4.207021279175241"><ele>832.0</ele><time>2026-03-23T07:51:58.001Z</time></trkpt><trkpt lat="31.512951533660296" lon="-4.207349114786728"><ele>832.5</ele><time>2026-03-23T07:51:59.001Z</time></trkpt><trkpt lat="31.51298114459294" lon="-4.207677612583417"><ele>833.0</ele><time>2026-03-23T07:52:00.001Z</time></trkpt><trkpt lat="31.513012468562504" lon="-4.2080098353189435"><ele>833.5</ele><time>2026-03-23T07:52:01.001Z</time></trkpt><trkpt lat="31.51304043080896" lon="-4.208338838274294"><ele>834.0</ele><time>2026-03-23T07:52:02.001Z</time></trkpt><trkpt lat="31.5130741939686" lon="-4.2086699509670495"><ele>833.5</ele><time>2026-03-23T07:52:03.001Z</time></trkpt><trkpt lat="31.513107027827107" lon="-4.208998653615075"><ele>833.0</ele><time>2026-03-23T07:52:04.001Z</time></trkpt><trkpt lat="31.513144410121136" lon="-4.209329393293747"><ele>833.0</ele><time>2026-03-23T07:52:05.001Z</time></trkpt><trkpt lat="31.513182661278112" lon="-4.2096588905887495"><ele>833.0</ele><time>2026-03-23T07:52:06.001Z</time></trkpt><trkpt lat="31.5132226407839" lon="-4.2099867265835496"><ele>833.5</ele><time>2026-03-23T07:52:07.001Z</time></trkpt><trkpt lat="31.513264860954422" lon="-4.210316011168349"><ele>834.0</ele><time>2026-03-23T07:52:08.001Z</time></trkpt><trkpt lat="31.513306708562375" lon="-4.210643917658225"><ele>834.0</ele><time>2026-03-23T07:52:09.001Z</time></trkpt><trkpt lat="31.513346486856346" lon="-4.210973497430185"><ele>834.0</ele><time>2026-03-23T07:52:10.001Z</time></trkpt><trkpt lat="31.513376780272104" lon="-4.21128844908963"><ele>834.0</ele><time>2026-03-23T07:52:11.001Z</time></trkpt><trkpt lat="31.513403816357563" lon="-4.211545472958166"><ele>834.0</ele><time>2026-03-23T07:52:12.001Z</time></trkpt><trkpt lat="31.513434639253678" lon="-4.211764815480284"><ele>834.0</ele><time>2026-03-23T07:52:13.001Z</time></trkpt><trkpt lat="31.513459493362998" lon="-4.21194328631734"><ele>834.0</ele><time>2026-03-23T07:52:14.001Z</time></trkpt><trkpt lat="31.513476806984674" lon="-4.212067403355174"><ele>834.0</ele><time>2026-03-23T07:52:15.001Z</time></trkpt><trkpt lat="31.5135479476211" lon="-4.212119649147645"><ele>834.0</ele><time>2026-03-23T07:52:18.001Z</time></trkpt><trkpt lat="31.513631750315277" lon="-4.212142300550791"><ele>834.0</ele><time>2026-03-23T07:52:20.001Z</time></trkpt><trkpt lat="31.513661262152674" lon="-4.212208982365208"><ele>834.0</ele><time>2026-03-23T07:52:22.001Z</time></trkpt><trkpt lat="31.513692753990732" lon="-4.212273378045058"><ele>834.0</ele><time>2026-03-23T07:54:27.002Z</time></trkpt><trkpt lat="31.51369140014511" lon="-4.212352092008328"><ele>833.8000000000001</ele><time>2026-03-23T07:55:14.001Z</time></trkpt><trkpt lat="31.513703320419502" lon="-4.212437170191824"><ele>833.6</ele><time>2026-03-23T07:55:18.001Z</time></trkpt><trkpt lat="31.51371441060175" lon="-4.212513734169921"><ele>833.4</ele><time>2026-03-23T07:55:21.001Z</time></trkpt><trkpt lat="31.513718425936805" lon="-4.2126489704418"><ele>833.2</ele><time>2026-03-23T07:55:26.001Z</time></trkpt><trkpt lat="31.513718574815687" lon="-4.2127481861892635"><ele>833.0</ele><time>2026-03-23T07:55:27.001Z</time></trkpt><trkpt lat="31.51370880030783" lon="-4.212880864521012"><ele>833.0</ele><time>2026-03-23T07:55:28.001Z</time></trkpt><trkpt lat="31.513695965670774" lon="-4.212983701981222"><ele>833.0</ele><time>2026-03-23T07:55:29.001Z</time></trkpt><trkpt lat="31.51355408547609" lon="-4.213093447695057"><ele>833.0</ele><time>2026-03-23T07:55:30.001Z</time></trkpt><trkpt lat="31.51356046838771" lon="-4.213190769483441"><ele>833.0</ele><time>2026-03-23T07:55:31.001Z</time></trkpt><trkpt lat="31.513567031460415" lon="-4.213290212024374"><ele>833.0</ele><time>2026-03-23T07:55:32.001Z</time></trkpt><trkpt lat="31.513573664422243" lon="-4.213411477356602"><ele>833.75</ele><time>2026-03-23T07:55:33.001Z</time></trkpt><trkpt lat="31.513797150225212" lon="-4.213484147799064"><ele>834.5</ele><time>2026-03-23T07:55:34.001Z</time></trkpt><trkpt lat="31.51385321762009" lon="-4.213577507469714"><ele>835.25</ele><time>2026-03-23T07:55:35.001Z</time></trkpt><trkpt lat="31.513930104349086" lon="-4.213681754348256"><ele>836.0</ele><time>2026-03-23T07:55:36.001Z</time></trkpt><trkpt lat="31.514021769152237" lon="-4.213777308766949"><ele>836.0</ele><time>2026-03-23T07:55:37.001Z</time></trkpt><trkpt lat="31.514152416338366" lon="-4.213823406532486"><ele>836.0</ele><time>2026-03-23T07:55:38.001Z</time></trkpt><trkpt lat="31.514255743506265" lon="-4.213904411216385"><ele>836.0</ele><time>2026-03-23T07:55:39.001Z</time></trkpt><trkpt lat="31.514349631823332" lon="-4.2139528205618655"><ele>836.0</ele><time>2026-03-23T07:55:40.001Z</time></trkpt><trkpt lat="31.514457077713956" lon="-4.214017097109127"><ele>836.5</ele><time>2026-03-23T07:55:41.001Z</time></trkpt><trkpt lat="31.514570287964" lon="-4.214070647359778"><ele>837.0</ele><time>2026-03-23T07:55:42.001Z</time></trkpt><trkpt lat="31.51466982456926" lon="-4.214139501413301"><ele>837.5</ele><time>2026-03-23T07:55:43.001Z</time></trkpt><trkpt lat="31.514783168375285" lon="-4.214226217954879"><ele>838.0</ele><time>2026-03-23T07:55:44.001Z</time></trkpt><trkpt lat="31.514895036588374" lon="-4.21431180561459"><ele>838.5</ele><time>2026-03-23T07:55:45.001Z</time></trkpt><trkpt lat="31.515006195870388" lon="-4.214396850594041"><ele>839.0</ele><time>2026-03-23T07:55:46.001Z</time></trkpt><trkpt lat="31.515112079175502" lon="-4.214488209584939"><ele>839.5</ele><time>2026-03-23T07:55:47.001Z</time></trkpt><trkpt lat="31.515215838318422" lon="-4.214576765903388"><ele>840.0</ele><time>2026-03-23T07:55:48.001Z</time></trkpt><trkpt lat="31.515323969399283" lon="-4.214670175490681"><ele>840.25</ele><time>2026-03-23T07:55:49.001Z</time></trkpt><trkpt lat="31.51543308904618" lon="-4.214763818601485"><ele>840.5</ele><time>2026-03-23T07:55:50.001Z</time></trkpt><trkpt lat="31.51551459429418" lon="-4.214865137587757"><ele>840.75</ele><time>2026-03-23T07:55:51.001Z</time></trkpt><trkpt lat="31.515606887705903" lon="-4.214976717346473"><ele>841.0</ele><time>2026-03-23T07:55:52.001Z</time></trkpt><trkpt lat="31.51569343089883" lon="-4.215106312909686"><ele>841.0</ele><time>2026-03-23T07:55:53.001Z</time></trkpt><trkpt lat="31.515789675313865" lon="-4.215280997578471"><ele>841.0</ele><time>2026-03-23T07:55:54.001Z</time></trkpt><trkpt lat="31.51588673908188" lon="-4.215453752844492"><ele>841.0</ele><time>2026-03-23T07:55:55.001Z</time></trkpt><trkpt lat="31.515949838418173" lon="-4.215603689959527"><ele>841.6666666666666</ele><time>2026-03-23T07:55:56.001Z</time></trkpt><trkpt lat="31.516006778826043" lon="-4.215747969324097"><ele>842.3333333333333</ele><time>2026-03-23T07:55:57.001Z</time></trkpt><trkpt lat="31.516072381078832" lon="-4.215914196722449"><ele>843.0</ele><time>2026-03-23T07:55:58.001Z</time></trkpt><trkpt lat="31.516149685689545" lon="-4.216110076514922"><ele>843.0</ele><time>2026-03-23T07:55:59.001Z</time></trkpt><trkpt lat="31.51622443513683" lon="-4.2162994814925066"><ele>843.0</ele><time>2026-03-23T07:56:00.001Z</time></trkpt><trkpt lat="31.516302031654128" lon="-4.216493263107204"><ele>843.0</ele><time>2026-03-23T07:56:01.001Z</time></trkpt><trkpt lat="31.516374603213695" lon="-4.216673344348483"><ele>843.0</ele><time>2026-03-23T07:56:02.001Z</time></trkpt><trkpt lat="31.51644385637122" lon="-4.216844976734607"><ele>843.0</ele><time>2026-03-23T07:56:03.001Z</time></trkpt><trkpt lat="31.516528728091558" lon="-4.216961010446143"><ele>843.0</ele><time>2026-03-23T07:56:04.001Z</time></trkpt><trkpt lat="31.51662564808421" lon="-4.217046228781683"><ele>843.0</ele><time>2026-03-23T07:56:05.001Z</time></trkpt><trkpt lat="31.51673161547944" lon="-4.217166470561482"><ele>843.0</ele><time>2026-03-23T07:56:06.001Z</time></trkpt><trkpt lat="31.516830533034295" lon="-4.217304386114249"><ele>843.0</ele><time>2026-03-23T07:56:07.001Z</time></trkpt><trkpt lat="31.51694399528713" lon="-4.2174327967891205"><ele>843.0</ele><time>2026-03-23T07:56:08.001Z</time></trkpt><trkpt lat="31.517046355566" lon="-4.217589633991509"><ele>843.3333333333333</ele><time>2026-03-23T07:56:09.001Z</time></trkpt><trkpt lat="31.517177716874283" lon="-4.217721510674657"><ele>843.6666666666666</ele><time>2026-03-23T07:56:10.001Z</time></trkpt><trkpt lat="31.517316477765345" lon="-4.217859773433053"><ele>844.0</ele><time>2026-03-23T07:56:11.001Z</time></trkpt><trkpt lat="31.51745722940147" lon="-4.2179982550760515"><ele>844.0</ele><time>2026-03-23T07:56:12.001Z</time></trkpt><trkpt lat="31.517580715926407" lon="-4.218136582226162"><ele>844.0</ele><time>2026-03-23T07:56:13.002Z</time></trkpt><trkpt lat="31.517703442664008" lon="-4.218282567784686"><ele>844.0</ele><time>2026-03-23T07:56:14.002Z</time></trkpt><trkpt lat="31.51781728487724" lon="-4.218428460490816"><ele>844.3333333333333</ele><time>2026-03-23T07:56:15.002Z</time></trkpt><trkpt lat="31.517929477793327" lon="-4.218573908578531"><ele>844.6666666666667</ele><time>2026-03-23T07:56:16.002Z</time></trkpt><trkpt lat="31.518045450684838" lon="-4.218723771847305"><ele>845.0</ele><time>2026-03-23T07:56:17.002Z</time></trkpt><trkpt lat="31.518193362192417" lon="-4.21885747610188"><ele>844.0</ele><time>2026-03-23T07:56:18.002Z</time></trkpt><trkpt lat="31.518332928029185" lon="-4.219005231364426"><ele>843.0</ele><time>2026-03-23T07:56:19.002Z</time></trkpt><trkpt lat="31.518463746930873" lon="-4.219139287636766"><ele>842.0</ele><time>2026-03-23T07:56:20.002Z</time></trkpt><trkpt lat="31.518599765854947" lon="-4.219239908086798"><ele>842.0</ele><time>2026-03-23T07:56:21.002Z</time></trkpt><trkpt lat="31.518732742506252" lon="-4.21931009677479"><ele>842.0</ele><time>2026-03-23T07:56:22.002Z</time></trkpt><trkpt lat="31.51883867795757" lon="-4.219382176258188"><ele>842.0</ele><time>2026-03-23T07:56:23.002Z</time></trkpt><trkpt lat="31.518950433476995" lon="-4.219458331899363"><ele>842.0</ele><time>2026-03-23T07:56:24.002Z</time></trkpt><trkpt lat="31.5190786625381" lon="-4.219549675810496"><ele>842.75</ele><time>2026-03-23T07:56:25.002Z</time></trkpt><trkpt lat="31.519183032947346" lon="-4.219665578075007"><ele>843.5</ele><time>2026-03-23T07:56:26.002Z</time></trkpt><trkpt lat="31.51930272222329" lon="-4.219754492641354"><ele>844.25</ele><time>2026-03-23T07:56:27.002Z</time></trkpt><trkpt lat="31.51941509537297" lon="-4.219855997584965"><ele>845.0</ele><time>2026-03-23T07:56:28.002Z</time></trkpt><trkpt lat="31.51952730665901" lon="-4.219978065829977"><ele>845.0</ele><time>2026-03-23T07:56:29.002Z</time></trkpt><trkpt lat="31.51966820999904" lon="-4.220067229416608"><ele>845.0</ele><time>2026-03-23T07:56:30.002Z</time></trkpt><trkpt lat="31.519817884204667" lon="-4.220172785246884"><ele>845.0</ele><time>2026-03-23T07:56:31.002Z</time></trkpt><trkpt lat="31.519946541778854" lon="-4.220237189286364"><ele>845.0</ele><time>2026-03-23T07:56:32.002Z</time></trkpt><trkpt lat="31.52004459507441" lon="-4.220301966628386"><ele>845.0</ele><time>2026-03-23T07:56:33.002Z</time></trkpt><trkpt lat="31.520156137155087" lon="-4.220377094440026"><ele>845.0</ele><time>2026-03-23T07:56:34.002Z</time></trkpt><trkpt lat="31.520286186062993" lon="-4.220497220252373"><ele>845.0</ele><time>2026-03-23T07:56:35.002Z</time></trkpt><trkpt lat="31.520414442971347" lon="-4.220609440337281"><ele>845.3333333333334</ele><time>2026-03-23T07:56:36.002Z</time></trkpt><trkpt lat="31.520534479267756" lon="-4.220714468475101"><ele>845.6666666666667</ele><time>2026-03-23T07:56:37.002Z</time></trkpt><trkpt lat="31.52064902100253" lon="-4.220870301652744"><ele>846.0</ele><time>2026-03-23T07:56:38.002Z</time></trkpt><trkpt lat="31.52075864882098" lon="-4.221019086895872"><ele>846.0</ele><time>2026-03-23T07:56:39.002Z</time></trkpt><trkpt lat="31.520882867745193" lon="-4.221186312307282"><ele>846.0</ele><time>2026-03-23T07:56:40.001Z</time></trkpt><trkpt lat="31.52100969607403" lon="-4.221362905261066"><ele>846.0</ele><time>2026-03-23T07:56:41.001Z</time></trkpt><trkpt lat="31.52113980062127" lon="-4.221548370055262"><ele>846.6666666666667</ele><time>2026-03-23T07:56:42.001Z</time></trkpt><trkpt lat="31.521267492629722" lon="-4.221730395860723"><ele>847.3333333333334</ele><time>2026-03-23T07:56:43.001Z</time></trkpt><trkpt lat="31.521381574453915" lon="-4.22189302017074"><ele>848.0</ele><time>2026-03-23T07:56:44.001Z</time></trkpt><trkpt lat="31.521498195137585" lon="-4.222059681634722"><ele>848.0</ele><time>2026-03-23T07:56:45.001Z</time></trkpt><trkpt lat="31.52162610020413" lon="-4.222242795281813"><ele>848.0</ele><time>2026-03-23T07:56:46.001Z</time></trkpt><trkpt lat="31.521751919249176" lon="-4.222422922472641"><ele>848.0</ele><time>2026-03-23T07:56:47.001Z</time></trkpt><trkpt lat="31.521880131036564" lon="-4.222585439299121"><ele>848.6666666666667</ele><time>2026-03-23T07:56:48.001Z</time></trkpt><trkpt lat="31.52201437531236" lon="-4.222745201084778"><ele>849.3333333333333</ele><time>2026-03-23T07:56:49.001Z</time></trkpt><trkpt lat="31.52213975002209" lon="-4.22289301042558"><ele>850.0</ele><time>2026-03-23T07:56:50.001Z</time></trkpt><trkpt lat="31.522278370166205" lon="-4.223057744140419"><ele>850.3333333333333</ele><time>2026-03-23T07:56:51.001Z</time></trkpt><trkpt lat="31.522411701797868" lon="-4.223231027182535"><ele>850.6666666666667</ele><time>2026-03-23T07:56:52.001Z</time></trkpt><trkpt lat="31.52251802553483" lon="-4.223399831314523"><ele>851.0</ele><time>2026-03-23T07:56:53.001Z</time></trkpt><trkpt lat="31.522625824984264" lon="-4.223570978394488"><ele>851.0</ele><time>2026-03-23T07:56:54.001Z</time></trkpt><trkpt lat="31.522742587349153" lon="-4.223754911503674"><ele>851.0</ele><time>2026-03-23T07:56:55.001Z</time></trkpt><trkpt lat="31.522851963647867" lon="-4.223942793367709"><ele>851.0</ele><time>2026-03-23T07:56:56.001Z</time></trkpt><trkpt lat="31.52298327158506" lon="-4.22413150025193"><ele>851.0</ele><time>2026-03-23T07:56:57.001Z</time></trkpt><trkpt lat="31.523106720246542" lon="-4.224307156676283"><ele>851.0</ele><time>2026-03-23T07:56:58.001Z</time></trkpt><trkpt lat="31.523213086377904" lon="-4.224478845340697"><ele>851.0</ele><time>2026-03-23T07:56:59.001Z</time></trkpt><trkpt lat="31.523315787609764" lon="-4.224650904452532"><ele>850.0</ele><time>2026-03-23T07:57:00.001Z</time></trkpt><trkpt lat="31.523437499534484" lon="-4.224815479042344"><ele>849.0</ele><time>2026-03-23T07:57:01.001Z</time></trkpt><trkpt lat="31.52355198089914" lon="-4.22498529563987"><ele>848.0</ele><time>2026-03-23T07:57:02.001Z</time></trkpt><trkpt lat="31.523665913575357" lon="-4.225152770099586"><ele>848.0</ele><time>2026-03-23T07:57:03.001Z</time></trkpt><trkpt lat="31.5237889714279" lon="-4.225333658051241"><ele>848.0</ele><time>2026-03-23T07:57:04.001Z</time></trkpt><trkpt lat="31.523911182498157" lon="-4.225513301333764"><ele>848.0</ele><time>2026-03-23T07:57:05.001Z</time></trkpt><trkpt lat="31.524025999687062" lon="-4.2256820759680975"><ele>848.3333333333334</ele><time>2026-03-23T07:57:06.001Z</time></trkpt><trkpt lat="31.524148663303208" lon="-4.225854803620471"><ele>848.6666666666667</ele><time>2026-03-23T07:57:07.001Z</time></trkpt><trkpt lat="31.524278998771333" lon="-4.226026736370529"><ele>849.0</ele><time>2026-03-23T07:57:08.001Z</time></trkpt><trkpt lat="31.524417555134757" lon="-4.226209484772031"><ele>849.3333333333333</ele><time>2026-03-23T07:57:09.001Z</time></trkpt><trkpt lat="31.524569517636206" lon="-4.226409774131943"><ele>849.6666666666666</ele><time>2026-03-23T07:57:10.001Z</time></trkpt><trkpt lat="31.524657491183255" lon="-4.226526174762498"><ele>850.0</ele><time>2026-03-23T07:57:11.001Z</time></trkpt><trkpt lat="31.524772405841578" lon="-4.226680663764468"><ele>850.0</ele><time>2026-03-23T07:57:12.001Z</time></trkpt><trkpt lat="31.524896594379705" lon="-4.226847761023383"><ele>850.0</ele><time>2026-03-23T07:57:13.001Z</time></trkpt><trkpt lat="31.525023088178887" lon="-4.227018308284771"><ele>850.0</ele><time>2026-03-23T07:57:14.001Z</time></trkpt><trkpt lat="31.52514842485614" lon="-4.227183157504137"><ele>850.0</ele><time>2026-03-23T07:57:15.001Z</time></trkpt><trkpt lat="31.525288481666934" lon="-4.227350524118677"><ele>850.0</ele><time>2026-03-23T07:57:16.001Z</time></trkpt><trkpt lat="31.525424141127846" lon="-4.227511222979174"><ele>850.0</ele><time>2026-03-23T07:57:17.001Z</time></trkpt><trkpt lat="31.525566109577362" lon="-4.227679185604112"><ele>849.3333333333333</ele><time>2026-03-23T07:57:18.001Z</time></trkpt><trkpt lat="31.525692449865982" lon="-4.22781737564829"><ele>848.6666666666667</ele><time>2026-03-23T07:57:19.001Z</time></trkpt><trkpt lat="31.525817875576053" lon="-4.227953599942425"><ele>848.0</ele><time>2026-03-23T07:57:20.001Z</time></trkpt><trkpt lat="31.525964124797348" lon="-4.228110762687293"><ele>848.3333333333334</ele><time>2026-03-23T07:57:21.001Z</time></trkpt><trkpt lat="31.526091957308324" lon="-4.228277542791703"><ele>848.6666666666667</ele><time>2026-03-23T07:57:22.001Z</time></trkpt><trkpt lat="31.526248201652" lon="-4.228487126775316"><ele>849.0</ele><time>2026-03-23T07:57:23.001Z</time></trkpt><trkpt lat="31.52636348487078" lon="-4.228685725690087"><ele>849.0</ele><time>2026-03-23T07:57:24.001Z</time></trkpt><trkpt lat="31.526478318395235" lon="-4.228882489366607"><ele>849.0</ele><time>2026-03-23T07:57:25.001Z</time></trkpt><trkpt lat="31.52659608244167" lon="-4.2290874020344615"><ele>849.0</ele><time>2026-03-23T07:57:26.001Z</time></trkpt><trkpt lat="31.52670382308906" lon="-4.2292825873663835"><ele>849.0</ele><time>2026-03-23T07:57:27.001Z</time></trkpt><trkpt lat="31.526808309601414" lon="-4.2294718774204565"><ele>849.0</ele><time>2026-03-23T07:57:28.001Z</time></trkpt><trkpt lat="31.526909723458566" lon="-4.22965536171608"><ele>849.0</ele><time>2026-03-23T07:57:29.001Z</time></trkpt><trkpt lat="31.527012613128328" lon="-4.229842210155958"><ele>849.3333333333333</ele><time>2026-03-23T07:57:30.001Z</time></trkpt><trkpt lat="31.527118794989605" lon="-4.230035760848303"><ele>849.6666666666666</ele><time>2026-03-23T07:57:31.001Z</time></trkpt><trkpt lat="31.527225257389755" lon="-4.230229873353141"><ele>850.0</ele><time>2026-03-23T07:57:32.001Z</time></trkpt><trkpt lat="31.527331324946218" lon="-4.2304237648206096"><ele>850.0</ele><time>2026-03-23T07:57:33.001Z</time></trkpt><trkpt lat="31.52743648682134" lon="-4.230617578843154"><ele>850.0</ele><time>2026-03-23T07:57:34.001Z</time></trkpt><trkpt lat="31.527537011886327" lon="-4.23080905048369"><ele>850.0</ele><time>2026-03-23T07:57:35.001Z</time></trkpt><trkpt lat="31.52763678665149" lon="-4.231000172583546"><ele>850.6666666666666</ele><time>2026-03-23T07:57:36.001Z</time></trkpt><trkpt lat="31.527753264648833" lon="-4.231239073937501"><ele>851.3333333333333</ele><time>2026-03-23T07:57:37.001Z</time></trkpt><trkpt lat="31.52784809550908" lon="-4.231453254776842"><ele>852.0</ele><time>2026-03-23T07:57:38.001Z</time></trkpt><trkpt lat="31.52794502667372" lon="-4.231672283527262"><ele>852.0</ele><time>2026-03-23T07:57:39.001Z</time></trkpt><trkpt lat="31.528035706794764" lon="-4.2318772669196925"><ele>852.0</ele><time>2026-03-23T07:57:40.001Z</time></trkpt><trkpt lat="31.528128613359243" lon="-4.2320872831964715"><ele>852.0</ele><time>2026-03-23T07:57:41.001Z</time></trkpt><trkpt lat="31.528247051167625" lon="-4.232378162859309"><ele>853.0</ele><time>2026-03-23T07:57:42.001Z</time></trkpt><trkpt lat="31.52831527672725" lon="-4.232605510809263"><ele>854.0</ele><time>2026-03-23T07:57:43.001Z</time></trkpt><trkpt lat="31.528386203950177" lon="-4.232841861476285"><ele>855.0</ele><time>2026-03-23T07:57:44.001Z</time></trkpt><trkpt lat="31.528455597529625" lon="-4.233091900745553"><ele>855.3333333333333</ele><time>2026-03-23T07:57:45.001Z</time></trkpt><trkpt lat="31.52851383431466" lon="-4.233317485345932"><ele>855.6666666666666</ele><time>2026-03-23T07:57:46.001Z</time></trkpt><trkpt lat="31.528571701828508" lon="-4.2335416397030405"><ele>856.0</ele><time>2026-03-23T07:57:47.001Z</time></trkpt><trkpt lat="31.528616380590655" lon="-4.2337146418530605"><ele>856.0</ele><time>2026-03-23T07:57:48.001Z</time></trkpt><trkpt lat="31.528693637374158" lon="-4.233927141676144"><ele>856.0</ele><time>2026-03-23T07:57:49.001Z</time></trkpt><trkpt lat="31.52877104866892" lon="-4.234139982386075"><ele>856.0</ele><time>2026-03-23T07:57:50.001Z</time></trkpt><trkpt lat="31.528848446166975" lon="-4.234352596628128"><ele>856.0</ele><time>2026-03-23T07:57:51.001Z</time></trkpt><trkpt lat="31.528928808445947" lon="-4.234585353988125"><ele>856.0</ele><time>2026-03-23T07:57:52.001Z</time></trkpt><trkpt lat="31.528990858667935" lon="-4.234793996503562"><ele>856.0</ele><time>2026-03-23T07:57:53.001Z</time></trkpt><trkpt lat="31.529052883239256" lon="-4.235002552961251"><ele>855.6666666666666</ele><time>2026-03-23T07:57:54.001Z</time></trkpt><trkpt lat="31.529112438190282" lon="-4.235209072330198"><ele>855.3333333333333</ele><time>2026-03-23T07:57:55.001Z</time></trkpt><trkpt lat="31.52917094308471" lon="-4.2354227604607475"><ele>855.0</ele><time>2026-03-23T07:57:56.001Z</time></trkpt><trkpt lat="31.52922935319765" lon="-4.235636102389464"><ele>855.6666666666667</ele><time>2026-03-23T07:57:57.001Z</time></trkpt><trkpt lat="31.52928944188684" lon="-4.235855575174994"><ele>856.3333333333334</ele><time>2026-03-23T07:57:58.001Z</time></trkpt><trkpt lat="31.52934726460419" lon="-4.236073099975842"><ele>857.0</ele><time>2026-03-23T07:57:59.001Z</time></trkpt><trkpt lat="31.52940258080689" lon="-4.236282946990316"><ele>856.0</ele><time>2026-03-23T07:58:00.001Z</time></trkpt><trkpt lat="31.52945750718475" lon="-4.236494389458764"><ele>855.0</ele><time>2026-03-23T07:58:01.001Z</time></trkpt><trkpt lat="31.529522418736136" lon="-4.236712740264284"><ele>854.0</ele><time>2026-03-23T07:58:02.001Z</time></trkpt><trkpt lat="31.52958851736106" lon="-4.236935085606543"><ele>854.0</ele><time>2026-03-23T07:58:03.001Z</time></trkpt><trkpt lat="31.52965235971735" lon="-4.23714984101594"><ele>854.0</ele><time>2026-03-23T07:58:04.001Z</time></trkpt><trkpt lat="31.529709916713465" lon="-4.237336185246223"><ele>854.0</ele><time>2026-03-23T07:58:05.001Z</time></trkpt><trkpt lat="31.52977683383439" lon="-4.237544390026429"><ele>854.0</ele><time>2026-03-23T07:58:06.001Z</time></trkpt><trkpt lat="31.529851015624942" lon="-4.237751705585989"><ele>854.0</ele><time>2026-03-23T07:58:07.001Z</time></trkpt><trkpt lat="31.529937864711354" lon="-4.237974177912158"><ele>854.0</ele><time>2026-03-23T07:58:08.001Z</time></trkpt><trkpt lat="31.530027300138624" lon="-4.238203272523219"><ele>854.6666666666667</ele><time>2026-03-23T07:58:09.001Z</time></trkpt><trkpt lat="31.53012519124322" lon="-4.238377321231003"><ele>855.3333333333333</ele><time>2026-03-23T07:58:10.001Z</time></trkpt><trkpt lat="31.53022221248403" lon="-4.238564349707299"><ele>856.0</ele><time>2026-03-23T07:58:11.001Z</time></trkpt><trkpt lat="31.530322944577343" lon="-4.2387658110290465"><ele>856.3333333333333</ele><time>2026-03-23T07:58:12.001Z</time></trkpt><trkpt lat="31.530410671110918" lon="-4.238947336090061"><ele>856.6666666666667</ele><time>2026-03-23T07:58:13.001Z</time></trkpt><trkpt lat="31.530504310735168" lon="-4.239141096540204"><ele>857.0</ele><time>2026-03-23T07:58:14.001Z</time></trkpt><trkpt lat="31.530602778019713" lon="-4.239344407608086"><ele>856.3333333333334</ele><time>2026-03-23T07:58:15.001Z</time></trkpt><trkpt lat="31.530696228973312" lon="-4.239536771449552"><ele>855.6666666666667</ele><time>2026-03-23T07:58:16.001Z</time></trkpt><trkpt lat="31.530786598106406" lon="-4.2397227914413405"><ele>855.0</ele><time>2026-03-23T07:58:17.001Z</time></trkpt><trkpt lat="31.53089276906482" lon="-4.239958039814983"><ele>854.6666666666667</ele><time>2026-03-23T07:58:18.001Z</time></trkpt><trkpt lat="31.530984890233796" lon="-4.240172349227139"><ele>854.3333333333334</ele><time>2026-03-23T07:58:19.001Z</time></trkpt><trkpt lat="31.53107555806255" lon="-4.240383989115846"><ele>854.0</ele><time>2026-03-23T07:58:20.001Z</time></trkpt><trkpt lat="31.531173633635426" lon="-4.240611053520505"><ele>855.3333333333334</ele><time>2026-03-23T07:58:21.001Z</time></trkpt><trkpt lat="31.531265638786643" lon="-4.240806732970962"><ele>856.6666666666667</ele><time>2026-03-23T07:58:22.001Z</time></trkpt><trkpt lat="31.531365799488118" lon="-4.241019772303952"><ele>858.0</ele><time>2026-03-23T07:58:23.001Z</time></trkpt><trkpt lat="31.53147273704831" lon="-4.241248331145714"><ele>858.0</ele><time>2026-03-23T07:58:24.001Z</time></trkpt><trkpt lat="31.53157177008845" lon="-4.241460455202575"><ele>858.0</ele><time>2026-03-23T07:58:25.001Z</time></trkpt><trkpt lat="31.53169767224932" lon="-4.241739721666877"><ele>857.0</ele><time>2026-03-23T07:58:26.001Z</time></trkpt><trkpt lat="31.53179293687623" lon="-4.241957698551959"><ele>856.0</ele><time>2026-03-23T07:58:27.001Z</time></trkpt><trkpt lat="31.531876278582324" lon="-4.242147787481619"><ele>855.0</ele><time>2026-03-23T07:58:28.001Z</time></trkpt><trkpt lat="31.531960079956793" lon="-4.242343065947297"><ele>854.6666666666667</ele><time>2026-03-23T07:58:29.001Z</time></trkpt><trkpt lat="31.532041935516123" lon="-4.2425362741794235"><ele>854.3333333333334</ele><time>2026-03-23T07:58:30.001Z</time></trkpt><trkpt lat="31.53211459693669" lon="-4.242707592144567"><ele>854.0</ele><time>2026-03-23T07:58:31.001Z</time></trkpt><trkpt lat="31.532195581429583" lon="-4.242906635945972"><ele>854.0</ele><time>2026-03-23T07:58:32.001Z</time></trkpt><trkpt lat="31.53226907102991" lon="-4.243097230396587"><ele>854.0</ele><time>2026-03-23T07:58:33.001Z</time></trkpt><trkpt lat="31.53234545142107" lon="-4.243294652130931"><ele>854.0</ele><time>2026-03-23T07:58:34.001Z</time></trkpt><trkpt lat="31.5324115303825" lon="-4.243467536514557"><ele>855.0</ele><time>2026-03-23T07:58:35.001Z</time></trkpt><trkpt lat="31.532495913438844" lon="-4.243665481499512"><ele>856.0</ele><time>2026-03-23T07:58:36.001Z</time></trkpt><trkpt lat="31.53258626854574" lon="-4.243877476346882"><ele>857.0</ele><time>2026-03-23T07:58:37.001Z</time></trkpt><trkpt lat="31.532682548031673" lon="-4.244103425264883"><ele>857.0</ele><time>2026-03-23T07:58:38.001Z</time></trkpt><trkpt lat="31.532774851682074" lon="-4.244320043711167"><ele>857.0</ele><time>2026-03-23T07:58:39.002Z</time></trkpt><trkpt lat="31.532855922748304" lon="-4.24450491088148"><ele>857.0</ele><time>2026-03-23T07:58:40.002Z</time></trkpt><trkpt lat="31.53294421716641" lon="-4.244694013959775"><ele>856.6666666666667</ele><time>2026-03-23T07:58:41.002Z</time></trkpt><trkpt lat="31.533031904150846" lon="-4.244882338016237"><ele>856.3333333333333</ele><time>2026-03-23T07:58:42.002Z</time></trkpt><trkpt lat="31.533117067446874" lon="-4.2450647590671"><ele>856.0</ele><time>2026-03-23T07:58:43.002Z</time></trkpt><trkpt lat="31.533214461872536" lon="-4.245279063868314"><ele>856.0</ele><time>2026-03-23T07:58:44.002Z</time></trkpt><trkpt lat="31.533303172806594" lon="-4.245483833062762"><ele>856.0</ele><time>2026-03-23T07:58:45.002Z</time></trkpt><trkpt lat="31.53338720461765" lon="-4.245677801577051"><ele>856.0</ele><time>2026-03-23T07:58:46.001Z</time></trkpt><trkpt lat="31.53347767828635" lon="-4.2459037926972245"><ele>856.0</ele><time>2026-03-23T07:58:47.001Z</time></trkpt><trkpt lat="31.533554741652257" lon="-4.246097106055176"><ele>856.0</ele><time>2026-03-23T07:58:48.001Z</time></trkpt><trkpt lat="31.533631987088548" lon="-4.246290995171343"><ele>856.0</ele><time>2026-03-23T07:58:49.001Z</time></trkpt><trkpt lat="31.533713790078217" lon="-4.246497166411158"><ele>856.3333333333333</ele><time>2026-03-23T07:58:50.001Z</time></trkpt><trkpt lat="31.533792197573696" lon="-4.246700832272348"><ele>856.6666666666667</ele><time>2026-03-23T07:58:51.001Z</time></trkpt><trkpt lat="31.53387062413725" lon="-4.246904547704529"><ele>857.0</ele><time>2026-03-23T07:58:52.001Z</time></trkpt><trkpt lat="31.53395902017472" lon="-4.247134159051403"><ele>856.6666666666667</ele><time>2026-03-23T07:58:53.001Z</time></trkpt><trkpt lat="31.534050590887915" lon="-4.247407695743058"><ele>856.3333333333333</ele><time>2026-03-23T07:58:54.001Z</time></trkpt><trkpt lat="31.534119048270576" lon="-4.247625141583432"><ele>856.0</ele><time>2026-03-23T07:58:55.001Z</time></trkpt><trkpt lat="31.53418692781587" lon="-4.247840656342164"><ele>855.5</ele><time>2026-03-23T07:58:56.001Z</time></trkpt><trkpt lat="31.534273330831617" lon="-4.248126820527613"><ele>855.0</ele><time>2026-03-23T07:58:57.001Z</time></trkpt><trkpt lat="31.534345542726214" lon="-4.248402014822994"><ele>855.0</ele><time>2026-03-23T07:58:58.001Z</time></trkpt><trkpt lat="31.534373079349464" lon="-4.248502724942273"><ele>855.0</ele><time>2026-03-23T07:58:59.001Z</time></trkpt><trkpt lat="31.53445185020285" lon="-4.248742900313596"><ele>855.0</ele><time>2026-03-23T07:59:00.001Z</time></trkpt><trkpt lat="31.534510689010137" lon="-4.248925233793218"><ele>855.6666666666667</ele><time>2026-03-23T07:59:01.001Z</time></trkpt><trkpt lat="31.534612435456495" lon="-4.249129224975692"><ele>856.3333333333334</ele><time>2026-03-23T07:59:02.001Z</time></trkpt><trkpt lat="31.534714840694555" lon="-4.249334029250261"><ele>857.0</ele><time>2026-03-23T07:59:03.001Z</time></trkpt><trkpt lat="31.534818937005667" lon="-4.249542874667571"><ele>857.0</ele><time>2026-03-23T07:59:04.001Z</time></trkpt><trkpt lat="31.534918440109678" lon="-4.2497433787284224"><ele>857.0</ele><time>2026-03-23T07:59:05.001Z</time></trkpt><trkpt lat="31.535016130263177" lon="-4.249940229012841"><ele>857.0</ele><time>2026-03-23T07:59:06.001Z</time></trkpt><trkpt lat="31.535112848332258" lon="-4.2501351209717795"><ele>856.6666666666667</ele><time>2026-03-23T07:59:07.001Z</time></trkpt><trkpt lat="31.53519772798444" lon="-4.250314706197352"><ele>856.3333333333333</ele><time>2026-03-23T07:59:08.001Z</time></trkpt><trkpt lat="31.535282295850436" lon="-4.250494703194467"><ele>856.0</ele><time>2026-03-23T07:59:09.001Z</time></trkpt><trkpt lat="31.535358709818645" lon="-4.250657856075006"><ele>855.0</ele><time>2026-03-23T07:59:10.001Z</time></trkpt><trkpt lat="31.535429816651167" lon="-4.250810902911057"><ele>854.0</ele><time>2026-03-23T07:59:11.001Z</time></trkpt><trkpt lat="31.535516190142182" lon="-4.251033817789176"><ele>853.0</ele><time>2026-03-23T07:59:12.001Z</time></trkpt><trkpt lat="31.535591478182724" lon="-4.251253920617555"><ele>853.0</ele><time>2026-03-23T07:59:13.001Z</time></trkpt><trkpt lat="31.535646474548965" lon="-4.251452246069657"><ele>853.0</ele><time>2026-03-23T07:59:14.001Z</time></trkpt><trkpt lat="31.535701017794615" lon="-4.251649613283919"><ele>853.0</ele><time>2026-03-23T07:59:15.001Z</time></trkpt><trkpt lat="31.53575816602178" lon="-4.251858533205837"><ele>853.6666666666666</ele><time>2026-03-23T07:59:16.001Z</time></trkpt><trkpt lat="31.535816879076506" lon="-4.252073935189511"><ele>854.3333333333333</ele><time>2026-03-23T07:59:17.001Z</time></trkpt><trkpt lat="31.53588134529732" lon="-4.252310443636793"><ele>855.0</ele><time>2026-03-23T07:59:18.001Z</time></trkpt><trkpt lat="31.535949880974403" lon="-4.252563472891659"><ele>855.0</ele><time>2026-03-23T07:59:19.001Z</time></trkpt><trkpt lat="31.53602435785543" lon="-4.252838835840891"><ele>855.0</ele><time>2026-03-23T07:59:20.001Z</time></trkpt><trkpt lat="31.536101539818368" lon="-4.253127366861197"><ele>855.3333333333333</ele><time>2026-03-23T07:59:21.001Z</time></trkpt><trkpt lat="31.53618076293773" lon="-4.253425459291379"><ele>855.6666666666666</ele><time>2026-03-23T07:59:22.001Z</time></trkpt><trkpt lat="31.53622330076217" lon="-4.253585516167611"><ele>856.0</ele><time>2026-03-23T07:59:23.001Z</time></trkpt><trkpt lat="31.536283279287456" lon="-4.253812639820316"><ele>856.3333333333333</ele><time>2026-03-23T07:59:24.001Z</time></trkpt><trkpt lat="31.53633532541772" lon="-4.254010683442475"><ele>856.6666666666667</ele><time>2026-03-23T07:59:25.001Z</time></trkpt><trkpt lat="31.5363877698646" lon="-4.2542093050794705"><ele>857.0</ele><time>2026-03-23T07:59:26.001Z</time></trkpt><trkpt lat="31.536439974009095" lon="-4.254407768210331"><ele>857.0</ele><time>2026-03-23T07:59:27.001Z</time></trkpt><trkpt lat="31.536489909468145" lon="-4.25459976978774"><ele>857.0</ele><time>2026-03-23T07:59:28.001Z</time></trkpt><trkpt lat="31.53654210766258" lon="-4.254800471499242"><ele>857.0</ele><time>2026-03-23T07:59:29.001Z</time></trkpt><trkpt lat="31.536596967027414" lon="-4.255011405574818"><ele>856.3333333333334</ele><time>2026-03-23T07:59:30.001Z</time></trkpt><trkpt lat="31.536652939156188" lon="-4.255224933830714"><ele>855.6666666666667</ele><time>2026-03-23T07:59:31.001Z</time></trkpt><trkpt lat="31.536708190131062" lon="-4.2554327646814585"><ele>855.0</ele><time>2026-03-23T07:59:32.001Z</time></trkpt><trkpt lat="31.536765362399905" lon="-4.255647822644806"><ele>855.0</ele><time>2026-03-23T07:59:33.001Z</time></trkpt><trkpt lat="31.536822946393578" lon="-4.25586442933928"><ele>855.0</ele><time>2026-03-23T07:59:34.001Z</time></trkpt><trkpt lat="31.536875931982635" lon="-4.25606373875147"><ele>855.0</ele><time>2026-03-23T07:59:35.001Z</time></trkpt><trkpt lat="31.53692478074366" lon="-4.256247487149715"><ele>855.0</ele><time>2026-03-23T07:59:36.001Z</time></trkpt><trkpt lat="31.53697335058542" lon="-4.256430186447595"><ele>855.0</ele><time>2026-03-23T07:59:37.001Z</time></trkpt><trkpt lat="31.537027320303487" lon="-4.2566411591009885"><ele>855.0</ele><time>2026-03-23T07:59:38.001Z</time></trkpt><trkpt lat="31.537081635873434" lon="-4.256849907632963"><ele>855.0</ele><time>2026-03-23T07:59:39.001Z</time></trkpt><trkpt lat="31.53713526804607" lon="-4.2570585064357775"><ele>855.0</ele><time>2026-03-23T07:59:40.001Z</time></trkpt><trkpt lat="31.537188793099023" lon="-4.257266688453028"><ele>855.0</ele><time>2026-03-23T07:59:41.001Z</time></trkpt><trkpt lat="31.537243248941433" lon="-4.257478490725806"><ele>855.3333333333333</ele><time>2026-03-23T07:59:42.001Z</time></trkpt><trkpt lat="31.537298193064576" lon="-4.257691536957916"><ele>855.6666666666666</ele><time>2026-03-23T07:59:43.001Z</time></trkpt><trkpt lat="31.537358924132793" lon="-4.257911591167239"><ele>856.0</ele><time>2026-03-23T07:59:44.001Z</time></trkpt><trkpt lat="31.53741933740201" lon="-4.258130493882035"><ele>856.0</ele><time>2026-03-23T07:59:45.001Z</time></trkpt><trkpt lat="31.537476926014662" lon="-4.258339161614939"><ele>856.0</ele><time>2026-03-23T07:59:46.001Z</time></trkpt><trkpt lat="31.537535564937322" lon="-4.258550846974678"><ele>856.0</ele><time>2026-03-23T07:59:47.001Z</time></trkpt><trkpt lat="31.537599286263486" lon="-4.2587774154052225"><ele>857.0</ele><time>2026-03-23T07:59:48.001Z</time></trkpt><trkpt lat="31.53766266491939" lon="-4.2589998750208995"><ele>858.0</ele><time>2026-03-23T07:59:49.001Z</time></trkpt><trkpt lat="31.53772567928938" lon="-4.259221055839389"><ele>859.0</ele><time>2026-03-23T07:59:50.001Z</time></trkpt><trkpt lat="31.537789460421703" lon="-4.259444928112576"><ele>859.0</ele><time>2026-03-23T07:59:51.001Z</time></trkpt><trkpt lat="31.537850374176045" lon="-4.259658466672752"><ele>859.0</ele><time>2026-03-23T07:59:52.001Z</time></trkpt><trkpt lat="31.537910247365595" lon="-4.259867368010212"><ele>859.0</ele><time>2026-03-23T07:59:53.001Z</time></trkpt><trkpt lat="31.53797328627525" lon="-4.2600840605051244"><ele>858.3333333333333</ele><time>2026-03-23T07:59:54.001Z</time></trkpt><trkpt lat="31.53804791134511" lon="-4.260315793694742"><ele>857.6666666666667</ele><time>2026-03-23T07:59:55.001Z</time></trkpt><trkpt lat="31.53812289552968" lon="-4.2605493726616"><ele>857.0</ele><time>2026-03-23T07:59:56.001Z</time></trkpt><trkpt lat="31.53819593937627" lon="-4.260776076976036"><ele>857.0</ele><time>2026-03-23T07:59:57.001Z</time></trkpt><trkpt lat="31.538269075988172" lon="-4.261003069124612"><ele>857.0</ele><time>2026-03-23T07:59:58.001Z</time></trkpt><trkpt lat="31.538340767115493" lon="-4.261225789730404"><ele>857.0</ele><time>2026-03-23T07:59:59.001Z</time></trkpt><trkpt lat="31.538409418880725" lon="-4.261429306954534"><ele>857.3333333333334</ele><time>2026-03-23T08:00:00.001Z</time></trkpt><trkpt lat="31.538492326654154" lon="-4.261650226401181"><ele>857.6666666666667</ele><time>2026-03-23T08:00:01.001Z</time></trkpt><trkpt lat="31.53857521007973" lon="-4.261871528931758"><ele>858.0</ele><time>2026-03-23T08:00:02.001Z</time></trkpt><trkpt lat="31.53866243594466" lon="-4.262105316328527"><ele>857.0</ele><time>2026-03-23T08:00:03.001Z</time></trkpt><trkpt lat="31.538747916525313" lon="-4.262367020474436"><ele>856.0</ele><time>2026-03-23T08:00:04.001Z</time></trkpt><trkpt lat="31.538818343198827" lon="-4.262622202067893"><ele>856.0</ele><time>2026-03-23T08:00:05.001Z</time></trkpt><trkpt lat="31.53888591739664" lon="-4.262867457819237"><ele>856.0</ele><time>2026-03-23T08:00:06.001Z</time></trkpt><trkpt lat="31.5389516099966" lon="-4.263106512668693"><ele>856.0</ele><time>2026-03-23T08:00:07.001Z</time></trkpt><trkpt lat="31.539016923985375" lon="-4.263332720258147"><ele>856.6666666666666</ele><time>2026-03-23T08:00:08.001Z</time></trkpt><trkpt lat="31.539093152845975" lon="-4.263545625624147"><ele>857.3333333333333</ele><time>2026-03-23T08:00:09.001Z</time></trkpt><trkpt lat="31.539172750138565" lon="-4.263767888350672"><ele>858.0</ele><time>2026-03-23T08:00:10.001Z</time></trkpt><trkpt lat="31.5392514188147" lon="-4.263987064597192"><ele>858.0</ele><time>2026-03-23T08:00:11.001Z</time></trkpt><trkpt lat="31.539320443701232" lon="-4.264210779062387"><ele>858.0</ele><time>2026-03-23T08:00:12.001Z</time></trkpt><trkpt lat="31.539410261186564" lon="-4.264410765336439"><ele>858.0</ele><time>2026-03-23T08:00:13.001Z</time></trkpt><trkpt lat="31.539480855485518" lon="-4.264590376496455"><ele>858.6666666666667</ele><time>2026-03-23T08:00:14.001Z</time></trkpt><trkpt lat="31.539539452040394" lon="-4.264798744500966"><ele>859.3333333333334</ele><time>2026-03-23T08:00:15.001Z</time></trkpt><trkpt lat="31.53959883839856" lon="-4.264968311823536"><ele>860.0</ele><time>2026-03-23T08:00:16.001Z</time></trkpt><trkpt lat="31.539655160686927" lon="-4.265129129922763"><ele>860.3333333333334</ele><time>2026-03-23T08:00:17.001Z</time></trkpt><trkpt lat="31.539708699505212" lon="-4.26527906559501"><ele>860.6666666666667</ele><time>2026-03-23T08:00:18.001Z</time></trkpt><trkpt lat="31.539777765912277" lon="-4.265459182348722"><ele>861.0</ele><time>2026-03-23T08:00:19.001Z</time></trkpt><trkpt lat="31.539850207439326" lon="-4.265648101081855"><ele>859.6666666666667</ele><time>2026-03-23T08:00:20.001Z</time></trkpt><trkpt lat="31.539924248541613" lon="-4.265841191107313"><ele>858.3333333333334</ele><time>2026-03-23T08:00:21.001Z</time></trkpt><trkpt lat="31.540007779604682" lon="-4.266039098556301"><ele>857.0</ele><time>2026-03-23T08:00:22.001Z</time></trkpt><trkpt lat="31.54010497784342" lon="-4.2662387753279765"><ele>857.0</ele><time>2026-03-23T08:00:23.001Z</time></trkpt><trkpt lat="31.54020510504072" lon="-4.266410898992704"><ele>857.0</ele><time>2026-03-23T08:00:24.001Z</time></trkpt><trkpt lat="31.54027881669955" lon="-4.266596567441541"><ele>857.0</ele><time>2026-03-23T08:00:25.001Z</time></trkpt><trkpt lat="31.540354582876475" lon="-4.266782700589068"><ele>857.6666666666667</ele><time>2026-03-23T08:00:26.001Z</time></trkpt><trkpt lat="31.540460759266068" lon="-4.266966078670152"><ele>858.3333333333333</ele><time>2026-03-23T08:00:27.001Z</time></trkpt><trkpt lat="31.540539149284992" lon="-4.26717649422941"><ele>859.0</ele><time>2026-03-23T08:00:28.001Z</time></trkpt><trkpt lat="31.540625414484094" lon="-4.267408706118959"><ele>859.3333333333333</ele><time>2026-03-23T08:00:29.001Z</time></trkpt><trkpt lat="31.540709115432485" lon="-4.267632308857366"><ele>859.6666666666667</ele><time>2026-03-23T08:00:30.001Z</time></trkpt><trkpt lat="31.54080051421434" lon="-4.2678599352514235"><ele>860.0</ele><time>2026-03-23T08:00:31.001Z</time></trkpt><trkpt lat="31.540877180740875" lon="-4.268072615354382"><ele>860.3333333333334</ele><time>2026-03-23T08:00:32.001Z</time></trkpt><trkpt lat="31.540908473858156" lon="-4.268253134000531"><ele>860.6666666666667</ele><time>2026-03-23T08:00:33.001Z</time></trkpt><trkpt lat="31.540969701677415" lon="-4.2684172903887"><ele>861.0</ele><time>2026-03-23T08:00:34.001Z</time></trkpt><trkpt lat="31.54101029068248" lon="-4.268597313854125"><ele>861.0</ele><time>2026-03-23T08:00:35.001Z</time></trkpt><trkpt lat="31.541076714462577" lon="-4.2687835327850925"><ele>861.0</ele><time>2026-03-23T08:00:36.001Z</time></trkpt><trkpt lat="31.541169654247575" lon="-4.268963830030306"><ele>861.0</ele><time>2026-03-23T08:00:37.001Z</time></trkpt><trkpt lat="31.54127670724886" lon="-4.269158620045251"><ele>859.3333333333333</ele><time>2026-03-23T08:00:38.001Z</time></trkpt><trkpt lat="31.541379455347137" lon="-4.269358980471194"><ele>857.6666666666666</ele><time>2026-03-23T08:00:39.001Z</time></trkpt><trkpt lat="31.541480376842614" lon="-4.269561893536996"><ele>856.0</ele><time>2026-03-23T08:00:40.001Z</time></trkpt><trkpt lat="31.541578709959317" lon="-4.269758241039949"><ele>857.0</ele><time>2026-03-23T08:00:41.001Z</time></trkpt><trkpt lat="31.541679119926687" lon="-4.26995675152647"><ele>858.0</ele><time>2026-03-23T08:00:42.001Z</time></trkpt><trkpt lat="31.541772583019835" lon="-4.270138259103192"><ele>859.0</ele><time>2026-03-23T08:00:43.001Z</time></trkpt><trkpt lat="31.54186126191868" lon="-4.270310475661916"><ele>859.0</ele><time>2026-03-23T08:00:44.001Z</time></trkpt><trkpt lat="31.541944947578592" lon="-4.270472995235969"><ele>859.0</ele><time>2026-03-23T08:00:45.001Z</time></trkpt><trkpt lat="31.542014353554443" lon="-4.270625674721051"><ele>859.0</ele><time>2026-03-23T08:00:46.001Z</time></trkpt><trkpt lat="31.542105929477845" lon="-4.270782075110286"><ele>859.3333333333333</ele><time>2026-03-23T08:00:47.001Z</time></trkpt><trkpt lat="31.54221056039389" lon="-4.2709528350681385"><ele>859.6666666666667</ele><time>2026-03-23T08:00:48.001Z</time></trkpt><trkpt lat="31.54230844857114" lon="-4.271159980092893"><ele>860.0</ele><time>2026-03-23T08:00:49.001Z</time></trkpt><trkpt lat="31.542412247919106" lon="-4.27133878702617"><ele>860.0</ele><time>2026-03-23T08:00:50.001Z</time></trkpt><trkpt lat="31.542515902032058" lon="-4.271517412327156"><ele>860.0</ele><time>2026-03-23T08:00:51.001Z</time></trkpt><trkpt lat="31.542618331431633" lon="-4.271695243140283"><ele>860.0</ele><time>2026-03-23T08:00:52.001Z</time></trkpt><trkpt lat="31.54272191896747" lon="-4.271875373256318"><ele>860.0</ele><time>2026-03-23T08:00:53.001Z</time></trkpt><trkpt lat="31.542819959412267" lon="-4.272045985784176"><ele>860.0</ele><time>2026-03-23T08:00:54.001Z</time></trkpt><trkpt lat="31.542913266914947" lon="-4.272208361931413"><ele>860.0</ele><time>2026-03-23T08:00:55.001Z</time></trkpt><trkpt lat="31.543016149640675" lon="-4.27238740143334"><ele>860.0</ele><time>2026-03-23T08:00:56.001Z</time></trkpt><trkpt lat="31.543116783131342" lon="-4.2725795174044725"><ele>860.0</ele><time>2026-03-23T08:00:57.001Z</time></trkpt><trkpt lat="31.543233242951665" lon="-4.272798692513775"><ele>860.0</ele><time>2026-03-23T08:00:58.001Z</time></trkpt><trkpt lat="31.54336790699278" lon="-4.2730507030088445"><ele>860.0</ele><time>2026-03-23T08:00:59.001Z</time></trkpt><trkpt lat="31.543489694804332" lon="-4.273256904945832"><ele>860.0</ele><time>2026-03-23T08:01:00.001Z</time></trkpt><trkpt lat="31.543618289066217" lon="-4.273474631116743"><ele>860.0</ele><time>2026-03-23T08:01:01.001Z</time></trkpt><trkpt lat="31.543752626534662" lon="-4.27369700195078"><ele>860.0</ele><time>2026-03-23T08:01:02.001Z</time></trkpt><trkpt lat="31.54388750089486" lon="-4.273913473049784"><ele>860.0</ele><time>2026-03-23T08:01:03.001Z</time></trkpt><trkpt lat="31.544025360378104" lon="-4.274134735200114"><ele>860.0</ele><time>2026-03-23T08:01:04.001Z</time></trkpt><trkpt lat="31.54413589593865" lon="-4.274314733804098"><ele>860.0</ele><time>2026-03-23T08:01:05.001Z</time></trkpt><trkpt lat="31.54423680129383" lon="-4.274494890407916"><ele>860.0</ele><time>2026-03-23T08:01:06.001Z</time></trkpt><trkpt lat="31.544334400322544" lon="-4.27466944505813"><ele>860.3333333333334</ele><time>2026-03-23T08:01:07.001Z</time></trkpt><trkpt lat="31.544445911168015" lon="-4.274863288006475"><ele>860.6666666666667</ele><time>2026-03-23T08:01:08.001Z</time></trkpt><trkpt lat="31.544557751666787" lon="-4.275038417792448"><ele>861.0</ele><time>2026-03-23T08:01:09.001Z</time></trkpt><trkpt lat="31.544671265991358" lon="-4.27521616791575"><ele>860.3333333333333</ele><time>2026-03-23T08:01:10.001Z</time></trkpt><trkpt lat="31.544789276580197" lon="-4.275399568669332"><ele>859.6666666666666</ele><time>2026-03-23T08:01:11.001Z</time></trkpt><trkpt lat="31.544916962870253" lon="-4.275593297159258"><ele>859.0</ele><time>2026-03-23T08:01:12.001Z</time></trkpt><trkpt lat="31.545044187942917" lon="-4.275783312740504"><ele>858.5</ele><time>2026-03-23T08:01:13.001Z</time></trkpt><trkpt lat="31.545181256600046" lon="-4.275987425819004"><ele>858.0</ele><time>2026-03-23T08:01:14.001Z</time></trkpt><trkpt lat="31.54532936016906" lon="-4.276207971387465"><ele>858.5</ele><time>2026-03-23T08:01:15.001Z</time></trkpt><trkpt lat="31.54548984167585" lon="-4.276443142331673"><ele>859.0</ele><time>2026-03-23T08:01:16.001Z</time></trkpt><trkpt lat="31.545634331463997" lon="-4.276643232617824"><ele>859.0</ele><time>2026-03-23T08:01:17.001Z</time></trkpt><trkpt lat="31.54576838768055" lon="-4.276829299944706"><ele>859.0</ele><time>2026-03-23T08:01:18.001Z</time></trkpt><trkpt lat="31.545906207263396" lon="-4.277013712049686"><ele>859.0</ele><time>2026-03-23T08:01:19.001Z</time></trkpt><trkpt lat="31.546040339921674" lon="-4.277180434662784"><ele>858.6666666666666</ele><time>2026-03-23T08:01:20.001Z</time></trkpt><trkpt lat="31.546180979912982" lon="-4.277355245663658"><ele>858.3333333333333</ele><time>2026-03-23T08:01:21.001Z</time></trkpt><trkpt lat="31.54632088973156" lon="-4.277529149105022"><ele>858.0</ele><time>2026-03-23T08:01:22.001Z</time></trkpt><trkpt lat="31.54646415787092" lon="-4.277707588045404"><ele>858.0</ele><time>2026-03-23T08:01:23.001Z</time></trkpt><trkpt lat="31.546600595021303" lon="-4.277879058462962"><ele>858.0</ele><time>2026-03-23T08:01:24.001Z</time></trkpt><trkpt lat="31.546740506186385" lon="-4.2780559088612256"><ele>858.0</ele><time>2026-03-23T08:01:25.001Z</time></trkpt><trkpt lat="31.546883096518926" lon="-4.278236266654796"><ele>858.0</ele><time>2026-03-23T08:01:26.001Z</time></trkpt><trkpt lat="31.547016990621206" lon="-4.278420155950916"><ele>858.0</ele><time>2026-03-23T08:01:27.001Z</time></trkpt><trkpt lat="31.54714456045138" lon="-4.278598544741049"><ele>858.0</ele><time>2026-03-23T08:01:28.001Z</time></trkpt><trkpt lat="31.54727904368894" lon="-4.278773940140749"><ele>858.0</ele><time>2026-03-23T08:01:29.001Z</time></trkpt><trkpt lat="31.547434996273505" lon="-4.278950994483243"><ele>858.0</ele><time>2026-03-23T08:01:30.001Z</time></trkpt><trkpt lat="31.54751870039004" lon="-4.2791119994013425"><ele>858.0</ele><time>2026-03-23T08:01:31.001Z</time></trkpt><trkpt lat="31.547629819377995" lon="-4.279279411881715"><ele>858.0</ele><time>2026-03-23T08:01:32.001Z</time></trkpt><trkpt lat="31.547743832861418" lon="-4.279427343119173"><ele>858.0</ele><time>2026-03-23T08:01:33.001Z</time></trkpt><trkpt lat="31.54785915230815" lon="-4.279575600384091"><ele>858.0</ele><time>2026-03-23T08:01:34.001Z</time></trkpt><trkpt lat="31.547984545812376" lon="-4.279760259479959"><ele>858.0</ele><time>2026-03-23T08:01:35.001Z</time></trkpt><trkpt lat="31.548090756585925" lon="-4.279959094964839"><ele>858.0</ele><time>2026-03-23T08:01:36.001Z</time></trkpt><trkpt lat="31.54820453179513" lon="-4.280172091740625"><ele>858.0</ele><time>2026-03-23T08:01:37.001Z</time></trkpt><trkpt lat="31.54828472228384" lon="-4.280456056625914"><ele>857.6666666666667</ele><time>2026-03-23T08:01:38.001Z</time></trkpt><trkpt lat="31.54835948580694" lon="-4.280695420327693"><ele>857.3333333333334</ele><time>2026-03-23T08:01:39.001Z</time></trkpt><trkpt lat="31.548437152381904" lon="-4.280921162882625"><ele>857.0</ele><time>2026-03-23T08:01:40.001Z</time></trkpt><trkpt lat="31.548521845911793" lon="-4.281136467937089"><ele>857.0</ele><time>2026-03-23T08:01:41.001Z</time></trkpt><trkpt lat="31.548608634767593" lon="-4.281339841148409"><ele>857.0</ele><time>2026-03-23T08:01:42.001Z</time></trkpt><trkpt lat="31.54869212566445" lon="-4.281526505220705"><ele>857.0</ele><time>2026-03-23T08:01:43.001Z</time></trkpt><trkpt lat="31.548775319496503" lon="-4.281710669847452"><ele>857.3333333333334</ele><time>2026-03-23T08:01:44.001Z</time></trkpt><trkpt lat="31.548861260692473" lon="-4.2819005352279085"><ele>857.6666666666667</ele><time>2026-03-23T08:01:45.001Z</time></trkpt><trkpt lat="31.548945216466027" lon="-4.282085835103318"><ele>858.0</ele><time>2026-03-23T08:01:46.001Z</time></trkpt><trkpt lat="31.54902875384279" lon="-4.282270211540198"><ele>858.6666666666667</ele><time>2026-03-23T08:01:47.001Z</time></trkpt><trkpt lat="31.54911014485489" lon="-4.282453175383399"><ele>859.3333333333334</ele><time>2026-03-23T08:01:48.001Z</time></trkpt><trkpt lat="31.54919999139139" lon="-4.282628262370062"><ele>860.0</ele><time>2026-03-23T08:01:49.001Z</time></trkpt><trkpt lat="31.5492765930471" lon="-4.282811749018611"><ele>860.0</ele><time>2026-03-23T08:01:50.001Z</time></trkpt><trkpt lat="31.549355140284277" lon="-4.2830007718976715"><ele>860.0</ele><time>2026-03-23T08:01:51.001Z</time></trkpt><trkpt lat="31.54943939490257" lon="-4.283204254059228"><ele>860.0</ele><time>2026-03-23T08:01:52.001Z</time></trkpt><trkpt lat="31.54953197166298" lon="-4.283426286584604"><ele>860.3333333333334</ele><time>2026-03-23T08:01:53.001Z</time></trkpt><trkpt lat="31.549615657235737" lon="-4.283671321089939"><ele>860.6666666666667</ele><time>2026-03-23T08:01:54.001Z</time></trkpt><trkpt lat="31.549701309284462" lon="-4.283896626254887"><ele>861.0</ele><time>2026-03-23T08:01:55.001Z</time></trkpt><trkpt lat="31.5497815659526" lon="-4.284105550739492"><ele>860.3333333333333</ele><time>2026-03-23T08:01:56.001Z</time></trkpt><trkpt lat="31.549859031801883" lon="-4.28429401343419"><ele>859.6666666666666</ele><time>2026-03-23T08:01:57.001Z</time></trkpt><trkpt lat="31.5499522047836" lon="-4.284468168537333"><ele>859.0</ele><time>2026-03-23T08:01:58.001Z</time></trkpt><trkpt lat="31.550049778038755" lon="-4.284640766995544"><ele>859.6666666666666</ele><time>2026-03-23T08:01:59.001Z</time></trkpt><trkpt lat="31.55012811431792" lon="-4.284828051559315"><ele>860.3333333333333</ele><time>2026-03-23T08:02:00.001Z</time></trkpt><trkpt lat="31.55022814501598" lon="-4.284997404259821"><ele>861.0</ele><time>2026-03-23T08:02:01.001Z</time></trkpt><trkpt lat="31.550318924877974" lon="-4.285172439528143"><ele>861.0</ele><time>2026-03-23T08:02:02.001Z</time></trkpt><trkpt lat="31.550370907874292" lon="-4.28537804198386"><ele>861.0</ele><time>2026-03-23T08:02:03.001Z</time></trkpt><trkpt lat="31.550448128608107" lon="-4.285557250050886"><ele>861.0</ele><time>2026-03-23T08:02:04.001Z</time></trkpt><trkpt lat="31.55052491118101" lon="-4.285732857535788"><ele>859.3333333333333</ele><time>2026-03-23T08:02:05.001Z</time></trkpt><trkpt lat="31.5506141411658" lon="-4.285914186306213"><ele>857.6666666666666</ele><time>2026-03-23T08:02:06.001Z</time></trkpt><trkpt lat="31.550700490447376" lon="-4.286086152903072"><ele>856.0</ele><time>2026-03-23T08:02:07.001Z</time></trkpt><trkpt lat="31.550777288443197" lon="-4.286245404373522"><ele>856.0</ele><time>2026-03-23T08:02:08.001Z</time></trkpt><trkpt lat="31.550860027713572" lon="-4.286400874036636"><ele>856.0</ele><time>2026-03-23T08:02:09.001Z</time></trkpt><trkpt lat="31.55094848842327" lon="-4.2865649115032"><ele>856.0</ele><time>2026-03-23T08:02:10.001Z</time></trkpt><trkpt lat="31.551037070181604" lon="-4.286733434862301"><ele>857.0</ele><time>2026-03-23T08:02:11.001Z</time></trkpt><trkpt lat="31.55111949511915" lon="-4.286905481931431"><ele>858.0</ele><time>2026-03-23T08:02:12.001Z</time></trkpt><trkpt lat="31.55120434653806" lon="-4.287077156117388"><ele>859.0</ele><time>2026-03-23T08:02:13.001Z</time></trkpt><trkpt lat="31.55128083490863" lon="-4.287248476158279"><ele>859.3333333333333</ele><time>2026-03-23T08:02:14.001Z</time></trkpt><trkpt lat="31.551348282902204" lon="-4.287430203077547"><ele>859.6666666666667</ele><time>2026-03-23T08:02:15.001Z</time></trkpt><trkpt lat="31.55141129832692" lon="-4.2876082479620345"><ele>860.0</ele><time>2026-03-23T08:02:16.001Z</time></trkpt><trkpt lat="31.55146422744968" lon="-4.287780238464179"><ele>860.0</ele><time>2026-03-23T08:02:17.001Z</time></trkpt><trkpt lat="31.55150901295893" lon="-4.287938681528211"><ele>860.0</ele><time>2026-03-23T08:02:18.001Z</time></trkpt><trkpt lat="31.551557111741626" lon="-4.2881041029431675"><ele>860.0</ele><time>2026-03-23T08:02:19.001Z</time></trkpt><trkpt lat="31.55160754267055" lon="-4.288289292127269"><ele>860.3333333333334</ele><time>2026-03-23T08:02:20.001Z</time></trkpt><trkpt lat="31.551664573298066" lon="-4.288473828265577"><ele>860.6666666666667</ele><time>2026-03-23T08:02:21.001Z</time></trkpt><trkpt lat="31.551720443317908" lon="-4.288648510490949"><ele>861.0</ele><time>2026-03-23T08:02:22.001Z</time></trkpt><trkpt lat="31.551773527614674" lon="-4.28883592068995"><ele>861.0</ele><time>2026-03-23T08:02:23.001Z</time></trkpt><trkpt lat="31.551823753299214" lon="-4.289012302574512"><ele>861.0</ele><time>2026-03-23T08:02:24.001Z</time></trkpt><trkpt lat="31.551868482197932" lon="-4.289199114825809"><ele>861.0</ele><time>2026-03-23T08:02:25.001Z</time></trkpt><trkpt lat="31.551913476004056" lon="-4.289382660552034"><ele>861.0</ele><time>2026-03-23T08:02:26.001Z</time></trkpt><trkpt lat="31.55195676099193" lon="-4.2895683742937445"><ele>861.0</ele><time>2026-03-23T08:02:27.001Z</time></trkpt><trkpt lat="31.551996603624357" lon="-4.289750049568999"><ele>861.0</ele><time>2026-03-23T08:02:28.001Z</time></trkpt><trkpt lat="31.55204352073827" lon="-4.289945001160736"><ele>861.3333333333333</ele><time>2026-03-23T08:02:29.001Z</time></trkpt><trkpt lat="31.552093720006038" lon="-4.29013381913775"><ele>861.6666666666666</ele><time>2026-03-23T08:02:30.001Z</time></trkpt><trkpt lat="31.552146343447863" lon="-4.290327189466215"><ele>862.0</ele><time>2026-03-23T08:02:31.001Z</time></trkpt><trkpt lat="31.552211020623083" lon="-4.290521466275035"><ele>861.6666666666666</ele><time>2026-03-23T08:02:32.001Z</time></trkpt><trkpt lat="31.552279928429776" lon="-4.290714556724655"><ele>861.3333333333333</ele><time>2026-03-23T08:02:33.001Z</time></trkpt><trkpt lat="31.552342944153192" lon="-4.290905102969251"><ele>861.0</ele><time>2026-03-23T08:02:34.001Z</time></trkpt><trkpt lat="31.55240518444447" lon="-4.291093117941738"><ele>861.0</ele><time>2026-03-23T08:02:35.001Z</time></trkpt><trkpt lat="31.552469639313426" lon="-4.291293270697074"><ele>861.0</ele><time>2026-03-23T08:02:36.001Z</time></trkpt><trkpt lat="31.552546452435337" lon="-4.291454162987182"><ele>861.0</ele><time>2026-03-23T08:02:37.001Z</time></trkpt><trkpt lat="31.55262307141781" lon="-4.291608403268838"><ele>861.0</ele><time>2026-03-23T08:02:38.001Z</time></trkpt><trkpt lat="31.55270784976422" lon="-4.291787338069089"><ele>861.0</ele><time>2026-03-23T08:02:39.001Z</time></trkpt><trkpt lat="31.552798218597523" lon="-4.291970246480476"><ele>861.0</ele><time>2026-03-23T08:02:40.001Z</time></trkpt><trkpt lat="31.552894892148185" lon="-4.292151730709924"><ele>861.6666666666667</ele><time>2026-03-23T08:02:41.001Z</time></trkpt><trkpt lat="31.553008985946615" lon="-4.292336996540853"><ele>862.3333333333334</ele><time>2026-03-23T08:02:42.001Z</time></trkpt><trkpt lat="31.553113463397743" lon="-4.292507271494143"><ele>863.0</ele><time>2026-03-23T08:02:43.001Z</time></trkpt><trkpt lat="31.553222928070458" lon="-4.292676989335295"><ele>863.0</ele><time>2026-03-23T08:02:44.001Z</time></trkpt><trkpt lat="31.55332889891725" lon="-4.292842512485324"><ele>863.0</ele><time>2026-03-23T08:02:45.001Z</time></trkpt><trkpt lat="31.55345784557241" lon="-4.293023896854857"><ele>863.0</ele><time>2026-03-23T08:02:46.001Z</time></trkpt><trkpt lat="31.55359679046792" lon="-4.293210261421556"><ele>863.0</ele><time>2026-03-23T08:02:47.001Z</time></trkpt><trkpt lat="31.55375307890692" lon="-4.293409919085732"><ele>863.0</ele><time>2026-03-23T08:02:48.001Z</time></trkpt><trkpt lat="31.553920810317358" lon="-4.293613364964331"><ele>863.0</ele><time>2026-03-23T08:02:49.001Z</time></trkpt><trkpt lat="31.554097577021263" lon="-4.293823937011693"><ele>863.0</ele><time>2026-03-23T08:02:50.001Z</time></trkpt><trkpt lat="31.55427860644995" lon="-4.294022508137789"><ele>862.6666666666667</ele><time>2026-03-23T08:02:51.001Z</time></trkpt><trkpt lat="31.55442914466315" lon="-4.294201501064715"><ele>862.3333333333333</ele><time>2026-03-23T08:02:52.001Z</time></trkpt><trkpt lat="31.554572361197067" lon="-4.29436553403226"><ele>862.0</ele><time>2026-03-23T08:02:53.001Z</time></trkpt><trkpt lat="31.554702946221635" lon="-4.294510991538703"><ele>862.0</ele><time>2026-03-23T08:02:54.001Z</time></trkpt><trkpt lat="31.554811219976276" lon="-4.294673625805813"><ele>862.0</ele><time>2026-03-23T08:02:55.001Z</time></trkpt><trkpt lat="31.55492237930329" lon="-4.294826142345986"><ele>862.0</ele><time>2026-03-23T08:02:56.001Z</time></trkpt><trkpt lat="31.555030430213733" lon="-4.294976790797015"><ele>862.0</ele><time>2026-03-23T08:02:57.001Z</time></trkpt><trkpt lat="31.555171253185442" lon="-4.295129962430242"><ele>862.0</ele><time>2026-03-23T08:02:58.001Z</time></trkpt><trkpt lat="31.555305382087585" lon="-4.295258120746949"><ele>862.0</ele><time>2026-03-23T08:02:59.001Z</time></trkpt><trkpt lat="31.55545176468114" lon="-4.295351672666313"><ele>862.0</ele><time>2026-03-23T08:03:00.001Z</time></trkpt><trkpt lat="31.555597456533818" lon="-4.295445520369054"><ele>862.0</ele><time>2026-03-23T08:03:01.001Z</time></trkpt><trkpt lat="31.555730775589595" lon="-4.295494747949687"><ele>862.0</ele><time>2026-03-23T08:03:02.001Z</time></trkpt><trkpt lat="31.5559271568044" lon="-4.295596453957253"><ele>861.3333333333333</ele><time>2026-03-23T08:03:03.001Z</time></trkpt><trkpt lat="31.556070076707456" lon="-4.295698839252587"><ele>860.6666666666667</ele><time>2026-03-23T08:03:04.001Z</time></trkpt><trkpt lat="31.556217082874507" lon="-4.295807064150436"><ele>860.0</ele><time>2026-03-23T08:03:05.001Z</time></trkpt><trkpt lat="31.55640424944285" lon="-4.295970522414967"><ele>861.5</ele><time>2026-03-23T08:03:06.001Z</time></trkpt><trkpt lat="31.55658247056445" lon="-4.2961589517538625"><ele>863.0</ele><time>2026-03-23T08:03:07.001Z</time></trkpt><trkpt lat="31.556793596360105" lon="-4.296550050796863"><ele>863.0</ele><time>2026-03-23T08:03:08.001Z</time></trkpt><trkpt lat="31.556854374896393" lon="-4.29674422760027"><ele>863.0</ele><time>2026-03-23T08:03:09.001Z</time></trkpt><trkpt lat="31.55687503192083" lon="-4.297037742295205"><ele>863.0</ele><time>2026-03-23T08:03:10Z</time></trkpt><trkpt lat="31.556895634929298" lon="-4.297181482653676"><ele>863.0</ele><time>2026-03-23T08:03:11Z</time></trkpt><trkpt lat="31.556919369490824" lon="-4.2973455037813935"><ele>863.0</ele><time>2026-03-23T08:03:12Z</time></trkpt><trkpt lat="31.556943533331868" lon="-4.297512491530646"><ele>863.0</ele><time>2026-03-23T08:03:13Z</time></trkpt><trkpt lat="31.556980811787167" lon="-4.29768462938939"><ele>863.0</ele><time>2026-03-23T08:03:14Z</time></trkpt><trkpt lat="31.557021769585234" lon="-4.297863144487915"><ele>862.6666666666667</ele><time>2026-03-23T08:03:15Z</time></trkpt><trkpt lat="31.55705681802715" lon="-4.298038897880184"><ele>862.3333333333333</ele><time>2026-03-23T08:03:16Z</time></trkpt><trkpt lat="31.557094117729285" lon="-4.298269740369937"><ele>862.0</ele><time>2026-03-23T08:03:17Z</time></trkpt><trkpt lat="31.55716139341744" lon="-4.2984642723392135"><ele>862.0</ele><time>2026-03-23T08:03:18Z</time></trkpt><trkpt lat="31.55722350296192" lon="-4.29864386623055"><ele>862.0</ele><time>2026-03-23T08:03:19Z</time></trkpt><trkpt lat="31.55731214693594" lon="-4.298875191864378"><ele>862.0</ele><time>2026-03-23T08:03:20Z</time></trkpt><trkpt lat="31.557407961617294" lon="-4.2991000959755885"><ele>862.3333333333333</ele><time>2026-03-23T08:03:21Z</time></trkpt><trkpt lat="31.55748424240655" lon="-4.2992843845325925"><ele>862.6666666666667</ele><time>2026-03-23T08:03:22Z</time></trkpt><trkpt lat="31.557559946409917" lon="-4.299473668553418"><ele>863.0</ele><time>2026-03-23T08:03:23Z</time></trkpt><trkpt lat="31.557720118464285" lon="-4.299746931549594"><ele>863.3333333333334</ele><time>2026-03-23T08:03:24Z</time></trkpt><trkpt lat="31.557926927468422" lon="-4.299940272206011"><ele>863.6666666666667</ele><time>2026-03-23T08:03:25Z</time></trkpt><trkpt lat="31.558030134682685" lon="-4.300020999777465"><ele>864.0</ele><time>2026-03-23T08:03:26Z</time></trkpt><trkpt lat="31.558152506498008" lon="-4.300154777857115"><ele>864.0</ele><time>2026-03-23T08:03:27Z</time></trkpt><trkpt lat="31.558273727400938" lon="-4.300286724185769"><ele>864.0</ele><time>2026-03-23T08:03:28Z</time></trkpt><trkpt lat="31.558356492057694" lon="-4.3003846480397705"><ele>864.0</ele><time>2026-03-23T08:03:29Z</time></trkpt><trkpt lat="31.558445282561024" lon="-4.300549302192255"><ele>864.0</ele><time>2026-03-23T08:03:30Z</time></trkpt><trkpt lat="31.558529523686907" lon="-4.300720082787747"><ele>864.0</ele><time>2026-03-23T08:03:31Z</time></trkpt><trkpt lat="31.558614914722202" lon="-4.300905583611536"><ele>864.0</ele><time>2026-03-23T08:03:32Z</time></trkpt><trkpt lat="31.55870334005563" lon="-4.301097676078762"><ele>864.0</ele><time>2026-03-23T08:03:33Z</time></trkpt><trkpt lat="31.558792174183615" lon="-4.301287850777817"><ele>863.6666666666667</ele><time>2026-03-23T08:03:34Z</time></trkpt><trkpt lat="31.558879520657847" lon="-4.301474429395702"><ele>863.3333333333334</ele><time>2026-03-23T08:03:35Z</time></trkpt><trkpt lat="31.55896903798477" lon="-4.301665645131065"><ele>863.0</ele><time>2026-03-23T08:03:36Z</time></trkpt><trkpt lat="31.55905288752251" lon="-4.301844754037929"><ele>863.0</ele><time>2026-03-23T08:03:37Z</time></trkpt><trkpt lat="31.559150160506398" lon="-4.30202559527417"><ele>863.0</ele><time>2026-03-23T08:03:38Z</time></trkpt><trkpt lat="31.55924447153283" lon="-4.302192413378206"><ele>863.0</ele><time>2026-03-23T08:03:39Z</time></trkpt><trkpt lat="31.559338538787852" lon="-4.302359836301945"><ele>863.3333333333334</ele><time>2026-03-23T08:03:40Z</time></trkpt><trkpt lat="31.559432342184415" lon="-4.302529572125881"><ele>863.6666666666667</ele><time>2026-03-23T08:03:41Z</time></trkpt><trkpt lat="31.559527438461497" lon="-4.302701646526604"><ele>864.0</ele><time>2026-03-23T08:03:42Z</time></trkpt><trkpt lat="31.559620968911087" lon="-4.3028719354015585"><ele>864.0</ele><time>2026-03-23T08:03:43Z</time></trkpt><trkpt lat="31.559714189052237" lon="-4.303041461834889"><ele>864.0</ele><time>2026-03-23T08:03:44Z</time></trkpt><trkpt lat="31.559818811430645" lon="-4.303217245963959"><ele>864.0</ele><time>2026-03-23T08:03:45Z</time></trkpt><trkpt lat="31.559907189528786" lon="-4.303399380767268"><ele>863.6666666666667</ele><time>2026-03-23T08:03:46Z</time></trkpt><trkpt lat="31.56001748876214" lon="-4.303563495660623"><ele>863.3333333333334</ele><time>2026-03-23T08:03:47Z</time></trkpt><trkpt lat="31.560092375744137" lon="-4.303770688975734"><ele>863.0</ele><time>2026-03-23T08:03:48Z</time></trkpt><trkpt lat="31.560184494147794" lon="-4.303953024002677"><ele>863.0</ele><time>2026-03-23T08:03:49Z</time></trkpt><trkpt lat="31.560264696585158" lon="-4.304144420464671"><ele>863.0</ele><time>2026-03-23T08:03:50Z</time></trkpt><trkpt lat="31.560455470791144" lon="-4.304218769152971"><ele>863.0</ele><time>2026-03-23T08:03:51Z</time></trkpt><trkpt lat="31.56059961342422" lon="-4.3043999964226325"><ele>863.0</ele><time>2026-03-23T08:03:52Z</time></trkpt><trkpt lat="31.560707645883443" lon="-4.304629080463095"><ele>863.0</ele><time>2026-03-23T08:03:53Z</time></trkpt><trkpt lat="31.56075987990135" lon="-4.304835897529553"><ele>863.0</ele><time>2026-03-23T08:03:54Z</time></trkpt><trkpt lat="31.560797986319823" lon="-4.3050279488895224"><ele>863.0</ele><time>2026-03-23T08:03:55Z</time></trkpt><trkpt lat="31.560863397092845" lon="-4.30521581271024"><ele>863.0</ele><time>2026-03-23T08:03:56Z</time></trkpt><trkpt lat="31.5609260444965" lon="-4.305396148502211"><ele>863.0</ele><time>2026-03-23T08:03:57Z</time></trkpt><trkpt lat="31.56100080844699" lon="-4.305555262815391"><ele>863.0</ele><time>2026-03-23T08:03:58.001Z</time></trkpt><trkpt lat="31.56108443593434" lon="-4.305715341598671"><ele>863.0</ele><time>2026-03-23T08:03:59.001Z</time></trkpt><trkpt lat="31.561151794938237" lon="-4.305873422678222"><ele>863.0</ele><time>2026-03-23T08:04:00.001Z</time></trkpt><trkpt lat="31.561211707733598" lon="-4.306025217950382"><ele>863.0</ele><time>2026-03-23T08:04:01.001Z</time></trkpt><trkpt lat="31.561273507901337" lon="-4.306181795090559"><ele>863.0</ele><time>2026-03-23T08:04:02.001Z</time></trkpt><trkpt lat="31.56133891727985" lon="-4.306339018832525"><ele>863.0</ele><time>2026-03-23T08:04:03.001Z</time></trkpt><trkpt lat="31.561411668374518" lon="-4.306514360033009"><ele>863.0</ele><time>2026-03-23T08:04:04.001Z</time></trkpt><trkpt lat="31.561480582615616" lon="-4.306679761223453"><ele>863.0</ele><time>2026-03-23T08:04:05.001Z</time></trkpt><trkpt lat="31.561545650947256" lon="-4.3068223820855"><ele>863.0</ele><time>2026-03-23T08:04:06.001Z</time></trkpt><trkpt lat="31.56160244214484" lon="-4.306947590686494"><ele>863.0</ele><time>2026-03-23T08:04:07.001Z</time></trkpt><trkpt lat="31.561644581841083" lon="-4.307079220327882"><ele>863.0</ele><time>2026-03-23T08:04:08.001Z</time></trkpt><trkpt lat="31.561673142348678" lon="-4.3071735507223385"><ele>863.0</ele><time>2026-03-23T08:04:09.001Z</time></trkpt><trkpt lat="31.561710265848355" lon="-4.307295446074009"><ele>863.0</ele><time>2026-03-23T08:04:11.001Z</time></trkpt><trkpt lat="31.56175851246576" lon="-4.307453477966496"><ele>863.0</ele><time>2026-03-23T08:04:44.001Z</time></trkpt><trkpt lat="31.561788366795778" lon="-4.307551265881022"><ele>863.0</ele><time>2026-03-23T08:04:45.001Z</time></trkpt><trkpt lat="31.561831389273983" lon="-4.307684654164988"><ele>862.75</ele><time>2026-03-23T08:04:46.001Z</time></trkpt><trkpt lat="31.561878155635053" lon="-4.307822504605021"><ele>862.5</ele><time>2026-03-23T08:04:47.001Z</time></trkpt><trkpt lat="31.561926310342855" lon="-4.30796444739222"><ele>862.25</ele><time>2026-03-23T08:04:48.001Z</time></trkpt><trkpt lat="31.56197460968931" lon="-4.308106816529285"><ele>862.0</ele><time>2026-03-23T08:04:49.001Z</time></trkpt><trkpt lat="31.5620142679127" lon="-4.308251810048726"><ele>862.25</ele><time>2026-03-23T08:04:50.001Z</time></trkpt><trkpt lat="31.5620530848601" lon="-4.308400406169755"><ele>862.5</ele><time>2026-03-23T08:04:51.001Z</time></trkpt><trkpt lat="31.5620957340594" lon="-4.308563467641143"><ele>862.75</ele><time>2026-03-23T08:04:52.001Z</time></trkpt><trkpt lat="31.56213217083462" lon="-4.308715900783643"><ele>863.0</ele><time>2026-03-23T08:04:53.001Z</time></trkpt><trkpt lat="31.562171981258732" lon="-4.308846976346846"><ele>862.8333333333334</ele><time>2026-03-23T08:04:54.001Z</time></trkpt><trkpt lat="31.562203531488333" lon="-4.308962298828046"><ele>862.6666666666667</ele><time>2026-03-23T08:04:55.001Z</time></trkpt><trkpt lat="31.562236307015368" lon="-4.309053384394205"><ele>862.5</ele><time>2026-03-23T08:04:56.001Z</time></trkpt><trkpt lat="31.56226594090208" lon="-4.309124832134132"><ele>862.3333333333333</ele><time>2026-03-23T08:04:57.001Z</time></trkpt><trkpt lat="31.562316245174898" lon="-4.3092218217397935"><ele>862.1666666666666</ele><time>2026-03-23T08:04:58.001Z</time></trkpt><trkpt lat="31.562324014200048" lon="-4.309310274861294"><ele>862.0</ele><time>2026-03-23T08:04:59.001Z</time></trkpt><trkpt lat="31.562334905298705" lon="-4.309434274006224"><ele>862.0</ele><time>2026-03-23T08:05:00.001Z</time></trkpt><trkpt lat="31.56232741328464" lon="-4.309592210203179"><ele>862.0</ele><time>2026-03-23T08:05:01.001Z</time></trkpt><trkpt lat="31.56233034816882" lon="-4.309761350878667"><ele>862.0</ele><time>2026-03-23T08:05:02.001Z</time></trkpt><trkpt lat="31.562330593910733" lon="-4.309969650510692"><ele>862.0</ele><time>2026-03-23T08:05:03.001Z</time></trkpt><trkpt lat="31.56237168779945" lon="-4.310172230794858"><ele>862.0</ele><time>2026-03-23T08:05:04.001Z</time></trkpt><trkpt lat="31.56241441456545" lon="-4.310382791571879"><ele>862.0</ele><time>2026-03-23T08:05:05.001Z</time></trkpt><trkpt lat="31.562456262938632" lon="-4.310586980256097"><ele>862.0</ele><time>2026-03-23T08:05:06.001Z</time></trkpt><trkpt lat="31.56250310567854" lon="-4.310802034732535"><ele>862.0</ele><time>2026-03-23T08:05:07.001Z</time></trkpt><trkpt lat="31.562547928851608" lon="-4.3110078173559"><ele>862.0</ele><time>2026-03-23T08:05:08.001Z</time></trkpt><trkpt lat="31.562576670524777" lon="-4.311212669170279"><ele>863.0</ele><time>2026-03-23T08:05:09.001Z</time></trkpt><trkpt lat="31.562594605277756" lon="-4.311418958426913"><ele>864.0</ele><time>2026-03-23T08:05:10.001Z</time></trkpt><trkpt lat="31.562613643359125" lon="-4.3116360791927715"><ele>865.0</ele><time>2026-03-23T08:05:11.001Z</time></trkpt><trkpt lat="31.562633285661274" lon="-4.311858415987061"><ele>865.0</ele><time>2026-03-23T08:05:12Z</time></trkpt><trkpt lat="31.56265410919883" lon="-4.312079054162738"><ele>865.0</ele><time>2026-03-23T08:05:13Z</time></trkpt><trkpt lat="31.562685454148678" lon="-4.312296414664486"><ele>865.0</ele><time>2026-03-23T08:05:14Z</time></trkpt><trkpt lat="31.562715776147005" lon="-4.312510880948284"><ele>864.6666666666666</ele><time>2026-03-23T08:05:15Z</time></trkpt><trkpt lat="31.5627426099736" lon="-4.312701409688377"><ele>864.3333333333333</ele><time>2026-03-23T08:05:16Z</time></trkpt><trkpt lat="31.562771216370773" lon="-4.312904524309711"><ele>864.0</ele><time>2026-03-23T08:05:17Z</time></trkpt><trkpt lat="31.56279785577351" lon="-4.313095194475334"><ele>864.0</ele><time>2026-03-23T08:05:18Z</time></trkpt><trkpt lat="31.56282763141522" lon="-4.313287640499474"><ele>864.0</ele><time>2026-03-23T08:05:19Z</time></trkpt><trkpt lat="31.562863922602737" lon="-4.313471982415223"><ele>864.0</ele><time>2026-03-23T08:05:20Z</time></trkpt><trkpt lat="31.56290036305557" lon="-4.3136570825163965"><ele>864.0</ele><time>2026-03-23T08:05:21Z</time></trkpt><trkpt lat="31.562941095395253" lon="-4.313846224903428"><ele>864.0</ele><time>2026-03-23T08:05:22Z</time></trkpt><trkpt lat="31.562985282214097" lon="-4.314037292684454"><ele>864.0</ele><time>2026-03-23T08:05:23Z</time></trkpt><trkpt lat="31.563030673944784" lon="-4.314224192295695"><ele>864.0</ele><time>2026-03-23T08:05:24Z</time></trkpt><trkpt lat="31.563057044520544" lon="-4.31443740114582"><ele>864.0</ele><time>2026-03-23T08:05:25Z</time></trkpt><trkpt lat="31.563085182038684" lon="-4.314657304957077"><ele>864.0</ele><time>2026-03-23T08:05:26Z</time></trkpt><trkpt lat="31.56311241335703" lon="-4.314876185008438"><ele>864.0</ele><time>2026-03-23T08:05:27Z</time></trkpt><trkpt lat="31.5631248865202" lon="-4.315090348211144"><ele>864.0</ele><time>2026-03-23T08:05:28Z</time></trkpt><trkpt lat="31.56313799654335" lon="-4.3153197580351295"><ele>864.0</ele><time>2026-03-23T08:05:29Z</time></trkpt><trkpt lat="31.56316276481987" lon="-4.315519802540759"><ele>863.3333333333333</ele><time>2026-03-23T08:05:30Z</time></trkpt><trkpt lat="31.563188245448995" lon="-4.31572458266251"><ele>862.6666666666666</ele><time>2026-03-23T08:05:31Z</time></trkpt><trkpt lat="31.563218475260786" lon="-4.315946695068604"><ele>862.0</ele><time>2026-03-23T08:05:32Z</time></trkpt><trkpt lat="31.563250440503104" lon="-4.3161649965085305"><ele>862.0</ele><time>2026-03-23T08:05:33Z</time></trkpt><trkpt lat="31.563282247630948" lon="-4.316377619960826"><ele>862.0</ele><time>2026-03-23T08:05:34Z</time></trkpt><trkpt lat="31.5632697513572" lon="-4.316564932542168"><ele>862.0</ele><time>2026-03-23T08:05:35Z</time></trkpt><trkpt lat="31.563258715270898" lon="-4.316769247013814"><ele>862.3333333333333</ele><time>2026-03-23T08:05:36Z</time></trkpt><trkpt lat="31.563282365798734" lon="-4.317033010709485"><ele>862.6666666666667</ele><time>2026-03-23T08:05:37Z</time></trkpt><trkpt lat="31.563325121237778" lon="-4.317267116410541"><ele>863.0</ele><time>2026-03-23T08:05:38Z</time></trkpt><trkpt lat="31.563375762106997" lon="-4.317453500406472"><ele>863.0</ele><time>2026-03-23T08:05:39Z</time></trkpt><trkpt lat="31.563429526586525" lon="-4.317651883194368"><ele>863.0</ele><time>2026-03-23T08:05:40Z</time></trkpt><trkpt lat="31.56348245880333" lon="-4.317841243171475"><ele>863.0</ele><time>2026-03-23T08:05:41Z</time></trkpt><trkpt lat="31.563515931318587" lon="-4.3180531136278715"><ele>863.3333333333334</ele><time>2026-03-23T08:05:42Z</time></trkpt><trkpt lat="31.56354872249555" lon="-4.318260671446205"><ele>863.6666666666667</ele><time>2026-03-23T08:05:43Z</time></trkpt><trkpt lat="31.563562660507984" lon="-4.318455523736498"><ele>864.0</ele><time>2026-03-23T08:05:44Z</time></trkpt><trkpt lat="31.56356953527957" lon="-4.3186570710016365"><ele>864.0</ele><time>2026-03-23T08:05:45Z</time></trkpt><trkpt lat="31.563575971520397" lon="-4.318845761897057"><ele>864.0</ele><time>2026-03-23T08:05:46Z</time></trkpt><trkpt lat="31.5635871855094" lon="-4.319046691941785"><ele>864.0</ele><time>2026-03-23T08:05:47Z</time></trkpt><trkpt lat="31.563605752869268" lon="-4.319254571365403"><ele>863.6666666666667</ele><time>2026-03-23T08:05:48Z</time></trkpt><trkpt lat="31.5636241712873" lon="-4.319458409335079"><ele>863.3333333333334</ele><time>2026-03-23T08:05:49Z</time></trkpt><trkpt lat="31.563642149243762" lon="-4.319657372690676"><ele>863.0</ele><time>2026-03-23T08:05:50Z</time></trkpt><trkpt lat="31.563662063095503" lon="-4.3198519307748064"><ele>863.0</ele><time>2026-03-23T08:05:51Z</time></trkpt><trkpt lat="31.563683342452602" lon="-4.320059222442317"><ele>863.0</ele><time>2026-03-23T08:05:52Z</time></trkpt><trkpt lat="31.56370333895157" lon="-4.32025821173825"><ele>863.0</ele><time>2026-03-23T08:05:53Z</time></trkpt><trkpt lat="31.56372321666426" lon="-4.320443875714394"><ele>863.0</ele><time>2026-03-23T08:05:54Z</time></trkpt><trkpt lat="31.56377943303626" lon="-4.320628667589442"><ele>863.0</ele><time>2026-03-23T08:05:55Z</time></trkpt><trkpt lat="31.563828725496087" lon="-4.320801214034668"><ele>863.0</ele><time>2026-03-23T08:05:56Z</time></trkpt><trkpt lat="31.56388071133891" lon="-4.320984353056159"><ele>863.0</ele><time>2026-03-23T08:05:57Z</time></trkpt><trkpt lat="31.56394507268578" lon="-4.3211721192420915"><ele>863.0</ele><time>2026-03-23T08:05:58Z</time></trkpt><trkpt lat="31.563993260565496" lon="-4.321393248766013"><ele>863.0</ele><time>2026-03-23T08:05:59Z</time></trkpt><trkpt lat="31.564050779745823" lon="-4.321603193536086"><ele>863.3333333333334</ele><time>2026-03-23T08:06:00Z</time></trkpt><trkpt lat="31.564056370712787" lon="-4.321809553494909"><ele>863.6666666666667</ele><time>2026-03-23T08:06:01Z</time></trkpt><trkpt lat="31.564081513936827" lon="-4.322022330402163"><ele>864.0</ele><time>2026-03-23T08:06:02Z</time></trkpt><trkpt lat="31.564108442625734" lon="-4.322225171065118"><ele>864.3333333333333</ele><time>2026-03-23T08:06:03Z</time></trkpt><trkpt lat="31.564134782287404" lon="-4.322423574864476"><ele>864.6666666666666</ele><time>2026-03-23T08:06:04Z</time></trkpt><trkpt lat="31.5641623455815" lon="-4.322624668845811"><ele>865.0</ele><time>2026-03-23T08:06:05Z</time></trkpt><trkpt lat="31.564196315766115" lon="-4.322840923878762"><ele>865.0</ele><time>2026-03-23T08:06:06Z</time></trkpt><trkpt lat="31.564265979695115" lon="-4.323097723227745"><ele>865.0</ele><time>2026-03-23T08:06:07Z</time></trkpt><trkpt lat="31.56433351597884" lon="-4.323291494445051"><ele>865.0</ele><time>2026-03-23T08:06:08Z</time></trkpt><trkpt lat="31.564430678043877" lon="-4.323512237141588"><ele>865.0</ele><time>2026-03-23T08:06:09Z</time></trkpt><trkpt lat="31.56451827697286" lon="-4.323680094237003"><ele>865.0</ele><time>2026-03-23T08:06:10Z</time></trkpt><trkpt lat="31.564581798621735" lon="-4.323842992752541"><ele>865.0</ele><time>2026-03-23T08:06:11Z</time></trkpt><trkpt lat="31.56462134061211" lon="-4.324062920800342"><ele>865.0</ele><time>2026-03-23T08:06:12Z</time></trkpt><trkpt lat="31.564656009169344" lon="-4.3242553033278615"><ele>865.0</ele><time>2026-03-23T08:06:13Z</time></trkpt><trkpt lat="31.564688127852236" lon="-4.324442864216095"><ele>865.0</ele><time>2026-03-23T08:06:14Z</time></trkpt><trkpt lat="31.564722189366584" lon="-4.324662210236533"><ele>864.6666666666666</ele><time>2026-03-23T08:06:15Z</time></trkpt><trkpt lat="31.564756230502034" lon="-4.324881425033352"><ele>864.3333333333333</ele><time>2026-03-23T08:06:16Z</time></trkpt><trkpt lat="31.56478493190895" lon="-4.325066253628727"><ele>864.0</ele><time>2026-03-23T08:06:17Z</time></trkpt><trkpt lat="31.564810527227948" lon="-4.325231079910274"><ele>864.0</ele><time>2026-03-23T08:06:18Z</time></trkpt><trkpt lat="31.564823824388633" lon="-4.325379148325248"><ele>864.0</ele><time>2026-03-23T08:06:19Z</time></trkpt><trkpt lat="31.564839185895313" lon="-4.32556459050647"><ele>864.0</ele><time>2026-03-23T08:06:20Z</time></trkpt><trkpt lat="31.56485552091099" lon="-4.325765367224926"><ele>864.3333333333333</ele><time>2026-03-23T08:06:21Z</time></trkpt><trkpt lat="31.56489181289019" lon="-4.326029732353582"><ele>864.6666666666666</ele><time>2026-03-23T08:06:22Z</time></trkpt><trkpt lat="31.564931673523958" lon="-4.32627375236722"><ele>865.0</ele><time>2026-03-23T08:06:23Z</time></trkpt><trkpt lat="31.564970924674807" lon="-4.326522869818473"><ele>865.0</ele><time>2026-03-23T08:06:24Z</time></trkpt><trkpt lat="31.565004427853882" lon="-4.32674300941821"><ele>865.0</ele><time>2026-03-23T08:06:25Z</time></trkpt><trkpt lat="31.565036831598007" lon="-4.326955924920158"><ele>865.0</ele><time>2026-03-23T08:06:26Z</time></trkpt><trkpt lat="31.565070906396148" lon="-4.327185097892105"><ele>865.0</ele><time>2026-03-23T08:06:27.001Z</time></trkpt><trkpt lat="31.565104400059436" lon="-4.327436460729824"><ele>865.0</ele><time>2026-03-23T08:06:28.001Z</time></trkpt><trkpt lat="31.565135085197756" lon="-4.327666746204828"><ele>865.0</ele><time>2026-03-23T08:06:29.001Z</time></trkpt><trkpt lat="31.565161307517837" lon="-4.3278808752168105"><ele>865.0</ele><time>2026-03-23T08:06:30.001Z</time></trkpt><trkpt lat="31.565184562237903" lon="-4.32807185982194"><ele>865.0</ele><time>2026-03-23T08:06:31.001Z</time></trkpt><trkpt lat="31.565204111406995" lon="-4.328246894515879"><ele>865.0</ele><time>2026-03-23T08:06:32.001Z</time></trkpt><trkpt lat="31.565218430674996" lon="-4.328440449662971"><ele>865.0</ele><time>2026-03-23T08:06:33.001Z</time></trkpt><trkpt lat="31.565232592941122" lon="-4.32862909895567"><ele>865.0</ele><time>2026-03-23T08:06:34.001Z</time></trkpt><trkpt lat="31.565251317678023" lon="-4.328838111428773"><ele>865.0</ele><time>2026-03-23T08:06:35.001Z</time></trkpt><trkpt lat="31.565269822407" lon="-4.3290510972079135"><ele>865.0</ele><time>2026-03-23T08:06:36.001Z</time></trkpt><trkpt lat="31.56528382051953" lon="-4.329270550407594"><ele>865.0</ele><time>2026-03-23T08:06:37.001Z</time></trkpt><trkpt lat="31.5652970596752" lon="-4.329478105307194"><ele>865.0</ele><time>2026-03-23T08:06:38.001Z</time></trkpt><trkpt lat="31.565311578832322" lon="-4.329705727196895"><ele>865.3333333333333</ele><time>2026-03-23T08:06:39.001Z</time></trkpt><trkpt lat="31.565325686323416" lon="-4.329911877156398"><ele>865.6666666666667</ele><time>2026-03-23T08:06:40.001Z</time></trkpt><trkpt lat="31.565339978504156" lon="-4.3301117023179065"><ele>866.0</ele><time>2026-03-23T08:06:41.001Z</time></trkpt><trkpt lat="31.565354880846254" lon="-4.330319615571715"><ele>865.6666666666667</ele><time>2026-03-23T08:06:42.001Z</time></trkpt><trkpt lat="31.565374933169654" lon="-4.330513255623081"><ele>865.3333333333333</ele><time>2026-03-23T08:06:43.001Z</time></trkpt><trkpt lat="31.565405783305902" lon="-4.330718459605174"><ele>865.0</ele><time>2026-03-23T08:06:44.001Z</time></trkpt><trkpt lat="31.565438561576478" lon="-4.330935785203797"><ele>864.6666666666666</ele><time>2026-03-23T08:06:45.001Z</time></trkpt><trkpt lat="31.565477164695796" lon="-4.331149293002892"><ele>864.3333333333333</ele><time>2026-03-23T08:06:46.001Z</time></trkpt><trkpt lat="31.565515271052114" lon="-4.331360024334932"><ele>864.0</ele><time>2026-03-23T08:06:47.001Z</time></trkpt><trkpt lat="31.56555649232203" lon="-4.331574909270419"><ele>864.0</ele><time>2026-03-23T08:06:48.001Z</time></trkpt><trkpt lat="31.56559992289862" lon="-4.331790224249552"><ele>864.0</ele><time>2026-03-23T08:06:49.001Z</time></trkpt><trkpt lat="31.5656436977102" lon="-4.3320044651824725"><ele>864.0</ele><time>2026-03-23T08:06:50.001Z</time></trkpt><trkpt lat="31.565720913528484" lon="-4.332226901427083"><ele>864.3333333333333</ele><time>2026-03-23T08:06:51.001Z</time></trkpt><trkpt lat="31.565790188361095" lon="-4.33243062470693"><ele>864.6666666666666</ele><time>2026-03-23T08:06:52.001Z</time></trkpt><trkpt lat="31.565869041260147" lon="-4.33263089371089"><ele>865.0</ele><time>2026-03-23T08:06:53.001Z</time></trkpt><trkpt lat="31.565945982326838" lon="-4.332822417914927"><ele>865.0</ele><time>2026-03-23T08:06:54.001Z</time></trkpt><trkpt lat="31.566022556134918" lon="-4.333012656252872"><ele>865.0</ele><time>2026-03-23T08:06:55.001Z</time></trkpt><trkpt lat="31.56609487923717" lon="-4.333212903432975"><ele>865.0</ele><time>2026-03-23T08:06:56.001Z</time></trkpt><trkpt lat="31.566168878401964" lon="-4.333417791255031"><ele>865.0</ele><time>2026-03-23T08:06:57.001Z</time></trkpt><trkpt lat="31.566239767023877" lon="-4.333614066711219"><ele>865.0</ele><time>2026-03-23T08:06:58.001Z</time></trkpt><trkpt lat="31.566307355341927" lon="-4.333810905599849"><ele>865.0</ele><time>2026-03-23T08:06:59.001Z</time></trkpt><trkpt lat="31.566371631760845" lon="-4.33400378217005"><ele>865.0</ele><time>2026-03-23T08:07:00.001Z</time></trkpt><trkpt lat="31.566444334664062" lon="-4.334217913686901"><ele>865.0</ele><time>2026-03-23T08:07:01.001Z</time></trkpt><trkpt lat="31.566520077202192" lon="-4.334442546351692"><ele>865.0</ele><time>2026-03-23T08:07:02.001Z</time></trkpt><trkpt lat="31.56659381292835" lon="-4.334666461083562"><ele>864.0</ele><time>2026-03-23T08:07:03.001Z</time></trkpt><trkpt lat="31.566660793483475" lon="-4.33486986226166"><ele>863.0</ele><time>2026-03-23T08:07:04.001Z</time></trkpt><trkpt lat="31.566712797028813" lon="-4.335061180439174"><ele>862.0</ele><time>2026-03-23T08:07:05.001Z</time></trkpt><trkpt lat="31.566756400873327" lon="-4.335260369066992"><ele>862.0</ele><time>2026-03-23T08:07:06.001Z</time></trkpt><trkpt lat="31.56680010489074" lon="-4.335461853502079"><ele>862.0</ele><time>2026-03-23T08:07:07.001Z</time></trkpt><trkpt lat="31.56685152041299" lon="-4.33565571617994"><ele>862.0</ele><time>2026-03-23T08:07:08.001Z</time></trkpt><trkpt lat="31.566906437439247" lon="-4.335854840458849"><ele>863.0</ele><time>2026-03-23T08:07:09Z</time></trkpt><trkpt lat="31.566964043360006" lon="-4.336063714422696"><ele>864.0</ele><time>2026-03-23T08:07:10Z</time></trkpt><trkpt lat="31.56701729866691" lon="-4.336263475298087"><ele>865.0</ele><time>2026-03-23T08:07:11Z</time></trkpt><trkpt lat="31.567066693536653" lon="-4.33645303034051"><ele>865.3333333333333</ele><time>2026-03-23T08:07:12Z</time></trkpt><trkpt lat="31.56711182060546" lon="-4.336635093224379"><ele>865.6666666666667</ele><time>2026-03-23T08:07:13Z</time></trkpt><trkpt lat="31.56715988931689" lon="-4.336846813865355"><ele>866.0</ele><time>2026-03-23T08:07:14Z</time></trkpt><trkpt lat="31.56720981114097" lon="-4.337066547408905"><ele>865.6666666666667</ele><time>2026-03-23T08:07:15Z</time></trkpt><trkpt lat="31.56725823905161" lon="-4.3372797054064405"><ele>865.3333333333333</ele><time>2026-03-23T08:07:16Z</time></trkpt><trkpt lat="31.56731587409718" lon="-4.337487605384897"><ele>865.0</ele><time>2026-03-23T08:07:17Z</time></trkpt><trkpt lat="31.567372971914388" lon="-4.337692395466618"><ele>865.0</ele><time>2026-03-23T08:07:18Z</time></trkpt><trkpt lat="31.56742179363191" lon="-4.337892211957332"><ele>865.0</ele><time>2026-03-23T08:07:19Z</time></trkpt><trkpt lat="31.567469747827513" lon="-4.338110539150813"><ele>865.0</ele><time>2026-03-23T08:07:20Z</time></trkpt><trkpt lat="31.567495590355147" lon="-4.33831212102561"><ele>865.0</ele><time>2026-03-23T08:07:21Z</time></trkpt><trkpt lat="31.567506784922628" lon="-4.338542842048382"><ele>865.0</ele><time>2026-03-23T08:07:22Z</time></trkpt><trkpt lat="31.56755583538395" lon="-4.338809509016387"><ele>865.0</ele><time>2026-03-23T08:07:23Z</time></trkpt><trkpt lat="31.567609229528145" lon="-4.3390006452732575"><ele>865.0</ele><time>2026-03-23T08:07:24Z</time></trkpt><trkpt lat="31.567652092231718" lon="-4.339196346753548"><ele>865.0</ele><time>2026-03-23T08:07:25Z</time></trkpt><trkpt lat="31.56769591489566" lon="-4.339427364046424"><ele>865.0</ele><time>2026-03-23T08:07:26Z</time></trkpt><trkpt lat="31.567746650976943" lon="-4.339694826031539"><ele>865.0</ele><time>2026-03-23T08:07:27Z</time></trkpt><trkpt lat="31.567799759058374" lon="-4.339974791525118"><ele>865.0</ele><time>2026-03-23T08:07:28Z</time></trkpt><trkpt lat="31.567819462151878" lon="-4.340078658800186"><ele>865.0</ele><time>2026-03-23T08:07:29Z</time></trkpt><trkpt lat="31.567910943126428" lon="-4.3402895510493025"><ele>865.0</ele><time>2026-03-23T08:07:30Z</time></trkpt><trkpt lat="31.567962588456766" lon="-4.34050747275271"><ele>865.0</ele><time>2026-03-23T08:07:31Z</time></trkpt><trkpt lat="31.56800707007608" lon="-4.340721950239419"><ele>865.0</ele><time>2026-03-23T08:07:32Z</time></trkpt><trkpt lat="31.56805051422912" lon="-4.340931911387477"><ele>864.6666666666666</ele><time>2026-03-23T08:07:33Z</time></trkpt><trkpt lat="31.568088395180627" lon="-4.341139255636733"><ele>864.3333333333333</ele><time>2026-03-23T08:07:34Z</time></trkpt><trkpt lat="31.56811642489689" lon="-4.34135048521763"><ele>864.0</ele><time>2026-03-23T08:07:35Z</time></trkpt><trkpt lat="31.568123768161552" lon="-4.341571013349972"><ele>864.0</ele><time>2026-03-23T08:07:36Z</time></trkpt><trkpt lat="31.568149908116578" lon="-4.341790640487513"><ele>864.0</ele><time>2026-03-23T08:07:37Z</time></trkpt><trkpt lat="31.568173184269313" lon="-4.342015919691463"><ele>864.0</ele><time>2026-03-23T08:07:38Z</time></trkpt><trkpt lat="31.56822973122788" lon="-4.342233736592774"><ele>864.0</ele><time>2026-03-23T08:07:39Z</time></trkpt><trkpt lat="31.568294628540254" lon="-4.342432696294022"><ele>864.0</ele><time>2026-03-23T08:07:40Z</time></trkpt><trkpt lat="31.56835856709787" lon="-4.342639259228082"><ele>864.0</ele><time>2026-03-23T08:07:41Z</time></trkpt><trkpt lat="31.56872065193347" lon="-4.343027553173057"><ele>864.3333333333333</ele><time>2026-03-23T08:07:43Z</time></trkpt><trkpt lat="31.56875932652704" lon="-4.343307296520836"><ele>864.6666666666666</ele><time>2026-03-23T08:07:44Z</time></trkpt><trkpt lat="31.568770641618148" lon="-4.343524481066866"><ele>865.0</ele><time>2026-03-23T08:07:45Z</time></trkpt><trkpt lat="31.568724647725773" lon="-4.343839590657444"><ele>864.6666666666666</ele><time>2026-03-23T08:07:46Z</time></trkpt><trkpt lat="31.568686188746316" lon="-4.344068773030212"><ele>864.3333333333333</ele><time>2026-03-23T08:07:47Z</time></trkpt><trkpt lat="31.568634186500617" lon="-4.344247166385974"><ele>864.0</ele><time>2026-03-23T08:07:48Z</time></trkpt><trkpt lat="31.568637632978927" lon="-4.34448507595049"><ele>864.0</ele><time>2026-03-23T08:07:49Z</time></trkpt><trkpt lat="31.568640929510178" lon="-4.344723593311772"><ele>864.0</ele><time>2026-03-23T08:07:50Z</time></trkpt><trkpt lat="31.56864436259915" lon="-4.3449680054679245"><ele>864.0</ele><time>2026-03-23T08:07:51Z</time></trkpt><trkpt lat="31.568676985843616" lon="-4.345216495773161"><ele>864.0</ele><time>2026-03-23T08:07:52Z</time></trkpt><trkpt lat="31.568721052541743" lon="-4.3454422362113965"><ele>864.0</ele><time>2026-03-23T08:07:53Z</time></trkpt><trkpt lat="31.56878249151929" lon="-4.345689907699241"><ele>864.0</ele><time>2026-03-23T08:07:54Z</time></trkpt><trkpt lat="31.568847923709864" lon="-4.345921366964951"><ele>864.3333333333333</ele><time>2026-03-23T08:07:55Z</time></trkpt><trkpt lat="31.568908733803777" lon="-4.346136476057903"><ele>864.6666666666666</ele><time>2026-03-23T08:07:56Z</time></trkpt><trkpt lat="31.568965416846826" lon="-4.346345140967627"><ele>865.0</ele><time>2026-03-23T08:07:57Z</time></trkpt><trkpt lat="31.56902183541248" lon="-4.346553405706798"><ele>865.0</ele><time>2026-03-23T08:07:58Z</time></trkpt><trkpt lat="31.56908197020806" lon="-4.3467798248366245"><ele>865.0</ele><time>2026-03-23T08:07:59Z</time></trkpt><trkpt lat="31.569162018047876" lon="-4.346985067067173"><ele>865.0</ele><time>2026-03-23T08:08:00Z</time></trkpt><trkpt lat="31.569238082669365" lon="-4.347183261278805"><ele>864.6666666666666</ele><time>2026-03-23T08:08:01Z</time></trkpt><trkpt lat="31.569315228157304" lon="-4.347381908956074"><ele>864.3333333333333</ele><time>2026-03-23T08:08:02Z</time></trkpt><trkpt lat="31.569386537932118" lon="-4.347583830747831"><ele>864.0</ele><time>2026-03-23T08:08:03Z</time></trkpt><trkpt lat="31.569458568635692" lon="-4.347791375284761"><ele>864.0</ele><time>2026-03-23T08:08:04Z</time></trkpt><trkpt lat="31.569532602601004" lon="-4.348004691768114"><ele>864.0</ele><time>2026-03-23T08:08:05Z</time></trkpt><trkpt lat="31.569622305892388" lon="-4.348233427898709"><ele>864.0</ele><time>2026-03-23T08:08:06Z</time></trkpt><trkpt lat="31.56971187301724" lon="-4.348450375391985"><ele>864.0</ele><time>2026-03-23T08:08:07Z</time></trkpt><trkpt lat="31.569803966828555" lon="-4.34867344317412"><ele>864.0</ele><time>2026-03-23T08:08:08Z</time></trkpt><trkpt lat="31.569896853402323" lon="-4.348898539764085"><ele>864.0</ele><time>2026-03-23T08:08:09Z</time></trkpt><trkpt lat="31.569985611232983" lon="-4.349131822898464"><ele>863.3333333333333</ele><time>2026-03-23T08:08:10Z</time></trkpt><trkpt lat="31.57007008265845" lon="-4.349378701638153"><ele>862.6666666666666</ele><time>2026-03-23T08:08:11Z</time></trkpt><trkpt lat="31.57014974497766" lon="-4.349611222009705"><ele>862.0</ele><time>2026-03-23T08:08:12Z</time></trkpt><trkpt lat="31.570275966369355" lon="-4.349804584597744"><ele>862.3333333333333</ele><time>2026-03-23T08:08:13Z</time></trkpt><trkpt lat="31.570381573306456" lon="-4.349944985369892"><ele>862.6666666666667</ele><time>2026-03-23T08:08:14Z</time></trkpt><trkpt lat="31.57049883441726" lon="-4.350054675302767"><ele>863.0</ele><time>2026-03-23T08:08:15Z</time></trkpt><trkpt lat="31.570639273112757" lon="-4.350211848987854"><ele>863.0</ele><time>2026-03-23T08:08:16Z</time></trkpt><trkpt lat="31.570766929357685" lon="-4.350371923211195"><ele>863.0</ele><time>2026-03-23T08:08:17Z</time></trkpt><trkpt lat="31.57088632261484" lon="-4.350501739459817"><ele>863.0</ele><time>2026-03-23T08:08:18Z</time></trkpt><trkpt lat="31.571084371065737" lon="-4.350773144795441"><ele>862.5</ele><time>2026-03-23T08:08:19Z</time></trkpt><trkpt lat="31.571163818097087" lon="-4.351152455498864"><ele>862.0</ele><time>2026-03-23T08:08:20Z</time></trkpt><trkpt lat="31.571189800629252" lon="-4.351346205922056"><ele>862.6666666666666</ele><time>2026-03-23T08:08:21Z</time></trkpt><trkpt lat="31.57121850152651" lon="-4.351563976600183"><ele>863.3333333333333</ele><time>2026-03-23T08:08:22Z</time></trkpt><trkpt lat="31.57124843278765" lon="-4.351790567769266"><ele>864.0</ele><time>2026-03-23T08:08:23Z</time></trkpt><trkpt lat="31.571280284396483" lon="-4.35200119348942"><ele>864.3333333333333</ele><time>2026-03-23T08:08:24Z</time></trkpt><trkpt lat="31.57133211280439" lon="-4.352235570919368"><ele>864.6666666666666</ele><time>2026-03-23T08:08:25Z</time></trkpt><trkpt lat="31.571353101017266" lon="-4.35249101941572"><ele>865.0</ele><time>2026-03-23T08:08:26Z</time></trkpt><trkpt lat="31.571346129418405" lon="-4.352734419669128"><ele>865.0</ele><time>2026-03-23T08:08:27Z</time></trkpt><trkpt lat="31.571344303550756" lon="-4.3529728487054316"><ele>865.0</ele><time>2026-03-23T08:08:28Z</time></trkpt><trkpt lat="31.57137506559306" lon="-4.353178313563217"><ele>865.0</ele><time>2026-03-23T08:08:29Z</time></trkpt><trkpt lat="31.571416723755167" lon="-4.353415397170534"><ele>864.6666666666666</ele><time>2026-03-23T08:08:30Z</time></trkpt><trkpt lat="31.571460596307606" lon="-4.353657000919959"><ele>864.3333333333333</ele><time>2026-03-23T08:08:31Z</time></trkpt><trkpt lat="31.571503593595835" lon="-4.353890398730597"><ele>864.0</ele><time>2026-03-23T08:08:32Z</time></trkpt><trkpt lat="31.57154128687079" lon="-4.354104338066809"><ele>863.6666666666667</ele><time>2026-03-23T08:08:33Z</time></trkpt><trkpt lat="31.571572236841757" lon="-4.354308845114439"><ele>863.3333333333334</ele><time>2026-03-23T08:08:34Z</time></trkpt><trkpt lat="31.571605776212166" lon="-4.354531888138198"><ele>863.0</ele><time>2026-03-23T08:08:35Z</time></trkpt><trkpt lat="31.571639226506804" lon="-4.354773497356271"><ele>863.0</ele><time>2026-03-23T08:08:36Z</time></trkpt><trkpt lat="31.57166853074716" lon="-4.355012956345824"><ele>863.0</ele><time>2026-03-23T08:08:37Z</time></trkpt><trkpt lat="31.571700213682146" lon="-4.3552718528237655"><ele>863.0</ele><time>2026-03-23T08:08:38Z</time></trkpt><trkpt lat="31.57172922999989" lon="-4.355508959096571"><ele>863.0</ele><time>2026-03-23T08:08:39Z</time></trkpt><trkpt lat="31.571747229558618" lon="-4.355721355842023"><ele>863.0</ele><time>2026-03-23T08:08:40Z</time></trkpt><trkpt lat="31.571760832438432" lon="-4.3559297474257095"><ele>863.0</ele><time>2026-03-23T08:08:41Z</time></trkpt><trkpt lat="31.57177255894834" lon="-4.356109393778786"><ele>863.0</ele><time>2026-03-23T08:08:42Z</time></trkpt><trkpt lat="31.571770394155344" lon="-4.356268834524506"><ele>863.0</ele><time>2026-03-23T08:08:43Z</time></trkpt><trkpt lat="31.571765397557133" lon="-4.356410285953814"><ele>863.0</ele><time>2026-03-23T08:08:44Z</time></trkpt><trkpt lat="31.571773771815792" lon="-4.356586027247156"><ele>863.0</ele><time>2026-03-23T08:08:45Z</time></trkpt><trkpt lat="31.57173651271542" lon="-4.356797466956455"><ele>863.0</ele><time>2026-03-23T08:08:46Z</time></trkpt><trkpt lat="31.571738563987996" lon="-4.35702926722512"><ele>863.0</ele><time>2026-03-23T08:08:47Z</time></trkpt><trkpt lat="31.57171782652574" lon="-4.357279378359231"><ele>863.0</ele><time>2026-03-23T08:08:48Z</time></trkpt><trkpt lat="31.571696643725076" lon="-4.357537786791306"><ele>863.0</ele><time>2026-03-23T08:08:49Z</time></trkpt><trkpt lat="31.571670094104697" lon="-4.35776413459833"><ele>863.0</ele><time>2026-03-23T08:08:50Z</time></trkpt><trkpt lat="31.571647606470403" lon="-4.3579580762221"><ele>863.0</ele><time>2026-03-23T08:08:51Z</time></trkpt><trkpt lat="31.57162419973002" lon="-4.35816008741351"><ele>863.0</ele><time>2026-03-23T08:08:52Z</time></trkpt><trkpt lat="31.571603443975885" lon="-4.358342653254717"><ele>863.0</ele><time>2026-03-23T08:08:53Z</time></trkpt><trkpt lat="31.57158258431724" lon="-4.358539338638726"><ele>863.0</ele><time>2026-03-23T08:08:54Z</time></trkpt><trkpt lat="31.571546478493012" lon="-4.358770421625847"><ele>862.6666666666667</ele><time>2026-03-23T08:08:55Z</time></trkpt><trkpt lat="31.571535824402822" lon="-4.359012386015319"><ele>862.3333333333333</ele><time>2026-03-23T08:08:56Z</time></trkpt><trkpt lat="31.5715102173008" lon="-4.359251868098813"><ele>862.0</ele><time>2026-03-23T08:08:57Z</time></trkpt><trkpt lat="31.571502036880545" lon="-4.359479556462461"><ele>862.0</ele><time>2026-03-23T08:08:58Z</time></trkpt><trkpt lat="31.571494387338422" lon="-4.3596871677000255"><ele>862.0</ele><time>2026-03-23T08:08:59Z</time></trkpt><trkpt lat="31.57149640934655" lon="-4.359885206525674"><ele>862.0</ele><time>2026-03-23T08:09:00Z</time></trkpt><trkpt lat="31.571504316663898" lon="-4.360070235933694"><ele>861.25</ele><time>2026-03-23T08:09:01Z</time></trkpt><trkpt lat="31.571525661246994" lon="-4.360261140173041"><ele>860.5</ele><time>2026-03-23T08:09:02Z</time></trkpt><trkpt lat="31.571500507733276" lon="-4.360441813513358"><ele>859.75</ele><time>2026-03-23T08:09:03Z</time></trkpt><trkpt lat="31.57148603764652" lon="-4.360585966961445"><ele>859.0</ele><time>2026-03-23T08:09:04Z</time></trkpt><trkpt lat="31.57147445952086" lon="-4.360731236841042"><ele>859.0</ele><time>2026-03-23T08:09:05Z</time></trkpt><trkpt lat="31.57145261622095" lon="-4.360881733638694"><ele>859.0</ele><time>2026-03-23T08:09:06Z</time></trkpt><trkpt lat="31.57146944446838" lon="-4.361046762838425"><ele>859.0</ele><time>2026-03-23T08:09:07Z</time></trkpt><trkpt lat="31.571480495063785" lon="-4.361221587575243"><ele>859.0</ele><time>2026-03-23T08:09:08Z</time></trkpt><trkpt lat="31.571490202422247" lon="-4.361380130734136"><ele>859.3333333333333</ele><time>2026-03-23T08:09:09Z</time></trkpt><trkpt lat="31.57145506280269" lon="-4.3615555509870925"><ele>859.6666666666667</ele><time>2026-03-23T08:09:10Z</time></trkpt><trkpt lat="31.571442078277315" lon="-4.361740803934797"><ele>860.0</ele><time>2026-03-23T08:09:11Z</time></trkpt><trkpt lat="31.57142626956591" lon="-4.361940354017758"><ele>860.0</ele><time>2026-03-23T08:09:12Z</time></trkpt><trkpt lat="31.571392587330475" lon="-4.362140000897441"><ele>860.0</ele><time>2026-03-23T08:09:13Z</time></trkpt><trkpt lat="31.57139536639723" lon="-4.362333762292124"><ele>860.0</ele><time>2026-03-23T08:09:14Z</time></trkpt><trkpt lat="31.57139054263516" lon="-4.3625387204164765"><ele>860.0</ele><time>2026-03-23T08:09:15Z</time></trkpt><trkpt lat="31.57140410105458" lon="-4.362743951446056"><ele>860.0</ele><time>2026-03-23T08:09:16Z</time></trkpt><trkpt lat="31.571446630331256" lon="-4.362942997055715"><ele>860.0</ele><time>2026-03-23T08:09:17Z</time></trkpt><trkpt lat="31.571483294068088" lon="-4.363131999560365"><ele>860.0</ele><time>2026-03-23T08:09:18Z</time></trkpt><trkpt lat="31.571478065835954" lon="-4.363310356753652"><ele>860.0</ele><time>2026-03-23T08:09:19Z</time></trkpt><trkpt lat="31.57150861100009" lon="-4.363423005191104"><ele>860.0</ele><time>2026-03-23T08:09:20Z</time></trkpt><trkpt lat="31.571519953351622" lon="-4.3635534092247505"><ele>860.0</ele><time>2026-03-23T08:09:21Z</time></trkpt><trkpt lat="31.57154216486322" lon="-4.363682291575909"><ele>860.0000000000001</ele><time>2026-03-23T08:09:22Z</time></trkpt><trkpt lat="31.57159110712204" lon="-4.363781139101998"><ele>860.0</ele><time>2026-03-23T08:09:23Z</time></trkpt><trkpt lat="31.57163966788784" lon="-4.363876067865428"><ele>860.0</ele><time>2026-03-23T08:09:24Z</time></trkpt><trkpt lat="31.571678023288182" lon="-4.363950826428359"><ele>860.0</ele><time>2026-03-23T08:09:25Z</time></trkpt><trkpt lat="31.571717007870497" lon="-4.364016184046281"><ele>860.0000000000001</ele><time>2026-03-23T08:09:27Z</time></trkpt><trkpt lat="31.571788417791527" lon="-4.364097665457381"><ele>860.0</ele><time>2026-03-23T08:09:29Z</time></trkpt><trkpt lat="31.571867202349846" lon="-4.36420723499908"><ele>859.6</ele><time>2026-03-23T08:09:31Z</time></trkpt><trkpt lat="31.57196464052535" lon="-4.364307202433095"><ele>859.2</ele><time>2026-03-23T08:09:33Z</time></trkpt><trkpt lat="31.57202176722643" lon="-4.364381849030315"><ele>858.8</ele><time>2026-03-23T08:09:34Z</time></trkpt><trkpt lat="31.572086987587806" lon="-4.364454891878542"><ele>858.4</ele><time>2026-03-23T08:09:35Z</time></trkpt><trkpt lat="31.572159464409438" lon="-4.364543452544932"><ele>858.0</ele><time>2026-03-23T08:09:36Z</time></trkpt><trkpt lat="31.57223856878997" lon="-4.364647024206756"><ele>858.4</ele><time>2026-03-23T08:09:37Z</time></trkpt><trkpt lat="31.572305363999114" lon="-4.364748881358349"><ele>858.8</ele><time>2026-03-23T08:09:38Z</time></trkpt><trkpt lat="31.572344927492352" lon="-4.364835384260189"><ele>859.2</ele><time>2026-03-23T08:09:39Z</time></trkpt><trkpt lat="31.572393264510506" lon="-4.3649186279700025"><ele>859.6</ele><time>2026-03-23T08:09:40Z</time></trkpt><trkpt lat="31.572458723608744" lon="-4.3650013942974315"><ele>860.0</ele><time>2026-03-23T08:09:41Z</time></trkpt><trkpt lat="31.57251763229284" lon="-4.365105033651167"><ele>860.0</ele><time>2026-03-23T08:09:42Z</time></trkpt><trkpt lat="31.572579267258146" lon="-4.365216859434227"><ele>860.0</ele><time>2026-03-23T08:09:43Z</time></trkpt><trkpt lat="31.572650224596618" lon="-4.365345599001013"><ele>860.0</ele><time>2026-03-23T08:09:44Z</time></trkpt><trkpt lat="31.57273086346747" lon="-4.365483167154487"><ele>860.0</ele><time>2026-03-23T08:09:45Z</time></trkpt><trkpt lat="31.572792965727192" lon="-4.365622055252787"><ele>859.6666666666667</ele><time>2026-03-23T08:09:46Z</time></trkpt><trkpt lat="31.572872097592793" lon="-4.365757787559775"><ele>859.3333333333333</ele><time>2026-03-23T08:09:47Z</time></trkpt><trkpt lat="31.572938012344753" lon="-4.365924733757958"><ele>859.0</ele><time>2026-03-23T08:09:48Z</time></trkpt><trkpt lat="31.573018174400737" lon="-4.366099233640831"><ele>859.0</ele><time>2026-03-23T08:09:49Z</time></trkpt><trkpt lat="31.57307448159625" lon="-4.366296379947781"><ele>859.0</ele><time>2026-03-23T08:09:50Z</time></trkpt><trkpt lat="31.573148859716518" lon="-4.366458989307291"><ele>859.0</ele><time>2026-03-23T08:09:51Z</time></trkpt><trkpt lat="31.573192359831165" lon="-4.366637464483145"><ele>860.0</ele><time>2026-03-23T08:09:52Z</time></trkpt><trkpt lat="31.57322655120399" lon="-4.366811609649643"><ele>861.0</ele><time>2026-03-23T08:09:53Z</time></trkpt><trkpt lat="31.573274238252818" lon="-4.366973847749408"><ele>862.0</ele><time>2026-03-23T08:09:54Z</time></trkpt><trkpt lat="31.573316218099524" lon="-4.367150114546781"><ele>861.6666666666666</ele><time>2026-03-23T08:09:55Z</time></trkpt><trkpt lat="31.57336410029098" lon="-4.367351164312277"><ele>861.3333333333333</ele><time>2026-03-23T08:09:56Z</time></trkpt><trkpt lat="31.573413560934107" lon="-4.367548931901424"><ele>861.0</ele><time>2026-03-23T08:09:57Z</time></trkpt><trkpt lat="31.573457898715915" lon="-4.367717345751532"><ele>861.0</ele><time>2026-03-23T08:09:58Z</time></trkpt><trkpt lat="31.573496999867096" lon="-4.367865774373991"><ele>861.0</ele><time>2026-03-23T08:09:59Z</time></trkpt><trkpt lat="31.573539824440633" lon="-4.368027824497161"><ele>861.0</ele><time>2026-03-23T08:10:00Z</time></trkpt><trkpt lat="31.57358236575289" lon="-4.368191038010029"><ele>861.0</ele><time>2026-03-23T08:10:01Z</time></trkpt><trkpt lat="31.573620752219455" lon="-4.368338258619712"><ele>861.3333333333333</ele><time>2026-03-23T08:10:02Z</time></trkpt><trkpt lat="31.573653095998893" lon="-4.36850279937962"><ele>861.6666666666666</ele><time>2026-03-23T08:10:03Z</time></trkpt><trkpt lat="31.573738599690945" lon="-4.368660175793121"><ele>862.0</ele><time>2026-03-23T08:10:04Z</time></trkpt><trkpt lat="31.57379567426061" lon="-4.368820457566058"><ele>862.0</ele><time>2026-03-23T08:10:05Z</time></trkpt><trkpt lat="31.57387123190114" lon="-4.368977528981542"><ele>862.0</ele><time>2026-03-23T08:10:06Z</time></trkpt><trkpt lat="31.57391861442733" lon="-4.3691435133360095"><ele>862.0</ele><time>2026-03-23T08:10:07Z</time></trkpt><trkpt lat="31.57397789993666" lon="-4.369310006804558"><ele>862.0</ele><time>2026-03-23T08:10:08Z</time></trkpt><trkpt lat="31.57400996507363" lon="-4.369482201760845"><ele>862.0</ele><time>2026-03-23T08:10:09Z</time></trkpt><trkpt lat="31.574026706751457" lon="-4.369656512987766"><ele>862.0</ele><time>2026-03-23T08:10:10Z</time></trkpt><trkpt lat="31.574054132337697" lon="-4.36982262525771"><ele>862.0</ele><time>2026-03-23T08:10:11Z</time></trkpt><trkpt lat="31.57405173052282" lon="-4.369999261645297"><ele>861.6666666666666</ele><time>2026-03-23T08:10:12Z</time></trkpt><trkpt lat="31.57407939561492" lon="-4.370193324954523"><ele>861.3333333333333</ele><time>2026-03-23T08:10:13Z</time></trkpt><trkpt lat="31.574103437255626" lon="-4.370413166398715"><ele>861.0</ele><time>2026-03-23T08:10:14Z</time></trkpt><trkpt lat="31.574130058092006" lon="-4.370618338044679"><ele>860.6666666666667</ele><time>2026-03-23T08:10:15Z</time></trkpt><trkpt lat="31.57416524633136" lon="-4.3708171006738"><ele>860.3333333333334</ele><time>2026-03-23T08:10:16Z</time></trkpt><trkpt lat="31.57420246151163" lon="-4.371027208351891"><ele>860.0</ele><time>2026-03-23T08:10:17Z</time></trkpt><trkpt lat="31.5742705497284" lon="-4.371237331917149"><ele>860.3333333333334</ele><time>2026-03-23T08:10:18Z</time></trkpt><trkpt lat="31.574347197478314" lon="-4.371452273321996"><ele>860.6666666666667</ele><time>2026-03-23T08:10:19Z</time></trkpt><trkpt lat="31.574413300654538" lon="-4.371643396289625"><ele>861.0</ele><time>2026-03-23T08:10:20Z</time></trkpt><trkpt lat="31.574453436993505" lon="-4.371821677659071"><ele>861.0</ele><time>2026-03-23T08:10:21Z</time></trkpt><trkpt lat="31.574477541414204" lon="-4.371999156570834"><ele>861.0</ele><time>2026-03-23T08:10:22Z</time></trkpt><trkpt lat="31.574490527666743" lon="-4.372167042649775"><ele>861.0</ele><time>2026-03-23T08:10:23Z</time></trkpt><trkpt lat="31.574502152068725" lon="-4.372349745365117"><ele>861.0</ele><time>2026-03-23T08:10:24Z</time></trkpt><trkpt lat="31.574510342391076" lon="-4.372556071213237"><ele>861.0</ele><time>2026-03-23T08:10:25Z</time></trkpt><trkpt lat="31.57451796951804" lon="-4.372728183027075"><ele>861.0</ele><time>2026-03-23T08:10:26Z</time></trkpt><trkpt lat="31.574529065212445" lon="-4.372921051291719"><ele>862.0</ele><time>2026-03-23T08:10:27Z</time></trkpt><trkpt lat="31.574545896517815" lon="-4.373110211633258"><ele>863.0</ele><time>2026-03-23T08:10:28Z</time></trkpt><trkpt lat="31.57456148371642" lon="-4.373285390460344"><ele>864.0</ele><time>2026-03-23T08:10:29Z</time></trkpt><trkpt lat="31.574579032505227" lon="-4.373481738979136"><ele>864.0</ele><time>2026-03-23T08:10:30Z</time></trkpt><trkpt lat="31.57459667888205" lon="-4.373667656084292"><ele>864.0</ele><time>2026-03-23T08:10:31Z</time></trkpt><trkpt lat="31.574613708993397" lon="-4.373848115232296"><ele>864.0</ele><time>2026-03-23T08:10:32Z</time></trkpt><trkpt lat="31.574630306188347" lon="-4.3740265779692855"><ele>864.0</ele><time>2026-03-23T08:10:33Z</time></trkpt><trkpt lat="31.574665573001422" lon="-4.374253034632886"><ele>864.0</ele><time>2026-03-23T08:10:34Z</time></trkpt><trkpt lat="31.574699132355818" lon="-4.374425499388149"><ele>864.0</ele><time>2026-03-23T08:10:35Z</time></trkpt><trkpt lat="31.57472992876453" lon="-4.374582276447346"><ele>864.0</ele><time>2026-03-23T08:10:36Z</time></trkpt><trkpt lat="31.57475927331343" lon="-4.374731168137001"><ele>864.0</ele><time>2026-03-23T08:10:37Z</time></trkpt><trkpt lat="31.574787650585073" lon="-4.374874615209121"><ele>864.0</ele><time>2026-03-23T08:10:38Z</time></trkpt><trkpt lat="31.574824249847595" lon="-4.375032034899513"><ele>864.0</ele><time>2026-03-23T08:10:39Z</time></trkpt><trkpt lat="31.574860529722145" lon="-4.375181826095457"><ele>864.0</ele><time>2026-03-23T08:10:40Z</time></trkpt><trkpt lat="31.57489783962191" lon="-4.375335870175548"><ele>864.0</ele><time>2026-03-23T08:10:41Z</time></trkpt><trkpt lat="31.57494282892057" lon="-4.375521620815279"><ele>864.0</ele><time>2026-03-23T08:10:42Z</time></trkpt><trkpt lat="31.574990446367806" lon="-4.375718222582026"><ele>864.3333333333333</ele><time>2026-03-23T08:10:43Z</time></trkpt><trkpt lat="31.575043156816935" lon="-4.375926438351257"><ele>864.6666666666666</ele><time>2026-03-23T08:10:44Z</time></trkpt><trkpt lat="31.575088071104126" lon="-4.376102463499225"><ele>865.0</ele><time>2026-03-23T08:10:45Z</time></trkpt><trkpt lat="31.5751347992892" lon="-4.376285146366852"><ele>864.6666666666666</ele><time>2026-03-23T08:10:46Z</time></trkpt><trkpt lat="31.575181660386363" lon="-4.37646834886613"><ele>864.3333333333333</ele><time>2026-03-23T08:10:47Z</time></trkpt><trkpt lat="31.575228840398466" lon="-4.37665275491099"><ele>864.0</ele><time>2026-03-23T08:10:48Z</time></trkpt><trkpt lat="31.575273066187954" lon="-4.376825341339284"><ele>864.0</ele><time>2026-03-23T08:10:49Z</time></trkpt><trkpt lat="31.575316159637147" lon="-4.376993508985342"><ele>864.0</ele><time>2026-03-23T08:10:50Z</time></trkpt><trkpt lat="31.575354785465127" lon="-4.377161225236522"><ele>864.0</ele><time>2026-03-23T08:10:51Z</time></trkpt><trkpt lat="31.575389265839107" lon="-4.377320914880809"><ele>864.0</ele><time>2026-03-23T08:10:52Z</time></trkpt><trkpt lat="31.575417652852945" lon="-4.377452384229748"><ele>864.75</ele><time>2026-03-23T08:10:53Z</time></trkpt><trkpt lat="31.575445050420086" lon="-4.377579271071011"><ele>865.5</ele><time>2026-03-23T08:10:54Z</time></trkpt><trkpt lat="31.575475633152774" lon="-4.377720909503644"><ele>866.25</ele><time>2026-03-23T08:10:55Z</time></trkpt><trkpt lat="31.575509552171997" lon="-4.377865849389712"><ele>867.0</ele><time>2026-03-23T08:10:56Z</time></trkpt><trkpt lat="31.575540860499867" lon="-4.377988806288665"><ele>866.8</ele><time>2026-03-23T08:10:57Z</time></trkpt><trkpt lat="31.57557190803907" lon="-4.378110675633556"><ele>866.6</ele><time>2026-03-23T08:10:58Z</time></trkpt><trkpt lat="31.57560252764197" lon="-4.378230865312901"><ele>866.3999999999999</ele><time>2026-03-23T08:10:59Z</time></trkpt><trkpt lat="31.575633827746817" lon="-4.378354317157535"><ele>866.1999999999999</ele><time>2026-03-23T08:11:00Z</time></trkpt><trkpt lat="31.57566506748349" lon="-4.3784781222078175"><ele>866.0</ele><time>2026-03-23T08:11:01Z</time></trkpt><trkpt lat="31.5756977655657" lon="-4.378607275831686"><ele>866.0</ele><time>2026-03-23T08:11:02Z</time></trkpt><trkpt lat="31.575732906380228" lon="-4.378744202034074"><ele>866.0</ele><time>2026-03-23T08:11:03Z</time></trkpt><trkpt lat="31.575770192635794" lon="-4.378889487907576"><ele>866.0</ele><time>2026-03-23T08:11:04Z</time></trkpt><trkpt lat="31.575815632447245" lon="-4.379066544112275"><ele>866.0</ele><time>2026-03-23T08:11:05Z</time></trkpt><trkpt lat="31.57586719650626" lon="-4.379267463497136"><ele>866.0</ele><time>2026-03-23T08:11:06Z</time></trkpt><trkpt lat="31.57590441878122" lon="-4.37944642355966"><ele>866.0</ele><time>2026-03-23T08:11:07Z</time></trkpt><trkpt lat="31.575937147659953" lon="-4.379660255977583"><ele>866.0</ele><time>2026-03-23T08:11:08Z</time></trkpt><trkpt lat="31.575969472277084" lon="-4.379870015563948"><ele>866.0</ele><time>2026-03-23T08:11:09Z</time></trkpt><trkpt lat="31.5760062778199" lon="-4.380100338389292"><ele>866.0</ele><time>2026-03-23T08:11:10Z</time></trkpt><trkpt lat="31.576051383714205" lon="-4.380267906830745"><ele>866.0</ele><time>2026-03-23T08:11:11Z</time></trkpt><trkpt lat="31.57609785680243" lon="-4.380440554318413"><ele>865.6666666666667</ele><time>2026-03-23T08:11:12Z</time></trkpt><trkpt lat="31.576144102129" lon="-4.380612355686332"><ele>865.3333333333333</ele><time>2026-03-23T08:11:13Z</time></trkpt><trkpt lat="31.576189000372867" lon="-4.380779152683854"><ele>865.0</ele><time>2026-03-23T08:11:14Z</time></trkpt><trkpt lat="31.57622534871676" lon="-4.380948362484018"><ele>865.0</ele><time>2026-03-23T08:11:15Z</time></trkpt><trkpt lat="31.576262267129334" lon="-4.38113508892762"><ele>865.0</ele><time>2026-03-23T08:11:16Z</time></trkpt><trkpt lat="31.576297052698756" lon="-4.381311023151534"><ele>865.0</ele><time>2026-03-23T08:11:17Z</time></trkpt><trkpt lat="31.576328679837868" lon="-4.381470990675616"><ele>865.5</ele><time>2026-03-23T08:11:18Z</time></trkpt><trkpt lat="31.576360404046895" lon="-4.381629198573256"><ele>866.0</ele><time>2026-03-23T08:11:19Z</time></trkpt><trkpt lat="31.576387366229113" lon="-4.381795531940404"><ele>866.5</ele><time>2026-03-23T08:11:20Z</time></trkpt><trkpt lat="31.576412809650417" lon="-4.381952495960483"><ele>867.0</ele><time>2026-03-23T08:11:21Z</time></trkpt><trkpt lat="31.576437446671182" lon="-4.382104686682245"><ele>866.5</ele><time>2026-03-23T08:11:22Z</time></trkpt><trkpt lat="31.576461806420646" lon="-4.38225561520872"><ele>866.0</ele><time>2026-03-23T08:11:23Z</time></trkpt><trkpt lat="31.57648647384626" lon="-4.382408633564279"><ele>865.5</ele><time>2026-03-23T08:11:24Z</time></trkpt><trkpt lat="31.57651233596933" lon="-4.382570063273662"><ele>865.0</ele><time>2026-03-23T08:11:25Z</time></trkpt><trkpt lat="31.57655449083697" lon="-4.382754238936669"><ele>865.0</ele><time>2026-03-23T08:11:26Z</time></trkpt><trkpt lat="31.57660027915937" lon="-4.382917326465173"><ele>865.0</ele><time>2026-03-23T08:11:27Z</time></trkpt><trkpt lat="31.576650413612988" lon="-4.38309309781085"><ele>865.0</ele><time>2026-03-23T08:11:28Z</time></trkpt><trkpt lat="31.57670745208424" lon="-4.38328961324466"><ele>865.0</ele><time>2026-03-23T08:11:29Z</time></trkpt><trkpt lat="31.576772616909086" lon="-4.383488094469816"><ele>865.0</ele><time>2026-03-23T08:11:30Z</time></trkpt><trkpt lat="31.576834952597107" lon="-4.383680166607431"><ele>865.0</ele><time>2026-03-23T08:11:31Z</time></trkpt><trkpt lat="31.576908238957014" lon="-4.383902392887899"><ele>865.0</ele><time>2026-03-23T08:11:32Z</time></trkpt><trkpt lat="31.57699054136557" lon="-4.384130445744197"><ele>865.0</ele><time>2026-03-23T08:11:33Z</time></trkpt><trkpt lat="31.577069987389308" lon="-4.384351647769189"><ele>865.0</ele><time>2026-03-23T08:11:34Z</time></trkpt><trkpt lat="31.577141174176347" lon="-4.384553608257052"><ele>865.3333333333333</ele><time>2026-03-23T08:11:35Z</time></trkpt><trkpt lat="31.577204248949975" lon="-4.384732554522071"><ele>865.6666666666667</ele><time>2026-03-23T08:11:36Z</time></trkpt><trkpt lat="31.577267439983505" lon="-4.384905209682565"><ele>866.0</ele><time>2026-03-23T08:11:37Z</time></trkpt><trkpt lat="31.5773268947119" lon="-4.385063709931314"><ele>866.0</ele><time>2026-03-23T08:11:38Z</time></trkpt><trkpt lat="31.577388505109607" lon="-4.385201763640217"><ele>866.0</ele><time>2026-03-23T08:11:39Z</time></trkpt><trkpt lat="31.577434831114847" lon="-4.385407907845105"><ele>866.0</ele><time>2026-03-23T08:11:40Z</time></trkpt><trkpt lat="31.577482926930927" lon="-4.385617974213992"><ele>866.0</ele><time>2026-03-23T08:11:41Z</time></trkpt><trkpt lat="31.577539544233428" lon="-4.3858383464416555"><ele>866.0</ele><time>2026-03-23T08:11:42Z</time></trkpt><trkpt lat="31.577599341414928" lon="-4.386047626969271"><ele>866.0</ele><time>2026-03-23T08:11:43Z</time></trkpt><trkpt lat="31.5776589104659" lon="-4.3862561091341945"><ele>866.6666666666667</ele><time>2026-03-23T08:11:44Z</time></trkpt><trkpt lat="31.57771415544555" lon="-4.386449457736156"><ele>867.3333333333333</ele><time>2026-03-23T08:11:45Z</time></trkpt><trkpt lat="31.57776446519897" lon="-4.386625533855152"><ele>868.0</ele><time>2026-03-23T08:11:46Z</time></trkpt><trkpt lat="31.577810157714417" lon="-4.386785450376004"><ele>867.3333333333333</ele><time>2026-03-23T08:11:47Z</time></trkpt><trkpt lat="31.577853904561024" lon="-4.386940598029201"><ele>866.6666666666667</ele><time>2026-03-23T08:11:48Z</time></trkpt><trkpt lat="31.577901538949195" lon="-4.387111054913437"><ele>866.0</ele><time>2026-03-23T08:11:49Z</time></trkpt><trkpt lat="31.577952941070716" lon="-4.387294410155874"><ele>866.0</ele><time>2026-03-23T08:11:50Z</time></trkpt><trkpt lat="31.57802350587306" lon="-4.387517069342686"><ele>866.0</ele><time>2026-03-23T08:11:51Z</time></trkpt><trkpt lat="31.578090505485257" lon="-4.38771787747584"><ele>866.0</ele><time>2026-03-23T08:11:52Z</time></trkpt><trkpt lat="31.578147468068" lon="-4.3878958118399565"><ele>866.75</ele><time>2026-03-23T08:11:53Z</time></trkpt><trkpt lat="31.57819932521272" lon="-4.388062579784583"><ele>867.5</ele><time>2026-03-23T08:11:54Z</time></trkpt><trkpt lat="31.578269781007258" lon="-4.388235034047268"><ele>868.25</ele><time>2026-03-23T08:11:55Z</time></trkpt><trkpt lat="31.578327194965624" lon="-4.38837443028039"><ele>869.0</ele><time>2026-03-23T08:11:56Z</time></trkpt><trkpt lat="31.578383717882176" lon="-4.388518786347304"><ele>869.0</ele><time>2026-03-23T08:11:57Z</time></trkpt><trkpt lat="31.57844539979148" lon="-4.388697065869099"><ele>869.0</ele><time>2026-03-23T08:11:58Z</time></trkpt><trkpt lat="31.57851163770422" lon="-4.388888513625089"><ele>869.0</ele><time>2026-03-23T08:11:59Z</time></trkpt><trkpt lat="31.57858964311518" lon="-4.389108060872352"><ele>869.0</ele><time>2026-03-23T08:12:00Z</time></trkpt><trkpt lat="31.578664285098398" lon="-4.389312435850349"><ele>869.0</ele><time>2026-03-23T08:12:01Z</time></trkpt><trkpt lat="31.57874338335853" lon="-4.389529012313314"><ele>869.0</ele><time>2026-03-23T08:12:02Z</time></trkpt><trkpt lat="31.578828323572786" lon="-4.389738194958927"><ele>868.6666666666667</ele><time>2026-03-23T08:12:03Z</time></trkpt><trkpt lat="31.57891235893367" lon="-4.3899380169634945"><ele>868.3333333333333</ele><time>2026-03-23T08:12:04Z</time></trkpt><trkpt lat="31.57896808201765" lon="-4.390134690580561"><ele>868.0</ele><time>2026-03-23T08:12:05Z</time></trkpt><trkpt lat="31.57902091533025" lon="-4.390321165059715"><ele>868.6666666666666</ele><time>2026-03-23T08:12:06Z</time></trkpt><trkpt lat="31.57907571032335" lon="-4.3905145632457305"><ele>869.3333333333333</ele><time>2026-03-23T08:12:07Z</time></trkpt><trkpt lat="31.57913165956405" lon="-4.390718605632519"><ele>870.0</ele><time>2026-03-23T08:12:08Z</time></trkpt><trkpt lat="31.579184526914965" lon="-4.390911681282806"><ele>870.0</ele><time>2026-03-23T08:12:09Z</time></trkpt><trkpt lat="31.579241006455238" lon="-4.391110326153395"><ele>870.0</ele><time>2026-03-23T08:12:10Z</time></trkpt><trkpt lat="31.57930064886465" lon="-4.39131200880733"><ele>870.0</ele><time>2026-03-23T08:12:11Z</time></trkpt><trkpt lat="31.579360230003765" lon="-4.391513484289857"><ele>870.0</ele><time>2026-03-23T08:12:12Z</time></trkpt><trkpt lat="31.579423418838964" lon="-4.391727700522221"><ele>870.0</ele><time>2026-03-23T08:12:13Z</time></trkpt><trkpt lat="31.579486918284" lon="-4.3919336763695"><ele>870.0</ele><time>2026-03-23T08:12:14Z</time></trkpt><trkpt lat="31.579552423288902" lon="-4.392132250045479"><ele>869.0</ele><time>2026-03-23T08:12:15Z</time></trkpt><trkpt lat="31.579620041231298" lon="-4.392333439132377"><ele>868.0</ele><time>2026-03-23T08:12:16Z</time></trkpt><trkpt lat="31.579687184292112" lon="-4.3925308907115665"><ele>867.0</ele><time>2026-03-23T08:12:17Z</time></trkpt><trkpt lat="31.579775959814455" lon="-4.392711248881611"><ele>867.0</ele><time>2026-03-23T08:12:18Z</time></trkpt><trkpt lat="31.57983287476241" lon="-4.392907263092196"><ele>867.0</ele><time>2026-03-23T08:12:19Z</time></trkpt><trkpt lat="31.57989447346657" lon="-4.393105171762503"><ele>867.0</ele><time>2026-03-23T08:12:20Z</time></trkpt><trkpt lat="31.579960946409734" lon="-4.39330454155904"><ele>867.0</ele><time>2026-03-23T08:12:21Z</time></trkpt><trkpt lat="31.580038872343454" lon="-4.393503641481"><ele>867.0</ele><time>2026-03-23T08:12:22Z</time></trkpt><trkpt lat="31.58012651317628" lon="-4.393711065249895"><ele>867.0</ele><time>2026-03-23T08:12:23Z</time></trkpt><trkpt lat="31.580211729207175" lon="-4.3939224395716145"><ele>867.0</ele><time>2026-03-23T08:12:24Z</time></trkpt><trkpt lat="31.58029873362601" lon="-4.3941375351608185"><ele>867.0</ele><time>2026-03-23T08:12:25Z</time></trkpt><trkpt lat="31.580392485600168" lon="-4.394358508674059"><ele>867.0</ele><time>2026-03-23T08:12:26Z</time></trkpt><trkpt lat="31.580478252442802" lon="-4.394571555306185"><ele>867.3333333333333</ele><time>2026-03-23T08:12:27Z</time></trkpt><trkpt lat="31.580559402702228" lon="-4.394836636436133"><ele>867.6666666666666</ele><time>2026-03-23T08:12:28Z</time></trkpt><trkpt lat="31.580597098955593" lon="-4.394956851537117"><ele>868.0</ele><time>2026-03-23T08:12:29Z</time></trkpt><trkpt lat="31.580561982486476" lon="-4.395116892988511"><ele>868.0</ele><time>2026-03-23T08:12:30Z</time></trkpt><trkpt lat="31.58056198248658" lon="-4.395262931387981"><ele>868.0</ele><time>2026-03-23T08:12:31Z</time></trkpt><trkpt lat="31.58055362971213" lon="-4.395437577209539"><ele>868.0</ele><time>2026-03-23T08:12:32Z</time></trkpt><trkpt lat="31.58054691505979" lon="-4.395651548925243"><ele>868.0</ele><time>2026-03-23T08:12:33Z</time></trkpt><trkpt lat="31.580502604647478" lon="-4.395898660061086"><ele>868.0</ele><time>2026-03-23T08:12:34Z</time></trkpt><trkpt lat="31.580475324025628" lon="-4.396172116482982"><ele>869.5</ele><time>2026-03-23T08:12:35Z</time></trkpt><trkpt lat="31.580425023660915" lon="-4.396451515435222"><ele>871.0</ele><time>2026-03-23T08:12:36Z</time></trkpt><trkpt lat="31.580372590667466" lon="-4.396701749920988"><ele>870.6666666666666</ele><time>2026-03-23T08:12:37Z</time></trkpt><trkpt lat="31.58030192569268" lon="-4.396922942090531"><ele>870.3333333333333</ele><time>2026-03-23T08:12:38Z</time></trkpt><trkpt lat="31.580279015095687" lon="-4.397136584148718"><ele>870.0</ele><time>2026-03-23T08:12:39Z</time></trkpt><trkpt lat="31.580232764167384" lon="-4.397339329348732"><ele>869.3333333333333</ele><time>2026-03-23T08:12:40Z</time></trkpt><trkpt lat="31.580197460662" lon="-4.397539762903775"><ele>868.6666666666666</ele><time>2026-03-23T08:12:41Z</time></trkpt><trkpt lat="31.58016258714209" lon="-4.397744404069947"><ele>868.0</ele><time>2026-03-23T08:12:42Z</time></trkpt><trkpt lat="31.580111303604003" lon="-4.3979463973022295"><ele>868.3333333333333</ele><time>2026-03-23T08:12:43Z</time></trkpt><trkpt lat="31.580095448874317" lon="-4.398149543774807"><ele>868.6666666666667</ele><time>2026-03-23T08:12:44Z</time></trkpt><trkpt lat="31.580086500338723" lon="-4.398344665878027"><ele>869.0</ele><time>2026-03-23T08:12:45Z</time></trkpt><trkpt lat="31.58008003573958" lon="-4.398543373783969"><ele>869.0</ele><time>2026-03-23T08:12:46Z</time></trkpt><trkpt lat="31.580072859510757" lon="-4.398755879139616"><ele>869.0</ele><time>2026-03-23T08:12:47Z</time></trkpt><trkpt lat="31.58007727027402" lon="-4.398966133020519"><ele>869.0</ele><time>2026-03-23T08:12:48Z</time></trkpt><trkpt lat="31.58007343231092" lon="-4.399210115997794"><ele>869.0</ele><time>2026-03-23T08:12:49Z</time></trkpt><trkpt lat="31.580029346412342" lon="-4.3994278208822415"><ele>869.0</ele><time>2026-03-23T08:12:50Z</time></trkpt><trkpt lat="31.579991844167974" lon="-4.3996266082998"><ele>869.0</ele><time>2026-03-23T08:12:51Z</time></trkpt><trkpt lat="31.5799573362286" lon="-4.399847712027879"><ele>869.3333333333334</ele><time>2026-03-23T08:12:52Z</time></trkpt><trkpt lat="31.579940035175078" lon="-4.40008963729534"><ele>869.6666666666667</ele><time>2026-03-23T08:12:53Z</time></trkpt><trkpt lat="31.579914222672873" lon="-4.400357850516313"><ele>870.0</ele><time>2026-03-23T08:12:54Z</time></trkpt><trkpt lat="31.579858479046553" lon="-4.400551489000404"><ele>870.0</ele><time>2026-03-23T08:12:55Z</time></trkpt><trkpt lat="31.579811675611143" lon="-4.400717432572657"><ele>870.0</ele><time>2026-03-23T08:12:56Z</time></trkpt><trkpt lat="31.579653011783197" lon="-4.400841240457111"><ele>870.0</ele><time>2026-03-23T08:12:57Z</time></trkpt><trkpt lat="31.57960418882275" lon="-4.4009803855678085"><ele>870.0</ele><time>2026-03-23T08:12:58Z</time></trkpt><trkpt lat="31.579554460064028" lon="-4.401105433439557"><ele>870.0</ele><time>2026-03-23T08:12:59Z</time></trkpt><trkpt lat="31.579542836109763" lon="-4.4012510277650865"><ele>870.0</ele><time>2026-03-23T08:13:00Z</time></trkpt><trkpt lat="31.579505213367995" lon="-4.40146552957406"><ele>870.0</ele><time>2026-03-23T08:13:01Z</time></trkpt><trkpt lat="31.57947708242769" lon="-4.401646050166075"><ele>870.0</ele><time>2026-03-23T08:13:02Z</time></trkpt><trkpt lat="31.579447712810047" lon="-4.401834848165816"><ele>870.0</ele><time>2026-03-23T08:13:03Z</time></trkpt><trkpt lat="31.579409643290273" lon="-4.402058009399271"><ele>870.0</ele><time>2026-03-23T08:13:04Z</time></trkpt><trkpt lat="31.57937311215511" lon="-4.402250450827758"><ele>871.0</ele><time>2026-03-23T08:13:05Z</time></trkpt><trkpt lat="31.579337043593085" lon="-4.402440455403779"><ele>872.0</ele><time>2026-03-23T08:13:06Z</time></trkpt><trkpt lat="31.579321642695685" lon="-4.402626034160031"><ele>873.0</ele><time>2026-03-23T08:13:07Z</time></trkpt><trkpt lat="31.579304283509703" lon="-4.402822198026559"><ele>874.0</ele><time>2026-03-23T08:13:08Z</time></trkpt><trkpt lat="31.579286971394296" lon="-4.403020537105492"><ele>875.0</ele><time>2026-03-23T08:13:09Z</time></trkpt><trkpt lat="31.57926727428006" lon="-4.403237777860521"><ele>876.0</ele><time>2026-03-23T08:13:10Z</time></trkpt><trkpt lat="31.579270194563726" lon="-4.4034567259469695"><ele>876.0</ele><time>2026-03-23T08:13:11Z</time></trkpt><trkpt lat="31.579264321393115" lon="-4.403680299672052"><ele>876.0</ele><time>2026-03-23T08:13:12Z</time></trkpt><trkpt lat="31.579256633774854" lon="-4.4038849473816875"><ele>876.0</ele><time>2026-03-23T08:13:13Z</time></trkpt><trkpt lat="31.57930000116898" lon="-4.404058906318816"><ele>875.6666666666667</ele><time>2026-03-23T08:13:14Z</time></trkpt><trkpt lat="31.57933441648709" lon="-4.404240284952239"><ele>875.3333333333334</ele><time>2026-03-23T08:13:15Z</time></trkpt><trkpt lat="31.579370236999385" lon="-4.404429067474487"><ele>875.0</ele><time>2026-03-23T08:13:16Z</time></trkpt><trkpt lat="31.579402219163956" lon="-4.404597041317458"><ele>875.0</ele><time>2026-03-23T08:13:17Z</time></trkpt><trkpt lat="31.57943343281265" lon="-4.404760765727104"><ele>875.0</ele><time>2026-03-23T08:13:18Z</time></trkpt><trkpt lat="31.57942781451081" lon="-4.404942108033924"><ele>875.0</ele><time>2026-03-23T08:13:19Z</time></trkpt><trkpt lat="31.57941962146254" lon="-4.405088006112342"><ele>875.0</ele><time>2026-03-23T08:13:20Z</time></trkpt><trkpt lat="31.579410086988997" lon="-4.405254730557849"><ele>875.0</ele><time>2026-03-23T08:13:21Z</time></trkpt><trkpt lat="31.579406929326737" lon="-4.405432063694846"><ele>875.0</ele><time>2026-03-23T08:13:22Z</time></trkpt><trkpt lat="31.579409284104308" lon="-4.405606561737814"><ele>875.0</ele><time>2026-03-23T08:13:23Z</time></trkpt><trkpt lat="31.57941157917715" lon="-4.405763714041183"><ele>875.0</ele><time>2026-03-23T08:13:24Z</time></trkpt><trkpt lat="31.57941369343175" lon="-4.405908485116829"><ele>875.25</ele><time>2026-03-23T08:13:25Z</time></trkpt><trkpt lat="31.579415394290653" lon="-4.406024949255939"><ele>875.5</ele><time>2026-03-23T08:13:26Z</time></trkpt><trkpt lat="31.579417340460903" lon="-4.40615821070522"><ele>875.75</ele><time>2026-03-23T08:13:27Z</time></trkpt><trkpt lat="31.579419039577573" lon="-4.406306076483402"><ele>876.0</ele><time>2026-03-23T08:13:28Z</time></trkpt><trkpt lat="31.57941123960052" lon="-4.406473173939068"><ele>876.3333333333333</ele><time>2026-03-23T08:13:29Z</time></trkpt><trkpt lat="31.57940254794201" lon="-4.406656154538147"><ele>876.6666666666666</ele><time>2026-03-23T08:13:30Z</time></trkpt><trkpt lat="31.579367149865824" lon="-4.406855370049676"><ele>877.0</ele><time>2026-03-23T08:13:31Z</time></trkpt><trkpt lat="31.57933007684195" lon="-4.4070218039756375"><ele>877.0</ele><time>2026-03-23T08:13:32Z</time></trkpt><trkpt lat="31.579285176225465" lon="-4.4071938627794"><ele>877.0</ele><time>2026-03-23T08:13:33Z</time></trkpt><trkpt lat="31.5792420011833" lon="-4.407374454578341"><ele>877.0</ele><time>2026-03-23T08:13:34Z</time></trkpt><trkpt lat="31.579212209966297" lon="-4.407589199645069"><ele>877.0</ele><time>2026-03-23T08:13:35Z</time></trkpt><trkpt lat="31.57917998283714" lon="-4.407831048813214"><ele>877.0</ele><time>2026-03-23T08:13:36Z</time></trkpt><trkpt lat="31.57914589311352" lon="-4.408094180806053"><ele>877.0</ele><time>2026-03-23T08:13:37Z</time></trkpt><trkpt lat="31.57910713750042" lon="-4.408351613518985"><ele>877.3333333333333</ele><time>2026-03-23T08:13:38Z</time></trkpt><trkpt lat="31.579058913158836" lon="-4.408579552481797"><ele>877.6666666666667</ele><time>2026-03-23T08:13:39Z</time></trkpt><trkpt lat="31.579041318192353" lon="-4.4087817833598635"><ele>878.0</ele><time>2026-03-23T08:13:40Z</time></trkpt><trkpt lat="31.579018999534128" lon="-4.4089602899211675"><ele>878.0</ele><time>2026-03-23T08:13:41Z</time></trkpt><trkpt lat="31.57898693003759" lon="-4.409124626604244"><ele>878.0</ele><time>2026-03-23T08:13:42Z</time></trkpt><trkpt lat="31.57894551318768" lon="-4.409290711954953"><ele>878.0</ele><time>2026-03-23T08:13:43Z</time></trkpt><trkpt lat="31.5789069593658" lon="-4.4094600756874245"><ele>878.0</ele><time>2026-03-23T08:13:44Z</time></trkpt><trkpt lat="31.578871516277452" lon="-4.409633295825382"><ele>877.3333333333334</ele><time>2026-03-23T08:13:45Z</time></trkpt><trkpt lat="31.578847227599493" lon="-4.409810583625318"><ele>876.6666666666667</ele><time>2026-03-23T08:13:46Z</time></trkpt><trkpt lat="31.57881228198808" lon="-4.409983791331152"><ele>876.0</ele><time>2026-03-23T08:13:47Z</time></trkpt><trkpt lat="31.578777328773487" lon="-4.410161209804877"><ele>876.0</ele><time>2026-03-23T08:13:48Z</time></trkpt><trkpt lat="31.578741859498177" lon="-4.410335333456043"><ele>876.0</ele><time>2026-03-23T08:13:49Z</time></trkpt><trkpt lat="31.57870450278563" lon="-4.41052173185405"><ele>876.0</ele><time>2026-03-23T08:13:50Z</time></trkpt><trkpt lat="31.578666556960854" lon="-4.410702586143555"><ele>877.0</ele><time>2026-03-23T08:13:51Z</time></trkpt><trkpt lat="31.5786253563687" lon="-4.410876213035583"><ele>878.0</ele><time>2026-03-23T08:13:52Z</time></trkpt><trkpt lat="31.578568291877154" lon="-4.411039465233323"><ele>879.0</ele><time>2026-03-23T08:13:53Z</time></trkpt><trkpt lat="31.578525370911624" lon="-4.411198460457907"><ele>880.0</ele><time>2026-03-23T08:13:54Z</time></trkpt><trkpt lat="31.578484019313155" lon="-4.4113503844673225"><ele>880.0</ele><time>2026-03-23T08:13:55Z</time></trkpt><trkpt lat="31.578445597971882" lon="-4.411503763061721"><ele>880.0</ele><time>2026-03-23T08:13:56Z</time></trkpt><trkpt lat="31.578414717321234" lon="-4.4116553813250174"><ele>880.0</ele><time>2026-03-23T08:13:57Z</time></trkpt><trkpt lat="31.578387716325796" lon="-4.411787951197136"><ele>880.0</ele><time>2026-03-23T08:13:58Z</time></trkpt><trkpt lat="31.578370866164665" lon="-4.4119169287143984"><ele>879.9999999999999</ele><time>2026-03-23T08:13:59Z</time></trkpt><trkpt lat="31.578359729174696" lon="-4.412025349820703"><ele>880.0</ele><time>2026-03-23T08:14:00Z</time></trkpt><trkpt lat="31.578349737551846" lon="-4.412122620437495"><ele>880.0</ele><time>2026-03-23T08:14:01Z</time></trkpt><trkpt lat="31.578340604793222" lon="-4.41221152992999"><ele>880.0</ele><time>2026-03-23T08:14:02Z</time></trkpt><trkpt lat="31.57834185826373" lon="-4.412315250909949"><ele>879.9999999999999</ele><time>2026-03-23T08:14:03Z</time></trkpt><trkpt lat="31.57834533203397" lon="-4.41239892493599"><ele>880.0</ele><time>2026-03-23T08:14:04Z</time></trkpt><trkpt lat="31.578349291795476" lon="-4.412492726995383"><ele>880.0</ele><time>2026-03-23T08:14:05Z</time></trkpt><trkpt lat="31.578353504554173" lon="-4.412583667546585"><ele>880.0</ele><time>2026-03-23T08:14:06Z</time></trkpt><trkpt lat="31.578376239704927" lon="-4.412700808162672"><ele>880.0</ele><time>2026-03-23T08:14:07Z</time></trkpt><trkpt lat="31.578399128146458" lon="-4.412823937497682"><ele>880.0</ele><time>2026-03-23T08:14:08Z</time></trkpt><trkpt lat="31.578426189825176" lon="-4.412969516949456"><ele>880.0</ele><time>2026-03-23T08:14:09Z</time></trkpt><trkpt lat="31.578484835164215" lon="-4.413107041238436"><ele>880.3333333333333</ele><time>2026-03-23T08:14:10Z</time></trkpt><trkpt lat="31.578524218241785" lon="-4.413205634590758"><ele>880.6666666666666</ele><time>2026-03-23T08:14:11Z</time></trkpt><trkpt lat="31.57855737089604" lon="-4.413275009327781"><ele>881.0</ele><time>2026-03-23T08:14:12Z</time></trkpt><trkpt lat="31.57860078617343" lon="-4.413373055745387"><ele>881.3333333333333</ele><time>2026-03-23T08:14:14Z</time></trkpt><trkpt lat="31.57865123080151" lon="-4.413480794083002"><ele>881.6666666666666</ele><time>2026-03-23T08:14:16Z</time></trkpt><trkpt lat="31.57866728792936" lon="-4.413573576502073"><ele>882.0</ele><time>2026-03-23T08:14:18Z</time></trkpt><trkpt lat="31.5784012944946" lon="-4.413729916209173"><ele>882.0</ele><time>2026-03-23T08:14:19Z</time></trkpt><trkpt lat="31.578322977594905" lon="-4.413788719618448"><ele>882.0</ele><time>2026-03-23T08:14:20Z</time></trkpt><trkpt lat="31.57823246481663" lon="-4.413840783718311"><ele>882.0</ele><time>2026-03-23T08:14:21Z</time></trkpt><trkpt lat="31.57817257371699" lon="-4.413877565346952"><ele>882.0</ele><time>2026-03-23T08:14:22Z</time></trkpt><trkpt lat="31.578081269020775" lon="-4.413948988740307"><ele>882.0</ele><time>2026-03-23T08:14:24Z</time></trkpt><trkpt lat="31.57798930793568" lon="-4.414014266068491"><ele>881.8</ele><time>2026-03-23T08:14:26Z</time></trkpt><trkpt lat="31.577884498634273" lon="-4.414043913041028"><ele>881.6</ele><time>2026-03-23T08:14:28Z</time></trkpt><trkpt lat="31.577777247879744" lon="-4.414115747845806"><ele>881.3999999999999</ele><time>2026-03-23T08:14:30Z</time></trkpt><trkpt lat="31.577730476134878" lon="-4.414171768911027"><ele>881.1999999999999</ele><time>2026-03-23T08:14:31Z</time></trkpt><trkpt lat="31.57763907574169" lon="-4.414242607530627"><ele>881.0</ele><time>2026-03-23T08:14:33Z</time></trkpt><trkpt lat="31.57756902798659" lon="-4.414229586997723"><ele>881.0</ele><time>2026-03-23T08:14:34Z</time></trkpt><trkpt lat="31.577476586697617" lon="-4.414205094745559"><ele>881.0</ele><time>2026-03-23T08:14:35Z</time></trkpt><trkpt lat="31.577362666040862" lon="-4.414178441768621"><ele>881.0</ele><time>2026-03-23T08:14:36Z</time></trkpt><trkpt lat="31.577219663479873" lon="-4.4141405670513185"><ele>881.0</ele><time>2026-03-23T08:14:37Z</time></trkpt><trkpt lat="31.57707811022002" lon="-4.414093676615431"><ele>880.8</ele><time>2026-03-23T08:14:38Z</time></trkpt><trkpt lat="31.576935893829468" lon="-4.414045842260197"><ele>880.5999999999999</ele><time>2026-03-23T08:14:39Z</time></trkpt><trkpt lat="31.576819966141326" lon="-4.414014011507151"><ele>880.4</ele><time>2026-03-23T08:14:40Z</time></trkpt><trkpt lat="31.57672435964874" lon="-4.413998729664735"><ele>880.2</ele><time>2026-03-23T08:14:41Z</time></trkpt><trkpt lat="31.57664145548961" lon="-4.413999538291356"><ele>880.0</ele><time>2026-03-23T08:14:42Z</time></trkpt><trkpt lat="31.576556651397862" lon="-4.4140070892644445"><ele>879.9999999999999</ele><time>2026-03-23T08:14:43Z</time></trkpt><trkpt lat="31.576475039729882" lon="-4.414018134483838"><ele>880.0</ele><time>2026-03-23T08:14:44Z</time></trkpt><trkpt lat="31.57639843638276" lon="-4.414019697591222"><ele>880.0</ele><time>2026-03-23T08:14:45Z</time></trkpt><trkpt lat="31.576318200039253" lon="-4.414024710784484"><ele>880.0</ele><time>2026-03-23T08:14:46Z</time></trkpt><trkpt lat="31.57624969172365" lon="-4.414036131134848"><ele>879.9999999999999</ele><time>2026-03-23T08:14:47Z</time></trkpt><trkpt lat="31.576179687551875" lon="-4.414074169107459"><ele>880.0</ele><time>2026-03-23T08:14:49Z</time></trkpt><trkpt lat="31.5760963570393" lon="-4.414068946567816"><ele>879.9999999999999</ele><time>2026-03-23T08:14:52Z</time></trkpt><trkpt lat="31.57609257760934" lon="-4.413957172867847"><ele>880.0</ele><time>2026-03-23T08:14:54Z</time></trkpt><trkpt lat="31.576190607026543" lon="-4.413944103518997"><ele>880.0</ele><time>2026-03-23T08:14:57Z</time></trkpt><trkpt lat="31.57626268005792" lon="-4.413965397947565"><ele>880.0</ele><time>2026-03-23T08:14:58Z</time></trkpt><trkpt lat="31.576333895565288" lon="-4.413978106924514"><ele>879.9999999999999</ele><time>2026-03-23T08:14:59Z</time></trkpt><trkpt lat="31.57640869804573" lon="-4.4139801652591935"><ele>880.0</ele><time>2026-03-23T08:15:00Z</time></trkpt><trkpt lat="31.576490724457326" lon="-4.4139759918929675"><ele>880.0</ele><time>2026-03-23T08:15:01Z</time></trkpt><trkpt lat="31.57657130734862" lon="-4.413976422353333"><ele>880.0</ele><time>2026-03-23T08:15:02Z</time></trkpt><trkpt lat="31.576682807818955" lon="-4.413976738135706"><ele>880.0</ele><time>2026-03-23T08:15:04Z</time></trkpt><trkpt lat="31.576801785580937" lon="-4.4139995862033805"><ele>880.0</ele><time>2026-03-23T08:15:06Z</time></trkpt><trkpt lat="31.576881851262065" lon="-4.414023343184048"><ele>880.0</ele><time>2026-03-23T08:15:07Z</time></trkpt><trkpt lat="31.57697298159676" lon="-4.414052359575915"><ele>880.25</ele><time>2026-03-23T08:15:08Z</time></trkpt><trkpt lat="31.577096164147488" lon="-4.414084165851423"><ele>880.5</ele><time>2026-03-23T08:15:09Z</time></trkpt><trkpt lat="31.577223647202707" lon="-4.4141190329413815"><ele>880.75</ele><time>2026-03-23T08:15:10Z</time></trkpt><trkpt lat="31.57736552905988" lon="-4.414165037136756"><ele>881.0</ele><time>2026-03-23T08:15:11Z</time></trkpt><trkpt lat="31.577499280562535" lon="-4.414213524295267"><ele>881.0</ele><time>2026-03-23T08:15:12Z</time></trkpt><trkpt lat="31.5776351953625" lon="-4.414260571358486"><ele>881.0</ele><time>2026-03-23T08:15:13Z</time></trkpt><trkpt lat="31.577755377969503" lon="-4.414300883006869"><ele>881.0</ele><time>2026-03-23T08:15:14Z</time></trkpt><trkpt lat="31.577869855133567" lon="-4.414340072433627"><ele>881.0</ele><time>2026-03-23T08:15:15Z</time></trkpt><trkpt lat="31.577993003808572" lon="-4.414375708100204"><ele>881.0</ele><time>2026-03-23T08:15:16Z</time></trkpt><trkpt lat="31.578102779386455" lon="-4.414412689256804"><ele>881.0</ele><time>2026-03-23T08:15:17Z</time></trkpt><trkpt lat="31.578197442786017" lon="-4.414458173891194"><ele>881.0</ele><time>2026-03-23T08:15:18Z</time></trkpt><trkpt lat="31.578294183183175" lon="-4.414530122415523"><ele>881.0</ele><time>2026-03-23T08:15:19Z</time></trkpt><trkpt lat="31.578386064202206" lon="-4.414626000396375"><ele>880.75</ele><time>2026-03-23T08:15:20Z</time></trkpt><trkpt lat="31.578479904589972" lon="-4.414735439022618"><ele>880.5</ele><time>2026-03-23T08:15:21Z</time></trkpt><trkpt lat="31.578579798338314" lon="-4.414852267034869"><ele>880.25</ele><time>2026-03-23T08:15:22Z</time></trkpt><trkpt lat="31.57868809058547" lon="-4.414970168516207"><ele>880.0</ele><time>2026-03-23T08:15:23Z</time></trkpt><trkpt lat="31.57880497301772" lon="-4.415088032161747"><ele>880.0</ele><time>2026-03-23T08:15:24Z</time></trkpt><trkpt lat="31.578934666370024" lon="-4.415202657327045"><ele>880.0</ele><time>2026-03-23T08:15:25Z</time></trkpt><trkpt lat="31.57905527599196" lon="-4.415303906260982"><ele>880.0</ele><time>2026-03-23T08:15:26Z</time></trkpt><trkpt lat="31.5791619324936" lon="-4.415398504999264"><ele>880.0</ele><time>2026-03-23T08:15:27Z</time></trkpt><trkpt lat="31.579269028545884" lon="-4.415491857403192"><ele>880.0</ele><time>2026-03-23T08:15:28Z</time></trkpt><trkpt lat="31.579374521513568" lon="-4.415585217670052"><ele>880.0</ele><time>2026-03-23T08:15:29Z</time></trkpt><trkpt lat="31.57948149209748" lon="-4.415696400658533"><ele>880.0</ele><time>2026-03-23T08:15:30Z</time></trkpt><trkpt lat="31.57959391646163" lon="-4.415828367085508"><ele>880.0</ele><time>2026-03-23T08:15:31Z</time></trkpt><trkpt lat="31.57971666660356" lon="-4.415974182960563"><ele>880.0</ele><time>2026-03-23T08:15:32Z</time></trkpt><trkpt lat="31.579831194671105" lon="-4.416134833431957"><ele>880.0</ele><time>2026-03-23T08:15:33Z</time></trkpt><trkpt lat="31.579943666858043" lon="-4.416311360894317"><ele>880.0</ele><time>2026-03-23T08:15:33.999Z</time></trkpt><trkpt lat="31.580042172789742" lon="-4.4164824374879945"><ele>880.3333333333333</ele><time>2026-03-23T08:15:34.999Z</time></trkpt><trkpt lat="31.580140670120194" lon="-4.416652225564399"><ele>880.6666666666667</ele><time>2026-03-23T08:15:35.999Z</time></trkpt><trkpt lat="31.58023595129159" lon="-4.416810647752867"><ele>881.0</ele><time>2026-03-23T08:15:36.999Z</time></trkpt><trkpt lat="31.580333524992884" lon="-4.416975976979954"><ele>880.6666666666667</ele><time>2026-03-23T08:15:37.999Z</time></trkpt><trkpt lat="31.580429339607477" lon="-4.4171401415035305"><ele>880.3333333333333</ele><time>2026-03-23T08:15:38.999Z</time></trkpt><trkpt lat="31.580549136625844" lon="-4.417308683311038"><ele>880.0</ele><time>2026-03-23T08:15:39.999Z</time></trkpt><trkpt lat="31.58066440572982" lon="-4.41750123721313"><ele>879.3333333333333</ele><time>2026-03-23T08:15:40.999Z</time></trkpt><trkpt lat="31.580785883940738" lon="-4.417689705214195"><ele>878.6666666666667</ele><time>2026-03-23T08:15:41.999Z</time></trkpt><trkpt lat="31.580897325925303" lon="-4.417859610684551"><ele>878.0</ele><time>2026-03-23T08:15:42.999Z</time></trkpt><trkpt lat="31.58100253233314" lon="-4.418026262130414"><ele>878.0</ele><time>2026-03-23T08:15:44Z</time></trkpt><trkpt lat="31.58110683085249" lon="-4.418197050233296"><ele>878.0</ele><time>2026-03-23T08:15:44.999Z</time></trkpt><trkpt lat="31.581212194266687" lon="-4.418368373922674"><ele>878.0</ele><time>2026-03-23T08:15:45.999Z</time></trkpt><trkpt lat="31.581318694363166" lon="-4.418538216256764"><ele>878.3333333333334</ele><time>2026-03-23T08:15:47Z</time></trkpt><trkpt lat="31.581432451019396" lon="-4.418719631012853"><ele>878.6666666666667</ele><time>2026-03-23T08:15:48Z</time></trkpt><trkpt lat="31.58154267653164" lon="-4.4188995596748155"><ele>879.0</ele><time>2026-03-23T08:15:49Z</time></trkpt><trkpt lat="31.581639098208" lon="-4.419059161423906"><ele>879.0</ele><time>2026-03-23T08:15:50Z</time></trkpt><trkpt lat="31.58174163941956" lon="-4.419255286171514"><ele>879.0</ele><time>2026-03-23T08:15:51Z</time></trkpt><trkpt lat="31.581824576259535" lon="-4.419418901216024"><ele>879.0</ele><time>2026-03-23T08:15:52Z</time></trkpt><trkpt lat="31.581907436509045" lon="-4.419582365146676"><ele>878.6666666666667</ele><time>2026-03-23T08:15:53Z</time></trkpt><trkpt lat="31.581993064230918" lon="-4.4197543818085725"><ele>878.3333333333334</ele><time>2026-03-23T08:15:54Z</time></trkpt><trkpt lat="31.582083464970612" lon="-4.419937480006913"><ele>878.0</ele><time>2026-03-23T08:15:55Z</time></trkpt><trkpt lat="31.582172034190766" lon="-4.4201168686056915"><ele>878.0</ele><time>2026-03-23T08:15:56Z</time></trkpt><trkpt lat="31.582266812558" lon="-4.420307586209201"><ele>878.0</ele><time>2026-03-23T08:15:57Z</time></trkpt><trkpt lat="31.582367531158543" lon="-4.420509513866246"><ele>878.0</ele><time>2026-03-23T08:15:58Z</time></trkpt><trkpt lat="31.582456068706044" lon="-4.420687737162912"><ele>878.3333333333334</ele><time>2026-03-23T08:15:59Z</time></trkpt><trkpt lat="31.582547316407908" lon="-4.420871415919787"><ele>878.6666666666667</ele><time>2026-03-23T08:16:00Z</time></trkpt><trkpt lat="31.582639148182942" lon="-4.4210612803805684"><ele>879.0</ele><time>2026-03-23T08:16:01Z</time></trkpt><trkpt lat="31.582735395005205" lon="-4.4212601808747705"><ele>879.0</ele><time>2026-03-23T08:16:02Z</time></trkpt><trkpt lat="31.58283181003154" lon="-4.421458084328628"><ele>879.0</ele><time>2026-03-23T08:16:03Z</time></trkpt><trkpt lat="31.582934412166118" lon="-4.421662760341463"><ele>879.0</ele><time>2026-03-23T08:16:04Z</time></trkpt><trkpt lat="31.58303006257768" lon="-4.421855457519445"><ele>879.0</ele><time>2026-03-23T08:16:05Z</time></trkpt><trkpt lat="31.583122616660035" lon="-4.422048113669206"><ele>879.0</ele><time>2026-03-23T08:16:06Z</time></trkpt><trkpt lat="31.583213511364445" lon="-4.422252658741169"><ele>879.0</ele><time>2026-03-23T08:16:07Z</time></trkpt><trkpt lat="31.583292357320058" lon="-4.422440541347415"><ele>878.6666666666667</ele><time>2026-03-23T08:16:08Z</time></trkpt><trkpt lat="31.58335808171149" lon="-4.422688515773942"><ele>878.3333333333334</ele><time>2026-03-23T08:16:09Z</time></trkpt><trkpt lat="31.583400595320935" lon="-4.422870461093878"><ele>878.0</ele><time>2026-03-23T08:16:10Z</time></trkpt><trkpt lat="31.583442810365717" lon="-4.423062561807187"><ele>877.6666666666667</ele><time>2026-03-23T08:16:11Z</time></trkpt><trkpt lat="31.58347482633243" lon="-4.423292315311243"><ele>877.3333333333333</ele><time>2026-03-23T08:16:12Z</time></trkpt><trkpt lat="31.583495571742393" lon="-4.423500056283986"><ele>877.0</ele><time>2026-03-23T08:16:13Z</time></trkpt><trkpt lat="31.583518892280654" lon="-4.423702962803821"><ele>877.0</ele><time>2026-03-23T08:16:14Z</time></trkpt><trkpt lat="31.583533357913893" lon="-4.4239289480886965"><ele>877.0</ele><time>2026-03-23T08:16:15Z</time></trkpt><trkpt lat="31.58360332260215" lon="-4.424128585934277"><ele>877.0</ele><time>2026-03-23T08:16:16Z</time></trkpt><trkpt lat="31.583671337529914" lon="-4.424324490175155"><ele>877.0</ele><time>2026-03-23T08:16:17Z</time></trkpt><trkpt lat="31.583786815727677" lon="-4.42447617658935"><ele>877.0</ele><time>2026-03-23T08:16:18Z</time></trkpt><trkpt lat="31.58390235295963" lon="-4.42462327114749"><ele>877.0</ele><time>2026-03-23T08:16:19Z</time></trkpt><trkpt lat="31.584018871201287" lon="-4.424771614749348"><ele>877.0</ele><time>2026-03-23T08:16:20Z</time></trkpt><trkpt lat="31.584138672735975" lon="-4.424927779846546"><ele>877.0</ele><time>2026-03-23T08:16:21Z</time></trkpt><trkpt lat="31.584250621452725" lon="-4.425078813120846"><ele>877.0</ele><time>2026-03-23T08:16:22Z</time></trkpt><trkpt lat="31.5843761297394" lon="-4.425244994248669"><ele>877.0</ele><time>2026-03-23T08:16:23Z</time></trkpt><trkpt lat="31.584491706984448" lon="-4.425396949130141"><ele>877.0</ele><time>2026-03-23T08:16:24Z</time></trkpt><trkpt lat="31.584616099723387" lon="-4.425563006563799"><ele>877.0</ele><time>2026-03-23T08:16:25Z</time></trkpt><trkpt lat="31.58475550122518" lon="-4.425750927376014"><ele>877.0</ele><time>2026-03-23T08:16:26Z</time></trkpt><trkpt lat="31.58488328214471" lon="-4.425934633922444"><ele>877.0</ele><time>2026-03-23T08:16:27Z</time></trkpt><trkpt lat="31.585019284972613" lon="-4.426129740976703"><ele>877.0</ele><time>2026-03-23T08:16:28Z</time></trkpt><trkpt lat="31.585175838247974" lon="-4.426419600587491"><ele>877.0</ele><time>2026-03-23T08:16:29Z</time></trkpt><trkpt lat="31.585254900712673" lon="-4.426607530423505"><ele>877.0</ele><time>2026-03-23T08:16:30Z</time></trkpt><trkpt lat="31.58533240563193" lon="-4.4267875661852925"><ele>877.0</ele><time>2026-03-23T08:16:31Z</time></trkpt><trkpt lat="31.585417945592003" lon="-4.426979492673686"><ele>876.6666666666666</ele><time>2026-03-23T08:16:32Z</time></trkpt><trkpt lat="31.585517736029217" lon="-4.4272381932247775"><ele>876.3333333333333</ele><time>2026-03-23T08:16:33Z</time></trkpt><trkpt lat="31.585583232608194" lon="-4.427439453163707"><ele>876.0</ele><time>2026-03-23T08:16:34Z</time></trkpt><trkpt lat="31.585645264267807" lon="-4.427632800940207"><ele>876.0</ele><time>2026-03-23T08:16:35Z</time></trkpt><trkpt lat="31.585696904248156" lon="-4.427807812218896"><ele>876.0</ele><time>2026-03-23T08:16:36Z</time></trkpt><trkpt lat="31.585759538386466" lon="-4.428035602236272"><ele>876.0</ele><time>2026-03-23T08:16:37Z</time></trkpt><trkpt lat="31.58580735756375" lon="-4.428247764320512"><ele>876.0</ele><time>2026-03-23T08:16:38Z</time></trkpt><trkpt lat="31.58585612213139" lon="-4.42850277077801"><ele>876.0</ele><time>2026-03-23T08:16:39Z</time></trkpt><trkpt lat="31.5858857365808" lon="-4.428695172855697"><ele>876.0</ele><time>2026-03-23T08:16:40Z</time></trkpt><trkpt lat="31.585927962139106" lon="-4.428888276572405"><ele>876.0</ele><time>2026-03-23T08:16:41Z</time></trkpt><trkpt lat="31.586026158471224" lon="-4.429112488645955"><ele>876.0</ele><time>2026-03-23T08:16:42Z</time></trkpt><trkpt lat="31.586108922757983" lon="-4.429301464872988"><ele>876.0</ele><time>2026-03-23T08:16:43Z</time></trkpt><trkpt lat="31.58618968217281" lon="-4.429472934013182"><ele>876.6666666666667</ele><time>2026-03-23T08:16:44Z</time></trkpt><trkpt lat="31.586266803515436" lon="-4.429642936825361"><ele>877.3333333333334</ele><time>2026-03-23T08:16:45Z</time></trkpt><trkpt lat="31.586362725723873" lon="-4.4298066143661465"><ele>878.0</ele><time>2026-03-23T08:16:46Z</time></trkpt><trkpt lat="31.586453591003444" lon="-4.429961663218363"><ele>878.0</ele><time>2026-03-23T08:16:47Z</time></trkpt><trkpt lat="31.586530211647887" lon="-4.430111986088539"><ele>878.0</ele><time>2026-03-23T08:16:48Z</time></trkpt><trkpt lat="31.586636792083024" lon="-4.430253209393485"><ele>878.0</ele><time>2026-03-23T08:16:49Z</time></trkpt><trkpt lat="31.586757249771455" lon="-4.430417030733469"><ele>877.6666666666667</ele><time>2026-03-23T08:16:50Z</time></trkpt><trkpt lat="31.58686970124951" lon="-4.430589413196884"><ele>877.3333333333333</ele><time>2026-03-23T08:16:51Z</time></trkpt><trkpt lat="31.58699847206815" lon="-4.4307608513634245"><ele>877.0</ele><time>2026-03-23T08:16:52Z</time></trkpt><trkpt lat="31.587114516952997" lon="-4.430943498080466"><ele>877.0</ele><time>2026-03-23T08:16:53Z</time></trkpt><trkpt lat="31.587210327778365" lon="-4.4311138521992985"><ele>877.0</ele><time>2026-03-23T08:16:54Z</time></trkpt><trkpt lat="31.58730608689422" lon="-4.431290329139566"><ele>877.0</ele><time>2026-03-23T08:16:55Z</time></trkpt><trkpt lat="31.587391845392506" lon="-4.431479754450067"><ele>877.0</ele><time>2026-03-23T08:16:56Z</time></trkpt><trkpt lat="31.587473544045192" lon="-4.431669250319937"><ele>877.0</ele><time>2026-03-23T08:16:57Z</time></trkpt><trkpt lat="31.58755351689675" lon="-4.4318613930752155"><ele>877.0</ele><time>2026-03-23T08:16:58Z</time></trkpt><trkpt lat="31.587636414320396" lon="-4.432058115035958"><ele>877.3333333333333</ele><time>2026-03-23T08:16:59Z</time></trkpt><trkpt lat="31.587723215021917" lon="-4.432246976350741"><ele>877.6666666666667</ele><time>2026-03-23T08:17:00Z</time></trkpt><trkpt lat="31.587810692368077" lon="-4.432442460239685"><ele>878.0</ele><time>2026-03-23T08:17:01Z</time></trkpt><trkpt lat="31.587885743669915" lon="-4.432621195205947"><ele>878.0</ele><time>2026-03-23T08:17:02Z</time></trkpt><trkpt lat="31.587964520464926" lon="-4.432809819564483"><ele>878.0</ele><time>2026-03-23T08:17:03Z</time></trkpt><trkpt lat="31.587940425308833" lon="-4.433065106656442"><ele>878.0</ele><time>2026-03-23T08:17:04Z</time></trkpt><trkpt lat="31.587950916378286" lon="-4.4332560367525895"><ele>877.6666666666667</ele><time>2026-03-23T08:17:05Z</time></trkpt><trkpt lat="31.587959106861767" lon="-4.433470521224593"><ele>877.3333333333333</ele><time>2026-03-23T08:17:06Z</time></trkpt><trkpt lat="31.587964102015317" lon="-4.433669286845356"><ele>877.0</ele><time>2026-03-23T08:17:07Z</time></trkpt><trkpt lat="31.58796846794202" lon="-4.433893250833303"><ele>876.3333333333333</ele><time>2026-03-23T08:17:08Z</time></trkpt><trkpt lat="31.58797284150949" lon="-4.4341176062775745"><ele>875.6666666666667</ele><time>2026-03-23T08:17:09Z</time></trkpt><trkpt lat="31.588000233935027" lon="-4.434339985086503"><ele>875.0</ele><time>2026-03-23T08:17:10Z</time></trkpt><trkpt lat="31.588498015318415" lon="-4.43454472746094"><ele>875.6666666666667</ele><time>2026-03-23T08:17:11Z</time></trkpt><trkpt lat="31.588557347214678" lon="-4.434766493145759"><ele>876.3333333333333</ele><time>2026-03-23T08:17:12Z</time></trkpt><trkpt lat="31.588619240268756" lon="-4.4349760280515085"><ele>877.0</ele><time>2026-03-23T08:17:13Z</time></trkpt><trkpt lat="31.588682885035634" lon="-4.435182002562423"><ele>877.0</ele><time>2026-03-23T08:17:14Z</time></trkpt><trkpt lat="31.588757217916942" lon="-4.43539631246222"><ele>877.0</ele><time>2026-03-23T08:17:15Z</time></trkpt><trkpt lat="31.588832789022895" lon="-4.435599323127634"><ele>877.0</ele><time>2026-03-23T08:17:16Z</time></trkpt><trkpt lat="31.588913059379514" lon="-4.435803480759794"><ele>876.6666666666666</ele><time>2026-03-23T08:17:17Z</time></trkpt><trkpt lat="31.588994940264346" lon="-4.436000342735946"><ele>876.3333333333333</ele><time>2026-03-23T08:17:18Z</time></trkpt><trkpt lat="31.589082568056654" lon="-4.4362020933149955"><ele>876.0</ele><time>2026-03-23T08:17:19Z</time></trkpt><trkpt lat="31.589169008357437" lon="-4.436397664054454"><ele>875.6666666666667</ele><time>2026-03-23T08:17:20Z</time></trkpt><trkpt lat="31.589246674345983" lon="-4.436592723885024"><ele>875.3333333333334</ele><time>2026-03-23T08:17:21Z</time></trkpt><trkpt lat="31.5893156640412" lon="-4.436780491463076"><ele>875.0</ele><time>2026-03-23T08:17:22Z</time></trkpt><trkpt lat="31.58937612579019" lon="-4.4369479409289685"><ele>875.0</ele><time>2026-03-23T08:17:23Z</time></trkpt><trkpt lat="31.589430159279587" lon="-4.437091021073236"><ele>875.0</ele><time>2026-03-23T08:17:24Z</time></trkpt><trkpt lat="31.589488554696274" lon="-4.437229415209126"><ele>875.0</ele><time>2026-03-23T08:17:25Z</time></trkpt><trkpt lat="31.589525109660602" lon="-4.437354564104555"><ele>875.0</ele><time>2026-03-23T08:17:26Z</time></trkpt><trkpt lat="31.589537218440167" lon="-4.4374748727739615"><ele>875.0</ele><time>2026-03-23T08:17:27Z</time></trkpt><trkpt lat="31.58953136849789" lon="-4.437595493238517"><ele>875.0</ele><time>2026-03-23T08:17:28Z</time></trkpt><trkpt lat="31.589519677577133" lon="-4.437734393854399"><ele>875.0</ele><time>2026-03-23T08:17:29Z</time></trkpt><trkpt lat="31.589501061047674" lon="-4.43787368637607"><ele>875.0</ele><time>2026-03-23T08:17:30Z</time></trkpt><trkpt lat="31.58947109150816" lon="-4.437998986658944"><ele>875.2</ele><time>2026-03-23T08:17:31Z</time></trkpt><trkpt lat="31.58943936807046" lon="-4.438112029639242"><ele>875.4</ele><time>2026-03-23T08:17:32Z</time></trkpt><trkpt lat="31.589405122227568" lon="-4.438211724024221"><ele>875.5999999999999</ele><time>2026-03-23T08:17:33Z</time></trkpt><trkpt lat="31.589366692865823" lon="-4.438331028752985"><ele>875.8</ele><time>2026-03-23T08:17:34Z</time></trkpt><trkpt lat="31.589326570446033" lon="-4.438481581545219"><ele>876.0</ele><time>2026-03-23T08:17:35Z</time></trkpt><trkpt lat="31.589286135721103" lon="-4.438642536125827"><ele>875.6666666666667</ele><time>2026-03-23T08:17:36Z</time></trkpt><trkpt lat="31.58924415226064" lon="-4.438809167049258"><ele>875.3333333333334</ele><time>2026-03-23T08:17:37Z</time></trkpt><trkpt lat="31.58919745906945" lon="-4.438979787027734"><ele>875.0</ele><time>2026-03-23T08:17:38Z</time></trkpt><trkpt lat="31.58914959270479" lon="-4.439158087249978"><ele>875.0</ele><time>2026-03-23T08:17:38.999Z</time></trkpt><trkpt lat="31.58910697372762" lon="-4.439316288554231"><ele>875.0</ele><time>2026-03-23T08:17:39.999Z</time></trkpt><trkpt lat="31.58905804223202" lon="-4.439475954208647"><ele>875.0</ele><time>2026-03-23T08:17:40.999Z</time></trkpt><trkpt lat="31.588999338037652" lon="-4.439635859342702"><ele>875.0</ele><time>2026-03-23T08:17:41.999Z</time></trkpt><trkpt lat="31.588941989958336" lon="-4.439770772083074"><ele>875.25</ele><time>2026-03-23T08:17:42.999Z</time></trkpt><trkpt lat="31.58888484501672" lon="-4.439913782161309"><ele>875.5</ele><time>2026-03-23T08:17:43.999Z</time></trkpt><trkpt lat="31.58883250647999" lon="-4.4400649686478175"><ele>875.75</ele><time>2026-03-23T08:17:44.999Z</time></trkpt><trkpt lat="31.588782557140945" lon="-4.440229601193884"><ele>876.0</ele><time>2026-03-23T08:17:45.999Z</time></trkpt><trkpt lat="31.588742510543153" lon="-4.4404051132669515"><ele>876.25</ele><time>2026-03-23T08:17:46.999Z</time></trkpt><trkpt lat="31.588716591973398" lon="-4.440575309037963"><ele>876.5</ele><time>2026-03-23T08:17:47.999Z</time></trkpt><trkpt lat="31.588708608889497" lon="-4.440741938134229"><ele>876.75</ele><time>2026-03-23T08:17:48.999Z</time></trkpt><trkpt lat="31.58871201393111" lon="-4.440891042303306"><ele>877.0</ele><time>2026-03-23T08:17:49.999Z</time></trkpt><trkpt lat="31.588724536799177" lon="-4.441051903920689"><ele>877.0</ele><time>2026-03-23T08:17:50.999Z</time></trkpt><trkpt lat="31.588745201061634" lon="-4.441219462058577"><ele>877.0</ele><time>2026-03-23T08:17:51.999Z</time></trkpt><trkpt lat="31.588839533478712" lon="-4.441396586271148"><ele>877.0</ele><time>2026-03-23T08:17:52.999Z</time></trkpt><trkpt lat="31.588862474575382" lon="-4.4415925893352695"><ele>877.0</ele><time>2026-03-23T08:17:53.999Z</time></trkpt><trkpt lat="31.58888433825992" lon="-4.441779463545921"><ele>877.0</ele><time>2026-03-23T08:17:55Z</time></trkpt><trkpt lat="31.588910182092157" lon="-4.441970899825445"><ele>877.0</ele><time>2026-03-23T08:17:56Z</time></trkpt><trkpt lat="31.588951048056817" lon="-4.442158890843436"><ele>875.3333333333333</ele><time>2026-03-23T08:17:57Z</time></trkpt><trkpt lat="31.589010616825785" lon="-4.442359108474856"><ele>873.6666666666667</ele><time>2026-03-23T08:17:58Z</time></trkpt><trkpt lat="31.589070052053255" lon="-4.442558876853829"><ele>872.0</ele><time>2026-03-23T08:17:59Z</time></trkpt><trkpt lat="31.589129475909605" lon="-4.442768943329375"><ele>872.0</ele><time>2026-03-23T08:18:00Z</time></trkpt><trkpt lat="31.58916957869129" lon="-4.442972733246995"><ele>872.0</ele><time>2026-03-23T08:18:01Z</time></trkpt><trkpt lat="31.589212563508926" lon="-4.443177494762106"><ele>872.0</ele><time>2026-03-23T08:18:02Z</time></trkpt><trkpt lat="31.589254871418806" lon="-4.443406178770098"><ele>872.0</ele><time>2026-03-23T08:18:03Z</time></trkpt><trkpt lat="31.589299692330304" lon="-4.443628139996871"><ele>872.0</ele><time>2026-03-23T08:18:04Z</time></trkpt><trkpt lat="31.589359338950494" lon="-4.4438091887567195"><ele>872.0</ele><time>2026-03-23T08:18:05Z</time></trkpt><trkpt lat="31.589401347015976" lon="-4.443985712941402"><ele>872.0</ele><time>2026-03-23T08:18:06Z</time></trkpt><trkpt lat="31.58947342574996" lon="-4.444136239887747"><ele>872.0</ele><time>2026-03-23T08:18:07Z</time></trkpt><trkpt lat="31.589563818089772" lon="-4.444309182549103"><ele>872.0</ele><time>2026-03-23T08:18:08Z</time></trkpt><trkpt lat="31.589640738716263" lon="-4.444465241752827"><ele>872.5</ele><time>2026-03-23T08:18:09Z</time></trkpt><trkpt lat="31.58973280867539" lon="-4.4445979454655165"><ele>873.0</ele><time>2026-03-23T08:18:10Z</time></trkpt><trkpt lat="31.58981164486605" lon="-4.44473372421861"><ele>873.5</ele><time>2026-03-23T08:18:11Z</time></trkpt><trkpt lat="31.589892369947904" lon="-4.444891488863948"><ele>874.0</ele><time>2026-03-23T08:18:12Z</time></trkpt><trkpt lat="31.590005428562524" lon="-4.445043225541363"><ele>874.0</ele><time>2026-03-23T08:18:13Z</time></trkpt><trkpt lat="31.590115087761234" lon="-4.445208085485898"><ele>874.0</ele><time>2026-03-23T08:18:14Z</time></trkpt><trkpt lat="31.59022844862804" lon="-4.4453839702535785"><ele>874.0</ele><time>2026-03-23T08:18:15Z</time></trkpt><trkpt lat="31.59032960221546" lon="-4.44554645409973"><ele>874.3333333333333</ele><time>2026-03-23T08:18:16Z</time></trkpt><trkpt lat="31.590424759479134" lon="-4.445698147080613"><ele>874.6666666666667</ele><time>2026-03-23T08:18:17Z</time></trkpt><trkpt lat="31.590518506242045" lon="-4.445855350755825"><ele>875.0</ele><time>2026-03-23T08:18:18Z</time></trkpt><trkpt lat="31.590616174811263" lon="-4.446013727857571"><ele>875.0</ele><time>2026-03-23T08:18:19Z</time></trkpt><trkpt lat="31.59071907784253" lon="-4.446177448979924"><ele>875.0</ele><time>2026-03-23T08:18:20Z</time></trkpt><trkpt lat="31.590816541813737" lon="-4.446349991983877"><ele>875.0</ele><time>2026-03-23T08:18:21Z</time></trkpt><trkpt lat="31.590911989437785" lon="-4.446512919946739"><ele>875.3333333333334</ele><time>2026-03-23T08:18:22Z</time></trkpt><trkpt lat="31.591006998110814" lon="-4.4466726531201175"><ele>875.6666666666667</ele><time>2026-03-23T08:18:23Z</time></trkpt><trkpt lat="31.59110132242261" lon="-4.4468453588063985"><ele>876.0</ele><time>2026-03-23T08:18:24Z</time></trkpt><trkpt lat="31.591203812253234" lon="-4.447025015760076"><ele>875.3333333333333</ele><time>2026-03-23T08:18:25Z</time></trkpt><trkpt lat="31.591302024296972" lon="-4.447211754575506"><ele>874.6666666666666</ele><time>2026-03-23T08:18:26Z</time></trkpt><trkpt lat="31.59142429302572" lon="-4.4473829641477325"><ele>874.0</ele><time>2026-03-23T08:18:27Z</time></trkpt><trkpt lat="31.59153250658211" lon="-4.447551790363581"><ele>874.0</ele><time>2026-03-23T08:18:28Z</time></trkpt><trkpt lat="31.591633385133157" lon="-4.447705783789661"><ele>874.0</ele><time>2026-03-23T08:18:29Z</time></trkpt><trkpt lat="31.59174073213105" lon="-4.4478682048670315"><ele>874.0</ele><time>2026-03-23T08:18:30Z</time></trkpt><trkpt lat="31.591848004906886" lon="-4.448029950435412"><ele>874.0</ele><time>2026-03-23T08:18:31Z</time></trkpt><trkpt lat="31.591950660053637" lon="-4.448183680980137"><ele>874.0</ele><time>2026-03-23T08:18:32Z</time></trkpt><trkpt lat="31.592056617397642" lon="-4.448350796299332"><ele>874.0</ele><time>2026-03-23T08:18:33Z</time></trkpt><trkpt lat="31.59214927905042" lon="-4.448527743756693"><ele>873.3333333333333</ele><time>2026-03-23T08:18:34Z</time></trkpt><trkpt lat="31.592249578849287" lon="-4.448735643186506"><ele>872.6666666666667</ele><time>2026-03-23T08:18:35Z</time></trkpt><trkpt lat="31.59233897407018" lon="-4.448926606570293"><ele>872.0</ele><time>2026-03-23T08:18:36Z</time></trkpt><trkpt lat="31.592426206838454" lon="-4.4490811793587195"><ele>872.0</ele><time>2026-03-23T08:18:37Z</time></trkpt><trkpt lat="31.59252751384669" lon="-4.449288871260949"><ele>872.0</ele><time>2026-03-23T08:18:38Z</time></trkpt><trkpt lat="31.59259774763797" lon="-4.4494685404304235"><ele>872.0</ele><time>2026-03-23T08:18:39Z</time></trkpt><trkpt lat="31.592655944559226" lon="-4.4496295439282045"><ele>871.5</ele><time>2026-03-23T08:18:40Z</time></trkpt><trkpt lat="31.592695524089777" lon="-4.449808294438076"><ele>871.0</ele><time>2026-03-23T08:18:41Z</time></trkpt><trkpt lat="31.59270463470799" lon="-4.449963029892191"><ele>870.5</ele><time>2026-03-23T08:18:42Z</time></trkpt><trkpt lat="31.592713333028453" lon="-4.450066099236261"><ele>870.0</ele><time>2026-03-23T08:18:43Z</time></trkpt><trkpt lat="31.592725532889343" lon="-4.45017584681662"><ele>870.0</ele><time>2026-03-23T08:18:44Z</time></trkpt><trkpt lat="31.592739476319615" lon="-4.450301208159252"><ele>870.0</ele><time>2026-03-23T08:18:45Z</time></trkpt><trkpt lat="31.592756585609862" lon="-4.450460191388461"><ele>870.0</ele><time>2026-03-23T08:18:46Z</time></trkpt><trkpt lat="31.592758126781423" lon="-4.450594382857428"><ele>870.0</ele><time>2026-03-23T08:18:47Z</time></trkpt><trkpt lat="31.592787430240797" lon="-4.450739618653489"><ele>869.6</ele><time>2026-03-23T08:18:48Z</time></trkpt><trkpt lat="31.59279591167491" lon="-4.450863000767888"><ele>869.2</ele><time>2026-03-23T08:18:49Z</time></trkpt><trkpt lat="31.592808236593307" lon="-4.450978431765525"><ele>868.8</ele><time>2026-03-23T08:18:50Z</time></trkpt><trkpt lat="31.592818737045157" lon="-4.451084466521791"><ele>868.4</ele><time>2026-03-23T08:18:51Z</time></trkpt><trkpt lat="31.59283887507113" lon="-4.451160724820065"><ele>868.0</ele><time>2026-03-23T08:18:52Z</time></trkpt><trkpt lat="31.592832424251405" lon="-4.451285166105736"><ele>868.5</ele><time>2026-03-23T08:18:53Z</time></trkpt><trkpt lat="31.592855266913354" lon="-4.451424175720735"><ele>869.0</ele><time>2026-03-23T08:18:54Z</time></trkpt><trkpt lat="31.59288002104478" lon="-4.451567988013304"><ele>869.5</ele><time>2026-03-23T08:18:55Z</time></trkpt><trkpt lat="31.592903261971237" lon="-4.4517048598434465"><ele>870.0</ele><time>2026-03-23T08:18:56Z</time></trkpt><trkpt lat="31.59293647363601" lon="-4.451901722084574"><ele>870.0</ele><time>2026-03-23T08:18:57Z</time></trkpt><trkpt lat="31.592968261201655" lon="-4.452090143010489"><ele>870.0</ele><time>2026-03-23T08:18:58Z</time></trkpt><trkpt lat="31.59300168882577" lon="-4.452254986907126"><ele>870.0</ele><time>2026-03-23T08:18:59Z</time></trkpt><trkpt lat="31.59303612302511" lon="-4.452420431452988"><ele>870.0</ele><time>2026-03-23T08:19:00Z</time></trkpt><trkpt lat="31.59306415319541" lon="-4.452615956047419"><ele>870.0</ele><time>2026-03-23T08:19:01Z</time></trkpt><trkpt lat="31.59308050572037" lon="-4.452803090298166"><ele>870.0</ele><time>2026-03-23T08:19:02Z</time></trkpt><trkpt lat="31.593094681379867" lon="-4.452992056844459"><ele>870.6666666666667</ele><time>2026-03-23T08:19:03Z</time></trkpt><trkpt lat="31.59310745698243" lon="-4.45318803909292"><ele>871.3333333333334</ele><time>2026-03-23T08:19:04Z</time></trkpt><trkpt lat="31.593120526957996" lon="-4.453395123877815"><ele>872.0</ele><time>2026-03-23T08:19:05Z</time></trkpt><trkpt lat="31.593134069678122" lon="-4.4536193924482586"><ele>871.3333333333334</ele><time>2026-03-23T08:19:06Z</time></trkpt><trkpt lat="31.593163646917628" lon="-4.453830798801382"><ele>870.6666666666667</ele><time>2026-03-23T08:19:07Z</time></trkpt><trkpt lat="31.593199908816423" lon="-4.454037191594351"><ele>870.0</ele><time>2026-03-23T08:19:08Z</time></trkpt><trkpt lat="31.593234773516254" lon="-4.4542360247003705"><ele>870.0</ele><time>2026-03-23T08:19:09Z</time></trkpt><trkpt lat="31.593286733569517" lon="-4.454402452724713"><ele>870.0</ele><time>2026-03-23T08:19:10Z</time></trkpt><trkpt lat="31.593350049170592" lon="-4.454593539300821"><ele>870.0</ele><time>2026-03-23T08:19:11Z</time></trkpt><trkpt lat="31.593414877437944" lon="-4.454789191121078"><ele>869.6666666666667</ele><time>2026-03-23T08:19:12Z</time></trkpt><trkpt lat="31.593484157361143" lon="-4.4549792385762705"><ele>869.3333333333334</ele><time>2026-03-23T08:19:13Z</time></trkpt><trkpt lat="31.593554945188664" lon="-4.45517443734979"><ele>869.0</ele><time>2026-03-23T08:19:14Z</time></trkpt><trkpt lat="31.593626236306466" lon="-4.455371024093726"><ele>869.0</ele><time>2026-03-23T08:19:15Z</time></trkpt><trkpt lat="31.59369956646793" lon="-4.45557496197853"><ele>869.0</ele><time>2026-03-23T08:19:16Z</time></trkpt><trkpt lat="31.59377083965582" lon="-4.455764104264963"><ele>869.0</ele><time>2026-03-23T08:19:17Z</time></trkpt><trkpt lat="31.59383961208262" lon="-4.455945037723119"><ele>869.0</ele><time>2026-03-23T08:19:18Z</time></trkpt><trkpt lat="31.59390674640469" lon="-4.456121661538078"><ele>869.0</ele><time>2026-03-23T08:19:19Z</time></trkpt><trkpt lat="31.593971804352417" lon="-4.456313685988671"><ele>869.0</ele><time>2026-03-23T08:19:20Z</time></trkpt><trkpt lat="31.594023900492715" lon="-4.456490950412567"><ele>868.6666666666667</ele><time>2026-03-23T08:19:21Z</time></trkpt><trkpt lat="31.59407446984919" lon="-4.456680251329526"><ele>868.3333333333333</ele><time>2026-03-23T08:19:22Z</time></trkpt><trkpt lat="31.59411187551994" lon="-4.456847204976531"><ele>868.0</ele><time>2026-03-23T08:19:23Z</time></trkpt><trkpt lat="31.594149891958097" lon="-4.457014535257427"><ele>867.75</ele><time>2026-03-23T08:19:24Z</time></trkpt><trkpt lat="31.594190162738265" lon="-4.457189781832798"><ele>867.5</ele><time>2026-03-23T08:19:25Z</time></trkpt><trkpt lat="31.594231888873033" lon="-4.457366611761906"><ele>867.25</ele><time>2026-03-23T08:19:26Z</time></trkpt><trkpt lat="31.59426870197422" lon="-4.4575227252572835"><ele>867.0</ele><time>2026-03-23T08:19:27Z</time></trkpt><trkpt lat="31.594305540636732" lon="-4.45767738599336"><ele>867.0</ele><time>2026-03-23T08:19:28Z</time></trkpt><trkpt lat="31.59436547058304" lon="-4.457856407868213"><ele>867.0</ele><time>2026-03-23T08:19:29Z</time></trkpt><trkpt lat="31.59442902970419" lon="-4.458047274977766"><ele>867.0</ele><time>2026-03-23T08:19:30Z</time></trkpt><trkpt lat="31.59448741181756" lon="-4.458264780231609"><ele>866.6666666666667</ele><time>2026-03-23T08:19:31Z</time></trkpt><trkpt lat="31.594531977663408" lon="-4.458482344008834"><ele>866.3333333333334</ele><time>2026-03-23T08:19:32Z</time></trkpt><trkpt lat="31.594562665234072" lon="-4.458696531365759"><ele>866.0</ele><time>2026-03-23T08:19:33Z</time></trkpt><trkpt lat="31.59461817485056" lon="-4.458895370858467"><ele>866.0</ele><time>2026-03-23T08:19:34Z</time></trkpt><trkpt lat="31.59465820427334" lon="-4.459070382461735"><ele>866.0</ele><time>2026-03-23T08:19:35Z</time></trkpt><trkpt lat="31.594691571443427" lon="-4.459242338482075"><ele>866.0</ele><time>2026-03-23T08:19:36Z</time></trkpt><trkpt lat="31.59473996158455" lon="-4.459421835257173"><ele>866.0</ele><time>2026-03-23T08:19:37Z</time></trkpt><trkpt lat="31.594789706360668" lon="-4.459598659828955"><ele>866.0</ele><time>2026-03-23T08:19:38Z</time></trkpt><trkpt lat="31.594824400512127" lon="-4.459745074683368"><ele>866.0</ele><time>2026-03-23T08:19:39Z</time></trkpt><trkpt lat="31.594839105838854" lon="-4.459892985446766"><ele>866.0</ele><time>2026-03-23T08:19:40Z</time></trkpt><trkpt lat="31.594881992042016" lon="-4.460048531700988"><ele>865.75</ele><time>2026-03-23T08:19:41Z</time></trkpt><trkpt lat="31.59491291123236" lon="-4.460213937715195"><ele>865.5</ele><time>2026-03-23T08:19:42Z</time></trkpt><trkpt lat="31.59494655425271" lon="-4.460391908415421"><ele>865.25</ele><time>2026-03-23T08:19:43Z</time></trkpt><trkpt lat="31.594972525013283" lon="-4.460556703850272"><ele>865.0</ele><time>2026-03-23T08:19:44Z</time></trkpt><trkpt lat="31.594993175345515" lon="-4.460701676658589"><ele>864.9999999999999</ele><time>2026-03-23T08:19:45Z</time></trkpt><trkpt lat="31.59501265237443" lon="-4.4608236119777445"><ele>865.0</ele><time>2026-03-23T08:19:46Z</time></trkpt><trkpt lat="31.595036130746358" lon="-4.460938024336711"><ele>865.0</ele><time>2026-03-23T08:19:47Z</time></trkpt><trkpt lat="31.595054774361245" lon="-4.461032277088602"><ele>865.0</ele><time>2026-03-23T08:19:48Z</time></trkpt><trkpt lat="31.595067856500012" lon="-4.461109209251584"><ele>864.9999999999999</ele><time>2026-03-23T08:19:49Z</time></trkpt><trkpt lat="31.59508370624087" lon="-4.461202418238994"><ele>865.0</ele><time>2026-03-23T08:19:51Z</time></trkpt><trkpt lat="31.59510430814691" lon="-4.461323577016432"><ele>864.6</ele><time>2026-03-23T08:19:53Z</time></trkpt><trkpt lat="31.594980181187243" lon="-4.461441384776324"><ele>864.2</ele><time>2026-03-23T08:19:55Z</time></trkpt><trkpt lat="31.594957580946986" lon="-4.461518696532641"><ele>863.8</ele><time>2026-03-23T08:19:56Z</time></trkpt><trkpt lat="31.594914362271126" lon="-4.46160906015376"><ele>863.4</ele><time>2026-03-23T08:19:57Z</time></trkpt><trkpt lat="31.59486638432211" lon="-4.4617128836142905"><ele>863.0</ele><time>2026-03-23T08:19:58Z</time></trkpt><trkpt lat="31.594810447777167" lon="-4.4618339280320995"><ele>863.0</ele><time>2026-03-23T08:19:59Z</time></trkpt><trkpt lat="31.59473901764739" lon="-4.461984818784892"><ele>863.0</ele><time>2026-03-23T08:20:00Z</time></trkpt><trkpt lat="31.59466219632236" lon="-4.46213297977299"><ele>863.0</ele><time>2026-03-23T08:20:01Z</time></trkpt><trkpt lat="31.59458814186839" lon="-4.462274788512001"><ele>863.0</ele><time>2026-03-23T08:20:02Z</time></trkpt><trkpt lat="31.594508042092805" lon="-4.462428173527937"><ele>863.3333333333334</ele><time>2026-03-23T08:20:03Z</time></trkpt><trkpt lat="31.59441947813699" lon="-4.462587335233768"><ele>863.6666666666667</ele><time>2026-03-23T08:20:04Z</time></trkpt><trkpt lat="31.59432653418719" lon="-4.462746092450966"><ele>864.0</ele><time>2026-03-23T08:20:05Z</time></trkpt><trkpt lat="31.594225040820803" lon="-4.462918232444895"><ele>863.3333333333333</ele><time>2026-03-23T08:20:06Z</time></trkpt><trkpt lat="31.59411930920992" lon="-4.463090780850687"><ele>862.6666666666666</ele><time>2026-03-23T08:20:07Z</time></trkpt><trkpt lat="31.59401465679644" lon="-4.463261567954452"><ele>862.0</ele><time>2026-03-23T08:20:08Z</time></trkpt><trkpt lat="31.593903689017473" lon="-4.463402304004501"><ele>862.0</ele><time>2026-03-23T08:20:09Z</time></trkpt><trkpt lat="31.59380197420263" lon="-4.463530109176018"><ele>862.0</ele><time>2026-03-23T08:20:10Z</time></trkpt><trkpt lat="31.593698046906106" lon="-4.463660450626644"><ele>862.0</ele><time>2026-03-23T08:20:11Z</time></trkpt><trkpt lat="31.593583301511337" lon="-4.463755355228404"><ele>862.0</ele><time>2026-03-23T08:20:12Z</time></trkpt><trkpt lat="31.593496956896104" lon="-4.463837511139128"><ele>862.25</ele><time>2026-03-23T08:20:13Z</time></trkpt><trkpt lat="31.593457607342078" lon="-4.463954955030538"><ele>862.5</ele><time>2026-03-23T08:20:14Z</time></trkpt><trkpt lat="31.59341332478504" lon="-4.464091062715993"><ele>862.75</ele><time>2026-03-23T08:20:15Z</time></trkpt><trkpt lat="31.593367514125813" lon="-4.464230755698734"><ele>863.0</ele><time>2026-03-23T08:20:16Z</time></trkpt><trkpt lat="31.593318045317947" lon="-4.464381603894659"><ele>863.0</ele><time>2026-03-23T08:20:17Z</time></trkpt><trkpt lat="31.593262688995814" lon="-4.464550404497638"><ele>863.0</ele><time>2026-03-23T08:20:18Z</time></trkpt><trkpt lat="31.593204944708432" lon="-4.46470811403214"><ele>863.0</ele><time>2026-03-23T08:20:19Z</time></trkpt><trkpt lat="31.59314300224702" lon="-4.464861161953039"><ele>863.0</ele><time>2026-03-23T08:20:20Z</time></trkpt><trkpt lat="31.593096774016516" lon="-4.465007668866348"><ele>862.5</ele><time>2026-03-23T08:20:21Z</time></trkpt><trkpt lat="31.593049977641787" lon="-4.4651324954888825"><ele>862.0</ele><time>2026-03-23T08:20:22Z</time></trkpt><trkpt lat="31.592986659881486" lon="-4.4652535568908736"><ele>861.5</ele><time>2026-03-23T08:20:23Z</time></trkpt><trkpt lat="31.592939146474446" lon="-4.465391362278013"><ele>861.0</ele><time>2026-03-23T08:20:24Z</time></trkpt><trkpt lat="31.59290101794432" lon="-4.465543686033557"><ele>861.0</ele><time>2026-03-23T08:20:25Z</time></trkpt><trkpt lat="31.59285693752754" lon="-4.465671063487603"><ele>860.9999999999999</ele><time>2026-03-23T08:20:26Z</time></trkpt><trkpt lat="31.592814444220863" lon="-4.46577209798526"><ele>860.9999999999999</ele><time>2026-03-23T08:20:27Z</time></trkpt><trkpt lat="31.592767663638206" lon="-4.465868752353029"><ele>861.0</ele><time>2026-03-23T08:20:28Z</time></trkpt><trkpt lat="31.592713286559256" lon="-4.465953999580102"><ele>861.0</ele><time>2026-03-23T08:20:29Z</time></trkpt><trkpt lat="31.592659263737314" lon="-4.466038691734078"><ele>861.1999999999999</ele><time>2026-03-23T08:20:30Z</time></trkpt><trkpt lat="31.5925931252215" lon="-4.466122117559183"><ele>861.3999999999999</ele><time>2026-03-23T08:20:31Z</time></trkpt><trkpt lat="31.592535651009747" lon="-4.466200205421221"><ele>861.6</ele><time>2026-03-23T08:20:32Z</time></trkpt><trkpt lat="31.59246932063556" lon="-4.466291829355875"><ele>861.8</ele><time>2026-03-23T08:20:33Z</time></trkpt><trkpt lat="31.59239453969748" lon="-4.466381474614207"><ele>862.0</ele><time>2026-03-23T08:20:34Z</time></trkpt><trkpt lat="31.592336338386815" lon="-4.466482655713716"><ele>862.0</ele><time>2026-03-23T08:20:35Z</time></trkpt><trkpt lat="31.592260807258754" lon="-4.466582518292565"><ele>862.0</ele><time>2026-03-23T08:20:36Z</time></trkpt><trkpt lat="31.592188564549385" lon="-4.466681600486019"><ele>862.0</ele><time>2026-03-23T08:20:37Z</time></trkpt><trkpt lat="31.59211288457428" lon="-4.4667920416928935"><ele>862.0</ele><time>2026-03-23T08:20:38Z</time></trkpt><trkpt lat="31.592051218586082" lon="-4.466882032030718"><ele>862.0</ele><time>2026-03-23T08:20:39Z</time></trkpt><trkpt lat="31.59199610455099" lon="-4.466962461532934"><ele>862.0</ele><time>2026-03-23T08:20:40Z</time></trkpt><trkpt lat="31.59192312671638" lon="-4.467008191635636"><ele>862.0</ele><time>2026-03-23T08:20:41Z</time></trkpt><trkpt lat="31.59186341047309" lon="-4.467085769410499"><ele>862.0</ele><time>2026-03-23T08:20:42Z</time></trkpt><trkpt lat="31.591781675740723" lon="-4.467153565891033"><ele>862.0</ele><time>2026-03-23T08:20:43Z</time></trkpt><trkpt lat="31.591736114605876" lon="-4.467259805369961"><ele>862.0</ele><time>2026-03-23T08:20:44Z</time></trkpt><trkpt lat="31.591675478747984" lon="-4.467344541493362"><ele>861.9999999999999</ele><time>2026-03-23T08:20:45Z</time></trkpt><trkpt lat="31.591650480784175" lon="-4.4674352421833685"><ele>862.0</ele><time>2026-03-23T08:20:46Z</time></trkpt><trkpt lat="31.591615605555976" lon="-4.467510563582667"><ele>862.0</ele><time>2026-03-23T08:20:47Z</time></trkpt><trkpt lat="31.59157138688297" lon="-4.467606064893705"><ele>862.0</ele><time>2026-03-23T08:20:48Z</time></trkpt><trkpt lat="31.591525221025897" lon="-4.467705773688114"><ele>861.9999999999999</ele><time>2026-03-23T08:20:49Z</time></trkpt><trkpt lat="31.591442921587497" lon="-4.467780792701286"><ele>862.0</ele><time>2026-03-23T08:20:50Z</time></trkpt><trkpt lat="31.591377606419623" lon="-4.467849903612614"><ele>862.0</ele><time>2026-03-23T08:20:51Z</time></trkpt><trkpt lat="31.591311727767373" lon="-4.467900769037159"><ele>862.0</ele><time>2026-03-23T08:20:52Z</time></trkpt><trkpt lat="31.591256760097785" lon="-4.467945196404678"><ele>862.0</ele><time>2026-03-23T08:20:53Z</time></trkpt><trkpt lat="31.591136583474086" lon="-4.468056150564926"><ele>862.0</ele><time>2026-03-23T08:20:55Z</time></trkpt><trkpt lat="31.591056869626243" lon="-4.468157834504644"><ele>862.0</ele><time>2026-03-23T08:20:56Z</time></trkpt><trkpt lat="31.59094803098037" lon="-4.468274834439348"><ele>861.6666666666666</ele><time>2026-03-23T08:20:57Z</time></trkpt><trkpt lat="31.5908332009909" lon="-4.4683997102421165"><ele>861.3333333333333</ele><time>2026-03-23T08:20:58Z</time></trkpt><trkpt lat="31.590689336618123" lon="-4.468524305153372"><ele>861.0</ele><time>2026-03-23T08:20:59Z</time></trkpt><trkpt lat="31.590564517903942" lon="-4.46867795498384"><ele>861.0</ele><time>2026-03-23T08:21:00Z</time></trkpt><trkpt lat="31.59044551273351" lon="-4.46879945146953"><ele>861.0</ele><time>2026-03-23T08:21:01Z</time></trkpt><trkpt lat="31.590325671738057" lon="-4.46892166959005"><ele>861.0</ele><time>2026-03-23T08:21:02Z</time></trkpt><trkpt lat="31.590213749924388" lon="-4.469035340928096"><ele>861.6666666666667</ele><time>2026-03-23T08:21:03Z</time></trkpt><trkpt lat="31.59008507531123" lon="-4.469166026719862"><ele>862.3333333333334</ele><time>2026-03-23T08:21:04Z</time></trkpt><trkpt lat="31.5899500478535" lon="-4.469309887320929"><ele>863.0</ele><time>2026-03-23T08:21:05Z</time></trkpt><trkpt lat="31.589823465567317" lon="-4.4694460007594135"><ele>863.0</ele><time>2026-03-23T08:21:06Z</time></trkpt><trkpt lat="31.589703728384276" lon="-4.469581343767749"><ele>863.0</ele><time>2026-03-23T08:21:07Z</time></trkpt><trkpt lat="31.58958036023867" lon="-4.469724419133703"><ele>863.0</ele><time>2026-03-23T08:21:08Z</time></trkpt><trkpt lat="31.589451383894623" lon="-4.4698581211509305"><ele>862.3333333333334</ele><time>2026-03-23T08:21:09Z</time></trkpt><trkpt lat="31.58933599672008" lon="-4.4699972109339425"><ele>861.6666666666667</ele><time>2026-03-23T08:21:10Z</time></trkpt><trkpt lat="31.589212849019095" lon="-4.470131803844509"><ele>861.0</ele><time>2026-03-23T08:21:11Z</time></trkpt><trkpt lat="31.58909204248232" lon="-4.470275091071125"><ele>861.0</ele><time>2026-03-23T08:21:12Z</time></trkpt><trkpt lat="31.58896043298848" lon="-4.470428368836804"><ele>861.0</ele><time>2026-03-23T08:21:13Z</time></trkpt><trkpt lat="31.58884277681077" lon="-4.470565711124022"><ele>861.0</ele><time>2026-03-23T08:21:14Z</time></trkpt><trkpt lat="31.588716774965693" lon="-4.470706868030277"><ele>860.3333333333333</ele><time>2026-03-23T08:21:15Z</time></trkpt><trkpt lat="31.588576968115053" lon="-4.470822823442531"><ele>859.6666666666666</ele><time>2026-03-23T08:21:16Z</time></trkpt><trkpt lat="31.58845027893049" lon="-4.470950064077849"><ele>859.0</ele><time>2026-03-23T08:21:17Z</time></trkpt><trkpt lat="31.58831266518857" lon="-4.471080121282936"><ele>859.0</ele><time>2026-03-23T08:21:18Z</time></trkpt><trkpt lat="31.5881969703151" lon="-4.471224381436761"><ele>859.0</ele><time>2026-03-23T08:21:19Z</time></trkpt><trkpt lat="31.58806295441239" lon="-4.471361640949823"><ele>859.0</ele><time>2026-03-23T08:21:20Z</time></trkpt><trkpt lat="31.5879321463315" lon="-4.47149449424528"><ele>859.3333333333333</ele><time>2026-03-23T08:21:21Z</time></trkpt><trkpt lat="31.587802270795173" lon="-4.471624163403069"><ele>859.6666666666667</ele><time>2026-03-23T08:21:22Z</time></trkpt><trkpt lat="31.587678551078618" lon="-4.471748656712173"><ele>860.0</ele><time>2026-03-23T08:21:23Z</time></trkpt><trkpt lat="31.58754459157472" lon="-4.471882226073377"><ele>860.0</ele><time>2026-03-23T08:21:24Z</time></trkpt><trkpt lat="31.587409482461837" lon="-4.472021575000699"><ele>860.0</ele><time>2026-03-23T08:21:25Z</time></trkpt><trkpt lat="31.587264270865482" lon="-4.472177060070499"><ele>860.0</ele><time>2026-03-23T08:21:26Z</time></trkpt><trkpt lat="31.58712125534155" lon="-4.472330414814211"><ele>860.0</ele><time>2026-03-23T08:21:27Z</time></trkpt><trkpt lat="31.586996252025212" lon="-4.47246334155185"><ele>860.0</ele><time>2026-03-23T08:21:28Z</time></trkpt><trkpt lat="31.58686463439396" lon="-4.472603100486591"><ele>860.0</ele><time>2026-03-23T08:21:29Z</time></trkpt><trkpt lat="31.586734745980827" lon="-4.472739940312444"><ele>860.0</ele><time>2026-03-23T08:21:30Z</time></trkpt><trkpt lat="31.58660088295292" lon="-4.472882331121842"><ele>860.0</ele><time>2026-03-23T08:21:31Z</time></trkpt><trkpt lat="31.58646290893048" lon="-4.473018105779023"><ele>860.0</ele><time>2026-03-23T08:21:32Z</time></trkpt><trkpt lat="31.586324540707654" lon="-4.473153841206553"><ele>860.0</ele><time>2026-03-23T08:21:33Z</time></trkpt><trkpt lat="31.586192622120077" lon="-4.473289087809485"><ele>860.0</ele><time>2026-03-23T08:21:34Z</time></trkpt><trkpt lat="31.586059201288453" lon="-4.473428274021307"><ele>860.0</ele><time>2026-03-23T08:21:35Z</time></trkpt><trkpt lat="31.58593379875236" lon="-4.473579881769417"><ele>859.6666666666667</ele><time>2026-03-23T08:21:36Z</time></trkpt><trkpt lat="31.585810965530595" lon="-4.47374234363957"><ele>859.3333333333333</ele><time>2026-03-23T08:21:37Z</time></trkpt><trkpt lat="31.58569163656057" lon="-4.473901106734556"><ele>859.0</ele><time>2026-03-23T08:21:38Z</time></trkpt><trkpt lat="31.585575723602727" lon="-4.4740576343263045"><ele>858.6666666666666</ele><time>2026-03-23T08:21:39Z</time></trkpt><trkpt lat="31.58546341357929" lon="-4.474210027647885"><ele>858.3333333333333</ele><time>2026-03-23T08:21:40Z</time></trkpt><trkpt lat="31.585345150558993" lon="-4.474370498745068"><ele>858.0</ele><time>2026-03-23T08:21:41Z</time></trkpt><trkpt lat="31.585227283548853" lon="-4.4745306195574015"><ele>858.0</ele><time>2026-03-23T08:21:42Z</time></trkpt><trkpt lat="31.585104484896327" lon="-4.4746882546813715"><ele>858.0</ele><time>2026-03-23T08:21:43Z</time></trkpt><trkpt lat="31.584975086508326" lon="-4.474839097214501"><ele>858.0</ele><time>2026-03-23T08:21:44Z</time></trkpt><trkpt lat="31.584838287329177" lon="-4.474998646600206"><ele>858.0</ele><time>2026-03-23T08:21:45Z</time></trkpt><trkpt lat="31.584719619154477" lon="-4.475158329269186"><ele>858.0</ele><time>2026-03-23T08:21:46Z</time></trkpt><trkpt lat="31.584589788696345" lon="-4.475336202786672"><ele>858.0</ele><time>2026-03-23T08:21:47Z</time></trkpt><trkpt lat="31.58445850024305" lon="-4.475513522266263"><ele>857.6666666666667</ele><time>2026-03-23T08:21:48Z</time></trkpt><trkpt lat="31.584325571006197" lon="-4.475690040641951"><ele>857.3333333333334</ele><time>2026-03-23T08:21:49.001Z</time></trkpt><trkpt lat="31.58419547962958" lon="-4.475857531949074"><ele>857.0</ele><time>2026-03-23T08:21:50.001Z</time></trkpt><trkpt lat="31.584084362960734" lon="-4.475999764771863"><ele>857.0</ele><time>2026-03-23T08:21:51Z</time></trkpt><trkpt lat="31.58399201785362" lon="-4.476132136969857"><ele>857.0</ele><time>2026-03-23T08:21:52Z</time></trkpt><trkpt lat="31.58389617953919" lon="-4.4762585868887905"><ele>857.0</ele><time>2026-03-23T08:21:53Z</time></trkpt><trkpt lat="31.583802215611904" lon="-4.4763732857889815"><ele>857.0</ele><time>2026-03-23T08:21:54Z</time></trkpt><trkpt lat="31.583720135418794" lon="-4.476473431214297"><ele>857.5</ele><time>2026-03-23T08:21:55Z</time></trkpt><trkpt lat="31.58362718233792" lon="-4.476524577608541"><ele>858.0</ele><time>2026-03-23T08:21:56Z</time></trkpt><trkpt lat="31.583558552072684" lon="-4.4765730364963865"><ele>858.5</ele><time>2026-03-23T08:21:57Z</time></trkpt><trkpt lat="31.583622662677534" lon="-4.476811500995813"><ele>859.0</ele><time>2026-03-23T08:21:58Z</time></trkpt><trkpt lat="31.583636155545616" lon="-4.476975949990756"><ele>858.5</ele><time>2026-03-23T08:21:59Z</time></trkpt><trkpt lat="31.58362657689408" lon="-4.477146209253574"><ele>858.0</ele><time>2026-03-23T08:22:00Z</time></trkpt><trkpt lat="31.583615337707098" lon="-4.477323488766515"><ele>857.5</ele><time>2026-03-23T08:22:01Z</time></trkpt><trkpt lat="31.58364929926115" lon="-4.477495554677404"><ele>857.0</ele><time>2026-03-23T08:22:02Z</time></trkpt><trkpt lat="31.58366446570414" lon="-4.4776931068720245"><ele>857.0</ele><time>2026-03-23T08:22:03Z</time></trkpt><trkpt lat="31.583666926807204" lon="-4.477842378023116"><ele>857.0</ele><time>2026-03-23T08:22:04Z</time></trkpt><trkpt lat="31.583664162570585" lon="-4.477974150573583"><ele>857.0</ele><time>2026-03-23T08:22:05Z</time></trkpt><trkpt lat="31.58365880947744" lon="-4.478091901104725"><ele>857.0</ele><time>2026-03-23T08:22:06Z</time></trkpt><trkpt lat="31.583647980394982" lon="-4.478202090229557"><ele>857.0</ele><time>2026-03-23T08:22:07Z</time></trkpt><trkpt lat="31.58365302464566" lon="-4.478303254993408"><ele>857.2</ele><time>2026-03-23T08:22:08Z</time></trkpt><trkpt lat="31.583640557862026" lon="-4.478388383653201"><ele>857.4000000000001</ele><time>2026-03-23T08:22:09Z</time></trkpt><trkpt lat="31.583604711080227" lon="-4.478462170788344"><ele>857.5999999999999</ele><time>2026-03-23T08:22:10Z</time></trkpt><trkpt lat="31.583538190891247" lon="-4.478531619581567"><ele>857.8</ele><time>2026-03-23T08:22:11Z</time></trkpt><trkpt lat="31.58345919991864" lon="-4.478637098020733"><ele>858.0</ele><time>2026-03-23T08:22:12Z</time></trkpt><trkpt lat="31.583343162550946" lon="-4.478755112973517"><ele>857.5</ele><time>2026-03-23T08:22:13Z</time></trkpt><trkpt lat="31.583210617832503" lon="-4.478842067378623"><ele>857.0</ele><time>2026-03-23T08:22:14Z</time></trkpt><trkpt lat="31.583119161339027" lon="-4.478973581284014"><ele>856.5</ele><time>2026-03-23T08:22:15Z</time></trkpt><trkpt lat="31.58302184043308" lon="-4.479097975228483"><ele>856.0</ele><time>2026-03-23T08:22:16Z</time></trkpt><trkpt lat="31.5829229455024" lon="-4.479224380664527"><ele>855.6666666666666</ele><time>2026-03-23T08:22:17Z</time></trkpt><trkpt lat="31.58267620377886" lon="-4.479198653872316"><ele>855.3333333333333</ele><time>2026-03-23T08:22:18Z</time></trkpt><trkpt lat="31.582565042996954" lon="-4.479300326545932"><ele>855.0</ele><time>2026-03-23T08:22:19Z</time></trkpt><trkpt lat="31.582453757089365" lon="-4.47939395536824"><ele>855.0</ele><time>2026-03-23T08:22:20Z</time></trkpt><trkpt lat="31.582349746066786" lon="-4.4794695284043415"><ele>855.0</ele><time>2026-03-23T08:22:21Z</time></trkpt><trkpt lat="31.58229271529914" lon="-4.479510338224187"><ele>855.0</ele><time>2026-03-23T08:22:22Z</time></trkpt><trkpt lat="31.58223849747278" lon="-4.479566207906559"><ele>855.0</ele><time>2026-03-23T08:22:24Z</time></trkpt><trkpt lat="31.582283803799214" lon="-4.479655276899151"><ele>855.0</ele><time>2026-03-23T08:22:27Z</time></trkpt><trkpt lat="31.582375799908753" lon="-4.47969692455352"><ele>855.0</ele><time>2026-03-23T08:22:29Z</time></trkpt><trkpt lat="31.582512219771033" lon="-4.479699749093199"><ele>855.1666666666666</ele><time>2026-03-23T08:22:31Z</time></trkpt><trkpt lat="31.582592880888512" lon="-4.479721000529509"><ele>855.3333333333333</ele><time>2026-03-23T08:22:32Z</time></trkpt><trkpt lat="31.582660642598363" lon="-4.479745034924936"><ele>855.5</ele><time>2026-03-23T08:22:33Z</time></trkpt><trkpt lat="31.582775809338205" lon="-4.479819308813596"><ele>855.6666666666666</ele><time>2026-03-23T08:22:35Z</time></trkpt><trkpt lat="31.58282774468295" lon="-4.479882125042095"><ele>855.8333333333333</ele><time>2026-03-23T08:22:36Z</time></trkpt><trkpt lat="31.582866763448116" lon="-4.479964063377209"><ele>856.0</ele><time>2026-03-23T08:22:37Z</time></trkpt><trkpt lat="31.582885441387422" lon="-4.480060550648394"><ele>856.0</ele><time>2026-03-23T08:22:38Z</time></trkpt><trkpt lat="31.582895922439466" lon="-4.4801637530965035"><ele>855.9999999999999</ele><time>2026-03-23T08:22:39Z</time></trkpt><trkpt lat="31.5828940795623" lon="-4.480276286653819"><ele>855.9999999999999</ele><time>2026-03-23T08:22:40Z</time></trkpt><trkpt lat="31.582881986567223" lon="-4.480362642311818"><ele>856.0</ele><time>2026-03-23T08:22:41Z</time></trkpt><trkpt lat="31.582916793352922" lon="-4.480439690284882"><ele>856.0</ele><time>2026-03-23T08:22:43Z</time></trkpt><trkpt lat="31.583053076296117" lon="-4.4804424454594125"><ele>855.75</ele><time>2026-03-23T08:22:45Z</time></trkpt><trkpt lat="31.58315425374372" lon="-4.480438403697604"><ele>855.5</ele><time>2026-03-23T08:22:46Z</time></trkpt><trkpt lat="31.583261699989865" lon="-4.48044465537809"><ele>855.25</ele><time>2026-03-23T08:22:47Z</time></trkpt><trkpt lat="31.583380479237317" lon="-4.480480176191581"><ele>855.0</ele><time>2026-03-23T08:22:48Z</time></trkpt><trkpt lat="31.583520561223494" lon="-4.4805377745241595"><ele>855.0</ele><time>2026-03-23T08:22:49Z</time></trkpt><trkpt lat="31.5836415185129" lon="-4.480594729321366"><ele>855.0</ele><time>2026-03-23T08:22:50Z</time></trkpt><trkpt lat="31.583743773578846" lon="-4.48063664882138"><ele>855.0</ele><time>2026-03-23T08:22:51Z</time></trkpt><trkpt lat="31.583826060141703" lon="-4.480681952301163"><ele>855.0</ele><time>2026-03-23T08:22:52Z</time></trkpt><trkpt lat="31.58388752277214" lon="-4.480732825539865"><ele>855.0</ele><time>2026-03-23T08:22:53Z</time></trkpt><trkpt lat="31.583955225255263" lon="-4.480861140089895"><ele>855.0</ele><time>2026-03-23T08:22:55Z</time></trkpt><trkpt lat="31.583913422863027" lon="-4.481038944275096"><ele>855.0</ele><time>2026-03-23T08:22:56Z</time></trkpt><trkpt lat="31.58398357801289" lon="-4.481160586052654"><ele>855.0</ele><time>2026-03-23T08:22:57Z</time></trkpt><trkpt lat="31.584049412678063" lon="-4.481274167428506"><ele>855.0</ele><time>2026-03-23T08:22:58Z</time></trkpt><trkpt lat="31.584110180272887" lon="-4.481379036784474"><ele>855.5</ele><time>2026-03-23T08:22:59Z</time></trkpt><trkpt lat="31.58417878728547" lon="-4.481497870690802"><ele>856.0</ele><time>2026-03-23T08:23:00Z</time></trkpt><trkpt lat="31.584273869568307" lon="-4.481628540226151"><ele>856.5</ele><time>2026-03-23T08:23:01Z</time></trkpt><trkpt lat="31.584323474894404" lon="-4.481772764915982"><ele>857.0</ele><time>2026-03-23T08:23:02Z</time></trkpt><trkpt lat="31.584408814460144" lon="-4.48189629955388"><ele>857.0</ele><time>2026-03-23T08:23:03Z</time></trkpt><trkpt lat="31.58448743595942" lon="-4.482066118544765"><ele>857.0</ele><time>2026-03-23T08:23:04Z</time></trkpt><trkpt lat="31.58458802802981" lon="-4.48224090603025"><ele>857.0</ele><time>2026-03-23T08:23:05Z</time></trkpt><trkpt lat="31.584691670787546" lon="-4.482405766720487"><ele>857.3333333333334</ele><time>2026-03-23T08:23:06Z</time></trkpt><trkpt lat="31.584794123978195" lon="-4.4825779995557"><ele>857.6666666666667</ele><time>2026-03-23T08:23:07Z</time></trkpt><trkpt lat="31.584900947865663" lon="-4.482769730608098"><ele>858.0</ele><time>2026-03-23T08:23:08Z</time></trkpt><trkpt lat="31.58501551461531" lon="-4.4829706409807555"><ele>858.0</ele><time>2026-03-23T08:23:09Z</time></trkpt><trkpt lat="31.585141987132758" lon="-4.4831660458203615"><ele>858.0</ele><time>2026-03-23T08:23:10Z</time></trkpt><trkpt lat="31.58526132993439" lon="-4.483374097288187"><ele>858.0</ele><time>2026-03-23T08:23:11Z</time></trkpt><trkpt lat="31.585378629287725" lon="-4.483576953946681"><ele>858.0</ele><time>2026-03-23T08:23:12Z</time></trkpt><trkpt lat="31.58547818408584" lon="-4.4837489534155175"><ele>858.0</ele><time>2026-03-23T08:23:13Z</time></trkpt><trkpt lat="31.58557089259405" lon="-4.483909612532381"><ele>858.0</ele><time>2026-03-23T08:23:14Z</time></trkpt><trkpt lat="31.585660723613486" lon="-4.484097008606123"><ele>858.0</ele><time>2026-03-23T08:23:15Z</time></trkpt><trkpt lat="31.585776327268768" lon="-4.484273075774878"><ele>858.0</ele><time>2026-03-23T08:23:16Z</time></trkpt><trkpt lat="31.58589152617844" lon="-4.484449594641113"><ele>858.0</ele><time>2026-03-23T08:23:17Z</time></trkpt><trkpt lat="31.58600501671151" lon="-4.484628211985256"><ele>858.0</ele><time>2026-03-23T08:23:18Z</time></trkpt><trkpt lat="31.586094555133588" lon="-4.484818527586832"><ele>858.0</ele><time>2026-03-23T08:23:19Z</time></trkpt><trkpt lat="31.58620398009108" lon="-4.4850085560497535"><ele>858.0</ele><time>2026-03-23T08:23:20Z</time></trkpt><trkpt lat="31.586329589069134" lon="-4.485196027166428"><ele>858.6666666666667</ele><time>2026-03-23T08:23:21Z</time></trkpt><trkpt lat="31.58643564932728" lon="-4.485390056808888"><ele>859.3333333333334</ele><time>2026-03-23T08:23:22Z</time></trkpt><trkpt lat="31.58652861901069" lon="-4.485569789477924"><ele>860.0</ele><time>2026-03-23T08:23:23Z</time></trkpt><trkpt lat="31.58660952923662" lon="-4.485725051944253"><ele>860.0</ele><time>2026-03-23T08:23:24Z</time></trkpt><trkpt lat="31.58667909599994" lon="-4.485875907562184"><ele>860.0</ele><time>2026-03-23T08:23:25Z</time></trkpt><trkpt lat="31.586776884661486" lon="-4.4860193500411505"><ele>860.0</ele><time>2026-03-23T08:23:26Z</time></trkpt><trkpt lat="31.58687540606384" lon="-4.486195085788921"><ele>859.6666666666667</ele><time>2026-03-23T08:23:27Z</time></trkpt><trkpt lat="31.586967312913142" lon="-4.486360203568821"><ele>859.3333333333333</ele><time>2026-03-23T08:23:28Z</time></trkpt><trkpt lat="31.587066487107382" lon="-4.486537569705884"><ele>859.0</ele><time>2026-03-23T08:23:29Z</time></trkpt><trkpt lat="31.58716691955703" lon="-4.486716389394327"><ele>859.0</ele><time>2026-03-23T08:23:30Z</time></trkpt><trkpt lat="31.587189531932115" lon="-4.48695316116641"><ele>859.0</ele><time>2026-03-23T08:23:31Z</time></trkpt><trkpt lat="31.587235579611793" lon="-4.487161381631026"><ele>859.0</ele><time>2026-03-23T08:23:32Z</time></trkpt><trkpt lat="31.58727470395815" lon="-4.487377041120879"><ele>859.0</ele><time>2026-03-23T08:23:33Z</time></trkpt><trkpt lat="31.587331953073072" lon="-4.487577649088116"><ele>859.0</ele><time>2026-03-23T08:23:34Z</time></trkpt><trkpt lat="31.58737282365635" lon="-4.487768386201999"><ele>859.0</ele><time>2026-03-23T08:23:35Z</time></trkpt><trkpt lat="31.58741367121386" lon="-4.487959013406603"><ele>859.0</ele><time>2026-03-23T08:23:36Z</time></trkpt><trkpt lat="31.58751517036105" lon="-4.488092149193131"><ele>859.0</ele><time>2026-03-23T08:23:37Z</time></trkpt><trkpt lat="31.587604172390318" lon="-4.4882583672158205"><ele>859.0</ele><time>2026-03-23T08:23:38Z</time></trkpt><trkpt lat="31.587694656677733" lon="-4.488427353369619"><ele>859.0</ele><time>2026-03-23T08:23:39Z</time></trkpt><trkpt lat="31.587783979894766" lon="-4.48859417160436"><ele>859.0</ele><time>2026-03-23T08:23:40Z</time></trkpt><trkpt lat="31.58787152651901" lon="-4.488757323342693"><ele>859.0</ele><time>2026-03-23T08:23:41Z</time></trkpt><trkpt lat="31.58796430596875" lon="-4.48889298902337"><ele>859.6666666666666</ele><time>2026-03-23T08:23:42Z</time></trkpt><trkpt lat="31.588073024867104" lon="-4.489030520955438"><ele>860.3333333333333</ele><time>2026-03-23T08:23:43.001Z</time></trkpt><trkpt lat="31.588186409172685" lon="-4.489174291009671"><ele>861.0</ele><time>2026-03-23T08:23:44.001Z</time></trkpt><trkpt lat="31.588300041881084" lon="-4.489296897006815"><ele>861.0</ele><time>2026-03-23T08:23:45.001Z</time></trkpt><trkpt lat="31.588428430905886" lon="-4.489414906867389"><ele>861.0</ele><time>2026-03-23T08:23:46.001Z</time></trkpt><trkpt lat="31.58855760110907" lon="-4.489533435730068"><ele>861.0</ele><time>2026-03-23T08:23:47.001Z</time></trkpt><trkpt lat="31.588685607498764" lon="-4.489650825241294"><ele>861.0</ele><time>2026-03-23T08:23:48.001Z</time></trkpt><trkpt lat="31.588818207287144" lon="-4.489770740804613"><ele>861.0</ele><time>2026-03-23T08:23:49.001Z</time></trkpt><trkpt lat="31.588949267612854" lon="-4.4898927529832005"><ele>861.0</ele><time>2026-03-23T08:23:50.001Z</time></trkpt><trkpt lat="31.58909623276221" lon="-4.490002765396743"><ele>861.0</ele><time>2026-03-23T08:23:51.001Z</time></trkpt><trkpt lat="31.58924207695374" lon="-4.490137213790446"><ele>861.0</ele><time>2026-03-23T08:23:52.001Z</time></trkpt><trkpt lat="31.589385150914183" lon="-4.490290899136764"><ele>861.0</ele><time>2026-03-23T08:23:53.001Z</time></trkpt><trkpt lat="31.589532545256464" lon="-4.49046527704863"><ele>861.3333333333333</ele><time>2026-03-23T08:23:54.001Z</time></trkpt><trkpt lat="31.589672170256257" lon="-4.490659761171898"><ele>861.6666666666666</ele><time>2026-03-23T08:23:55.001Z</time></trkpt><trkpt lat="31.589819956544815" lon="-4.4908632508464725"><ele>862.0</ele><time>2026-03-23T08:23:56.001Z</time></trkpt><trkpt lat="31.589966062084976" lon="-4.491064049106999"><ele>862.0</ele><time>2026-03-23T08:23:57Z</time></trkpt><trkpt lat="31.590075046286554" lon="-4.491236011905034"><ele>862.0</ele><time>2026-03-23T08:23:58Z</time></trkpt><trkpt lat="31.590174649806947" lon="-4.491412535299541"><ele>862.0</ele><time>2026-03-23T08:23:59Z</time></trkpt><trkpt lat="31.59029869924237" lon="-4.491575842340774"><ele>862.3333333333333</ele><time>2026-03-23T08:24:00Z</time></trkpt><trkpt lat="31.590396240611316" lon="-4.491775651829778"><ele>862.6666666666667</ele><time>2026-03-23T08:24:01Z</time></trkpt><trkpt lat="31.590495682393236" lon="-4.491978626106942"><ele>863.0</ele><time>2026-03-23T08:24:02Z</time></trkpt><trkpt lat="31.590591871718736" lon="-4.492174037918797"><ele>863.0</ele><time>2026-03-23T08:24:03Z</time></trkpt><trkpt lat="31.59068722676943" lon="-4.492367746772994"><ele>863.0</ele><time>2026-03-23T08:24:04Z</time></trkpt><trkpt lat="31.590777895886017" lon="-4.4925520078728125"><ele>863.0</ele><time>2026-03-23T08:24:05Z</time></trkpt><trkpt lat="31.590878828404616" lon="-4.49273910960808"><ele>863.0</ele><time>2026-03-23T08:24:06Z</time></trkpt><trkpt lat="31.590990336630036" lon="-4.492919578734752"><ele>863.0</ele><time>2026-03-23T08:24:07Z</time></trkpt><trkpt lat="31.59110479751318" lon="-4.493104149487586"><ele>863.0</ele><time>2026-03-23T08:24:08Z</time></trkpt><trkpt lat="31.59121720557423" lon="-4.493285263205481"><ele>863.0</ele><time>2026-03-23T08:24:09Z</time></trkpt><trkpt lat="31.591321325682138" lon="-4.493453021178251"><ele>863.0</ele><time>2026-03-23T08:24:10Z</time></trkpt><trkpt lat="31.59143309054291" lon="-4.49363309179733"><ele>863.0</ele><time>2026-03-23T08:24:11Z</time></trkpt><trkpt lat="31.59152763506173" lon="-4.493785417793149"><ele>863.0</ele><time>2026-03-23T08:24:12Z</time></trkpt><trkpt lat="31.591624926911273" lon="-4.493942333619015"><ele>863.0</ele><time>2026-03-23T08:24:13Z</time></trkpt><trkpt lat="31.59173805828448" lon="-4.494165167185264"><ele>863.0</ele><time>2026-03-23T08:24:14Z</time></trkpt><trkpt lat="31.591831998213337" lon="-4.494353725171124"><ele>863.0</ele><time>2026-03-23T08:24:15Z</time></trkpt><trkpt lat="31.59192521346295" lon="-4.494540875543575"><ele>863.0</ele><time>2026-03-23T08:24:16Z</time></trkpt><trkpt lat="31.592018954282373" lon="-4.4947290811142295"><ele>863.0</ele><time>2026-03-23T08:24:17Z</time></trkpt><trkpt lat="31.592113711597406" lon="-4.4949292033856105"><ele>863.0</ele><time>2026-03-23T08:24:18Z</time></trkpt><trkpt lat="31.59219064178385" lon="-4.495125146326731"><ele>863.0</ele><time>2026-03-23T08:24:19Z</time></trkpt><trkpt lat="31.59226440509215" lon="-4.495312501140129"><ele>863.0</ele><time>2026-03-23T08:24:20Z</time></trkpt><trkpt lat="31.592334306774728" lon="-4.495490588044977"><ele>863.0</ele><time>2026-03-23T08:24:21Z</time></trkpt><trkpt lat="31.592386383998743" lon="-4.495667567915146"><ele>863.0</ele><time>2026-03-23T08:24:22Z</time></trkpt><trkpt lat="31.592486473690442" lon="-4.4958047428211705"><ele>863.0</ele><time>2026-03-23T08:24:23Z</time></trkpt><trkpt lat="31.592587301720382" lon="-4.495963998368243"><ele>863.0</ele><time>2026-03-23T08:24:24Z</time></trkpt><trkpt lat="31.59268994987531" lon="-4.49612583545355"><ele>863.0</ele><time>2026-03-23T08:24:25Z</time></trkpt><trkpt lat="31.592795799629528" lon="-4.49628871990397"><ele>863.0</ele><time>2026-03-23T08:24:26Z</time></trkpt><trkpt lat="31.59292178347996" lon="-4.49643518865655"><ele>865.3333333333334</ele><time>2026-03-23T08:24:27Z</time></trkpt><trkpt lat="31.593047604583237" lon="-4.496575434601708"><ele>867.6666666666667</ele><time>2026-03-23T08:24:28Z</time></trkpt><trkpt lat="31.59316870275083" lon="-4.496703213390916"><ele>870.0</ele><time>2026-03-23T08:24:29Z</time></trkpt><trkpt lat="31.593275214277302" lon="-4.49681202990447"><ele>870.0</ele><time>2026-03-23T08:24:30Z</time></trkpt><trkpt lat="31.59337353892138" lon="-4.4968606327064755"><ele>870.0</ele><time>2026-03-23T08:24:31Z</time></trkpt><trkpt lat="31.59345764467858" lon="-4.496915214629925"><ele>870.0</ele><time>2026-03-23T08:24:32Z</time></trkpt><trkpt lat="31.593469074286254" lon="-4.4970759465347685"><ele>870.0</ele><time>2026-03-23T08:24:33Z</time></trkpt><trkpt lat="31.593579754194735" lon="-4.497163074248126"><ele>869.25</ele><time>2026-03-23T08:24:35Z</time></trkpt><trkpt lat="31.59368263064689" lon="-4.497244930390685"><ele>868.5</ele><time>2026-03-23T08:24:36Z</time></trkpt><trkpt lat="31.593805061799163" lon="-4.497341835875791"><ele>867.75</ele><time>2026-03-23T08:24:37Z</time></trkpt><trkpt lat="31.593919834920868" lon="-4.497433392705183"><ele>867.0</ele><time>2026-03-23T08:24:38Z</time></trkpt><trkpt lat="31.59402189458394" lon="-4.497514857659273"><ele>867.0</ele><time>2026-03-23T08:24:39Z</time></trkpt><trkpt lat="31.594124878421137" lon="-4.49759746063034"><ele>867.0</ele><time>2026-03-23T08:24:40Z</time></trkpt><trkpt lat="31.594307100124027" lon="-4.497653504782418"><ele>867.0</ele><time>2026-03-23T08:24:41Z</time></trkpt><trkpt lat="31.59446055232351" lon="-4.49767630716093"><ele>867.5</ele><time>2026-03-23T08:24:42Z</time></trkpt><trkpt lat="31.594605576281783" lon="-4.497700482619676"><ele>868.0</ele><time>2026-03-23T08:24:43Z</time></trkpt><trkpt lat="31.59473907473361" lon="-4.49773115201967"><ele>868.5</ele><time>2026-03-23T08:24:44Z</time></trkpt><trkpt lat="31.59484225504479" lon="-4.497754972477762"><ele>869.0</ele><time>2026-03-23T08:24:45Z</time></trkpt><trkpt lat="31.594963279658213" lon="-4.497783181552687"><ele>869.0</ele><time>2026-03-23T08:24:46Z</time></trkpt><trkpt lat="31.595101415049168" lon="-4.4978233619391625"><ele>869.0</ele><time>2026-03-23T08:24:47Z</time></trkpt><trkpt lat="31.595251868030815" lon="-4.497849531526567"><ele>869.0</ele><time>2026-03-23T08:24:48Z</time></trkpt><trkpt lat="31.595390902551134" lon="-4.497882500047768"><ele>869.0</ele><time>2026-03-23T08:24:49Z</time></trkpt><trkpt lat="31.595527089024475" lon="-4.497914388098269"><ele>867.6666666666667</ele><time>2026-03-23T08:24:50Z</time></trkpt><trkpt lat="31.59567120274172" lon="-4.497947663726738"><ele>866.3333333333333</ele><time>2026-03-23T08:24:51Z</time></trkpt><trkpt lat="31.595834623776913" lon="-4.49798539738013"><ele>865.0</ele><time>2026-03-23T08:24:52Z</time></trkpt><trkpt lat="31.595999495009913" lon="-4.4980237917281976"><ele>865.0</ele><time>2026-03-23T08:24:53Z</time></trkpt><trkpt lat="31.5961433119052" lon="-4.4980575660172155"><ele>865.0</ele><time>2026-03-23T08:24:54Z</time></trkpt><trkpt lat="31.596300317308906" lon="-4.498093972794262"><ele>865.0</ele><time>2026-03-23T08:24:55Z</time></trkpt><trkpt lat="31.59641489872845" lon="-4.4981980713334915"><ele>865.5</ele><time>2026-03-23T08:24:56Z</time></trkpt><trkpt lat="31.59654165265608" lon="-4.4982593805528115"><ele>866.0</ele><time>2026-03-23T08:24:57Z</time></trkpt><trkpt lat="31.596642103796974" lon="-4.498387887193867"><ele>866.5</ele><time>2026-03-23T08:24:58Z</time></trkpt><trkpt lat="31.59671066138934" lon="-4.498541648947711"><ele>867.0</ele><time>2026-03-23T08:24:59Z</time></trkpt><trkpt lat="31.59680069861259" lon="-4.498673377303726"><ele>867.0</ele><time>2026-03-23T08:25:00Z</time></trkpt><trkpt lat="31.596893031600633" lon="-4.498799813844077"><ele>867.0</ele><time>2026-03-23T08:25:01Z</time></trkpt><trkpt lat="31.59698379009002" lon="-4.498940514015544"><ele>867.0</ele><time>2026-03-23T08:25:02Z</time></trkpt><trkpt lat="31.5971029228891" lon="-4.499111996768013"><ele>866.0</ele><time>2026-03-23T08:25:03Z</time></trkpt><trkpt lat="31.597209022244495" lon="-4.499272451666539"><ele>865.0</ele><time>2026-03-23T08:25:04Z</time></trkpt><trkpt lat="31.597295227720746" lon="-4.49941788893822"><ele>864.0</ele><time>2026-03-23T08:25:05Z</time></trkpt><trkpt lat="31.597375307489497" lon="-4.49955656772442"><ele>864.25</ele><time>2026-03-23T08:25:06Z</time></trkpt><trkpt lat="31.597456395889854" lon="-4.499694276316705"><ele>864.5</ele><time>2026-03-23T08:25:07Z</time></trkpt><trkpt lat="31.59753599432328" lon="-4.49983480310673"><ele>864.75</ele><time>2026-03-23T08:25:08Z</time></trkpt><trkpt lat="31.59762780258388" lon="-4.499955985090626"><ele>865.0</ele><time>2026-03-23T08:25:09Z</time></trkpt><trkpt lat="31.59770951698694" lon="-4.500085066623463"><ele>865.0</ele><time>2026-03-23T08:25:10Z</time></trkpt><trkpt lat="31.59779556835717" lon="-4.50021983944349"><ele>865.0</ele><time>2026-03-23T08:25:11Z</time></trkpt><trkpt lat="31.597882960635314" lon="-4.500357219450637"><ele>865.0</ele><time>2026-03-23T08:25:12Z</time></trkpt><trkpt lat="31.59797101285136" lon="-4.500496028513201"><ele>865.0</ele><time>2026-03-23T08:25:13Z</time></trkpt><trkpt lat="31.598065988542924" lon="-4.500645318881586"><ele>866.0</ele><time>2026-03-23T08:25:14Z</time></trkpt><trkpt lat="31.59816459234843" lon="-4.500800044091651"><ele>867.0</ele><time>2026-03-23T08:25:15Z</time></trkpt><trkpt lat="31.598266032064004" lon="-4.500959377021825"><ele>868.0</ele><time>2026-03-23T08:25:16Z</time></trkpt><trkpt lat="31.59837549801157" lon="-4.501131316824867"><ele>868.3333333333333</ele><time>2026-03-23T08:25:17Z</time></trkpt><trkpt lat="31.5984847536424" lon="-4.50130292595453"><ele>868.6666666666667</ele><time>2026-03-23T08:25:18Z</time></trkpt><trkpt lat="31.598589615330475" lon="-4.501501889229625"><ele>869.0</ele><time>2026-03-23T08:25:19Z</time></trkpt><trkpt lat="31.59867465480028" lon="-4.501689607703651"><ele>869.0</ele><time>2026-03-23T08:25:20Z</time></trkpt><trkpt lat="31.598749604310246" lon="-4.501853223852671"><ele>869.0</ele><time>2026-03-23T08:25:21Z</time></trkpt><trkpt lat="31.59881976739806" lon="-4.502008483017978"><ele>869.0</ele><time>2026-03-23T08:25:22Z</time></trkpt><trkpt lat="31.598912624621892" lon="-4.502144022239267"><ele>868.6666666666667</ele><time>2026-03-23T08:25:23Z</time></trkpt><trkpt lat="31.599017965140273" lon="-4.502278071812999"><ele>868.3333333333333</ele><time>2026-03-23T08:25:24Z</time></trkpt><trkpt lat="31.599131563401958" lon="-4.50242208081905"><ele>868.0</ele><time>2026-03-23T08:25:25Z</time></trkpt><trkpt lat="31.599248377003935" lon="-4.50257011382101"><ele>868.0</ele><time>2026-03-23T08:25:26Z</time></trkpt><trkpt lat="31.599365914201783" lon="-4.502737099678739"><ele>868.0</ele><time>2026-03-23T08:25:27Z</time></trkpt><trkpt lat="31.599505909066014" lon="-4.502890725250158"><ele>868.0</ele><time>2026-03-23T08:25:28Z</time></trkpt><trkpt lat="31.599618644605076" lon="-4.503029751429791"><ele>868.0</ele><time>2026-03-23T08:25:29Z</time></trkpt><trkpt lat="31.599748959383057" lon="-4.503169387457051"><ele>868.0</ele><time>2026-03-23T08:25:30Z</time></trkpt><trkpt lat="31.599896448665863" lon="-4.503310899568505"><ele>868.0</ele><time>2026-03-23T08:25:31Z</time></trkpt><trkpt lat="31.6000250215208" lon="-4.503477052001364"><ele>868.0</ele><time>2026-03-23T08:25:32Z</time></trkpt><trkpt lat="31.600182822603525" lon="-4.503613764945703"><ele>868.0</ele><time>2026-03-23T08:25:33Z</time></trkpt><trkpt lat="31.600301668054193" lon="-4.5037339862048364"><ele>868.0</ele><time>2026-03-23T08:25:34Z</time></trkpt><trkpt lat="31.600409193216585" lon="-4.503842756179757"><ele>868.3333333333333</ele><time>2026-03-23T08:25:35Z</time></trkpt><trkpt lat="31.60051190478939" lon="-4.50394619262581"><ele>868.6666666666667</ele><time>2026-03-23T08:25:36Z</time></trkpt><trkpt lat="31.60063724873135" lon="-4.504078185510812"><ele>869.0</ele><time>2026-03-23T08:25:37Z</time></trkpt><trkpt lat="31.600792187569148" lon="-4.504227640021106"><ele>869.0</ele><time>2026-03-23T08:25:38Z</time></trkpt><trkpt lat="31.60087893452763" lon="-4.504313760933062"><ele>869.0</ele><time>2026-03-23T08:25:39Z</time></trkpt><trkpt lat="31.60098825939263" lon="-4.504422549045172"><ele>869.0</ele><time>2026-03-23T08:25:40Z</time></trkpt><trkpt lat="31.601068159367017" lon="-4.5045020948662975"><ele>869.0</ele><time>2026-03-23T08:25:41Z</time></trkpt><trkpt lat="31.601159584985883" lon="-4.50461281372684"><ele>869.0</ele><time>2026-03-23T08:25:43Z</time></trkpt><trkpt lat="31.601200943691488" lon="-4.504684083875084"><ele>869.0000000000001</ele><time>2026-03-23T08:25:44Z</time></trkpt><trkpt lat="31.601273453804225" lon="-4.504780293795057"><ele>869.0000000000001</ele><time>2026-03-23T08:25:46Z</time></trkpt><trkpt lat="31.601328374157298" lon="-4.5048930890385"><ele>869.0</ele><time>2026-03-23T08:25:48Z</time></trkpt><trkpt lat="31.60138620125519" lon="-4.505011853311441"><ele>869.0</ele><time>2026-03-23T08:25:52Z</time></trkpt><trkpt lat="31.601445233460097" lon="-4.5051311925086654"><ele>869.0000000000001</ele><time>2026-03-23T08:25:54Z</time></trkpt><trkpt lat="31.601500111707082" lon="-4.505220937928525"><ele>869.0</ele><time>2026-03-23T08:25:56Z</time></trkpt><trkpt lat="31.60154600159676" lon="-4.505295984284606"><ele>869.0</ele><time>2026-03-23T08:25:57Z</time></trkpt><trkpt lat="31.601594543614105" lon="-4.505375367760667"><ele>869.0</ele><time>2026-03-23T08:25:58Z</time></trkpt><trkpt lat="31.601643836418283" lon="-4.505432914893886"><ele>869.0000000000001</ele><time>2026-03-23T08:25:59Z</time></trkpt><trkpt lat="31.601675882151085" lon="-4.5055191662039675"><ele>869.0</ele><time>2026-03-23T08:26:00Z</time></trkpt><trkpt lat="31.60173103649763" lon="-4.5056068893680505"><ele>869.0</ele><time>2026-03-23T08:26:01Z</time></trkpt><trkpt lat="31.60178840292511" lon="-4.505704823991279"><ele>869.0000000000001</ele><time>2026-03-23T08:26:02Z</time></trkpt><trkpt lat="31.60183271702321" lon="-4.505780475594725"><ele>869.0000000000001</ele><time>2026-03-23T08:26:03Z</time></trkpt><trkpt lat="31.601885289706114" lon="-4.505870223944051"><ele>869.0</ele><time>2026-03-23T08:26:04Z</time></trkpt><trkpt lat="31.601824810393623" lon="-4.505997239027598"><ele>869.0</ele><time>2026-03-23T08:26:05Z</time></trkpt><trkpt lat="31.601823273029762" lon="-4.506128562307562"><ele>869.0</ele><time>2026-03-23T08:26:07Z</time></trkpt><trkpt lat="31.601822108870838" lon="-4.5062280060252276"><ele>869.0</ele><time>2026-03-23T08:26:09Z</time></trkpt><trkpt lat="31.601821170444435" lon="-4.5063081652733885"><ele>869.0</ele><time>2026-03-23T08:26:11Z</time></trkpt><trkpt lat="31.601813174343466" lon="-4.5063825516204545"><ele>869.0</ele><time>2026-03-23T08:26:13Z</time></trkpt><trkpt lat="31.602216875328626" lon="-4.506553289662238"><ele>869.0</ele><time>2026-03-23T08:26:15Z</time></trkpt><trkpt lat="31.60226889052855" lon="-4.506613781553871"><ele>869.0000000000001</ele><time>2026-03-23T08:26:16Z</time></trkpt><trkpt lat="31.602344901874652" lon="-4.506681403977423"><ele>869.0000000000001</ele><time>2026-03-23T08:26:18Z</time></trkpt><trkpt lat="31.60241527644074" lon="-4.506780557190935"><ele>869.0</ele><time>2026-03-23T08:26:20Z</time></trkpt><trkpt lat="31.602458832493653" lon="-4.50690404649776"><ele>869.0</ele><time>2026-03-23T08:26:22Z</time></trkpt><trkpt lat="31.602459372245093" lon="-4.506983097216916"><ele>868.8000000000001</ele><time>2026-03-23T08:26:23Z</time></trkpt><trkpt lat="31.60245522734811" lon="-4.507078669618813"><ele>868.6000000000001</ele><time>2026-03-23T08:26:24Z</time></trkpt><trkpt lat="31.60246141985868" lon="-4.507183233869569"><ele>868.4</ele><time>2026-03-23T08:26:25Z</time></trkpt><trkpt lat="31.602450302276043" lon="-4.507321203598134"><ele>868.2</ele><time>2026-03-23T08:26:27Z</time></trkpt><trkpt lat="31.602417762663894" lon="-4.507427499976532"><ele>868.0</ele><time>2026-03-23T08:26:29Z</time></trkpt><trkpt lat="31.602411152125068" lon="-4.507535626426495"><ele>868.0</ele><time>2026-03-23T08:26:31Z</time></trkpt><trkpt lat="31.602348890270356" lon="-4.507580386450029"><ele>868.0</ele><time>2026-03-23T08:26:34Z</time></trkpt><trkpt lat="31.602228697192647" lon="-4.5075636743888685"><ele>868.0</ele><time>2026-03-23T08:26:36Z</time></trkpt><trkpt lat="31.60213667671422" lon="-4.5075417979939285"><ele>868.0</ele><time>2026-03-23T08:26:37Z</time></trkpt><trkpt lat="31.602034661181204" lon="-4.507533531866881"><ele>868.0</ele><time>2026-03-23T08:26:38Z</time></trkpt><trkpt lat="31.601930834580237" lon="-4.507551858472674"><ele>868.4</ele><time>2026-03-23T08:26:39Z</time></trkpt><trkpt lat="31.60184801690579" lon="-4.507584498286139"><ele>868.8</ele><time>2026-03-23T08:26:40Z</time></trkpt><trkpt lat="31.601788830270767" lon="-4.5076493653483665"><ele>869.2</ele><time>2026-03-23T08:26:42Z</time></trkpt><trkpt lat="31.601808802520818" lon="-4.507738857560679"><ele>869.6</ele><time>2026-03-23T08:26:44Z</time></trkpt><trkpt lat="31.60181521994928" lon="-4.507859293917316"><ele>870.0</ele><time>2026-03-23T08:26:46Z</time></trkpt><trkpt lat="31.601859974954404" lon="-4.508011860053222"><ele>870.0</ele><time>2026-03-23T08:26:48Z</time></trkpt><trkpt lat="31.601867261021198" lon="-4.508111114781315"><ele>870.0</ele><time>2026-03-23T08:26:49Z</time></trkpt><trkpt lat="31.60188871583354" lon="-4.508205925234115"><ele>870.0</ele><time>2026-03-23T08:26:50Z</time></trkpt><trkpt lat="31.60192865117519" lon="-4.508295754052192"><ele>870.0</ele><time>2026-03-23T08:26:51Z</time></trkpt><trkpt lat="31.601982909122064" lon="-4.508393930599716"><ele>870.0</ele><time>2026-03-23T08:26:52Z</time></trkpt><trkpt lat="31.602047140889646" lon="-4.508488316786243"><ele>870.5</ele><time>2026-03-23T08:26:53Z</time></trkpt><trkpt lat="31.60213786343124" lon="-4.508609198850968"><ele>871.0</ele><time>2026-03-23T08:26:54Z</time></trkpt><trkpt lat="31.602233799476984" lon="-4.5087272469127155"><ele>871.5</ele><time>2026-03-23T08:26:55Z</time></trkpt><trkpt lat="31.60232769041197" lon="-4.508860203580321"><ele>872.0</ele><time>2026-03-23T08:26:56Z</time></trkpt><trkpt lat="31.6024628519856" lon="-4.508952646404085"><ele>872.5</ele><time>2026-03-23T08:26:57Z</time></trkpt><trkpt lat="31.602578430450244" lon="-4.50904470114138"><ele>873.0</ele><time>2026-03-23T08:26:58Z</time></trkpt><trkpt lat="31.60270194259888" lon="-4.5091495893615585"><ele>873.5</ele><time>2026-03-23T08:26:59Z</time></trkpt><trkpt lat="31.602828921151268" lon="-4.509258222825202"><ele>874.0</ele><time>2026-03-23T08:27:00Z</time></trkpt><trkpt lat="31.602940630589533" lon="-4.509358085576911"><ele>874.25</ele><time>2026-03-23T08:27:01Z</time></trkpt><trkpt lat="31.603028769460582" lon="-4.509438813674719"><ele>874.5</ele><time>2026-03-23T08:27:02Z</time></trkpt><trkpt lat="31.603050260138417" lon="-4.509566792848301"><ele>874.75</ele><time>2026-03-23T08:27:03Z</time></trkpt><trkpt lat="31.60310632316815" lon="-4.509683755494297"><ele>875.0</ele><time>2026-03-23T08:27:04Z</time></trkpt><trkpt lat="31.60317133289172" lon="-4.509819460645588"><ele>875.0</ele><time>2026-03-23T08:27:05Z</time></trkpt><trkpt lat="31.603246447390628" lon="-4.509976265155571"><ele>875.0</ele><time>2026-03-23T08:27:06Z</time></trkpt><trkpt lat="31.603320972412998" lon="-4.510131426804495"><ele>875.0</ele><time>2026-03-23T08:27:07Z</time></trkpt><trkpt lat="31.603399071735822" lon="-4.5103003813988325"><ele>874.0</ele><time>2026-03-23T08:27:08Z</time></trkpt><trkpt lat="31.60347738952544" lon="-4.510469637924229"><ele>873.0</ele><time>2026-03-23T08:27:09Z</time></trkpt><trkpt lat="31.603564993490863" lon="-4.510656585714064"><ele>872.0</ele><time>2026-03-23T08:27:10Z</time></trkpt><trkpt lat="31.60364695549599" lon="-4.510831493381308"><ele>872.0</ele><time>2026-03-23T08:27:11Z</time></trkpt><trkpt lat="31.60374885399262" lon="-4.511008019629382"><ele>872.0</ele><time>2026-03-23T08:27:12Z</time></trkpt><trkpt lat="31.60387264507617" lon="-4.51117841186401"><ele>872.0</ele><time>2026-03-23T08:27:13Z</time></trkpt><trkpt lat="31.603934805043032" lon="-4.511263865281471"><ele>872.0</ele><time>2026-03-23T08:27:14Z</time></trkpt><trkpt lat="31.60404093429021" lon="-4.511408977180164"><ele>872.0</ele><time>2026-03-23T08:27:15Z</time></trkpt><trkpt lat="31.60413756143062" lon="-4.511541015414659"><ele>872.0</ele><time>2026-03-23T08:27:16Z</time></trkpt><trkpt lat="31.6042195471829" lon="-4.511675204793529"><ele>872.0</ele><time>2026-03-23T08:27:17Z</time></trkpt><trkpt lat="31.60431026269246" lon="-4.511822492338268"><ele>872.0</ele><time>2026-03-23T08:27:18Z</time></trkpt><trkpt lat="31.604403319509228" lon="-4.511973581246775"><ele>872.0</ele><time>2026-03-23T08:27:19Z</time></trkpt><trkpt lat="31.604494968172467" lon="-4.512122600895424"><ele>873.0</ele><time>2026-03-23T08:27:20Z</time></trkpt><trkpt lat="31.604591754051903" lon="-4.512280513050759"><ele>874.0</ele><time>2026-03-23T08:27:21Z</time></trkpt><trkpt lat="31.604689043494083" lon="-4.512439247104101"><ele>875.0</ele><time>2026-03-23T08:27:22Z</time></trkpt><trkpt lat="31.604789351051025" lon="-4.512602905290253"><ele>875.0</ele><time>2026-03-23T08:27:23Z</time></trkpt><trkpt lat="31.604903632826197" lon="-4.512766870894298"><ele>875.0</ele><time>2026-03-23T08:27:24Z</time></trkpt><trkpt lat="31.605014358648795" lon="-4.51292090357969"><ele>875.0</ele><time>2026-03-23T08:27:25Z</time></trkpt><trkpt lat="31.6051230041322" lon="-4.513072042221102"><ele>874.75</ele><time>2026-03-23T08:27:26Z</time></trkpt><trkpt lat="31.60523401898478" lon="-4.513226297844532"><ele>874.5</ele><time>2026-03-23T08:27:27Z</time></trkpt><trkpt lat="31.605332067058963" lon="-4.513362602075878"><ele>874.25</ele><time>2026-03-23T08:27:28Z</time></trkpt><trkpt lat="31.605402606771968" lon="-4.5134608762491695"><ele>874.0</ele><time>2026-03-23T08:27:29Z</time></trkpt><trkpt lat="31.605497719634418" lon="-4.513593385098532"><ele>874.0</ele><time>2026-03-23T08:27:30Z</time></trkpt><trkpt lat="31.605591460831935" lon="-4.513723983004277"><ele>874.0</ele><time>2026-03-23T08:27:31Z</time></trkpt><trkpt lat="31.605705462659706" lon="-4.513880228469723"><ele>874.0</ele><time>2026-03-23T08:27:32Z</time></trkpt><trkpt lat="31.6058380998582" lon="-4.51405262439791"><ele>874.3333333333333</ele><time>2026-03-23T08:27:33Z</time></trkpt><trkpt lat="31.605971511969717" lon="-4.5142260279025805"><ele>874.6666666666667</ele><time>2026-03-23T08:27:34Z</time></trkpt><trkpt lat="31.60610885343424" lon="-4.514403767400358"><ele>875.0</ele><time>2026-03-23T08:27:35Z</time></trkpt><trkpt lat="31.606246884183616" lon="-4.514582354393434"><ele>875.3333333333334</ele><time>2026-03-23T08:27:36Z</time></trkpt><trkpt lat="31.606357259255645" lon="-4.5147251597816185"><ele>875.6666666666667</ele><time>2026-03-23T08:27:37Z</time></trkpt><trkpt lat="31.606458411805686" lon="-4.514856032953454"><ele>876.0</ele><time>2026-03-23T08:27:38Z</time></trkpt><trkpt lat="31.606595908166895" lon="-4.51500501102878"><ele>876.0</ele><time>2026-03-23T08:27:39Z</time></trkpt><trkpt lat="31.606711943378897" lon="-4.515119871323292"><ele>876.0</ele><time>2026-03-23T08:27:40Z</time></trkpt><trkpt lat="31.606829248306237" lon="-4.515236001615851"><ele>876.0</ele><time>2026-03-23T08:27:41Z</time></trkpt><trkpt lat="31.606968793350454" lon="-4.515376214241997"><ele>876.0</ele><time>2026-03-23T08:27:42Z</time></trkpt><trkpt lat="31.607117657174793" lon="-4.51546622499169"><ele>876.0</ele><time>2026-03-23T08:27:43Z</time></trkpt><trkpt lat="31.607273253557047" lon="-4.51554903873374"><ele>876.0</ele><time>2026-03-23T08:27:44Z</time></trkpt><trkpt lat="31.607420724509808" lon="-4.5156149545901"><ele>876.0</ele><time>2026-03-23T08:27:45Z</time></trkpt><trkpt lat="31.607640398612407" lon="-4.515719908631926"><ele>876.0</ele><time>2026-03-23T08:27:46Z</time></trkpt><trkpt lat="31.607838410850636" lon="-4.515795430022666"><ele>876.0</ele><time>2026-03-23T08:27:47Z</time></trkpt><trkpt lat="31.60835599689885" lon="-4.515250569932044"><ele>876.25</ele><time>2026-03-23T08:27:48Z</time></trkpt><trkpt lat="31.608499947989895" lon="-4.515334496423156"><ele>876.5</ele><time>2026-03-23T08:27:49Z</time></trkpt><trkpt lat="31.608612183613715" lon="-4.515426068025982"><ele>876.75</ele><time>2026-03-23T08:27:50Z</time></trkpt><trkpt lat="31.60870601124289" lon="-4.5155203110513655"><ele>877.0</ele><time>2026-03-23T08:27:51Z</time></trkpt><trkpt lat="31.60880069674624" lon="-4.515628358900708"><ele>878.0</ele><time>2026-03-23T08:27:52Z</time></trkpt><trkpt lat="31.608877071180565" lon="-4.515743627919873"><ele>879.0</ele><time>2026-03-23T08:27:53Z</time></trkpt><trkpt lat="31.608925226257437" lon="-4.515874710159323"><ele>880.0</ele><time>2026-03-23T08:27:54Z</time></trkpt><trkpt lat="31.609000149432003" lon="-4.516014650455571"><ele>881.0</ele><time>2026-03-23T08:27:55Z</time></trkpt><trkpt lat="31.609079933629832" lon="-4.516159939382372"><ele>881.0</ele><time>2026-03-23T08:27:56Z</time></trkpt><trkpt lat="31.609151810915183" lon="-4.5163150463720285"><ele>881.0</ele><time>2026-03-23T08:27:57Z</time></trkpt><trkpt lat="31.60922719400286" lon="-4.516480906155091"><ele>881.0</ele><time>2026-03-23T08:27:58Z</time></trkpt><trkpt lat="31.609321613706232" lon="-4.5166799353728075"><ele>881.0</ele><time>2026-03-23T08:27:59Z</time></trkpt><trkpt lat="31.609410854849724" lon="-4.516853207533632"><ele>881.0</ele><time>2026-03-23T08:28:00Z</time></trkpt><trkpt lat="31.609488540072693" lon="-4.51700902622179"><ele>881.0</ele><time>2026-03-23T08:28:01Z</time></trkpt><trkpt lat="31.609565946345295" lon="-4.517160235562214"><ele>881.6666666666667</ele><time>2026-03-23T08:28:02Z</time></trkpt><trkpt lat="31.609651426792837" lon="-4.517320391673628"><ele>882.3333333333333</ele><time>2026-03-23T08:28:03Z</time></trkpt><trkpt lat="31.609745125914078" lon="-4.517481131018368"><ele>883.0</ele><time>2026-03-23T08:28:04Z</time></trkpt><trkpt lat="31.60984411087254" lon="-4.5176541014936324"><ele>883.0</ele><time>2026-03-23T08:28:05Z</time></trkpt><trkpt lat="31.60994498428564" lon="-4.517826529396871"><ele>883.0</ele><time>2026-03-23T08:28:06Z</time></trkpt><trkpt lat="31.610052926039184" lon="-4.517995991202335"><ele>883.0</ele><time>2026-03-23T08:28:07Z</time></trkpt><trkpt lat="31.610171266165782" lon="-4.518170675416996"><ele>882.6666666666666</ele><time>2026-03-23T08:28:08Z</time></trkpt><trkpt lat="31.610277479494872" lon="-4.518321813085362"><ele>882.3333333333333</ele><time>2026-03-23T08:28:09Z</time></trkpt><trkpt lat="31.61038240139288" lon="-4.518456560338526"><ele>882.0</ele><time>2026-03-23T08:28:10Z</time></trkpt><trkpt lat="31.610495004521194" lon="-4.518607916919584"><ele>882.3333333333333</ele><time>2026-03-23T08:28:11Z</time></trkpt><trkpt lat="31.610600588475016" lon="-4.518779099932451"><ele>882.6666666666666</ele><time>2026-03-23T08:28:12Z</time></trkpt><trkpt lat="31.610690136454707" lon="-4.51894410218315"><ele>883.0</ele><time>2026-03-23T08:28:13Z</time></trkpt><trkpt lat="31.610767626675766" lon="-4.5191069180148995"><ele>883.0</ele><time>2026-03-23T08:28:14Z</time></trkpt><trkpt lat="31.610849169758" lon="-4.51925649874983"><ele>883.0</ele><time>2026-03-23T08:28:15Z</time></trkpt><trkpt lat="31.61093629169646" lon="-4.519420373631919"><ele>883.0</ele><time>2026-03-23T08:28:16Z</time></trkpt><trkpt lat="31.61102033157635" lon="-4.519590710432094"><ele>883.3333333333333</ele><time>2026-03-23T08:28:17Z</time></trkpt><trkpt lat="31.61109970450412" lon="-4.519749128797901"><ele>883.6666666666667</ele><time>2026-03-23T08:28:18Z</time></trkpt><trkpt lat="31.611176614485125" lon="-4.519901880211059"><ele>884.0</ele><time>2026-03-23T08:28:19Z</time></trkpt><trkpt lat="31.611251902207652" lon="-4.5200616599281815"><ele>884.25</ele><time>2026-03-23T08:28:20Z</time></trkpt><trkpt lat="31.611330350719108" lon="-4.520218613933434"><ele>884.5</ele><time>2026-03-23T08:28:21Z</time></trkpt><trkpt lat="31.611398555639898" lon="-4.520352564813444"><ele>884.75</ele><time>2026-03-23T08:28:22Z</time></trkpt><trkpt lat="31.611446622082408" lon="-4.5204840075691095"><ele>885.0</ele><time>2026-03-23T08:28:23Z</time></trkpt><trkpt lat="31.611509907551063" lon="-4.520558592540105"><ele>884.6666666666666</ele><time>2026-03-23T08:28:24Z</time></trkpt><trkpt lat="31.611561644153827" lon="-4.520616066546986"><ele>884.3333333333333</ele><time>2026-03-23T08:28:26Z</time></trkpt><trkpt lat="31.611630787377177" lon="-4.520702032070471"><ele>884.0</ele><time>2026-03-23T08:28:36Z</time></trkpt><trkpt lat="31.611687731095518" lon="-4.520772830020939"><ele>883.6666666666666</ele><time>2026-03-23T08:28:37Z</time></trkpt><trkpt lat="31.611752582985172" lon="-4.5208534602470865"><ele>883.3333333333333</ele><time>2026-03-23T08:28:38Z</time></trkpt><trkpt lat="31.61180286929799" lon="-4.520915905526462"><ele>883.0</ele><time>2026-03-23T08:28:39Z</time></trkpt><trkpt lat="31.611856906979774" lon="-4.520982888602041"><ele>883.0</ele><time>2026-03-23T08:28:40Z</time></trkpt><trkpt lat="31.611916335679204" lon="-4.521056553099536"><ele>883.0</ele><time>2026-03-23T08:28:41Z</time></trkpt><trkpt lat="31.61197788641649" lon="-4.521111151864896"><ele>883.0</ele><time>2026-03-23T08:28:42Z</time></trkpt><trkpt lat="31.612047864599308" lon="-4.521181948969728"><ele>883.0</ele><time>2026-03-23T08:28:43Z</time></trkpt><trkpt lat="31.612137656468104" lon="-4.521272810422947"><ele>883.0</ele><time>2026-03-23T08:28:44Z</time></trkpt><trkpt lat="31.612228091454732" lon="-4.52136437134823"><ele>883.1666666666666</ele><time>2026-03-23T08:28:45Z</time></trkpt><trkpt lat="31.612303602997642" lon="-4.521440823148957"><ele>883.3333333333333</ele><time>2026-03-23T08:28:46Z</time></trkpt><trkpt lat="31.612367438936204" lon="-4.5215054538565544"><ele>883.5</ele><time>2026-03-23T08:28:47Z</time></trkpt><trkpt lat="31.612419886468594" lon="-4.5215585531603475"><ele>883.6666666666667</ele><time>2026-03-23T08:28:48Z</time></trkpt><trkpt lat="31.612485332236147" lon="-4.521593728589514"><ele>883.8333333333334</ele><time>2026-03-23T08:28:51Z</time></trkpt><trkpt lat="31.61258186555675" lon="-4.521665711735774"><ele>884.0</ele><time>2026-03-23T08:28:54Z</time></trkpt><trkpt lat="31.612652649166073" lon="-4.521718493866137"><ele>884.0</ele><time>2026-03-23T08:28:56Z</time></trkpt><trkpt lat="31.61272681067432" lon="-4.521773794594577"><ele>884.0</ele><time>2026-03-23T08:28:57Z</time></trkpt><trkpt lat="31.612801622444092" lon="-4.521843940215673"><ele>884.0</ele><time>2026-03-23T08:28:58Z</time></trkpt><trkpt lat="31.612941178384123" lon="-4.521918914658122"><ele>884.0</ele><time>2026-03-23T08:28:59Z</time></trkpt><trkpt lat="31.613084998064284" lon="-4.521997014595028"><ele>884.5</ele><time>2026-03-23T08:29:00Z</time></trkpt><trkpt lat="31.613217110237237" lon="-4.522067512937193"><ele>885.0</ele><time>2026-03-23T08:29:01Z</time></trkpt><trkpt lat="31.613321991057603" lon="-4.522123773509317"><ele>885.5</ele><time>2026-03-23T08:29:02Z</time></trkpt><trkpt lat="31.61340707953056" lon="-4.52216971355787"><ele>886.0</ele><time>2026-03-23T08:29:03Z</time></trkpt><trkpt lat="31.613502413282387" lon="-4.522221185095286"><ele>886.0</ele><time>2026-03-23T08:29:04Z</time></trkpt><trkpt lat="31.61360927972091" lon="-4.522278882290103"><ele>886.0</ele><time>2026-03-23T08:29:05Z</time></trkpt><trkpt lat="31.613724749580722" lon="-4.522341225440491"><ele>886.0</ele><time>2026-03-23T08:29:06Z</time></trkpt><trkpt lat="31.613849829604465" lon="-4.522408892786957"><ele>886.0</ele><time>2026-03-23T08:29:07Z</time></trkpt><trkpt lat="31.613990655549042" lon="-4.522485895397993"><ele>886.3333333333333</ele><time>2026-03-23T08:29:08Z</time></trkpt><trkpt lat="31.614138520572897" lon="-4.5225664159865095"><ele>886.6666666666667</ele><time>2026-03-23T08:29:09Z</time></trkpt><trkpt lat="31.614286661533473" lon="-4.52264696940304"><ele>887.0</ele><time>2026-03-23T08:29:10Z</time></trkpt><trkpt lat="31.6144356737175" lon="-4.522728065306044"><ele>886.6666666666667</ele><time>2026-03-23T08:29:11Z</time></trkpt><trkpt lat="31.614585211614667" lon="-4.522850039693102"><ele>886.3333333333333</ele><time>2026-03-23T08:29:12Z</time></trkpt><trkpt lat="31.614693774167463" lon="-4.522958966503916"><ele>886.0</ele><time>2026-03-23T08:29:13Z</time></trkpt><trkpt lat="31.61480723965317" lon="-4.523072812928549"><ele>886.0</ele><time>2026-03-23T08:29:14Z</time></trkpt><trkpt lat="31.61491767889995" lon="-4.523196176023852"><ele>886.0</ele><time>2026-03-23T08:29:15Z</time></trkpt><trkpt lat="31.61501957518424" lon="-4.523309136358388"><ele>886.0</ele><time>2026-03-23T08:29:16Z</time></trkpt><trkpt lat="31.615113914868815" lon="-4.523413720024236"><ele>886.0</ele><time>2026-03-23T08:29:17Z</time></trkpt><trkpt lat="31.615203958058054" lon="-4.523513540572522"><ele>886.0</ele><time>2026-03-23T08:29:18Z</time></trkpt><trkpt lat="31.615289503753594" lon="-4.523622552498816"><ele>885.9999999999999</ele><time>2026-03-23T08:29:19Z</time></trkpt><trkpt lat="31.615354181996672" lon="-4.523705507376393"><ele>885.9999999999999</ele><time>2026-03-23T08:29:20Z</time></trkpt><trkpt lat="31.61539956405655" lon="-4.5237637135492985"><ele>886.0</ele><time>2026-03-23T08:29:22Z</time></trkpt><trkpt lat="31.61545318331229" lon="-4.523832484509607"><ele>886.0</ele><time>2026-03-23T08:29:44Z</time></trkpt><trkpt lat="31.61551292246926" lon="-4.523909104765062"><ele>887.3333333333333</ele><time>2026-03-23T08:29:45Z</time></trkpt><trkpt lat="31.615597386975256" lon="-4.524017437158234"><ele>888.6666666666667</ele><time>2026-03-23T08:29:46Z</time></trkpt><trkpt lat="31.61568659018202" lon="-4.524131848400372"><ele>890.0</ele><time>2026-03-23T08:29:47Z</time></trkpt><trkpt lat="31.615767323985125" lon="-4.524337099454437"><ele>890.0</ele><time>2026-03-23T08:29:48Z</time></trkpt><trkpt lat="31.615851466304864" lon="-4.52452220019882"><ele>890.0</ele><time>2026-03-23T08:29:49Z</time></trkpt><trkpt lat="31.61593850148216" lon="-4.52471366533945"><ele>890.0</ele><time>2026-03-23T08:29:50Z</time></trkpt><trkpt lat="31.61598892179275" lon="-4.524892097069003"><ele>889.75</ele><time>2026-03-23T08:29:51Z</time></trkpt><trkpt lat="31.61605430351375" lon="-4.525037119662449"><ele>889.5</ele><time>2026-03-23T08:29:52Z</time></trkpt><trkpt lat="31.61611457942976" lon="-4.525176707958052"><ele>889.25</ele><time>2026-03-23T08:29:53Z</time></trkpt><trkpt lat="31.61616497020971" lon="-4.525322262751495"><ele>889.0</ele><time>2026-03-23T08:29:54Z</time></trkpt><trkpt lat="31.61620463172013" lon="-4.525465899617003"><ele>888.75</ele><time>2026-03-23T08:29:55Z</time></trkpt><trkpt lat="31.61622608556159" lon="-4.525609784979023"><ele>888.5</ele><time>2026-03-23T08:29:56Z</time></trkpt><trkpt lat="31.616260771888822" lon="-4.525744123042234"><ele>888.25</ele><time>2026-03-23T08:29:57Z</time></trkpt><trkpt lat="31.616292256633887" lon="-4.5258911162697215"><ele>888.0</ele><time>2026-03-23T08:29:58Z</time></trkpt><trkpt lat="31.616323271391824" lon="-4.526042119364289"><ele>888.0</ele><time>2026-03-23T08:29:59Z</time></trkpt><trkpt lat="31.616353321099645" lon="-4.526192459505713"><ele>888.0</ele><time>2026-03-23T08:30:00Z</time></trkpt><trkpt lat="31.61638549691927" lon="-4.52634222775407"><ele>888.0</ele><time>2026-03-23T08:30:01Z</time></trkpt><trkpt lat="31.61641774916086" lon="-4.526491041897191"><ele>888.0</ele><time>2026-03-23T08:30:02Z</time></trkpt><trkpt lat="31.616448935704646" lon="-4.526634938389757"><ele>889.0</ele><time>2026-03-23T08:30:03Z</time></trkpt><trkpt lat="31.616476442284835" lon="-4.526761856035261"><ele>890.0</ele><time>2026-03-23T08:30:04Z</time></trkpt><trkpt lat="31.616171474914108" lon="-4.526988744461644"><ele>889.25</ele><time>2026-03-23T08:30:05Z</time></trkpt><trkpt lat="31.616148381775574" lon="-4.527142059281211"><ele>888.5</ele><time>2026-03-23T08:30:06Z</time></trkpt><trkpt lat="31.616109234425718" lon="-4.527296573868265"><ele>887.75</ele><time>2026-03-23T08:30:07Z</time></trkpt><trkpt lat="31.61609311343874" lon="-4.527459535509297"><ele>887.0</ele><time>2026-03-23T08:30:08Z</time></trkpt><trkpt lat="31.61605025803252" lon="-4.527593968029679"><ele>887.0</ele><time>2026-03-23T08:30:09Z</time></trkpt><trkpt lat="31.616007382425433" lon="-4.527731344388951"><ele>887.0</ele><time>2026-03-23T08:30:10Z</time></trkpt><trkpt lat="31.615965508299247" lon="-4.527865965943673"><ele>887.0</ele><time>2026-03-23T08:30:11Z</time></trkpt><trkpt lat="31.615926537947242" lon="-4.527991110200426"><ele>887.0</ele><time>2026-03-23T08:30:12Z</time></trkpt><trkpt lat="31.615893417705674" lon="-4.528097465739443"><ele>887.0</ele><time>2026-03-23T08:30:13Z</time></trkpt><trkpt lat="31.615801217325263" lon="-4.528171143373621"><ele>887.0</ele><time>2026-03-23T08:30:14Z</time></trkpt><trkpt lat="31.615739093263613" lon="-4.528250924429666"><ele>887.0</ele><time>2026-03-23T08:30:15Z</time></trkpt><trkpt lat="31.61560930200282" lon="-4.528310581968712"><ele>887.0</ele><time>2026-03-23T08:30:16Z</time></trkpt><trkpt lat="31.61548468898594" lon="-4.528343604835339"><ele>887.0</ele><time>2026-03-23T08:30:17Z</time></trkpt><trkpt lat="31.615353112357326" lon="-4.528368211882708"><ele>887.0</ele><time>2026-03-23T08:30:18Z</time></trkpt><trkpt lat="31.615209013014013" lon="-4.528392876023585"><ele>887.0</ele><time>2026-03-23T08:30:19Z</time></trkpt><trkpt lat="31.61507399987377" lon="-4.528440458721791"><ele>887.0</ele><time>2026-03-23T08:30:20Z</time></trkpt><trkpt lat="31.614940014901265" lon="-4.528467853412986"><ele>887.0</ele><time>2026-03-23T08:30:21Z</time></trkpt><trkpt lat="31.61480575548074" lon="-4.52849530423448"><ele>887.0</ele><time>2026-03-23T08:30:22Z</time></trkpt><trkpt lat="31.61466738671431" lon="-4.528523595239831"><ele>887.0</ele><time>2026-03-23T08:30:23Z</time></trkpt><trkpt lat="31.61452782483497" lon="-4.528552061603536"><ele>887.0</ele><time>2026-03-23T08:30:24Z</time></trkpt><trkpt lat="31.614388614457685" lon="-4.528580442402543"><ele>887.0</ele><time>2026-03-23T08:30:25Z</time></trkpt><trkpt lat="31.614250654910382" lon="-4.5286085682759145"><ele>887.0</ele><time>2026-03-23T08:30:26Z</time></trkpt><trkpt lat="31.614118344685156" lon="-4.528653899845496"><ele>887.0</ele><time>2026-03-23T08:30:27Z</time></trkpt><trkpt lat="31.613983894384425" lon="-4.528707903984755"><ele>887.0</ele><time>2026-03-23T08:30:28Z</time></trkpt><trkpt lat="31.613843239219026" lon="-4.528764130313898"><ele>886.25</ele><time>2026-03-23T08:30:29Z</time></trkpt><trkpt lat="31.613697687732618" lon="-4.528796003628946"><ele>885.5</ele><time>2026-03-23T08:30:30Z</time></trkpt><trkpt lat="31.613562517456927" lon="-4.5288183419838335"><ele>884.75</ele><time>2026-03-23T08:30:31Z</time></trkpt><trkpt lat="31.61344348061035" lon="-4.528840711057494"><ele>884.0</ele><time>2026-03-23T08:30:32Z</time></trkpt><trkpt lat="31.61332221179631" lon="-4.528829928116518"><ele>883.75</ele><time>2026-03-23T08:30:33Z</time></trkpt><trkpt lat="31.613186115911574" lon="-4.528828410213938"><ele>883.5</ele><time>2026-03-23T08:30:34Z</time></trkpt><trkpt lat="31.613041456958324" lon="-4.528826796804107"><ele>883.25</ele><time>2026-03-23T08:30:35Z</time></trkpt><trkpt lat="31.612902218822263" lon="-4.528829795455185"><ele>883.0</ele><time>2026-03-23T08:30:36Z</time></trkpt><trkpt lat="31.612764677018124" lon="-4.528790334820989"><ele>882.8</ele><time>2026-03-23T08:30:37Z</time></trkpt><trkpt lat="31.612638863760257" lon="-4.528781052133763"><ele>882.5999999999999</ele><time>2026-03-23T08:30:38Z</time></trkpt><trkpt lat="31.61251813136497" lon="-4.528766240368612"><ele>882.4000000000001</ele><time>2026-03-23T08:30:39Z</time></trkpt><trkpt lat="31.612405100947942" lon="-4.528755923322773"><ele>882.2</ele><time>2026-03-23T08:30:40Z</time></trkpt><trkpt lat="31.61232002880382" lon="-4.528749264770308"><ele>882.0</ele><time>2026-03-23T08:30:41Z</time></trkpt><trkpt lat="31.612252237749253" lon="-4.528762431543579"><ele>882.0</ele><time>2026-03-23T08:30:42Z</time></trkpt><trkpt lat="31.61218390612705" lon="-4.528757619540977"><ele>882.0</ele><time>2026-03-23T08:30:43Z</time></trkpt><trkpt lat="31.612093127916413" lon="-4.528725151699225"><ele>882.0</ele><time>2026-03-23T08:30:44Z</time></trkpt><trkpt lat="31.612022741515457" lon="-4.528726414129443"><ele>882.0</ele><time>2026-03-23T08:30:45Z</time></trkpt><trkpt lat="31.61195311925505" lon="-4.528700600470659"><ele>882.0</ele><time>2026-03-23T08:30:46Z</time></trkpt><trkpt lat="31.611872067206306" lon="-4.528679730051695"><ele>882.0</ele><time>2026-03-23T08:30:47Z</time></trkpt><trkpt lat="31.61179266204486" lon="-4.528659283690314"><ele>881.8</ele><time>2026-03-23T08:30:48Z</time></trkpt><trkpt lat="31.61169275252702" lon="-4.52863541488353"><ele>881.6</ele><time>2026-03-23T08:30:49Z</time></trkpt><trkpt lat="31.61162071935946" lon="-4.528620290451123"><ele>881.3999999999999</ele><time>2026-03-23T08:30:50Z</time></trkpt><trkpt lat="31.611548995516017" lon="-4.528605000614766"><ele>881.1999999999999</ele><time>2026-03-23T08:30:51Z</time></trkpt><trkpt lat="31.611473266127096" lon="-4.5285886915316755"><ele>881.0</ele><time>2026-03-23T08:30:52Z</time></trkpt><trkpt lat="31.611327235283593" lon="-4.5285579756412035"><ele>881.0</ele><time>2026-03-23T08:30:54Z</time></trkpt><trkpt lat="31.611194311223667" lon="-4.5285527756862995"><ele>881.0</ele><time>2026-03-23T08:30:56Z</time></trkpt><trkpt lat="31.61110820782753" lon="-4.528549541455026"><ele>881.0</ele><time>2026-03-23T08:30:57Z</time></trkpt><trkpt lat="31.610961558429167" lon="-4.528565135167522"><ele>881.0</ele><time>2026-03-23T08:30:58Z</time></trkpt><trkpt lat="31.61086272486887" lon="-4.528585620786798"><ele>880.8333333333334</ele><time>2026-03-23T08:30:59Z</time></trkpt><trkpt lat="31.610763418942216" lon="-4.528606204348334"><ele>880.6666666666667</ele><time>2026-03-23T08:31:00Z</time></trkpt><trkpt lat="31.610677182881812" lon="-4.528624079110746"><ele>880.5</ele><time>2026-03-23T08:31:01Z</time></trkpt><trkpt lat="31.610613411451897" lon="-4.528658771145455"><ele>880.3333333333333</ele><time>2026-03-23T08:31:02Z</time></trkpt><trkpt lat="31.610535181797175" lon="-4.52870667315116"><ele>880.1666666666666</ele><time>2026-03-23T08:31:04Z</time></trkpt><trkpt lat="31.610435333134067" lon="-4.528708365595242"><ele>880.0</ele><time>2026-03-23T08:31:06Z</time></trkpt><trkpt lat="31.610378266578902" lon="-4.5287484645100085"><ele>880.2</ele><time>2026-03-23T08:31:07Z</time></trkpt><trkpt lat="31.61025849310072" lon="-4.52879087182325"><ele>880.4</ele><time>2026-03-23T08:31:09Z</time></trkpt><trkpt lat="31.61019623129616" lon="-4.528812231684589"><ele>880.5999999999999</ele><time>2026-03-23T08:31:10Z</time></trkpt><trkpt lat="31.610081111775933" lon="-4.528865392897055"><ele>880.8</ele><time>2026-03-23T08:31:12Z</time></trkpt><trkpt lat="31.609987447069958" lon="-4.5289113900335485"><ele>881.0</ele><time>2026-03-23T08:31:14Z</time></trkpt><trkpt lat="31.60990879315942" lon="-4.528965343998176"><ele>881.0</ele><time>2026-03-23T08:31:15Z</time></trkpt><trkpt lat="31.609840718065335" lon="-4.528984843862716"><ele>881.0</ele><time>2026-03-23T08:31:16Z</time></trkpt><trkpt lat="31.60976276139793" lon="-4.529007173752883"><ele>881.0</ele><time>2026-03-23T08:31:17Z</time></trkpt><trkpt lat="31.60969458675201" lon="-4.529026701585085"><ele>881.0</ele><time>2026-03-23T08:31:18Z</time></trkpt><trkpt lat="31.60963174995519" lon="-4.529044700505222"><ele>881.0</ele><time>2026-03-23T08:31:19Z</time></trkpt><trkpt lat="31.609557619332882" lon="-4.529065934394228"><ele>881.0</ele><time>2026-03-23T08:31:20Z</time></trkpt><trkpt lat="31.609485057581214" lon="-4.5290867189029695"><ele>881.0</ele><time>2026-03-23T08:31:21Z</time></trkpt><trkpt lat="31.609356757030028" lon="-4.529098873914708"><ele>881.0000000000001</ele><time>2026-03-23T08:31:22Z</time></trkpt><trkpt lat="31.609278845901024" lon="-4.529102190891289"><ele>881.0</ele><time>2026-03-23T08:31:23Z</time></trkpt><trkpt lat="31.609195663312637" lon="-4.529105549768123"><ele>881.0</ele><time>2026-03-23T08:31:24Z</time></trkpt><trkpt lat="31.609099692903506" lon="-4.52909920097467"><ele>881.0</ele><time>2026-03-23T08:31:25Z</time></trkpt><trkpt lat="31.609024211044257" lon="-4.529094487489663"><ele>881.0000000000001</ele><time>2026-03-23T08:31:26Z</time></trkpt><trkpt lat="31.608961165613227" lon="-4.529090550593105"><ele>881.0</ele><time>2026-03-23T08:31:27Z</time></trkpt><trkpt lat="31.608884368087207" lon="-4.529085754947027"><ele>881.0000000000001</ele><time>2026-03-23T08:31:28Z</time></trkpt><trkpt lat="31.60880501955772" lon="-4.5290808000919895"><ele>881.0</ele><time>2026-03-23T08:31:29Z</time></trkpt><trkpt lat="31.60874028434447" lon="-4.529076757788401"><ele>881.0</ele><time>2026-03-23T08:31:30Z</time></trkpt><trkpt lat="31.608676080799146" lon="-4.529072748686945"><ele>881.0</ele><time>2026-03-23T08:31:31Z</time></trkpt><trkpt lat="31.608606854819193" lon="-4.5290684259626905"><ele>881.0000000000001</ele><time>2026-03-23T08:31:32Z</time></trkpt><trkpt lat="31.608541505007988" lon="-4.528956233604898"><ele>881.0</ele><time>2026-03-23T08:31:33Z</time></trkpt><trkpt lat="31.60846144235207" lon="-4.5289288009378765"><ele>881.0000000000001</ele><time>2026-03-23T08:31:34Z</time></trkpt><trkpt lat="31.608362613458134" lon="-4.5289063589061564"><ele>881.0</ele><time>2026-03-23T08:31:35Z</time></trkpt><trkpt lat="31.608278273787946" lon="-4.528884152426847"><ele>881.0</ele><time>2026-03-23T08:31:36Z</time></trkpt><trkpt lat="31.60821118121656" lon="-4.528868010114185"><ele>881.0</ele><time>2026-03-23T08:31:37Z</time></trkpt><trkpt lat="31.60812067270271" lon="-4.528870630413494"><ele>881.0000000000001</ele><time>2026-03-23T08:31:38Z</time></trkpt><trkpt lat="31.608034957745705" lon="-4.528903395126111"><ele>881.0</ele><time>2026-03-23T08:31:39Z</time></trkpt><trkpt lat="31.60793425426766" lon="-4.528925287558125"><ele>881.0</ele><time>2026-03-23T08:31:40Z</time></trkpt><trkpt lat="31.607833843627613" lon="-4.528936573800869"><ele>880.9999999999999</ele><time>2026-03-23T08:31:41Z</time></trkpt><trkpt lat="31.607744314773914" lon="-4.528946188904035"><ele>880.9999999999999</ele><time>2026-03-23T08:31:42Z</time></trkpt><trkpt lat="31.60764639840375" lon="-4.528971144010124"><ele>881.0</ele><time>2026-03-23T08:31:43Z</time></trkpt><trkpt lat="31.607556410734272" lon="-4.529006418464924"><ele>881.0</ele><time>2026-03-23T08:31:44Z</time></trkpt><trkpt lat="31.607468316517643" lon="-4.5290420132605975"><ele>880.6666666666667</ele><time>2026-03-23T08:31:45Z</time></trkpt><trkpt lat="31.607393773616597" lon="-4.529073625337622"><ele>880.3333333333334</ele><time>2026-03-23T08:31:46Z</time></trkpt><trkpt lat="31.60731883899329" lon="-4.5291122044240755"><ele>880.0</ele><time>2026-03-23T08:31:47Z</time></trkpt><trkpt lat="31.607254883179298" lon="-4.529156608507223"><ele>879.6666666666667</ele><time>2026-03-23T08:31:48Z</time></trkpt><trkpt lat="31.60717410760057" lon="-4.5292339717643735"><ele>879.3333333333334</ele><time>2026-03-23T08:31:50Z</time></trkpt><trkpt lat="31.607132814707263" lon="-4.529292019219167"><ele>879.0</ele><time>2026-03-23T08:31:51Z</time></trkpt><trkpt lat="31.607085455769738" lon="-4.529352057696887"><ele>879.0</ele><time>2026-03-23T08:31:52Z</time></trkpt><trkpt lat="31.607025547150176" lon="-4.529422969755759"><ele>879.0</ele><time>2026-03-23T08:31:53Z</time></trkpt><trkpt lat="31.6069641637444" lon="-4.529484429713496"><ele>879.0</ele><time>2026-03-23T08:31:54Z</time></trkpt><trkpt lat="31.606911700500902" lon="-4.529536998181722"><ele>879.0</ele><time>2026-03-23T08:31:55Z</time></trkpt><trkpt lat="31.60685705867301" lon="-4.529580214799625"><ele>879.0</ele><time>2026-03-23T08:31:56Z</time></trkpt><trkpt lat="31.606794627109835" lon="-4.5296364412911085"><ele>879.0</ele><time>2026-03-23T08:31:57Z</time></trkpt><trkpt lat="31.606743612717214" lon="-4.529681139033806"><ele>879.0</ele><time>2026-03-23T08:31:58Z</time></trkpt><trkpt lat="31.60669065942985" lon="-4.5297291463602924"><ele>878.8000000000001</ele><time>2026-03-23T08:31:59Z</time></trkpt><trkpt lat="31.606634204988726" lon="-4.529788344377508"><ele>878.6000000000001</ele><time>2026-03-23T08:32:00Z</time></trkpt><trkpt lat="31.606568876007593" lon="-4.529855297282523"><ele>878.4</ele><time>2026-03-23T08:32:01Z</time></trkpt><trkpt lat="31.606488460498205" lon="-4.529939281630471"><ele>878.2</ele><time>2026-03-23T08:32:02Z</time></trkpt><trkpt lat="31.60640556582027" lon="-4.5300105585357455"><ele>878.0</ele><time>2026-03-23T08:32:03Z</time></trkpt><trkpt lat="31.60631312873133" lon="-4.53007459122829"><ele>878.0</ele><time>2026-03-23T08:32:04Z</time></trkpt><trkpt lat="31.606208707521034" lon="-4.530142833305904"><ele>878.0</ele><time>2026-03-23T08:32:05Z</time></trkpt><trkpt lat="31.606108080433167" lon="-4.530267468801605"><ele>878.0</ele><time>2026-03-23T08:32:06Z</time></trkpt><trkpt lat="31.605984969142284" lon="-4.530316037635041"><ele>878.0</ele><time>2026-03-23T08:32:07Z</time></trkpt><trkpt lat="31.605850142672274" lon="-4.53036922823793"><ele>879.0</ele><time>2026-03-23T08:32:08Z</time></trkpt><trkpt lat="31.605699283350585" lon="-4.53042388126976"><ele>880.0</ele><time>2026-03-23T08:32:09Z</time></trkpt><trkpt lat="31.6055537130129" lon="-4.530468013958816"><ele>881.0</ele><time>2026-03-23T08:32:10Z</time></trkpt><trkpt lat="31.605415115447155" lon="-4.530510202259365"><ele>881.0</ele><time>2026-03-23T08:32:11Z</time></trkpt><trkpt lat="31.605262799955053" lon="-4.530556566241871"><ele>881.0</ele><time>2026-03-23T08:32:12Z</time></trkpt><trkpt lat="31.60510643636569" lon="-4.530604162359613"><ele>881.0</ele><time>2026-03-23T08:32:13Z</time></trkpt><trkpt lat="31.604935466271822" lon="-4.530648249291436"><ele>881.0</ele><time>2026-03-23T08:32:14Z</time></trkpt><trkpt lat="31.604771523198977" lon="-4.530690200814835"><ele>881.0</ele><time>2026-03-23T08:32:15Z</time></trkpt><trkpt lat="31.604605825708212" lon="-4.530733118960535"><ele>881.0</ele><time>2026-03-23T08:32:16Z</time></trkpt><trkpt lat="31.604432039408664" lon="-4.530778102371463"><ele>880.3333333333334</ele><time>2026-03-23T08:32:17Z</time></trkpt><trkpt lat="31.60427704075375" lon="-4.530836717484995"><ele>879.6666666666667</ele><time>2026-03-23T08:32:18Z</time></trkpt><trkpt lat="31.604110019292445" lon="-4.530900584207268"><ele>879.0</ele><time>2026-03-23T08:32:19Z</time></trkpt><trkpt lat="31.603949964309578" lon="-4.530962132636925"><ele>879.0</ele><time>2026-03-23T08:32:20Z</time></trkpt><trkpt lat="31.60378649896444" lon="-4.531024560326028"><ele>879.0</ele><time>2026-03-23T08:32:21Z</time></trkpt><trkpt lat="31.603618240291603" lon="-4.531088391336179"><ele>879.0</ele><time>2026-03-23T08:32:22Z</time></trkpt><trkpt lat="31.603458374125026" lon="-4.531153311770999"><ele>879.3333333333333</ele><time>2026-03-23T08:32:23Z</time></trkpt><trkpt lat="31.603293386820692" lon="-4.531226264196034"><ele>879.6666666666666</ele><time>2026-03-23T08:32:24Z</time></trkpt><trkpt lat="31.603135344326258" lon="-4.5312965435116155"><ele>880.0</ele><time>2026-03-23T08:32:25Z</time></trkpt><trkpt lat="31.60297728849931" lon="-4.53136722214957"><ele>879.6666666666666</ele><time>2026-03-23T08:32:26Z</time></trkpt><trkpt lat="31.60281633093612" lon="-4.5314391984991325"><ele>879.3333333333333</ele><time>2026-03-23T08:32:27Z</time></trkpt><trkpt lat="31.60265637933677" lon="-4.531510724920679"><ele>879.0</ele><time>2026-03-23T08:32:28Z</time></trkpt><trkpt lat="31.602502702781038" lon="-4.5315794453427225"><ele>879.0</ele><time>2026-03-23T08:32:29Z</time></trkpt><trkpt lat="31.602342354899612" lon="-4.531644968441428"><ele>879.0</ele><time>2026-03-23T08:32:30Z</time></trkpt><trkpt lat="31.60216684275417" lon="-4.531707293148751"><ele>879.0</ele><time>2026-03-23T08:32:31Z</time></trkpt><trkpt lat="31.601998904943702" lon="-4.531756952650163"><ele>878.6666666666667</ele><time>2026-03-23T08:32:32Z</time></trkpt><trkpt lat="31.601839276517932" lon="-4.531804154962923"><ele>878.3333333333334</ele><time>2026-03-23T08:32:33Z</time></trkpt><trkpt lat="31.601676660985206" lon="-4.531852240626235"><ele>878.0</ele><time>2026-03-23T08:32:34Z</time></trkpt><trkpt lat="31.601507323449592" lon="-4.531896087161683"><ele>878.0</ele><time>2026-03-23T08:32:35Z</time></trkpt><trkpt lat="31.601338237161862" lon="-4.5319353483188225"><ele>878.0</ele><time>2026-03-23T08:32:36Z</time></trkpt><trkpt lat="31.601165186569272" lon="-4.531975625481301"><ele>878.0</ele><time>2026-03-23T08:32:37Z</time></trkpt><trkpt lat="31.600996996380715" lon="-4.532015132566965"><ele>877.3333333333334</ele><time>2026-03-23T08:32:38Z</time></trkpt><trkpt lat="31.600821922663755" lon="-4.532051774353047"><ele>876.6666666666667</ele><time>2026-03-23T08:32:39Z</time></trkpt><trkpt lat="31.600669125767986" lon="-4.532116076560102"><ele>876.0</ele><time>2026-03-23T08:32:40Z</time></trkpt><trkpt lat="31.600522382192718" lon="-4.532171681876553"><ele>876.0</ele><time>2026-03-23T08:32:41Z</time></trkpt><trkpt lat="31.60037582293357" lon="-4.532249744545754"><ele>876.0</ele><time>2026-03-23T08:32:42Z</time></trkpt><trkpt lat="31.60021972336194" lon="-4.532315642136507"><ele>876.0</ele><time>2026-03-23T08:32:43Z</time></trkpt><trkpt lat="31.600062490777816" lon="-4.532379495083002"><ele>875.6666666666667</ele><time>2026-03-23T08:32:44Z</time></trkpt><trkpt lat="31.599894583503207" lon="-4.532426703604875"><ele>875.3333333333334</ele><time>2026-03-23T08:32:45Z</time></trkpt><trkpt lat="31.59973244041564" lon="-4.532499803405794"><ele>875.0</ele><time>2026-03-23T08:32:46Z</time></trkpt><trkpt lat="31.599575918847673" lon="-4.53256606553742"><ele>874.75</ele><time>2026-03-23T08:32:47Z</time></trkpt><trkpt lat="31.59942242303779" lon="-4.53262842109413"><ele>874.5</ele><time>2026-03-23T08:32:48Z</time></trkpt><trkpt lat="31.59928231044819" lon="-4.532693977546354"><ele>874.25</ele><time>2026-03-23T08:32:49Z</time></trkpt><trkpt lat="31.599162559988795" lon="-4.53274987348307"><ele>874.0</ele><time>2026-03-23T08:32:50Z</time></trkpt><trkpt lat="31.59904054702472" lon="-4.532800707417681"><ele>874.0</ele><time>2026-03-23T08:32:51Z</time></trkpt><trkpt lat="31.598921273446205" lon="-4.532857039675964"><ele>874.0000000000001</ele><time>2026-03-23T08:32:52Z</time></trkpt><trkpt lat="31.59880807747762" lon="-4.532913658031764"><ele>874.0000000000001</ele><time>2026-03-23T08:32:53Z</time></trkpt><trkpt lat="31.598709443776652" lon="-4.532959535900438"><ele>874.0</ele><time>2026-03-23T08:32:54Z</time></trkpt><trkpt lat="31.598624375848434" lon="-4.532995325406396"><ele>874.0</ele><time>2026-03-23T08:32:55Z</time></trkpt><trkpt lat="31.5985611793833" lon="-4.533023871284499"><ele>874.25</ele><time>2026-03-23T08:32:56Z</time></trkpt><trkpt lat="31.59848402769709" lon="-4.5330618429006275"><ele>874.5</ele><time>2026-03-23T08:32:57Z</time></trkpt><trkpt lat="31.598358270965914" lon="-4.533083077038131"><ele>874.75</ele><time>2026-03-23T08:32:58Z</time></trkpt><trkpt lat="31.598224792354877" lon="-4.533138463333867"><ele>875.0</ele><time>2026-03-23T08:32:59Z</time></trkpt><trkpt lat="31.59810908116309" lon="-4.533171176355617"><ele>875.0</ele><time>2026-03-23T08:33:00Z</time></trkpt><trkpt lat="31.598025941377774" lon="-4.533212334426564"><ele>875.0</ele><time>2026-03-23T08:33:01Z</time></trkpt><trkpt lat="31.597858779848753" lon="-4.533114993897843"><ele>875.0</ele><time>2026-03-23T08:33:03Z</time></trkpt><trkpt lat="31.597725729582052" lon="-4.533043967984404"><ele>875.0</ele><time>2026-03-23T08:33:04Z</time></trkpt><trkpt lat="31.59759628904007" lon="-4.532952167558794"><ele>874.3333333333334</ele><time>2026-03-23T08:33:05Z</time></trkpt><trkpt lat="31.597451339309007" lon="-4.53284936789557"><ele>873.6666666666667</ele><time>2026-03-23T08:33:06Z</time></trkpt><trkpt lat="31.59729692115341" lon="-4.53274084103283"><ele>873.0</ele><time>2026-03-23T08:33:07Z</time></trkpt><trkpt lat="31.59712681839492" lon="-4.532630661154473"><ele>872.6666666666667</ele><time>2026-03-23T08:33:08Z</time></trkpt><trkpt lat="31.596974188454453" lon="-4.532531730120061"><ele>872.3333333333334</ele><time>2026-03-23T08:33:09Z</time></trkpt><trkpt lat="31.596831528119832" lon="-4.532439179153555"><ele>872.0</ele><time>2026-03-23T08:33:10Z</time></trkpt><trkpt lat="31.5966925620564" lon="-4.5323493014610605"><ele>872.0</ele><time>2026-03-23T08:33:11Z</time></trkpt><trkpt lat="31.596544789730093" lon="-4.532253160148896"><ele>872.0</ele><time>2026-03-23T08:33:12Z</time></trkpt><trkpt lat="31.596410598872975" lon="-4.532164345685631"><ele>872.0</ele><time>2026-03-23T08:33:13Z</time></trkpt><trkpt lat="31.59628068832584" lon="-4.5320696535141325"><ele>871.3333333333334</ele><time>2026-03-23T08:33:14Z</time></trkpt><trkpt lat="31.596145719341145" lon="-4.531971344183882"><ele>870.6666666666667</ele><time>2026-03-23T08:33:15Z</time></trkpt><trkpt lat="31.59601458573829" lon="-4.531875852714618"><ele>870.0</ele><time>2026-03-23T08:33:16Z</time></trkpt><trkpt lat="31.595875047038223" lon="-4.531753890351733"><ele>870.0</ele><time>2026-03-23T08:33:17Z</time></trkpt><trkpt lat="31.595754118464768" lon="-4.531628039719706"><ele>870.0</ele><time>2026-03-23T08:33:18Z</time></trkpt><trkpt lat="31.5956268972004" lon="-4.531495640450544"><ele>870.0</ele><time>2026-03-23T08:33:19Z</time></trkpt><trkpt lat="31.595504802235258" lon="-4.53136857607074"><ele>870.0</ele><time>2026-03-23T08:33:20Z</time></trkpt><trkpt lat="31.595376956236954" lon="-4.531235526428619"><ele>870.0</ele><time>2026-03-23T08:33:21Z</time></trkpt><trkpt lat="31.59524661083775" lon="-4.53109996644992"><ele>870.0</ele><time>2026-03-23T08:33:22Z</time></trkpt><trkpt lat="31.595120128076367" lon="-4.530968465881567"><ele>870.3333333333333</ele><time>2026-03-23T08:33:23Z</time></trkpt><trkpt lat="31.594994166737496" lon="-4.530838426230197"><ele>870.6666666666666</ele><time>2026-03-23T08:33:24Z</time></trkpt><trkpt lat="31.59486576931106" lon="-4.5307054291805064"><ele>871.0</ele><time>2026-03-23T08:33:25Z</time></trkpt><trkpt lat="31.59473690181916" lon="-4.530577280795733"><ele>871.0</ele><time>2026-03-23T08:33:26Z</time></trkpt><trkpt lat="31.594604609909634" lon="-4.530445727023719"><ele>871.0</ele><time>2026-03-23T08:33:27Z</time></trkpt><trkpt lat="31.594472174702023" lon="-4.53031403082925"><ele>871.0</ele><time>2026-03-23T08:33:28Z</time></trkpt><trkpt lat="31.594351706171707" lon="-4.530179799360347"><ele>870.0</ele><time>2026-03-23T08:33:29Z</time></trkpt><trkpt lat="31.5942141588134" lon="-4.530066788460669"><ele>869.0</ele><time>2026-03-23T08:33:30Z</time></trkpt><trkpt lat="31.59408360098919" lon="-4.529946740420839"><ele>868.0</ele><time>2026-03-23T08:33:31Z</time></trkpt><trkpt lat="31.593949767229482" lon="-4.529837131986417"><ele>868.0</ele><time>2026-03-23T08:33:32Z</time></trkpt><trkpt lat="31.59381944661465" lon="-4.529726665459104"><ele>868.0</ele><time>2026-03-23T08:33:33Z</time></trkpt><trkpt lat="31.593682631191218" lon="-4.529609745752383"><ele>868.0</ele><time>2026-03-23T08:33:34Z</time></trkpt><trkpt lat="31.593552544897165" lon="-4.529496471464768"><ele>868.3333333333333</ele><time>2026-03-23T08:33:35Z</time></trkpt><trkpt lat="31.593420022955797" lon="-4.529411993603035"><ele>868.6666666666667</ele><time>2026-03-23T08:33:36Z</time></trkpt><trkpt lat="31.593286778979497" lon="-4.529331208580018"><ele>869.0</ele><time>2026-03-23T08:33:37Z</time></trkpt><trkpt lat="31.593152458967193" lon="-4.529249790792127"><ele>869.0</ele><time>2026-03-23T08:33:38Z</time></trkpt><trkpt lat="31.593005326731458" lon="-4.529180294431888"><ele>869.0</ele><time>2026-03-23T08:33:39Z</time></trkpt><trkpt lat="31.592857612901927" lon="-4.52911356623036"><ele>869.0</ele><time>2026-03-23T08:33:40Z</time></trkpt><trkpt lat="31.592711121352192" lon="-4.52905076013266"><ele>869.3333333333334</ele><time>2026-03-23T08:33:41Z</time></trkpt><trkpt lat="31.592559185015826" lon="-4.528989828464789"><ele>869.6666666666667</ele><time>2026-03-23T08:33:42Z</time></trkpt><trkpt lat="31.59240357983125" lon="-4.528927926133441"><ele>870.0</ele><time>2026-03-23T08:33:43Z</time></trkpt><trkpt lat="31.59226079765735" lon="-4.528878032522976"><ele>870.0</ele><time>2026-03-23T08:33:44Z</time></trkpt><trkpt lat="31.592120711230205" lon="-4.528842291310954"><ele>870.0</ele><time>2026-03-23T08:33:45Z</time></trkpt><trkpt lat="31.591973905916838" lon="-4.5288048358413375"><ele>870.0</ele><time>2026-03-23T08:33:46Z</time></trkpt><trkpt lat="31.591825065904054" lon="-4.528766861259409"><ele>870.0</ele><time>2026-03-23T08:33:47Z</time></trkpt><trkpt lat="31.59170594180155" lon="-4.528736468936893"><ele>870.0</ele><time>2026-03-23T08:33:48Z</time></trkpt><trkpt lat="31.591630355661795" lon="-4.528603724686297"><ele>870.0</ele><time>2026-03-23T08:33:49Z</time></trkpt><trkpt lat="31.591544354075566" lon="-4.52852839726905"><ele>870.0</ele><time>2026-03-23T08:33:50Z</time></trkpt><trkpt lat="31.591484043551205" lon="-4.5284091707387555"><ele>870.0</ele><time>2026-03-23T08:33:51Z</time></trkpt><trkpt lat="31.591416325564957" lon="-4.528305483079977"><ele>870.0</ele><time>2026-03-23T08:33:52Z</time></trkpt><trkpt lat="31.591356609870054" lon="-4.528209521043116"><ele>870.0</ele><time>2026-03-23T08:33:53Z</time></trkpt><trkpt lat="31.591297325729993" lon="-4.528114252470222"><ele>870.0</ele><time>2026-03-23T08:33:54Z</time></trkpt><trkpt lat="31.59123938461537" lon="-4.528021142092367"><ele>870.0</ele><time>2026-03-23T08:33:55Z</time></trkpt><trkpt lat="31.59120123866119" lon="-4.5279275036575495"><ele>870.0</ele><time>2026-03-23T08:33:56Z</time></trkpt><trkpt lat="31.59113609252588" lon="-4.527855153576816"><ele>869.8</ele><time>2026-03-23T08:33:57Z</time></trkpt><trkpt lat="31.591091004164184" lon="-4.527782751492821"><ele>869.6</ele><time>2026-03-23T08:33:58Z</time></trkpt><trkpt lat="31.59103986164845" lon="-4.527700890816993"><ele>869.4000000000001</ele><time>2026-03-23T08:33:59Z</time></trkpt><trkpt lat="31.590986485063876" lon="-4.527615454273338"><ele>869.2</ele><time>2026-03-23T08:34:00Z</time></trkpt><trkpt lat="31.59092884898613" lon="-4.527523588975247"><ele>869.0</ele><time>2026-03-23T08:34:01Z</time></trkpt><trkpt lat="31.59087629565807" lon="-4.527415826341745"><ele>869.0</ele><time>2026-03-23T08:34:02Z</time></trkpt><trkpt lat="31.590771520973295" lon="-4.5273962614293985"><ele>869.0000000000001</ele><time>2026-03-23T08:34:03Z</time></trkpt><trkpt lat="31.59067403907356" lon="-4.527378354225898"><ele>869.0000000000001</ele><time>2026-03-23T08:34:04Z</time></trkpt><trkpt lat="31.590572800966314" lon="-4.52734302120372"><ele>869.0</ele><time>2026-03-23T08:34:05Z</time></trkpt><trkpt lat="31.59046393075004" lon="-4.527305024348074"><ele>869.0</ele><time>2026-03-23T08:34:06Z</time></trkpt><trkpt lat="31.590357741035405" lon="-4.527223130607298"><ele>869.0</ele><time>2026-03-23T08:34:07Z</time></trkpt><trkpt lat="31.590235238259297" lon="-4.527169888991351"><ele>869.0</ele><time>2026-03-23T08:34:08Z</time></trkpt><trkpt lat="31.59010159268592" lon="-4.5270934664455345"><ele>869.0</ele><time>2026-03-23T08:34:09Z</time></trkpt><trkpt lat="31.589970965053453" lon="-4.527004387486056"><ele>869.0</ele><time>2026-03-23T08:34:10Z</time></trkpt><trkpt lat="31.589842470186742" lon="-4.526925574499345"><ele>869.0</ele><time>2026-03-23T08:34:11Z</time></trkpt><trkpt lat="31.589711121419906" lon="-4.526872190214629"><ele>869.0</ele><time>2026-03-23T08:34:12Z</time></trkpt><trkpt lat="31.589597729699367" lon="-4.5268094114272825"><ele>869.0</ele><time>2026-03-23T08:34:13Z</time></trkpt><trkpt lat="31.589487890680694" lon="-4.526748599554899"><ele>869.0</ele><time>2026-03-23T08:34:14Z</time></trkpt><trkpt lat="31.589373647459762" lon="-4.526685349320129"><ele>868.5</ele><time>2026-03-23T08:34:15Z</time></trkpt><trkpt lat="31.589256439704947" lon="-4.5266113253781946"><ele>868.0</ele><time>2026-03-23T08:34:16Z</time></trkpt><trkpt lat="31.589133164051038" lon="-4.526547784232773"><ele>867.5</ele><time>2026-03-23T08:34:17Z</time></trkpt><trkpt lat="31.58900589308118" lon="-4.526477721447552"><ele>867.0</ele><time>2026-03-23T08:34:18Z</time></trkpt><trkpt lat="31.588874487799924" lon="-4.5264090031342"><ele>867.0</ele><time>2026-03-23T08:34:19Z</time></trkpt><trkpt lat="31.58873460118296" lon="-4.526331976723743"><ele>867.0</ele><time>2026-03-23T08:34:20Z</time></trkpt><trkpt lat="31.58859857148128" lon="-4.526250156520365"><ele>867.0</ele><time>2026-03-23T08:34:21Z</time></trkpt><trkpt lat="31.588455053685607" lon="-4.526163923979872"><ele>867.0</ele><time>2026-03-23T08:34:22Z</time></trkpt><trkpt lat="31.58830861230925" lon="-4.526075934734407"><ele>867.0</ele><time>2026-03-23T08:34:23Z</time></trkpt><trkpt lat="31.58816443242363" lon="-4.525989304296585"><ele>867.0</ele><time>2026-03-23T08:34:24Z</time></trkpt><trkpt lat="31.588022505868313" lon="-4.52590402779469"><ele>867.0</ele><time>2026-03-23T08:34:25Z</time></trkpt><trkpt lat="31.5878707067948" lon="-4.525812780168762"><ele>867.0</ele><time>2026-03-23T08:34:26Z</time></trkpt><trkpt lat="31.587717305191315" lon="-4.52572025479207"><ele>867.0</ele><time>2026-03-23T08:34:26.999Z</time></trkpt><trkpt lat="31.587570582232207" lon="-4.525632299325271"><ele>867.0</ele><time>2026-03-23T08:34:27.999Z</time></trkpt><trkpt lat="31.587436791697236" lon="-4.525552096417591"><ele>867.0</ele><time>2026-03-23T08:34:28.999Z</time></trkpt><trkpt lat="31.587320434112726" lon="-4.525482343936591"><ele>867.0</ele><time>2026-03-23T08:34:29.999Z</time></trkpt><trkpt lat="31.587198873200304" lon="-4.5254094722425595"><ele>867.0</ele><time>2026-03-23T08:34:30.999Z</time></trkpt><trkpt lat="31.587059548965083" lon="-4.525325952105679"><ele>866.6666666666667</ele><time>2026-03-23T08:34:31.999Z</time></trkpt><trkpt lat="31.586925388858795" lon="-4.525245478243787"><ele>866.3333333333334</ele><time>2026-03-23T08:34:32.999Z</time></trkpt><trkpt lat="31.586784686914445" lon="-4.525160985517365"><ele>866.0</ele><time>2026-03-23T08:34:33.999Z</time></trkpt><trkpt lat="31.586641916754704" lon="-4.525075250759547"><ele>866.0</ele><time>2026-03-23T08:34:34.999Z</time></trkpt><trkpt lat="31.586497207375952" lon="-4.524988308618744"><ele>866.0</ele><time>2026-03-23T08:34:35.999Z</time></trkpt><trkpt lat="31.586351287727762" lon="-4.524900606886686"><ele>866.0</ele><time>2026-03-23T08:34:36.999Z</time></trkpt><trkpt lat="31.586196278683104" lon="-4.524807442269174"><ele>866.0</ele><time>2026-03-23T08:34:37.999Z</time></trkpt><trkpt lat="31.586036316714548" lon="-4.524711300648718"><ele>866.0</ele><time>2026-03-23T08:34:38.999Z</time></trkpt><trkpt lat="31.585874186366432" lon="-4.524613855985327"><ele>866.0</ele><time>2026-03-23T08:34:39.999Z</time></trkpt><trkpt lat="31.585711796066096" lon="-4.524516255000104"><ele>866.0</ele><time>2026-03-23T08:34:40.999Z</time></trkpt><trkpt lat="31.585543481362258" lon="-4.524415093164845"><ele>866.0</ele><time>2026-03-23T08:34:41.999Z</time></trkpt><trkpt lat="31.58537333868812" lon="-4.524312776916511"><ele>866.0</ele><time>2026-03-23T08:34:42.999Z</time></trkpt><trkpt lat="31.585207540544488" lon="-4.524213068269837"><ele>866.0</ele><time>2026-03-23T08:34:44Z</time></trkpt><trkpt lat="31.585047909061917" lon="-4.524116345462364"><ele>866.0</ele><time>2026-03-23T08:34:45Z</time></trkpt><trkpt lat="31.58487756771898" lon="-4.524005847082474"><ele>866.0</ele><time>2026-03-23T08:34:46Z</time></trkpt><trkpt lat="31.584702860825118" lon="-4.523891377358396"><ele>866.0</ele><time>2026-03-23T08:34:47Z</time></trkpt><trkpt lat="31.584551408212736" lon="-4.52379214398025"><ele>866.0</ele><time>2026-03-23T08:34:48Z</time></trkpt><trkpt lat="31.584393766418987" lon="-4.523688855391469"><ele>866.0</ele><time>2026-03-23T08:34:49Z</time></trkpt><trkpt lat="31.58423970617678" lon="-4.523587804025691"><ele>865.6666666666667</ele><time>2026-03-23T08:34:50Z</time></trkpt><trkpt lat="31.584082059984972" lon="-4.523485162946645"><ele>865.3333333333333</ele><time>2026-03-23T08:34:51Z</time></trkpt><trkpt lat="31.583929938778162" lon="-4.523389079443309"><ele>865.0</ele><time>2026-03-23T08:34:52Z</time></trkpt><trkpt lat="31.583775519397157" lon="-4.5232912139124775"><ele>865.0</ele><time>2026-03-23T08:34:53Z</time></trkpt><trkpt lat="31.58362058403112" lon="-4.523193021390841"><ele>865.0</ele><time>2026-03-23T08:34:54Z</time></trkpt><trkpt lat="31.583466562376763" lon="-4.5230957496187205"><ele>865.0</ele><time>2026-03-23T08:34:55Z</time></trkpt><trkpt lat="31.583305970078893" lon="-4.522994779845565"><ele>864.6666666666666</ele><time>2026-03-23T08:34:56Z</time></trkpt><trkpt lat="31.583142373932326" lon="-4.522891921548431"><ele>864.3333333333333</ele><time>2026-03-23T08:34:57Z</time></trkpt><trkpt lat="31.58297410784411" lon="-4.522791905790856"><ele>864.0</ele><time>2026-03-23T08:34:58Z</time></trkpt><trkpt lat="31.582808242627998" lon="-4.522717283349376"><ele>864.0</ele><time>2026-03-23T08:34:59Z</time></trkpt><trkpt lat="31.58263881874924" lon="-4.522658357370172"><ele>864.0</ele><time>2026-03-23T08:35:00Z</time></trkpt><trkpt lat="31.582466969060604" lon="-4.522566339188403"><ele>864.0</ele><time>2026-03-23T08:35:01Z</time></trkpt><trkpt lat="31.582302509016632" lon="-4.522484838588246"><ele>864.0</ele><time>2026-03-23T08:35:02Z</time></trkpt><trkpt lat="31.58212630069695" lon="-4.522444257544774"><ele>864.0</ele><time>2026-03-23T08:35:03Z</time></trkpt><trkpt lat="31.581964749943108" lon="-4.522389328536261"><ele>864.0</ele><time>2026-03-23T08:35:04Z</time></trkpt><trkpt lat="31.581798486059746" lon="-4.522332525432483"><ele>863.6666666666667</ele><time>2026-03-23T08:35:05Z</time></trkpt><trkpt lat="31.58166519094801" lon="-4.522263844348498"><ele>863.3333333333334</ele><time>2026-03-23T08:35:06Z</time></trkpt><trkpt lat="31.581545344758226" lon="-4.52216345217703"><ele>863.0</ele><time>2026-03-23T08:35:07Z</time></trkpt><trkpt lat="31.581399349633966" lon="-4.52208192799565"><ele>863.0</ele><time>2026-03-23T08:35:08Z</time></trkpt><trkpt lat="31.581267121983668" lon="-4.521987535696579"><ele>863.0</ele><time>2026-03-23T08:35:09Z</time></trkpt><trkpt lat="31.58112924767812" lon="-4.521889228654396"><ele>863.0</ele><time>2026-03-23T08:35:10Z</time></trkpt><trkpt lat="31.580987297323695" lon="-4.521788015173818"><ele>863.0</ele><time>2026-03-23T08:35:11Z</time></trkpt><trkpt lat="31.58084845887451" lon="-4.521688019638675"><ele>863.0</ele><time>2026-03-23T08:35:12Z</time></trkpt><trkpt lat="31.5807012388777" lon="-4.521583719787484"><ele>863.0</ele><time>2026-03-23T08:35:13Z</time></trkpt><trkpt lat="31.58055937623199" lon="-4.521482093174277"><ele>863.0</ele><time>2026-03-23T08:35:14Z</time></trkpt><trkpt lat="31.58040407748688" lon="-4.521370841165583"><ele>863.0</ele><time>2026-03-23T08:35:15Z</time></trkpt><trkpt lat="31.58025420999368" lon="-4.521263479932276"><ele>863.0</ele><time>2026-03-23T08:35:16Z</time></trkpt><trkpt lat="31.58010637170494" lon="-4.521157847505684"><ele>862.6666666666667</ele><time>2026-03-23T08:35:17Z</time></trkpt><trkpt lat="31.579967042295994" lon="-4.521045764001542"><ele>862.3333333333333</ele><time>2026-03-23T08:35:18Z</time></trkpt><trkpt lat="31.57981087768206" lon="-4.520968850411146"><ele>862.0</ele><time>2026-03-23T08:35:19Z</time></trkpt><trkpt lat="31.579665704307928" lon="-4.520850920516377"><ele>862.0</ele><time>2026-03-23T08:35:20Z</time></trkpt><trkpt lat="31.579519158716536" lon="-4.520764687286584"><ele>862.0</ele><time>2026-03-23T08:35:21Z</time></trkpt><trkpt lat="31.57937311631071" lon="-4.520678750026537"><ele>862.0</ele><time>2026-03-23T08:35:22Z</time></trkpt><trkpt lat="31.579229731670186" lon="-4.520594312642918"><ele>862.0</ele><time>2026-03-23T08:35:23Z</time></trkpt><trkpt lat="31.579068776788603" lon="-4.52049945153623"><ele>862.0</ele><time>2026-03-23T08:35:24Z</time></trkpt><trkpt lat="31.578902613554014" lon="-4.520407686583337"><ele>862.0</ele><time>2026-03-23T08:35:25Z</time></trkpt><trkpt lat="31.578733826013412" lon="-4.520316169151402"><ele>861.6666666666666</ele><time>2026-03-23T08:35:26Z</time></trkpt><trkpt lat="31.578569556876413" lon="-4.520226703734953"><ele>861.3333333333333</ele><time>2026-03-23T08:35:27Z</time></trkpt><trkpt lat="31.57840308191867" lon="-4.52013693200048"><ele>861.0</ele><time>2026-03-23T08:35:28Z</time></trkpt><trkpt lat="31.578239880905176" lon="-4.520046162050081"><ele>861.0</ele><time>2026-03-23T08:35:29Z</time></trkpt><trkpt lat="31.578080355198118" lon="-4.519957436243173"><ele>861.0</ele><time>2026-03-23T08:35:30Z</time></trkpt><trkpt lat="31.57792089675277" lon="-4.519868747893246"><ele>861.0</ele><time>2026-03-23T08:35:31Z</time></trkpt><trkpt lat="31.577748287927943" lon="-4.519782007020885"><ele>860.3333333333333</ele><time>2026-03-23T08:35:32Z</time></trkpt><trkpt lat="31.577575814410277" lon="-4.519700205610736"><ele>859.6666666666666</ele><time>2026-03-23T08:35:33Z</time></trkpt><trkpt lat="31.577414482513593" lon="-4.519623688447237"><ele>859.0</ele><time>2026-03-23T08:35:34Z</time></trkpt><trkpt lat="31.57725233293668" lon="-4.519546783473867"><ele>859.0</ele><time>2026-03-23T08:35:35Z</time></trkpt><trkpt lat="31.577083710916835" lon="-4.519466784748423"><ele>859.0</ele><time>2026-03-23T08:35:36Z</time></trkpt><trkpt lat="31.57691822195999" lon="-4.519388253658787"><ele>859.0</ele><time>2026-03-23T08:35:37Z</time></trkpt><trkpt lat="31.576746310326573" lon="-4.519306674887217"><ele>859.25</ele><time>2026-03-23T08:35:38Z</time></trkpt><trkpt lat="31.576630396615997" lon="-4.519212494493602"><ele>859.5</ele><time>2026-03-23T08:35:39Z</time></trkpt><trkpt lat="31.576498442410823" lon="-4.519109703690291"><ele>859.75</ele><time>2026-03-23T08:35:40Z</time></trkpt><trkpt lat="31.576380017187248" lon="-4.51901933398966"><ele>860.0</ele><time>2026-03-23T08:35:41Z</time></trkpt><trkpt lat="31.576116322543175" lon="-4.518817888322388"><ele>860.0</ele><time>2026-03-23T08:35:42Z</time></trkpt><trkpt lat="31.575939920977202" lon="-4.518684426206824"><ele>860.0</ele><time>2026-03-23T08:35:43Z</time></trkpt><trkpt lat="31.575743707301363" lon="-4.518553181687308"><ele>860.0</ele><time>2026-03-23T08:35:44Z</time></trkpt><trkpt lat="31.575562748650356" lon="-4.518447282023556"><ele>860.0</ele><time>2026-03-23T08:35:45Z</time></trkpt><trkpt lat="31.575389581191395" lon="-4.518346184035455"><ele>860.0</ele><time>2026-03-23T08:35:46Z</time></trkpt><trkpt lat="31.57522294877092" lon="-4.518249499446893"><ele>860.0</ele><time>2026-03-23T08:35:47Z</time></trkpt><trkpt lat="31.575039166899394" lon="-4.518150704340565"><ele>859.6666666666667</ele><time>2026-03-23T08:35:48Z</time></trkpt><trkpt lat="31.57488281628135" lon="-4.5180803115876405"><ele>859.3333333333333</ele><time>2026-03-23T08:35:49Z</time></trkpt><trkpt lat="31.574733465783147" lon="-4.518014137605394"><ele>859.0</ele><time>2026-03-23T08:35:50Z</time></trkpt><trkpt lat="31.574572048793513" lon="-4.5179406450862745"><ele>859.3333333333333</ele><time>2026-03-23T08:35:51Z</time></trkpt><trkpt lat="31.57440469313673" lon="-4.517865468842404"><ele>859.6666666666667</ele><time>2026-03-23T08:35:52Z</time></trkpt><trkpt lat="31.574232523554294" lon="-4.517788129093424"><ele>860.0</ele><time>2026-03-23T08:35:53Z</time></trkpt><trkpt lat="31.574060253167282" lon="-4.51771056214745"><ele>860.0</ele><time>2026-03-23T08:35:54Z</time></trkpt><trkpt lat="31.57387850030775" lon="-4.517628682576061"><ele>860.0</ele><time>2026-03-23T08:35:55Z</time></trkpt><trkpt lat="31.57369335983618" lon="-4.517545297133866"><ele>860.0</ele><time>2026-03-23T08:35:56Z</time></trkpt><trkpt lat="31.573512344198807" lon="-4.5174585991228176"><ele>859.6666666666667</ele><time>2026-03-23T08:35:57Z</time></trkpt><trkpt lat="31.573323561657006" lon="-4.517341697896273"><ele>859.3333333333333</ele><time>2026-03-23T08:35:58Z</time></trkpt><trkpt lat="31.573125646896784" lon="-4.517219140756979"><ele>859.0</ele><time>2026-03-23T08:35:59Z</time></trkpt><trkpt lat="31.57291496495195" lon="-4.517088677666676"><ele>859.0</ele><time>2026-03-23T08:36:00Z</time></trkpt><trkpt lat="31.572714242514145" lon="-4.516964381945115"><ele>859.0</ele><time>2026-03-23T08:36:01Z</time></trkpt><trkpt lat="31.572519252716138" lon="-4.516864544755059"><ele>859.0</ele><time>2026-03-23T08:36:02Z</time></trkpt><trkpt lat="31.57233850997484" lon="-4.516731748516863"><ele>859.0</ele><time>2026-03-23T08:36:03Z</time></trkpt><trkpt lat="31.57215505151295" lon="-4.516617398821256"><ele>859.0</ele><time>2026-03-23T08:36:04Z</time></trkpt><trkpt lat="31.571970683646523" lon="-4.516493863780919"><ele>859.0</ele><time>2026-03-23T08:36:05Z</time></trkpt><trkpt lat="31.571782649832496" lon="-4.516367007658872"><ele>859.0</ele><time>2026-03-23T08:36:06Z</time></trkpt><trkpt lat="31.571605362032717" lon="-4.516247401491337"><ele>859.0</ele><time>2026-03-23T08:36:07Z</time></trkpt><trkpt lat="31.57142760127755" lon="-4.516126860037981"><ele>859.0</ele><time>2026-03-23T08:36:08Z</time></trkpt><trkpt lat="31.57124381280184" lon="-4.516003505305707"><ele>858.0</ele><time>2026-03-23T08:36:09Z</time></trkpt><trkpt lat="31.57105868738493" lon="-4.515880134125128"><ele>857.0</ele><time>2026-03-23T08:36:10Z</time></trkpt><trkpt lat="31.570868686876974" lon="-4.515753514141593"><ele>856.0</ele><time>2026-03-23T08:36:11Z</time></trkpt><trkpt lat="31.570677778985665" lon="-4.515626255810746"><ele>856.0</ele><time>2026-03-23T08:36:12Z</time></trkpt><trkpt lat="31.57048489061336" lon="-4.515497663467028"><ele>856.0</ele><time>2026-03-23T08:36:13Z</time></trkpt><trkpt lat="31.57029768019128" lon="-4.5153730107337875"><ele>856.0</ele><time>2026-03-23T08:36:14Z</time></trkpt><trkpt lat="31.570117501825703" lon="-4.515247546294057"><ele>855.6666666666666</ele><time>2026-03-23T08:36:15Z</time></trkpt><trkpt lat="31.569942727162708" lon="-4.51512290105068"><ele>855.3333333333333</ele><time>2026-03-23T08:36:16Z</time></trkpt><trkpt lat="31.569768361782497" lon="-4.514998547527437"><ele>855.0</ele><time>2026-03-23T08:36:17Z</time></trkpt><trkpt lat="31.56958708941417" lon="-4.514869268147981"><ele>855.3333333333333</ele><time>2026-03-23T08:36:18Z</time></trkpt><trkpt lat="31.569424488317985" lon="-4.5147484311279475"><ele>855.6666666666666</ele><time>2026-03-23T08:36:19Z</time></trkpt><trkpt lat="31.569252993002547" lon="-4.514595467100789"><ele>856.0</ele><time>2026-03-23T08:36:20Z</time></trkpt><trkpt lat="31.569087084297376" lon="-4.514447542617299"><ele>856.0</ele><time>2026-03-23T08:36:21Z</time></trkpt><trkpt lat="31.56891539854664" lon="-4.514293614950224"><ele>856.0</ele><time>2026-03-23T08:36:22Z</time></trkpt><trkpt lat="31.568735033612125" lon="-4.5141284624154"><ele>856.0</ele><time>2026-03-23T08:36:23Z</time></trkpt><trkpt lat="31.56854236858686" lon="-4.5139461727553165"><ele>856.0</ele><time>2026-03-23T08:36:24Z</time></trkpt><trkpt lat="31.56836428765993" lon="-4.513777681779878"><ele>856.0</ele><time>2026-03-23T08:36:25Z</time></trkpt><trkpt lat="31.568211021692065" lon="-4.513632976451538"><ele>856.0</ele><time>2026-03-23T08:36:26Z</time></trkpt><trkpt lat="31.56803745566134" lon="-4.513482926318243"><ele>856.0</ele><time>2026-03-23T08:36:27Z</time></trkpt><trkpt lat="31.567867794998957" lon="-4.513355629977639"><ele>856.0</ele><time>2026-03-23T08:36:28Z</time></trkpt><trkpt lat="31.567695805183586" lon="-4.5132265826021625"><ele>856.0</ele><time>2026-03-23T08:36:29Z</time></trkpt><trkpt lat="31.567521271301956" lon="-4.513095626252809"><ele>856.0</ele><time>2026-03-23T08:36:30Z</time></trkpt><trkpt lat="31.56736023178702" lon="-4.512975182803493"><ele>856.0</ele><time>2026-03-23T08:36:31Z</time></trkpt><trkpt lat="31.567198345608166" lon="-4.5128552274560905"><ele>856.0</ele><time>2026-03-23T08:36:32Z</time></trkpt><trkpt lat="31.567045481285177" lon="-4.512740816527781"><ele>855.3333333333333</ele><time>2026-03-23T08:36:33Z</time></trkpt><trkpt lat="31.566879660664174" lon="-4.512621877239743"><ele>854.6666666666667</ele><time>2026-03-23T08:36:34Z</time></trkpt><trkpt lat="31.56670804116119" lon="-4.512498090210433"><ele>854.0</ele><time>2026-03-23T08:36:35Z</time></trkpt><trkpt lat="31.56655035039813" lon="-4.512374367149291"><ele>854.0</ele><time>2026-03-23T08:36:36Z</time></trkpt><trkpt lat="31.56638837775088" lon="-4.512272211144656"><ele>854.0</ele><time>2026-03-23T08:36:37Z</time></trkpt><trkpt lat="31.566220573114883" lon="-4.5121755714908565"><ele>854.0</ele><time>2026-03-23T08:36:38Z</time></trkpt><trkpt lat="31.566046609620727" lon="-4.512075384904038"><ele>854.0</ele><time>2026-03-23T08:36:39Z</time></trkpt><trkpt lat="31.565870302433858" lon="-4.511972908975006"><ele>854.0</ele><time>2026-03-23T08:36:40Z</time></trkpt><trkpt lat="31.565691843446473" lon="-4.511867464177797"><ele>854.0</ele><time>2026-03-23T08:36:41Z</time></trkpt><trkpt lat="31.565517971339005" lon="-4.511763448785906"><ele>854.3333333333334</ele><time>2026-03-23T08:36:42Z</time></trkpt><trkpt lat="31.56533926185677" lon="-4.511653953950059"><ele>854.6666666666667</ele><time>2026-03-23T08:36:43Z</time></trkpt><trkpt lat="31.565158460219525" lon="-4.51154258544975"><ele>855.0</ele><time>2026-03-23T08:36:44Z</time></trkpt><trkpt lat="31.56498433154709" lon="-4.511434341152479"><ele>855.0</ele><time>2026-03-23T08:36:45Z</time></trkpt><trkpt lat="31.564809702659762" lon="-4.511325663111184"><ele>855.0</ele><time>2026-03-23T08:36:46Z</time></trkpt><trkpt lat="31.564680946949608" lon="-4.511161034513392"><ele>855.0</ele><time>2026-03-23T08:36:47Z</time></trkpt><trkpt lat="31.56457649796762" lon="-4.511016340798384"><ele>854.3333333333333</ele><time>2026-03-23T08:36:48Z</time></trkpt><trkpt lat="31.564476902237814" lon="-4.510863504144736"><ele>853.6666666666666</ele><time>2026-03-23T08:36:49Z</time></trkpt><trkpt lat="31.564381773570975" lon="-4.510722269128259"><ele>853.0</ele><time>2026-03-23T08:36:50Z</time></trkpt><trkpt lat="31.564285329059388" lon="-4.5105878168026186"><ele>853.0</ele><time>2026-03-23T08:36:51Z</time></trkpt><trkpt lat="31.564182055472266" lon="-4.510455990920415"><ele>853.0</ele><time>2026-03-23T08:36:52Z</time></trkpt><trkpt lat="31.56407467991899" lon="-4.510318682692544"><ele>853.0</ele><time>2026-03-23T08:36:53Z</time></trkpt><trkpt lat="31.563968632257318" lon="-4.5101784828610185"><ele>853.3333333333333</ele><time>2026-03-23T08:36:54Z</time></trkpt><trkpt lat="31.563859876113742" lon="-4.510016333009635"><ele>853.6666666666667</ele><time>2026-03-23T08:36:55Z</time></trkpt><trkpt lat="31.56375190972192" lon="-4.509855557158119"><ele>854.0</ele><time>2026-03-23T08:36:56Z</time></trkpt><trkpt lat="31.56364240748144" lon="-4.509692494253183"><ele>854.0</ele><time>2026-03-23T08:36:57Z</time></trkpt><trkpt lat="31.563536939789802" lon="-4.509535439307878"><ele>854.0</ele><time>2026-03-23T08:36:58Z</time></trkpt><trkpt lat="31.563437559844388" lon="-4.509387449795784"><ele>854.0</ele><time>2026-03-23T08:36:59Z</time></trkpt><trkpt lat="31.56334682968179" lon="-4.509240754240936"><ele>854.0</ele><time>2026-03-23T08:37:00Z</time></trkpt><trkpt lat="31.563254373974857" lon="-4.509075945909786"><ele>854.0</ele><time>2026-03-23T08:37:01Z</time></trkpt><trkpt lat="31.563164089895878" lon="-4.508915472679834"><ele>854.0</ele><time>2026-03-23T08:37:02Z</time></trkpt><trkpt lat="31.563073228458357" lon="-4.508752537127935"><ele>853.6666666666667</ele><time>2026-03-23T08:37:03Z</time></trkpt><trkpt lat="31.56298204796116" lon="-4.5085874107651245"><ele>853.3333333333333</ele><time>2026-03-23T08:37:04Z</time></trkpt><trkpt lat="31.562831472291098" lon="-4.508482552093931"><ele>853.0</ele><time>2026-03-23T08:37:05Z</time></trkpt><trkpt lat="31.562679115807565" lon="-4.508346856241845"><ele>854.0</ele><time>2026-03-23T08:37:06Z</time></trkpt><trkpt lat="31.562556446407875" lon="-4.508211459696546"><ele>855.0</ele><time>2026-03-23T08:37:07Z</time></trkpt><trkpt lat="31.562431887902584" lon="-4.508049555988955"><ele>856.0</ele><time>2026-03-23T08:37:08Z</time></trkpt><trkpt lat="31.56228780977494" lon="-4.5079174455688"><ele>855.3333333333333</ele><time>2026-03-23T08:37:09Z</time></trkpt><trkpt lat="31.562131845708464" lon="-4.507806391831522"><ele>854.6666666666667</ele><time>2026-03-23T08:37:10Z</time></trkpt><trkpt lat="31.561986698066818" lon="-4.507668159029171"><ele>854.0</ele><time>2026-03-23T08:37:11Z</time></trkpt><trkpt lat="31.56185401982058" lon="-4.5075103890468755"><ele>853.6666666666667</ele><time>2026-03-23T08:37:12Z</time></trkpt><trkpt lat="31.561741455122245" lon="-4.507344720973403"><ele>853.3333333333333</ele><time>2026-03-23T08:37:13Z</time></trkpt><trkpt lat="31.56163205749462" lon="-4.507188090246108"><ele>853.0</ele><time>2026-03-23T08:37:14Z</time></trkpt><trkpt lat="31.5615269755511" lon="-4.507012340500163"><ele>853.0</ele><time>2026-03-23T08:37:15Z</time></trkpt><trkpt lat="31.561413626374488" lon="-4.5068424279469586"><ele>853.0</ele><time>2026-03-23T08:37:16Z</time></trkpt><trkpt lat="31.561310533962697" lon="-4.506640938678758"><ele>853.0</ele><time>2026-03-23T08:37:17Z</time></trkpt><trkpt lat="31.561211553219078" lon="-4.506447545044277"><ele>853.0</ele><time>2026-03-23T08:37:18Z</time></trkpt><trkpt lat="31.561124384304478" lon="-4.5062623403377415"><ele>853.0</ele><time>2026-03-23T08:37:19Z</time></trkpt><trkpt lat="31.56101457296334" lon="-4.506089890567332"><ele>853.0</ele><time>2026-03-23T08:37:20Z</time></trkpt><trkpt lat="31.560893015446247" lon="-4.505926967794673"><ele>853.0</ele><time>2026-03-23T08:37:21Z</time></trkpt><trkpt lat="31.560753894389688" lon="-4.5057792323853985"><ele>853.0</ele><time>2026-03-23T08:37:22Z</time></trkpt><trkpt lat="31.56062438654624" lon="-4.505675902218363"><ele>853.0</ele><time>2026-03-23T08:37:23Z</time></trkpt><trkpt lat="31.56052727684525" lon="-4.505582107118164"><ele>853.0</ele><time>2026-03-23T08:37:24Z</time></trkpt><trkpt lat="31.560444236264708" lon="-4.505525399906448"><ele>853.0</ele><time>2026-03-23T08:37:25Z</time></trkpt><trkpt lat="31.560357945665423" lon="-4.505465984957658"><ele>853.0</ele><time>2026-03-23T08:37:26Z</time></trkpt><trkpt lat="31.560240815267356" lon="-4.505385335460459"><ele>853.0</ele><time>2026-03-23T08:37:27Z</time></trkpt><trkpt lat="31.560109099714502" lon="-4.505303284889733"><ele>853.0</ele><time>2026-03-23T08:37:28Z</time></trkpt><trkpt lat="31.559974255453376" lon="-4.505224699426062"><ele>853.0</ele><time>2026-03-23T08:37:29Z</time></trkpt><trkpt lat="31.559843921716947" lon="-4.505134322467698"><ele>853.0</ele><time>2026-03-23T08:37:30Z</time></trkpt><trkpt lat="31.55968520872489" lon="-4.5051348549768475"><ele>853.0</ele><time>2026-03-23T08:37:31Z</time></trkpt><trkpt lat="31.559510646017408" lon="-4.505106221845286"><ele>853.0</ele><time>2026-03-23T08:37:32Z</time></trkpt><trkpt lat="31.5593253474082" lon="-4.505075826721982"><ele>853.0</ele><time>2026-03-23T08:37:33Z</time></trkpt><trkpt lat="31.55914632110928" lon="-4.505046461437286"><ele>853.0</ele><time>2026-03-23T08:37:34Z</time></trkpt><trkpt lat="31.558974863295656" lon="-4.505015832139636"><ele>853.0</ele><time>2026-03-23T08:37:35Z</time></trkpt><trkpt lat="31.55881166485578" lon="-4.504963973432494"><ele>853.0</ele><time>2026-03-23T08:37:36Z</time></trkpt><trkpt lat="31.55865250288695" lon="-4.504938164701728"><ele>853.0</ele><time>2026-03-23T08:37:37Z</time></trkpt><trkpt lat="31.55849765772189" lon="-4.504904617315066"><ele>853.0</ele><time>2026-03-23T08:37:38Z</time></trkpt><trkpt lat="31.55834802390126" lon="-4.5048688933287755"><ele>853.0</ele><time>2026-03-23T08:37:39Z</time></trkpt><trkpt lat="31.55820407104089" lon="-4.504843904732138"><ele>853.0</ele><time>2026-03-23T08:37:40Z</time></trkpt><trkpt lat="31.55808838446838" lon="-4.504745529134778"><ele>853.0</ele><time>2026-03-23T08:37:41Z</time></trkpt><trkpt lat="31.557984236435217" lon="-4.504694403482809"><ele>853.0</ele><time>2026-03-23T08:37:42Z</time></trkpt><trkpt lat="31.557896302375113" lon="-4.504613338526266"><ele>853.0</ele><time>2026-03-23T08:37:43Z</time></trkpt><trkpt lat="31.557786629743468" lon="-4.504552608401098"><ele>852.0</ele><time>2026-03-23T08:37:44Z</time></trkpt><trkpt lat="31.557661167577635" lon="-4.5044624698551"><ele>851.0</ele><time>2026-03-23T08:37:45Z</time></trkpt><trkpt lat="31.557527581763303" lon="-4.504366119244832"><ele>850.0</ele><time>2026-03-23T08:37:46Z</time></trkpt><trkpt lat="31.557395847292103" lon="-4.504246949240968"><ele>850.0</ele><time>2026-03-23T08:37:47Z</time></trkpt><trkpt lat="31.557234734925725" lon="-4.504137850149247"><ele>850.0</ele><time>2026-03-23T08:37:48Z</time></trkpt><trkpt lat="31.557078949834164" lon="-4.504016437284341"><ele>850.0</ele><time>2026-03-23T08:37:49Z</time></trkpt><trkpt lat="31.556914432006153" lon="-4.503900951956541"><ele>849.6666666666666</ele><time>2026-03-23T08:37:50Z</time></trkpt><trkpt lat="31.556748972109453" lon="-4.5037647844465605"><ele>849.3333333333333</ele><time>2026-03-23T08:37:51Z</time></trkpt><trkpt lat="31.55659539177771" lon="-4.503632802314805"><ele>849.0</ele><time>2026-03-23T08:37:52Z</time></trkpt><trkpt lat="31.55645127934343" lon="-4.503513545192514"><ele>849.0</ele><time>2026-03-23T08:37:53Z</time></trkpt><trkpt lat="31.556310008669293" lon="-4.503381434583872"><ele>849.0</ele><time>2026-03-23T08:37:54Z</time></trkpt><trkpt lat="31.556186429253568" lon="-4.503250719321205"><ele>849.0</ele><time>2026-03-23T08:37:55Z</time></trkpt><trkpt lat="31.556062465722874" lon="-4.5031200749597335"><ele>849.3333333333333</ele><time>2026-03-23T08:37:56Z</time></trkpt><trkpt lat="31.55594127052365" lon="-4.502991606985371"><ele>849.6666666666666</ele><time>2026-03-23T08:37:57Z</time></trkpt><trkpt lat="31.555842279230884" lon="-4.502822245643882"><ele>850.0</ele><time>2026-03-23T08:37:58Z</time></trkpt><trkpt lat="31.555708988871277" lon="-4.5026989933735875"><ele>850.0</ele><time>2026-03-23T08:37:59Z</time></trkpt><trkpt lat="31.55560028045542" lon="-4.502546101187478"><ele>850.0</ele><time>2026-03-23T08:38:00Z</time></trkpt><trkpt lat="31.555481419559413" lon="-4.50240438614247"><ele>850.0</ele><time>2026-03-23T08:38:01Z</time></trkpt><trkpt lat="31.55534865506657" lon="-4.5022715087085246"><ele>850.0</ele><time>2026-03-23T08:38:02Z</time></trkpt><trkpt lat="31.555207129574782" lon="-4.502149233175007"><ele>850.0</ele><time>2026-03-23T08:38:03Z</time></trkpt><trkpt lat="31.55506634044115" lon="-4.502034251667021"><ele>850.0</ele><time>2026-03-23T08:38:04Z</time></trkpt><trkpt lat="31.554925664105745" lon="-4.501921062579437"><ele>849.3333333333333</ele><time>2026-03-23T08:38:05Z</time></trkpt><trkpt lat="31.55478731978185" lon="-4.501811438183464"><ele>848.6666666666667</ele><time>2026-03-23T08:38:06Z</time></trkpt><trkpt lat="31.554647618804662" lon="-4.501708657323178"><ele>848.0</ele><time>2026-03-23T08:38:07Z</time></trkpt><trkpt lat="31.554520264412485" lon="-4.5015888301707125"><ele>848.0</ele><time>2026-03-23T08:38:08Z</time></trkpt><trkpt lat="31.554400758332033" lon="-4.501479113905127"><ele>848.0</ele><time>2026-03-23T08:38:09Z</time></trkpt><trkpt lat="31.554307182733698" lon="-4.5013770624333755"><ele>848.0</ele><time>2026-03-23T08:38:10Z</time></trkpt><trkpt lat="31.554202610374205" lon="-4.501307744057038"><ele>848.0</ele><time>2026-03-23T08:38:11Z</time></trkpt><trkpt lat="31.554122439909783" lon="-4.501237846543713"><ele>848.4</ele><time>2026-03-23T08:38:12Z</time></trkpt><trkpt lat="31.554049224627217" lon="-4.5011740129806155"><ele>848.8</ele><time>2026-03-23T08:38:13Z</time></trkpt><trkpt lat="31.553970890706186" lon="-4.501105716682987"><ele>849.2</ele><time>2026-03-23T08:38:14Z</time></trkpt><trkpt lat="31.553883724923885" lon="-4.501030488854277"><ele>849.6</ele><time>2026-03-23T08:38:15Z</time></trkpt><trkpt lat="31.553797225983978" lon="-4.500955854829839"><ele>850.0</ele><time>2026-03-23T08:38:16Z</time></trkpt><trkpt lat="31.55371606179839" lon="-4.500885823779597"><ele>849.6</ele><time>2026-03-23T08:38:17.001Z</time></trkpt><trkpt lat="31.553628653415846" lon="-4.500820566850688"><ele>849.2</ele><time>2026-03-23T08:38:18.001Z</time></trkpt><trkpt lat="31.553530879640135" lon="-4.500757207943506"><ele>848.8</ele><time>2026-03-23T08:38:19.001Z</time></trkpt><trkpt lat="31.553436771568197" lon="-4.5006960712563"><ele>848.4</ele><time>2026-03-23T08:38:20.001Z</time></trkpt><trkpt lat="31.553354228974868" lon="-4.500647369932923"><ele>848.0</ele><time>2026-03-23T08:38:21.001Z</time></trkpt><trkpt lat="31.55326979231051" lon="-4.500598088149001"><ele>848.0</ele><time>2026-03-23T08:38:22.001Z</time></trkpt><trkpt lat="31.5531870278271" lon="-4.500549782341068"><ele>848.0</ele><time>2026-03-23T08:38:23.001Z</time></trkpt><trkpt lat="31.553075455299222" lon="-4.500484662612427"><ele>848.0</ele><time>2026-03-23T08:38:24.001Z</time></trkpt><trkpt lat="31.55296121871675" lon="-4.500430822496446"><ele>848.0</ele><time>2026-03-23T08:38:25.001Z</time></trkpt><trkpt lat="31.55284589821357" lon="-4.500391765262854"><ele>847.8</ele><time>2026-03-23T08:38:26.001Z</time></trkpt><trkpt lat="31.552741714402142" lon="-4.500356332122636"><ele>847.5999999999999</ele><time>2026-03-23T08:38:27.001Z</time></trkpt><trkpt lat="31.552658269217197" lon="-4.500383434082362"><ele>847.4000000000001</ele><time>2026-03-23T08:38:28.001Z</time></trkpt><trkpt lat="31.552533079781963" lon="-4.500372170786519"><ele>847.2</ele><time>2026-03-23T08:38:29.001Z</time></trkpt><trkpt lat="31.55241026802896" lon="-4.5003393627661366"><ele>847.0</ele><time>2026-03-23T08:38:30.001Z</time></trkpt><trkpt lat="31.552277567037276" lon="-4.500304722175667"><ele>847.0</ele><time>2026-03-23T08:38:31.001Z</time></trkpt><trkpt lat="31.552142229232597" lon="-4.500269393227336"><ele>847.0</ele><time>2026-03-23T08:38:32.001Z</time></trkpt><trkpt lat="31.551998068180467" lon="-4.500214284466172"><ele>847.0</ele><time>2026-03-23T08:38:33.001Z</time></trkpt><trkpt lat="31.551865537936855" lon="-4.500141503366278"><ele>847.0</ele><time>2026-03-23T08:38:34.001Z</time></trkpt><trkpt lat="31.551725905361472" lon="-4.5001026171849"><ele>847.5</ele><time>2026-03-23T08:38:35.001Z</time></trkpt><trkpt lat="31.551590143471966" lon="-4.500044908512106"><ele>848.0</ele><time>2026-03-23T08:38:36.001Z</time></trkpt><trkpt lat="31.551464791154288" lon="-4.499969351633535"><ele>848.5</ele><time>2026-03-23T08:38:37.001Z</time></trkpt><trkpt lat="31.551325917702012" lon="-4.499911462471499"><ele>849.0</ele><time>2026-03-23T08:38:38.001Z</time></trkpt><trkpt lat="31.551177481456286" lon="-4.499853846298175"><ele>849.0</ele><time>2026-03-23T08:38:39Z</time></trkpt><trkpt lat="31.55103301393181" lon="-4.499815462556174"><ele>849.0</ele><time>2026-03-23T08:38:40Z</time></trkpt><trkpt lat="31.55088149131477" lon="-4.4997789919590385"><ele>849.0</ele><time>2026-03-23T08:38:41Z</time></trkpt><trkpt lat="31.55073063610499" lon="-4.499748534484117"><ele>849.0</ele><time>2026-03-23T08:38:42Z</time></trkpt><trkpt lat="31.550582267566828" lon="-4.499710845250977"><ele>849.0</ele><time>2026-03-23T08:38:43Z</time></trkpt><trkpt lat="31.55043822977575" lon="-4.4996617634834815"><ele>849.0</ele><time>2026-03-23T08:38:44Z</time></trkpt><trkpt lat="31.550289919379836" lon="-4.499573514551951"><ele>848.5</ele><time>2026-03-23T08:38:45Z</time></trkpt><trkpt lat="31.550157175533958" lon="-4.499488980162831"><ele>848.0</ele><time>2026-03-23T08:38:46Z</time></trkpt><trkpt lat="31.550031565283003" lon="-4.499402627465146"><ele>847.5</ele><time>2026-03-23T08:38:47Z</time></trkpt><trkpt lat="31.549913455020377" lon="-4.499297847772638"><ele>847.0</ele><time>2026-03-23T08:38:48Z</time></trkpt><trkpt lat="31.549808109811107" lon="-4.499181652937264"><ele>847.0</ele><time>2026-03-23T08:38:49Z</time></trkpt><trkpt lat="31.549693365894385" lon="-4.499062810417411"><ele>847.0</ele><time>2026-03-23T08:38:50Z</time></trkpt><trkpt lat="31.549567244573428" lon="-4.498932288039053"><ele>847.0</ele><time>2026-03-23T08:38:51Z</time></trkpt><trkpt lat="31.5494273444621" lon="-4.498787497606607"><ele>845.3333333333333</ele><time>2026-03-23T08:38:52Z</time></trkpt><trkpt lat="31.54928964481808" lon="-4.498654400520103"><ele>843.6666666666667</ele><time>2026-03-23T08:38:53Z</time></trkpt><trkpt lat="31.54914141529883" lon="-4.4985111250346295"><ele>842.0</ele><time>2026-03-23T08:38:54Z</time></trkpt><trkpt lat="31.548980615080932" lon="-4.498354971726164"><ele>842.0</ele><time>2026-03-23T08:38:55Z</time></trkpt><trkpt lat="31.54879654618613" lon="-4.498178880632068"><ele>842.0</ele><time>2026-03-23T08:38:56Z</time></trkpt><trkpt lat="31.548572263162608" lon="-4.497966929510043"><ele>844.0</ele><time>2026-03-23T08:38:57Z</time></trkpt><trkpt lat="31.548364160149376" lon="-4.497790628986746"><ele>846.0</ele><time>2026-03-23T08:38:58Z</time></trkpt><trkpt lat="31.548167279382344" lon="-4.497624044212821"><ele>846.0</ele><time>2026-03-23T08:38:59Z</time></trkpt><trkpt lat="31.547975930864208" lon="-4.497461951746503"><ele>846.0</ele><time>2026-03-23T08:39:00Z</time></trkpt><trkpt lat="31.547761114248217" lon="-4.497288306109632"><ele>846.3333333333333</ele><time>2026-03-23T08:39:01Z</time></trkpt><trkpt lat="31.54758734659671" lon="-4.497198396048212"><ele>846.6666666666666</ele><time>2026-03-23T08:39:02Z</time></trkpt><trkpt lat="31.547423531573337" lon="-4.497122675823459"><ele>847.0</ele><time>2026-03-23T08:39:03Z</time></trkpt><trkpt lat="31.547258699563404" lon="-4.497057652166521"><ele>847.0</ele><time>2026-03-23T08:39:04Z</time></trkpt><trkpt lat="31.5470819884382" lon="-4.496996771058258"><ele>847.0</ele><time>2026-03-23T08:39:05Z</time></trkpt><trkpt lat="31.546578433176837" lon="-4.497602333423045"><ele>847.6666666666666</ele><time>2026-03-23T08:39:06Z</time></trkpt><trkpt lat="31.546434572199967" lon="-4.497576451535125"><ele>848.3333333333333</ele><time>2026-03-23T08:39:07Z</time></trkpt><trkpt lat="31.54627800312024" lon="-4.497533550567013"><ele>849.0</ele><time>2026-03-23T08:39:08Z</time></trkpt><trkpt lat="31.54610569212877" lon="-4.497479553870373"><ele>847.6666666666667</ele><time>2026-03-23T08:39:09Z</time></trkpt><trkpt lat="31.54592265544132" lon="-4.497426479673772"><ele>846.3333333333334</ele><time>2026-03-23T08:39:10Z</time></trkpt><trkpt lat="31.545759101052184" lon="-4.4973658192457915"><ele>845.0</ele><time>2026-03-23T08:39:11Z</time></trkpt><trkpt lat="31.545604791224623" lon="-4.497286635176799"><ele>845.0</ele><time>2026-03-23T08:39:12Z</time></trkpt><trkpt lat="31.545458513357207" lon="-4.497214600442739"><ele>845.0</ele><time>2026-03-23T08:39:13Z</time></trkpt><trkpt lat="31.54536087677773" lon="-4.497157615419955"><ele>845.0</ele><time>2026-03-23T08:39:14Z</time></trkpt><trkpt lat="31.545287088540956" lon="-4.497088661883651"><ele>845.0</ele><time>2026-03-23T08:39:15Z</time></trkpt><trkpt lat="31.545211309904737" lon="-4.496984419978985"><ele>845.25</ele><time>2026-03-23T08:39:16Z</time></trkpt><trkpt lat="31.545136675602222" lon="-4.4968415888308835"><ele>845.5</ele><time>2026-03-23T08:39:17Z</time></trkpt><trkpt lat="31.545077562715033" lon="-4.496681292681189"><ele>845.75</ele><time>2026-03-23T08:39:18Z</time></trkpt><trkpt lat="31.54502750461576" lon="-4.496506132903749"><ele>846.0</ele><time>2026-03-23T08:39:19Z</time></trkpt><trkpt lat="31.54496972261301" lon="-4.496330800464926"><ele>845.5</ele><time>2026-03-23T08:39:20Z</time></trkpt><trkpt lat="31.54491401874991" lon="-4.496153435962964"><ele>845.0</ele><time>2026-03-23T08:39:21Z</time></trkpt><trkpt lat="31.5448621664363" lon="-4.495986391134663"><ele>844.5</ele><time>2026-03-23T08:39:22Z</time></trkpt><trkpt lat="31.544827212679863" lon="-4.495837519899603"><ele>844.0</ele><time>2026-03-23T08:39:23Z</time></trkpt><trkpt lat="31.544804597946968" lon="-4.4957082684338445"><ele>844.0</ele><time>2026-03-23T08:39:24Z</time></trkpt><trkpt lat="31.54477341705084" lon="-4.49558494715761"><ele>844.0</ele><time>2026-03-23T08:39:25Z</time></trkpt><trkpt lat="31.544733937572527" lon="-4.4954632723833035"><ele>844.0</ele><time>2026-03-23T08:39:26Z</time></trkpt><trkpt lat="31.5446769041907" lon="-4.49535685215946"><ele>844.0</ele><time>2026-03-23T08:39:27Z</time></trkpt><trkpt lat="31.54460220974418" lon="-4.495251576017097"><ele>844.0</ele><time>2026-03-23T08:39:28Z</time></trkpt><trkpt lat="31.544503126686056" lon="-4.495150432773535"><ele>844.3333333333333</ele><time>2026-03-23T08:39:29Z</time></trkpt><trkpt lat="31.544369287452305" lon="-4.49507037024333"><ele>844.6666666666667</ele><time>2026-03-23T08:39:30Z</time></trkpt><trkpt lat="31.544203552969066" lon="-4.4950126390440195"><ele>845.0</ele><time>2026-03-23T08:39:31Z</time></trkpt><trkpt lat="31.544033712116967" lon="-4.494915219234519"><ele>845.0</ele><time>2026-03-23T08:39:32Z</time></trkpt><trkpt lat="31.54386371240633" lon="-4.494796995556172"><ele>845.0</ele><time>2026-03-23T08:39:33Z</time></trkpt><trkpt lat="31.543706833300735" lon="-4.494688317174711"><ele>845.0</ele><time>2026-03-23T08:39:34Z</time></trkpt><trkpt lat="31.543562738331065" lon="-4.494589255351418"><ele>845.0</ele><time>2026-03-23T08:39:35Z</time></trkpt><trkpt lat="31.543428476903216" lon="-4.494514586483604"><ele>845.0</ele><time>2026-03-23T08:39:36Z</time></trkpt><trkpt lat="31.5432981966324" lon="-4.494455826295114"><ele>845.0</ele><time>2026-03-23T08:39:37Z</time></trkpt><trkpt lat="31.543188293132356" lon="-4.494409951536938"><ele>845.0</ele><time>2026-03-23T08:39:38Z</time></trkpt><trkpt lat="31.543097063049807" lon="-4.494373696703605"><ele>845.0</ele><time>2026-03-23T08:39:39Z</time></trkpt><trkpt lat="31.542997168970018" lon="-4.494354461383611"><ele>845.0</ele><time>2026-03-23T08:39:40Z</time></trkpt><trkpt lat="31.542893033852728" lon="-4.494347618559227"><ele>845.0</ele><time>2026-03-23T08:39:41Z</time></trkpt><trkpt lat="31.54276909067963" lon="-4.494330188049978"><ele>845.0</ele><time>2026-03-23T08:39:42Z</time></trkpt><trkpt lat="31.54269219480706" lon="-4.494299955615457"><ele>845.0</ele><time>2026-03-23T08:39:43Z</time></trkpt><trkpt lat="31.542605374226973" lon="-4.494295954658357"><ele>844.4</ele><time>2026-03-23T08:39:44Z</time></trkpt><trkpt lat="31.5425209772096" lon="-4.494292065347701"><ele>843.8</ele><time>2026-03-23T08:39:45Z</time></trkpt><trkpt lat="31.54245630880612" lon="-4.494355207594537"><ele>843.2</ele><time>2026-03-23T08:39:46Z</time></trkpt><trkpt lat="31.542379294676962" lon="-4.494380280621685"><ele>842.6</ele><time>2026-03-23T08:39:47Z</time></trkpt><trkpt lat="31.54230217686364" lon="-4.49445466662148"><ele>842.0</ele><time>2026-03-23T08:39:48Z</time></trkpt><trkpt lat="31.542200424323767" lon="-4.494510358131813"><ele>842.0</ele><time>2026-03-23T08:39:49Z</time></trkpt><trkpt lat="31.542082715369435" lon="-4.4945762438356995"><ele>842.0</ele><time>2026-03-23T08:39:50Z</time></trkpt><trkpt lat="31.541961055009956" lon="-4.494648208905238"><ele>842.0</ele><time>2026-03-23T08:39:51Z</time></trkpt><trkpt lat="31.541831599725008" lon="-4.49469964991164"><ele>842.0</ele><time>2026-03-23T08:39:52Z</time></trkpt><trkpt lat="31.541702848842796" lon="-4.49473810301129"><ele>843.0</ele><time>2026-03-23T08:39:53Z</time></trkpt><trkpt lat="31.54157747171067" lon="-4.494767839374296"><ele>844.0</ele><time>2026-03-23T08:39:54Z</time></trkpt><trkpt lat="31.541469259807513" lon="-4.494794532641893"><ele>845.0</ele><time>2026-03-23T08:39:55Z</time></trkpt><trkpt lat="31.541389393291944" lon="-4.494732945293825"><ele>846.0</ele><time>2026-03-23T08:39:56.001Z</time></trkpt><trkpt lat="31.541271816475582" lon="-4.494703104312924"><ele>845.1999999999999</ele><time>2026-03-23T08:39:57.001Z</time></trkpt><trkpt lat="31.541168846457435" lon="-4.494705932596553"><ele>844.4</ele><time>2026-03-23T08:39:58.001Z</time></trkpt><trkpt lat="31.54106173764064" lon="-4.494720159935708"><ele>843.6</ele><time>2026-03-23T08:39:59.001Z</time></trkpt><trkpt lat="31.540950440410136" lon="-4.494743365864828"><ele>842.8</ele><time>2026-03-23T08:40:00.001Z</time></trkpt><trkpt lat="31.54085228188848" lon="-4.494805749340784"><ele>842.0</ele><time>2026-03-23T08:40:01.001Z</time></trkpt><trkpt lat="31.54075388179773" lon="-4.4948223077950455"><ele>842.0000000000001</ele><time>2026-03-23T08:40:02.001Z</time></trkpt><trkpt lat="31.540660788698606" lon="-4.4948439001995135"><ele>842.0</ele><time>2026-03-23T08:40:03.001Z</time></trkpt><trkpt lat="31.540582149548825" lon="-4.4948819503692015"><ele>842.0</ele><time>2026-03-23T08:40:04.001Z</time></trkpt><trkpt lat="31.54048821986976" lon="-4.494919106482553"><ele>842.0</ele><time>2026-03-23T08:40:05.001Z</time></trkpt><trkpt lat="31.540434981379317" lon="-4.494992916614884"><ele>842.0000000000001</ele><time>2026-03-23T08:40:06.001Z</time></trkpt><trkpt lat="31.540362002576295" lon="-4.495043641200334"><ele>842.0</ele><time>2026-03-23T08:40:07.001Z</time></trkpt><trkpt lat="31.54033693526411" lon="-4.495147672902536"><ele>842.5</ele><time>2026-03-23T08:40:09.001Z</time></trkpt><trkpt lat="31.54025648892802" lon="-4.495235410623542"><ele>843.0</ele><time>2026-03-23T08:40:11.001Z</time></trkpt><trkpt lat="31.540254066116105" lon="-4.495334737504327"><ele>843.5</ele><time>2026-03-23T08:40:14.001Z</time></trkpt><trkpt lat="31.54022785419447" lon="-4.495404192413173"><ele>844.0</ele><time>2026-03-23T08:40:15.001Z</time></trkpt><trkpt lat="31.53960595829444" lon="-4.4956750670767915"><ele>843.6666666666666</ele><time>2026-03-23T08:40:23.001Z</time></trkpt><trkpt lat="31.539542715502154" lon="-4.495688800521998"><ele>843.3333333333333</ele><time>2026-03-23T08:40:24.001Z</time></trkpt><trkpt lat="31.539466044188227" lon="-4.495676724505329"><ele>843.0</ele><time>2026-03-23T08:40:26.001Z</time></trkpt><trkpt lat="31.53939039460779" lon="-4.495629161402512"><ele>842.6666666666667</ele><time>2026-03-23T08:40:28.001Z</time></trkpt><trkpt lat="31.539271155607388" lon="-4.4955609850675415"><ele>842.3333333333334</ele><time>2026-03-23T08:40:30.001Z</time></trkpt><trkpt lat="31.53919867923238" lon="-4.49552420286573"><ele>842.0</ele><time>2026-03-23T08:40:31.001Z</time></trkpt><trkpt lat="31.539104317024712" lon="-4.495477404234321"><ele>842.0000000000001</ele><time>2026-03-23T08:40:33.001Z</time></trkpt><trkpt lat="31.539028950453044" lon="-4.495451610383837"><ele>842.0</ele><time>2026-03-23T08:40:37.001Z</time></trkpt><trkpt lat="31.53894781314007" lon="-4.495433846890148"><ele>842.0</ele><time>2026-03-23T08:40:39.001Z</time></trkpt><trkpt lat="31.538883194123695" lon="-4.495456492061797"><ele>842.0</ele><time>2026-03-23T08:40:41.001Z</time></trkpt><trkpt lat="31.53881336927832" lon="-4.495519798094709"><ele>842.0000000000001</ele><time>2026-03-23T08:40:43.001Z</time></trkpt><trkpt lat="31.53876626131622" lon="-4.495637771223445"><ele>842.0</ele><time>2026-03-23T08:40:45Z</time></trkpt><trkpt lat="31.538760458012927" lon="-4.495728790447839"><ele>842.0</ele><time>2026-03-23T08:40:46Z</time></trkpt><trkpt lat="31.5387735986228" lon="-4.495846567150133"><ele>842.0</ele><time>2026-03-23T08:40:47Z</time></trkpt><trkpt lat="31.53880523930291" lon="-4.495976880522569"><ele>842.0</ele><time>2026-03-23T08:40:48Z</time></trkpt><trkpt lat="31.53885336936719" lon="-4.496108402881598"><ele>842.0</ele><time>2026-03-23T08:40:49Z</time></trkpt><trkpt lat="31.538900057802433" lon="-4.496242188702548"><ele>842.4000000000001</ele><time>2026-03-23T08:40:50Z</time></trkpt><trkpt lat="31.538929603077097" lon="-4.496372840817408"><ele>842.8000000000001</ele><time>2026-03-23T08:40:51Z</time></trkpt><trkpt lat="31.538957613292304" lon="-4.496494598295919"><ele>843.2</ele><time>2026-03-23T08:40:52Z</time></trkpt><trkpt lat="31.53898176674235" lon="-4.496614430009607"><ele>843.6</ele><time>2026-03-23T08:40:53Z</time></trkpt><trkpt lat="31.539010331547622" lon="-4.496729301822136"><ele>844.0</ele><time>2026-03-23T08:40:54Z</time></trkpt><trkpt lat="31.539040622609015" lon="-4.496847277547872"><ele>844.0</ele><time>2026-03-23T08:40:55Z</time></trkpt><trkpt lat="31.539067185248847" lon="-4.49695345834462"><ele>844.0</ele><time>2026-03-23T08:40:56Z</time></trkpt><trkpt lat="31.539093565057158" lon="-4.49705028630725"><ele>844.0</ele><time>2026-03-23T08:40:57Z</time></trkpt><trkpt lat="31.539129153983968" lon="-4.497150783934838"><ele>844.0</ele><time>2026-03-23T08:40:58Z</time></trkpt><trkpt lat="31.539164894131627" lon="-4.497242127315217"><ele>844.0</ele><time>2026-03-23T08:40:59Z</time></trkpt><trkpt lat="31.539202252651766" lon="-4.4973625408140565"><ele>843.2</ele><time>2026-03-23T08:41:01Z</time></trkpt><trkpt lat="31.53922975584001" lon="-4.49748754015595"><ele>842.4000000000001</ele><time>2026-03-23T08:41:03Z</time></trkpt><trkpt lat="31.539249138051172" lon="-4.497578029927757"><ele>841.6</ele><time>2026-03-23T08:41:04Z</time></trkpt><trkpt lat="31.539269449114112" lon="-4.497701434009032"><ele>840.8</ele><time>2026-03-23T08:41:05Z</time></trkpt><trkpt lat="31.5392945916651" lon="-4.4978521417853266"><ele>840.0</ele><time>2026-03-23T08:41:06Z</time></trkpt><trkpt lat="31.539317194100576" lon="-4.498007438714451"><ele>840.0</ele><time>2026-03-23T08:41:07Z</time></trkpt><trkpt lat="31.539330705874164" lon="-4.498134953940941"><ele>840.0</ele><time>2026-03-23T08:41:08Z</time></trkpt><trkpt lat="31.539332250290695" lon="-4.498231167002439"><ele>840.0</ele><time>2026-03-23T08:41:09Z</time></trkpt><trkpt lat="31.53932398584574" lon="-4.498325674663743"><ele>840.0</ele><time>2026-03-23T08:41:10Z</time></trkpt><trkpt lat="31.539312445402906" lon="-4.498416090191386"><ele>840.0</ele><time>2026-03-23T08:41:11Z</time></trkpt><trkpt lat="31.53928567533187" lon="-4.4985648081254"><ele>840.0</ele><time>2026-03-23T08:41:13Z</time></trkpt><trkpt lat="31.539271598417173" lon="-4.49865247997263"><ele>840.0</ele><time>2026-03-23T08:41:14Z</time></trkpt><trkpt lat="31.53927588382435" lon="-4.498761243827926"><ele>840.0</ele><time>2026-03-23T08:41:16Z</time></trkpt><trkpt lat="31.539306086748173" lon="-4.49886200236815"><ele>840.0</ele><time>2026-03-23T08:41:19Z</time></trkpt><trkpt lat="31.539328555703026" lon="-4.4989411565429265"><ele>840.0</ele><time>2026-03-23T08:41:20Z</time></trkpt><trkpt lat="31.53935497290117" lon="-4.499020467436945"><ele>840.0</ele><time>2026-03-23T08:41:21Z</time></trkpt><trkpt lat="31.53940410711207" lon="-4.499143380054274"><ele>840.1666666666666</ele><time>2026-03-23T08:41:23Z</time></trkpt><trkpt lat="31.539422080847718" lon="-4.499229068761483"><ele>840.3333333333333</ele><time>2026-03-23T08:41:25Z</time></trkpt><trkpt lat="31.539315062825285" lon="-4.4992352836918865"><ele>840.5</ele><time>2026-03-23T08:41:41Z</time></trkpt><trkpt lat="31.539241559685458" lon="-4.49921095797114"><ele>840.6666666666666</ele><time>2026-03-23T08:41:42Z</time></trkpt><trkpt lat="31.539163218800592" lon="-4.499193551080884"><ele>840.8333333333333</ele><time>2026-03-23T08:41:43Z</time></trkpt><trkpt lat="31.539090467570098" lon="-4.499191629555272"><ele>841.0</ele><time>2026-03-23T08:41:44Z</time></trkpt><trkpt lat="31.538999169920043" lon="-4.499180369862661"><ele>841.0</ele><time>2026-03-23T08:41:46Z</time></trkpt><trkpt lat="31.538899705560475" lon="-4.499169674456673"><ele>841.0</ele><time>2026-03-23T08:41:57Z</time></trkpt><trkpt lat="31.53883830709115" lon="-4.499227972307224"><ele>841.0</ele><time>2026-03-23T08:41:59.001Z</time></trkpt><trkpt lat="31.538770657526076" lon="-4.499348633230995"><ele>841.0</ele><time>2026-03-23T08:42:01.001Z</time></trkpt><trkpt lat="31.538712065929076" lon="-4.499449420491933"><ele>841.0</ele><time>2026-03-23T08:42:03.001Z</time></trkpt><trkpt lat="31.538656449539033" lon="-4.499509915781484"><ele>841.5999999999999</ele><time>2026-03-23T08:42:30.001Z</time></trkpt><trkpt lat="31.53857534947766" lon="-4.499623909637281"><ele>842.2</ele><time>2026-03-23T08:42:32.001Z</time></trkpt><trkpt lat="31.538501085818112" lon="-4.4997315096772095"><ele>842.8</ele><time>2026-03-23T08:42:34.001Z</time></trkpt><trkpt lat="31.538449606096407" lon="-4.499817360325245"><ele>843.4000000000001</ele><time>2026-03-23T08:42:36.001Z</time></trkpt><trkpt lat="31.538403819797225" lon="-4.4999047007060655"><ele>844.0</ele><time>2026-03-23T08:42:38.001Z</time></trkpt><trkpt lat="31.538351870948123" lon="-4.5000267910586835"><ele>844.0</ele><time>2026-03-23T08:42:40.001Z</time></trkpt><trkpt lat="31.53832528769964" lon="-4.500097881098922"><ele>844.0</ele><time>2026-03-23T08:42:41.001Z</time></trkpt><trkpt lat="31.53829641213295" lon="-4.500197852962913"><ele>844.0</ele><time>2026-03-23T08:42:42.001Z</time></trkpt><trkpt lat="31.53827339235065" lon="-4.500308705059243"><ele>844.0</ele><time>2026-03-23T08:42:43.001Z</time></trkpt><trkpt lat="31.538254633738536" lon="-4.500423272288012"><ele>844.0</ele><time>2026-03-23T08:42:44.001Z</time></trkpt><trkpt lat="31.538226400015418" lon="-4.50054444343812"><ele>843.6</ele><time>2026-03-23T08:42:45.001Z</time></trkpt><trkpt lat="31.53819438483408" lon="-4.500652163250228"><ele>843.2</ele><time>2026-03-23T08:42:46.001Z</time></trkpt><trkpt lat="31.538152841508314" lon="-4.500766953454764"><ele>842.8000000000001</ele><time>2026-03-23T08:42:47.001Z</time></trkpt><trkpt lat="31.53810762029058" lon="-4.500872149572173"><ele>842.4000000000001</ele><time>2026-03-23T08:42:48.001Z</time></trkpt><trkpt lat="31.538050418580166" lon="-4.500976377756923"><ele>842.0</ele><time>2026-03-23T08:42:49.001Z</time></trkpt><trkpt lat="31.538001438276762" lon="-4.501105768435639"><ele>842.0</ele><time>2026-03-23T08:42:50.001Z</time></trkpt><trkpt lat="31.537926769988164" lon="-4.501211776460626"><ele>842.0</ele><time>2026-03-23T08:42:51Z</time></trkpt><trkpt lat="31.537861665536344" lon="-4.501304206676631"><ele>842.0</ele><time>2026-03-23T08:42:52Z</time></trkpt><trkpt lat="31.537730648402515" lon="-4.50134097009033"><ele>842.0</ele><time>2026-03-23T08:42:53Z</time></trkpt><trkpt lat="31.537627393529302" lon="-4.501383290052064"><ele>842.5</ele><time>2026-03-23T08:42:54Z</time></trkpt><trkpt lat="31.537518358978044" lon="-4.50142806237808"><ele>843.0</ele><time>2026-03-23T08:42:55Z</time></trkpt><trkpt lat="31.537404226442202" lon="-4.50147450524301"><ele>843.5</ele><time>2026-03-23T08:42:56Z</time></trkpt><trkpt lat="31.53728587963421" lon="-4.5015225259707154"><ele>844.0</ele><time>2026-03-23T08:42:57Z</time></trkpt><trkpt lat="31.53716566871492" lon="-4.501570779663036"><ele>844.25</ele><time>2026-03-23T08:42:58Z</time></trkpt><trkpt lat="31.537017781421756" lon="-4.501579037466291"><ele>844.5</ele><time>2026-03-23T08:42:59Z</time></trkpt><trkpt lat="31.536881948831148" lon="-4.501573054238391"><ele>844.75</ele><time>2026-03-23T08:43:00Z</time></trkpt><trkpt lat="31.536758693928867" lon="-4.501558387236326"><ele>845.0</ele><time>2026-03-23T08:43:01Z</time></trkpt><trkpt lat="31.536642038893447" lon="-4.501563633555398"><ele>845.0</ele><time>2026-03-23T08:43:02Z</time></trkpt><trkpt lat="31.536502739748595" lon="-4.501556688271099"><ele>845.0</ele><time>2026-03-23T08:43:03Z</time></trkpt><trkpt lat="31.53635856413193" lon="-4.501563195933417"><ele>845.0</ele><time>2026-03-23T08:43:04Z</time></trkpt><trkpt lat="31.53619053528517" lon="-4.501564081531216"><ele>845.25</ele><time>2026-03-23T08:43:05Z</time></trkpt><trkpt lat="31.536034625089496" lon="-4.50155513175796"><ele>845.5</ele><time>2026-03-23T08:43:06Z</time></trkpt><trkpt lat="31.53588872167482" lon="-4.501510144542708"><ele>845.75</ele><time>2026-03-23T08:43:07Z</time></trkpt><trkpt lat="31.535767219309633" lon="-4.501499300015648"><ele>846.0</ele><time>2026-03-23T08:43:08Z</time></trkpt><trkpt lat="31.535631882345786" lon="-4.501489588222301"><ele>846.0</ele><time>2026-03-23T08:43:09Z</time></trkpt><trkpt lat="31.535489614042966" lon="-4.501487378404889"><ele>846.0</ele><time>2026-03-23T08:43:10Z</time></trkpt><trkpt lat="31.535338631191696" lon="-4.501484678435657"><ele>846.0</ele><time>2026-03-23T08:43:11Z</time></trkpt><trkpt lat="31.535193575697804" lon="-4.501467826883203"><ele>846.0</ele><time>2026-03-23T08:43:12Z</time></trkpt><trkpt lat="31.535051814539813" lon="-4.50144751112753"><ele>846.1999999999999</ele><time>2026-03-23T08:43:13Z</time></trkpt><trkpt lat="31.534927322535403" lon="-4.501444420509188"><ele>846.4</ele><time>2026-03-23T08:43:14Z</time></trkpt><trkpt lat="31.534811296702973" lon="-4.501464777194083"><ele>846.6</ele><time>2026-03-23T08:43:15Z</time></trkpt><trkpt lat="31.534705943710296" lon="-4.50147222750663"><ele>846.8</ele><time>2026-03-23T08:43:16Z</time></trkpt><trkpt lat="31.53461274896928" lon="-4.501478817991334"><ele>847.0</ele><time>2026-03-23T08:43:17Z</time></trkpt><trkpt lat="31.53452043351993" lon="-4.501441783454344"><ele>846.9999999999999</ele><time>2026-03-23T08:43:18Z</time></trkpt><trkpt lat="31.534443153580632" lon="-4.501419142842482"><ele>847.0</ele><time>2026-03-23T08:43:19Z</time></trkpt><trkpt lat="31.534375134908835" lon="-4.501400819113792"><ele>847.0</ele><time>2026-03-23T08:43:20Z</time></trkpt><trkpt lat="31.534312957754924" lon="-4.5013675366058115"><ele>847.0</ele><time>2026-03-23T08:43:21Z</time></trkpt><trkpt lat="31.53425054780656" lon="-4.501327739880508"><ele>846.9999999999999</ele><time>2026-03-23T08:43:22Z</time></trkpt><trkpt lat="31.53415149512593" lon="-4.501306885777634"><ele>847.0</ele><time>2026-03-23T08:43:23Z</time></trkpt><trkpt lat="31.534029234432527" lon="-4.501291316207868"><ele>847.0</ele><time>2026-03-23T08:43:24Z</time></trkpt><trkpt lat="31.533895473957372" lon="-4.501282176043853"><ele>847.0</ele><time>2026-03-23T08:43:25Z</time></trkpt><trkpt lat="31.53375327685072" lon="-4.501303078965743"><ele>847.0</ele><time>2026-03-23T08:43:26Z</time></trkpt><trkpt lat="31.533607259574506" lon="-4.501285810328127"><ele>847.0</ele><time>2026-03-23T08:43:27Z</time></trkpt><trkpt lat="31.53347671837736" lon="-4.50125426990298"><ele>848.0</ele><time>2026-03-23T08:43:28Z</time></trkpt><trkpt lat="31.53334318954964" lon="-4.50121379969223"><ele>849.0</ele><time>2026-03-23T08:43:29Z</time></trkpt><trkpt lat="31.533225194636795" lon="-4.501175716444047"><ele>850.0</ele><time>2026-03-23T08:43:30Z</time></trkpt><trkpt lat="31.533092903796277" lon="-4.501127456074298"><ele>851.0</ele><time>2026-03-23T08:43:31Z</time></trkpt><trkpt lat="31.532948107865874" lon="-4.501063136173303"><ele>849.75</ele><time>2026-03-23T08:43:32Z</time></trkpt><trkpt lat="31.532801715636754" lon="-4.500993377581312"><ele>848.5</ele><time>2026-03-23T08:43:33Z</time></trkpt><trkpt lat="31.53266504370065" lon="-4.500955020221406"><ele>847.25</ele><time>2026-03-23T08:43:34Z</time></trkpt><trkpt lat="31.532536177427367" lon="-4.500911664045896"><ele>846.0</ele><time>2026-03-23T08:43:35Z</time></trkpt><trkpt lat="31.532401997617107" lon="-4.5008850112070595"><ele>846.0</ele><time>2026-03-23T08:43:36Z</time></trkpt><trkpt lat="31.532240257634022" lon="-4.500858085659596"><ele>846.0</ele><time>2026-03-23T08:43:37Z</time></trkpt><trkpt lat="31.532118158513978" lon="-4.500813772301884"><ele>846.0</ele><time>2026-03-23T08:43:38Z</time></trkpt><trkpt lat="31.53200864142109" lon="-4.500773501659148"><ele>846.0</ele><time>2026-03-23T08:43:39Z</time></trkpt><trkpt lat="31.531891153131347" lon="-4.500730300254391"><ele>845.3333333333333</ele><time>2026-03-23T08:43:40Z</time></trkpt><trkpt lat="31.531805658358078" lon="-4.500569585277432"><ele>844.6666666666666</ele><time>2026-03-23T08:43:41Z</time></trkpt><trkpt lat="31.53169148742128" lon="-4.5005043965428895"><ele>844.0</ele><time>2026-03-23T08:43:42Z</time></trkpt><trkpt lat="31.531540269076924" lon="-4.500413468297241"><ele>844.5</ele><time>2026-03-23T08:43:43Z</time></trkpt><trkpt lat="31.531435799598658" lon="-4.50030869861206"><ele>845.0</ele><time>2026-03-23T08:43:44Z</time></trkpt><trkpt lat="31.531338467213732" lon="-4.500171548085976"><ele>845.5</ele><time>2026-03-23T08:43:45Z</time></trkpt><trkpt lat="31.531224030659875" lon="-4.500063242352328"><ele>846.0</ele><time>2026-03-23T08:43:46Z</time></trkpt><trkpt lat="31.53111166526656" lon="-4.499947851063675"><ele>846.0</ele><time>2026-03-23T08:43:47Z</time></trkpt><trkpt lat="31.531003514943116" lon="-4.4998423746546266"><ele>846.0</ele><time>2026-03-23T08:43:48Z</time></trkpt><trkpt lat="31.53090959494035" lon="-4.499750623560301"><ele>846.0</ele><time>2026-03-23T08:43:49Z</time></trkpt><trkpt lat="31.530818851473473" lon="-4.49966168893875"><ele>846.0</ele><time>2026-03-23T08:43:50Z</time></trkpt><trkpt lat="31.530738024161444" lon="-4.4995829678595465"><ele>846.1999999999999</ele><time>2026-03-23T08:43:51Z</time></trkpt><trkpt lat="31.530665694892967" lon="-4.499488854443997"><ele>846.4</ele><time>2026-03-23T08:43:52Z</time></trkpt><trkpt lat="31.53056858930617" lon="-4.499455312626537"><ele>846.6</ele><time>2026-03-23T08:43:53Z</time></trkpt><trkpt lat="31.53049728000644" lon="-4.49940838204707"><ele>846.8</ele><time>2026-03-23T08:43:54Z</time></trkpt><trkpt lat="31.53044421799707" lon="-4.499351349337633"><ele>847.0</ele><time>2026-03-23T08:43:55Z</time></trkpt><trkpt lat="31.530338145942263" lon="-4.499292347870311"><ele>847.4000000000001</ele><time>2026-03-23T08:43:57Z</time></trkpt><trkpt lat="31.530250877748173" lon="-4.499217774670242"><ele>847.8000000000001</ele><time>2026-03-23T08:43:59Z</time></trkpt><trkpt lat="31.530179610473294" lon="-4.499179967591775"><ele>848.2</ele><time>2026-03-23T08:44:01Z</time></trkpt><trkpt lat="31.53018565441696" lon="-4.499039248634179"><ele>848.6</ele><time>2026-03-23T08:44:03Z</time></trkpt><trkpt lat="31.530192557990905" lon="-4.498949012175264"><ele>849.0</ele><time>2026-03-23T08:44:04Z</time></trkpt><trkpt lat="31.53021077005665" lon="-4.498867568500166"><ele>849.0</ele><time>2026-03-23T08:44:05Z</time></trkpt><trkpt lat="31.530217091912736" lon="-4.498780373634211"><ele>849.0</ele><time>2026-03-23T08:44:06Z</time></trkpt><trkpt lat="31.53022257461002" lon="-4.498681514509398"><ele>849.0</ele><time>2026-03-23T08:44:07Z</time></trkpt><trkpt lat="31.530229654848743" lon="-4.498567914565914"><ele>849.0</ele><time>2026-03-23T08:44:08Z</time></trkpt><trkpt lat="31.53023844237817" lon="-4.49845644387377"><ele>849.0</ele><time>2026-03-23T08:44:09Z</time></trkpt><trkpt lat="31.5302465557403" lon="-4.498334058354741"><ele>849.5</ele><time>2026-03-23T08:44:10Z</time></trkpt><trkpt lat="31.53025334664943" lon="-4.498208345730864"><ele>850.0</ele><time>2026-03-23T08:44:11Z</time></trkpt><trkpt lat="31.530261017445437" lon="-4.498072429013658"><ele>850.5</ele><time>2026-03-23T08:44:12Z</time></trkpt><trkpt lat="31.53027069745809" lon="-4.497927749554371"><ele>851.0</ele><time>2026-03-23T08:44:13Z</time></trkpt><trkpt lat="31.530280227824814" lon="-4.497783438447025"><ele>850.0</ele><time>2026-03-23T08:44:14Z</time></trkpt><trkpt lat="31.53028584757404" lon="-4.497645784476655"><ele>849.0</ele><time>2026-03-23T08:44:15Z</time></trkpt><trkpt lat="31.53029577600224" lon="-4.49752699843864"><ele>848.0</ele><time>2026-03-23T08:44:16Z</time></trkpt><trkpt lat="31.5303041274641" lon="-4.497420415612642"><ele>847.0</ele><time>2026-03-23T08:44:17Z</time></trkpt><trkpt lat="31.53031416653505" lon="-4.497313163451551"><ele>846.0</ele><time>2026-03-23T08:44:18Z</time></trkpt><trkpt lat="31.530325052540384" lon="-4.497191562915265"><ele>846.25</ele><time>2026-03-23T08:44:19Z</time></trkpt><trkpt lat="31.530334203055816" lon="-4.497059491706445"><ele>846.5</ele><time>2026-03-23T08:44:20.001Z</time></trkpt><trkpt lat="31.530342415775724" lon="-4.496915149449967"><ele>846.75</ele><time>2026-03-23T08:44:21.001Z</time></trkpt><trkpt lat="31.530350011599865" lon="-4.496763912063748"><ele>847.0</ele><time>2026-03-23T08:44:22.001Z</time></trkpt><trkpt lat="31.530356666116454" lon="-4.496603935895805"><ele>847.0</ele><time>2026-03-23T08:44:23.001Z</time></trkpt><trkpt lat="31.530364043000407" lon="-4.496437048726837"><ele>847.0</ele><time>2026-03-23T08:44:24.001Z</time></trkpt><trkpt lat="31.530374047301446" lon="-4.496264073953346"><ele>847.0</ele><time>2026-03-23T08:44:25.001Z</time></trkpt><trkpt lat="31.5303847596804" lon="-4.496086864610548"><ele>847.0</ele><time>2026-03-23T08:44:26.001Z</time></trkpt><trkpt lat="31.530398164157887" lon="-4.495903053249356"><ele>847.0</ele><time>2026-03-23T08:44:27.001Z</time></trkpt><trkpt lat="31.530411275749536" lon="-4.495719993523406"><ele>847.0</ele><time>2026-03-23T08:44:28.001Z</time></trkpt><trkpt lat="31.53042137941557" lon="-4.495522178057601"><ele>847.0</ele><time>2026-03-23T08:44:29.001Z</time></trkpt><trkpt lat="31.530428322607342" lon="-4.495343145424944"><ele>846.0</ele><time>2026-03-23T08:44:30.001Z</time></trkpt><trkpt lat="31.53043962345954" lon="-4.495164732716696"><ele>845.0</ele><time>2026-03-23T08:44:31.001Z</time></trkpt><trkpt lat="31.530451662585023" lon="-4.494983644263139"><ele>844.0</ele><time>2026-03-23T08:44:32.001Z</time></trkpt><trkpt lat="31.530465607636344" lon="-4.494802398064385"><ele>844.0</ele><time>2026-03-23T08:44:33.001Z</time></trkpt><trkpt lat="31.53047539029575" lon="-4.494631567763095"><ele>844.0</ele><time>2026-03-23T08:44:34.001Z</time></trkpt><trkpt lat="31.530481901744977" lon="-4.4944606832545215"><ele>844.0</ele><time>2026-03-23T08:44:35.001Z</time></trkpt><trkpt lat="31.53048977622242" lon="-4.494299972767056"><ele>844.0</ele><time>2026-03-23T08:44:36.001Z</time></trkpt><trkpt lat="31.530497634413337" lon="-4.494129976033381"><ele>844.25</ele><time>2026-03-23T08:44:37.001Z</time></trkpt><trkpt lat="31.530505083071258" lon="-4.493957187521001"><ele>844.5</ele><time>2026-03-23T08:44:38.001Z</time></trkpt><trkpt lat="31.530509421579737" lon="-4.49378144935789"><ele>844.75</ele><time>2026-03-23T08:44:39.001Z</time></trkpt><trkpt lat="31.530507284903656" lon="-4.493605611101725"><ele>845.0</ele><time>2026-03-23T08:44:40.001Z</time></trkpt><trkpt lat="31.53049817898627" lon="-4.49343125518264"><ele>845.0</ele><time>2026-03-23T08:44:41.001Z</time></trkpt><trkpt lat="31.530483752979713" lon="-4.493252654617361"><ele>845.0</ele><time>2026-03-23T08:44:42.001Z</time></trkpt><trkpt lat="31.530464010749373" lon="-4.493072305300248"><ele>845.0</ele><time>2026-03-23T08:44:43.001Z</time></trkpt><trkpt lat="31.53044823814149" lon="-4.492892393387064"><ele>845.6666666666667</ele><time>2026-03-23T08:44:44.001Z</time></trkpt><trkpt lat="31.53043102741354" lon="-4.49270358151222"><ele>846.3333333333333</ele><time>2026-03-23T08:44:45.001Z</time></trkpt><trkpt lat="31.530418603949514" lon="-4.492527759470208"><ele>847.0</ele><time>2026-03-23T08:44:46.001Z</time></trkpt><trkpt lat="31.530406696027562" lon="-4.492346721583579"><ele>847.0</ele><time>2026-03-23T08:44:47.001Z</time></trkpt><trkpt lat="31.530397886402113" lon="-4.492182787347271"><ele>847.0</ele><time>2026-03-23T08:44:48.001Z</time></trkpt><trkpt lat="31.530384319731215" lon="-4.492024699570704"><ele>847.0</ele><time>2026-03-23T08:44:49.001Z</time></trkpt><trkpt lat="31.530370381204577" lon="-4.491863161168483"><ele>847.0</ele><time>2026-03-23T08:44:50.001Z</time></trkpt><trkpt lat="31.530355937705306" lon="-4.4917003244953255"><ele>846.4000000000001</ele><time>2026-03-23T08:44:51.001Z</time></trkpt><trkpt lat="31.53033981936668" lon="-4.49154211627707"><ele>845.8000000000001</ele><time>2026-03-23T08:44:52.001Z</time></trkpt><trkpt lat="31.530328918202883" lon="-4.491413342203964"><ele>845.2</ele><time>2026-03-23T08:44:53.001Z</time></trkpt><trkpt lat="31.530316119214792" lon="-4.491293887595858"><ele>844.6</ele><time>2026-03-23T08:44:54.001Z</time></trkpt><trkpt lat="31.53030369181764" lon="-4.49118773293243"><ele>844.0</ele><time>2026-03-23T08:44:55.001Z</time></trkpt><trkpt lat="31.530290724440793" lon="-4.4910889543985775"><ele>844.0</ele><time>2026-03-23T08:44:56.001Z</time></trkpt><trkpt lat="31.53026324219183" lon="-4.491006309759591"><ele>844.0</ele><time>2026-03-23T08:44:56.999Z</time></trkpt><trkpt lat="31.530220760043047" lon="-4.490934051965431"><ele>844.0</ele><time>2026-03-23T08:44:57.999Z</time></trkpt><trkpt lat="31.530182902362323" lon="-4.490870738569278"><ele>844.0</ele><time>2026-03-23T08:44:59Z</time></trkpt><trkpt lat="31.530154579587297" lon="-4.490802466368843"><ele>844.0</ele><time>2026-03-23T08:45:01Z</time></trkpt><trkpt lat="31.53020979724674" lon="-4.490760319690171"><ele>844.0</ele><time>2026-03-23T08:45:04Z</time></trkpt><trkpt lat="31.53026009956444" lon="-4.4908442397065995"><ele>844.0</ele><time>2026-03-23T08:45:06Z</time></trkpt><trkpt lat="31.53034896507783" lon="-4.490905881160346"><ele>844.0</ele><time>2026-03-23T08:45:08Z</time></trkpt><trkpt lat="31.530344703437628" lon="-4.491257292163622"><ele>844.0</ele><time>2026-03-23T08:45:10Z</time></trkpt><trkpt lat="31.530364985964255" lon="-4.491407765473314"><ele>844.0</ele><time>2026-03-23T08:45:11Z</time></trkpt><trkpt lat="31.530378823399182" lon="-4.491572466091179"><ele>843.0</ele><time>2026-03-23T08:45:12Z</time></trkpt><trkpt lat="31.53039319541962" lon="-4.491752411939199"><ele>842.0</ele><time>2026-03-23T08:45:13Z</time></trkpt><trkpt lat="31.530408785082013" lon="-4.491934627516484"><ele>841.0</ele><time>2026-03-23T08:45:14Z</time></trkpt><trkpt lat="31.530426581659142" lon="-4.492130599927895"><ele>843.0</ele><time>2026-03-23T08:45:15Z</time></trkpt><trkpt lat="31.530441288388086" lon="-4.492326945274478"><ele>845.0</ele><time>2026-03-23T08:45:16Z</time></trkpt><trkpt lat="31.530455137922434" lon="-4.4925056199921"><ele>847.0</ele><time>2026-03-23T08:45:17Z</time></trkpt><trkpt lat="31.530469988141167" lon="-4.492663667772225"><ele>847.0</ele><time>2026-03-23T08:45:18Z</time></trkpt><trkpt lat="31.530483448634953" lon="-4.492822122456399"><ele>847.0</ele><time>2026-03-23T08:45:19Z</time></trkpt><trkpt lat="31.530496545787127" lon="-4.492990538025744"><ele>847.0</ele><time>2026-03-23T08:45:20Z</time></trkpt><trkpt lat="31.530507134785665" lon="-4.493159488352809"><ele>847.0</ele><time>2026-03-23T08:45:21Z</time></trkpt><trkpt lat="31.53052056117495" lon="-4.493322772740019"><ele>846.5</ele><time>2026-03-23T08:45:22Z</time></trkpt><trkpt lat="31.53053433072072" lon="-4.49348847610134"><ele>846.0</ele><time>2026-03-23T08:45:23Z</time></trkpt><trkpt lat="31.530545220602907" lon="-4.493662927431151"><ele>845.5</ele><time>2026-03-23T08:45:24Z</time></trkpt><trkpt lat="31.53055240047351" lon="-4.493833836765987"><ele>845.0</ele><time>2026-03-23T08:45:25Z</time></trkpt><trkpt lat="31.530552298853287" lon="-4.494009320662554"><ele>845.0</ele><time>2026-03-23T08:45:26Z</time></trkpt><trkpt lat="31.530573640633186" lon="-4.494179384473455"><ele>845.0</ele><time>2026-03-23T08:45:27Z</time></trkpt><trkpt lat="31.530581732921867" lon="-4.494334975712507"><ele>845.0</ele><time>2026-03-23T08:45:28Z</time></trkpt><trkpt lat="31.530585989213755" lon="-4.49448285751772"><ele>845.0</ele><time>2026-03-23T08:45:29Z</time></trkpt><trkpt lat="31.530574782423468" lon="-4.494608069534623"><ele>844.8333333333334</ele><time>2026-03-23T08:45:30Z</time></trkpt><trkpt lat="31.530565672295012" lon="-4.494710342916192"><ele>844.6666666666667</ele><time>2026-03-23T08:45:31Z</time></trkpt><trkpt lat="31.53055763316646" lon="-4.4948079274221255"><ele>844.5</ele><time>2026-03-23T08:45:32Z</time></trkpt><trkpt lat="31.53054974665144" lon="-4.49489772432883"><ele>844.3333333333333</ele><time>2026-03-23T08:45:33Z</time></trkpt><trkpt lat="31.530528199342147" lon="-4.494984860487508"><ele>844.1666666666666</ele><time>2026-03-23T08:45:34Z</time></trkpt><trkpt lat="31.530537739394045" lon="-4.495083929893223"><ele>844.0</ele><time>2026-03-23T08:45:35Z</time></trkpt><trkpt lat="31.530546601924865" lon="-4.495171712885028"><ele>844.0</ele><time>2026-03-23T08:45:36Z</time></trkpt><trkpt lat="31.530551029432267" lon="-4.49529728769558"><ele>844.0</ele><time>2026-03-23T08:45:38Z</time></trkpt><trkpt lat="31.53052785632439" lon="-4.495368190543832"><ele>844.0</ele><time>2026-03-23T08:45:40Z</time></trkpt><trkpt lat="31.53050563458246" lon="-4.495449604115282"><ele>844.0</ele><time>2026-03-23T08:45:43Z</time></trkpt><trkpt lat="31.530419688201796" lon="-4.4952496810684535"><ele>844.0</ele><time>2026-03-23T08:45:50Z</time></trkpt><trkpt lat="31.53044778260793" lon="-4.495141109217175"><ele>844.0</ele><time>2026-03-23T08:45:51Z</time></trkpt><trkpt lat="31.530464296746743" lon="-4.495011838876838"><ele>844.0</ele><time>2026-03-23T08:45:52Z</time></trkpt><trkpt lat="31.530471197648104" lon="-4.4948589710103795"><ele>844.0</ele><time>2026-03-23T08:45:53Z</time></trkpt><trkpt lat="31.530475450412915" lon="-4.494724770952626"><ele>844.0</ele><time>2026-03-23T08:45:54Z</time></trkpt><trkpt lat="31.530481663361215" lon="-4.494611572593785"><ele>844.2</ele><time>2026-03-23T08:45:55Z</time></trkpt><trkpt lat="31.53048804300678" lon="-4.494506152198668"><ele>844.4000000000001</ele><time>2026-03-23T08:45:56Z</time></trkpt><trkpt lat="31.53049244405116" lon="-4.4944112188238075"><ele>844.6</ele><time>2026-03-23T08:45:57Z</time></trkpt><trkpt lat="31.5304975070012" lon="-4.494320620300321"><ele>844.8</ele><time>2026-03-23T08:45:58Z</time></trkpt><trkpt lat="31.530500911648453" lon="-4.494216130813448"><ele>845.0</ele><time>2026-03-23T08:45:59Z</time></trkpt><trkpt lat="31.5305048256662" lon="-4.494084069998066"><ele>845.0</ele><time>2026-03-23T08:46:00Z</time></trkpt><trkpt lat="31.53050852589925" lon="-4.493930565524016"><ele>845.0</ele><time>2026-03-23T08:46:01Z</time></trkpt><trkpt lat="31.530512068925248" lon="-4.493765260107229"><ele>845.0</ele><time>2026-03-23T08:46:02Z</time></trkpt><trkpt lat="31.53050772785153" lon="-4.493588045158513"><ele>845.0</ele><time>2026-03-23T08:46:03Z</time></trkpt><trkpt lat="31.53049369409811" lon="-4.493406528062324"><ele>845.0</ele><time>2026-03-23T08:46:04Z</time></trkpt><trkpt lat="31.530475630731264" lon="-4.493221908693121"><ele>845.0</ele><time>2026-03-23T08:46:05Z</time></trkpt><trkpt lat="31.53045673379527" lon="-4.493019815087154"><ele>845.0</ele><time>2026-03-23T08:46:06Z</time></trkpt><trkpt lat="31.53044180665164" lon="-4.492832590003791"><ele>845.6666666666667</ele><time>2026-03-23T08:46:07Z</time></trkpt><trkpt lat="31.530426936553475" lon="-4.492657670903374"><ele>846.3333333333333</ele><time>2026-03-23T08:46:08Z</time></trkpt><trkpt lat="31.530412206368094" lon="-4.492474243837151"><ele>847.0</ele><time>2026-03-23T08:46:09Z</time></trkpt><trkpt lat="31.530398142524433" lon="-4.492275301225223"><ele>845.6666666666666</ele><time>2026-03-23T08:46:10Z</time></trkpt><trkpt lat="31.530386536688162" lon="-4.492082428091861"><ele>844.3333333333333</ele><time>2026-03-23T08:46:11Z</time></trkpt><trkpt lat="31.530373915346022" lon="-4.491885476585663"><ele>843.0</ele><time>2026-03-23T08:46:12Z</time></trkpt><trkpt lat="31.53036038341531" lon="-4.491692071049566"><ele>843.0</ele><time>2026-03-23T08:46:13Z</time></trkpt><trkpt lat="31.530344305701846" lon="-4.49151815213386"><ele>843.0</ele><time>2026-03-23T08:46:14Z</time></trkpt><trkpt lat="31.530326875532516" lon="-4.49135185299333"><ele>843.0</ele><time>2026-03-23T08:46:15Z</time></trkpt><trkpt lat="31.53030458108473" lon="-4.49119148172212"><ele>843.0</ele><time>2026-03-23T08:46:16Z</time></trkpt><trkpt lat="31.53027252343325" lon="-4.491030991002994"><ele>843.25</ele><time>2026-03-23T08:46:17Z</time></trkpt><trkpt lat="31.530230662846716" lon="-4.490870589318381"><ele>843.5</ele><time>2026-03-23T08:46:18Z</time></trkpt><trkpt lat="31.530180112712582" lon="-4.490710849402605"><ele>843.75</ele><time>2026-03-23T08:46:19Z</time></trkpt><trkpt lat="31.53011961334764" lon="-4.490545713107429"><ele>844.0</ele><time>2026-03-23T08:46:20Z</time></trkpt><trkpt lat="31.53005662008724" lon="-4.4903715480468245"><ele>845.3333333333333</ele><time>2026-03-23T08:46:21Z</time></trkpt><trkpt lat="31.52999351218743" lon="-4.490185501998701"><ele>846.6666666666667</ele><time>2026-03-23T08:46:22Z</time></trkpt><trkpt lat="31.529928800130843" lon="-4.489986240410633"><ele>848.0</ele><time>2026-03-23T08:46:23Z</time></trkpt><trkpt lat="31.52986735180583" lon="-4.489783883506304"><ele>847.0</ele><time>2026-03-23T08:46:24Z</time></trkpt><trkpt lat="31.529802969065127" lon="-4.489571562281497"><ele>846.0</ele><time>2026-03-23T08:46:25Z</time></trkpt><trkpt lat="31.529737849390692" lon="-4.489351734326835"><ele>845.0</ele><time>2026-03-23T08:46:26Z</time></trkpt><trkpt lat="31.529674971436606" lon="-4.489141332467664"><ele>845.0</ele><time>2026-03-23T08:46:27.001Z</time></trkpt><trkpt lat="31.529608339157928" lon="-4.488925250168614"><ele>845.0</ele><time>2026-03-23T08:46:28.001Z</time></trkpt><trkpt lat="31.52953928754185" lon="-4.488718399330509"><ele>845.0</ele><time>2026-03-23T08:46:29.001Z</time></trkpt><trkpt lat="31.529466967164815" lon="-4.488520457295684"><ele>845.0</ele><time>2026-03-23T08:46:30.001Z</time></trkpt><trkpt lat="31.52939416411" lon="-4.488328494218674"><ele>845.0</ele><time>2026-03-23T08:46:31.001Z</time></trkpt><trkpt lat="31.529340279301543" lon="-4.488133804377958"><ele>845.0</ele><time>2026-03-23T08:46:32.001Z</time></trkpt><trkpt lat="31.52929495471298" lon="-4.487922823955998"><ele>845.0</ele><time>2026-03-23T08:46:33.001Z</time></trkpt><trkpt lat="31.529259474594692" lon="-4.4877138434001855"><ele>845.0</ele><time>2026-03-23T08:46:34.001Z</time></trkpt><trkpt lat="31.529225740758623" lon="-4.487496153156195"><ele>845.0</ele><time>2026-03-23T08:46:35.001Z</time></trkpt><trkpt lat="31.529204400948796" lon="-4.487285216185464"><ele>845.3333333333334</ele><time>2026-03-23T08:46:36.001Z</time></trkpt><trkpt lat="31.529190406590242" lon="-4.487086094511065"><ele>845.6666666666667</ele><time>2026-03-23T08:46:37.001Z</time></trkpt><trkpt lat="31.529175172738718" lon="-4.486908532993067"><ele>846.0</ele><time>2026-03-23T08:46:38.001Z</time></trkpt><trkpt lat="31.529157838404632" lon="-4.486749751827959"><ele>846.0</ele><time>2026-03-23T08:46:39.001Z</time></trkpt><trkpt lat="31.529143194255354" lon="-4.4866077613167725"><ele>846.0</ele><time>2026-03-23T08:46:40.001Z</time></trkpt><trkpt lat="31.52913259631392" lon="-4.4864803801764"><ele>846.0</ele><time>2026-03-23T08:46:41.001Z</time></trkpt><trkpt lat="31.529125034877904" lon="-4.486353439090482"><ele>846.0</ele><time>2026-03-23T08:46:42.001Z</time></trkpt><trkpt lat="31.52911804301087" lon="-4.486225333316047"><ele>846.0</ele><time>2026-03-23T08:46:43.001Z</time></trkpt><trkpt lat="31.529110412451505" lon="-4.486099074243753"><ele>845.4</ele><time>2026-03-23T08:46:44.001Z</time></trkpt><trkpt lat="31.529104556386688" lon="-4.485982807465244"><ele>844.8</ele><time>2026-03-23T08:46:45.001Z</time></trkpt><trkpt lat="31.529098860540685" lon="-4.485864930406407"><ele>844.1999999999999</ele><time>2026-03-23T08:46:46.001Z</time></trkpt><trkpt lat="31.52909001104629" lon="-4.485740455193181"><ele>843.5999999999999</ele><time>2026-03-23T08:46:47.001Z</time></trkpt><trkpt lat="31.52908790244997" lon="-4.485611886687339"><ele>843.0</ele><time>2026-03-23T08:46:48.001Z</time></trkpt><trkpt lat="31.52909435987364" lon="-4.485481034108076"><ele>843.25</ele><time>2026-03-23T08:46:49.001Z</time></trkpt><trkpt lat="31.529100812949064" lon="-4.485337232383625"><ele>843.5</ele><time>2026-03-23T08:46:50.001Z</time></trkpt><trkpt lat="31.529109212419762" lon="-4.48517438502711"><ele>843.75</ele><time>2026-03-23T08:46:51.001Z</time></trkpt><trkpt lat="31.529126858360208" lon="-4.484992910481882"><ele>844.0</ele><time>2026-03-23T08:46:52.001Z</time></trkpt><trkpt lat="31.52915425265365" lon="-4.484799031157726"><ele>844.0</ele><time>2026-03-23T08:46:53.001Z</time></trkpt><trkpt lat="31.529188924090487" lon="-4.484592547116702"><ele>844.0</ele><time>2026-03-23T08:46:54.001Z</time></trkpt><trkpt lat="31.5292289080074" lon="-4.484372887327461"><ele>844.0</ele><time>2026-03-23T08:46:55.001Z</time></trkpt><trkpt lat="31.529268431688784" lon="-4.484156370336284"><ele>844.0</ele><time>2026-03-23T08:46:56.001Z</time></trkpt><trkpt lat="31.52930220491159" lon="-4.483971784183758"><ele>844.0</ele><time>2026-03-23T08:46:57.001Z</time></trkpt><trkpt lat="31.529329605945687" lon="-4.483828679681869"><ele>844.0</ele><time>2026-03-23T08:46:58.001Z</time></trkpt><trkpt lat="31.529355420211022" lon="-4.483698758663338"><ele>844.0</ele><time>2026-03-23T08:46:59.001Z</time></trkpt><trkpt lat="31.529379868153658" lon="-4.483574907856734"><ele>843.6</ele><time>2026-03-23T08:47:00.001Z</time></trkpt><trkpt lat="31.52940354061609" lon="-4.483443946542022"><ele>843.2</ele><time>2026-03-23T08:47:01.001Z</time></trkpt><trkpt lat="31.52942460533434" lon="-4.483308957369681"><ele>842.8000000000001</ele><time>2026-03-23T08:47:02.001Z</time></trkpt><trkpt lat="31.52944265485271" lon="-4.483197089677096"><ele>842.4000000000001</ele><time>2026-03-23T08:47:03.001Z</time></trkpt><trkpt lat="31.529453469601282" lon="-4.483110831083252"><ele>842.0</ele><time>2026-03-23T08:47:04.001Z</time></trkpt><trkpt lat="31.529425261748806" lon="-4.483043003328069"><ele>842.0</ele><time>2026-03-23T08:47:06.001Z</time></trkpt><trkpt lat="31.52933970059588" lon="-4.483051533761287"><ele>842.0</ele><time>2026-03-23T08:47:08.001Z</time></trkpt><trkpt lat="31.529259304299686" lon="-4.483065011555686"><ele>842.0</ele><time>2026-03-23T08:47:09.001Z</time></trkpt><trkpt lat="31.529171153590653" lon="-4.483066607596844"><ele>842.0</ele><time>2026-03-23T08:47:10.001Z</time></trkpt><trkpt lat="31.529098076774304" lon="-4.48306002099838"><ele>842.0</ele><time>2026-03-23T08:47:11.001Z</time></trkpt><trkpt lat="31.52897567454227" lon="-4.4830483048208745"><ele>842.0</ele><time>2026-03-23T08:47:13.001Z</time></trkpt><trkpt lat="31.528838779222134" lon="-4.4830376238471015"><ele>842.0</ele><time>2026-03-23T08:47:15.001Z</time></trkpt><trkpt lat="31.528745944197425" lon="-4.483030912716296"><ele>842.0</ele><time>2026-03-23T08:47:16.001Z</time></trkpt><trkpt lat="31.52864043679057" lon="-4.483027822757553"><ele>842.0</ele><time>2026-03-23T08:47:17.001Z</time></trkpt><trkpt lat="31.52852982948241" lon="-4.483031195481988"><ele>842.0</ele><time>2026-03-23T08:47:18.001Z</time></trkpt><trkpt lat="31.528416196388687" lon="-4.483040400464"><ele>842.75</ele><time>2026-03-23T08:47:19.001Z</time></trkpt><trkpt lat="31.528307287775597" lon="-4.483065432866409"><ele>843.5</ele><time>2026-03-23T08:47:20.001Z</time></trkpt><trkpt lat="31.528186522567907" lon="-4.483111355481979"><ele>844.25</ele><time>2026-03-23T08:47:21.001Z</time></trkpt><trkpt lat="31.528061699024423" lon="-4.483173093911932"><ele>845.0</ele><time>2026-03-23T08:47:22.001Z</time></trkpt><trkpt lat="31.52792304184118" lon="-4.483236038064796"><ele>843.0</ele><time>2026-03-23T08:47:23.001Z</time></trkpt><trkpt lat="31.527779418260263" lon="-4.483301615911188"><ele>841.0</ele><time>2026-03-23T08:47:24.001Z</time></trkpt><trkpt lat="31.52761834425166" lon="-4.483367239864559"><ele>839.0</ele><time>2026-03-23T08:47:25.001Z</time></trkpt><trkpt lat="31.527467903273404" lon="-4.483428919875073"><ele>839.0</ele><time>2026-03-23T08:47:26.001Z</time></trkpt><trkpt lat="31.52730235120159" lon="-4.483497501062695"><ele>839.0</ele><time>2026-03-23T08:47:27.001Z</time></trkpt><trkpt lat="31.527138032750532" lon="-4.483567963434206"><ele>839.0</ele><time>2026-03-23T08:47:28.001Z</time></trkpt><trkpt lat="31.526973918534722" lon="-4.483635354056375"><ele>839.6666666666667</ele><time>2026-03-23T08:47:29.001Z</time></trkpt><trkpt lat="31.526800883789" lon="-4.48370202447356"><ele>840.3333333333333</ele><time>2026-03-23T08:47:30.001Z</time></trkpt><trkpt lat="31.526623287131372" lon="-4.483768048659567"><ele>841.0</ele><time>2026-03-23T08:47:31.001Z</time></trkpt><trkpt lat="31.5264377874351" lon="-4.483825305117223"><ele>841.0</ele><time>2026-03-23T08:47:32.001Z</time></trkpt><trkpt lat="31.52626602000752" lon="-4.483872611146155"><ele>841.0</ele><time>2026-03-23T08:47:33.001Z</time></trkpt><trkpt lat="31.52607714361223" lon="-4.483914068555536"><ele>841.0</ele><time>2026-03-23T08:47:34.001Z</time></trkpt><trkpt lat="31.525887967769034" lon="-4.483949013799553"><ele>841.0</ele><time>2026-03-23T08:47:35.001Z</time></trkpt><trkpt lat="31.525707068182875" lon="-4.483978138845319"><ele>841.0</ele><time>2026-03-23T08:47:36.001Z</time></trkpt><trkpt lat="31.52552100643756" lon="-4.484000935150551"><ele>841.0</ele><time>2026-03-23T08:47:37.001Z</time></trkpt><trkpt lat="31.525337041286132" lon="-4.484008427145372"><ele>841.0</ele><time>2026-03-23T08:47:38.001Z</time></trkpt><trkpt lat="31.5251660157654" lon="-4.484002425941766"><ele>841.0</ele><time>2026-03-23T08:47:39.001Z</time></trkpt><trkpt lat="31.52501753051873" lon="-4.483991431846042"><ele>841.0</ele><time>2026-03-23T08:47:40.001Z</time></trkpt><trkpt lat="31.52488247041362" lon="-4.4839776760148755"><ele>841.0</ele><time>2026-03-23T08:47:41.001Z</time></trkpt><trkpt lat="31.524747159201407" lon="-4.483970224951578"><ele>841.0</ele><time>2026-03-23T08:47:42.001Z</time></trkpt><trkpt lat="31.52462116703914" lon="-4.483963307867165"><ele>841.0</ele><time>2026-03-23T08:47:43.001Z</time></trkpt><trkpt lat="31.524511625614334" lon="-4.483958096366824"><ele>841.0</ele><time>2026-03-23T08:47:44.001Z</time></trkpt><trkpt lat="31.524393222909573" lon="-4.483965986451184"><ele>841.3333333333333</ele><time>2026-03-23T08:47:45.001Z</time></trkpt><trkpt lat="31.524261131952265" lon="-4.484009039886835"><ele>841.6666666666667</ele><time>2026-03-23T08:47:46.001Z</time></trkpt><trkpt lat="31.524107435789155" lon="-4.484062501214426"><ele>842.0</ele><time>2026-03-23T08:47:47.001Z</time></trkpt><trkpt lat="31.523925878166867" lon="-4.484104407648054"><ele>842.0</ele><time>2026-03-23T08:47:48.001Z</time></trkpt><trkpt lat="31.52375827927264" lon="-4.484126236939376"><ele>842.0</ele><time>2026-03-23T08:47:49.001Z</time></trkpt><trkpt lat="31.523600756433844" lon="-4.484123165944729"><ele>842.0</ele><time>2026-03-23T08:47:50.001Z</time></trkpt><trkpt lat="31.523436183275745" lon="-4.484114793082083"><ele>841.6666666666667</ele><time>2026-03-23T08:47:51.001Z</time></trkpt><trkpt lat="31.52326358339321" lon="-4.484111003481516"><ele>841.3333333333333</ele><time>2026-03-23T08:47:52.001Z</time></trkpt><trkpt lat="31.523097474032554" lon="-4.484088848368927"><ele>841.0</ele><time>2026-03-23T08:47:53.001Z</time></trkpt><trkpt lat="31.52292358078596" lon="-4.484040091301906"><ele>841.0</ele><time>2026-03-23T08:47:54.001Z</time></trkpt><trkpt lat="31.522750257898466" lon="-4.483982825964068"><ele>841.0</ele><time>2026-03-23T08:47:55.001Z</time></trkpt><trkpt lat="31.522582450261964" lon="-4.483940803652059"><ele>841.0</ele><time>2026-03-23T08:47:56.001Z</time></trkpt><trkpt lat="31.522418594707595" lon="-4.483924004337373"><ele>841.0</ele><time>2026-03-23T08:47:57.001Z</time></trkpt><trkpt lat="31.522262398381233" lon="-4.483935995431988"><ele>841.0</ele><time>2026-03-23T08:47:58.001Z</time></trkpt><trkpt lat="31.5220977377512" lon="-4.483947332084504"><ele>841.0</ele><time>2026-03-23T08:47:59.001Z</time></trkpt><trkpt lat="31.52193192625644" lon="-4.483939395006217"><ele>841.3333333333333</ele><time>2026-03-23T08:48:00.001Z</time></trkpt><trkpt lat="31.521764246749076" lon="-4.4839110177990475"><ele>841.6666666666667</ele><time>2026-03-23T08:48:01.001Z</time></trkpt><trkpt lat="31.52159620306367" lon="-4.483874398062578"><ele>842.0</ele><time>2026-03-23T08:48:02.001Z</time></trkpt><trkpt lat="31.521429158231076" lon="-4.483844449539284"><ele>842.0</ele><time>2026-03-23T08:48:03.001Z</time></trkpt><trkpt lat="31.52127127345519" lon="-4.483830912443036"><ele>842.0</ele><time>2026-03-23T08:48:04.001Z</time></trkpt><trkpt lat="31.521124981242227" lon="-4.483837544137362"><ele>842.0</ele><time>2026-03-23T08:48:05.001Z</time></trkpt><trkpt lat="31.520986487137908" lon="-4.483876024816211"><ele>842.0</ele><time>2026-03-23T08:48:06.001Z</time></trkpt><trkpt lat="31.52086199588313" lon="-4.48393574378953"><ele>842.0</ele><time>2026-03-23T08:48:07.001Z</time></trkpt><trkpt lat="31.520728853500376" lon="-4.483999657733886"><ele>842.0</ele><time>2026-03-23T08:48:08.001Z</time></trkpt><trkpt lat="31.520597193209703" lon="-4.484061525024749"><ele>842.0</ele><time>2026-03-23T08:48:09.001Z</time></trkpt><trkpt lat="31.520477992284494" lon="-4.484120153118337"><ele>842.0</ele><time>2026-03-23T08:48:10.001Z</time></trkpt><trkpt lat="31.52037798899676" lon="-4.484157755841825"><ele>842.0</ele><time>2026-03-23T08:48:11.001Z</time></trkpt><trkpt lat="31.520273768197665" lon="-4.484198430500732"><ele>842.0</ele><time>2026-03-23T08:48:12.001Z</time></trkpt><trkpt lat="31.520158170710847" lon="-4.484241386056784"><ele>842.0</ele><time>2026-03-23T08:48:13.001Z</time></trkpt><trkpt lat="31.520023573570807" lon="-4.4842793223397805"><ele>842.0</ele><time>2026-03-23T08:48:14.001Z</time></trkpt><trkpt lat="31.519871825739294" lon="-4.484305765308079"><ele>842.0</ele><time>2026-03-23T08:48:15.001Z</time></trkpt><trkpt lat="31.519717822964783" lon="-4.484316273827943"><ele>842.0</ele><time>2026-03-23T08:48:16.001Z</time></trkpt><trkpt lat="31.51957670295033" lon="-4.4843057044480314"><ele>842.0</ele><time>2026-03-23T08:48:17.001Z</time></trkpt><trkpt lat="31.519424168658865" lon="-4.484287855215644"><ele>842.0</ele><time>2026-03-23T08:48:18.001Z</time></trkpt><trkpt lat="31.519264433879886" lon="-4.484264255585465"><ele>838.6666666666667</ele><time>2026-03-23T08:48:19.001Z</time></trkpt><trkpt lat="31.519105379217482" lon="-4.484261813491761"><ele>835.3333333333333</ele><time>2026-03-23T08:48:20.001Z</time></trkpt><trkpt lat="31.518934974758956" lon="-4.484277849220151"><ele>832.0</ele><time>2026-03-23T08:48:21.001Z</time></trkpt><trkpt lat="31.51877458300977" lon="-4.484300696273608"><ele>831.75</ele><time>2026-03-23T08:48:22.001Z</time></trkpt><trkpt lat="31.518653446980082" lon="-4.4843137127687775"><ele>831.5</ele><time>2026-03-23T08:48:23.001Z</time></trkpt><trkpt lat="31.51854650670159" lon="-4.484356538812725"><ele>831.25</ele><time>2026-03-23T08:48:24.001Z</time></trkpt><trkpt lat="31.518443987754825" lon="-4.4844006360037625"><ele>831.0</ele><time>2026-03-23T08:48:25.001Z</time></trkpt><trkpt lat="31.518324580108022" lon="-4.484444851145659"><ele>831.0</ele><time>2026-03-23T08:48:26.001Z</time></trkpt><trkpt lat="31.51819136220634" lon="-4.484463444614878"><ele>831.0</ele><time>2026-03-23T08:48:27.001Z</time></trkpt><trkpt lat="31.51803388334063" lon="-4.4844804182899045"><ele>831.0</ele><time>2026-03-23T08:48:28.001Z</time></trkpt><trkpt lat="31.517871536110178" lon="-4.484491731000529"><ele>834.25</ele><time>2026-03-23T08:48:29.001Z</time></trkpt><trkpt lat="31.51772710519806" lon="-4.4844949402433105"><ele>837.5</ele><time>2026-03-23T08:48:30.001Z</time></trkpt><trkpt lat="31.517583323189918" lon="-4.48449483659342"><ele>840.75</ele><time>2026-03-23T08:48:31.001Z</time></trkpt><trkpt lat="31.5174502969598" lon="-4.484518864575895"><ele>844.0</ele><time>2026-03-23T08:48:32.001Z</time></trkpt><trkpt lat="31.51732594783475" lon="-4.484596078439383"><ele>843.75</ele><time>2026-03-23T08:48:33.001Z</time></trkpt><trkpt lat="31.517203938639085" lon="-4.4847010513824515"><ele>843.5</ele><time>2026-03-23T08:48:34.001Z</time></trkpt><trkpt lat="31.51708222094251" lon="-4.484793504597687"><ele>843.25</ele><time>2026-03-23T08:48:35.001Z</time></trkpt><trkpt lat="31.516963623253336" lon="-4.484828782738844"><ele>843.0</ele><time>2026-03-23T08:48:36.001Z</time></trkpt><trkpt lat="31.516850361661188" lon="-4.484830913927275"><ele>842.5</ele><time>2026-03-23T08:48:37.001Z</time></trkpt><trkpt lat="31.51672893140515" lon="-4.48480042058895"><ele>842.0</ele><time>2026-03-23T08:48:38.001Z</time></trkpt><trkpt lat="31.516585021219257" lon="-4.484738362288165"><ele>841.5</ele><time>2026-03-23T08:48:39.001Z</time></trkpt><trkpt lat="31.51643355952305" lon="-4.484672712624017"><ele>841.0</ele><time>2026-03-23T08:48:40.001Z</time></trkpt><trkpt lat="31.516281330619098" lon="-4.484620729801804"><ele>841.0</ele><time>2026-03-23T08:48:41.001Z</time></trkpt><trkpt lat="31.516116859976197" lon="-4.484572668492368"><ele>841.0</ele><time>2026-03-23T08:48:42.001Z</time></trkpt><trkpt lat="31.515953632986374" lon="-4.484541929142427"><ele>841.0</ele><time>2026-03-23T08:48:43.001Z</time></trkpt><trkpt lat="31.515808276822867" lon="-4.484536452531708"><ele>841.0</ele><time>2026-03-23T08:48:44.001Z</time></trkpt><trkpt lat="31.51564486816448" lon="-4.484550903369859"><ele>841.0</ele><time>2026-03-23T08:48:45.001Z</time></trkpt><trkpt lat="31.51547909263125" lon="-4.484577550241404"><ele>841.0</ele><time>2026-03-23T08:48:46.001Z</time></trkpt><trkpt lat="31.515312045613868" lon="-4.484596384377069"><ele>841.0</ele><time>2026-03-23T08:48:47.001Z</time></trkpt><trkpt lat="31.51517069184203" lon="-4.484623936632331"><ele>841.0</ele><time>2026-03-23T08:48:48.001Z</time></trkpt><trkpt lat="31.51506341415569" lon="-4.484631480134248"><ele>841.0</ele><time>2026-03-23T08:48:49.001Z</time></trkpt><trkpt lat="31.51498249859943" lon="-4.484593944261659"><ele>841.0</ele><time>2026-03-23T08:48:50.001Z</time></trkpt><trkpt lat="31.514868725780076" lon="-4.484545053247079"><ele>841.0</ele><time>2026-03-23T08:48:51.001Z</time></trkpt><trkpt lat="31.514739028663193" lon="-4.4844903160261245"><ele>841.0</ele><time>2026-03-23T08:48:52.001Z</time></trkpt><trkpt lat="31.514580652721527" lon="-4.484443458916883"><ele>841.0</ele><time>2026-03-23T08:48:53.001Z</time></trkpt><trkpt lat="31.514398922483466" lon="-4.484423774275957"><ele>838.6666666666666</ele><time>2026-03-23T08:48:54.001Z</time></trkpt><trkpt lat="31.514231473896363" lon="-4.484413871059366"><ele>836.3333333333333</ele><time>2026-03-23T08:48:55.001Z</time></trkpt><trkpt lat="31.51405230985966" lon="-4.484399563529345"><ele>834.0</ele><time>2026-03-23T08:48:56.001Z</time></trkpt><trkpt lat="31.51387483319933" lon="-4.48437765378687"><ele>835.3333333333333</ele><time>2026-03-23T08:48:57.001Z</time></trkpt><trkpt lat="31.513693707094507" lon="-4.484387953856359"><ele>836.6666666666666</ele><time>2026-03-23T08:48:58.001Z</time></trkpt><trkpt lat="31.513501377055128" lon="-4.484429493397918"><ele>838.0</ele><time>2026-03-23T08:48:59.001Z</time></trkpt><trkpt lat="31.5133000771638" lon="-4.484478954719503"><ele>838.0</ele><time>2026-03-23T08:49:00.001Z</time></trkpt><trkpt lat="31.513095150108224" lon="-4.48451781224076"><ele>838.0</ele><time>2026-03-23T08:49:01.001Z</time></trkpt><trkpt lat="31.512877023259882" lon="-4.4845517165677675"><ele>838.0</ele><time>2026-03-23T08:49:02.001Z</time></trkpt><trkpt lat="31.51264034248817" lon="-4.484590515650267"><ele>840.0</ele><time>2026-03-23T08:49:03.001Z</time></trkpt><trkpt lat="31.512450044944092" lon="-4.484618957229909"><ele>842.0</ele><time>2026-03-23T08:49:04.001Z</time></trkpt><trkpt lat="31.512272745869538" lon="-4.48464723088411"><ele>844.0</ele><time>2026-03-23T08:49:05.001Z</time></trkpt><trkpt lat="31.5121307302133" lon="-4.484657518396567"><ele>843.5</ele><time>2026-03-23T08:49:06.001Z</time></trkpt><trkpt lat="31.512003343211568" lon="-4.484657146395525"><ele>843.0</ele><time>2026-03-23T08:49:07.001Z</time></trkpt><trkpt lat="31.51186946096717" lon="-4.484647746808577"><ele>842.5</ele><time>2026-03-23T08:49:08.001Z</time></trkpt><trkpt lat="31.511704165446996" lon="-4.484640169669473"><ele>842.0</ele><time>2026-03-23T08:49:09.001Z</time></trkpt><trkpt lat="31.5115445247523" lon="-4.484654959210222"><ele>842.0</ele><time>2026-03-23T08:49:10.001Z</time></trkpt><trkpt lat="31.511403007201935" lon="-4.4846674240539235"><ele>842.0</ele><time>2026-03-23T08:49:11.001Z</time></trkpt><trkpt lat="31.511266500589706" lon="-4.484650466802008"><ele>842.0</ele><time>2026-03-23T08:49:12.001Z</time></trkpt><trkpt lat="31.511138340365854" lon="-4.4845939352540904"><ele>842.0</ele><time>2026-03-23T08:49:13.001Z</time></trkpt><trkpt lat="31.511010430544204" lon="-4.484509083404599"><ele>842.3333333333334</ele><time>2026-03-23T08:49:14.001Z</time></trkpt><trkpt lat="31.510879372852965" lon="-4.484408565877236"><ele>842.6666666666667</ele><time>2026-03-23T08:49:15.001Z</time></trkpt><trkpt lat="31.51074898171799" lon="-4.484298177821566"><ele>843.0</ele><time>2026-03-23T08:49:16.001Z</time></trkpt><trkpt lat="31.510630886571377" lon="-4.484214857983947"><ele>843.0</ele><time>2026-03-23T08:49:17.001Z</time></trkpt><trkpt lat="31.51051257613745" lon="-4.484170212242678"><ele>843.0</ele><time>2026-03-23T08:49:18.001Z</time></trkpt><trkpt lat="31.510379164388898" lon="-4.484130746344584"><ele>843.0</ele><time>2026-03-23T08:49:19.001Z</time></trkpt><trkpt lat="31.510227871812386" lon="-4.4840969132004895"><ele>843.0</ele><time>2026-03-23T08:49:20.001Z</time></trkpt><trkpt lat="31.5100571582413" lon="-4.484070361253644"><ele>842.6666666666667</ele><time>2026-03-23T08:49:21.001Z</time></trkpt><trkpt lat="31.5099031913638" lon="-4.484052729979235"><ele>842.3333333333334</ele><time>2026-03-23T08:49:22.001Z</time></trkpt><trkpt lat="31.50975093798563" lon="-4.484043434004"><ele>842.0</ele><time>2026-03-23T08:49:23.001Z</time></trkpt><trkpt lat="31.50959220448573" lon="-4.4840202977866985"><ele>841.3333333333334</ele><time>2026-03-23T08:49:24.001Z</time></trkpt><trkpt lat="31.509414382427806" lon="-4.483974401484053"><ele>840.6666666666667</ele><time>2026-03-23T08:49:25.001Z</time></trkpt><trkpt lat="31.50922686597946" lon="-4.483917366971425"><ele>840.0</ele><time>2026-03-23T08:49:26.001Z</time></trkpt><trkpt lat="31.5090374444981" lon="-4.48385233708725"><ele>840.0</ele><time>2026-03-23T08:49:27.001Z</time></trkpt><trkpt lat="31.508880078694993" lon="-4.483778341996232"><ele>840.0</ele><time>2026-03-23T08:49:28.001Z</time></trkpt><trkpt lat="31.508729094504464" lon="-4.483702750813929"><ele>840.0</ele><time>2026-03-23T08:49:29.001Z</time></trkpt><trkpt lat="31.508584039906534" lon="-4.483602255910762"><ele>840.6666666666667</ele><time>2026-03-23T08:49:30.001Z</time></trkpt><trkpt lat="31.508444893007827" lon="-4.483482857102314"><ele>841.3333333333334</ele><time>2026-03-23T08:49:31.001Z</time></trkpt><trkpt lat="31.508310405719687" lon="-4.483363535422961"><ele>842.0</ele><time>2026-03-23T08:49:32.001Z</time></trkpt><trkpt lat="31.50816880067412" lon="-4.483238121122904"><ele>842.0</ele><time>2026-03-23T08:49:33.001Z</time></trkpt><trkpt lat="31.508061948619826" lon="-4.483137139643055"><ele>842.0</ele><time>2026-03-23T08:49:34.001Z</time></trkpt><trkpt lat="31.507973730941217" lon="-4.483069987865782"><ele>842.0</ele><time>2026-03-23T08:49:35.001Z</time></trkpt><trkpt lat="31.50790380254123" lon="-4.483031919349275"><ele>842.0</ele><time>2026-03-23T08:49:36.001Z</time></trkpt><trkpt lat="31.50783585477322" lon="-4.483006009591612"><ele>842.0</ele><time>2026-03-23T08:49:39.001Z</time></trkpt><trkpt lat="31.507775760875514" lon="-4.482931963048823"><ele>842.0000000000001</ele><time>2026-03-23T08:50:03.001Z</time></trkpt><trkpt lat="31.50777147086965" lon="-4.482819776287325"><ele>842.0</ele><time>2026-03-23T08:50:05.001Z</time></trkpt><trkpt lat="31.507785512388942" lon="-4.48266283547713"><ele>842.0</ele><time>2026-03-23T08:50:07.001Z</time></trkpt><trkpt lat="31.507781896258855" lon="-4.482588794660475"><ele>842.0</ele><time>2026-03-23T08:50:08.001Z</time></trkpt><trkpt lat="31.507775717935285" lon="-4.482514381539862"><ele>842.0000000000001</ele><time>2026-03-23T08:50:09.001Z</time></trkpt><trkpt lat="31.50777168529017" lon="-4.4824361120248515"><ele>842.0</ele><time>2026-03-23T08:50:10.001Z</time></trkpt><trkpt lat="31.507772836974052" lon="-4.4823456941413635"><ele>842.0</ele><time>2026-03-23T08:50:11.001Z</time></trkpt><trkpt lat="31.507782480180747" lon="-4.482230202622561"><ele>842.0</ele><time>2026-03-23T08:50:12.001Z</time></trkpt><trkpt lat="31.507791293377345" lon="-4.482083976529711"><ele>842.0</ele><time>2026-03-23T08:50:13.001Z</time></trkpt><trkpt lat="31.507801774912952" lon="-4.481939668900078"><ele>842.0</ele><time>2026-03-23T08:50:14.001Z</time></trkpt><trkpt lat="31.507811582090525" lon="-4.481796910959207"><ele>842.0</ele><time>2026-03-23T08:50:15.001Z</time></trkpt><trkpt lat="31.507822980344354" lon="-4.481655384357339"><ele>842.0</ele><time>2026-03-23T08:50:16.001Z</time></trkpt><trkpt lat="31.507818915507542" lon="-4.481505136875746"><ele>842.0</ele><time>2026-03-23T08:50:17.001Z</time></trkpt><trkpt lat="31.50781318229386" lon="-4.481355851347801"><ele>842.0</ele><time>2026-03-23T08:50:18.001Z</time></trkpt><trkpt lat="31.50782345025038" lon="-4.481232125630784"><ele>842.0</ele><time>2026-03-23T08:50:19.001Z</time></trkpt><trkpt lat="31.507838728435537" lon="-4.481120540289018"><ele>842.0</ele><time>2026-03-23T08:50:20.001Z</time></trkpt><trkpt lat="31.507841585565668" lon="-4.481009908370532"><ele>842.0</ele><time>2026-03-23T08:50:21.001Z</time></trkpt><trkpt lat="31.507835500189927" lon="-4.480882326005072"><ele>842.0</ele><time>2026-03-23T08:50:22.001Z</time></trkpt><trkpt lat="31.507828600862222" lon="-4.4807321957945225"><ele>842.0</ele><time>2026-03-23T08:50:23.001Z</time></trkpt><trkpt lat="31.507819681354608" lon="-4.480575967977091"><ele>841.4000000000001</ele><time>2026-03-23T08:50:24.001Z</time></trkpt><trkpt lat="31.507810803106032" lon="-4.480423933478781"><ele>840.8000000000001</ele><time>2026-03-23T08:50:25.001Z</time></trkpt><trkpt lat="31.50781009842721" lon="-4.480300443086901"><ele>840.2</ele><time>2026-03-23T08:50:26.001Z</time></trkpt><trkpt lat="31.50781120881347" lon="-4.480189361866901"><ele>839.6</ele><time>2026-03-23T08:50:27.001Z</time></trkpt><trkpt lat="31.50776648298578" lon="-4.480077549697675"><ele>839.0</ele><time>2026-03-23T08:50:29.001Z</time></trkpt><trkpt lat="31.50771186615234" lon="-4.480033794131879"><ele>839.0000000000001</ele><time>2026-03-23T08:50:30.001Z</time></trkpt><trkpt lat="31.507644363759336" lon="-4.479977974918571"><ele>839.0</ele><time>2026-03-23T08:50:31.001Z</time></trkpt><trkpt lat="31.507582040826126" lon="-4.4799424114412805"><ele>839.0</ele><time>2026-03-23T08:50:32.001Z</time></trkpt><trkpt lat="31.507503717378103" lon="-4.479911609267481"><ele>839.0</ele><time>2026-03-23T08:50:33.001Z</time></trkpt><trkpt lat="31.507412468834733" lon="-4.479889368809308"><ele>839.0000000000001</ele><time>2026-03-23T08:50:34.001Z</time></trkpt><trkpt lat="31.507315314161634" lon="-4.479883182413152"><ele>839.0</ele><time>2026-03-23T08:50:35.001Z</time></trkpt><trkpt lat="31.507207067626936" lon="-4.47990942210832"><ele>839.0</ele><time>2026-03-23T08:50:36.001Z</time></trkpt><trkpt lat="31.507094500501243" lon="-4.479953601544801"><ele>839.0</ele><time>2026-03-23T08:50:37.001Z</time></trkpt><trkpt lat="31.506975246812" lon="-4.479994019180506"><ele>839.0</ele><time>2026-03-23T08:50:38.001Z</time></trkpt><trkpt lat="31.506856735110947" lon="-4.480018242904908"><ele>839.0</ele><time>2026-03-23T08:50:39.001Z</time></trkpt><trkpt lat="31.506753568428614" lon="-4.480027370126117"><ele>839.4000000000001</ele><time>2026-03-23T08:50:40.001Z</time></trkpt><trkpt lat="31.506655597822526" lon="-4.480023178135875"><ele>839.8</ele><time>2026-03-23T08:50:41.001Z</time></trkpt><trkpt lat="31.50652965028311" lon="-4.47999819114485"><ele>840.2</ele><time>2026-03-23T08:50:42.001Z</time></trkpt><trkpt lat="31.506412890443766" lon="-4.479978431770922"><ele>840.5999999999999</ele><time>2026-03-23T08:50:43.001Z</time></trkpt><trkpt lat="31.50633191377165" lon="-4.479959349500295"><ele>841.0</ele><time>2026-03-23T08:50:44.001Z</time></trkpt><trkpt lat="31.50620431364297" lon="-4.4799206319108205"><ele>841.0</ele><time>2026-03-23T08:50:46.001Z</time></trkpt><trkpt lat="31.50613000458474" lon="-4.479894006918525"><ele>841.0</ele><time>2026-03-23T08:50:47.001Z</time></trkpt><trkpt lat="31.506070688839646" lon="-4.479869105141405"><ele>841.0</ele><time>2026-03-23T08:50:48.001Z</time></trkpt><trkpt lat="31.50598533906991" lon="-4.479833881753764"><ele>841.0</ele><time>2026-03-23T08:50:49.001Z</time></trkpt><trkpt lat="31.5058796800706" lon="-4.479786107269594"><ele>841.0</ele><time>2026-03-23T08:50:50.001Z</time></trkpt><trkpt lat="31.505756046253147" lon="-4.479721569637253"><ele>841.0</ele><time>2026-03-23T08:50:51.001Z</time></trkpt><trkpt lat="31.505613444245878" lon="-4.479653742642277"><ele>841.0</ele><time>2026-03-23T08:50:52.001Z</time></trkpt><trkpt lat="31.505459952190233" lon="-4.4795904125287995"><ele>841.0</ele><time>2026-03-23T08:50:53.001Z</time></trkpt><trkpt lat="31.50529837168464" lon="-4.479537900902103"><ele>841.6666666666666</ele><time>2026-03-23T08:50:54.001Z</time></trkpt><trkpt lat="31.505108113044827" lon="-4.479483829459168"><ele>842.3333333333333</ele><time>2026-03-23T08:50:55.001Z</time></trkpt><trkpt lat="31.504913837022848" lon="-4.479413581542789"><ele>843.0</ele><time>2026-03-23T08:50:56.001Z</time></trkpt><trkpt lat="31.50474533866478" lon="-4.4793505748347835"><ele>842.6666666666667</ele><time>2026-03-23T08:50:57.001Z</time></trkpt><trkpt lat="31.504543080920055" lon="-4.4792992603081805"><ele>842.3333333333334</ele><time>2026-03-23T08:50:58.001Z</time></trkpt><trkpt lat="31.50433610616708" lon="-4.479247940711472"><ele>842.0</ele><time>2026-03-23T08:50:59.001Z</time></trkpt><trkpt lat="31.504290307231734" lon="-4.479187876782963"><ele>842.0</ele><time>2026-03-23T08:51:00.001Z</time></trkpt><trkpt lat="31.504140818775124" lon="-4.479127699379086"><ele>842.0</ele><time>2026-03-23T08:51:01.001Z</time></trkpt><trkpt lat="31.504002401628746" lon="-4.4790581916607275"><ele>842.0</ele><time>2026-03-23T08:51:02.001Z</time></trkpt><trkpt lat="31.50385757719785" lon="-4.478977622904894"><ele>841.75</ele><time>2026-03-23T08:51:03.001Z</time></trkpt><trkpt lat="31.50370719562333" lon="-4.478907695910625"><ele>841.5</ele><time>2026-03-23T08:51:04.001Z</time></trkpt><trkpt lat="31.50356746915891" lon="-4.478850159918673"><ele>841.25</ele><time>2026-03-23T08:51:05.001Z</time></trkpt><trkpt lat="31.503438510589874" lon="-4.478806241739841"><ele>841.0</ele><time>2026-03-23T08:51:06.001Z</time></trkpt><trkpt lat="31.503315931353296" lon="-4.478758050876127"><ele>841.0</ele><time>2026-03-23T08:51:07.001Z</time></trkpt><trkpt lat="31.503201163944798" lon="-4.478699295295221"><ele>841.0</ele><time>2026-03-23T08:51:08.001Z</time></trkpt><trkpt lat="31.5030894586052" lon="-4.478640565136632"><ele>841.0</ele><time>2026-03-23T08:51:09.001Z</time></trkpt><trkpt lat="31.502983018388488" lon="-4.478602734329353"><ele>841.0</ele><time>2026-03-23T08:51:10.001Z</time></trkpt><trkpt lat="31.502875448607014" lon="-4.478578787544293"><ele>841.5</ele><time>2026-03-23T08:51:11.001Z</time></trkpt><trkpt lat="31.502751603675506" lon="-4.478534156154862"><ele>842.0</ele><time>2026-03-23T08:51:12.001Z</time></trkpt><trkpt lat="31.50261092574952" lon="-4.478468063199204"><ele>842.5</ele><time>2026-03-23T08:51:13.001Z</time></trkpt><trkpt lat="31.50246585272998" lon="-4.478392881376821"><ele>843.0</ele><time>2026-03-23T08:51:14.001Z</time></trkpt><trkpt lat="31.502311220462193" lon="-4.478316611159214"><ele>843.0</ele><time>2026-03-23T08:51:15.001Z</time></trkpt><trkpt lat="31.50218323076433" lon="-4.478272180544548"><ele>843.0</ele><time>2026-03-23T08:51:16.001Z</time></trkpt><trkpt lat="31.502071634451777" lon="-4.478249240294868"><ele>843.0</ele><time>2026-03-23T08:51:17.001Z</time></trkpt><trkpt lat="31.50197324815326" lon="-4.478235279227511"><ele>843.0</ele><time>2026-03-23T08:51:18.001Z</time></trkpt><trkpt lat="31.501875477183443" lon="-4.47820634067652"><ele>843.0</ele><time>2026-03-23T08:51:19.001Z</time></trkpt><trkpt lat="31.501781416021846" lon="-4.478166020391728"><ele>842.5</ele><time>2026-03-23T08:51:20.001Z</time></trkpt><trkpt lat="31.501684948760033" lon="-4.478124443284419"><ele>842.0</ele><time>2026-03-23T08:51:21.001Z</time></trkpt><trkpt lat="31.501577500304624" lon="-4.478074402906527"><ele>841.5</ele><time>2026-03-23T08:51:22.001Z</time></trkpt><trkpt lat="31.50144455803911" lon="-4.4780206268634695"><ele>841.0</ele><time>2026-03-23T08:51:23.001Z</time></trkpt><trkpt lat="31.50130807980696" lon="-4.477969132340884"><ele>841.75</ele><time>2026-03-23T08:51:24.001Z</time></trkpt><trkpt lat="31.5011756546198" lon="-4.4779220559473"><ele>842.5</ele><time>2026-03-23T08:51:25.001Z</time></trkpt><trkpt lat="31.50104382548148" lon="-4.477875357368715"><ele>843.25</ele><time>2026-03-23T08:51:26.001Z</time></trkpt><trkpt lat="31.500917360085765" lon="-4.477827887924253"><ele>844.0</ele><time>2026-03-23T08:51:27.001Z</time></trkpt><trkpt lat="31.500796465031648" lon="-4.477787629439582"><ele>844.0</ele><time>2026-03-23T08:51:28.001Z</time></trkpt><trkpt lat="31.50069043497099" lon="-4.47775309536754"><ele>844.0</ele><time>2026-03-23T08:51:29.001Z</time></trkpt><trkpt lat="31.500580830057316" lon="-4.477721336537507"><ele>844.0</ele><time>2026-03-23T08:51:30.001Z</time></trkpt><trkpt lat="31.500453043278306" lon="-4.477677825544194"><ele>844.0</ele><time>2026-03-23T08:51:31.001Z</time></trkpt><trkpt lat="31.500317650833807" lon="-4.477633934529896"><ele>843.5</ele><time>2026-03-23T08:51:32.001Z</time></trkpt><trkpt lat="31.500184338599837" lon="-4.47759408988733"><ele>843.0</ele><time>2026-03-23T08:51:33.001Z</time></trkpt><trkpt lat="31.500049607299275" lon="-4.477540815342548"><ele>842.5</ele><time>2026-03-23T08:51:34.001Z</time></trkpt><trkpt lat="31.499909857966582" lon="-4.477483053248042"><ele>842.0</ele><time>2026-03-23T08:51:35.001Z</time></trkpt><trkpt lat="31.49975997194022" lon="-4.477427711484871"><ele>842.0</ele><time>2026-03-23T08:51:36.001Z</time></trkpt><trkpt lat="31.49961997982614" lon="-4.477375363581404"><ele>842.0</ele><time>2026-03-23T08:51:37.001Z</time></trkpt><trkpt lat="31.49948944863483" lon="-4.477333577972085"><ele>842.0</ele><time>2026-03-23T08:51:38.001Z</time></trkpt><trkpt lat="31.49934809821253" lon="-4.477291972130223"><ele>842.0</ele><time>2026-03-23T08:51:39.001Z</time></trkpt><trkpt lat="31.499211662333238" lon="-4.477235833048502"><ele>842.0</ele><time>2026-03-23T08:51:40.001Z</time></trkpt><trkpt lat="31.499067438611014" lon="-4.477180279758145"><ele>842.0</ele><time>2026-03-23T08:51:41.001Z</time></trkpt><trkpt lat="31.498906287775874" lon="-4.47711651040881"><ele>842.0</ele><time>2026-03-23T08:51:42.001Z</time></trkpt><trkpt lat="31.49872012525861" lon="-4.477034315837481"><ele>842.0</ele><time>2026-03-23T08:51:43.001Z</time></trkpt><trkpt lat="31.4985216255689" lon="-4.476951189183462"><ele>842.0</ele><time>2026-03-23T08:51:44.001Z</time></trkpt><trkpt lat="31.498323677671504" lon="-4.476873901159808"><ele>842.0</ele><time>2026-03-23T08:51:45.001Z</time></trkpt><trkpt lat="31.498154989806178" lon="-4.476810432883497"><ele>842.0</ele><time>2026-03-23T08:51:46.001Z</time></trkpt><trkpt lat="31.497984513372803" lon="-4.476746562175016"><ele>842.0</ele><time>2026-03-23T08:51:47.001Z</time></trkpt><trkpt lat="31.497808478800636" lon="-4.476678632830044"><ele>842.0</ele><time>2026-03-23T08:51:48.001Z</time></trkpt><trkpt lat="31.497672359196812" lon="-4.476617279853264"><ele>841.3333333333334</ele><time>2026-03-23T08:51:49.001Z</time></trkpt><trkpt lat="31.49754281369581" lon="-4.47656896759199"><ele>840.6666666666667</ele><time>2026-03-23T08:51:50.001Z</time></trkpt><trkpt lat="31.49738532092654" lon="-4.476521975423718"><ele>840.0</ele><time>2026-03-23T08:51:51.001Z</time></trkpt><trkpt lat="31.497210347733" lon="-4.476471400088104"><ele>840.3333333333333</ele><time>2026-03-23T08:51:52.001Z</time></trkpt><trkpt lat="31.497041725864737" lon="-4.476414366227029"><ele>840.6666666666666</ele><time>2026-03-23T08:51:53.001Z</time></trkpt><trkpt lat="31.496879680471352" lon="-4.4763420561508225"><ele>841.0</ele><time>2026-03-23T08:51:54.001Z</time></trkpt><trkpt lat="31.496729933501175" lon="-4.476263126212175"><ele>841.0</ele><time>2026-03-23T08:51:55.001Z</time></trkpt><trkpt lat="31.496578195005952" lon="-4.476187862640663"><ele>841.0</ele><time>2026-03-23T08:51:56.001Z</time></trkpt><trkpt lat="31.496420100696383" lon="-4.476115308556256"><ele>841.0</ele><time>2026-03-23T08:51:57.001Z</time></trkpt><trkpt lat="31.496251054805942" lon="-4.476044387068674"><ele>840.3333333333333</ele><time>2026-03-23T08:51:58.001Z</time></trkpt><trkpt lat="31.49605064612223" lon="-4.475970715639613"><ele>839.6666666666667</ele><time>2026-03-23T08:51:59.001Z</time></trkpt><trkpt lat="31.495854682178624" lon="-4.475901023877228"><ele>839.0</ele><time>2026-03-23T08:52:00.001Z</time></trkpt><trkpt lat="31.49567149814138" lon="-4.4758450582008615"><ele>839.0</ele><time>2026-03-23T08:52:01.001Z</time></trkpt><trkpt lat="31.49551294575284" lon="-4.475788012952004"><ele>839.0</ele><time>2026-03-23T08:52:02.001Z</time></trkpt><trkpt lat="31.495348714448273" lon="-4.475717082414375"><ele>839.0</ele><time>2026-03-23T08:52:03.001Z</time></trkpt><trkpt lat="31.49517394065873" lon="-4.475637622688512"><ele>838.6666666666667</ele><time>2026-03-23T08:52:04.001Z</time></trkpt><trkpt lat="31.495013801965534" lon="-4.475551759873876"><ele>838.3333333333333</ele><time>2026-03-23T08:52:05.001Z</time></trkpt><trkpt lat="31.49487456766625" lon="-4.47547400210934"><ele>838.0</ele><time>2026-03-23T08:52:06.001Z</time></trkpt><trkpt lat="31.49472301797879" lon="-4.475401647864867"><ele>837.3333333333333</ele><time>2026-03-23T08:52:07.001Z</time></trkpt><trkpt lat="31.49454899874576" lon="-4.475321009997323"><ele>836.6666666666667</ele><time>2026-03-23T08:52:08.001Z</time></trkpt><trkpt lat="31.494373041075473" lon="-4.475235355444441"><ele>836.0</ele><time>2026-03-23T08:52:09.001Z</time></trkpt><trkpt lat="31.494190589617634" lon="-4.475148678113735"><ele>836.0</ele><time>2026-03-23T08:52:10.001Z</time></trkpt><trkpt lat="31.494023975960573" lon="-4.475064554315832"><ele>836.0</ele><time>2026-03-23T08:52:11.001Z</time></trkpt><trkpt lat="31.493851433770764" lon="-4.474989861044884"><ele>836.0</ele><time>2026-03-23T08:52:12.001Z</time></trkpt><trkpt lat="31.493675366379083" lon="-4.4749274689010905"><ele>836.6666666666667</ele><time>2026-03-23T08:52:13.001Z</time></trkpt><trkpt lat="31.493488690524128" lon="-4.474869041685421"><ele>837.3333333333333</ele><time>2026-03-23T08:52:14.001Z</time></trkpt><trkpt lat="31.49330357679015" lon="-4.474818128825978"><ele>838.0</ele><time>2026-03-23T08:52:15.001Z</time></trkpt><trkpt lat="31.49314357564832" lon="-4.474780758709605"><ele>838.0</ele><time>2026-03-23T08:52:16.001Z</time></trkpt><trkpt lat="31.493000836115325" lon="-4.474754050347796"><ele>838.0</ele><time>2026-03-23T08:52:17.001Z</time></trkpt><trkpt lat="31.492882429301204" lon="-4.474731249750403"><ele>838.0</ele><time>2026-03-23T08:52:18.001Z</time></trkpt><trkpt lat="31.492742619981048" lon="-4.474700019249374"><ele>838.0</ele><time>2026-03-23T08:52:19.001Z</time></trkpt><trkpt lat="31.492585341253974" lon="-4.474661968906781"><ele>838.25</ele><time>2026-03-23T08:52:20.001Z</time></trkpt><trkpt lat="31.492434644488956" lon="-4.474631356179802"><ele>838.5</ele><time>2026-03-23T08:52:21.001Z</time></trkpt><trkpt lat="31.49229976022677" lon="-4.474587051171531"><ele>838.75</ele><time>2026-03-23T08:52:22.001Z</time></trkpt><trkpt lat="31.49216273821283" lon="-4.47453726486267"><ele>839.0</ele><time>2026-03-23T08:52:23.001Z</time></trkpt><trkpt lat="31.49201858666026" lon="-4.474500603125826"><ele>839.0</ele><time>2026-03-23T08:52:24.001Z</time></trkpt><trkpt lat="31.491856144345128" lon="-4.474463760243254"><ele>839.0</ele><time>2026-03-23T08:52:25.001Z</time></trkpt><trkpt lat="31.49170311157811" lon="-4.474427991644858"><ele>839.0</ele><time>2026-03-23T08:52:26.001Z</time></trkpt><trkpt lat="31.491538640717984" lon="-4.4743800475546"><ele>839.0</ele><time>2026-03-23T08:52:27.001Z</time></trkpt><trkpt lat="31.49135351793821" lon="-4.474319451920693"><ele>839.0</ele><time>2026-03-23T08:52:28.001Z</time></trkpt><trkpt lat="31.491175102228922" lon="-4.47425381952031"><ele>839.0</ele><time>2026-03-23T08:52:29.001Z</time></trkpt><trkpt lat="31.490979691856452" lon="-4.474179520242705"><ele>839.0</ele><time>2026-03-23T08:52:30.001Z</time></trkpt><trkpt lat="31.49078154007242" lon="-4.474109076777363"><ele>839.0</ele><time>2026-03-23T08:52:31.001Z</time></trkpt><trkpt lat="31.49060738465957" lon="-4.474058136769976"><ele>839.0</ele><time>2026-03-23T08:52:32.001Z</time></trkpt><trkpt lat="31.490443842887444" lon="-4.474006429131836"><ele>839.0</ele><time>2026-03-23T08:52:33.001Z</time></trkpt><trkpt lat="31.49026975784123" lon="-4.473933625880023"><ele>839.0</ele><time>2026-03-23T08:52:34.001Z</time></trkpt><trkpt lat="31.49007736039533" lon="-4.473844761929465"><ele>839.0</ele><time>2026-03-23T08:52:35.001Z</time></trkpt><trkpt lat="31.48987074178714" lon="-4.473745836851351"><ele>839.0</ele><time>2026-03-23T08:52:36.001Z</time></trkpt><trkpt lat="31.489704746860568" lon="-4.4736518492913175"><ele>839.0</ele><time>2026-03-23T08:52:37.001Z</time></trkpt><trkpt lat="31.48956912268271" lon="-4.473568091205911"><ele>839.0</ele><time>2026-03-23T08:52:38.001Z</time></trkpt><trkpt lat="31.48941777041279" lon="-4.473494658436828"><ele>838.0</ele><time>2026-03-23T08:52:39.001Z</time></trkpt><trkpt lat="31.489249679339174" lon="-4.473433448248883"><ele>837.0</ele><time>2026-03-23T08:52:40.001Z</time></trkpt><trkpt lat="31.48907200013316" lon="-4.473370474420368"><ele>836.0</ele><time>2026-03-23T08:52:41.001Z</time></trkpt><trkpt lat="31.488903131387552" lon="-4.473307976568105"><ele>835.3333333333334</ele><time>2026-03-23T08:52:42.001Z</time></trkpt><trkpt lat="31.48873021268797" lon="-4.473242598976645"><ele>834.6666666666667</ele><time>2026-03-23T08:52:43.001Z</time></trkpt><trkpt lat="31.488548382126645" lon="-4.473172790647873"><ele>834.0</ele><time>2026-03-23T08:52:44.001Z</time></trkpt><trkpt lat="31.48836832284659" lon="-4.473099683012284"><ele>834.0</ele><time>2026-03-23T08:52:45.001Z</time></trkpt><trkpt lat="31.48816413536171" lon="-4.473029804287294"><ele>834.0</ele><time>2026-03-23T08:52:46.001Z</time></trkpt><trkpt lat="31.487919145768082" lon="-4.472960380021684"><ele>836.0</ele><time>2026-03-23T08:52:47.001Z</time></trkpt><trkpt lat="31.487696332997395" lon="-4.472880916849424"><ele>838.0</ele><time>2026-03-23T08:52:48.001Z</time></trkpt><trkpt lat="31.487479166639503" lon="-4.472816571813273"><ele>838.0</ele><time>2026-03-23T08:52:49.001Z</time></trkpt><trkpt lat="31.487286326719566" lon="-4.47274920536255"><ele>838.0</ele><time>2026-03-23T08:52:50.001Z</time></trkpt><trkpt lat="31.487068461833854" lon="-4.472675482215286"><ele>838.0</ele><time>2026-03-23T08:52:51.001Z</time></trkpt><trkpt lat="31.486846933279267" lon="-4.472601641719877"><ele>838.6666666666666</ele><time>2026-03-23T08:52:52.001Z</time></trkpt><trkpt lat="31.486645641333183" lon="-4.472532757991925"><ele>839.3333333333333</ele><time>2026-03-23T08:52:53.001Z</time></trkpt><trkpt lat="31.486471001056728" lon="-4.472461345926271"><ele>840.0</ele><time>2026-03-23T08:52:54.001Z</time></trkpt><trkpt lat="31.48629929602237" lon="-4.472375600417513"><ele>839.0</ele><time>2026-03-23T08:52:55.001Z</time></trkpt><trkpt lat="31.486143146468375" lon="-4.472292954188795"><ele>838.0</ele><time>2026-03-23T08:52:56.001Z</time></trkpt><trkpt lat="31.48597289348672" lon="-4.47219543997304"><ele>837.0</ele><time>2026-03-23T08:52:57.001Z</time></trkpt><trkpt lat="31.48577599689398" lon="-4.472080524204696"><ele>837.0</ele><time>2026-03-23T08:52:58.001Z</time></trkpt><trkpt lat="31.485565587898577" lon="-4.471968955216102"><ele>837.0</ele><time>2026-03-23T08:52:59.001Z</time></trkpt><trkpt lat="31.4853597640524" lon="-4.471869167381394"><ele>838.0</ele><time>2026-03-23T08:53:00.001Z</time></trkpt><trkpt lat="31.485162061005397" lon="-4.471782213483537"><ele>839.0</ele><time>2026-03-23T08:53:01.001Z</time></trkpt><trkpt lat="31.48499884706593" lon="-4.471710408393096"><ele>840.0</ele><time>2026-03-23T08:53:02.001Z</time></trkpt><trkpt lat="31.484848334312172" lon="-4.4716444822627"><ele>840.0</ele><time>2026-03-23T08:53:03.001Z</time></trkpt><trkpt lat="31.484693528923135" lon="-4.471579434502099"><ele>840.0</ele><time>2026-03-23T08:53:04.001Z</time></trkpt><trkpt lat="31.48453164397904" lon="-4.471506269253707"><ele>840.0</ele><time>2026-03-23T08:53:05.001Z</time></trkpt><trkpt lat="31.4843729345328" lon="-4.471421422182638"><ele>839.0</ele><time>2026-03-23T08:53:06.001Z</time></trkpt><trkpt lat="31.484201348171805" lon="-4.471328946945298"><ele>838.0</ele><time>2026-03-23T08:53:07.001Z</time></trkpt><trkpt lat="31.484023770341203" lon="-4.4712331280549815"><ele>837.0</ele><time>2026-03-23T08:53:08.001Z</time></trkpt><trkpt lat="31.483854774573647" lon="-4.471135005473233"><ele>837.6666666666667</ele><time>2026-03-23T08:53:09.001Z</time></trkpt><trkpt lat="31.48370930888964" lon="-4.471044066149038"><ele>838.3333333333334</ele><time>2026-03-23T08:53:10.001Z</time></trkpt><trkpt lat="31.483564845700364" lon="-4.470948401403623"><ele>839.0</ele><time>2026-03-23T08:53:11.001Z</time></trkpt><trkpt lat="31.48342245795943" lon="-4.470855201768491"><ele>839.0</ele><time>2026-03-23T08:53:12.001Z</time></trkpt><trkpt lat="31.48326208061413" lon="-4.470769840478107"><ele>839.0</ele><time>2026-03-23T08:53:13.001Z</time></trkpt><trkpt lat="31.48309136244747" lon="-4.470693870988834"><ele>839.0</ele><time>2026-03-23T08:53:14.001Z</time></trkpt><trkpt lat="31.482906098085945" lon="-4.470612123339735"><ele>838.3333333333334</ele><time>2026-03-23T08:53:15.001Z</time></trkpt><trkpt lat="31.482726660177086" lon="-4.470518073891901"><ele>837.6666666666667</ele><time>2026-03-23T08:53:16.001Z</time></trkpt><trkpt lat="31.48256539114215" lon="-4.470426323279294"><ele>837.0</ele><time>2026-03-23T08:53:17.001Z</time></trkpt><trkpt lat="31.482412963500934" lon="-4.470353507815472"><ele>837.0</ele><time>2026-03-23T08:53:18.001Z</time></trkpt><trkpt lat="31.482238717864252" lon="-4.470297400702583"><ele>837.0</ele><time>2026-03-23T08:53:19.001Z</time></trkpt><trkpt lat="31.4820442026378" lon="-4.470236651582369"><ele>837.0</ele><time>2026-03-23T08:53:20.001Z</time></trkpt><trkpt lat="31.481830569415205" lon="-4.470168793174783"><ele>835.0</ele><time>2026-03-23T08:53:21.001Z</time></trkpt><trkpt lat="31.48160891180011" lon="-4.470099802425878"><ele>833.0</ele><time>2026-03-23T08:53:22.001Z</time></trkpt><trkpt lat="31.481387564070268" lon="-4.470043479037526"><ele>833.0</ele><time>2026-03-23T08:53:23.001Z</time></trkpt><trkpt lat="31.481156662362856" lon="-4.469986883982053"><ele>833.0</ele><time>2026-03-23T08:53:24.001Z</time></trkpt><trkpt lat="31.48093565187859" lon="-4.4699214389237385"><ele>833.0</ele><time>2026-03-23T08:53:25.001Z</time></trkpt><trkpt lat="31.480698083426535" lon="-4.469855118947927"><ele>833.0</ele><time>2026-03-23T08:53:26.001Z</time></trkpt><trkpt lat="31.480448860432976" lon="-4.469776867342912"><ele>833.0</ele><time>2026-03-23T08:53:27.001Z</time></trkpt><trkpt lat="31.48022289560967" lon="-4.469696696264452"><ele>833.0</ele><time>2026-03-23T08:53:28.001Z</time></trkpt><trkpt lat="31.480020528565483" lon="-4.469602686857779"><ele>833.3333333333334</ele><time>2026-03-23T08:53:29.001Z</time></trkpt><trkpt lat="31.47984600845788" lon="-4.469509974689069"><ele>833.6666666666667</ele><time>2026-03-23T08:53:30.001Z</time></trkpt><trkpt lat="31.479675948444303" lon="-4.469431211436039"><ele>834.0</ele><time>2026-03-23T08:53:31.001Z</time></trkpt><trkpt lat="31.479522934311234" lon="-4.46937656060867"><ele>833.0</ele><time>2026-03-23T08:53:32.001Z</time></trkpt><trkpt lat="31.479363766412906" lon="-4.469343216157306"><ele>832.0</ele><time>2026-03-23T08:53:33.001Z</time></trkpt><trkpt lat="31.479194265577092" lon="-4.469313359543577"><ele>831.0</ele><time>2026-03-23T08:53:34.001Z</time></trkpt><trkpt lat="31.47902797249315" lon="-4.469287228939586"><ele>831.0</ele><time>2026-03-23T08:53:35.001Z</time></trkpt><trkpt lat="31.47885299740608" lon="-4.469240661553708"><ele>831.0</ele><time>2026-03-23T08:53:36.001Z</time></trkpt><trkpt lat="31.47867623174119" lon="-4.469169581222418"><ele>831.0</ele><time>2026-03-23T08:53:37.001Z</time></trkpt><trkpt lat="31.478496886500505" lon="-4.469090994451055"><ele>832.6666666666667</ele><time>2026-03-23T08:53:38.001Z</time></trkpt><trkpt lat="31.478323697192934" lon="-4.469015682521791"><ele>834.3333333333334</ele><time>2026-03-23T08:53:39.001Z</time></trkpt><trkpt lat="31.47815554853166" lon="-4.46894295566673"><ele>836.0</ele><time>2026-03-23T08:53:40Z</time></trkpt><trkpt lat="31.477986258925103" lon="-4.468884686265838"><ele>835.6666666666667</ele><time>2026-03-23T08:53:41Z</time></trkpt><trkpt lat="31.47779650793877" lon="-4.468836646459731"><ele>835.3333333333333</ele><time>2026-03-23T08:53:42Z</time></trkpt><trkpt lat="31.477602747687786" lon="-4.468794425287538"><ele>835.0</ele><time>2026-03-23T08:53:43Z</time></trkpt><trkpt lat="31.477404336477182" lon="-4.468751770621702"><ele>834.6666666666666</ele><time>2026-03-23T08:53:44Z</time></trkpt><trkpt lat="31.477208407049652" lon="-4.4686988736927935"><ele>834.3333333333333</ele><time>2026-03-23T08:53:45Z</time></trkpt><trkpt lat="31.47701774115102" lon="-4.468630460518405"><ele>834.0</ele><time>2026-03-23T08:53:46Z</time></trkpt><trkpt lat="31.476837690257426" lon="-4.468556309327301"><ele>833.0</ele><time>2026-03-23T08:53:47Z</time></trkpt><trkpt lat="31.476664379485626" lon="-4.468467249413485"><ele>832.0</ele><time>2026-03-23T08:53:48Z</time></trkpt><trkpt lat="31.476476676011895" lon="-4.468369036199588"><ele>831.0</ele><time>2026-03-23T08:53:49Z</time></trkpt><trkpt lat="31.476271144131392" lon="-4.468266770756208"><ele>832.0</ele><time>2026-03-23T08:53:50Z</time></trkpt><trkpt lat="31.476078408878863" lon="-4.468167702898099"><ele>833.0</ele><time>2026-03-23T08:53:51Z</time></trkpt><trkpt lat="31.475896001906044" lon="-4.468078454872487"><ele>834.0</ele><time>2026-03-23T08:53:52Z</time></trkpt><trkpt lat="31.475711212540624" lon="-4.4679837035987315"><ele>834.0</ele><time>2026-03-23T08:53:53Z</time></trkpt><trkpt lat="31.47553403123067" lon="-4.467870474290726"><ele>834.0</ele><time>2026-03-23T08:53:54Z</time></trkpt><trkpt lat="31.475357758310807" lon="-4.467755670487962"><ele>834.0</ele><time>2026-03-23T08:53:55Z</time></trkpt><trkpt lat="31.47516857194716" lon="-4.4676407649774115"><ele>833.5</ele><time>2026-03-23T08:53:56Z</time></trkpt><trkpt lat="31.474954043739494" lon="-4.4675197854767115"><ele>833.0</ele><time>2026-03-23T08:53:57Z</time></trkpt><trkpt lat="31.474721409571767" lon="-4.467399618302979"><ele>831.5</ele><time>2026-03-23T08:53:58Z</time></trkpt><trkpt lat="31.4744791357712" lon="-4.467286407788036"><ele>830.0</ele><time>2026-03-23T08:53:59Z</time></trkpt><trkpt lat="31.474242701614028" lon="-4.4671863355385275"><ele>829.0</ele><time>2026-03-23T08:54:00Z</time></trkpt><trkpt lat="31.474011709793576" lon="-4.467094755413351"><ele>828.0</ele><time>2026-03-23T08:54:01Z</time></trkpt><trkpt lat="31.473791963590788" lon="-4.467000968165245"><ele>828.6666666666667</ele><time>2026-03-23T08:54:02Z</time></trkpt><trkpt lat="31.473606785506945" lon="-4.4669059025497555"><ele>829.3333333333334</ele><time>2026-03-23T08:54:03Z</time></trkpt><trkpt lat="31.47344606493187" lon="-4.466807513879708"><ele>830.0</ele><time>2026-03-23T08:54:04Z</time></trkpt><trkpt lat="31.47326194446242" lon="-4.466705112215978"><ele>830.0</ele><time>2026-03-23T08:54:05Z</time></trkpt><trkpt lat="31.473090609315506" lon="-4.4666045353087105"><ele>830.0</ele><time>2026-03-23T08:54:06Z</time></trkpt><trkpt lat="31.472872398272298" lon="-4.466497064649123"><ele>830.0</ele><time>2026-03-23T08:54:07Z</time></trkpt><trkpt lat="31.472650592863683" lon="-4.466379305682769"><ele>832.0</ele><time>2026-03-23T08:54:08Z</time></trkpt><trkpt lat="31.472401877774733" lon="-4.466250061677491"><ele>834.0</ele><time>2026-03-23T08:54:09Z</time></trkpt><trkpt lat="31.472165345831495" lon="-4.466129223917718"><ele>833.0</ele><time>2026-03-23T08:54:10Z</time></trkpt><trkpt lat="31.47191004827625" lon="-4.465999786483689"><ele>832.0</ele><time>2026-03-23T08:54:11Z</time></trkpt><trkpt lat="31.471675583470127" lon="-4.465872516231799"><ele>832.0</ele><time>2026-03-23T08:54:12Z</time></trkpt><trkpt lat="31.471483206366283" lon="-4.465772490581031"><ele>832.0</ele><time>2026-03-23T08:54:13Z</time></trkpt><trkpt lat="31.47129268062843" lon="-4.465670285184221"><ele>832.0</ele><time>2026-03-23T08:54:14Z</time></trkpt><trkpt lat="31.471107932947223" lon="-4.465575478126305"><ele>831.6666666666666</ele><time>2026-03-23T08:54:15Z</time></trkpt><trkpt lat="31.47093767353785" lon="-4.465488483585041"><ele>831.3333333333333</ele><time>2026-03-23T08:54:16Z</time></trkpt><trkpt lat="31.470772409328763" lon="-4.465410673038344"><ele>831.0</ele><time>2026-03-23T08:54:17Z</time></trkpt><trkpt lat="31.470605554694096" lon="-4.465336350780341"><ele>831.0</ele><time>2026-03-23T08:54:18Z</time></trkpt><trkpt lat="31.470421173829234" lon="-4.465262385903476"><ele>831.0</ele><time>2026-03-23T08:54:19Z</time></trkpt><trkpt lat="31.47024481527727" lon="-4.46518988140259"><ele>831.0</ele><time>2026-03-23T08:54:20Z</time></trkpt><trkpt lat="31.470068655440272" lon="-4.465116742426843"><ele>831.0</ele><time>2026-03-23T08:54:21Z</time></trkpt><trkpt lat="31.469887187125583" lon="-4.465040039000981"><ele>831.0</ele><time>2026-03-23T08:54:22Z</time></trkpt><trkpt lat="31.469719457095067" lon="-4.464962019371164"><ele>831.0</ele><time>2026-03-23T08:54:23Z</time></trkpt><trkpt lat="31.469547432644504" lon="-4.4648753823133"><ele>831.3333333333333</ele><time>2026-03-23T08:54:24Z</time></trkpt><trkpt lat="31.469362195045605" lon="-4.464780667653202"><ele>831.6666666666666</ele><time>2026-03-23T08:54:25Z</time></trkpt><trkpt lat="31.469161596411308" lon="-4.464691859688978"><ele>832.0</ele><time>2026-03-23T08:54:26Z</time></trkpt><trkpt lat="31.468968708886646" lon="-4.464615409611524"><ele>831.6666666666666</ele><time>2026-03-23T08:54:27Z</time></trkpt><trkpt lat="31.46878119622292" lon="-4.464541419863145"><ele>831.3333333333333</ele><time>2026-03-23T08:54:28Z</time></trkpt><trkpt lat="31.468588493419134" lon="-4.464458565432306"><ele>831.0</ele><time>2026-03-23T08:54:29Z</time></trkpt><trkpt lat="31.468395432451228" lon="-4.464368886398461"><ele>830.3333333333333</ele><time>2026-03-23T08:54:30Z</time></trkpt><trkpt lat="31.468208353725245" lon="-4.464273086576198"><ele>829.6666666666666</ele><time>2026-03-23T08:54:31Z</time></trkpt><trkpt lat="31.468022699876038" lon="-4.464181706470162"><ele>829.0</ele><time>2026-03-23T08:54:32Z</time></trkpt><trkpt lat="31.467826445314174" lon="-4.464100029354853"><ele>828.6666666666666</ele><time>2026-03-23T08:54:33Z</time></trkpt><trkpt lat="31.467623233003145" lon="-4.464012047348046"><ele>828.3333333333333</ele><time>2026-03-23T08:54:34Z</time></trkpt><trkpt lat="31.46742339339605" lon="-4.463921569236239"><ele>828.0</ele><time>2026-03-23T08:54:35Z</time></trkpt><trkpt lat="31.467222832905108" lon="-4.4638220903358485"><ele>828.3333333333333</ele><time>2026-03-23T08:54:36Z</time></trkpt><trkpt lat="31.46703000744003" lon="-4.463728866830438"><ele>828.6666666666666</ele><time>2026-03-23T08:54:37Z</time></trkpt><trkpt lat="31.466838705204" lon="-4.463640344615395"><ele>829.0</ele><time>2026-03-23T08:54:38Z</time></trkpt><trkpt lat="31.466650978492392" lon="-4.463557003102489"><ele>829.0</ele><time>2026-03-23T08:54:39Z</time></trkpt><trkpt lat="31.466480535344992" lon="-4.463486727638804"><ele>829.0</ele><time>2026-03-23T08:54:40Z</time></trkpt><trkpt lat="31.466309785361695" lon="-4.463403830044441"><ele>829.0</ele><time>2026-03-23T08:54:41Z</time></trkpt><trkpt lat="31.466140198675962" lon="-4.463319562679672"><ele>828.6666666666666</ele><time>2026-03-23T08:54:42Z</time></trkpt><trkpt lat="31.46596078047252" lon="-4.463243158722806"><ele>828.3333333333333</ele><time>2026-03-23T08:54:43Z</time></trkpt><trkpt lat="31.465780516532387" lon="-4.46316240375074"><ele>828.0</ele><time>2026-03-23T08:54:44Z</time></trkpt><trkpt lat="31.465586416255988" lon="-4.463070458559861"><ele>827.0</ele><time>2026-03-23T08:54:45Z</time></trkpt><trkpt lat="31.46539781175776" lon="-4.462974815853124"><ele>826.0</ele><time>2026-03-23T08:54:46Z</time></trkpt><trkpt lat="31.465211719593572" lon="-4.462882151791622"><ele>825.0</ele><time>2026-03-23T08:54:47Z</time></trkpt><trkpt lat="31.465044166322066" lon="-4.462795949738839"><ele>825.0</ele><time>2026-03-23T08:54:48Z</time></trkpt><trkpt lat="31.4648803496405" lon="-4.462728014696761"><ele>825.0</ele><time>2026-03-23T08:54:49Z</time></trkpt><trkpt lat="31.464702104994075" lon="-4.462670530897626"><ele>825.0</ele><time>2026-03-23T08:54:50Z</time></trkpt><trkpt lat="31.46452505701821" lon="-4.462612339484742"><ele>826.6666666666667</ele><time>2026-03-23T08:54:51Z</time></trkpt><trkpt lat="31.464357990162355" lon="-4.462549112531515"><ele>828.3333333333334</ele><time>2026-03-23T08:54:52Z</time></trkpt><trkpt lat="31.464170449367316" lon="-4.462481779382426"><ele>830.0</ele><time>2026-03-23T08:54:53Z</time></trkpt><trkpt lat="31.463986955612278" lon="-4.462419574448745"><ele>830.0</ele><time>2026-03-23T08:54:54Z</time></trkpt><trkpt lat="31.463784116391246" lon="-4.462345354490651"><ele>830.0</ele><time>2026-03-23T08:54:55Z</time></trkpt><trkpt lat="31.463587954257992" lon="-4.462271521067863"><ele>830.0</ele><time>2026-03-23T08:54:56Z</time></trkpt><trkpt lat="31.463387744948225" lon="-4.462195923011484"><ele>829.6666666666667</ele><time>2026-03-23T08:54:57Z</time></trkpt><trkpt lat="31.463175481263214" lon="-4.462110791533278"><ele>829.3333333333333</ele><time>2026-03-23T08:54:58Z</time></trkpt><trkpt lat="31.462963635976102" lon="-4.46202216256674"><ele>829.0</ele><time>2026-03-23T08:54:59Z</time></trkpt><trkpt lat="31.462764804577205" lon="-4.461940525856143"><ele>828.3333333333333</ele><time>2026-03-23T08:55:00Z</time></trkpt><trkpt lat="31.46255973430319" lon="-4.461852299289425"><ele>827.6666666666667</ele><time>2026-03-23T08:55:01Z</time></trkpt><trkpt lat="31.46235550254212" lon="-4.461766361279556"><ele>827.0</ele><time>2026-03-23T08:55:02Z</time></trkpt><trkpt lat="31.462147894840562" lon="-4.461684216282117"><ele>829.0</ele><time>2026-03-23T08:55:03Z</time></trkpt><trkpt lat="31.461955087563066" lon="-4.461604516476816"><ele>831.0</ele><time>2026-03-23T08:55:04Z</time></trkpt><trkpt lat="31.46177714569638" lon="-4.461527892829101"><ele>833.0</ele><time>2026-03-23T08:55:05Z</time></trkpt><trkpt lat="31.46160889885521" lon="-4.46144962902722"><ele>833.0</ele><time>2026-03-23T08:55:06Z</time></trkpt><trkpt lat="31.461452374319805" lon="-4.461385930531663"><ele>833.0</ele><time>2026-03-23T08:55:07Z</time></trkpt><trkpt lat="31.46127915871597" lon="-4.4613185647960485"><ele>833.0</ele><time>2026-03-23T08:55:08Z</time></trkpt><trkpt lat="31.461106156583444" lon="-4.461251962637257"><ele>832.0</ele><time>2026-03-23T08:55:09Z</time></trkpt><trkpt lat="31.460933006057648" lon="-4.4611923778256095"><ele>831.0</ele><time>2026-03-23T08:55:10Z</time></trkpt><trkpt lat="31.460752587174337" lon="-4.461137224458885"><ele>830.0</ele><time>2026-03-23T08:55:11Z</time></trkpt><trkpt lat="31.460578427151475" lon="-4.46107713007382"><ele>830.6666666666667</ele><time>2026-03-23T08:55:12Z</time></trkpt><trkpt lat="31.46040330198705" lon="-4.461009237057997"><ele>831.3333333333333</ele><time>2026-03-23T08:55:13Z</time></trkpt><trkpt lat="31.46022791752141" lon="-4.460920856169148"><ele>832.0</ele><time>2026-03-23T08:55:14Z</time></trkpt><trkpt lat="31.46005247107783" lon="-4.460832717019097"><ele>832.0</ele><time>2026-03-23T08:55:15Z</time></trkpt><trkpt lat="31.45987771687275" lon="-4.4607591509229785"><ele>832.0</ele><time>2026-03-23T08:55:16Z</time></trkpt><trkpt lat="31.459701572201002" lon="-4.460694098136498"><ele>832.0</ele><time>2026-03-23T08:55:17Z</time></trkpt><trkpt lat="31.459524619326288" lon="-4.460641869122002"><ele>831.6666666666666</ele><time>2026-03-23T08:55:18Z</time></trkpt><trkpt lat="31.45934137481125" lon="-4.460594135133275"><ele>831.3333333333333</ele><time>2026-03-23T08:55:19Z</time></trkpt><trkpt lat="31.459184055240048" lon="-4.460544032454462"><ele>831.0</ele><time>2026-03-23T08:55:20Z</time></trkpt><trkpt lat="31.459030231856936" lon="-4.460473604874692"><ele>831.3333333333333</ele><time>2026-03-23T08:55:21Z</time></trkpt><trkpt lat="31.45885534673938" lon="-4.460394483858972"><ele>831.6666666666666</ele><time>2026-03-23T08:55:22Z</time></trkpt><trkpt lat="31.458669553781153" lon="-4.460325165495233"><ele>832.0</ele><time>2026-03-23T08:55:23Z</time></trkpt><trkpt lat="31.45849067048958" lon="-4.460277959784069"><ele>831.3333333333333</ele><time>2026-03-23T08:55:24Z</time></trkpt><trkpt lat="31.458318363051447" lon="-4.460218606730268"><ele>830.6666666666667</ele><time>2026-03-23T08:55:25Z</time></trkpt><trkpt lat="31.458138367625157" lon="-4.460146072119535"><ele>830.0</ele><time>2026-03-23T08:55:26Z</time></trkpt><trkpt lat="31.457965851505303" lon="-4.460079067495577"><ele>829.6666666666667</ele><time>2026-03-23T08:55:27Z</time></trkpt><trkpt lat="31.457787202972586" lon="-4.460013750249688"><ele>829.3333333333333</ele><time>2026-03-23T08:55:28Z</time></trkpt><trkpt lat="31.457596654194475" lon="-4.459942320837375"><ele>829.0</ele><time>2026-03-23T08:55:29Z</time></trkpt><trkpt lat="31.457410897945397" lon="-4.45987510955762"><ele>829.0</ele><time>2026-03-23T08:55:30Z</time></trkpt><trkpt lat="31.457211025422037" lon="-4.4598207616489525"><ele>829.0</ele><time>2026-03-23T08:55:31Z</time></trkpt><trkpt lat="31.456968021700312" lon="-4.45979654580004"><ele>829.0</ele><time>2026-03-23T08:55:32Z</time></trkpt><trkpt lat="31.456854561455994" lon="-4.459715082687189"><ele>828.6666666666666</ele><time>2026-03-23T08:55:33Z</time></trkpt><trkpt lat="31.45666123252314" lon="-4.459658611835218"><ele>828.3333333333333</ele><time>2026-03-23T08:55:34Z</time></trkpt><trkpt lat="31.456465961945653" lon="-4.459600180686776"><ele>828.0</ele><time>2026-03-23T08:55:35Z</time></trkpt><trkpt lat="31.456257936008743" lon="-4.459534164072676"><ele>828.0</ele><time>2026-03-23T08:55:36Z</time></trkpt><trkpt lat="31.4560469288907" lon="-4.459467561650627"><ele>828.0</ele><time>2026-03-23T08:55:37Z</time></trkpt><trkpt lat="31.455845050931067" lon="-4.459400658410752"><ele>828.0</ele><time>2026-03-23T08:55:38Z</time></trkpt><trkpt lat="31.45565490665267" lon="-4.459339416908389"><ele>828.0</ele><time>2026-03-23T08:55:39Z</time></trkpt><trkpt lat="31.455484321729266" lon="-4.459281826208871"><ele>828.0</ele><time>2026-03-23T08:55:40Z</time></trkpt><trkpt lat="31.45530571097421" lon="-4.459225212721408"><ele>828.0</ele><time>2026-03-23T08:55:41Z</time></trkpt><trkpt lat="31.455127009247345" lon="-4.4591494528769084"><ele>827.6666666666667</ele><time>2026-03-23T08:55:42Z</time></trkpt><trkpt lat="31.454947128087156" lon="-4.459074616521915"><ele>827.3333333333334</ele><time>2026-03-23T08:55:43Z</time></trkpt><trkpt lat="31.454770882052337" lon="-4.458996592238421"><ele>827.0</ele><time>2026-03-23T08:55:44Z</time></trkpt><trkpt lat="31.454598956100053" lon="-4.458914149985909"><ele>827.0</ele><time>2026-03-23T08:55:45Z</time></trkpt><trkpt lat="31.454420905010704" lon="-4.458839764446143"><ele>827.0</ele><time>2026-03-23T08:55:46Z</time></trkpt><trkpt lat="31.454242387584337" lon="-4.4587681839374635"><ele>827.0</ele><time>2026-03-23T08:55:47Z</time></trkpt><trkpt lat="31.454071162028626" lon="-4.45869361991929"><ele>826.6666666666667</ele><time>2026-03-23T08:55:48Z</time></trkpt><trkpt lat="31.453902376602343" lon="-4.45860497919851"><ele>826.3333333333333</ele><time>2026-03-23T08:55:49Z</time></trkpt><trkpt lat="31.45372762750875" lon="-4.458512045764076"><ele>826.0</ele><time>2026-03-23T08:55:50Z</time></trkpt><trkpt lat="31.453551049606766" lon="-4.458420320484323"><ele>827.0</ele><time>2026-03-23T08:55:51Z</time></trkpt><trkpt lat="31.453371717844803" lon="-4.458333101579307"><ele>828.0</ele><time>2026-03-23T08:55:52Z</time></trkpt><trkpt lat="31.453197245959647" lon="-4.45824691481498"><ele>829.0</ele><time>2026-03-23T08:55:53Z</time></trkpt><trkpt lat="31.453021965443757" lon="-4.458153178239306"><ele>828.3333333333333</ele><time>2026-03-23T08:55:54Z</time></trkpt><trkpt lat="31.452848603875115" lon="-4.458074199270441"><ele>827.6666666666667</ele><time>2026-03-23T08:55:55Z</time></trkpt><trkpt lat="31.45268577452628" lon="-4.458000465237929"><ele>827.0</ele><time>2026-03-23T08:55:56Z</time></trkpt><trkpt lat="31.452517510717644" lon="-4.457917861306216"><ele>827.0</ele><time>2026-03-23T08:55:57Z</time></trkpt><trkpt lat="31.45236252801312" lon="-4.4578452912336965"><ele>827.0</ele><time>2026-03-23T08:55:58Z</time></trkpt><trkpt lat="31.452208740953104" lon="-4.457781174248557"><ele>827.0</ele><time>2026-03-23T08:55:59Z</time></trkpt><trkpt lat="31.45207048039212" lon="-4.457728480995955"><ele>827.0</ele><time>2026-03-23T08:56:00Z</time></trkpt><trkpt lat="31.451924143193885" lon="-4.457676125867496"><ele>827.0</ele><time>2026-03-23T08:56:01Z</time></trkpt><trkpt lat="31.451760269039607" lon="-4.457616749846376"><ele>827.0</ele><time>2026-03-23T08:56:02Z</time></trkpt><trkpt lat="31.451590093962412" lon="-4.4575593681168275"><ele>827.0</ele><time>2026-03-23T08:56:03Z</time></trkpt><trkpt lat="31.451403363437795" lon="-4.457505590664459"><ele>827.0</ele><time>2026-03-23T08:56:04Z</time></trkpt><trkpt lat="31.451212554909045" lon="-4.457451478131326"><ele>827.0</ele><time>2026-03-23T08:56:05Z</time></trkpt><trkpt lat="31.45101155390747" lon="-4.4574041658417505"><ele>827.0</ele><time>2026-03-23T08:56:06Z</time></trkpt><trkpt lat="31.450813294564444" lon="-4.457361044628978"><ele>827.0</ele><time>2026-03-23T08:56:07Z</time></trkpt><trkpt lat="31.450608880524914" lon="-4.457322026763917"><ele>827.0</ele><time>2026-03-23T08:56:08Z</time></trkpt><trkpt lat="31.45039639362393" lon="-4.457284445234304"><ele>827.0</ele><time>2026-03-23T08:56:09Z</time></trkpt><trkpt lat="31.450185051882908" lon="-4.457248082024752"><ele>827.0</ele><time>2026-03-23T08:56:10Z</time></trkpt><trkpt lat="31.450000067801675" lon="-4.457213848285733"><ele>827.0</ele><time>2026-03-23T08:56:11Z</time></trkpt><trkpt lat="31.44983270533887" lon="-4.457179294683189"><ele>827.0</ele><time>2026-03-23T08:56:12Z</time></trkpt><trkpt lat="31.449648917677482" lon="-4.457152839405015"><ele>827.0</ele><time>2026-03-23T08:56:13Z</time></trkpt><trkpt lat="31.44944699720218" lon="-4.457132659597224"><ele>827.0</ele><time>2026-03-23T08:56:14Z</time></trkpt><trkpt lat="31.449220632777134" lon="-4.457103117746556"><ele>827.3333333333334</ele><time>2026-03-23T08:56:15Z</time></trkpt><trkpt lat="31.44901178537049" lon="-4.4570785394054555"><ele>827.6666666666667</ele><time>2026-03-23T08:56:16Z</time></trkpt><trkpt lat="31.448823331537533" lon="-4.457051791018164"><ele>828.0</ele><time>2026-03-23T08:56:17Z</time></trkpt><trkpt lat="31.448649107517674" lon="-4.457033539749265"><ele>827.0</ele><time>2026-03-23T08:56:18Z</time></trkpt><trkpt lat="31.44845450769637" lon="-4.457180421129953"><ele>826.0</ele><time>2026-03-23T08:56:19Z</time></trkpt><trkpt lat="31.448284313953145" lon="-4.457166144250686"><ele>825.0</ele><time>2026-03-23T08:56:20Z</time></trkpt><trkpt lat="31.448110932798176" lon="-4.457151932212984"><ele>825.0</ele><time>2026-03-23T08:56:21Z</time></trkpt><trkpt lat="31.447926190707605" lon="-4.45713629944844"><ele>825.0</ele><time>2026-03-23T08:56:22Z</time></trkpt><trkpt lat="31.447738786146626" lon="-4.457121301691764"><ele>825.0</ele><time>2026-03-23T08:56:23Z</time></trkpt><trkpt lat="31.447544466718323" lon="-4.457105417111275"><ele>825.0</ele><time>2026-03-23T08:56:24Z</time></trkpt><trkpt lat="31.447335843863087" lon="-4.457087979936475"><ele>825.0</ele><time>2026-03-23T08:56:25Z</time></trkpt><trkpt lat="31.447128815776303" lon="-4.457076493412471"><ele>825.0</ele><time>2026-03-23T08:56:26Z</time></trkpt><trkpt lat="31.446909871726074" lon="-4.4570655176479015"><ele>825.0</ele><time>2026-03-23T08:56:27Z</time></trkpt><trkpt lat="31.446695720266607" lon="-4.4570547821384165"><ele>825.0</ele><time>2026-03-23T08:56:28Z</time></trkpt><trkpt lat="31.446477956337446" lon="-4.457044019714073"><ele>825.0</ele><time>2026-03-23T08:56:29Z</time></trkpt><trkpt lat="31.446251913951627" lon="-4.457032866133672"><ele>825.0</ele><time>2026-03-23T08:56:30Z</time></trkpt><trkpt lat="31.446019064880733" lon="-4.4570215571761"><ele>825.0</ele><time>2026-03-23T08:56:31Z</time></trkpt><trkpt lat="31.445780847437305" lon="-4.457009797911452"><ele>825.0</ele><time>2026-03-23T08:56:32Z</time></trkpt><trkpt lat="31.445526567538895" lon="-4.456997058090799"><ele>825.0</ele><time>2026-03-23T08:56:33Z</time></trkpt><trkpt lat="31.445272237341964" lon="-4.456985551963989"><ele>825.0</ele><time>2026-03-23T08:56:34Z</time></trkpt><trkpt lat="31.445033344706506" lon="-4.456973801933217"><ele>825.0</ele><time>2026-03-23T08:56:35Z</time></trkpt><trkpt lat="31.44481327191476" lon="-4.45696214916664"><ele>827.0</ele><time>2026-03-23T08:56:36Z</time></trkpt><trkpt lat="31.444592061604588" lon="-4.456951824380582"><ele>829.0</ele><time>2026-03-23T08:56:37Z</time></trkpt><trkpt lat="31.44436412583644" lon="-4.456903807564642"><ele>829.0</ele><time>2026-03-23T08:56:38Z</time></trkpt><trkpt lat="31.444170822606466" lon="-4.456847018467449"><ele>829.0</ele><time>2026-03-23T08:56:39Z</time></trkpt><trkpt lat="31.44396885678612" lon="-4.456787644444494"><ele>829.0</ele><time>2026-03-23T08:56:40Z</time></trkpt><trkpt lat="31.44377311734092" lon="-4.456712835373255"><ele>827.3333333333333</ele><time>2026-03-23T08:56:41Z</time></trkpt><trkpt lat="31.44356700830136" lon="-4.456700642142438"><ele>825.6666666666667</ele><time>2026-03-23T08:56:42Z</time></trkpt><trkpt lat="31.443374629023126" lon="-4.456693836928963"><ele>824.0</ele><time>2026-03-23T08:56:43Z</time></trkpt><trkpt lat="31.443200837352357" lon="-4.45672015131824"><ele>824.0</ele><time>2026-03-23T08:56:44Z</time></trkpt><trkpt lat="31.442984009960725" lon="-4.456759903277167"><ele>824.0</ele><time>2026-03-23T08:56:45Z</time></trkpt><trkpt lat="31.442757128302315" lon="-4.456801563855866"><ele>824.0</ele><time>2026-03-23T08:56:46Z</time></trkpt><trkpt lat="31.442538737561332" lon="-4.4568426045810865"><ele>824.5</ele><time>2026-03-23T08:56:47Z</time></trkpt><trkpt lat="31.442304266978493" lon="-4.456885886547358"><ele>825.0</ele><time>2026-03-23T08:56:48Z</time></trkpt><trkpt lat="31.44205541765773" lon="-4.456931822731081"><ele>827.0</ele><time>2026-03-23T08:56:49Z</time></trkpt><trkpt lat="31.441829002415332" lon="-4.456973655412891"><ele>829.0</ele><time>2026-03-23T08:56:50Z</time></trkpt><trkpt lat="31.441610328480103" lon="-4.457014360611338"><ele>829.0</ele><time>2026-03-23T08:56:51Z</time></trkpt><trkpt lat="31.441398241002837" lon="-4.457053937362427"><ele>829.0</ele><time>2026-03-23T08:56:52Z</time></trkpt><trkpt lat="31.44121103734107" lon="-4.457088019474853"><ele>829.0</ele><time>2026-03-23T08:56:53Z</time></trkpt><trkpt lat="31.441028660978947" lon="-4.457109778027737"><ele>828.0</ele><time>2026-03-23T08:56:54Z</time></trkpt><trkpt lat="31.44085461633424" lon="-4.457119534717187"><ele>827.0</ele><time>2026-03-23T08:56:55Z</time></trkpt><trkpt lat="31.440674659659507" lon="-4.4571297214434145"><ele>826.0</ele><time>2026-03-23T08:56:56Z</time></trkpt><trkpt lat="31.44053473567266" lon="-4.457137653426847"><ele>825.0</ele><time>2026-03-23T08:56:57Z</time></trkpt><trkpt lat="31.440258308565465" lon="-4.457153055246163"><ele>824.0</ele><time>2026-03-23T08:56:58Z</time></trkpt><trkpt lat="31.440041295028614" lon="-4.457164959111332"><ele>824.0</ele><time>2026-03-23T08:56:59Z</time></trkpt><trkpt lat="31.439813865655207" lon="-4.457177462338371"><ele>824.0</ele><time>2026-03-23T08:57:00Z</time></trkpt><trkpt lat="31.439576482476028" lon="-4.457190609463076"><ele>823.5</ele><time>2026-03-23T08:57:01Z</time></trkpt><trkpt lat="31.43932709246727" lon="-4.457173848376945"><ele>823.0</ele><time>2026-03-23T08:57:02Z</time></trkpt><trkpt lat="31.43909252965198" lon="-4.457157512065705"><ele>823.0</ele><time>2026-03-23T08:57:03Z</time></trkpt><trkpt lat="31.43886721125722" lon="-4.457141312820023"><ele>823.0</ele><time>2026-03-23T08:57:04Z</time></trkpt><trkpt lat="31.438646295568095" lon="-4.457113144695704"><ele>823.0</ele><time>2026-03-23T08:57:05Z</time></trkpt><trkpt lat="31.4384286917726" lon="-4.457104950482755"><ele>823.0</ele><time>2026-03-23T08:57:06Z</time></trkpt><trkpt lat="31.43822243176841" lon="-4.457092000195514"><ele>823.0</ele><time>2026-03-23T08:57:07Z</time></trkpt><trkpt lat="31.438023282513722" lon="-4.45707807780596"><ele>823.0</ele><time>2026-03-23T08:57:08Z</time></trkpt><trkpt lat="31.437830387678584" lon="-4.457065812875113"><ele>823.0</ele><time>2026-03-23T08:57:09Z</time></trkpt><trkpt lat="31.43764062664981" lon="-4.457055840499765"><ele>823.0</ele><time>2026-03-23T08:57:10Z</time></trkpt><trkpt lat="31.43743494502823" lon="-4.457056085588652"><ele>823.0</ele><time>2026-03-23T08:57:11Z</time></trkpt><trkpt lat="31.43723653276167" lon="-4.457061597203658"><ele>822.6666666666666</ele><time>2026-03-23T08:57:12Z</time></trkpt><trkpt lat="31.437035941275493" lon="-4.45707683094981"><ele>822.3333333333333</ele><time>2026-03-23T08:57:13Z</time></trkpt><trkpt lat="31.4368333252763" lon="-4.457089356799211"><ele>822.0</ele><time>2026-03-23T08:57:14Z</time></trkpt><trkpt lat="31.436625755020614" lon="-4.4570982021856755"><ele>822.6666666666667</ele><time>2026-03-23T08:57:15Z</time></trkpt><trkpt lat="31.436419195011922" lon="-4.457119508605345"><ele>823.3333333333334</ele><time>2026-03-23T08:57:16Z</time></trkpt><trkpt lat="31.43620330226672" lon="-4.457143976103744"><ele>824.0</ele><time>2026-03-23T08:57:17Z</time></trkpt><trkpt lat="31.435984779937655" lon="-4.457166406717656"><ele>824.0</ele><time>2026-03-23T08:57:18Z</time></trkpt><trkpt lat="31.435754606380627" lon="-4.457184843961428"><ele>824.0</ele><time>2026-03-23T08:57:19Z</time></trkpt><trkpt lat="31.435512470790137" lon="-4.457206014737767"><ele>826.0</ele><time>2026-03-23T08:57:20Z</time></trkpt><trkpt lat="31.43523895393987" lon="-4.4572368701631495"><ele>828.0</ele><time>2026-03-23T08:57:21Z</time></trkpt><trkpt lat="31.434945671230597" lon="-4.457259942225329"><ele>828.0</ele><time>2026-03-23T08:57:22Z</time></trkpt><trkpt lat="31.434663205430653" lon="-4.4572771861785005"><ele>828.0</ele><time>2026-03-23T08:57:23Z</time></trkpt><trkpt lat="31.434354099376158" lon="-4.457295568822844"><ele>828.0</ele><time>2026-03-23T08:57:24Z</time></trkpt><trkpt lat="31.434211314921377" lon="-4.457280353405331"><ele>828.0</ele><time>2026-03-23T08:57:26Z</time></trkpt><trkpt lat="31.434031255784816" lon="-4.457297576820387"><ele>828.0</ele><time>2026-03-23T08:57:27Z</time></trkpt><trkpt lat="31.433845188429206" lon="-4.457328162034944"><ele>828.0</ele><time>2026-03-23T08:57:28Z</time></trkpt><trkpt lat="31.433651720122484" lon="-4.4573673081778535"><ele>828.0</ele><time>2026-03-23T08:57:29Z</time></trkpt><trkpt lat="31.433450007587627" lon="-4.457418510547316"><ele>828.0</ele><time>2026-03-23T08:57:30Z</time></trkpt><trkpt lat="31.43324960865786" lon="-4.457468055652721"><ele>828.0</ele><time>2026-03-23T08:57:31Z</time></trkpt><trkpt lat="31.433052778755105" lon="-4.457498926833967"><ele>828.0</ele><time>2026-03-23T08:57:32Z</time></trkpt><trkpt lat="31.432854386654554" lon="-4.457521453339186"><ele>828.0</ele><time>2026-03-23T08:57:33Z</time></trkpt><trkpt lat="31.432659683943097" lon="-4.457535239020827"><ele>827.6666666666667</ele><time>2026-03-23T08:57:34Z</time></trkpt><trkpt lat="31.432459834138264" lon="-4.457542531369305"><ele>827.3333333333334</ele><time>2026-03-23T08:57:35Z</time></trkpt><trkpt lat="31.432262470173775" lon="-4.457534823865797"><ele>827.0</ele><time>2026-03-23T08:57:36Z</time></trkpt><trkpt lat="31.432071942303303" lon="-4.45752178260297"><ele>827.0</ele><time>2026-03-23T08:57:37Z</time></trkpt><trkpt lat="31.43188404581439" lon="-4.457499336482332"><ele>827.0</ele><time>2026-03-23T08:57:38Z</time></trkpt><trkpt lat="31.431694652433915" lon="-4.457467063940321"><ele>827.0</ele><time>2026-03-23T08:57:39Z</time></trkpt><trkpt lat="31.431504268067208" lon="-4.457437272713187"><ele>827.0</ele><time>2026-03-23T08:57:40Z</time></trkpt><trkpt lat="31.43131337655555" lon="-4.457403520751211"><ele>827.0</ele><time>2026-03-23T08:57:41Z</time></trkpt><trkpt lat="31.431112666732247" lon="-4.457364723778727"><ele>827.0</ele><time>2026-03-23T08:57:42Z</time></trkpt><trkpt lat="31.43090835912896" lon="-4.457327486853952"><ele>826.6666666666667</ele><time>2026-03-23T08:57:43Z</time></trkpt><trkpt lat="31.430711742205194" lon="-4.457300258007806"><ele>826.3333333333333</ele><time>2026-03-23T08:57:44Z</time></trkpt><trkpt lat="31.430528613696122" lon="-4.457280164219287"><ele>826.0</ele><time>2026-03-23T08:57:45Z</time></trkpt><trkpt lat="31.430344434470598" lon="-4.457261296497638"><ele>826.0</ele><time>2026-03-23T08:57:46Z</time></trkpt><trkpt lat="31.430156974360532" lon="-4.457240578270088"><ele>826.0</ele><time>2026-03-23T08:57:47Z</time></trkpt><trkpt lat="31.429969818394735" lon="-4.457214672551516"><ele>826.0</ele><time>2026-03-23T08:57:48Z</time></trkpt><trkpt lat="31.42977560912846" lon="-4.457191217615026"><ele>826.3333333333333</ele><time>2026-03-23T08:57:49Z</time></trkpt><trkpt lat="31.42957807796219" lon="-4.457167866134351"><ele>826.6666666666667</ele><time>2026-03-23T08:57:50Z</time></trkpt><trkpt lat="31.429376401415503" lon="-4.457144828540495"><ele>827.0</ele><time>2026-03-23T08:57:51Z</time></trkpt><trkpt lat="31.429179989759987" lon="-4.457124164798207"><ele>826.3333333333334</ele><time>2026-03-23T08:57:52Z</time></trkpt><trkpt lat="31.42898861994182" lon="-4.4571051150983"><ele>825.6666666666667</ele><time>2026-03-23T08:57:53Z</time></trkpt><trkpt lat="31.42880050400285" lon="-4.45708636466267"><ele>825.0</ele><time>2026-03-23T08:57:54Z</time></trkpt><trkpt lat="31.428622081366445" lon="-4.457061851427039"><ele>824.6666666666667</ele><time>2026-03-23T08:57:55Z</time></trkpt><trkpt lat="31.42844116055411" lon="-4.457034484879683"><ele>824.3333333333334</ele><time>2026-03-23T08:57:56Z</time></trkpt><trkpt lat="31.428279138645866" lon="-4.457002952641925"><ele>824.0</ele><time>2026-03-23T08:57:57Z</time></trkpt><trkpt lat="31.42814081532825" lon="-4.456972255778183"><ele>824.0</ele><time>2026-03-23T08:57:58Z</time></trkpt><trkpt lat="31.42800184659542" lon="-4.4569407878002405"><ele>824.0</ele><time>2026-03-23T08:57:59Z</time></trkpt><trkpt lat="31.427845733095648" lon="-4.456901317752913"><ele>824.0</ele><time>2026-03-23T08:58:00Z</time></trkpt><trkpt lat="31.42769829404053" lon="-4.456869106878101"><ele>824.6666666666667</ele><time>2026-03-23T08:58:01Z</time></trkpt><trkpt lat="31.42755388012588" lon="-4.456832344458812"><ele>825.3333333333333</ele><time>2026-03-23T08:58:02Z</time></trkpt><trkpt lat="31.42740043829887" lon="-4.456784868553817"><ele>826.0</ele><time>2026-03-23T08:58:03Z</time></trkpt><trkpt lat="31.427246316099662" lon="-4.456728800640253"><ele>826.3333333333333</ele><time>2026-03-23T08:58:04Z</time></trkpt><trkpt lat="31.42709283001595" lon="-4.456663725592617"><ele>826.6666666666667</ele><time>2026-03-23T08:58:05Z</time></trkpt><trkpt lat="31.426923698332775" lon="-4.456593152847497"><ele>827.0</ele><time>2026-03-23T08:58:06Z</time></trkpt><trkpt lat="31.426752750802493" lon="-4.456526993182499"><ele>827.0</ele><time>2026-03-23T08:58:07Z</time></trkpt><trkpt lat="31.42657406171143" lon="-4.456454350639828"><ele>827.0</ele><time>2026-03-23T08:58:08Z</time></trkpt><trkpt lat="31.42640852207276" lon="-4.456361433279195"><ele>827.0</ele><time>2026-03-23T08:58:09Z</time></trkpt><trkpt lat="31.42627460637353" lon="-4.45625536634206"><ele>826.6666666666667</ele><time>2026-03-23T08:58:10Z</time></trkpt><trkpt lat="31.42614124887598" lon="-4.456143545710576"><ele>826.3333333333333</ele><time>2026-03-23T08:58:11Z</time></trkpt><trkpt lat="31.426017499677243" lon="-4.456052287741212"><ele>826.0</ele><time>2026-03-23T08:58:12Z</time></trkpt><trkpt lat="31.425878016545447" lon="-4.455956010353311"><ele>826.0</ele><time>2026-03-23T08:58:13Z</time></trkpt><trkpt lat="31.425710003914062" lon="-4.455851398524934"><ele>826.0</ele><time>2026-03-23T08:58:14Z</time></trkpt><trkpt lat="31.425517406217494" lon="-4.455720135082908"><ele>826.0</ele><time>2026-03-23T08:58:15Z</time></trkpt><trkpt lat="31.425318436835862" lon="-4.455584737780569"><ele>825.5</ele><time>2026-03-23T08:58:16Z</time></trkpt><trkpt lat="31.425128891149477" lon="-4.455437585718414"><ele>825.0</ele><time>2026-03-23T08:58:17Z</time></trkpt><trkpt lat="31.424895344101657" lon="-4.4553181839654"><ele>825.0</ele><time>2026-03-23T08:58:18Z</time></trkpt><trkpt lat="31.42471853268852" lon="-4.455173353930362"><ele>825.0</ele><time>2026-03-23T08:58:19Z</time></trkpt><trkpt lat="31.42456042101074" lon="-4.455040558814146"><ele>825.0</ele><time>2026-03-23T08:58:20Z</time></trkpt><trkpt lat="31.424421874000803" lon="-4.454920877926382"><ele>824.6666666666667</ele><time>2026-03-23T08:58:21Z</time></trkpt><trkpt lat="31.42429462608527" lon="-4.4548109571768935"><ele>824.3333333333334</ele><time>2026-03-23T08:58:22Z</time></trkpt><trkpt lat="31.424175054018132" lon="-4.4547016057851465"><ele>824.0</ele><time>2026-03-23T08:58:23Z</time></trkpt><trkpt lat="31.424041352067754" lon="-4.454578423723499"><ele>824.3333333333334</ele><time>2026-03-23T08:58:24Z</time></trkpt><trkpt lat="31.42392533388957" lon="-4.454464035145218"><ele>824.6666666666667</ele><time>2026-03-23T08:58:25Z</time></trkpt><trkpt lat="31.42381708157418" lon="-4.454342145766061"><ele>825.0</ele><time>2026-03-23T08:58:26Z</time></trkpt><trkpt lat="31.42369974317132" lon="-4.454227600368593"><ele>825.0</ele><time>2026-03-23T08:58:27Z</time></trkpt><trkpt lat="31.423588900221034" lon="-4.454103302487693"><ele>825.0</ele><time>2026-03-23T08:58:28Z</time></trkpt><trkpt lat="31.423494079312796" lon="-4.453988161864073"><ele>825.0</ele><time>2026-03-23T08:58:29Z</time></trkpt><trkpt lat="31.4234061126943" lon="-4.453891048716077"><ele>825.0</ele><time>2026-03-23T08:58:30Z</time></trkpt><trkpt lat="31.42329999086149" lon="-4.453821348862063"><ele>825.0</ele><time>2026-03-23T08:58:31Z</time></trkpt><trkpt lat="31.423174026452337" lon="-4.453719980623155"><ele>825.0</ele><time>2026-03-23T08:58:32Z</time></trkpt><trkpt lat="31.423056706873012" lon="-4.453601863776589"><ele>825.0</ele><time>2026-03-23T08:58:33Z</time></trkpt><trkpt lat="31.422918211972938" lon="-4.453494612689544"><ele>824.3333333333333</ele><time>2026-03-23T08:58:34Z</time></trkpt><trkpt lat="31.422782802182976" lon="-4.453385147547068"><ele>823.6666666666666</ele><time>2026-03-23T08:58:35Z</time></trkpt><trkpt lat="31.42263294132597" lon="-4.453276566093183"><ele>823.0</ele><time>2026-03-23T08:58:36Z</time></trkpt><trkpt lat="31.422494908181964" lon="-4.453153259855918"><ele>823.0</ele><time>2026-03-23T08:58:37Z</time></trkpt><trkpt lat="31.422358530089994" lon="-4.453031426799188"><ele>823.0</ele><time>2026-03-23T08:58:38Z</time></trkpt><trkpt lat="31.422224773026482" lon="-4.4528954102310925"><ele>823.0</ele><time>2026-03-23T08:58:39Z</time></trkpt><trkpt lat="31.422079497673266" lon="-4.452774803314869"><ele>823.0</ele><time>2026-03-23T08:58:40Z</time></trkpt><trkpt lat="31.4219347434874" lon="-4.452649642899188"><ele>823.0</ele><time>2026-03-23T08:58:41Z</time></trkpt><trkpt lat="31.42178349189897" lon="-4.452516761888093"><ele>823.0</ele><time>2026-03-23T08:58:42Z</time></trkpt><trkpt lat="31.421628997078585" lon="-4.452374369250466"><ele>823.0</ele><time>2026-03-23T08:58:43Z</time></trkpt><trkpt lat="31.42146790585461" lon="-4.452216721136567"><ele>823.0</ele><time>2026-03-23T08:58:44Z</time></trkpt><trkpt lat="31.421308882043146" lon="-4.452049345287527"><ele>823.0</ele><time>2026-03-23T08:58:45Z</time></trkpt><trkpt lat="31.4211490989177" lon="-4.451880572141383"><ele>822.6666666666666</ele><time>2026-03-23T08:58:46Z</time></trkpt><trkpt lat="31.420988395304374" lon="-4.451709567406472"><ele>822.3333333333333</ele><time>2026-03-23T08:58:47Z</time></trkpt><trkpt lat="31.420832673190993" lon="-4.451533485289234"><ele>822.0</ele><time>2026-03-23T08:58:48Z</time></trkpt><trkpt lat="31.42066122533515" lon="-4.451333834163108"><ele>822.0</ele><time>2026-03-23T08:58:49Z</time></trkpt><trkpt lat="31.420494731006098" lon="-4.451157635089381"><ele>822.0</ele><time>2026-03-23T08:58:50Z</time></trkpt><trkpt lat="31.420332616845158" lon="-4.450980641952201"><ele>822.0</ele><time>2026-03-23T08:58:51Z</time></trkpt><trkpt lat="31.420183089693797" lon="-4.450818727304819"><ele>822.0</ele><time>2026-03-23T08:58:52Z</time></trkpt><trkpt lat="31.420046907434116" lon="-4.4506769620799504"><ele>822.0</ele><time>2026-03-23T08:58:53Z</time></trkpt><trkpt lat="31.419908660697633" lon="-4.450534040934636"><ele>822.0</ele><time>2026-03-23T08:58:54Z</time></trkpt><trkpt lat="31.419777743046406" lon="-4.450387149067616"><ele>821.6666666666667</ele><time>2026-03-23T08:58:55Z</time></trkpt><trkpt lat="31.419660076373923" lon="-4.450233318752201"><ele>821.3333333333334</ele><time>2026-03-23T08:58:56Z</time></trkpt><trkpt lat="31.419540622463238" lon="-4.450075480253516"><ele>821.0</ele><time>2026-03-23T08:58:57Z</time></trkpt><trkpt lat="31.419414506283452" lon="-4.449948176225755"><ele>820.6666666666667</ele><time>2026-03-23T08:58:58Z</time></trkpt><trkpt lat="31.419291718876224" lon="-4.449808084456981"><ele>820.3333333333333</ele><time>2026-03-23T08:58:59Z</time></trkpt><trkpt lat="31.41916276669823" lon="-4.449660636608464"><ele>820.0</ele><time>2026-03-23T08:59:00Z</time></trkpt><trkpt lat="31.41903842772418" lon="-4.449518463981666"><ele>820.0</ele><time>2026-03-23T08:59:01Z</time></trkpt><trkpt lat="31.418908222520326" lon="-4.449380307036017"><ele>820.0</ele><time>2026-03-23T08:59:02Z</time></trkpt><trkpt lat="31.418768174507544" lon="-4.449281425312437"><ele>820.0</ele><time>2026-03-23T08:59:03Z</time></trkpt><trkpt lat="31.418611430557636" lon="-4.449195259563815"><ele>819.3333333333333</ele><time>2026-03-23T08:59:04Z</time></trkpt><trkpt lat="31.41845978585215" lon="-4.449097421748693"><ele>818.6666666666667</ele><time>2026-03-23T08:59:05Z</time></trkpt><trkpt lat="31.41831304199601" lon="-4.449003042948732"><ele>818.0</ele><time>2026-03-23T08:59:06Z</time></trkpt><trkpt lat="31.41817562825116" lon="-4.448892217685825"><ele>817.6666666666667</ele><time>2026-03-23T08:59:07Z</time></trkpt><trkpt lat="31.418048760628693" lon="-4.448773799465863"><ele>817.3333333333333</ele><time>2026-03-23T08:59:08Z</time></trkpt><trkpt lat="31.417900932607544" lon="-4.448624303993458"><ele>817.0</ele><time>2026-03-23T08:59:09Z</time></trkpt><trkpt lat="31.41776088848091" lon="-4.44845284737576"><ele>817.0</ele><time>2026-03-23T08:59:10Z</time></trkpt><trkpt lat="31.417654351556298" lon="-4.448296838360352"><ele>817.0</ele><time>2026-03-23T08:59:11Z</time></trkpt><trkpt lat="31.417538009542334" lon="-4.448170833976451"><ele>817.0</ele><time>2026-03-23T08:59:12Z</time></trkpt><trkpt lat="31.417420600590763" lon="-4.4480840100439565"><ele>817.0</ele><time>2026-03-23T08:59:13Z</time></trkpt><trkpt lat="31.417319651761126" lon="-4.448019214903715"><ele>817.0</ele><time>2026-03-23T08:59:14Z</time></trkpt><trkpt lat="31.41723571751143" lon="-4.447962119369681"><ele>817.0</ele><time>2026-03-23T08:59:15Z</time></trkpt><trkpt lat="31.417152119212226" lon="-4.447903553994262"><ele>817.0</ele><time>2026-03-23T08:59:16Z</time></trkpt><trkpt lat="31.417044278718407" lon="-4.447840000898577"><ele>817.0</ele><time>2026-03-23T08:59:17Z</time></trkpt><trkpt lat="31.416895889906417" lon="-4.447761291981174"><ele>817.6666666666666</ele><time>2026-03-23T08:59:18Z</time></trkpt><trkpt lat="31.416712249217763" lon="-4.447681199344416"><ele>818.3333333333333</ele><time>2026-03-23T08:59:19Z</time></trkpt><trkpt lat="31.41651819600272" lon="-4.447601768364784"><ele>819.0</ele><time>2026-03-23T08:59:20Z</time></trkpt><trkpt lat="31.41630549421082" lon="-4.447498213157294"><ele>819.3333333333333</ele><time>2026-03-23T08:59:21Z</time></trkpt><trkpt lat="31.416099140361318" lon="-4.447394133447297"><ele>819.6666666666666</ele><time>2026-03-23T08:59:22Z</time></trkpt><trkpt lat="31.41591786187037" lon="-4.447298130334176"><ele>820.0</ele><time>2026-03-23T08:59:23Z</time></trkpt><trkpt lat="31.41574288485173" lon="-4.447206254385592"><ele>819.6666666666666</ele><time>2026-03-23T08:59:24Z</time></trkpt><trkpt lat="31.41556775503528" lon="-4.447103871529977"><ele>819.3333333333333</ele><time>2026-03-23T08:59:25Z</time></trkpt><trkpt lat="31.41538284036875" lon="-4.446994634170596"><ele>819.0</ele><time>2026-03-23T08:59:26Z</time></trkpt><trkpt lat="31.415189756592476" lon="-4.446880557676924"><ele>819.0</ele><time>2026-03-23T08:59:27Z</time></trkpt><trkpt lat="31.415004373540814" lon="-4.446771021280286"><ele>819.0</ele><time>2026-03-23T08:59:28Z</time></trkpt><trkpt lat="31.414815405579542" lon="-4.446661332765739"><ele>819.0</ele><time>2026-03-23T08:59:29Z</time></trkpt><trkpt lat="31.41462839957289" lon="-4.446550897455501"><ele>819.0</ele><time>2026-03-23T08:59:30Z</time></trkpt><trkpt lat="31.41444147469223" lon="-4.446436920715062"><ele>819.0</ele><time>2026-03-23T08:59:31Z</time></trkpt><trkpt lat="31.414276980598274" lon="-4.446322327003058"><ele>819.0</ele><time>2026-03-23T08:59:32Z</time></trkpt><trkpt lat="31.41411743939065" lon="-4.446208875222019"><ele>819.0</ele><time>2026-03-23T08:59:33Z</time></trkpt><trkpt lat="31.413949150625246" lon="-4.446095267787915"><ele>819.0</ele><time>2026-03-23T08:59:34Z</time></trkpt><trkpt lat="31.413773879687827" lon="-4.4459856411651835"><ele>819.0</ele><time>2026-03-23T08:59:35Z</time></trkpt><trkpt lat="31.413615774351424" lon="-4.445879836255591"><ele>819.0</ele><time>2026-03-23T08:59:36Z</time></trkpt><trkpt lat="31.413470169600807" lon="-4.4457726145864"><ele>819.0</ele><time>2026-03-23T08:59:37Z</time></trkpt><trkpt lat="31.413327502643213" lon="-4.4456504753744905"><ele>819.0</ele><time>2026-03-23T08:59:38Z</time></trkpt><trkpt lat="31.413176041599893" lon="-4.445521573964321"><ele>818.6666666666667</ele><time>2026-03-23T08:59:39Z</time></trkpt><trkpt lat="31.413026980067205" lon="-4.4454003481140125"><ele>818.3333333333334</ele><time>2026-03-23T08:59:40Z</time></trkpt><trkpt lat="31.41288381621052" lon="-4.4452869477309465"><ele>818.0</ele><time>2026-03-23T08:59:41Z</time></trkpt><trkpt lat="31.41273224767505" lon="-4.445168347862551"><ele>818.0</ele><time>2026-03-23T08:59:42Z</time></trkpt><trkpt lat="31.412564274988206" lon="-4.445040700650325"><ele>818.0</ele><time>2026-03-23T08:59:43Z</time></trkpt><trkpt lat="31.412392541976395" lon="-4.444907592919702"><ele>818.0</ele><time>2026-03-23T08:59:44Z</time></trkpt><trkpt lat="31.412241387536344" lon="-4.444783621081117"><ele>818.0</ele><time>2026-03-23T08:59:45Z</time></trkpt><trkpt lat="31.412095806344286" lon="-4.444662244114761"><ele>818.0</ele><time>2026-03-23T08:59:46Z</time></trkpt><trkpt lat="31.411951833421256" lon="-4.444539681163879"><ele>818.0</ele><time>2026-03-23T08:59:47Z</time></trkpt><trkpt lat="31.411790779463722" lon="-4.444400276975017"><ele>818.0</ele><time>2026-03-23T08:59:48Z</time></trkpt><trkpt lat="31.41163214458338" lon="-4.444266795959701"><ele>818.0</ele><time>2026-03-23T08:59:49Z</time></trkpt><trkpt lat="31.411452813513133" lon="-4.444117196966468"><ele>818.0</ele><time>2026-03-23T08:59:50Z</time></trkpt><trkpt lat="31.411274603127552" lon="-4.443978887945989"><ele>818.0</ele><time>2026-03-23T08:59:51Z</time></trkpt><trkpt lat="31.41107862054991" lon="-4.443837237327617"><ele>818.0</ele><time>2026-03-23T08:59:52Z</time></trkpt><trkpt lat="31.410888059952857" lon="-4.443703935907048"><ele>817.3333333333334</ele><time>2026-03-23T08:59:53Z</time></trkpt><trkpt lat="31.410727245482487" lon="-4.443585949621691"><ele>816.6666666666667</ele><time>2026-03-23T08:59:54Z</time></trkpt><trkpt lat="31.410579901158133" lon="-4.44348591982213"><ele>816.0</ele><time>2026-03-23T08:59:55Z</time></trkpt><trkpt lat="31.410447016372647" lon="-4.443407608366911"><ele>815.5</ele><time>2026-03-23T08:59:56Z</time></trkpt><trkpt lat="31.410329428709755" lon="-4.443342730067438"><ele>815.0</ele><time>2026-03-23T08:59:57Z</time></trkpt><trkpt lat="31.410209129707134" lon="-4.443289280091929"><ele>814.5</ele><time>2026-03-23T08:59:58Z</time></trkpt><trkpt lat="31.41008927606255" lon="-4.4432454567564985"><ele>814.0</ele><time>2026-03-23T08:59:59Z</time></trkpt><trkpt lat="31.40997795315456" lon="-4.443200916351426"><ele>814.0</ele><time>2026-03-23T09:00:00Z</time></trkpt><trkpt lat="31.409878322084346" lon="-4.443158419170116"><ele>814.0</ele><time>2026-03-23T09:00:01Z</time></trkpt><trkpt lat="31.40977939286437" lon="-4.443106767619603"><ele>814.0</ele><time>2026-03-23T09:00:02Z</time></trkpt><trkpt lat="31.409663904203825" lon="-4.443033130300239"><ele>814.0</ele><time>2026-03-23T09:00:03Z</time></trkpt><trkpt lat="31.409530367247662" lon="-4.442954943393104"><ele>815.0</ele><time>2026-03-23T09:00:04Z</time></trkpt><trkpt lat="31.409388361271766" lon="-4.442878828788078"><ele>816.0</ele><time>2026-03-23T09:00:05Z</time></trkpt><trkpt lat="31.409244624288064" lon="-4.442799760240075"><ele>817.0</ele><time>2026-03-23T09:00:06Z</time></trkpt><trkpt lat="31.40909611507791" lon="-4.442716044316641"><ele>817.0</ele><time>2026-03-23T09:00:07Z</time></trkpt><trkpt lat="31.408941151817732" lon="-4.442614442213652"><ele>817.0</ele><time>2026-03-23T09:00:08Z</time></trkpt><trkpt lat="31.408769712409285" lon="-4.442499932198385"><ele>817.0</ele><time>2026-03-23T09:00:09Z</time></trkpt><trkpt lat="31.40861500410154" lon="-4.442379545523022"><ele>816.3333333333333</ele><time>2026-03-23T09:00:10Z</time></trkpt><trkpt lat="31.4084735013651" lon="-4.442258472152782"><ele>815.6666666666667</ele><time>2026-03-23T09:00:11Z</time></trkpt><trkpt lat="31.40832563979181" lon="-4.442134456777483"><ele>815.0</ele><time>2026-03-23T09:00:12Z</time></trkpt><trkpt lat="31.40817884838566" lon="-4.4420170238591545"><ele>815.0</ele><time>2026-03-23T09:00:13Z</time></trkpt><trkpt lat="31.40803103476926" lon="-4.441902888961894"><ele>815.0</ele><time>2026-03-23T09:00:14Z</time></trkpt><trkpt lat="31.407904716547844" lon="-4.4417999965578705"><ele>815.0</ele><time>2026-03-23T09:00:15Z</time></trkpt><trkpt lat="31.407784898344055" lon="-4.441696655746826"><ele>815.3333333333334</ele><time>2026-03-23T09:00:16Z</time></trkpt><trkpt lat="31.407661099877885" lon="-4.4415952602525"><ele>815.6666666666667</ele><time>2026-03-23T09:00:17Z</time></trkpt><trkpt lat="31.407530616739283" lon="-4.441489638696692"><ele>816.0</ele><time>2026-03-23T09:00:18Z</time></trkpt><trkpt lat="31.407386574096176" lon="-4.441377921886918"><ele>815.6666666666667</ele><time>2026-03-23T09:00:19Z</time></trkpt><trkpt lat="31.407245232259964" lon="-4.441260412861596"><ele>815.3333333333334</ele><time>2026-03-23T09:00:20Z</time></trkpt><trkpt lat="31.407120622830202" lon="-4.441152048045711"><ele>815.0</ele><time>2026-03-23T09:00:21Z</time></trkpt><trkpt lat="31.40699201888242" lon="-4.4410323210648945"><ele>815.6666666666667</ele><time>2026-03-23T09:00:22Z</time></trkpt><trkpt lat="31.406829447892612" lon="-4.44088711166975"><ele>816.3333333333333</ele><time>2026-03-23T09:00:23Z</time></trkpt><trkpt lat="31.406638372997445" lon="-4.440726815139536"><ele>817.0</ele><time>2026-03-23T09:00:24Z</time></trkpt><trkpt lat="31.406443773408338" lon="-4.44056395003432"><ele>816.3333333333333</ele><time>2026-03-23T09:00:25Z</time></trkpt><trkpt lat="31.406254392419328" lon="-4.440420607401555"><ele>815.6666666666667</ele><time>2026-03-23T09:00:26Z</time></trkpt><trkpt lat="31.4060930200577" lon="-4.440288624843558"><ele>815.0</ele><time>2026-03-23T09:00:27Z</time></trkpt><trkpt lat="31.405921061635055" lon="-4.440157786509004"><ele>815.0</ele><time>2026-03-23T09:00:28Z</time></trkpt><trkpt lat="31.405707325645373" lon="-4.440014103344124"><ele>815.0</ele><time>2026-03-23T09:00:29Z</time></trkpt><trkpt lat="31.40547678213674" lon="-4.439870154218873"><ele>814.6666666666667</ele><time>2026-03-23T09:00:30Z</time></trkpt><trkpt lat="31.40527516626098" lon="-4.439751099970168"><ele>814.3333333333333</ele><time>2026-03-23T09:00:31Z</time></trkpt><trkpt lat="31.40509598445471" lon="-4.43964435554775"><ele>814.0</ele><time>2026-03-23T09:00:32Z</time></trkpt><trkpt lat="31.40493502806913" lon="-4.43953265981424"><ele>813.6666666666666</ele><time>2026-03-23T09:00:33Z</time></trkpt><trkpt lat="31.4047856597501" lon="-4.4394171046261865"><ele>813.3333333333333</ele><time>2026-03-23T09:00:34Z</time></trkpt><trkpt lat="31.40466246222264" lon="-4.439308314202245"><ele>813.0</ele><time>2026-03-23T09:00:35Z</time></trkpt><trkpt lat="31.404503783204422" lon="-4.439168621112363"><ele>814.0</ele><time>2026-03-23T09:00:36Z</time></trkpt><trkpt lat="31.404319006523778" lon="-4.439013180711076"><ele>815.0</ele><time>2026-03-23T09:00:37Z</time></trkpt><trkpt lat="31.404122854159542" lon="-4.438849218231854"><ele>814.0</ele><time>2026-03-23T09:00:38Z</time></trkpt><trkpt lat="31.403931833861837" lon="-4.438678506974991"><ele>813.0</ele><time>2026-03-23T09:00:39Z</time></trkpt><trkpt lat="31.403749612419062" lon="-4.438515544701179"><ele>812.5</ele><time>2026-03-23T09:00:40Z</time></trkpt><trkpt lat="31.403545712169038" lon="-4.438342829451728"><ele>812.0</ele><time>2026-03-23T09:00:41Z</time></trkpt><trkpt lat="31.40333360235719" lon="-4.438168569688222"><ele>812.0</ele><time>2026-03-23T09:00:42Z</time></trkpt><trkpt lat="31.40313005130111" lon="-4.438007360194277"><ele>812.0</ele><time>2026-03-23T09:00:43Z</time></trkpt><trkpt lat="31.40295275614818" lon="-4.437876374014621"><ele>812.0</ele><time>2026-03-23T09:00:44Z</time></trkpt><trkpt lat="31.40276422181653" lon="-4.437741255079707"><ele>812.0</ele><time>2026-03-23T09:00:45Z</time></trkpt><trkpt lat="31.4025538668493" lon="-4.437596738819703"><ele>812.0</ele><time>2026-03-23T09:00:46Z</time></trkpt><trkpt lat="31.402326803162847" lon="-4.4374419648246946"><ele>812.0</ele><time>2026-03-23T09:00:47Z</time></trkpt><trkpt lat="31.40207927829087" lon="-4.43727342267132"><ele>812.0</ele><time>2026-03-23T09:00:48Z</time></trkpt><trkpt lat="31.40185801743419" lon="-4.437124870801458"><ele>812.0</ele><time>2026-03-23T09:00:49Z</time></trkpt><trkpt lat="31.401654853845443" lon="-4.436981303843549"><ele>812.0</ele><time>2026-03-23T09:00:50Z</time></trkpt><trkpt lat="31.401440519838552" lon="-4.4368562195020385"><ele>812.0</ele><time>2026-03-23T09:00:51Z</time></trkpt><trkpt lat="31.40122889279306" lon="-4.436745851131354"><ele>812.5</ele><time>2026-03-23T09:00:52Z</time></trkpt><trkpt lat="31.401023306093883" lon="-4.43664024582195"><ele>813.0</ele><time>2026-03-23T09:00:53Z</time></trkpt><trkpt lat="31.400758181021722" lon="-4.436663906852564"><ele>813.0</ele><time>2026-03-23T09:00:54Z</time></trkpt><trkpt lat="31.40056646468658" lon="-4.436546664309255"><ele>813.0</ele><time>2026-03-23T09:00:55Z</time></trkpt><trkpt lat="31.400350942496935" lon="-4.436427735515546"><ele>813.0</ele><time>2026-03-23T09:00:56Z</time></trkpt><trkpt lat="31.40015642621578" lon="-4.43632077983265"><ele>813.0</ele><time>2026-03-23T09:00:57Z</time></trkpt><trkpt lat="31.39998059111577" lon="-4.436224096087607"><ele>813.0</ele><time>2026-03-23T09:00:58Z</time></trkpt><trkpt lat="31.399822554362206" lon="-4.43614077137554"><ele>813.0</ele><time>2026-03-23T09:00:59Z</time></trkpt><trkpt lat="31.399670105550623" lon="-4.436086066156929"><ele>813.0</ele><time>2026-03-23T09:01:00Z</time></trkpt><trkpt lat="31.399527938532586" lon="-4.436035050489646"><ele>813.0</ele><time>2026-03-23T09:01:01Z</time></trkpt><trkpt lat="31.399357271978296" lon="-4.435973807954616"><ele>813.0</ele><time>2026-03-23T09:01:02Z</time></trkpt><trkpt lat="31.399179997560232" lon="-4.435910010735121"><ele>813.0</ele><time>2026-03-23T09:01:03Z</time></trkpt><trkpt lat="31.399019482353278" lon="-4.43585104986847"><ele>813.0</ele><time>2026-03-23T09:01:04Z</time></trkpt><trkpt lat="31.398873313635413" lon="-4.435786140383817"><ele>813.0</ele><time>2026-03-23T09:01:05Z</time></trkpt><trkpt lat="31.398749537680832" lon="-4.435720470243862"><ele>813.0</ele><time>2026-03-23T09:01:06Z</time></trkpt><trkpt lat="31.398635563363143" lon="-4.435659896929909"><ele>813.0</ele><time>2026-03-23T09:01:07Z</time></trkpt><trkpt lat="31.39849814874699" lon="-4.435539961228608"><ele>813.0</ele><time>2026-03-23T09:01:08Z</time></trkpt><trkpt lat="31.398363874661467" lon="-4.43541542824218"><ele>812.6666666666667</ele><time>2026-03-23T09:01:09Z</time></trkpt><trkpt lat="31.39820907879793" lon="-4.435271862300896"><ele>812.3333333333334</ele><time>2026-03-23T09:01:10Z</time></trkpt><trkpt lat="31.398038658243784" lon="-4.4351138050984815"><ele>812.0</ele><time>2026-03-23T09:01:11Z</time></trkpt><trkpt lat="31.39785816121478" lon="-4.4349464025020735"><ele>812.0</ele><time>2026-03-23T09:01:12Z</time></trkpt><trkpt lat="31.39767802724368" lon="-4.434784886360568"><ele>812.0</ele><time>2026-03-23T09:01:13Z</time></trkpt><trkpt lat="31.39748971861587" lon="-4.434621524977006"><ele>812.0</ele><time>2026-03-23T09:01:14Z</time></trkpt><trkpt lat="31.397309249906797" lon="-4.4344651528767836"><ele>812.0</ele><time>2026-03-23T09:01:15Z</time></trkpt><trkpt lat="31.39712645135009" lon="-4.434306924879684"><ele>811.5</ele><time>2026-03-23T09:01:16Z</time></trkpt><trkpt lat="31.39691824923306" lon="-4.434126571077664"><ele>811.0</ele><time>2026-03-23T09:01:17Z</time></trkpt><trkpt lat="31.396729329656633" lon="-4.433928204917965"><ele>811.3333333333333</ele><time>2026-03-23T09:01:18Z</time></trkpt><trkpt lat="31.396576028051392" lon="-4.433765916625921"><ele>811.6666666666667</ele><time>2026-03-23T09:01:19Z</time></trkpt><trkpt lat="31.396433748055177" lon="-4.433615255889701"><ele>812.0</ele><time>2026-03-23T09:01:20Z</time></trkpt><trkpt lat="31.396297795088923" lon="-4.433471161676688"><ele>811.3333333333334</ele><time>2026-03-23T09:01:21Z</time></trkpt><trkpt lat="31.39614619771842" lon="-4.433310486218672"><ele>810.6666666666667</ele><time>2026-03-23T09:01:22Z</time></trkpt><trkpt lat="31.395987951994094" lon="-4.433135815082056"><ele>810.0</ele><time>2026-03-23T09:01:23Z</time></trkpt><trkpt lat="31.395816824041205" lon="-4.433024626118168"><ele>810.0</ele><time>2026-03-23T09:01:24Z</time></trkpt><trkpt lat="31.395666788699515" lon="-4.432911759437729"><ele>810.0</ele><time>2026-03-23T09:01:25Z</time></trkpt><trkpt lat="31.395504800052393" lon="-4.432790070540058"><ele>810.0</ele><time>2026-03-23T09:01:26Z</time></trkpt><trkpt lat="31.395338019150298" lon="-4.432664890695167"><ele>810.0</ele><time>2026-03-23T09:01:27Z</time></trkpt><trkpt lat="31.395162837965973" lon="-4.432533609227711"><ele>810.0</ele><time>2026-03-23T09:01:28Z</time></trkpt><trkpt lat="31.39500193692233" lon="-4.432407435821202"><ele>810.0</ele><time>2026-03-23T09:01:29Z</time></trkpt><trkpt lat="31.394861113747435" lon="-4.432276783785781"><ele>810.0</ele><time>2026-03-23T09:01:30Z</time></trkpt><trkpt lat="31.39471275649128" lon="-4.432177987696444"><ele>810.0</ele><time>2026-03-23T09:01:31Z</time></trkpt><trkpt lat="31.394591510789077" lon="-4.432053075357054"><ele>810.0</ele><time>2026-03-23T09:01:32Z</time></trkpt><trkpt lat="31.394449320403158" lon="-4.4319302479664255"><ele>810.0</ele><time>2026-03-23T09:01:33Z</time></trkpt><trkpt lat="31.394288530634505" lon="-4.431791372381521"><ele>810.0</ele><time>2026-03-23T09:01:34Z</time></trkpt><trkpt lat="31.394115258387853" lon="-4.431641737093425"><ele>810.0</ele><time>2026-03-23T09:01:35Z</time></trkpt><trkpt lat="31.393944406540303" lon="-4.431494290322909"><ele>809.5</ele><time>2026-03-23T09:01:36Z</time></trkpt><trkpt lat="31.393772350488472" lon="-4.431345700470139"><ele>809.0</ele><time>2026-03-23T09:01:37Z</time></trkpt><trkpt lat="31.39357246362554" lon="-4.431180387802206"><ele>809.0</ele><time>2026-03-23T09:01:38Z</time></trkpt><trkpt lat="31.393397718144314" lon="-4.431069402518727"><ele>809.0</ele><time>2026-03-23T09:01:39Z</time></trkpt><trkpt lat="31.3932344047421" lon="-4.430965505941541"><ele>809.0</ele><time>2026-03-23T09:01:40Z</time></trkpt><trkpt lat="31.3930671538752" lon="-4.43085900287227"><ele>809.0</ele><time>2026-03-23T09:01:41Z</time></trkpt><trkpt lat="31.39289279929873" lon="-4.430750263039642"><ele>809.0</ele><time>2026-03-23T09:01:42Z</time></trkpt><trkpt lat="31.392709344609596" lon="-4.43064006022855"><ele>809.0</ele><time>2026-03-23T09:01:43Z</time></trkpt><trkpt lat="31.392507493466844" lon="-4.430519160158797"><ele>808.6666666666667</ele><time>2026-03-23T09:01:44Z</time></trkpt><trkpt lat="31.392318849001043" lon="-4.430406170294229"><ele>808.3333333333333</ele><time>2026-03-23T09:01:44.999Z</time></trkpt><trkpt lat="31.39214725657709" lon="-4.430303393864966"><ele>808.0</ele><time>2026-03-23T09:01:45.999Z</time></trkpt><trkpt lat="31.391987714714315" lon="-4.430207835202445"><ele>807.0</ele><time>2026-03-23T09:01:46.999Z</time></trkpt><trkpt lat="31.391855018076182" lon="-4.430128355657976"><ele>806.0</ele><time>2026-03-23T09:01:47.999Z</time></trkpt><trkpt lat="31.391726764203707" lon="-4.430051537151186"><ele>805.0</ele><time>2026-03-23T09:01:48.999Z</time></trkpt><trkpt lat="31.391586214755147" lon="-4.429967354107081"><ele>805.0</ele><time>2026-03-23T09:01:49.999Z</time></trkpt><trkpt lat="31.39144386506166" lon="-4.429882092816752"><ele>805.0</ele><time>2026-03-23T09:01:50.999Z</time></trkpt><trkpt lat="31.39130223050322" lon="-4.429797259842717"><ele>805.0</ele><time>2026-03-23T09:01:51.999Z</time></trkpt><trkpt lat="31.391181442209092" lon="-4.429724829865244"><ele>806.0</ele><time>2026-03-23T09:01:52.999Z</time></trkpt><trkpt lat="31.391058623355676" lon="-4.429650597935537"><ele>807.0</ele><time>2026-03-23T09:01:53.999Z</time></trkpt><trkpt lat="31.39092366154" lon="-4.429570298608984"><ele>808.0</ele><time>2026-03-23T09:01:54.999Z</time></trkpt><trkpt lat="31.390775987012844" lon="-4.429481589481395"><ele>808.0</ele><time>2026-03-23T09:01:55.999Z</time></trkpt><trkpt lat="31.390624971560943" lon="-4.4293909769165465"><ele>808.0</ele><time>2026-03-23T09:01:56.999Z</time></trkpt><trkpt lat="31.39049333402542" lon="-4.429312030608522"><ele>808.0</ele><time>2026-03-23T09:01:57.999Z</time></trkpt><trkpt lat="31.390361878865303" lon="-4.429211115359117"><ele>808.3333333333333</ele><time>2026-03-23T09:01:59Z</time></trkpt><trkpt lat="31.39022443888776" lon="-4.429103084678732"><ele>808.6666666666667</ele><time>2026-03-23T09:02:00Z</time></trkpt><trkpt lat="31.390086745778838" lon="-4.428994855079466"><ele>809.0</ele><time>2026-03-23T09:02:01Z</time></trkpt><trkpt lat="31.38993496789869" lon="-4.42887555452478"><ele>808.6666666666667</ele><time>2026-03-23T09:02:02Z</time></trkpt><trkpt lat="31.38978688516555" lon="-4.42875915847333"><ele>808.3333333333333</ele><time>2026-03-23T09:02:03Z</time></trkpt><trkpt lat="31.38963515184385" lon="-4.428639594795409"><ele>808.0</ele><time>2026-03-23T09:02:04Z</time></trkpt><trkpt lat="31.389474663970457" lon="-4.4285132204996005"><ele>807.6666666666666</ele><time>2026-03-23T09:02:05Z</time></trkpt><trkpt lat="31.389312134621992" lon="-4.428385397000107"><ele>807.3333333333333</ele><time>2026-03-23T09:02:06Z</time></trkpt><trkpt lat="31.389129205159275" lon="-4.428241529542281"><ele>807.0</ele><time>2026-03-23T09:02:07Z</time></trkpt><trkpt lat="31.388938741133696" lon="-4.428091736397447"><ele>806.5</ele><time>2026-03-23T09:02:08Z</time></trkpt><trkpt lat="31.388732518626227" lon="-4.42792954893297"><ele>806.0</ele><time>2026-03-23T09:02:09Z</time></trkpt><trkpt lat="31.388545187921892" lon="-4.427782416413505"><ele>806.0</ele><time>2026-03-23T09:02:10Z</time></trkpt><trkpt lat="31.38837602150282" lon="-4.427648334912171"><ele>806.0</ele><time>2026-03-23T09:02:11Z</time></trkpt><trkpt lat="31.388214195914106" lon="-4.427521986707342"><ele>806.0</ele><time>2026-03-23T09:02:12Z</time></trkpt><trkpt lat="31.388014336639024" lon="-4.427415917335765"><ele>805.6666666666667</ele><time>2026-03-23T09:02:13Z</time></trkpt><trkpt lat="31.387841912414302" lon="-4.427323111223592"><ele>805.3333333333333</ele><time>2026-03-23T09:02:14Z</time></trkpt><trkpt lat="31.387668667754532" lon="-4.427235788882073"><ele>805.0</ele><time>2026-03-23T09:02:15Z</time></trkpt><trkpt lat="31.38751090262916" lon="-4.427144932131337"><ele>805.0</ele><time>2026-03-23T09:02:16Z</time></trkpt><trkpt lat="31.387371984279056" lon="-4.42706982912933"><ele>805.0</ele><time>2026-03-23T09:02:17Z</time></trkpt><trkpt lat="31.387233818200265" lon="-4.426994778539997"><ele>805.0</ele><time>2026-03-23T09:02:18Z</time></trkpt><trkpt lat="31.38712502257962" lon="-4.426902283841895"><ele>805.0</ele><time>2026-03-23T09:02:19Z</time></trkpt><trkpt lat="31.387018885182975" lon="-4.426839164926593"><ele>805.25</ele><time>2026-03-23T09:02:20Z</time></trkpt><trkpt lat="31.3869280497628" lon="-4.426776479278855"><ele>805.5</ele><time>2026-03-23T09:02:21Z</time></trkpt><trkpt lat="31.386837685256555" lon="-4.426708948089972"><ele>805.75</ele><time>2026-03-23T09:02:22Z</time></trkpt><trkpt lat="31.386738169396008" lon="-4.426622587595593"><ele>806.0</ele><time>2026-03-23T09:02:23Z</time></trkpt><trkpt lat="31.38662904980884" lon="-4.4265212078783955"><ele>806.0</ele><time>2026-03-23T09:02:24Z</time></trkpt><trkpt lat="31.38652737692833" lon="-4.4264000396811465"><ele>806.0</ele><time>2026-03-23T09:02:25Z</time></trkpt><trkpt lat="31.38642136166852" lon="-4.426256719145539"><ele>806.0</ele><time>2026-03-23T09:02:26Z</time></trkpt><trkpt lat="31.38629666736844" lon="-4.426150828193544"><ele>806.0</ele><time>2026-03-23T09:02:27Z</time></trkpt><trkpt lat="31.38618015475211" lon="-4.426031873956349"><ele>806.0</ele><time>2026-03-23T09:02:28Z</time></trkpt><trkpt lat="31.38605136796223" lon="-4.4259230634153255"><ele>806.0</ele><time>2026-03-23T09:02:29Z</time></trkpt><trkpt lat="31.385907949927027" lon="-4.425815432170875"><ele>806.0</ele><time>2026-03-23T09:02:30Z</time></trkpt><trkpt lat="31.38575419675238" lon="-4.425700044711377"><ele>806.0</ele><time>2026-03-23T09:02:31Z</time></trkpt><trkpt lat="31.385607035037935" lon="-4.425560919080653"><ele>806.0</ele><time>2026-03-23T09:02:32Z</time></trkpt><trkpt lat="31.38544306652606" lon="-4.425443577796878"><ele>805.0</ele><time>2026-03-23T09:02:33Z</time></trkpt><trkpt lat="31.385276305223258" lon="-4.425294414506265"><ele>804.0</ele><time>2026-03-23T09:02:34Z</time></trkpt><trkpt lat="31.385094692781145" lon="-4.425138067699862"><ele>803.0</ele><time>2026-03-23T09:02:35Z</time></trkpt><trkpt lat="31.38490682038341" lon="-4.424994359926348"><ele>803.0</ele><time>2026-03-23T09:02:36Z</time></trkpt><trkpt lat="31.384747550177703" lon="-4.424833536512833"><ele>803.0</ele><time>2026-03-23T09:02:37Z</time></trkpt><trkpt lat="31.384588822623677" lon="-4.424664593968602"><ele>803.0</ele><time>2026-03-23T09:02:38Z</time></trkpt><trkpt lat="31.384407685454267" lon="-4.424506970300998"><ele>802.5</ele><time>2026-03-23T09:02:39Z</time></trkpt><trkpt lat="31.384225732441926" lon="-4.424338148353823"><ele>802.0</ele><time>2026-03-23T09:02:40Z</time></trkpt><trkpt lat="31.384052941328093" lon="-4.424157992411"><ele>802.0</ele><time>2026-03-23T09:02:41Z</time></trkpt><trkpt lat="31.38388614881842" lon="-4.424014152424818"><ele>802.0</ele><time>2026-03-23T09:02:42Z</time></trkpt><trkpt lat="31.383738994533708" lon="-4.423918655149693"><ele>802.0</ele><time>2026-03-23T09:02:43Z</time></trkpt><trkpt lat="31.383608568858126" lon="-4.42379477640915"><ele>802.0</ele><time>2026-03-23T09:02:44Z</time></trkpt><trkpt lat="31.38345741094114" lon="-4.423709503763324"><ele>802.0</ele><time>2026-03-23T09:02:45Z</time></trkpt><trkpt lat="31.383281964016916" lon="-4.42361453076051"><ele>802.0</ele><time>2026-03-23T09:02:46Z</time></trkpt><trkpt lat="31.383125747383705" lon="-4.423529967621723"><ele>801.6666666666666</ele><time>2026-03-23T09:02:47Z</time></trkpt><trkpt lat="31.382967451566593" lon="-4.423444278988423"><ele>801.3333333333333</ele><time>2026-03-23T09:02:48Z</time></trkpt><trkpt lat="31.3828089294225" lon="-4.423358467818863"><ele>801.0</ele><time>2026-03-23T09:02:49Z</time></trkpt><trkpt lat="31.38265327503598" lon="-4.423254998017355"><ele>801.0</ele><time>2026-03-23T09:02:50Z</time></trkpt><trkpt lat="31.382502829701533" lon="-4.423168554032744"><ele>801.0</ele><time>2026-03-23T09:02:51Z</time></trkpt><trkpt lat="31.38238568564243" lon="-4.4230487371914124"><ele>801.0</ele><time>2026-03-23T09:02:52Z</time></trkpt><trkpt lat="31.38225932741451" lon="-4.422927559827836"><ele>801.3333333333333</ele><time>2026-03-23T09:02:53Z</time></trkpt><trkpt lat="31.382111382383332" lon="-4.422802577045636"><ele>801.6666666666666</ele><time>2026-03-23T09:02:54Z</time></trkpt><trkpt lat="31.381982228156335" lon="-4.4226538371921995"><ele>802.0</ele><time>2026-03-23T09:02:55Z</time></trkpt><trkpt lat="31.38185751961455" lon="-4.422525386375232"><ele>802.0</ele><time>2026-03-23T09:02:56Z</time></trkpt><trkpt lat="31.381716837535322" lon="-4.422403418008026"><ele>802.0</ele><time>2026-03-23T09:02:57Z</time></trkpt><trkpt lat="31.381574254068273" lon="-4.422288873151924"><ele>802.0</ele><time>2026-03-23T09:02:58Z</time></trkpt><trkpt lat="31.381453949066827" lon="-4.422191797673234"><ele>801.6666666666666</ele><time>2026-03-23T09:02:59Z</time></trkpt><trkpt lat="31.381336637307374" lon="-4.422096012883311"><ele>801.3333333333333</ele><time>2026-03-23T09:03:00Z</time></trkpt><trkpt lat="31.381201562403756" lon="-4.421983043130401"><ele>801.0</ele><time>2026-03-23T09:03:01Z</time></trkpt><trkpt lat="31.381057865487495" lon="-4.421861532021645"><ele>801.0</ele><time>2026-03-23T09:03:02Z</time></trkpt><trkpt lat="31.38090758071596" lon="-4.421731903030823"><ele>801.0</ele><time>2026-03-23T09:03:03Z</time></trkpt><trkpt lat="31.380778794693253" lon="-4.4215901367357215"><ele>801.0</ele><time>2026-03-23T09:03:04Z</time></trkpt><trkpt lat="31.38064759530381" lon="-4.421458417596905"><ele>801.0</ele><time>2026-03-23T09:03:05Z</time></trkpt><trkpt lat="31.380530143956832" lon="-4.421316960763026"><ele>801.0</ele><time>2026-03-23T09:03:06Z</time></trkpt><trkpt lat="31.38042446125012" lon="-4.421186895147568"><ele>801.0</ele><time>2026-03-23T09:03:07Z</time></trkpt><trkpt lat="31.380324679798136" lon="-4.421085489154057"><ele>801.0</ele><time>2026-03-23T09:03:08Z</time></trkpt><trkpt lat="31.38025032161072" lon="-4.420992277896332"><ele>801.0</ele><time>2026-03-23T09:03:09Z</time></trkpt><trkpt lat="31.38020272422644" lon="-4.420914576344543"><ele>801.0</ele><time>2026-03-23T09:03:10Z</time></trkpt><trkpt lat="31.380142481970438" lon="-4.420840591853146"><ele>801.0</ele><time>2026-03-23T09:03:11Z</time></trkpt><trkpt lat="31.38007273573539" lon="-4.4207549353896"><ele>801.0</ele><time>2026-03-23T09:03:12Z</time></trkpt><trkpt lat="31.379998630327425" lon="-4.420663925352214"><ele>801.0</ele><time>2026-03-23T09:03:13Z</time></trkpt><trkpt lat="31.379920853771942" lon="-4.42056883345018"><ele>801.0</ele><time>2026-03-23T09:03:14Z</time></trkpt><trkpt lat="31.3798234177053" lon="-4.420477332385425"><ele>801.0</ele><time>2026-03-23T09:03:15Z</time></trkpt><trkpt lat="31.379727614245102" lon="-4.420363555922033"><ele>801.0</ele><time>2026-03-23T09:03:16Z</time></trkpt><trkpt lat="31.37961959877882" lon="-4.420235984575267"><ele>800.6666666666667</ele><time>2026-03-23T09:03:17Z</time></trkpt><trkpt lat="31.37948539363841" lon="-4.4200830846319965"><ele>800.3333333333334</ele><time>2026-03-23T09:03:18Z</time></trkpt><trkpt lat="31.379347402665783" lon="-4.419945734892117"><ele>800.0</ele><time>2026-03-23T09:03:19Z</time></trkpt><trkpt lat="31.379205257037608" lon="-4.419819416805596"><ele>800.0</ele><time>2026-03-23T09:03:20Z</time></trkpt><trkpt lat="31.37906186753509" lon="-4.419691434140499"><ele>800.0</ele><time>2026-03-23T09:03:21Z</time></trkpt><trkpt lat="31.378931483947625" lon="-4.419558170817839"><ele>800.0</ele><time>2026-03-23T09:03:22Z</time></trkpt><trkpt lat="31.378797506076836" lon="-4.419419395774714"><ele>799.6666666666667</ele><time>2026-03-23T09:03:23Z</time></trkpt><trkpt lat="31.378666073601533" lon="-4.419279181269882"><ele>799.3333333333333</ele><time>2026-03-23T09:03:24Z</time></trkpt><trkpt lat="31.37853143185553" lon="-4.419142049876442"><ele>799.0</ele><time>2026-03-23T09:03:25Z</time></trkpt><trkpt lat="31.378376596811414" lon="-4.418998076454325"><ele>799.0</ele><time>2026-03-23T09:03:26Z</time></trkpt><trkpt lat="31.378216963721485" lon="-4.418864825018744"><ele>799.0</ele><time>2026-03-23T09:03:27Z</time></trkpt><trkpt lat="31.378084742473938" lon="-4.418716360910996"><ele>799.0</ele><time>2026-03-23T09:03:28Z</time></trkpt><trkpt lat="31.37794795869794" lon="-4.418578262322368"><ele>799.3333333333333</ele><time>2026-03-23T09:03:29Z</time></trkpt><trkpt lat="31.377798199715055" lon="-4.418427597485829"><ele>799.6666666666667</ele><time>2026-03-23T09:03:30Z</time></trkpt><trkpt lat="31.37766035077684" lon="-4.418288914663024"><ele>800.0</ele><time>2026-03-23T09:03:31Z</time></trkpt><trkpt lat="31.377511001322475" lon="-4.418148655999757"><ele>800.0</ele><time>2026-03-23T09:03:32Z</time></trkpt><trkpt lat="31.377391809437135" lon="-4.418011844709514"><ele>800.0</ele><time>2026-03-23T09:03:33Z</time></trkpt><trkpt lat="31.377282351185887" lon="-4.417891593594972"><ele>800.0</ele><time>2026-03-23T09:03:34Z</time></trkpt><trkpt lat="31.377170244773467" lon="-4.417760840058066"><ele>801.0</ele><time>2026-03-23T09:03:35Z</time></trkpt><trkpt lat="31.37706079971889" lon="-4.417627325852368"><ele>802.0</ele><time>2026-03-23T09:03:36Z</time></trkpt><trkpt lat="31.37694635911485" lon="-4.417498889596845"><ele>803.0</ele><time>2026-03-23T09:03:37Z</time></trkpt><trkpt lat="31.37681537510379" lon="-4.417370547180185"><ele>803.0</ele><time>2026-03-23T09:03:38Z</time></trkpt><trkpt lat="31.376678093948573" lon="-4.417248979514864"><ele>803.0</ele><time>2026-03-23T09:03:39Z</time></trkpt><trkpt lat="31.37652813458782" lon="-4.417124498333577"><ele>803.0</ele><time>2026-03-23T09:03:40Z</time></trkpt><trkpt lat="31.376400526253217" lon="-4.417018338161976"><ele>802.75</ele><time>2026-03-23T09:03:41Z</time></trkpt><trkpt lat="31.376288174985262" lon="-4.416931523703317"><ele>802.5</ele><time>2026-03-23T09:03:42Z</time></trkpt><trkpt lat="31.376167926603067" lon="-4.416838373085882"><ele>802.25</ele><time>2026-03-23T09:03:43Z</time></trkpt><trkpt lat="31.376024684949886" lon="-4.4167720692424055"><ele>802.0</ele><time>2026-03-23T09:03:44Z</time></trkpt><trkpt lat="31.3758763505669" lon="-4.416692440968972"><ele>802.0</ele><time>2026-03-23T09:03:45Z</time></trkpt><trkpt lat="31.37572958266922" lon="-4.416614095855733"><ele>802.0</ele><time>2026-03-23T09:03:46Z</time></trkpt><trkpt lat="31.37556561201442" lon="-4.416525545827103"><ele>802.0</ele><time>2026-03-23T09:03:47Z</time></trkpt><trkpt lat="31.375386187048306" lon="-4.416416452214468"><ele>800.5</ele><time>2026-03-23T09:03:48Z</time></trkpt><trkpt lat="31.37518061909723" lon="-4.416288825485679"><ele>799.0</ele><time>2026-03-23T09:03:49Z</time></trkpt><trkpt lat="31.374962653397542" lon="-4.416152826717095"><ele>799.0</ele><time>2026-03-23T09:03:50Z</time></trkpt><trkpt lat="31.37476815160325" lon="-4.416030112636684"><ele>799.0</ele><time>2026-03-23T09:03:51Z</time></trkpt><trkpt lat="31.37461343931044" lon="-4.415932502369578"><ele>799.0</ele><time>2026-03-23T09:03:52Z</time></trkpt><trkpt lat="31.374462369582798" lon="-4.415837190226783"><ele>799.6666666666666</ele><time>2026-03-23T09:03:53Z</time></trkpt><trkpt lat="31.374279111363645" lon="-4.415716680624867"><ele>800.3333333333333</ele><time>2026-03-23T09:03:54Z</time></trkpt><trkpt lat="31.374112029665405" lon="-4.415596098425352"><ele>801.0</ele><time>2026-03-23T09:03:55Z</time></trkpt><trkpt lat="31.373933740927143" lon="-4.415466887647274"><ele>800.3333333333333</ele><time>2026-03-23T09:03:56Z</time></trkpt><trkpt lat="31.373748809475728" lon="-4.4153300301784"><ele>799.6666666666666</ele><time>2026-03-23T09:03:57Z</time></trkpt><trkpt lat="31.3735850953824" lon="-4.415201522430692"><ele>799.0</ele><time>2026-03-23T09:03:58Z</time></trkpt><trkpt lat="31.373430754557507" lon="-4.4150805129759805"><ele>799.0</ele><time>2026-03-23T09:03:59Z</time></trkpt><trkpt lat="31.373262878235117" lon="-4.4149593790190895"><ele>799.0</ele><time>2026-03-23T09:04:00Z</time></trkpt><trkpt lat="31.373076170682673" lon="-4.4148367071709425"><ele>799.0</ele><time>2026-03-23T09:04:01Z</time></trkpt><trkpt lat="31.372864144135036" lon="-4.414698567293579"><ele>801.5</ele><time>2026-03-23T09:04:02Z</time></trkpt><trkpt lat="31.37265475996013" lon="-4.4145621490110285"><ele>804.0</ele><time>2026-03-23T09:04:03Z</time></trkpt><trkpt lat="31.37245814761921" lon="-4.414438335674027"><ele>804.0</ele><time>2026-03-23T09:04:04Z</time></trkpt><trkpt lat="31.372249343812104" lon="-4.414307623076645"><ele>804.0</ele><time>2026-03-23T09:04:05Z</time></trkpt><trkpt lat="31.372050536962014" lon="-4.41417375632265"><ele>804.3333333333333</ele><time>2026-03-23T09:04:06Z</time></trkpt><trkpt lat="31.371872736637886" lon="-4.414089389398122"><ele>804.6666666666666</ele><time>2026-03-23T09:04:07Z</time></trkpt><trkpt lat="31.371715028258752" lon="-4.413975345687025"><ele>805.0</ele><time>2026-03-23T09:04:08Z</time></trkpt><trkpt lat="31.37154699488045" lon="-4.413962622947883"><ele>805.0</ele><time>2026-03-23T09:04:09Z</time></trkpt><trkpt lat="31.37137796969209" lon="-4.4139219255823265"><ele>805.0</ele><time>2026-03-23T09:04:10Z</time></trkpt><trkpt lat="31.371201038588175" lon="-4.413897186498964"><ele>805.0</ele><time>2026-03-23T09:04:11Z</time></trkpt><trkpt lat="31.37101011044525" lon="-4.413889685811527"><ele>805.6666666666666</ele><time>2026-03-23T09:04:12Z</time></trkpt><trkpt lat="31.370841139265128" lon="-4.4138915855874465"><ele>806.3333333333333</ele><time>2026-03-23T09:04:13Z</time></trkpt><trkpt lat="31.370700344641783" lon="-4.41391954750323"><ele>807.0</ele><time>2026-03-23T09:04:14Z</time></trkpt><trkpt lat="31.370561451037403" lon="-4.413979292701169"><ele>806.0</ele><time>2026-03-23T09:04:15Z</time></trkpt><trkpt lat="31.370426066909584" lon="-4.414069568494201"><ele>805.0</ele><time>2026-03-23T09:04:16Z</time></trkpt><trkpt lat="31.37028893612041" lon="-4.4141411251647495"><ele>804.0</ele><time>2026-03-23T09:04:17Z</time></trkpt><trkpt lat="31.370132474323295" lon="-4.414179010242967"><ele>804.0</ele><time>2026-03-23T09:04:18Z</time></trkpt><trkpt lat="31.369976562705798" lon="-4.414215890313867"><ele>804.0</ele><time>2026-03-23T09:04:19Z</time></trkpt><trkpt lat="31.369804426204947" lon="-4.414270384242167"><ele>804.0</ele><time>2026-03-23T09:04:20Z</time></trkpt><trkpt lat="31.369629944447446" lon="-4.414329211349051"><ele>803.6666666666667</ele><time>2026-03-23T09:04:21Z</time></trkpt><trkpt lat="31.369458155411508" lon="-4.414387433683925"><ele>803.3333333333334</ele><time>2026-03-23T09:04:22Z</time></trkpt><trkpt lat="31.3692790726696" lon="-4.414447004793287"><ele>803.0</ele><time>2026-03-23T09:04:23Z</time></trkpt><trkpt lat="31.36909908011542" lon="-4.414505481992601"><ele>803.0</ele><time>2026-03-23T09:04:24Z</time></trkpt><trkpt lat="31.368918697757668" lon="-4.414555771382285"><ele>803.0</ele><time>2026-03-23T09:04:25Z</time></trkpt><trkpt lat="31.36874275939838" lon="-4.414600964777721"><ele>803.0</ele><time>2026-03-23T09:04:26Z</time></trkpt><trkpt lat="31.36856406835901" lon="-4.4146417092517005"><ele>802.3333333333334</ele><time>2026-03-23T09:04:27Z</time></trkpt><trkpt lat="31.368381850897183" lon="-4.414676178931671"><ele>801.6666666666667</ele><time>2026-03-23T09:04:28Z</time></trkpt><trkpt lat="31.368206076568516" lon="-4.41469285535902"><ele>801.0</ele><time>2026-03-23T09:04:29Z</time></trkpt><trkpt lat="31.368007633222625" lon="-4.414703010522424"><ele>800.0</ele><time>2026-03-23T09:04:30Z</time></trkpt><trkpt lat="31.367814533150092" lon="-4.414715510426393"><ele>799.0</ele><time>2026-03-23T09:04:31Z</time></trkpt><trkpt lat="31.367616636534017" lon="-4.414724772102224"><ele>798.0</ele><time>2026-03-23T09:04:32Z</time></trkpt><trkpt lat="31.367440435447993" lon="-4.4147344809562705"><ele>798.0</ele><time>2026-03-23T09:04:33Z</time></trkpt><trkpt lat="31.367250740301657" lon="-4.414749131046598"><ele>798.0</ele><time>2026-03-23T09:04:34Z</time></trkpt><trkpt lat="31.367044010773714" lon="-4.414765991022958"><ele>798.0</ele><time>2026-03-23T09:04:35Z</time></trkpt><trkpt lat="31.366843523306603" lon="-4.414779436117827"><ele>797.6666666666667</ele><time>2026-03-23T09:04:36Z</time></trkpt><trkpt lat="31.366646365369295" lon="-4.414782083559096"><ele>797.3333333333334</ele><time>2026-03-23T09:04:37Z</time></trkpt><trkpt lat="31.36645467545303" lon="-4.414769332101558"><ele>797.0</ele><time>2026-03-23T09:04:38Z</time></trkpt><trkpt lat="31.366260527630125" lon="-4.41475078030314"><ele>796.6666666666667</ele><time>2026-03-23T09:04:39Z</time></trkpt><trkpt lat="31.366062032588747" lon="-4.414734152298922"><ele>796.3333333333333</ele><time>2026-03-23T09:04:40Z</time></trkpt><trkpt lat="31.36585906194741" lon="-4.414720385018973"><ele>796.0</ele><time>2026-03-23T09:04:41Z</time></trkpt><trkpt lat="31.365612016269083" lon="-4.414684149669538"><ele>796.0</ele><time>2026-03-23T09:04:42Z</time></trkpt><trkpt lat="31.36535059891927" lon="-4.414656923814523"><ele>796.0</ele><time>2026-03-23T09:04:43Z</time></trkpt><trkpt lat="31.365266811264142" lon="-4.414561409215809"><ele>796.0</ele><time>2026-03-23T09:04:44Z</time></trkpt><trkpt lat="31.36507388251205" lon="-4.414499380504901"><ele>796.0</ele><time>2026-03-23T09:04:45Z</time></trkpt><trkpt lat="31.36488097957329" lon="-4.414435685399014"><ele>796.0</ele><time>2026-03-23T09:04:46Z</time></trkpt><trkpt lat="31.364687669614554" lon="-4.4143835328023515"><ele>796.0</ele><time>2026-03-23T09:04:47Z</time></trkpt><trkpt lat="31.36449874832961" lon="-4.414340479286794"><ele>795.3333333333333</ele><time>2026-03-23T09:04:48Z</time></trkpt><trkpt lat="31.36431040303199" lon="-4.41429842432547"><ele>794.6666666666667</ele><time>2026-03-23T09:04:49Z</time></trkpt><trkpt lat="31.36411579267611" lon="-4.414248631290546"><ele>794.0</ele><time>2026-03-23T09:04:50Z</time></trkpt><trkpt lat="31.36392198407815" lon="-4.414185738472235"><ele>794.3333333333334</ele><time>2026-03-23T09:04:51Z</time></trkpt><trkpt lat="31.363757295864342" lon="-4.414120340156139"><ele>794.6666666666667</ele><time>2026-03-23T09:04:52Z</time></trkpt><trkpt lat="31.363599003249252" lon="-4.414054324438835"><ele>795.0</ele><time>2026-03-23T09:04:53Z</time></trkpt><trkpt lat="31.36342943615233" lon="-4.413989135422208"><ele>795.0</ele><time>2026-03-23T09:04:54Z</time></trkpt><trkpt lat="31.36326924953301" lon="-4.41392812356469"><ele>795.0</ele><time>2026-03-23T09:04:55Z</time></trkpt><trkpt lat="31.363113683158048" lon="-4.413888431987335"><ele>795.0</ele><time>2026-03-23T09:04:56Z</time></trkpt><trkpt lat="31.362937055078536" lon="-4.413865753245239"><ele>794.6666666666667</ele><time>2026-03-23T09:04:57Z</time></trkpt><trkpt lat="31.3627465962698" lon="-4.4138664367640725"><ele>794.3333333333334</ele><time>2026-03-23T09:04:58Z</time></trkpt><trkpt lat="31.36256896936645" lon="-4.413890843992732"><ele>794.0</ele><time>2026-03-23T09:04:59Z</time></trkpt><trkpt lat="31.362414935562697" lon="-4.413910682045948"><ele>794.0</ele><time>2026-03-23T09:05:00Z</time></trkpt><trkpt lat="31.36228257631736" lon="-4.413909717211899"><ele>794.0</ele><time>2026-03-23T09:05:01Z</time></trkpt><trkpt lat="31.36213750450037" lon="-4.4138973472102085"><ele>794.0</ele><time>2026-03-23T09:05:02Z</time></trkpt><trkpt lat="31.361970756935683" lon="-4.413888623184523"><ele>794.0</ele><time>2026-03-23T09:05:03Z</time></trkpt><trkpt lat="31.361804528650005" lon="-4.413870462520551"><ele>794.0</ele><time>2026-03-23T09:05:04Z</time></trkpt><trkpt lat="31.361637127329303" lon="-4.413843411070648"><ele>794.0</ele><time>2026-03-23T09:05:05Z</time></trkpt><trkpt lat="31.361474158648438" lon="-4.413820856967866"><ele>794.0</ele><time>2026-03-23T09:05:06Z</time></trkpt><trkpt lat="31.361291527862054" lon="-4.413804133301253"><ele>793.3333333333334</ele><time>2026-03-23T09:05:07Z</time></trkpt><trkpt lat="31.361120608291372" lon="-4.413788634370118"><ele>792.6666666666667</ele><time>2026-03-23T09:05:08Z</time></trkpt><trkpt lat="31.36094231677039" lon="-4.4137805656578015"><ele>792.0</ele><time>2026-03-23T09:05:09Z</time></trkpt><trkpt lat="31.360769047732724" lon="-4.413774395858694"><ele>792.0</ele><time>2026-03-23T09:05:10Z</time></trkpt><trkpt lat="31.360628577689223" lon="-4.41376245218607"><ele>792.0</ele><time>2026-03-23T09:05:11Z</time></trkpt><trkpt lat="31.360486534908617" lon="-4.4137365612434625"><ele>792.0</ele><time>2026-03-23T09:05:12Z</time></trkpt><trkpt lat="31.360340289827942" lon="-4.413714555795316"><ele>792.0</ele><time>2026-03-23T09:05:13Z</time></trkpt><trkpt lat="31.360191348181154" lon="-4.413684550567318"><ele>792.0</ele><time>2026-03-23T09:05:14Z</time></trkpt><trkpt lat="31.360042182074075" lon="-4.413626169518456"><ele>792.0</ele><time>2026-03-23T09:05:15Z</time></trkpt><trkpt lat="31.359899059690548" lon="-4.413550334198919"><ele>792.0</ele><time>2026-03-23T09:05:16Z</time></trkpt><trkpt lat="31.359755054212307" lon="-4.4134626566932305"><ele>792.3333333333333</ele><time>2026-03-23T09:05:17Z</time></trkpt><trkpt lat="31.359611130309084" lon="-4.41335465344645"><ele>792.6666666666666</ele><time>2026-03-23T09:05:18Z</time></trkpt><trkpt lat="31.359474762910665" lon="-4.4132267484424705"><ele>793.0</ele><time>2026-03-23T09:05:19Z</time></trkpt><trkpt lat="31.359338008843352" lon="-4.413089568429495"><ele>792.6666666666666</ele><time>2026-03-23T09:05:20Z</time></trkpt><trkpt lat="31.35920601902039" lon="-4.4129726015435455"><ele>792.3333333333333</ele><time>2026-03-23T09:05:21Z</time></trkpt><trkpt lat="31.359075175385712" lon="-4.412876348009491"><ele>792.0</ele><time>2026-03-23T09:05:22Z</time></trkpt><trkpt lat="31.358919830553965" lon="-4.4127855893527945"><ele>792.3333333333333</ele><time>2026-03-23T09:05:23Z</time></trkpt><trkpt lat="31.3587690738003" lon="-4.4127096887785"><ele>792.6666666666666</ele><time>2026-03-23T09:05:24Z</time></trkpt><trkpt lat="31.35861977602176" lon="-4.412649962533241"><ele>793.0</ele><time>2026-03-23T09:05:25Z</time></trkpt><trkpt lat="31.358465036363867" lon="-4.4126088580200955"><ele>793.0</ele><time>2026-03-23T09:05:26Z</time></trkpt><trkpt lat="31.358281146114294" lon="-4.412582164706861"><ele>793.0</ele><time>2026-03-23T09:05:27Z</time></trkpt><trkpt lat="31.35810088022064" lon="-4.41257077741342"><ele>793.0</ele><time>2026-03-23T09:05:28Z</time></trkpt><trkpt lat="31.357918754464013" lon="-4.412544663101899"><ele>792.0</ele><time>2026-03-23T09:05:29Z</time></trkpt><trkpt lat="31.357745142509724" lon="-4.412517343357597"><ele>791.0</ele><time>2026-03-23T09:05:30Z</time></trkpt><trkpt lat="31.357591228965493" lon="-4.412488827640868"><ele>790.0</ele><time>2026-03-23T09:05:31Z</time></trkpt><trkpt lat="31.35745414306405" lon="-4.412455896967643"><ele>790.0</ele><time>2026-03-23T09:05:32Z</time></trkpt><trkpt lat="31.357325351195364" lon="-4.412426176192447"><ele>790.0</ele><time>2026-03-23T09:05:33Z</time></trkpt><trkpt lat="31.357190640629305" lon="-4.412394375892183"><ele>790.0</ele><time>2026-03-23T09:05:34Z</time></trkpt><trkpt lat="31.35704089866025" lon="-4.412358143835214"><ele>790.0</ele><time>2026-03-23T09:05:35Z</time></trkpt><trkpt lat="31.356875087464623" lon="-4.412328054957633"><ele>789.3333333333333</ele><time>2026-03-23T09:05:36Z</time></trkpt><trkpt lat="31.35670872772318" lon="-4.412293340364281"><ele>788.6666666666667</ele><time>2026-03-23T09:05:37Z</time></trkpt><trkpt lat="31.35654261521248" lon="-4.412250854020775"><ele>788.0</ele><time>2026-03-23T09:05:38Z</time></trkpt><trkpt lat="31.356374422457694" lon="-4.412201292489589"><ele>788.0</ele><time>2026-03-23T09:05:39Z</time></trkpt><trkpt lat="31.356208367638313" lon="-4.412153219997234"><ele>788.0</ele><time>2026-03-23T09:05:40Z</time></trkpt><trkpt lat="31.356042858503436" lon="-4.412099197431902"><ele>788.0</ele><time>2026-03-23T09:05:41Z</time></trkpt><trkpt lat="31.355881494971012" lon="-4.412036285994861"><ele>788.0</ele><time>2026-03-23T09:05:42Z</time></trkpt><trkpt lat="31.355714079610912" lon="-4.41197218557541"><ele>788.0</ele><time>2026-03-23T09:05:43Z</time></trkpt><trkpt lat="31.35553553053112" lon="-4.411908575150782"><ele>788.0</ele><time>2026-03-23T09:05:44Z</time></trkpt><trkpt lat="31.355357310458842" lon="-4.411857235484467"><ele>788.3333333333334</ele><time>2026-03-23T09:05:45Z</time></trkpt><trkpt lat="31.355176834673014" lon="-4.411808467853824"><ele>788.6666666666667</ele><time>2026-03-23T09:05:46Z</time></trkpt><trkpt lat="31.35499456871339" lon="-4.4117592353097415"><ele>789.0</ele><time>2026-03-23T09:05:47Z</time></trkpt><trkpt lat="31.35481259940968" lon="-4.411723677463976"><ele>788.3333333333333</ele><time>2026-03-23T09:05:48Z</time></trkpt><trkpt lat="31.35463736609849" lon="-4.411690904744242"><ele>787.6666666666666</ele><time>2026-03-23T09:05:49Z</time></trkpt><trkpt lat="31.354463739716245" lon="-4.411639904159519"><ele>787.0</ele><time>2026-03-23T09:05:50Z</time></trkpt><trkpt lat="31.354285016361423" lon="-4.411576577530519"><ele>787.0</ele><time>2026-03-23T09:05:51Z</time></trkpt><trkpt lat="31.35412681908973" lon="-4.411520100265142"><ele>787.0</ele><time>2026-03-23T09:05:52Z</time></trkpt><trkpt lat="31.353972521132356" lon="-4.411458724249129"><ele>787.0</ele><time>2026-03-23T09:05:53Z</time></trkpt><trkpt lat="31.353809233654545" lon="-4.411395212301555"><ele>787.0</ele><time>2026-03-23T09:05:54Z</time></trkpt><trkpt lat="31.353608538959524" lon="-4.411387340467613"><ele>787.0</ele><time>2026-03-23T09:05:55Z</time></trkpt><trkpt lat="31.35343767462238" lon="-4.411302427765258"><ele>787.0</ele><time>2026-03-23T09:05:56Z</time></trkpt><trkpt lat="31.353280372423672" lon="-4.4111923857910895"><ele>787.0</ele><time>2026-03-23T09:05:57Z</time></trkpt><trkpt lat="31.353141241747434" lon="-4.411098473228391"><ele>787.0</ele><time>2026-03-23T09:05:58Z</time></trkpt><trkpt lat="31.35298877042618" lon="-4.411027549178655"><ele>787.0</ele><time>2026-03-23T09:05:59Z</time></trkpt><trkpt lat="31.352829449963444" lon="-4.410968816916156"><ele>786.3333333333333</ele><time>2026-03-23T09:06:00Z</time></trkpt><trkpt lat="31.35265901900005" lon="-4.4109064901660595"><ele>785.6666666666667</ele><time>2026-03-23T09:06:01Z</time></trkpt><trkpt lat="31.35248526718662" lon="-4.410838078798676"><ele>785.0</ele><time>2026-03-23T09:06:02Z</time></trkpt><trkpt lat="31.35230780359616" lon="-4.410783806086651"><ele>785.0</ele><time>2026-03-23T09:06:03Z</time></trkpt><trkpt lat="31.352150224351167" lon="-4.4107605357825035"><ele>785.0</ele><time>2026-03-23T09:06:04Z</time></trkpt><trkpt lat="31.351974703768253" lon="-4.410702999165458"><ele>785.0</ele><time>2026-03-23T09:06:05Z</time></trkpt><trkpt lat="31.35176111533994" lon="-4.410649142690879"><ele>785.0</ele><time>2026-03-23T09:06:06Z</time></trkpt><trkpt lat="31.351567506619745" lon="-4.4106052440068"><ele>785.0</ele><time>2026-03-23T09:06:07Z</time></trkpt><trkpt lat="31.35137901437533" lon="-4.41056342411177"><ele>785.0</ele><time>2026-03-23T09:06:08Z</time></trkpt><trkpt lat="31.351203072594203" lon="-4.41053160761264"><ele>784.6666666666667</ele><time>2026-03-23T09:06:09Z</time></trkpt><trkpt lat="31.351015438800445" lon="-4.4104678084302344"><ele>784.3333333333333</ele><time>2026-03-23T09:06:10Z</time></trkpt><trkpt lat="31.350817670506245" lon="-4.4104084023522"><ele>784.0</ele><time>2026-03-23T09:06:11Z</time></trkpt><trkpt lat="31.350616862322237" lon="-4.410389668691998"><ele>784.0</ele><time>2026-03-23T09:06:12Z</time></trkpt><trkpt lat="31.350440678253996" lon="-4.410363966676683"><ele>784.0</ele><time>2026-03-23T09:06:13Z</time></trkpt><trkpt lat="31.350284439155885" lon="-4.410343151065025"><ele>784.0</ele><time>2026-03-23T09:06:14Z</time></trkpt><trkpt lat="31.350143518665703" lon="-4.410317036645284"><ele>784.0</ele><time>2026-03-23T09:06:15Z</time></trkpt><trkpt lat="31.350009498550712" lon="-4.410294465945495"><ele>784.0</ele><time>2026-03-23T09:06:16Z</time></trkpt><trkpt lat="31.349881334514247" lon="-4.410290880490617"><ele>784.0</ele><time>2026-03-23T09:06:17Z</time></trkpt><trkpt lat="31.349711716985322" lon="-4.410280262684861"><ele>784.0</ele><time>2026-03-23T09:06:18Z</time></trkpt><trkpt lat="31.34952832536844" lon="-4.410258924542864"><ele>784.0</ele><time>2026-03-23T09:06:19Z</time></trkpt><trkpt lat="31.349306359157254" lon="-4.410232166067352"><ele>784.0</ele><time>2026-03-23T09:06:20Z</time></trkpt><trkpt lat="31.349076582541947" lon="-4.410197133829833"><ele>783.6666666666666</ele><time>2026-03-23T09:06:21Z</time></trkpt><trkpt lat="31.348846760673283" lon="-4.410162094708315"><ele>783.3333333333333</ele><time>2026-03-23T09:06:22Z</time></trkpt><trkpt lat="31.34863335695167" lon="-4.410125193268675"><ele>783.0</ele><time>2026-03-23T09:06:23Z</time></trkpt><trkpt lat="31.348445541660553" lon="-4.410091416546473"><ele>783.0</ele><time>2026-03-23T09:06:24Z</time></trkpt><trkpt lat="31.34825768288576" lon="-4.410056757086434"><ele>783.0</ele><time>2026-03-23T09:06:25Z</time></trkpt><trkpt lat="31.348064839897635" lon="-4.410015529049873"><ele>783.0</ele><time>2026-03-23T09:06:26Z</time></trkpt><trkpt lat="31.34787272014321" lon="-4.409974143188048"><ele>782.3333333333333</ele><time>2026-03-23T09:06:27Z</time></trkpt><trkpt lat="31.347662504089076" lon="-4.409920193071289"><ele>781.6666666666666</ele><time>2026-03-23T09:06:28Z</time></trkpt><trkpt lat="31.347467182158987" lon="-4.4098625321500915"><ele>781.0</ele><time>2026-03-23T09:06:29Z</time></trkpt><trkpt lat="31.34726914866365" lon="-4.40979620549752"><ele>781.0</ele><time>2026-03-23T09:06:30Z</time></trkpt><trkpt lat="31.347097147011254" lon="-4.409737797097722"><ele>781.0</ele><time>2026-03-23T09:06:31Z</time></trkpt><trkpt lat="31.34690721591278" lon="-4.409674395099346"><ele>781.0</ele><time>2026-03-23T09:06:32Z</time></trkpt><trkpt lat="31.34672649709956" lon="-4.4095931688236485"><ele>780.6666666666666</ele><time>2026-03-23T09:06:33Z</time></trkpt><trkpt lat="31.34656588933967" lon="-4.409520815376302"><ele>780.3333333333333</ele><time>2026-03-23T09:06:34Z</time></trkpt><trkpt lat="31.346409299975" lon="-4.409450272180708"><ele>780.0</ele><time>2026-03-23T09:06:35Z</time></trkpt><trkpt lat="31.346240958600603" lon="-4.409371615137052"><ele>779.0</ele><time>2026-03-23T09:06:36Z</time></trkpt><trkpt lat="31.346068515869135" lon="-4.409287349091297"><ele>778.0</ele><time>2026-03-23T09:06:37Z</time></trkpt><trkpt lat="31.345889868864344" lon="-4.409201734609617"><ele>777.0</ele><time>2026-03-23T09:06:38Z</time></trkpt><trkpt lat="31.345702549756993" lon="-4.409127080846919"><ele>777.3333333333333</ele><time>2026-03-23T09:06:39Z</time></trkpt><trkpt lat="31.345497320332107" lon="-4.409045107712154"><ele>777.6666666666666</ele><time>2026-03-23T09:06:40Z</time></trkpt><trkpt lat="31.34530309114551" lon="-4.408956674665831"><ele>778.0</ele><time>2026-03-23T09:06:41Z</time></trkpt><trkpt lat="31.345120151900176" lon="-4.4088951590258745"><ele>778.0</ele><time>2026-03-23T09:06:42Z</time></trkpt><trkpt lat="31.34494893118476" lon="-4.408836036982006"><ele>778.0</ele><time>2026-03-23T09:06:43Z</time></trkpt><trkpt lat="31.34478408966861" lon="-4.408775922926063"><ele>778.0</ele><time>2026-03-23T09:06:44Z</time></trkpt><trkpt lat="31.344646989447014" lon="-4.408707066615241"><ele>777.6666666666666</ele><time>2026-03-23T09:06:45Z</time></trkpt><trkpt lat="31.344509598911227" lon="-4.4086196997654135"><ele>777.3333333333333</ele><time>2026-03-23T09:06:46Z</time></trkpt><trkpt lat="31.344370026684484" lon="-4.4085240943361"><ele>777.0</ele><time>2026-03-23T09:06:47Z</time></trkpt><trkpt lat="31.344249305186853" lon="-4.4084247769556475"><ele>777.0</ele><time>2026-03-23T09:06:48Z</time></trkpt><trkpt lat="31.34414146617959" lon="-4.408323866368035"><ele>777.0</ele><time>2026-03-23T09:06:49Z</time></trkpt><trkpt lat="31.34401121858895" lon="-4.408260793361125"><ele>777.0</ele><time>2026-03-23T09:06:50Z</time></trkpt><trkpt lat="31.343898617168158" lon="-4.408186593266466"><ele>777.0</ele><time>2026-03-23T09:06:51Z</time></trkpt><trkpt lat="31.343785857661917" lon="-4.408166269578446"><ele>777.25</ele><time>2026-03-23T09:06:52Z</time></trkpt><trkpt lat="31.34365617575616" lon="-4.4081464805780595"><ele>777.5</ele><time>2026-03-23T09:06:53Z</time></trkpt><trkpt lat="31.343509172629815" lon="-4.408138984795712"><ele>777.75</ele><time>2026-03-23T09:06:54Z</time></trkpt><trkpt lat="31.34335290135056" lon="-4.408135145518844"><ele>778.0</ele><time>2026-03-23T09:06:55Z</time></trkpt><trkpt lat="31.343198793473874" lon="-4.408126709484748"><ele>778.0</ele><time>2026-03-23T09:06:56Z</time></trkpt><trkpt lat="31.34305431906542" lon="-4.408112046742545"><ele>778.0</ele><time>2026-03-23T09:06:57Z</time></trkpt><trkpt lat="31.342911437216515" lon="-4.408123736132234"><ele>778.0</ele><time>2026-03-23T09:06:58Z</time></trkpt><trkpt lat="31.342759542036585" lon="-4.408143181311826"><ele>778.0</ele><time>2026-03-23T09:06:59Z</time></trkpt><trkpt lat="31.34259628963322" lon="-4.408158708719927"><ele>778.0</ele><time>2026-03-23T09:07:00Z</time></trkpt><trkpt lat="31.342414177473707" lon="-4.4081650616452075"><ele>778.0</ele><time>2026-03-23T09:07:01Z</time></trkpt><trkpt lat="31.342200995527886" lon="-4.408164225903938"><ele>778.0</ele><time>2026-03-23T09:07:02Z</time></trkpt><trkpt lat="31.34200009177486" lon="-4.408154919107089"><ele>778.0</ele><time>2026-03-23T09:07:03Z</time></trkpt><trkpt lat="31.341829713568355" lon="-4.408136047537669"><ele>778.0</ele><time>2026-03-23T09:07:04Z</time></trkpt><trkpt lat="31.34164573148357" lon="-4.4081111671522395"><ele>778.0</ele><time>2026-03-23T09:07:05Z</time></trkpt><trkpt lat="31.3414568881149" lon="-4.408079309289815"><ele>777.3333333333333</ele><time>2026-03-23T09:07:06Z</time></trkpt><trkpt lat="31.341266916616256" lon="-4.408047261104772"><ele>776.6666666666667</ele><time>2026-03-23T09:07:07Z</time></trkpt><trkpt lat="31.341088115380913" lon="-4.4080171979406435"><ele>776.0</ele><time>2026-03-23T09:07:08Z</time></trkpt><trkpt lat="31.340933964774596" lon="-4.407977954339447"><ele>775.6666666666667</ele><time>2026-03-23T09:07:09Z</time></trkpt><trkpt lat="31.340774892746232" lon="-4.407972223515343"><ele>775.3333333333333</ele><time>2026-03-23T09:07:10Z</time></trkpt><trkpt lat="31.34059487246262" lon="-4.407954567981029"><ele>775.0</ele><time>2026-03-23T09:07:11Z</time></trkpt><trkpt lat="31.34042020985515" lon="-4.407924518013064"><ele>774.3333333333333</ele><time>2026-03-23T09:07:12Z</time></trkpt><trkpt lat="31.34022978796366" lon="-4.407897726543747"><ele>773.6666666666667</ele><time>2026-03-23T09:07:13Z</time></trkpt><trkpt lat="31.34005575814222" lon="-4.40787482656256"><ele>773.0</ele><time>2026-03-23T09:07:14Z</time></trkpt><trkpt lat="31.339899552624594" lon="-4.407845256346528"><ele>773.0</ele><time>2026-03-23T09:07:15Z</time></trkpt><trkpt lat="31.339754398511396" lon="-4.407816586490676"><ele>773.0</ele><time>2026-03-23T09:07:16Z</time></trkpt><trkpt lat="31.33960108222873" lon="-4.407787656805812"><ele>773.0</ele><time>2026-03-23T09:07:17Z</time></trkpt><trkpt lat="31.339450203879725" lon="-4.407788249516451"><ele>773.3333333333334</ele><time>2026-03-23T09:07:18Z</time></trkpt><trkpt lat="31.339292392172048" lon="-4.407771176209886"><ele>773.6666666666667</ele><time>2026-03-23T09:07:19Z</time></trkpt><trkpt lat="31.339124611776537" lon="-4.407757705981222"><ele>774.0</ele><time>2026-03-23T09:07:20Z</time></trkpt><trkpt lat="31.33895023507792" lon="-4.407772556631224"><ele>774.6666666666667</ele><time>2026-03-23T09:07:21Z</time></trkpt><trkpt lat="31.33877512849011" lon="-4.407783336134745"><ele>775.3333333333334</ele><time>2026-03-23T09:07:22Z</time></trkpt><trkpt lat="31.338614294990467" lon="-4.407785149032867"><ele>776.0</ele><time>2026-03-23T09:07:23Z</time></trkpt><trkpt lat="31.338446019289883" lon="-4.407785734045471"><ele>776.0</ele><time>2026-03-23T09:07:24Z</time></trkpt><trkpt lat="31.338284434716872" lon="-4.407784003650457"><ele>776.0</ele><time>2026-03-23T09:07:25Z</time></trkpt><trkpt lat="31.338118461061832" lon="-4.407781477307191"><ele>776.0</ele><time>2026-03-23T09:07:26Z</time></trkpt><trkpt lat="31.337947367098916" lon="-4.407782142244734"><ele>775.6666666666667</ele><time>2026-03-23T09:07:27Z</time></trkpt><trkpt lat="31.337781158687932" lon="-4.407782906271687"><ele>775.3333333333333</ele><time>2026-03-23T09:07:28Z</time></trkpt><trkpt lat="31.33762004898569" lon="-4.407809877213581"><ele>775.0</ele><time>2026-03-23T09:07:29Z</time></trkpt><trkpt lat="31.337449584302842" lon="-4.407836627252424"><ele>775.0</ele><time>2026-03-23T09:07:30Z</time></trkpt><trkpt lat="31.3372658746898" lon="-4.407864751555406"><ele>775.0</ele><time>2026-03-23T09:07:31Z</time></trkpt><trkpt lat="31.33709375883747" lon="-4.407876267976291"><ele>775.0</ele><time>2026-03-23T09:07:32Z</time></trkpt><trkpt lat="31.33694300156423" lon="-4.40790240338004"><ele>775.25</ele><time>2026-03-23T09:07:33Z</time></trkpt><trkpt lat="31.336813155889168" lon="-4.407907887324831"><ele>775.5</ele><time>2026-03-23T09:07:34Z</time></trkpt><trkpt lat="31.336675314037617" lon="-4.407908572533772"><ele>775.75</ele><time>2026-03-23T09:07:35Z</time></trkpt><trkpt lat="31.336521345171903" lon="-4.4079232954287235"><ele>776.0</ele><time>2026-03-23T09:07:36Z</time></trkpt><trkpt lat="31.336370473372998" lon="-4.407978017974292"><ele>776.0</ele><time>2026-03-23T09:07:37Z</time></trkpt><trkpt lat="31.336215016216848" lon="-4.408017620772253"><ele>776.0</ele><time>2026-03-23T09:07:38Z</time></trkpt><trkpt lat="31.33605429532529" lon="-4.408045260603312"><ele>776.0</ele><time>2026-03-23T09:07:39Z</time></trkpt><trkpt lat="31.33592390057579" lon="-4.408100160602547"><ele>776.0</ele><time>2026-03-23T09:07:40Z</time></trkpt><trkpt lat="31.33580162431771" lon="-4.408137356395685"><ele>776.0</ele><time>2026-03-23T09:07:41Z</time></trkpt><trkpt lat="31.335673156219222" lon="-4.408174615433537"><ele>776.0</ele><time>2026-03-23T09:07:42Z</time></trkpt><trkpt lat="31.33553601259271" lon="-4.408242948473471"><ele>776.0</ele><time>2026-03-23T09:07:43Z</time></trkpt><trkpt lat="31.335398115670966" lon="-4.408306549623746"><ele>775.75</ele><time>2026-03-23T09:07:44Z</time></trkpt><trkpt lat="31.33524912260715" lon="-4.4083535061331025"><ele>775.5</ele><time>2026-03-23T09:07:45Z</time></trkpt><trkpt lat="31.335129511195447" lon="-4.408411463968313"><ele>775.25</ele><time>2026-03-23T09:07:46Z</time></trkpt><trkpt lat="31.334992938023916" lon="-4.408446734976079"><ele>775.0</ele><time>2026-03-23T09:07:47Z</time></trkpt><trkpt lat="31.334846681537883" lon="-4.408445774494022"><ele>775.0</ele><time>2026-03-23T09:07:48Z</time></trkpt><trkpt lat="31.334725695027593" lon="-4.4084644330616065"><ele>775.0</ele><time>2026-03-23T09:07:49Z</time></trkpt><trkpt lat="31.33461320991876" lon="-4.408473735369262"><ele>775.0</ele><time>2026-03-23T09:07:50Z</time></trkpt><trkpt lat="31.334502792966454" lon="-4.408465793735877"><ele>775.0</ele><time>2026-03-23T09:07:51Z</time></trkpt><trkpt lat="31.3343929281148" lon="-4.408445098485526"><ele>774.6</ele><time>2026-03-23T09:07:52Z</time></trkpt><trkpt lat="31.334308884321" lon="-4.408410393942913"><ele>774.2</ele><time>2026-03-23T09:07:53Z</time></trkpt><trkpt lat="31.334215072842504" lon="-4.408389117629542"><ele>773.8</ele><time>2026-03-23T09:07:54Z</time></trkpt><trkpt lat="31.33411747526842" lon="-4.40836035764797"><ele>773.4</ele><time>2026-03-23T09:07:55Z</time></trkpt><trkpt lat="31.334021719284497" lon="-4.408341558446093"><ele>773.0</ele><time>2026-03-23T09:07:56Z</time></trkpt><trkpt lat="31.33392501319482" lon="-4.408319581129568"><ele>773.75</ele><time>2026-03-23T09:07:57Z</time></trkpt><trkpt lat="31.33383266357404" lon="-4.408332854919901"><ele>774.5</ele><time>2026-03-23T09:07:58Z</time></trkpt><trkpt lat="31.333738220080008" lon="-4.408339369728403"><ele>775.25</ele><time>2026-03-23T09:07:59Z</time></trkpt><trkpt lat="31.333625295473457" lon="-4.408412691226676"><ele>776.0</ele><time>2026-03-23T09:08:00Z</time></trkpt><trkpt lat="31.33348349463019" lon="-4.408487293246436"><ele>776.0</ele><time>2026-03-23T09:08:01Z</time></trkpt><trkpt lat="31.333351987382606" lon="-4.408598661431415"><ele>776.0</ele><time>2026-03-23T09:08:02Z</time></trkpt><trkpt lat="31.333242196659647" lon="-4.40869653182298"><ele>776.0</ele><time>2026-03-23T09:08:03Z</time></trkpt><trkpt lat="31.333113808197176" lon="-4.408792219648592"><ele>776.3333333333334</ele><time>2026-03-23T09:08:04Z</time></trkpt><trkpt lat="31.332949842698653" lon="-4.40889811175049"><ele>776.6666666666667</ele><time>2026-03-23T09:08:05Z</time></trkpt><trkpt lat="31.332784939494513" lon="-4.408964090200926"><ele>777.0</ele><time>2026-03-23T09:08:06Z</time></trkpt><trkpt lat="31.3326152009005" lon="-4.409029316208632"><ele>777.0</ele><time>2026-03-23T09:08:07Z</time></trkpt><trkpt lat="31.332445852232468" lon="-4.409088330323529"><ele>777.0</ele><time>2026-03-23T09:08:08Z</time></trkpt><trkpt lat="31.332230576834014" lon="-4.4091595279713935"><ele>777.0</ele><time>2026-03-23T09:08:09Z</time></trkpt><trkpt lat="31.33201225363576" lon="-4.4091998320203425"><ele>776.6666666666667</ele><time>2026-03-23T09:08:10Z</time></trkpt><trkpt lat="31.331770372486787" lon="-4.409236767980993"><ele>776.3333333333334</ele><time>2026-03-23T09:08:11Z</time></trkpt><trkpt lat="31.331567114036925" lon="-4.4092591240296395"><ele>776.0</ele><time>2026-03-23T09:08:12Z</time></trkpt><trkpt lat="31.331364905005202" lon="-4.409281364670199"><ele>776.0</ele><time>2026-03-23T09:08:13Z</time></trkpt><trkpt lat="31.331155165635373" lon="-4.409303909851131"><ele>776.0</ele><time>2026-03-23T09:08:14Z</time></trkpt><trkpt lat="31.33095501954378" lon="-4.409322945742957"><ele>776.0</ele><time>2026-03-23T09:08:15Z</time></trkpt><trkpt lat="31.33077242606871" lon="-4.4093403335557095"><ele>776.0</ele><time>2026-03-23T09:08:16Z</time></trkpt><trkpt lat="31.3305737643136" lon="-4.4093597071839525"><ele>776.0</ele><time>2026-03-23T09:08:17Z</time></trkpt><trkpt lat="31.33039686415824" lon="-4.4093774475096374"><ele>776.0</ele><time>2026-03-23T09:08:18Z</time></trkpt><trkpt lat="31.33020892541992" lon="-4.409419147932125"><ele>776.0</ele><time>2026-03-23T09:08:19Z</time></trkpt><trkpt lat="31.330026027408493" lon="-4.409459728850261"><ele>776.0</ele><time>2026-03-23T09:08:20Z</time></trkpt><trkpt lat="31.32983888654683" lon="-4.409500418679023"><ele>776.0</ele><time>2026-03-23T09:08:21Z</time></trkpt><trkpt lat="31.32966592128429" lon="-4.40953796906032"><ele>775.6666666666667</ele><time>2026-03-23T09:08:22Z</time></trkpt><trkpt lat="31.329507944974065" lon="-4.40957229349167"><ele>775.3333333333333</ele><time>2026-03-23T09:08:23Z</time></trkpt><trkpt lat="31.329330097644757" lon="-4.409597798866012"><ele>775.0</ele><time>2026-03-23T09:08:24Z</time></trkpt><trkpt lat="31.329158597622552" lon="-4.4095961703050905"><ele>775.0</ele><time>2026-03-23T09:08:25Z</time></trkpt><trkpt lat="31.328974253587" lon="-4.409593848317583"><ele>775.0</ele><time>2026-03-23T09:08:26Z</time></trkpt><trkpt lat="31.32878753269885" lon="-4.409591596734603"><ele>775.0</ele><time>2026-03-23T09:08:27Z</time></trkpt><trkpt lat="31.328594149034338" lon="-4.409589407087256"><ele>775.0</ele><time>2026-03-23T09:08:28Z</time></trkpt><trkpt lat="31.32840544112501" lon="-4.409593796460462"><ele>775.0</ele><time>2026-03-23T09:08:29Z</time></trkpt><trkpt lat="31.328229456729915" lon="-4.409600215765686"><ele>775.0</ele><time>2026-03-23T09:08:30Z</time></trkpt><trkpt lat="31.328039515277354" lon="-4.40960680599965"><ele>775.0</ele><time>2026-03-23T09:08:31Z</time></trkpt><trkpt lat="31.327846183555454" lon="-4.409613215510795"><ele>775.0</ele><time>2026-03-23T09:08:32Z</time></trkpt><trkpt lat="31.32763814971042" lon="-4.409620085999642"><ele>775.0</ele><time>2026-03-23T09:08:33Z</time></trkpt><trkpt lat="31.327419955129763" lon="-4.409627390951773"><ele>774.6666666666666</ele><time>2026-03-23T09:08:34Z</time></trkpt><trkpt lat="31.327206498610614" lon="-4.409626630502698"><ele>774.3333333333333</ele><time>2026-03-23T09:08:35Z</time></trkpt><trkpt lat="31.327008689794823" lon="-4.40962339112812"><ele>774.0</ele><time>2026-03-23T09:08:36Z</time></trkpt><trkpt lat="31.326804962175814" lon="-4.409620054820872"><ele>774.0</ele><time>2026-03-23T09:08:37Z</time></trkpt><trkpt lat="31.326592090720023" lon="-4.409616992721394"><ele>774.0</ele><time>2026-03-23T09:08:38Z</time></trkpt><trkpt lat="31.326381574856196" lon="-4.409613567793521"><ele>774.0</ele><time>2026-03-23T09:08:39Z</time></trkpt><trkpt lat="31.326179515640487" lon="-4.409610023660644"><ele>774.0</ele><time>2026-03-23T09:08:40Z</time></trkpt><trkpt lat="31.325984344228665" lon="-4.409607022073994"><ele>774.0</ele><time>2026-03-23T09:08:41Z</time></trkpt><trkpt lat="31.32580118141347" lon="-4.409614300878073"><ele>774.0</ele><time>2026-03-23T09:08:42Z</time></trkpt><trkpt lat="31.325627239077438" lon="-4.409624788281309"><ele>774.3333333333333</ele><time>2026-03-23T09:08:43Z</time></trkpt><trkpt lat="31.32547057385257" lon="-4.4096344073476725"><ele>774.6666666666666</ele><time>2026-03-23T09:08:44Z</time></trkpt><trkpt lat="31.325305954589727" lon="-4.40964547052229"><ele>775.0</ele><time>2026-03-23T09:08:45Z</time></trkpt><trkpt lat="31.325129747001146" lon="-4.409656126111337"><ele>774.6666666666666</ele><time>2026-03-23T09:08:46Z</time></trkpt><trkpt lat="31.32496148273381" lon="-4.409666302307211"><ele>774.3333333333333</ele><time>2026-03-23T09:08:47Z</time></trkpt><trkpt lat="31.324796955813504" lon="-4.409679379009213"><ele>774.0</ele><time>2026-03-23T09:08:48Z</time></trkpt><trkpt lat="31.324628766036163" lon="-4.409696623270268"><ele>774.0</ele><time>2026-03-23T09:08:49Z</time></trkpt><trkpt lat="31.324468598975006" lon="-4.409715326651007"><ele>774.0</ele><time>2026-03-23T09:08:50Z</time></trkpt><trkpt lat="31.324285736912472" lon="-4.4097578447555446"><ele>774.0</ele><time>2026-03-23T09:08:51Z</time></trkpt><trkpt lat="31.32409942547799" lon="-4.40980116478449"><ele>774.0</ele><time>2026-03-23T09:08:52Z</time></trkpt><trkpt lat="31.323910418478494" lon="-4.409873385202343"><ele>774.0</ele><time>2026-03-23T09:08:53Z</time></trkpt><trkpt lat="31.32372584093421" lon="-4.40994107630511"><ele>774.0</ele><time>2026-03-23T09:08:54Z</time></trkpt><trkpt lat="31.323546631426087" lon="-4.41000679865089"><ele>773.6666666666667</ele><time>2026-03-23T09:08:55Z</time></trkpt><trkpt lat="31.32339394568369" lon="-4.410063580858986"><ele>773.3333333333334</ele><time>2026-03-23T09:08:56Z</time></trkpt><trkpt lat="31.32324002326439" lon="-4.410123050836687"><ele>773.0</ele><time>2026-03-23T09:08:57Z</time></trkpt><trkpt lat="31.323114305917542" lon="-4.410172138731067"><ele>773.0</ele><time>2026-03-23T09:08:58Z</time></trkpt><trkpt lat="31.322993960243938" lon="-4.410219479686979"><ele>773.0</ele><time>2026-03-23T09:08:59Z</time></trkpt><trkpt lat="31.322874045796922" lon="-4.410266650744697"><ele>773.0</ele><time>2026-03-23T09:09:00Z</time></trkpt><trkpt lat="31.32274212516794" lon="-4.410299140167229"><ele>773.0</ele><time>2026-03-23T09:09:01Z</time></trkpt><trkpt lat="31.322617730326286" lon="-4.410333223087083"><ele>773.0</ele><time>2026-03-23T09:09:02Z</time></trkpt><trkpt lat="31.32248107907597" lon="-4.410371196434936"><ele>773.0</ele><time>2026-03-23T09:09:03Z</time></trkpt><trkpt lat="31.322337445869778" lon="-4.410410346585039"><ele>773.0</ele><time>2026-03-23T09:09:04Z</time></trkpt><trkpt lat="31.322188209224098" lon="-4.410432312656507"><ele>773.0</ele><time>2026-03-23T09:09:05Z</time></trkpt><trkpt lat="31.322028973405846" lon="-4.41045131130159"><ele>773.0</ele><time>2026-03-23T09:09:06Z</time></trkpt><trkpt lat="31.32186217177686" lon="-4.41046876973165"><ele>773.0</ele><time>2026-03-23T09:09:07Z</time></trkpt><trkpt lat="31.321702932668142" lon="-4.410485883487792"><ele>773.0</ele><time>2026-03-23T09:09:08Z</time></trkpt><trkpt lat="31.32154371289664" lon="-4.410506607245953"><ele>772.3333333333334</ele><time>2026-03-23T09:09:09Z</time></trkpt><trkpt lat="31.321374504404375" lon="-4.410528988850066"><ele>771.6666666666667</ele><time>2026-03-23T09:09:10Z</time></trkpt><trkpt lat="31.32118144893406" lon="-4.410555016065637"><ele>771.0</ele><time>2026-03-23T09:09:11Z</time></trkpt><trkpt lat="31.32099314649338" lon="-4.41058633380522"><ele>771.0</ele><time>2026-03-23T09:09:12Z</time></trkpt><trkpt lat="31.32084894806297" lon="-4.4105900919904615"><ele>771.0</ele><time>2026-03-23T09:09:13Z</time></trkpt><trkpt lat="31.320709985837922" lon="-4.410593193410385"><ele>771.0</ele><time>2026-03-23T09:09:14Z</time></trkpt><trkpt lat="31.320579192248093" lon="-4.410595805696553"><ele>771.0</ele><time>2026-03-23T09:09:15Z</time></trkpt><trkpt lat="31.320452801133584" lon="-4.41060644612314"><ele>771.0</ele><time>2026-03-23T09:09:16Z</time></trkpt><trkpt lat="31.32031412248144" lon="-4.41061764956165"><ele>771.0</ele><time>2026-03-23T09:09:17Z</time></trkpt><trkpt lat="31.32016034249724" lon="-4.410630072988561"><ele>771.0</ele><time>2026-03-23T09:09:18Z</time></trkpt><trkpt lat="31.31999898567338" lon="-4.410643136260366"><ele>771.0</ele><time>2026-03-23T09:09:19Z</time></trkpt><trkpt lat="31.31983675842745" lon="-4.410637276920298"><ele>771.0</ele><time>2026-03-23T09:09:20Z</time></trkpt><trkpt lat="31.319650676740046" lon="-4.410606596892652"><ele>771.0</ele><time>2026-03-23T09:09:21Z</time></trkpt><trkpt lat="31.3194445246942" lon="-4.410572607790088"><ele>771.5</ele><time>2026-03-23T09:09:22Z</time></trkpt><trkpt lat="31.319198700193827" lon="-4.4105421385747245"><ele>772.0</ele><time>2026-03-23T09:09:23Z</time></trkpt><trkpt lat="31.318970007694944" lon="-4.410540400203765"><ele>771.5</ele><time>2026-03-23T09:09:24Z</time></trkpt><trkpt lat="31.318737405648374" lon="-4.4105390369632"><ele>771.0</ele><time>2026-03-23T09:09:25Z</time></trkpt><trkpt lat="31.318519771914243" lon="-4.410537897300656"><ele>771.0</ele><time>2026-03-23T09:09:26Z</time></trkpt><trkpt lat="31.318330309548088" lon="-4.410538255587049"><ele>771.0</ele><time>2026-03-23T09:09:27Z</time></trkpt><trkpt lat="31.31816378692663" lon="-4.41054096046481"><ele>771.0</ele><time>2026-03-23T09:09:28Z</time></trkpt><trkpt lat="31.318009434040167" lon="-4.410543467665006"><ele>771.3333333333333</ele><time>2026-03-23T09:09:29Z</time></trkpt><trkpt lat="31.317852916879094" lon="-4.410546010022232"><ele>771.6666666666666</ele><time>2026-03-23T09:09:30Z</time></trkpt><trkpt lat="31.31767677130276" lon="-4.410567776952344"><ele>772.0</ele><time>2026-03-23T09:09:31Z</time></trkpt><trkpt lat="31.317508777158228" lon="-4.410605357089522"><ele>772.0</ele><time>2026-03-23T09:09:32Z</time></trkpt><trkpt lat="31.317324259060268" lon="-4.410646633587956"><ele>772.0</ele><time>2026-03-23T09:09:33Z</time></trkpt><trkpt lat="31.317130684353486" lon="-4.410689936081517"><ele>772.0</ele><time>2026-03-23T09:09:34Z</time></trkpt><trkpt lat="31.31693764271899" lon="-4.410733873708953"><ele>771.6666666666666</ele><time>2026-03-23T09:09:35Z</time></trkpt><trkpt lat="31.316745568129313" lon="-4.4107819946597075"><ele>771.3333333333333</ele><time>2026-03-23T09:09:36Z</time></trkpt><trkpt lat="31.316558550825008" lon="-4.410829621184127"><ele>771.0</ele><time>2026-03-23T09:09:37Z</time></trkpt><trkpt lat="31.31638704145075" lon="-4.410873298385001"><ele>771.0</ele><time>2026-03-23T09:09:38Z</time></trkpt><trkpt lat="31.31622795713758" lon="-4.41090837120745"><ele>771.0</ele><time>2026-03-23T09:09:39Z</time></trkpt><trkpt lat="31.316060733418162" lon="-4.4109285934712865"><ele>771.0</ele><time>2026-03-23T09:09:40Z</time></trkpt><trkpt lat="31.315905346874285" lon="-4.410945463668204"><ele>771.0</ele><time>2026-03-23T09:09:41Z</time></trkpt><trkpt lat="31.315753047366396" lon="-4.41094893149939"><ele>771.0</ele><time>2026-03-23T09:09:42Z</time></trkpt><trkpt lat="31.31560472244361" lon="-4.410953607632373"><ele>771.0</ele><time>2026-03-23T09:09:43Z</time></trkpt><trkpt lat="31.315453020657813" lon="-4.410959041579846"><ele>771.0</ele><time>2026-03-23T09:09:44Z</time></trkpt><trkpt lat="31.31529398680287" lon="-4.410910869344037"><ele>771.0</ele><time>2026-03-23T09:09:45Z</time></trkpt><trkpt lat="31.315141841967563" lon="-4.410896066956088"><ele>771.0</ele><time>2026-03-23T09:09:46Z</time></trkpt><trkpt lat="31.314999443586913" lon="-4.410849702942253"><ele>771.0</ele><time>2026-03-23T09:09:47Z</time></trkpt><trkpt lat="31.314849133333716" lon="-4.410839447386043"><ele>771.0</ele><time>2026-03-23T09:09:48Z</time></trkpt><trkpt lat="31.314694484573064" lon="-4.41081708122433"><ele>771.0</ele><time>2026-03-23T09:09:49Z</time></trkpt><trkpt lat="31.314531637439494" lon="-4.410793529366121"><ele>770.3333333333333</ele><time>2026-03-23T09:09:50Z</time></trkpt><trkpt lat="31.314375977315795" lon="-4.410771016927202"><ele>769.6666666666666</ele><time>2026-03-23T09:09:51Z</time></trkpt><trkpt lat="31.31422813491063" lon="-4.410746118985397"><ele>769.0</ele><time>2026-03-23T09:09:52Z</time></trkpt><trkpt lat="31.314077590100194" lon="-4.410713973474803"><ele>769.0</ele><time>2026-03-23T09:09:53Z</time></trkpt><trkpt lat="31.313919160350405" lon="-4.4106801443111605"><ele>769.0</ele><time>2026-03-23T09:09:54Z</time></trkpt><trkpt lat="31.31374213197363" lon="-4.41059285886983"><ele>769.0</ele><time>2026-03-23T09:09:55Z</time></trkpt><trkpt lat="31.313581377538394" lon="-4.410500663402058"><ele>768.3333333333333</ele><time>2026-03-23T09:09:56Z</time></trkpt><trkpt lat="31.3134499767671" lon="-4.410362380765797"><ele>767.6666666666666</ele><time>2026-03-23T09:09:57Z</time></trkpt><trkpt lat="31.31330249726498" lon="-4.410230723447641"><ele>767.0</ele><time>2026-03-23T09:09:58Z</time></trkpt><trkpt lat="31.313140234168987" lon="-4.410096993585446"><ele>767.5</ele><time>2026-03-23T09:09:59Z</time></trkpt><trkpt lat="31.31285566193722" lon="-4.409980871752886"><ele>768.0</ele><time>2026-03-23T09:10:00Z</time></trkpt><trkpt lat="31.312676599860925" lon="-4.409963728419549"><ele>768.0</ele><time>2026-03-23T09:10:01Z</time></trkpt><trkpt lat="31.31252047293908" lon="-4.409956779470667"><ele>768.0</ele><time>2026-03-23T09:10:02Z</time></trkpt><trkpt lat="31.312338589468183" lon="-4.409910728910233"><ele>768.0</ele><time>2026-03-23T09:10:03Z</time></trkpt><trkpt lat="31.31215630657446" lon="-4.4098645771531535"><ele>768.3333333333333</ele><time>2026-03-23T09:10:04Z</time></trkpt><trkpt lat="31.31197336594384" lon="-4.409818258843785"><ele>768.6666666666666</ele><time>2026-03-23T09:10:05Z</time></trkpt><trkpt lat="31.311789486607434" lon="-4.409740912477426"><ele>769.0</ele><time>2026-03-23T09:10:06Z</time></trkpt><trkpt lat="31.3116073879218" lon="-4.409675902618008"><ele>769.0</ele><time>2026-03-23T09:10:07Z</time></trkpt><trkpt lat="31.311431211052124" lon="-4.409593465684114"><ele>769.0</ele><time>2026-03-23T09:10:08Z</time></trkpt><trkpt lat="31.311275671690584" lon="-4.409521737065554"><ele>769.0</ele><time>2026-03-23T09:10:09Z</time></trkpt><trkpt lat="31.311130426465436" lon="-4.40945475562413"><ele>769.0</ele><time>2026-03-23T09:10:10Z</time></trkpt><trkpt lat="31.310986587049175" lon="-4.409387407710749"><ele>769.0</ele><time>2026-03-23T09:10:11Z</time></trkpt><trkpt lat="31.310845484351123" lon="-4.40932490385186"><ele>769.0</ele><time>2026-03-23T09:10:12Z</time></trkpt><trkpt lat="31.310688135263945" lon="-4.409258057147853"><ele>768.6666666666666</ele><time>2026-03-23T09:10:13Z</time></trkpt><trkpt lat="31.31052583470732" lon="-4.409188905595868"><ele>768.3333333333333</ele><time>2026-03-23T09:10:14Z</time></trkpt><trkpt lat="31.310363483504617" lon="-4.409118893770952"><ele>768.0</ele><time>2026-03-23T09:10:15Z</time></trkpt><trkpt lat="31.31020758133935" lon="-4.409045007624312"><ele>768.0</ele><time>2026-03-23T09:10:16Z</time></trkpt><trkpt lat="31.310050922978885" lon="-4.408971920948985"><ele>768.0</ele><time>2026-03-23T09:10:17Z</time></trkpt><trkpt lat="31.30989750414135" lon="-4.408900264070097"><ele>768.0</ele><time>2026-03-23T09:10:18Z</time></trkpt><trkpt lat="31.30975642383573" lon="-4.408813325394086"><ele>767.6666666666666</ele><time>2026-03-23T09:10:19Z</time></trkpt><trkpt lat="31.30958753326194" lon="-4.4087530270554245"><ele>767.3333333333333</ele><time>2026-03-23T09:10:20Z</time></trkpt><trkpt lat="31.30939436321609" lon="-4.408691042000045"><ele>767.0</ele><time>2026-03-23T09:10:21Z</time></trkpt><trkpt lat="31.309211854124133" lon="-4.408643853330979"><ele>767.0</ele><time>2026-03-23T09:10:22Z</time></trkpt><trkpt lat="31.30904129406047" lon="-4.408604870921086"><ele>767.0</ele><time>2026-03-23T09:10:23Z</time></trkpt><trkpt lat="31.308863008252814" lon="-4.408568970303103"><ele>767.0</ele><time>2026-03-23T09:10:24Z</time></trkpt><trkpt lat="31.308678517035755" lon="-4.4085619880389295"><ele>767.0</ele><time>2026-03-23T09:10:25Z</time></trkpt><trkpt lat="31.308502621393274" lon="-4.408547111481311"><ele>767.0</ele><time>2026-03-23T09:10:26Z</time></trkpt><trkpt lat="31.308329104233906" lon="-4.408532565428774"><ele>767.0</ele><time>2026-03-23T09:10:27Z</time></trkpt><trkpt lat="31.30815068066068" lon="-4.408517755004799"><ele>767.0</ele><time>2026-03-23T09:10:28Z</time></trkpt><trkpt lat="31.307991262023645" lon="-4.408504340734841"><ele>767.0</ele><time>2026-03-23T09:10:29Z</time></trkpt><trkpt lat="31.307835432085998" lon="-4.408495955031566"><ele>767.0</ele><time>2026-03-23T09:10:30Z</time></trkpt><trkpt lat="31.30768874047549" lon="-4.40849214018102"><ele>767.0</ele><time>2026-03-23T09:10:31Z</time></trkpt><trkpt lat="31.3075519455479" lon="-4.408488678953232"><ele>767.0</ele><time>2026-03-23T09:10:32Z</time></trkpt><trkpt lat="31.30740215220567" lon="-4.408484419054591"><ele>767.0</ele><time>2026-03-23T09:10:33Z</time></trkpt><trkpt lat="31.30722933822684" lon="-4.408470517788853"><ele>767.0</ele><time>2026-03-23T09:10:34Z</time></trkpt><trkpt lat="31.30704747876157" lon="-4.40848358764047"><ele>767.0</ele><time>2026-03-23T09:10:35Z</time></trkpt><trkpt lat="31.30688565727256" lon="-4.408518048388119"><ele>767.0</ele><time>2026-03-23T09:10:36Z</time></trkpt><trkpt lat="31.306722189594844" lon="-4.408539342263968"><ele>767.0</ele><time>2026-03-23T09:10:37Z</time></trkpt><trkpt lat="31.30657070509723" lon="-4.408534613936437"><ele>767.0</ele><time>2026-03-23T09:10:38Z</time></trkpt><trkpt lat="31.306443552339985" lon="-4.408525441751931"><ele>767.0</ele><time>2026-03-23T09:10:39Z</time></trkpt><trkpt lat="31.306336347054764" lon="-4.408504883058103"><ele>767.0</ele><time>2026-03-23T09:10:40Z</time></trkpt><trkpt lat="31.306223989873725" lon="-4.408504826335663"><ele>767.0</ele><time>2026-03-23T09:10:41Z</time></trkpt><trkpt lat="31.306086735684815" lon="-4.408476938680053"><ele>767.0</ele><time>2026-03-23T09:10:42Z</time></trkpt><trkpt lat="31.305946860971567" lon="-4.408466823624927"><ele>767.0</ele><time>2026-03-23T09:10:43Z</time></trkpt><trkpt lat="31.3058179815228" lon="-4.408463416995352"><ele>767.0</ele><time>2026-03-23T09:10:44Z</time></trkpt><trkpt lat="31.305696969727045" lon="-4.408470201611201"><ele>767.0</ele><time>2026-03-23T09:10:45Z</time></trkpt><trkpt lat="31.305569080975648" lon="-4.408456981857552"><ele>767.0</ele><time>2026-03-23T09:10:46Z</time></trkpt><trkpt lat="31.30544171088488" lon="-4.408451983270872"><ele>767.0</ele><time>2026-03-23T09:10:47Z</time></trkpt><trkpt lat="31.305334019070763" lon="-4.40844944640498"><ele>767.0</ele><time>2026-03-23T09:10:48Z</time></trkpt><trkpt lat="31.305233912074026" lon="-4.408448279036277"><ele>767.0</ele><time>2026-03-23T09:10:49Z</time></trkpt><trkpt lat="31.305125622527683" lon="-4.408444080311997"><ele>767.0</ele><time>2026-03-23T09:10:50Z</time></trkpt><trkpt lat="31.305010185440885" lon="-4.408455099615095"><ele>767.0</ele><time>2026-03-23T09:10:51Z</time></trkpt><trkpt lat="31.304898443999246" lon="-4.408451783991188"><ele>767.0</ele><time>2026-03-23T09:10:52Z</time></trkpt><trkpt lat="31.30478356194809" lon="-4.408448321255668"><ele>767.25</ele><time>2026-03-23T09:10:53Z</time></trkpt><trkpt lat="31.30466241944446" lon="-4.408444373439081"><ele>767.5</ele><time>2026-03-23T09:10:54Z</time></trkpt><trkpt lat="31.304518384314377" lon="-4.4084396795925995"><ele>767.75</ele><time>2026-03-23T09:10:55Z</time></trkpt><trkpt lat="31.304349308038944" lon="-4.408417300422719"><ele>768.0</ele><time>2026-03-23T09:10:56Z</time></trkpt><trkpt lat="31.304151019562806" lon="-4.408414464245148"><ele>768.0</ele><time>2026-03-23T09:10:57Z</time></trkpt><trkpt lat="31.30395224452337" lon="-4.408394748461406"><ele>768.0</ele><time>2026-03-23T09:10:58Z</time></trkpt><trkpt lat="31.30376379680471" lon="-4.408356054262374"><ele>768.0</ele><time>2026-03-23T09:10:59Z</time></trkpt><trkpt lat="31.303607243477142" lon="-4.4083018056281364"><ele>768.0</ele><time>2026-03-23T09:11:00Z</time></trkpt><trkpt lat="31.30344567137161" lon="-4.408228451613031"><ele>768.0</ele><time>2026-03-23T09:11:01Z</time></trkpt><trkpt lat="31.303278353162796" lon="-4.40813849531265"><ele>768.0</ele><time>2026-03-23T09:11:02Z</time></trkpt><trkpt lat="31.303106001791573" lon="-4.408035651010301"><ele>768.3333333333333</ele><time>2026-03-23T09:11:03Z</time></trkpt><trkpt lat="31.30293455984208" lon="-4.40792868851707"><ele>768.6666666666666</ele><time>2026-03-23T09:11:04Z</time></trkpt><trkpt lat="31.302767893877714" lon="-4.407848703316966"><ele>769.0</ele><time>2026-03-23T09:11:05Z</time></trkpt><trkpt lat="31.302629233565693" lon="-4.4077408835198515"><ele>769.0</ele><time>2026-03-23T09:11:06Z</time></trkpt><trkpt lat="31.30249786897504" lon="-4.407663839050517"><ele>769.0</ele><time>2026-03-23T09:11:07Z</time></trkpt><trkpt lat="31.30239834852943" lon="-4.4076102729327635"><ele>769.0</ele><time>2026-03-23T09:11:08Z</time></trkpt><trkpt lat="31.30230866176521" lon="-4.407568813738077"><ele>769.0</ele><time>2026-03-23T09:11:09Z</time></trkpt><trkpt lat="31.30221503123203" lon="-4.40756209703337"><ele>769.0</ele><time>2026-03-23T09:11:10Z</time></trkpt><trkpt lat="31.30212743721692" lon="-4.4075213899131835"><ele>768.9999999999999</ele><time>2026-03-23T09:11:11Z</time></trkpt><trkpt lat="31.302057651573" lon="-4.407510098611648"><ele>769.0</ele><time>2026-03-23T09:11:12Z</time></trkpt><trkpt lat="31.301970794141234" lon="-4.407484859779072"><ele>769.0</ele><time>2026-03-23T09:11:13Z</time></trkpt><trkpt lat="31.301890611675663" lon="-4.407465981638069"><ele>769.0</ele><time>2026-03-23T09:11:14Z</time></trkpt><trkpt lat="31.3018041426892" lon="-4.4074447315467715"><ele>768.9999999999999</ele><time>2026-03-23T09:11:15Z</time></trkpt><trkpt lat="31.30171464809051" lon="-4.407420242253651"><ele>769.0</ele><time>2026-03-23T09:11:16Z</time></trkpt><trkpt lat="31.301618340848275" lon="-4.407398016125919"><ele>769.0</ele><time>2026-03-23T09:11:17Z</time></trkpt><trkpt lat="31.30151361421525" lon="-4.407355169081587"><ele>769.0</ele><time>2026-03-23T09:11:18Z</time></trkpt><trkpt lat="31.301413821038285" lon="-4.407324414663498"><ele>769.0</ele><time>2026-03-23T09:11:19Z</time></trkpt><trkpt lat="31.301311381315543" lon="-4.407292230643387"><ele>769.0</ele><time>2026-03-23T09:11:20Z</time></trkpt><trkpt lat="31.30120168177524" lon="-4.407279359412086"><ele>769.0</ele><time>2026-03-23T09:11:21Z</time></trkpt><trkpt lat="31.301100756351637" lon="-4.4072511652685105"><ele>768.8000000000001</ele><time>2026-03-23T09:11:22Z</time></trkpt><trkpt lat="31.30099481400256" lon="-4.407221569636583"><ele>768.6</ele><time>2026-03-23T09:11:23Z</time></trkpt><trkpt lat="31.30088963204184" lon="-4.407162971187074"><ele>768.4</ele><time>2026-03-23T09:11:24Z</time></trkpt><trkpt lat="31.300786012396262" lon="-4.40710879838341"><ele>768.2</ele><time>2026-03-23T09:11:25Z</time></trkpt><trkpt lat="31.300688395925203" lon="-4.407049900382667"><ele>768.0</ele><time>2026-03-23T09:11:26Z</time></trkpt><trkpt lat="31.300570277123303" lon="-4.406979197079348"><ele>769.0</ele><time>2026-03-23T09:11:27Z</time></trkpt><trkpt lat="31.30043673600021" lon="-4.406914835619744"><ele>770.0</ele><time>2026-03-23T09:11:28Z</time></trkpt><trkpt lat="31.300309312998525" lon="-4.40682173375015"><ele>771.0</ele><time>2026-03-23T09:11:29Z</time></trkpt><trkpt lat="31.300167679861758" lon="-4.406736262381155"><ele>771.0</ele><time>2026-03-23T09:11:30Z</time></trkpt><trkpt lat="31.30005035445101" lon="-4.406665565853386"><ele>771.0</ele><time>2026-03-23T09:11:31Z</time></trkpt><trkpt lat="31.29993711833804" lon="-4.406597332791064"><ele>771.0</ele><time>2026-03-23T09:11:32Z</time></trkpt><trkpt lat="31.299813501820942" lon="-4.4065228447733"><ele>771.0</ele><time>2026-03-23T09:11:33Z</time></trkpt><trkpt lat="31.2996554883442" lon="-4.406402160235941"><ele>771.3333333333333</ele><time>2026-03-23T09:11:34Z</time></trkpt><trkpt lat="31.29965508718234" lon="-4.406091480471416"><ele>771.6666666666666</ele><time>2026-03-23T09:11:35Z</time></trkpt><trkpt lat="31.299544831425774" lon="-4.405954792421427"><ele>772.0</ele><time>2026-03-23T09:11:36Z</time></trkpt><trkpt lat="31.299449605146464" lon="-4.405815287227301"><ele>772.0</ele><time>2026-03-23T09:11:37Z</time></trkpt><trkpt lat="31.29937911165269" lon="-4.4056819339545035"><ele>772.0</ele><time>2026-03-23T09:11:38Z</time></trkpt><trkpt lat="31.299284371452647" lon="-4.405587553830038"><ele>772.0</ele><time>2026-03-23T09:11:39Z</time></trkpt><trkpt lat="31.299244541819295" lon="-4.405466678283483"><ele>772.0</ele><time>2026-03-23T09:11:40Z</time></trkpt><trkpt lat="31.299208699361074" lon="-4.405347267572621"><ele>772.8</ele><time>2026-03-23T09:11:41Z</time></trkpt><trkpt lat="31.299182680637298" lon="-4.405212864945496"><ele>773.6</ele><time>2026-03-23T09:11:42Z</time></trkpt><trkpt lat="31.29914286829177" lon="-4.405086953538394"><ele>774.4</ele><time>2026-03-23T09:11:43Z</time></trkpt><trkpt lat="31.29911405815386" lon="-4.4049812437263505"><ele>775.1999999999999</ele><time>2026-03-23T09:11:44Z</time></trkpt><trkpt lat="31.29908628551708" lon="-4.404893403565021"><ele>776.0</ele><time>2026-03-23T09:11:45Z</time></trkpt><trkpt lat="31.299058325100404" lon="-4.404813713466758"><ele>776.0</ele><time>2026-03-23T09:11:46Z</time></trkpt><trkpt lat="31.299005474469304" lon="-4.4046690760623255"><ele>776.0</ele><time>2026-03-23T09:11:48Z</time></trkpt><trkpt lat="31.29897700594076" lon="-4.404573859100665"><ele>776.0</ele><time>2026-03-23T09:11:49Z</time></trkpt><trkpt lat="31.298947912366707" lon="-4.404476550829559"><ele>776.0</ele><time>2026-03-23T09:11:50Z</time></trkpt><trkpt lat="31.298847614071654" lon="-4.404398395960049"><ele>776.0</ele><time>2026-03-23T09:11:51Z</time></trkpt><trkpt lat="31.29875418894396" lon="-4.404321904526601"><ele>776.25</ele><time>2026-03-23T09:11:52Z</time></trkpt><trkpt lat="31.298650166815364" lon="-4.404219097555498"><ele>776.5</ele><time>2026-03-23T09:11:53Z</time></trkpt><trkpt lat="31.29858081248516" lon="-4.404094341880365"><ele>776.75</ele><time>2026-03-23T09:11:54Z</time></trkpt><trkpt lat="31.29851007114665" lon="-4.4039670914372175"><ele>777.0</ele><time>2026-03-23T09:11:55Z</time></trkpt><trkpt lat="31.29843616747892" lon="-4.403834152567021"><ele>777.5</ele><time>2026-03-23T09:11:56Z</time></trkpt><trkpt lat="31.298362436804734" lon="-4.403701524878461"><ele>778.0</ele><time>2026-03-23T09:11:57Z</time></trkpt><trkpt lat="31.29828947345039" lon="-4.403570277047567"><ele>778.5</ele><time>2026-03-23T09:11:58Z</time></trkpt><trkpt lat="31.298249331322527" lon="-4.403413035555135"><ele>779.0</ele><time>2026-03-23T09:11:59Z</time></trkpt><trkpt lat="31.298199724484444" lon="-4.403262136231982"><ele>779.0</ele><time>2026-03-23T09:12:00Z</time></trkpt><trkpt lat="31.298139806140274" lon="-4.403116116138744"><ele>779.0</ele><time>2026-03-23T09:12:01Z</time></trkpt><trkpt lat="31.298091778382876" lon="-4.402976317803098"><ele>779.0</ele><time>2026-03-23T09:12:02Z</time></trkpt><trkpt lat="31.298045873528036" lon="-4.40284269874403"><ele>779.0</ele><time>2026-03-23T09:12:03Z</time></trkpt><trkpt lat="31.298009033354962" lon="-4.402735464980806"><ele>780.3333333333334</ele><time>2026-03-23T09:12:04Z</time></trkpt><trkpt lat="31.298146440613834" lon="-4.402513166282659"><ele>781.6666666666667</ele><time>2026-03-23T09:12:05Z</time></trkpt><trkpt lat="31.298155396298792" lon="-4.402335180430893"><ele>783.0</ele><time>2026-03-23T09:12:06Z</time></trkpt><trkpt lat="31.298164987737092" lon="-4.40217833715371"><ele>783.5</ele><time>2026-03-23T09:12:07Z</time></trkpt><trkpt lat="31.29819098335394" lon="-4.402025381432352"><ele>784.0</ele><time>2026-03-23T09:12:08Z</time></trkpt><trkpt lat="31.298232441692946" lon="-4.4018792940240035"><ele>784.5</ele><time>2026-03-23T09:12:09Z</time></trkpt><trkpt lat="31.29828517074552" lon="-4.401775305448971"><ele>785.0</ele><time>2026-03-23T09:12:10Z</time></trkpt><trkpt lat="31.298316115490778" lon="-4.401664885264552"><ele>785.0</ele><time>2026-03-23T09:12:11Z</time></trkpt><trkpt lat="31.298330929561917" lon="-4.40157609578106"><ele>785.0</ele><time>2026-03-23T09:12:12Z</time></trkpt><trkpt lat="31.29833219410985" lon="-4.401465856758603"><ele>785.0</ele><time>2026-03-23T09:12:13Z</time></trkpt><trkpt lat="31.2983574258802" lon="-4.401344234906004"><ele>785.0</ele><time>2026-03-23T09:12:14Z</time></trkpt><trkpt lat="31.2984065954921" lon="-4.401236761718953"><ele>785.0</ele><time>2026-03-23T09:12:15Z</time></trkpt><trkpt lat="31.298453846202197" lon="-4.401119813242562"><ele>784.8</ele><time>2026-03-23T09:12:16Z</time></trkpt><trkpt lat="31.298504348623787" lon="-4.40100779384774"><ele>784.6</ele><time>2026-03-23T09:12:17Z</time></trkpt><trkpt lat="31.29855924278796" lon="-4.400902811647156"><ele>784.4000000000001</ele><time>2026-03-23T09:12:18Z</time></trkpt><trkpt lat="31.298626084529722" lon="-4.4008065477054075"><ele>784.2</ele><time>2026-03-23T09:12:19Z</time></trkpt><trkpt lat="31.298688335797195" lon="-4.400720533847999"><ele>784.0</ele><time>2026-03-23T09:12:20Z</time></trkpt><trkpt lat="31.298740145576275" lon="-4.400663826659767"><ele>783.9999999999999</ele><time>2026-03-23T09:12:21Z</time></trkpt><trkpt lat="31.298785409551474" lon="-4.4006109660276245"><ele>784.0</ele><time>2026-03-23T09:12:23Z</time></trkpt><trkpt lat="31.29884342990641" lon="-4.400567520983074"><ele>784.0</ele><time>2026-03-23T09:12:25Z</time></trkpt><trkpt lat="31.29888916472586" lon="-4.400643442685629"><ele>784.0</ele><time>2026-03-23T09:12:47Z</time></trkpt><trkpt lat="31.298839828386587" lon="-4.400714513379936"><ele>783.9999999999999</ele><time>2026-03-23T09:12:48Z</time></trkpt><trkpt lat="31.29874306142921" lon="-4.400760696812811"><ele>784.0</ele><time>2026-03-23T09:12:49Z</time></trkpt><trkpt lat="31.298657336661975" lon="-4.400775610522338"><ele>784.0</ele><time>2026-03-23T09:12:50Z</time></trkpt><trkpt lat="31.298565956579573" lon="-4.400855698297493"><ele>784.0</ele><time>2026-03-23T09:12:52Z</time></trkpt><trkpt lat="31.29852092452083" lon="-4.400951649273249"><ele>784.0</ele><time>2026-03-23T09:12:53Z</time></trkpt><trkpt lat="31.298482170670297" lon="-4.401032877003428"><ele>784.0</ele><time>2026-03-23T09:12:54Z</time></trkpt><trkpt lat="31.298434301941317" lon="-4.401125136356253"><ele>784.0</ele><time>2026-03-23T09:12:55Z</time></trkpt><trkpt lat="31.298385199548257" lon="-4.401231127483043"><ele>783.9999999999999</ele><time>2026-03-23T09:12:56Z</time></trkpt><trkpt lat="31.298350623292666" lon="-4.401331092758348"><ele>784.0</ele><time>2026-03-23T09:12:57Z</time></trkpt><trkpt lat="31.29831872440317" lon="-4.401403534087588"><ele>784.0</ele><time>2026-03-23T09:12:58Z</time></trkpt><trkpt lat="31.298271334016626" lon="-4.401486309928708"><ele>784.0</ele><time>2026-03-23T09:12:59Z</time></trkpt><trkpt lat="31.29820354177187" lon="-4.401577803491972"><ele>783.9999999999999</ele><time>2026-03-23T09:13:00Z</time></trkpt><trkpt lat="31.29814377048229" lon="-4.401627826595657"><ele>784.0</ele><time>2026-03-23T09:13:01Z</time></trkpt><trkpt lat="31.298074317086193" lon="-4.4016614223673844"><ele>783.4000000000001</ele><time>2026-03-23T09:13:02Z</time></trkpt><trkpt lat="31.297981474205816" lon="-4.401692003893627"><ele>782.8</ele><time>2026-03-23T09:13:03Z</time></trkpt><trkpt lat="31.297883599714933" lon="-4.401722532900321"><ele>782.2</ele><time>2026-03-23T09:13:04Z</time></trkpt><trkpt lat="31.297804051794994" lon="-4.401742250191906"><ele>781.5999999999999</ele><time>2026-03-23T09:13:05Z</time></trkpt><trkpt lat="31.297709421146017" lon="-4.401764761491444"><ele>781.0</ele><time>2026-03-23T09:13:06Z</time></trkpt><trkpt lat="31.29763040263387" lon="-4.401788655634221"><ele>781.0</ele><time>2026-03-23T09:13:07Z</time></trkpt><trkpt lat="31.297552518826993" lon="-4.40182805386212"><ele>781.0</ele><time>2026-03-23T09:13:08Z</time></trkpt><trkpt lat="31.297467374757446" lon="-4.401873112340773"><ele>781.0</ele><time>2026-03-23T09:13:09Z</time></trkpt><trkpt lat="31.297379961057977" lon="-4.401900068984362"><ele>781.0</ele><time>2026-03-23T09:13:10Z</time></trkpt><trkpt lat="31.297273964766074" lon="-4.401912288613481"><ele>781.0</ele><time>2026-03-23T09:13:11Z</time></trkpt><trkpt lat="31.29716636169077" lon="-4.40192664710511"><ele>780.5</ele><time>2026-03-23T09:13:12Z</time></trkpt><trkpt lat="31.29705152983405" lon="-4.4019461844562615"><ele>780.0</ele><time>2026-03-23T09:13:13Z</time></trkpt><trkpt lat="31.29691916652163" lon="-4.4019603068549955"><ele>779.5</ele><time>2026-03-23T09:13:14Z</time></trkpt><trkpt lat="31.296755552867673" lon="-4.401968785978061"><ele>779.0</ele><time>2026-03-23T09:13:15Z</time></trkpt><trkpt lat="31.296580656190358" lon="-4.401972025852929"><ele>778.0</ele><time>2026-03-23T09:13:16Z</time></trkpt><trkpt lat="31.29638023563961" lon="-4.401963387831823"><ele>777.0</ele><time>2026-03-23T09:13:17Z</time></trkpt><trkpt lat="31.296204653802704" lon="-4.4019287583219375"><ele>776.0</ele><time>2026-03-23T09:13:18Z</time></trkpt><trkpt lat="31.296049934727975" lon="-4.40190441293084"><ele>776.0</ele><time>2026-03-23T09:13:19Z</time></trkpt><trkpt lat="31.29590155502975" lon="-4.4018989432247855"><ele>776.0</ele><time>2026-03-23T09:13:20Z</time></trkpt><trkpt lat="31.295753462223033" lon="-4.401905562020239"><ele>776.0</ele><time>2026-03-23T09:13:21Z</time></trkpt><trkpt lat="31.29560099758703" lon="-4.401913816690398"><ele>776.0</ele><time>2026-03-23T09:13:22Z</time></trkpt><trkpt lat="31.295443507085473" lon="-4.401927113894494"><ele>775.3333333333334</ele><time>2026-03-23T09:13:23Z</time></trkpt><trkpt lat="31.29528382477817" lon="-4.401951979816916"><ele>774.6666666666667</ele><time>2026-03-23T09:13:24Z</time></trkpt><trkpt lat="31.295122877065115" lon="-4.401976490202197"><ele>774.0</ele><time>2026-03-23T09:13:25Z</time></trkpt><trkpt lat="31.29497506600793" lon="-4.401990880897764"><ele>774.0</ele><time>2026-03-23T09:13:26Z</time></trkpt><trkpt lat="31.29482815723465" lon="-4.402017006908922"><ele>774.0</ele><time>2026-03-23T09:13:27Z</time></trkpt><trkpt lat="31.294676524097486" lon="-4.402057665441924"><ele>774.0</ele><time>2026-03-23T09:13:28Z</time></trkpt><trkpt lat="31.294523997636052" lon="-4.40210612283651"><ele>773.6666666666667</ele><time>2026-03-23T09:13:29Z</time></trkpt><trkpt lat="31.29437795875476" lon="-4.4021423454921"><ele>773.3333333333334</ele><time>2026-03-23T09:13:30Z</time></trkpt><trkpt lat="31.294233070004672" lon="-4.402174470893891"><ele>773.0</ele><time>2026-03-23T09:13:31Z</time></trkpt><trkpt lat="31.294076887024218" lon="-4.4022046040601825"><ele>772.3333333333334</ele><time>2026-03-23T09:13:32Z</time></trkpt><trkpt lat="31.293920914355667" lon="-4.402242080585545"><ele>771.6666666666667</ele><time>2026-03-23T09:13:33Z</time></trkpt><trkpt lat="31.29376579515973" lon="-4.40227982673224"><ele>771.0</ele><time>2026-03-23T09:13:34Z</time></trkpt><trkpt lat="31.293615395976417" lon="-4.402316452531208"><ele>771.0</ele><time>2026-03-23T09:13:35Z</time></trkpt><trkpt lat="31.29345717383576" lon="-4.402353216486159"><ele>771.0</ele><time>2026-03-23T09:13:36Z</time></trkpt><trkpt lat="31.29330349244506" lon="-4.40239285540623"><ele>771.0</ele><time>2026-03-23T09:13:37Z</time></trkpt><trkpt lat="31.29314971553597" lon="-4.402439145757904"><ele>770.6666666666667</ele><time>2026-03-23T09:13:38Z</time></trkpt><trkpt lat="31.292990456765974" lon="-4.402484351488226"><ele>770.3333333333334</ele><time>2026-03-23T09:13:39Z</time></trkpt><trkpt lat="31.292829503617625" lon="-4.402520707971351"><ele>770.0</ele><time>2026-03-23T09:13:40Z</time></trkpt><trkpt lat="31.29266519521563" lon="-4.402545347941198"><ele>770.0</ele><time>2026-03-23T09:13:41Z</time></trkpt><trkpt lat="31.292506074468825" lon="-4.402559368255879"><ele>770.0</ele><time>2026-03-23T09:13:42Z</time></trkpt><trkpt lat="31.292341720946173" lon="-4.402570800694027"><ele>770.0</ele><time>2026-03-23T09:13:43Z</time></trkpt><trkpt lat="31.29218880088703" lon="-4.4026199260844"><ele>769.6666666666667</ele><time>2026-03-23T09:13:44Z</time></trkpt><trkpt lat="31.292033228239685" lon="-4.4026523529279356"><ele>769.3333333333333</ele><time>2026-03-23T09:13:45Z</time></trkpt><trkpt lat="31.291884852781873" lon="-4.402683279553872"><ele>769.0</ele><time>2026-03-23T09:13:46Z</time></trkpt><trkpt lat="31.291735862054786" lon="-4.402715348101151"><ele>769.0</ele><time>2026-03-23T09:13:47Z</time></trkpt><trkpt lat="31.29158412535842" lon="-4.402747736219629"><ele>769.0</ele><time>2026-03-23T09:13:48Z</time></trkpt><trkpt lat="31.291431465293222" lon="-4.402776781260198"><ele>769.0</ele><time>2026-03-23T09:13:49Z</time></trkpt><trkpt lat="31.291281989405782" lon="-4.402805220460308"><ele>769.25</ele><time>2026-03-23T09:13:50Z</time></trkpt><trkpt lat="31.291121631090753" lon="-4.402832777511183"><ele>769.5</ele><time>2026-03-23T09:13:51Z</time></trkpt><trkpt lat="31.290981278664752" lon="-4.40285533489682"><ele>769.75</ele><time>2026-03-23T09:13:52Z</time></trkpt><trkpt lat="31.290843984233216" lon="-4.402877122020873"><ele>770.0</ele><time>2026-03-23T09:13:53Z</time></trkpt><trkpt lat="31.290703605631343" lon="-4.4029030864669165"><ele>769.3333333333334</ele><time>2026-03-23T09:13:54Z</time></trkpt><trkpt lat="31.290550682176747" lon="-4.4029339017583835"><ele>768.6666666666667</ele><time>2026-03-23T09:13:55Z</time></trkpt><trkpt lat="31.290403340578987" lon="-4.402967019583157"><ele>768.0</ele><time>2026-03-23T09:13:56Z</time></trkpt><trkpt lat="31.290220549371025" lon="-4.402849342789671"><ele>768.0</ele><time>2026-03-23T09:13:57Z</time></trkpt><trkpt lat="31.290066592347635" lon="-4.402882334923156"><ele>768.0</ele><time>2026-03-23T09:13:58Z</time></trkpt><trkpt lat="31.28989450532744" lon="-4.402923179516424"><ele>768.0</ele><time>2026-03-23T09:13:59Z</time></trkpt><trkpt lat="31.289739256447138" lon="-4.402961147221676"><ele>768.0</ele><time>2026-03-23T09:14:00Z</time></trkpt><trkpt lat="31.289580083360512" lon="-4.402997633575354"><ele>768.0</ele><time>2026-03-23T09:14:01Z</time></trkpt><trkpt lat="31.289415303493485" lon="-4.403033385333518"><ele>768.0</ele><time>2026-03-23T09:14:02Z</time></trkpt><trkpt lat="31.289243458204158" lon="-4.40307834363109"><ele>768.0</ele><time>2026-03-23T09:14:03Z</time></trkpt><trkpt lat="31.289091132586645" lon="-4.403128780923603"><ele>768.0</ele><time>2026-03-23T09:14:04Z</time></trkpt><trkpt lat="31.288935885324932" lon="-4.403178296794194"><ele>768.0</ele><time>2026-03-23T09:14:05Z</time></trkpt><trkpt lat="31.288785340099242" lon="-4.4032246688723236"><ele>767.6666666666666</ele><time>2026-03-23T09:14:06Z</time></trkpt><trkpt lat="31.28862791117512" lon="-4.403265024758984"><ele>767.3333333333333</ele><time>2026-03-23T09:14:07Z</time></trkpt><trkpt lat="31.2884723004665" lon="-4.403303092143113"><ele>767.0</ele><time>2026-03-23T09:14:08Z</time></trkpt><trkpt lat="31.288321662618166" lon="-4.403343443796964"><ele>767.0</ele><time>2026-03-23T09:14:09Z</time></trkpt><trkpt lat="31.288166469700702" lon="-4.403384292917581"><ele>767.0</ele><time>2026-03-23T09:14:10Z</time></trkpt><trkpt lat="31.288006899431945" lon="-4.403429924973698"><ele>767.0</ele><time>2026-03-23T09:14:11Z</time></trkpt><trkpt lat="31.287830562184624" lon="-4.403483823049906"><ele>766.6666666666666</ele><time>2026-03-23T09:14:12Z</time></trkpt><trkpt lat="31.287667143117854" lon="-4.403570962937582"><ele>766.3333333333334</ele><time>2026-03-23T09:14:13Z</time></trkpt><trkpt lat="31.287506142112466" lon="-4.403643413422318"><ele>766.0</ele><time>2026-03-23T09:14:14Z</time></trkpt><trkpt lat="31.28735064921746" lon="-4.403713385268552"><ele>765.6666666666667</ele><time>2026-03-23T09:14:15Z</time></trkpt><trkpt lat="31.287187901347735" lon="-4.403786621774789"><ele>765.3333333333334</ele><time>2026-03-23T09:14:16Z</time></trkpt><trkpt lat="31.287028170690906" lon="-4.403858320872143"><ele>765.0</ele><time>2026-03-23T09:14:17Z</time></trkpt><trkpt lat="31.286874484312964" lon="-4.403927261971808"><ele>764.6666666666666</ele><time>2026-03-23T09:14:18Z</time></trkpt><trkpt lat="31.286720905371656" lon="-4.40398963703469"><ele>764.3333333333333</ele><time>2026-03-23T09:14:19Z</time></trkpt><trkpt lat="31.286568785450164" lon="-4.404046391147625"><ele>764.0</ele><time>2026-03-23T09:14:20Z</time></trkpt><trkpt lat="31.286407131256777" lon="-4.4040962539141475"><ele>764.6666666666666</ele><time>2026-03-23T09:14:21Z</time></trkpt><trkpt lat="31.286230659558377" lon="-4.404138255431587"><ele>765.3333333333334</ele><time>2026-03-23T09:14:22Z</time></trkpt><trkpt lat="31.28604115543905" lon="-4.404211885879285"><ele>766.0</ele><time>2026-03-23T09:14:23Z</time></trkpt><trkpt lat="31.285842481882046" lon="-4.404251619499611"><ele>766.0</ele><time>2026-03-23T09:14:24Z</time></trkpt><trkpt lat="31.28565349556624" lon="-4.404283696884003"><ele>766.0</ele><time>2026-03-23T09:14:25Z</time></trkpt><trkpt lat="31.285484816589324" lon="-4.404320657962546"><ele>766.0</ele><time>2026-03-23T09:14:26Z</time></trkpt><trkpt lat="31.285304411237192" lon="-4.404352209738812"><ele>766.0</ele><time>2026-03-23T09:14:27Z</time></trkpt><trkpt lat="31.28511920165468" lon="-4.404377816762364"><ele>766.0</ele><time>2026-03-23T09:14:28Z</time></trkpt><trkpt lat="31.284920821543306" lon="-4.404413390768245"><ele>766.0</ele><time>2026-03-23T09:14:29Z</time></trkpt><trkpt lat="31.28473772925929" lon="-4.404424281320255"><ele>765.6666666666667</ele><time>2026-03-23T09:14:30Z</time></trkpt><trkpt lat="31.28454787474404" lon="-4.404418502728002"><ele>765.3333333333334</ele><time>2026-03-23T09:14:31Z</time></trkpt><trkpt lat="31.284363581336162" lon="-4.404447067821107"><ele>765.0</ele><time>2026-03-23T09:14:32Z</time></trkpt><trkpt lat="31.284186812957415" lon="-4.40446536524283"><ele>765.0</ele><time>2026-03-23T09:14:33Z</time></trkpt><trkpt lat="31.284005754678553" lon="-4.404490409322073"><ele>765.0</ele><time>2026-03-23T09:14:34Z</time></trkpt><trkpt lat="31.283828032453773" lon="-4.404522026321441"><ele>765.0</ele><time>2026-03-23T09:14:35Z</time></trkpt><trkpt lat="31.283642840612593" lon="-4.404555258926919"><ele>764.6666666666666</ele><time>2026-03-23T09:14:36Z</time></trkpt><trkpt lat="31.28346892166513" lon="-4.404610758951667"><ele>764.3333333333333</ele><time>2026-03-23T09:14:37Z</time></trkpt><trkpt lat="31.283296303298624" lon="-4.40464601149094"><ele>764.0</ele><time>2026-03-23T09:14:38Z</time></trkpt><trkpt lat="31.28312690329693" lon="-4.404656895646685"><ele>764.3333333333333</ele><time>2026-03-23T09:14:39Z</time></trkpt><trkpt lat="31.28296946136387" lon="-4.40468977410757"><ele>764.6666666666666</ele><time>2026-03-23T09:14:40Z</time></trkpt><trkpt lat="31.282811696487045" lon="-4.404717044846569"><ele>765.0</ele><time>2026-03-23T09:14:41Z</time></trkpt><trkpt lat="31.28265469511964" lon="-4.404741577154331"><ele>765.0</ele><time>2026-03-23T09:14:42Z</time></trkpt><trkpt lat="31.28250116674617" lon="-4.404770422471062"><ele>765.0</ele><time>2026-03-23T09:14:43Z</time></trkpt><trkpt lat="31.282337574101767" lon="-4.404805575616526"><ele>765.0</ele><time>2026-03-23T09:14:44Z</time></trkpt><trkpt lat="31.28216795287118" lon="-4.404842018269067"><ele>765.0</ele><time>2026-03-23T09:14:45Z</time></trkpt><trkpt lat="31.281980753287947" lon="-4.404888379641508"><ele>765.0</ele><time>2026-03-23T09:14:46Z</time></trkpt><trkpt lat="31.281784817069543" lon="-4.404934898740807"><ele>765.0</ele><time>2026-03-23T09:14:47Z</time></trkpt><trkpt lat="31.28160965329267" lon="-4.404985266799785"><ele>765.0</ele><time>2026-03-23T09:14:48Z</time></trkpt><trkpt lat="31.281458883342204" lon="-4.405066209148244"><ele>765.0</ele><time>2026-03-23T09:14:49Z</time></trkpt><trkpt lat="31.28132044539293" lon="-4.405133593983963"><ele>765.0</ele><time>2026-03-23T09:14:50Z</time></trkpt><trkpt lat="31.281192995526276" lon="-4.405196182643362"><ele>764.6666666666666</ele><time>2026-03-23T09:14:51Z</time></trkpt><trkpt lat="31.28104215946556" lon="-4.405272243831887"><ele>764.3333333333333</ele><time>2026-03-23T09:14:52Z</time></trkpt><trkpt lat="31.280940198964668" lon="-4.40538549831535"><ele>764.0</ele><time>2026-03-23T09:14:53Z</time></trkpt><trkpt lat="31.280666737498446" lon="-4.405338321988838"><ele>764.3333333333333</ele><time>2026-03-23T09:14:54Z</time></trkpt><trkpt lat="31.28048659817497" lon="-4.405330895457606"><ele>764.6666666666666</ele><time>2026-03-23T09:14:55Z</time></trkpt><trkpt lat="31.28030359596255" lon="-4.405323843606889"><ele>765.0</ele><time>2026-03-23T09:14:56Z</time></trkpt><trkpt lat="31.28014206861504" lon="-4.405299417349453"><ele>765.0</ele><time>2026-03-23T09:14:57Z</time></trkpt><trkpt lat="31.279969222423215" lon="-4.405297860640675"><ele>765.0</ele><time>2026-03-23T09:14:58Z</time></trkpt><trkpt lat="31.279799700482787" lon="-4.405319347123045"><ele>765.0</ele><time>2026-03-23T09:14:59Z</time></trkpt><trkpt lat="31.279601360427307" lon="-4.405307440538637"><ele>764.3333333333334</ele><time>2026-03-23T09:15:00Z</time></trkpt><trkpt lat="31.27944314310059" lon="-4.405349495532156"><ele>763.6666666666667</ele><time>2026-03-23T09:15:01Z</time></trkpt><trkpt lat="31.279276116761302" lon="-4.405374006638125"><ele>763.0</ele><time>2026-03-23T09:15:02Z</time></trkpt><trkpt lat="31.27911851618381" lon="-4.4054021259902525"><ele>763.0</ele><time>2026-03-23T09:15:03Z</time></trkpt><trkpt lat="31.27895655161729" lon="-4.405450084905522"><ele>763.0</ele><time>2026-03-23T09:15:04Z</time></trkpt><trkpt lat="31.278820230734134" lon="-4.4054904573277005"><ele>763.0</ele><time>2026-03-23T09:15:05Z</time></trkpt><trkpt lat="31.278684035289135" lon="-4.405530792593082"><ele>763.0</ele><time>2026-03-23T09:15:06Z</time></trkpt><trkpt lat="31.278538479307173" lon="-4.405573577131229"><ele>763.0</ele><time>2026-03-23T09:15:07Z</time></trkpt><trkpt lat="31.278370418741087" lon="-4.4056319173079155"><ele>763.0</ele><time>2026-03-23T09:15:08Z</time></trkpt><trkpt lat="31.278186134528468" lon="-4.405700314073697"><ele>763.0</ele><time>2026-03-23T09:15:09Z</time></trkpt><trkpt lat="31.278037415046764" lon="-4.405732843754552"><ele>763.0</ele><time>2026-03-23T09:15:10Z</time></trkpt><trkpt lat="31.277883413461204" lon="-4.405729193255579"><ele>763.0</ele><time>2026-03-23T09:15:11Z</time></trkpt><trkpt lat="31.277737071668522" lon="-4.405711006728147"><ele>763.0</ele><time>2026-03-23T09:15:12Z</time></trkpt><trkpt lat="31.277588278317463" lon="-4.405693118549355"><ele>763.0</ele><time>2026-03-23T09:15:13Z</time></trkpt><trkpt lat="31.277441585580657" lon="-4.405704544985907"><ele>763.0</ele><time>2026-03-23T09:15:14Z</time></trkpt><trkpt lat="31.277291820178526" lon="-4.405758454244026"><ele>763.0</ele><time>2026-03-23T09:15:15Z</time></trkpt><trkpt lat="31.277108455990394" lon="-4.405783114300062"><ele>763.0</ele><time>2026-03-23T09:15:16Z</time></trkpt><trkpt lat="31.27693215755205" lon="-4.4057788292636575"><ele>763.0</ele><time>2026-03-23T09:15:17Z</time></trkpt><trkpt lat="31.276778811237886" lon="-4.405749970731369"><ele>763.0</ele><time>2026-03-23T09:15:18Z</time></trkpt><trkpt lat="31.27665099535439" lon="-4.405718164835423"><ele>763.0</ele><time>2026-03-23T09:15:19Z</time></trkpt><trkpt lat="31.276542306036912" lon="-4.405565949143636"><ele>763.0</ele><time>2026-03-23T09:15:20Z</time></trkpt><trkpt lat="31.27641403642645" lon="-4.405483007594116"><ele>763.0</ele><time>2026-03-23T09:15:21Z</time></trkpt><trkpt lat="31.276285944722865" lon="-4.405380970572649"><ele>764.0</ele><time>2026-03-23T09:15:22Z</time></trkpt><trkpt lat="31.276159691779725" lon="-4.4052716634725995"><ele>765.0</ele><time>2026-03-23T09:15:23Z</time></trkpt><trkpt lat="31.27604314357594" lon="-4.405153856260973"><ele>766.0</ele><time>2026-03-23T09:15:24Z</time></trkpt><trkpt lat="31.27592489774391" lon="-4.405042976938557"><ele>766.0</ele><time>2026-03-23T09:15:25Z</time></trkpt><trkpt lat="31.275794651195334" lon="-4.4049496563579815"><ele>766.0</ele><time>2026-03-23T09:15:26Z</time></trkpt><trkpt lat="31.275671938407008" lon="-4.404841916830704"><ele>766.0</ele><time>2026-03-23T09:15:27Z</time></trkpt><trkpt lat="31.275553755769128" lon="-4.404748224437626"><ele>766.0</ele><time>2026-03-23T09:15:28Z</time></trkpt><trkpt lat="31.275426391845485" lon="-4.4046572296639575"><ele>765.25</ele><time>2026-03-23T09:15:29Z</time></trkpt><trkpt lat="31.275299047013505" lon="-4.404566734612806"><ele>764.5</ele><time>2026-03-23T09:15:30Z</time></trkpt><trkpt lat="31.275174789213796" lon="-4.404478515774627"><ele>763.75</ele><time>2026-03-23T09:15:31Z</time></trkpt><trkpt lat="31.27505408528284" lon="-4.404392781003297"><ele>763.0</ele><time>2026-03-23T09:15:32Z</time></trkpt><trkpt lat="31.274921824552873" lon="-4.4043300418661255"><ele>763.0</ele><time>2026-03-23T09:15:33Z</time></trkpt><trkpt lat="31.274795981902557" lon="-4.404248173639007"><ele>763.0</ele><time>2026-03-23T09:15:34Z</time></trkpt><trkpt lat="31.274681358014583" lon="-4.404173601642526"><ele>763.0</ele><time>2026-03-23T09:15:35Z</time></trkpt><trkpt lat="31.27456858349993" lon="-4.404116714539064"><ele>763.0</ele><time>2026-03-23T09:15:36Z</time></trkpt><trkpt lat="31.274455205482937" lon="-4.404053307860987"><ele>762.75</ele><time>2026-03-23T09:15:37Z</time></trkpt><trkpt lat="31.274333545367224" lon="-4.403985223354577"><ele>762.5</ele><time>2026-03-23T09:15:38Z</time></trkpt><trkpt lat="31.274212342712733" lon="-4.403917796705964"><ele>762.25</ele><time>2026-03-23T09:15:39Z</time></trkpt><trkpt lat="31.274093852929834" lon="-4.403830931156051"><ele>762.0</ele><time>2026-03-23T09:15:40Z</time></trkpt><trkpt lat="31.273961657924175" lon="-4.403768542426091"><ele>762.25</ele><time>2026-03-23T09:15:41Z</time></trkpt><trkpt lat="31.273835345137496" lon="-4.403692849590733"><ele>762.5</ele><time>2026-03-23T09:15:42Z</time></trkpt><trkpt lat="31.273705693498353" lon="-4.403620382992111"><ele>762.75</ele><time>2026-03-23T09:15:43Z</time></trkpt><trkpt lat="31.273577123271505" lon="-4.403552335699046"><ele>763.0</ele><time>2026-03-23T09:15:44Z</time></trkpt><trkpt lat="31.27345307561634" lon="-4.403484282620837"><ele>763.0</ele><time>2026-03-23T09:15:45Z</time></trkpt><trkpt lat="31.27332684710392" lon="-4.403405302982257"><ele>763.0</ele><time>2026-03-23T09:15:46Z</time></trkpt><trkpt lat="31.27320578661721" lon="-4.4033466616382"><ele>763.0</ele><time>2026-03-23T09:15:47Z</time></trkpt><trkpt lat="31.27309649765574" lon="-4.40328021685032"><ele>763.0</ele><time>2026-03-23T09:15:48Z</time></trkpt><trkpt lat="31.272968955326547" lon="-4.403234165443016"><ele>763.3333333333334</ele><time>2026-03-23T09:15:49Z</time></trkpt><trkpt lat="31.272835823382838" lon="-4.403189601806756"><ele>763.6666666666666</ele><time>2026-03-23T09:15:50Z</time></trkpt><trkpt lat="31.272678869084434" lon="-4.403137064043374"><ele>764.0</ele><time>2026-03-23T09:15:51Z</time></trkpt><trkpt lat="31.27250125124395" lon="-4.403076412790557"><ele>764.0</ele><time>2026-03-23T09:15:52Z</time></trkpt><trkpt lat="31.27230622878934" lon="-4.4030080679453025"><ele>764.0</ele><time>2026-03-23T09:15:53Z</time></trkpt><trkpt lat="31.27210541876446" lon="-4.402959077125092"><ele>764.0</ele><time>2026-03-23T09:15:54Z</time></trkpt><trkpt lat="31.271914664364683" lon="-4.4029273670998545"><ele>764.0</ele><time>2026-03-23T09:15:55Z</time></trkpt><trkpt lat="31.271736868409743" lon="-4.402902904492198"><ele>764.0</ele><time>2026-03-23T09:15:56Z</time></trkpt><trkpt lat="31.27155523631656" lon="-4.402884441929132"><ele>764.0</ele><time>2026-03-23T09:15:57Z</time></trkpt><trkpt lat="31.27139455741912" lon="-4.402872177849108"><ele>764.0</ele><time>2026-03-23T09:15:58Z</time></trkpt><trkpt lat="31.271254965810325" lon="-4.402834033598219"><ele>764.0</ele><time>2026-03-23T09:15:59Z</time></trkpt><trkpt lat="31.271122568405072" lon="-4.402796581347522"><ele>764.0</ele><time>2026-03-23T09:16:00Z</time></trkpt><trkpt lat="31.270984581826795" lon="-4.40279633349728"><ele>764.0</ele><time>2026-03-23T09:16:01Z</time></trkpt><trkpt lat="31.270862230200034" lon="-4.402780985966045"><ele>764.0</ele><time>2026-03-23T09:16:02Z</time></trkpt><trkpt lat="31.270763181666844" lon="-4.402787653161307"><ele>764.0</ele><time>2026-03-23T09:16:03Z</time></trkpt><trkpt lat="31.27065841382323" lon="-4.402793084398119"><ele>764.0</ele><time>2026-03-23T09:16:04Z</time></trkpt><trkpt lat="31.270555824955306" lon="-4.402827402063165"><ele>764.0</ele><time>2026-03-23T09:16:05Z</time></trkpt><trkpt lat="31.270459300891815" lon="-4.402856900408581"><ele>764.0</ele><time>2026-03-23T09:16:06Z</time></trkpt><trkpt lat="31.270394397324218" lon="-4.402902832756511"><ele>764.4000000000001</ele><time>2026-03-23T09:16:07Z</time></trkpt><trkpt lat="31.27032416846116" lon="-4.4029597186874385"><ele>764.8</ele><time>2026-03-23T09:16:09Z</time></trkpt><trkpt lat="31.27025334639395" lon="-4.403018424416871"><ele>765.2</ele><time>2026-03-23T09:16:11Z</time></trkpt><trkpt lat="31.270178064507082" lon="-4.403080828068766"><ele>765.5999999999999</ele><time>2026-03-23T09:16:12Z</time></trkpt><trkpt lat="31.27004738482308" lon="-4.403100719590065"><ele>766.0</ele><time>2026-03-23T09:16:13Z</time></trkpt><trkpt lat="31.26992322134652" lon="-4.403135031427462"><ele>766.5999999999999</ele><time>2026-03-23T09:16:14Z</time></trkpt><trkpt lat="31.269769988781213" lon="-4.403146320542866"><ele>767.2</ele><time>2026-03-23T09:16:15Z</time></trkpt><trkpt lat="31.2696408719252" lon="-4.40315131776533"><ele>767.8</ele><time>2026-03-23T09:16:16Z</time></trkpt><trkpt lat="31.26955899332366" lon="-4.403122881682052"><ele>768.4000000000001</ele><time>2026-03-23T09:16:17Z</time></trkpt><trkpt lat="31.269484695592094" lon="-4.4031112219634805"><ele>769.0</ele><time>2026-03-23T09:16:18Z</time></trkpt><trkpt lat="31.26941887800467" lon="-4.403001163144216"><ele>769.4000000000001</ele><time>2026-03-23T09:16:19Z</time></trkpt><trkpt lat="31.269399776359567" lon="-4.402875066392229"><ele>769.8</ele><time>2026-03-23T09:16:20Z</time></trkpt><trkpt lat="31.26940796441376" lon="-4.402749144561791"><ele>770.2</ele><time>2026-03-23T09:16:21Z</time></trkpt><trkpt lat="31.26938893953175" lon="-4.402658750194889"><ele>770.5999999999999</ele><time>2026-03-23T09:16:22Z</time></trkpt><trkpt lat="31.26937466432777" lon="-4.402546925449044"><ele>771.0</ele><time>2026-03-23T09:16:23Z</time></trkpt><trkpt lat="31.26932564010269" lon="-4.4024594395861785"><ele>771.0</ele><time>2026-03-23T09:16:24Z</time></trkpt><trkpt lat="31.269260675465368" lon="-4.4023975619969375"><ele>771.0</ele><time>2026-03-23T09:16:25Z</time></trkpt><trkpt lat="31.269184011922704" lon="-4.402314932973432"><ele>771.0</ele><time>2026-03-23T09:16:26Z</time></trkpt><trkpt lat="31.269092721850015" lon="-4.402212536096155"><ele>771.0</ele><time>2026-03-23T09:16:27Z</time></trkpt><trkpt lat="31.268996599812127" lon="-4.402095034055069"><ele>771.3333333333333</ele><time>2026-03-23T09:16:28Z</time></trkpt><trkpt lat="31.2688871554932" lon="-4.401966958178798"><ele>771.6666666666666</ele><time>2026-03-23T09:16:29Z</time></trkpt><trkpt lat="31.26877676743603" lon="-4.401835364972381"><ele>772.0</ele><time>2026-03-23T09:16:30Z</time></trkpt><trkpt lat="31.268656659068466" lon="-4.401692829729147"><ele>772.0</ele><time>2026-03-23T09:16:31Z</time></trkpt><trkpt lat="31.268512424712764" lon="-4.401569090912112"><ele>772.0</ele><time>2026-03-23T09:16:32Z</time></trkpt><trkpt lat="31.268396887694557" lon="-4.40142824637072"><ele>772.0</ele><time>2026-03-23T09:16:33Z</time></trkpt><trkpt lat="31.26827536065252" lon="-4.401334367953746"><ele>772.3333333333333</ele><time>2026-03-23T09:16:34Z</time></trkpt><trkpt lat="31.26815192360067" lon="-4.401239926162703"><ele>772.6666666666667</ele><time>2026-03-23T09:16:35Z</time></trkpt><trkpt lat="31.268016236990857" lon="-4.401145333879649"><ele>773.0</ele><time>2026-03-23T09:16:36Z</time></trkpt><trkpt lat="31.267860979183187" lon="-4.401100639818487"><ele>774.0</ele><time>2026-03-23T09:16:37Z</time></trkpt><trkpt lat="31.267697397256025" lon="-4.401054272968203"><ele>775.0</ele><time>2026-03-23T09:16:38Z</time></trkpt><trkpt lat="31.26753148028724" lon="-4.401022934354618"><ele>776.0</ele><time>2026-03-23T09:16:39Z</time></trkpt><trkpt lat="31.267361318092856" lon="-4.401011453845877"><ele>778.3333333333334</ele><time>2026-03-23T09:16:40Z</time></trkpt><trkpt lat="31.26719915945756" lon="-4.401011286296785"><ele>780.6666666666667</ele><time>2026-03-23T09:16:41Z</time></trkpt><trkpt lat="31.26704622767098" lon="-4.400999826587373"><ele>783.0</ele><time>2026-03-23T09:16:42Z</time></trkpt><trkpt lat="31.26688678889662" lon="-4.401021032379237"><ele>783.0</ele><time>2026-03-23T09:16:43Z</time></trkpt><trkpt lat="31.26673795789475" lon="-4.401042836412503"><ele>783.0</ele><time>2026-03-23T09:16:44Z</time></trkpt><trkpt lat="31.26659195947327" lon="-4.401058865353149"><ele>783.0</ele><time>2026-03-23T09:16:45Z</time></trkpt><trkpt lat="31.26644765010051" lon="-4.401053057494037"><ele>783.0</ele><time>2026-03-23T09:16:46Z</time></trkpt><trkpt lat="31.266315649235175" lon="-4.401047695227762"><ele>785.5</ele><time>2026-03-23T09:16:47Z</time></trkpt><trkpt lat="31.26619371014695" lon="-4.4010355211137355"><ele>788.0</ele><time>2026-03-23T09:16:48Z</time></trkpt><trkpt lat="31.266101344462797" lon="-4.400980945550633"><ele>790.5</ele><time>2026-03-23T09:16:49Z</time></trkpt><trkpt lat="31.266029008460993" lon="-4.400972614866409"><ele>793.0</ele><time>2026-03-23T09:16:50Z</time></trkpt><trkpt lat="31.265958113804928" lon="-4.40097812382955"><ele>795.5</ele><time>2026-03-23T09:16:52Z</time></trkpt><trkpt lat="31.265941418479084" lon="-4.401067837755319"><ele>798.0</ele><time>2026-03-23T09:16:53Z</time></trkpt><trkpt lat="31.265892911660764" lon="-4.4011243696213365"><ele>798.0</ele><time>2026-03-23T09:16:54Z</time></trkpt><trkpt lat="31.265846822422173" lon="-4.401185499638418"><ele>798.0</ele><time>2026-03-23T09:16:55Z</time></trkpt><trkpt lat="31.26581222259986" lon="-4.401256938493612"><ele>798.0</ele><time>2026-03-23T09:16:56Z</time></trkpt><trkpt lat="31.265730571095876" lon="-4.401306200340054"><ele>798.0</ele><time>2026-03-23T09:16:57Z</time></trkpt><trkpt lat="31.265639744206783" lon="-4.401340575692116"><ele>798.0</ele><time>2026-03-23T09:16:58Z</time></trkpt><trkpt lat="31.265573123859703" lon="-4.401401111877831"><ele>798.0</ele><time>2026-03-23T09:16:59Z</time></trkpt><trkpt lat="31.265480829398197" lon="-4.4014644820536635"><ele>795.3333333333334</ele><time>2026-03-23T09:17:00Z</time></trkpt><trkpt lat="31.265412837728604" lon="-4.401506601229129"><ele>792.6666666666667</ele><time>2026-03-23T09:17:01Z</time></trkpt><trkpt lat="31.265336525737567" lon="-4.401553277854449"><ele>790.0</ele><time>2026-03-23T09:17:02Z</time></trkpt><trkpt lat="31.265270374048264" lon="-4.401606965743917"><ele>787.3333333333334</ele><time>2026-03-23T09:17:03Z</time></trkpt><trkpt lat="31.265222598928027" lon="-4.401707717284508"><ele>784.6666666666667</ele><time>2026-03-23T09:17:04Z</time></trkpt><trkpt lat="31.265187509347143" lon="-4.40177210846216"><ele>782.0</ele><time>2026-03-23T09:17:05Z</time></trkpt><trkpt lat="31.265145592768352" lon="-4.401865078560038"><ele>782.0000000000001</ele><time>2026-03-23T09:17:06Z</time></trkpt><trkpt lat="31.265094842054516" lon="-4.401934578592161"><ele>782.0</ele><time>2026-03-23T09:17:07Z</time></trkpt><trkpt lat="31.264987184820964" lon="-4.401981427565738"><ele>782.0</ele><time>2026-03-23T09:17:09Z</time></trkpt><trkpt lat="31.26491285457142" lon="-4.402005853659979"><ele>782.0</ele><time>2026-03-23T09:17:10Z</time></trkpt><trkpt lat="31.264867071555038" lon="-4.402095387250676"><ele>782.0000000000001</ele><time>2026-03-23T09:17:11Z</time></trkpt><trkpt lat="31.264801997408206" lon="-4.40215774658484"><ele>782.0</ele><time>2026-03-23T09:17:12Z</time></trkpt><trkpt lat="31.264717044174677" lon="-4.402237201825106"><ele>779.5</ele><time>2026-03-23T09:17:13Z</time></trkpt><trkpt lat="31.264622263106876" lon="-4.402306697357886"><ele>777.0</ele><time>2026-03-23T09:17:14Z</time></trkpt><trkpt lat="31.26451328554783" lon="-4.4023749580180995"><ele>774.5</ele><time>2026-03-23T09:17:15Z</time></trkpt><trkpt lat="31.264350521208183" lon="-4.4024436214310585"><ele>772.0</ele><time>2026-03-23T09:17:16Z</time></trkpt><trkpt lat="31.26417370606535" lon="-4.402495289103439"><ele>772.0</ele><time>2026-03-23T09:17:17Z</time></trkpt><trkpt lat="31.263980122345362" lon="-4.402525643255306"><ele>772.0</ele><time>2026-03-23T09:17:18Z</time></trkpt><trkpt lat="31.26380574527129" lon="-4.402590149206893"><ele>772.0</ele><time>2026-03-23T09:17:19Z</time></trkpt><trkpt lat="31.263655058848432" lon="-4.402639419009502"><ele>771.0</ele><time>2026-03-23T09:17:20Z</time></trkpt><trkpt lat="31.263499677542274" lon="-4.402686884226397"><ele>770.0</ele><time>2026-03-23T09:17:21Z</time></trkpt><trkpt lat="31.263342802872607" lon="-4.402735958915019"><ele>769.0</ele><time>2026-03-23T09:17:22Z</time></trkpt><trkpt lat="31.263183704393374" lon="-4.402787561986586"><ele>768.3333333333333</ele><time>2026-03-23T09:17:23Z</time></trkpt><trkpt lat="31.263017455443627" lon="-4.402845482450819"><ele>767.6666666666666</ele><time>2026-03-23T09:17:24Z</time></trkpt><trkpt lat="31.262859169152467" lon="-4.4028973391583195"><ele>767.0</ele><time>2026-03-23T09:17:25Z</time></trkpt><trkpt lat="31.262700335735833" lon="-4.402947093853132"><ele>766.6666666666666</ele><time>2026-03-23T09:17:26Z</time></trkpt><trkpt lat="31.262548987818374" lon="-4.403015475525952"><ele>766.3333333333334</ele><time>2026-03-23T09:17:27Z</time></trkpt><trkpt lat="31.262392273843435" lon="-4.40307132367214"><ele>766.0</ele><time>2026-03-23T09:17:28Z</time></trkpt><trkpt lat="31.262224823019405" lon="-4.403130998314145"><ele>765.3333333333334</ele><time>2026-03-23T09:17:29Z</time></trkpt><trkpt lat="31.26206005460006" lon="-4.403208621107715"><ele>764.6666666666666</ele><time>2026-03-23T09:17:30Z</time></trkpt><trkpt lat="31.26187874386295" lon="-4.403279052636197"><ele>764.0</ele><time>2026-03-23T09:17:31Z</time></trkpt><trkpt lat="31.26168357901997" lon="-4.403330836363865"><ele>764.0</ele><time>2026-03-23T09:17:32Z</time></trkpt><trkpt lat="31.26148611754269" lon="-4.403350434577138"><ele>764.0</ele><time>2026-03-23T09:17:33Z</time></trkpt><trkpt lat="31.261312062921544" lon="-4.403346518433365"><ele>764.0</ele><time>2026-03-23T09:17:34Z</time></trkpt><trkpt lat="31.261124980796065" lon="-4.403348187150011"><ele>763.6666666666666</ele><time>2026-03-23T09:17:35Z</time></trkpt><trkpt lat="31.26093995565553" lon="-4.40335066142863"><ele>763.3333333333334</ele><time>2026-03-23T09:17:36Z</time></trkpt><trkpt lat="31.26077128943928" lon="-4.403355135336594"><ele>763.0</ele><time>2026-03-23T09:17:37Z</time></trkpt><trkpt lat="31.26061209616887" lon="-4.40336243996526"><ele>762.6666666666667</ele><time>2026-03-23T09:17:38Z</time></trkpt><trkpt lat="31.26045679444959" lon="-4.403354358107169"><ele>762.3333333333334</ele><time>2026-03-23T09:17:39Z</time></trkpt><trkpt lat="31.2603021981025" lon="-4.403392839408418"><ele>762.0</ele><time>2026-03-23T09:17:40Z</time></trkpt><trkpt lat="31.260134985634355" lon="-4.403419392061303"><ele>762.0</ele><time>2026-03-23T09:17:41Z</time></trkpt><trkpt lat="31.259956727986406" lon="-4.403456085763686"><ele>762.0</ele><time>2026-03-23T09:17:42Z</time></trkpt><trkpt lat="31.259771307946966" lon="-4.4034942538403445"><ele>762.0</ele><time>2026-03-23T09:17:43Z</time></trkpt><trkpt lat="31.259605224659403" lon="-4.4035284405743385"><ele>762.6666666666666</ele><time>2026-03-23T09:17:44Z</time></trkpt><trkpt lat="31.259453757939717" lon="-4.403559618621457"><ele>763.3333333333333</ele><time>2026-03-23T09:17:45Z</time></trkpt><trkpt lat="31.259297539223247" lon="-4.403518786953694"><ele>764.0</ele><time>2026-03-23T09:17:46Z</time></trkpt><trkpt lat="31.259136781433725" lon="-4.403529972541479"><ele>764.0</ele><time>2026-03-23T09:17:47Z</time></trkpt><trkpt lat="31.258971560303" lon="-4.4035371663982605"><ele>764.0</ele><time>2026-03-23T09:17:48Z</time></trkpt><trkpt lat="31.258808407762608" lon="-4.403543705496728"><ele>764.0</ele><time>2026-03-23T09:17:49Z</time></trkpt><trkpt lat="31.258639008631206" lon="-4.403562423421785"><ele>764.0</ele><time>2026-03-23T09:17:50Z</time></trkpt><trkpt lat="31.25847499360539" lon="-4.403591868142627"><ele>764.0</ele><time>2026-03-23T09:17:51Z</time></trkpt><trkpt lat="31.25832571287608" lon="-4.403624361861758"><ele>764.0</ele><time>2026-03-23T09:17:52Z</time></trkpt><trkpt lat="31.25818930164328" lon="-4.403657454101198"><ele>764.25</ele><time>2026-03-23T09:17:53Z</time></trkpt><trkpt lat="31.258062092839562" lon="-4.403696647740803"><ele>764.5</ele><time>2026-03-23T09:17:54Z</time></trkpt><trkpt lat="31.257928529976542" lon="-4.403742949945596"><ele>764.75</ele><time>2026-03-23T09:17:55Z</time></trkpt><trkpt lat="31.257771544393204" lon="-4.403799442459545"><ele>765.0</ele><time>2026-03-23T09:17:56Z</time></trkpt><trkpt lat="31.25760589918374" lon="-4.403865973664429"><ele>764.6666666666666</ele><time>2026-03-23T09:17:57Z</time></trkpt><trkpt lat="31.257446250280754" lon="-4.403936446925021"><ele>764.3333333333333</ele><time>2026-03-23T09:17:58Z</time></trkpt><trkpt lat="31.257303786460305" lon="-4.403994464936329"><ele>764.0</ele><time>2026-03-23T09:17:59Z</time></trkpt><trkpt lat="31.257146272413625" lon="-4.4040580225396955"><ele>764.0</ele><time>2026-03-23T09:18:00Z</time></trkpt><trkpt lat="31.256992466173713" lon="-4.404119599375861"><ele>764.0</ele><time>2026-03-23T09:18:01Z</time></trkpt><trkpt lat="31.25685370874384" lon="-4.404176645576962"><ele>764.0</ele><time>2026-03-23T09:18:02Z</time></trkpt><trkpt lat="31.256711707964786" lon="-4.404233669686473"><ele>764.0</ele><time>2026-03-23T09:18:03Z</time></trkpt><trkpt lat="31.256562238848808" lon="-4.404300280539191"><ele>764.0</ele><time>2026-03-23T09:18:04Z</time></trkpt><trkpt lat="31.25640362792893" lon="-4.404367936741701"><ele>764.0</ele><time>2026-03-23T09:18:05Z</time></trkpt><trkpt lat="31.256247729271955" lon="-4.404431741028714"><ele>763.75</ele><time>2026-03-23T09:18:06Z</time></trkpt><trkpt lat="31.256098706490185" lon="-4.404484058537884"><ele>763.5</ele><time>2026-03-23T09:18:07Z</time></trkpt><trkpt lat="31.255947196388885" lon="-4.4045273168357015"><ele>763.25</ele><time>2026-03-23T09:18:08Z</time></trkpt><trkpt lat="31.2558153634192" lon="-4.404540288736777"><ele>763.0</ele><time>2026-03-23T09:18:09Z</time></trkpt><trkpt lat="31.25569618291085" lon="-4.404530244064638"><ele>763.0</ele><time>2026-03-23T09:18:10Z</time></trkpt><trkpt lat="31.25558246472688" lon="-4.404495840140926"><ele>763.0</ele><time>2026-03-23T09:18:11Z</time></trkpt><trkpt lat="31.25547856626033" lon="-4.404432767452322"><ele>763.0</ele><time>2026-03-23T09:18:12Z</time></trkpt><trkpt lat="31.25537079871827" lon="-4.404341290507333"><ele>763.0</ele><time>2026-03-23T09:18:13Z</time></trkpt><trkpt lat="31.25526784977628" lon="-4.404217636383149"><ele>763.0</ele><time>2026-03-23T09:18:14Z</time></trkpt><trkpt lat="31.25516467311813" lon="-4.404072460287654"><ele>763.0</ele><time>2026-03-23T09:18:15Z</time></trkpt><trkpt lat="31.25505580137028" lon="-4.403905524171032"><ele>763.0</ele><time>2026-03-23T09:18:16Z</time></trkpt><trkpt lat="31.254943920368728" lon="-4.403717208880463"><ele>762.6666666666667</ele><time>2026-03-23T09:18:17Z</time></trkpt><trkpt lat="31.254841754705318" lon="-4.403517200313868"><ele>762.3333333333334</ele><time>2026-03-23T09:18:18Z</time></trkpt><trkpt lat="31.254742999982447" lon="-4.403286125993894"><ele>762.0</ele><time>2026-03-23T09:18:19Z</time></trkpt><trkpt lat="31.254652435052172" lon="-4.403063193004603"><ele>761.6666666666666</ele><time>2026-03-23T09:18:20Z</time></trkpt><trkpt lat="31.254579008642093" lon="-4.402870305196063"><ele>761.3333333333333</ele><time>2026-03-23T09:18:21Z</time></trkpt><trkpt lat="31.2545209483955" lon="-4.402694809163926"><ele>761.0</ele><time>2026-03-23T09:18:22Z</time></trkpt><trkpt lat="31.25445644929901" lon="-4.402502285170467"><ele>761.0</ele><time>2026-03-23T09:18:23Z</time></trkpt><trkpt lat="31.25438474144955" lon="-4.402313885888957"><ele>761.0</ele><time>2026-03-23T09:18:24Z</time></trkpt><trkpt lat="31.254306993907786" lon="-4.402121398535886"><ele>761.0</ele><time>2026-03-23T09:18:25Z</time></trkpt><trkpt lat="31.25422873694804" lon="-4.4019375740314945"><ele>760.6666666666666</ele><time>2026-03-23T09:18:26Z</time></trkpt><trkpt lat="31.254149696904932" lon="-4.401755340617777"><ele>760.3333333333334</ele><time>2026-03-23T09:18:27Z</time></trkpt><trkpt lat="31.254068843547774" lon="-4.401566809291359"><ele>760.0</ele><time>2026-03-23T09:18:28Z</time></trkpt><trkpt lat="31.253989071575813" lon="-4.401402595207221"><ele>759.5</ele><time>2026-03-23T09:18:29Z</time></trkpt><trkpt lat="31.253904646983102" lon="-4.401261444223691"><ele>759.0</ele><time>2026-03-23T09:18:30Z</time></trkpt><trkpt lat="31.253806500060147" lon="-4.401134900630903"><ele>758.5</ele><time>2026-03-23T09:18:31Z</time></trkpt><trkpt lat="31.253707518550222" lon="-4.401029351612532"><ele>758.0</ele><time>2026-03-23T09:18:32Z</time></trkpt><trkpt lat="31.253596489758277" lon="-4.400929807275776"><ele>758.0</ele><time>2026-03-23T09:18:33Z</time></trkpt><trkpt lat="31.253481542224087" lon="-4.400830649738425"><ele>758.0</ele><time>2026-03-23T09:18:34Z</time></trkpt><trkpt lat="31.253354749226276" lon="-4.400720902846368"><ele>758.0</ele><time>2026-03-23T09:18:35Z</time></trkpt><trkpt lat="31.25319955714897" lon="-4.400595441980399"><ele>758.3333333333333</ele><time>2026-03-23T09:18:36Z</time></trkpt><trkpt lat="31.253082770143944" lon="-4.400483114467511"><ele>758.6666666666666</ele><time>2026-03-23T09:18:37Z</time></trkpt><trkpt lat="31.2529419376916" lon="-4.400365876141087"><ele>759.0</ele><time>2026-03-23T09:18:38Z</time></trkpt><trkpt lat="31.252807721317375" lon="-4.400228533282109"><ele>759.0</ele><time>2026-03-23T09:18:39Z</time></trkpt><trkpt lat="31.25268746558997" lon="-4.4000836926164695"><ele>759.0</ele><time>2026-03-23T09:18:40Z</time></trkpt><trkpt lat="31.25256575030006" lon="-4.399929309338455"><ele>759.0</ele><time>2026-03-23T09:18:41Z</time></trkpt><trkpt lat="31.252458066650078" lon="-4.399778872771331"><ele>758.6666666666666</ele><time>2026-03-23T09:18:42Z</time></trkpt><trkpt lat="31.25234235715726" lon="-4.399610486589024"><ele>758.3333333333333</ele><time>2026-03-23T09:18:43Z</time></trkpt><trkpt lat="31.252237718914767" lon="-4.399448978001221"><ele>758.0</ele><time>2026-03-23T09:18:44Z</time></trkpt><trkpt lat="31.252134498108877" lon="-4.399281611083344"><ele>758.0</ele><time>2026-03-23T09:18:45Z</time></trkpt><trkpt lat="31.252027804711314" lon="-4.39911313144029"><ele>758.0</ele><time>2026-03-23T09:18:46Z</time></trkpt><trkpt lat="31.251920500992068" lon="-4.398947985320009"><ele>758.0</ele><time>2026-03-23T09:18:47Z</time></trkpt><trkpt lat="31.251812665237914" lon="-4.398796922979135"><ele>758.0</ele><time>2026-03-23T09:18:48Z</time></trkpt><trkpt lat="31.25169349154091" lon="-4.398653543306227"><ele>758.0</ele><time>2026-03-23T09:18:49Z</time></trkpt><trkpt lat="31.251571156281383" lon="-4.398511274555398"><ele>758.0</ele><time>2026-03-23T09:18:50Z</time></trkpt><trkpt lat="31.251447531938826" lon="-4.398388086832311"><ele>758.0</ele><time>2026-03-23T09:18:51Z</time></trkpt><trkpt lat="31.251328786261944" lon="-4.398271696018458"><ele>758.0</ele><time>2026-03-23T09:18:52Z</time></trkpt><trkpt lat="31.251203426494865" lon="-4.39815981385396"><ele>758.0</ele><time>2026-03-23T09:18:53Z</time></trkpt><trkpt lat="31.25108895058242" lon="-4.398048941437574"><ele>758.0</ele><time>2026-03-23T09:18:54Z</time></trkpt><trkpt lat="31.250973161734546" lon="-4.397946607746711"><ele>758.0</ele><time>2026-03-23T09:18:55Z</time></trkpt><trkpt lat="31.25087236475829" lon="-4.397864622541617"><ele>758.0</ele><time>2026-03-23T09:18:56Z</time></trkpt><trkpt lat="31.250780165073717" lon="-4.397796303774325"><ele>758.0</ele><time>2026-03-23T09:18:57Z</time></trkpt><trkpt lat="31.250669889397386" lon="-4.397717515075412"><ele>758.0</ele><time>2026-03-23T09:18:58Z</time></trkpt><trkpt lat="31.250545160522698" lon="-4.397606090932735"><ele>758.0</ele><time>2026-03-23T09:18:59Z</time></trkpt><trkpt lat="31.25040401521471" lon="-4.397461952149999"><ele>758.0</ele><time>2026-03-23T09:19:00Z</time></trkpt><trkpt lat="31.250277337239663" lon="-4.397334430570654"><ele>758.0</ele><time>2026-03-23T09:19:01Z</time></trkpt><trkpt lat="31.25012415391729" lon="-4.397183331392454"><ele>758.0</ele><time>2026-03-23T09:19:02Z</time></trkpt><trkpt lat="31.24993923184648" lon="-4.397005478873974"><ele>758.0</ele><time>2026-03-23T09:19:03Z</time></trkpt><trkpt lat="31.24975478065785" lon="-4.39684062620739"><ele>758.6666666666666</ele><time>2026-03-23T09:19:04Z</time></trkpt><trkpt lat="31.249613035857198" lon="-4.396705635713355"><ele>759.3333333333334</ele><time>2026-03-23T09:19:05Z</time></trkpt><trkpt lat="31.249502465133055" lon="-4.396596272631898"><ele>760.0</ele><time>2026-03-23T09:19:06Z</time></trkpt><trkpt lat="31.24940433600278" lon="-4.39649912218144"><ele>760.0</ele><time>2026-03-23T09:19:07Z</time></trkpt><trkpt lat="31.24923737559531" lon="-4.396342025070761"><ele>760.0</ele><time>2026-03-23T09:19:08Z</time></trkpt><trkpt lat="31.24908370353244" lon="-4.396185099159951"><ele>760.0</ele><time>2026-03-23T09:19:09Z</time></trkpt><trkpt lat="31.248943908848638" lon="-4.396057445489438"><ele>760.0</ele><time>2026-03-23T09:19:10Z</time></trkpt><trkpt lat="31.24882669788536" lon="-4.3959394996920444"><ele>760.0</ele><time>2026-03-23T09:19:11Z</time></trkpt><trkpt lat="31.248696578446047" lon="-4.395822326234766"><ele>760.0</ele><time>2026-03-23T09:19:12Z</time></trkpt><trkpt lat="31.24857701064141" lon="-4.395706610469758"><ele>760.0</ele><time>2026-03-23T09:19:13Z</time></trkpt><trkpt lat="31.248452700577747" lon="-4.395592752311053"><ele>760.0</ele><time>2026-03-23T09:19:14Z</time></trkpt><trkpt lat="31.248328946013498" lon="-4.3954744991623995"><ele>760.0</ele><time>2026-03-23T09:19:15Z</time></trkpt><trkpt lat="31.24820659444824" lon="-4.395352216180602"><ele>761.0</ele><time>2026-03-23T09:19:16Z</time></trkpt><trkpt lat="31.24808658805073" lon="-4.3952309968410725"><ele>762.0</ele><time>2026-03-23T09:19:17Z</time></trkpt><trkpt lat="31.247960428889844" lon="-4.395105284878779"><ele>763.0</ele><time>2026-03-23T09:19:18Z</time></trkpt><trkpt lat="31.24783098529121" lon="-4.394973967823702"><ele>763.0</ele><time>2026-03-23T09:19:19Z</time></trkpt><trkpt lat="31.247696657497873" lon="-4.3948489422391415"><ele>763.0</ele><time>2026-03-23T09:19:20Z</time></trkpt><trkpt lat="31.24756587023007" lon="-4.394723171623257"><ele>763.0</ele><time>2026-03-23T09:19:21Z</time></trkpt><trkpt lat="31.24743531672427" lon="-4.394580531192752"><ele>763.0</ele><time>2026-03-23T09:19:22Z</time></trkpt><trkpt lat="31.247320875341927" lon="-4.394455225668612"><ele>763.0</ele><time>2026-03-23T09:19:23Z</time></trkpt><trkpt lat="31.247200665825833" lon="-4.394337842919173"><ele>763.0</ele><time>2026-03-23T09:19:24Z</time></trkpt><trkpt lat="31.247080721314607" lon="-4.3942271503370005"><ele>763.6666666666667</ele><time>2026-03-23T09:19:25Z</time></trkpt><trkpt lat="31.246952934836226" lon="-4.39410702662637"><ele>764.3333333333334</ele><time>2026-03-23T09:19:26Z</time></trkpt><trkpt lat="31.24682406386286" lon="-4.3939824776699945"><ele>765.0</ele><time>2026-03-23T09:19:27Z</time></trkpt><trkpt lat="31.246688606466993" lon="-4.393848910891186"><ele>765.0</ele><time>2026-03-23T09:19:28Z</time></trkpt><trkpt lat="31.246559205448456" lon="-4.3937301593681415"><ele>765.0</ele><time>2026-03-23T09:19:29Z</time></trkpt><trkpt lat="31.2464334635372" lon="-4.393608535285601"><ele>765.0</ele><time>2026-03-23T09:19:30Z</time></trkpt><trkpt lat="31.246304606743095" lon="-4.393471126348841"><ele>765.0</ele><time>2026-03-23T09:19:31Z</time></trkpt><trkpt lat="31.2461557479394" lon="-4.39331221601227"><ele>765.0</ele><time>2026-03-23T09:19:32Z</time></trkpt><trkpt lat="31.24597226139176" lon="-4.393127021248055"><ele>765.0</ele><time>2026-03-23T09:19:33Z</time></trkpt><trkpt lat="31.245803959151687" lon="-4.3929591919947315"><ele>766.0</ele><time>2026-03-23T09:19:34Z</time></trkpt><trkpt lat="31.24562271678664" lon="-4.392783638105044"><ele>767.0</ele><time>2026-03-23T09:19:35Z</time></trkpt><trkpt lat="31.245447396979046" lon="-4.392620893147263"><ele>767.0</ele><time>2026-03-23T09:19:36Z</time></trkpt><trkpt lat="31.245291863248045" lon="-4.392468655545462"><ele>767.0</ele><time>2026-03-23T09:19:37Z</time></trkpt><trkpt lat="31.245129311900538" lon="-4.392305600542004"><ele>767.0</ele><time>2026-03-23T09:19:38Z</time></trkpt><trkpt lat="31.24497301489259" lon="-4.39214477088305"><ele>766.6666666666666</ele><time>2026-03-23T09:19:39Z</time></trkpt><trkpt lat="31.244819766891727" lon="-4.391987807825132"><ele>766.3333333333334</ele><time>2026-03-23T09:19:40Z</time></trkpt><trkpt lat="31.244681267631915" lon="-4.3918501650814425"><ele>766.0</ele><time>2026-03-23T09:19:41Z</time></trkpt><trkpt lat="31.244542555498604" lon="-4.391712301714649"><ele>767.6666666666667</ele><time>2026-03-23T09:19:42Z</time></trkpt><trkpt lat="31.24442548885787" lon="-4.391597303631812"><ele>769.3333333333334</ele><time>2026-03-23T09:19:43Z</time></trkpt><trkpt lat="31.244306869767726" lon="-4.3914686194990695"><ele>771.0</ele><time>2026-03-23T09:19:44Z</time></trkpt><trkpt lat="31.24418795824522" lon="-4.391338903035117"><ele>771.1999999999999</ele><time>2026-03-23T09:19:45Z</time></trkpt><trkpt lat="31.244078404423586" lon="-4.391231204167317"><ele>771.4</ele><time>2026-03-23T09:19:46Z</time></trkpt><trkpt lat="31.24398413367324" lon="-4.391154171730693"><ele>771.6</ele><time>2026-03-23T09:19:47Z</time></trkpt><trkpt lat="31.24390493231232" lon="-4.391116761529527"><ele>771.8</ele><time>2026-03-23T09:19:48Z</time></trkpt><trkpt lat="31.243826085916552" lon="-4.391093922414373"><ele>772.0</ele><time>2026-03-23T09:19:49Z</time></trkpt><trkpt lat="31.24372272729786" lon="-4.391088468400681"><ele>772.6666666666666</ele><time>2026-03-23T09:19:50Z</time></trkpt><trkpt lat="31.243586684303594" lon="-4.391100151483557"><ele>773.3333333333333</ele><time>2026-03-23T09:19:51Z</time></trkpt><trkpt lat="31.243429929401408" lon="-4.391097920877256"><ele>774.0</ele><time>2026-03-23T09:19:52Z</time></trkpt><trkpt lat="31.24326767817583" lon="-4.391088903881055"><ele>774.5</ele><time>2026-03-23T09:19:53Z</time></trkpt><trkpt lat="31.243127691148523" lon="-4.391085968286313"><ele>775.0</ele><time>2026-03-23T09:19:54Z</time></trkpt><trkpt lat="31.24300149897286" lon="-4.3911061915120175"><ele>775.5</ele><time>2026-03-23T09:19:55Z</time></trkpt><trkpt lat="31.24285325470619" lon="-4.391155255733056"><ele>776.0</ele><time>2026-03-23T09:19:56Z</time></trkpt><trkpt lat="31.24270281411066" lon="-4.391185276735437"><ele>776.0</ele><time>2026-03-23T09:19:57Z</time></trkpt><trkpt lat="31.24256997532228" lon="-4.3911918497276385"><ele>776.0</ele><time>2026-03-23T09:19:58Z</time></trkpt><trkpt lat="31.242454345995558" lon="-4.391193364578299"><ele>776.0</ele><time>2026-03-23T09:19:59Z</time></trkpt><trkpt lat="31.242346313894494" lon="-4.391180038784621"><ele>776.0</ele><time>2026-03-23T09:20:00Z</time></trkpt><trkpt lat="31.24222209202946" lon="-4.3911468971871574"><ele>774.6666666666667</ele><time>2026-03-23T09:20:01Z</time></trkpt><trkpt lat="31.242073584106667" lon="-4.391082840545093"><ele>773.3333333333333</ele><time>2026-03-23T09:20:02Z</time></trkpt><trkpt lat="31.241909358364012" lon="-4.391005899187856"><ele>772.0</ele><time>2026-03-23T09:20:03Z</time></trkpt><trkpt lat="31.241774279849267" lon="-4.3909394922807286"><ele>772.0</ele><time>2026-03-23T09:20:04Z</time></trkpt><trkpt lat="31.241645059850356" lon="-4.390892866660186"><ele>772.0</ele><time>2026-03-23T09:20:05Z</time></trkpt><trkpt lat="31.24152548965289" lon="-4.390875084610204"><ele>772.0</ele><time>2026-03-23T09:20:06Z</time></trkpt><trkpt lat="31.241396814666846" lon="-4.390850815253359"><ele>772.0</ele><time>2026-03-23T09:20:07Z</time></trkpt><trkpt lat="31.241282997472013" lon="-4.390801434515045"><ele>770.25</ele><time>2026-03-23T09:20:08Z</time></trkpt><trkpt lat="31.241160831581144" lon="-4.390730035311852"><ele>768.5</ele><time>2026-03-23T09:20:09Z</time></trkpt><trkpt lat="31.24102698410393" lon="-4.390655872527158"><ele>766.75</ele><time>2026-03-23T09:20:10Z</time></trkpt><trkpt lat="31.24088099619095" lon="-4.390597938908229"><ele>765.0</ele><time>2026-03-23T09:20:11Z</time></trkpt><trkpt lat="31.240731176315396" lon="-4.3905461672735795"><ele>764.3333333333334</ele><time>2026-03-23T09:20:12Z</time></trkpt><trkpt lat="31.2405700009051" lon="-4.390507657080325"><ele>763.6666666666667</ele><time>2026-03-23T09:20:13Z</time></trkpt><trkpt lat="31.240389114268712" lon="-4.390481412004938"><ele>763.0</ele><time>2026-03-23T09:20:14Z</time></trkpt><trkpt lat="31.240202642305835" lon="-4.390464248464585"><ele>763.0</ele><time>2026-03-23T09:20:15Z</time></trkpt><trkpt lat="31.240033897027892" lon="-4.390452707075101"><ele>763.0</ele><time>2026-03-23T09:20:16Z</time></trkpt><trkpt lat="31.23987217798014" lon="-4.390441774317978"><ele>763.0</ele><time>2026-03-23T09:20:17Z</time></trkpt><trkpt lat="31.239709673127457" lon="-4.3904253668071185"><ele>762.3333333333334</ele><time>2026-03-23T09:20:18Z</time></trkpt><trkpt lat="31.239547516411665" lon="-4.390398125961313"><ele>761.6666666666666</ele><time>2026-03-23T09:20:19Z</time></trkpt><trkpt lat="31.23938174542833" lon="-4.390361275129368"><ele>761.0</ele><time>2026-03-23T09:20:20Z</time></trkpt><trkpt lat="31.239213631691047" lon="-4.390324242546578"><ele>761.0</ele><time>2026-03-23T09:20:21Z</time></trkpt><trkpt lat="31.239043626918374" lon="-4.390286386491975"><ele>761.0</ele><time>2026-03-23T09:20:22Z</time></trkpt><trkpt lat="31.238870780001573" lon="-4.390253107062411"><ele>761.0</ele><time>2026-03-23T09:20:23Z</time></trkpt><trkpt lat="31.238683606159423" lon="-4.390214552657573"><ele>761.0</ele><time>2026-03-23T09:20:24Z</time></trkpt><trkpt lat="31.238501680496892" lon="-4.390180633765654"><ele>761.0</ele><time>2026-03-23T09:20:25Z</time></trkpt><trkpt lat="31.238299191104385" lon="-4.390143347972878"><ele>761.0</ele><time>2026-03-23T09:20:26Z</time></trkpt><trkpt lat="31.238074151831807" lon="-4.390105132489083"><ele>759.6666666666666</ele><time>2026-03-23T09:20:27Z</time></trkpt><trkpt lat="31.237864228802316" lon="-4.390067363532215"><ele>758.3333333333334</ele><time>2026-03-23T09:20:28Z</time></trkpt><trkpt lat="31.237657683943546" lon="-4.390028820020415"><ele>757.0</ele><time>2026-03-23T09:20:29Z</time></trkpt><trkpt lat="31.237458905746042" lon="-4.389999734262952"><ele>757.0</ele><time>2026-03-23T09:20:30Z</time></trkpt><trkpt lat="31.23727928502607" lon="-4.3899744432979535"><ele>757.0</ele><time>2026-03-23T09:20:31Z</time></trkpt><trkpt lat="31.237134645731942" lon="-4.3899538641934175"><ele>757.0</ele><time>2026-03-23T09:20:32Z</time></trkpt><trkpt lat="31.23700802961369" lon="-4.389925730301646"><ele>757.0</ele><time>2026-03-23T09:20:33Z</time></trkpt><trkpt lat="31.236872075613597" lon="-4.389890080254148"><ele>757.0</ele><time>2026-03-23T09:20:34Z</time></trkpt><trkpt lat="31.23671083667432" lon="-4.389853354804298"><ele>757.0</ele><time>2026-03-23T09:20:35Z</time></trkpt><trkpt lat="31.236563043563052" lon="-4.389825651618936"><ele>757.25</ele><time>2026-03-23T09:20:36Z</time></trkpt><trkpt lat="31.236419989413708" lon="-4.389798713329802"><ele>757.5</ele><time>2026-03-23T09:20:37Z</time></trkpt><trkpt lat="31.236279406170073" lon="-4.389771425925548"><ele>757.75</ele><time>2026-03-23T09:20:38Z</time></trkpt><trkpt lat="31.23613378627461" lon="-4.3897469265324816"><ele>758.0</ele><time>2026-03-23T09:20:39Z</time></trkpt><trkpt lat="31.235973204805052" lon="-4.389708264281904"><ele>758.0</ele><time>2026-03-23T09:20:40Z</time></trkpt><trkpt lat="31.235767844961686" lon="-4.389668123168827"><ele>758.0</ele><time>2026-03-23T09:20:41Z</time></trkpt><trkpt lat="31.235537247245542" lon="-4.389623652625287"><ele>758.0</ele><time>2026-03-23T09:20:42Z</time></trkpt><trkpt lat="31.235306191462207" lon="-4.3895763648710195"><ele>758.0</ele><time>2026-03-23T09:20:43Z</time></trkpt><trkpt lat="31.235096460284804" lon="-4.389530129240073"><ele>758.0</ele><time>2026-03-23T09:20:44Z</time></trkpt><trkpt lat="31.2348927624248" lon="-4.3894935645646"><ele>758.0</ele><time>2026-03-23T09:20:45Z</time></trkpt><trkpt lat="31.23470487317883" lon="-4.389464754242723"><ele>757.3333333333333</ele><time>2026-03-23T09:20:46Z</time></trkpt><trkpt lat="31.234511116537213" lon="-4.389427716388659"><ele>756.6666666666666</ele><time>2026-03-23T09:20:47Z</time></trkpt><trkpt lat="31.234310912671614" lon="-4.389389148151667"><ele>756.0</ele><time>2026-03-23T09:20:48Z</time></trkpt><trkpt lat="31.23408866741046" lon="-4.389349971390815"><ele>756.0</ele><time>2026-03-23T09:20:49Z</time></trkpt><trkpt lat="31.233863956651376" lon="-4.389309140117871"><ele>756.0</ele><time>2026-03-23T09:20:50Z</time></trkpt><trkpt lat="31.233635977562464" lon="-4.389268018840512"><ele>756.0</ele><time>2026-03-23T09:20:51Z</time></trkpt><trkpt lat="31.233424895265344" lon="-4.389229329412894"><ele>756.0</ele><time>2026-03-23T09:20:52Z</time></trkpt><trkpt lat="31.233218939947932" lon="-4.3891921855211375"><ele>756.0</ele><time>2026-03-23T09:20:53Z</time></trkpt><trkpt lat="31.23302532853259" lon="-4.389161878134614"><ele>755.3333333333334</ele><time>2026-03-23T09:20:54Z</time></trkpt><trkpt lat="31.2328433374468" lon="-4.389126106382646"><ele>754.6666666666667</ele><time>2026-03-23T09:20:55Z</time></trkpt><trkpt lat="31.232662763312135" lon="-4.389093702226063"><ele>754.0</ele><time>2026-03-23T09:20:56Z</time></trkpt><trkpt lat="31.232482222691168" lon="-4.389057397060674"><ele>754.0</ele><time>2026-03-23T09:20:57Z</time></trkpt><trkpt lat="31.232305233237188" lon="-4.389027374208076"><ele>754.0</ele><time>2026-03-23T09:20:58Z</time></trkpt><trkpt lat="31.2321677202181" lon="-4.389004499051222"><ele>754.0</ele><time>2026-03-23T09:20:59Z</time></trkpt><trkpt lat="31.232040862177083" lon="-4.388990793759274"><ele>754.0</ele><time>2026-03-23T09:21:00Z</time></trkpt><trkpt lat="31.23191787727736" lon="-4.388984959417767"><ele>754.0</ele><time>2026-03-23T09:21:01Z</time></trkpt><trkpt lat="31.231785618394273" lon="-4.388978454815665"><ele>754.0</ele><time>2026-03-23T09:21:02Z</time></trkpt><trkpt lat="31.23163993937172" lon="-4.388957335865964"><ele>754.0</ele><time>2026-03-23T09:21:03Z</time></trkpt><trkpt lat="31.231479861502546" lon="-4.388929378057529"><ele>754.0</ele><time>2026-03-23T09:21:04Z</time></trkpt><trkpt lat="31.23128987712295" lon="-4.388889200716773"><ele>754.3333333333334</ele><time>2026-03-23T09:21:05Z</time></trkpt><trkpt lat="31.23107745380233" lon="-4.388846572204205"><ele>754.6666666666666</ele><time>2026-03-23T09:21:06Z</time></trkpt><trkpt lat="31.230872965493667" lon="-4.388807705606199"><ele>755.0</ele><time>2026-03-23T09:21:07Z</time></trkpt><trkpt lat="31.23066311425935" lon="-4.388776450606918"><ele>755.3333333333333</ele><time>2026-03-23T09:21:08Z</time></trkpt><trkpt lat="31.23045058256805" lon="-4.3887493179012385"><ele>755.6666666666666</ele><time>2026-03-23T09:21:09Z</time></trkpt><trkpt lat="31.230254510149493" lon="-4.388721669674334"><ele>756.0</ele><time>2026-03-23T09:21:10Z</time></trkpt><trkpt lat="31.230086576361405" lon="-4.388696152210794"><ele>756.0</ele><time>2026-03-23T09:21:11Z</time></trkpt><trkpt lat="31.22992697032925" lon="-4.388667306182749"><ele>756.0</ele><time>2026-03-23T09:21:12Z</time></trkpt><trkpt lat="31.229777457478168" lon="-4.388636299971798"><ele>756.0</ele><time>2026-03-23T09:21:13Z</time></trkpt><trkpt lat="31.229644044736336" lon="-4.388612395194031"><ele>756.0</ele><time>2026-03-23T09:21:14Z</time></trkpt><trkpt lat="31.229524761254712" lon="-4.388586744739357"><ele>756.1999999999999</ele><time>2026-03-23T09:21:15Z</time></trkpt><trkpt lat="31.22942971133606" lon="-4.388562510794849"><ele>756.4</ele><time>2026-03-23T09:21:16Z</time></trkpt><trkpt lat="31.22935808686137" lon="-4.388545670001102"><ele>756.6</ele><time>2026-03-23T09:21:17Z</time></trkpt><trkpt lat="31.229268144038095" lon="-4.388575267939621"><ele>756.8</ele><time>2026-03-23T09:21:19Z</time></trkpt><trkpt lat="31.229221960501608" lon="-4.388664767889169"><ele>757.0</ele><time>2026-03-23T09:21:21Z</time></trkpt><trkpt lat="31.229188466232078" lon="-4.3888159239030475"><ele>756.8</ele><time>2026-03-23T09:21:23Z</time></trkpt><trkpt lat="31.229161263022384" lon="-4.3889288882149575"><ele>756.6</ele><time>2026-03-23T09:21:24Z</time></trkpt><trkpt lat="31.22912300155282" lon="-4.389054430744318"><ele>756.4</ele><time>2026-03-23T09:21:25Z</time></trkpt><trkpt lat="31.229069640384207" lon="-4.389186575805977"><ele>756.1999999999999</ele><time>2026-03-23T09:21:26Z</time></trkpt><trkpt lat="31.229003112663477" lon="-4.389279845399179"><ele>756.0</ele><time>2026-03-23T09:21:27Z</time></trkpt><trkpt lat="31.228923194779785" lon="-4.389351979406996"><ele>756.0</ele><time>2026-03-23T09:21:28Z</time></trkpt><trkpt lat="31.228832635727098" lon="-4.3894177589888805"><ele>756.0</ele><time>2026-03-23T09:21:29Z</time></trkpt><trkpt lat="31.228724625572585" lon="-4.389483360463369"><ele>756.0</ele><time>2026-03-23T09:21:30Z</time></trkpt><trkpt lat="31.2285983592081" lon="-4.389555305082338"><ele>756.0</ele><time>2026-03-23T09:21:31Z</time></trkpt><trkpt lat="31.228464019438768" lon="-4.3896324146337315"><ele>756.25</ele><time>2026-03-23T09:21:32Z</time></trkpt><trkpt lat="31.22833495331558" lon="-4.389718089921091"><ele>756.5</ele><time>2026-03-23T09:21:33Z</time></trkpt><trkpt lat="31.228230291781976" lon="-4.389802868377003"><ele>756.75</ele><time>2026-03-23T09:21:34Z</time></trkpt><trkpt lat="31.228140153313298" lon="-4.389887215757313"><ele>757.0</ele><time>2026-03-23T09:21:35Z</time></trkpt><trkpt lat="31.228051119917968" lon="-4.389984923433068"><ele>757.0</ele><time>2026-03-23T09:21:36Z</time></trkpt><trkpt lat="31.22796400782676" lon="-4.390102519676823"><ele>757.0</ele><time>2026-03-23T09:21:37Z</time></trkpt><trkpt lat="31.227885153179184" lon="-4.390231868707638"><ele>757.0</ele><time>2026-03-23T09:21:38Z</time></trkpt><trkpt lat="31.22780722537725" lon="-4.390349529610602"><ele>757.0</ele><time>2026-03-23T09:21:39Z</time></trkpt><trkpt lat="31.227725341660545" lon="-4.39044842990699"><ele>757.0</ele><time>2026-03-23T09:21:40Z</time></trkpt><trkpt lat="31.22764501290015" lon="-4.390541674197119"><ele>757.0</ele><time>2026-03-23T09:21:41Z</time></trkpt><trkpt lat="31.227570832325608" lon="-4.390629885409558"><ele>757.0</ele><time>2026-03-23T09:21:42Z</time></trkpt><trkpt lat="31.22749268677533" lon="-4.390720988185262"><ele>757.0</ele><time>2026-03-23T09:21:43Z</time></trkpt><trkpt lat="31.227402202923" lon="-4.390811061983502"><ele>757.0</ele><time>2026-03-23T09:21:44Z</time></trkpt><trkpt lat="31.22730620281817" lon="-4.390889427237224"><ele>758.0</ele><time>2026-03-23T09:21:45Z</time></trkpt><trkpt lat="31.227210174520664" lon="-4.3909526137472605"><ele>759.0</ele><time>2026-03-23T09:21:46Z</time></trkpt><trkpt lat="31.227102943427106" lon="-4.39100519404321"><ele>760.0</ele><time>2026-03-23T09:21:47Z</time></trkpt><trkpt lat="31.226989670344608" lon="-4.391071796952691"><ele>761.0</ele><time>2026-03-23T09:21:48Z</time></trkpt><trkpt lat="31.226871518626396" lon="-4.391158265162683"><ele>761.0</ele><time>2026-03-23T09:21:49Z</time></trkpt><trkpt lat="31.226759028355662" lon="-4.391265365518529"><ele>761.0</ele><time>2026-03-23T09:21:50Z</time></trkpt><trkpt lat="31.22667729010719" lon="-4.391349083263656"><ele>761.0</ele><time>2026-03-23T09:21:51Z</time></trkpt><trkpt lat="31.22662619462324" lon="-4.391404754464342"><ele>761.0</ele><time>2026-03-23T09:21:52Z</time></trkpt><trkpt lat="31.226556474381606" lon="-4.391477131962421"><ele>761.0</ele><time>2026-03-23T09:21:53Z</time></trkpt><trkpt lat="31.22646086120115" lon="-4.391592536667299"><ele>760.75</ele><time>2026-03-23T09:21:54Z</time></trkpt><trkpt lat="31.226361874363278" lon="-4.3917220680936175"><ele>760.5</ele><time>2026-03-23T09:21:55Z</time></trkpt><trkpt lat="31.226262791402792" lon="-4.39184971265677"><ele>760.25</ele><time>2026-03-23T09:21:56Z</time></trkpt><trkpt lat="31.226163779349715" lon="-4.391968814741262"><ele>760.0</ele><time>2026-03-23T09:21:57Z</time></trkpt><trkpt lat="31.2260638054657" lon="-4.392071129749207"><ele>760.5</ele><time>2026-03-23T09:21:58Z</time></trkpt><trkpt lat="31.225949845015457" lon="-4.3921739972145275"><ele>761.0</ele><time>2026-03-23T09:21:59Z</time></trkpt><trkpt lat="31.22583638869305" lon="-4.39227566086484"><ele>761.5</ele><time>2026-03-23T09:22:00Z</time></trkpt><trkpt lat="31.22572526682929" lon="-4.392369103415201"><ele>762.0</ele><time>2026-03-23T09:22:01Z</time></trkpt><trkpt lat="31.22561707674714" lon="-4.392463359951445"><ele>762.25</ele><time>2026-03-23T09:22:02Z</time></trkpt><trkpt lat="31.225505479776906" lon="-4.392568015421764"><ele>762.5</ele><time>2026-03-23T09:22:03Z</time></trkpt><trkpt lat="31.22539827710282" lon="-4.392676654642651"><ele>762.75</ele><time>2026-03-23T09:22:04Z</time></trkpt><trkpt lat="31.22528380262874" lon="-4.392775067330589"><ele>763.0</ele><time>2026-03-23T09:22:05Z</time></trkpt><trkpt lat="31.225163884992305" lon="-4.392868131851937"><ele>763.0</ele><time>2026-03-23T09:22:06Z</time></trkpt><trkpt lat="31.225041176730638" lon="-4.392961008348464"><ele>763.0</ele><time>2026-03-23T09:22:07Z</time></trkpt><trkpt lat="31.224923125447443" lon="-4.3930571614260066"><ele>763.0</ele><time>2026-03-23T09:22:08Z</time></trkpt><trkpt lat="31.2248339325204" lon="-4.393162478970307"><ele>763.0</ele><time>2026-03-23T09:22:09Z</time></trkpt><trkpt lat="31.224748082491324" lon="-4.3932768273645575"><ele>763.25</ele><time>2026-03-23T09:22:10Z</time></trkpt><trkpt lat="31.224657507591246" lon="-4.393379065558816"><ele>763.5</ele><time>2026-03-23T09:22:11Z</time></trkpt><trkpt lat="31.224548336189724" lon="-4.393465360802859"><ele>763.75</ele><time>2026-03-23T09:22:12Z</time></trkpt><trkpt lat="31.22444182603152" lon="-4.393533066178902"><ele>764.0</ele><time>2026-03-23T09:22:13Z</time></trkpt><trkpt lat="31.224345988226535" lon="-4.393584378508892"><ele>764.0</ele><time>2026-03-23T09:22:14Z</time></trkpt><trkpt lat="31.224261724298128" lon="-4.393629434912016"><ele>764.0</ele><time>2026-03-23T09:22:15Z</time></trkpt><trkpt lat="31.224176258241318" lon="-4.393678802831534"><ele>764.0</ele><time>2026-03-23T09:22:16Z</time></trkpt><trkpt lat="31.224085754758686" lon="-4.393726816112705"><ele>764.0</ele><time>2026-03-23T09:22:17Z</time></trkpt><trkpt lat="31.223998669550802" lon="-4.393779586670403"><ele>764.0</ele><time>2026-03-23T09:22:18Z</time></trkpt><trkpt lat="31.223929471214596" lon="-4.393828319385524"><ele>764.6</ele><time>2026-03-23T09:22:19Z</time></trkpt><trkpt lat="31.223857623380297" lon="-4.393890372321196"><ele>765.2</ele><time>2026-03-23T09:22:20Z</time></trkpt><trkpt lat="31.22378450818087" lon="-4.393938316072873"><ele>765.8000000000001</ele><time>2026-03-23T09:22:21Z</time></trkpt><trkpt lat="31.223697128136887" lon="-4.393980943903123"><ele>766.4000000000001</ele><time>2026-03-23T09:22:22Z</time></trkpt><trkpt lat="31.223600850066223" lon="-4.394026303997666"><ele>767.0</ele><time>2026-03-23T09:22:23Z</time></trkpt><trkpt lat="31.22352441830838" lon="-4.394056090995012"><ele>767.0</ele><time>2026-03-23T09:22:24Z</time></trkpt><trkpt lat="31.223454585947447" lon="-4.3940811474681185"><ele>767.0</ele><time>2026-03-23T09:22:25Z</time></trkpt><trkpt lat="31.223374477925233" lon="-4.394110172101241"><ele>767.0</ele><time>2026-03-23T09:22:26Z</time></trkpt><trkpt lat="31.223301522012992" lon="-4.394131092025001"><ele>767.0</ele><time>2026-03-23T09:22:27Z</time></trkpt><trkpt lat="31.223228716882108" lon="-4.394146056889172"><ele>767.0</ele><time>2026-03-23T09:22:28Z</time></trkpt><trkpt lat="31.223159950093205" lon="-4.394160488754355"><ele>767.0</ele><time>2026-03-23T09:22:29Z</time></trkpt><trkpt lat="31.223086859220576" lon="-4.394164854246565"><ele>767.0</ele><time>2026-03-23T09:22:30Z</time></trkpt><trkpt lat="31.223010330685952" lon="-4.394157808407409"><ele>767.4000000000001</ele><time>2026-03-23T09:22:31Z</time></trkpt><trkpt lat="31.222929291981785" lon="-4.394150917006879"><ele>767.8000000000001</ele><time>2026-03-23T09:22:32Z</time></trkpt><trkpt lat="31.222818598593566" lon="-4.394136314731966"><ele>768.2</ele><time>2026-03-23T09:22:34Z</time></trkpt><trkpt lat="31.222717839042655" lon="-4.394151257855798"><ele>768.6</ele><time>2026-03-23T09:22:36Z</time></trkpt><trkpt lat="31.222636715220073" lon="-4.39414150517034"><ele>769.0</ele><time>2026-03-23T09:22:37Z</time></trkpt><trkpt lat="31.222556829560183" lon="-4.394121102093539"><ele>769.0</ele><time>2026-03-23T09:22:38Z</time></trkpt><trkpt lat="31.222478575425146" lon="-4.394102993605683"><ele>769.0</ele><time>2026-03-23T09:22:39Z</time></trkpt><trkpt lat="31.22238899762553" lon="-4.394081490232993"><ele>769.0</ele><time>2026-03-23T09:22:40Z</time></trkpt><trkpt lat="31.2222836009773" lon="-4.394048451659632"><ele>769.0</ele><time>2026-03-23T09:22:41Z</time></trkpt><trkpt lat="31.222181461081547" lon="-4.394023428093942"><ele>769.0</ele><time>2026-03-23T09:22:42Z</time></trkpt><trkpt lat="31.222088924359763" lon="-4.394011097261322"><ele>769.0</ele><time>2026-03-23T09:22:43Z</time></trkpt><trkpt lat="31.221984591134103" lon="-4.393996342657125"><ele>769.0</ele><time>2026-03-23T09:22:44Z</time></trkpt><trkpt lat="31.221886175196413" lon="-4.393978684739985"><ele>769.0</ele><time>2026-03-23T09:22:45Z</time></trkpt><trkpt lat="31.221799566534024" lon="-4.39396401301813"><ele>769.0</ele><time>2026-03-23T09:22:46Z</time></trkpt><trkpt lat="31.221691503238002" lon="-4.393946361336453"><ele>769.0</ele><time>2026-03-23T09:22:47Z</time></trkpt><trkpt lat="31.22158492461815" lon="-4.393921746811858"><ele>769.4999999999999</ele><time>2026-03-23T09:22:48Z</time></trkpt><trkpt lat="31.221478686596964" lon="-4.3938915815063595"><ele>770.0</ele><time>2026-03-23T09:22:49Z</time></trkpt><trkpt lat="31.221414668554658" lon="-4.393873319075466"><ele>770.5</ele><time>2026-03-23T09:22:50Z</time></trkpt><trkpt lat="31.22134335074648" lon="-4.393862883522248"><ele>771.0</ele><time>2026-03-23T09:22:51Z</time></trkpt><trkpt lat="31.22127257288228" lon="-4.3938395917927355"><ele>771.4999999999999</ele><time>2026-03-23T09:22:52Z</time></trkpt><trkpt lat="31.22119145194962" lon="-4.393833487013759"><ele>772.0</ele><time>2026-03-23T09:22:53Z</time></trkpt><trkpt lat="31.221120253692433" lon="-4.393813983749921"><ele>772.0</ele><time>2026-03-23T09:22:54Z</time></trkpt><trkpt lat="31.221039865587993" lon="-4.393793445019673"><ele>772.0</ele><time>2026-03-23T09:22:55Z</time></trkpt><trkpt lat="31.22096571130748" lon="-4.393771916163362"><ele>772.0</ele><time>2026-03-23T09:22:56Z</time></trkpt><trkpt lat="31.220886365284056" lon="-4.393754970342488"><ele>772.0</ele><time>2026-03-23T09:22:57Z</time></trkpt><trkpt lat="31.220783901265232" lon="-4.393733392515007"><ele>772.0</ele><time>2026-03-23T09:22:59Z</time></trkpt><trkpt lat="31.22065898908652" lon="-4.393744017082856"><ele>771.4999999999999</ele><time>2026-03-23T09:23:01Z</time></trkpt><trkpt lat="31.22059101684729" lon="-4.3937603734674475"><ele>771.0</ele><time>2026-03-23T09:23:02Z</time></trkpt><trkpt lat="31.22051874474068" lon="-4.393788282284464"><ele>770.5</ele><time>2026-03-23T09:23:03Z</time></trkpt><trkpt lat="31.220449479763328" lon="-4.393816522478486"><ele>770.0</ele><time>2026-03-23T09:23:04Z</time></trkpt><trkpt lat="31.22034409936919" lon="-4.393870733116913"><ele>769.4999999999999</ele><time>2026-03-23T09:23:06Z</time></trkpt><trkpt lat="31.220280061550074" lon="-4.393907679536631"><ele>769.0</ele><time>2026-03-23T09:23:07Z</time></trkpt><trkpt lat="31.220169512281192" lon="-4.393911569696368"><ele>769.0</ele><time>2026-03-23T09:23:09Z</time></trkpt><trkpt lat="31.22009494027096" lon="-4.393884825201851"><ele>769.0</ele><time>2026-03-23T09:23:10Z</time></trkpt><trkpt lat="31.220017529011304" lon="-4.393844657142151"><ele>769.0</ele><time>2026-03-23T09:23:11Z</time></trkpt><trkpt lat="31.219931350025835" lon="-4.393803421876984"><ele>769.0</ele><time>2026-03-23T09:23:12Z</time></trkpt><trkpt lat="31.219814395594817" lon="-4.3937596544613635"><ele>769.0</ele><time>2026-03-23T09:23:13Z</time></trkpt><trkpt lat="31.21970991268463" lon="-4.393745552268246"><ele>768.4000000000001</ele><time>2026-03-23T09:23:14Z</time></trkpt><trkpt lat="31.21960096825406" lon="-4.393747941865001"><ele>767.8</ele><time>2026-03-23T09:23:15Z</time></trkpt><trkpt lat="31.219493768103188" lon="-4.393759306643669"><ele>767.2</ele><time>2026-03-23T09:23:16Z</time></trkpt><trkpt lat="31.21940579270795" lon="-4.393767149255418"><ele>766.5999999999999</ele><time>2026-03-23T09:23:17Z</time></trkpt><trkpt lat="31.21931161443311" lon="-4.393763779331125"><ele>766.0</ele><time>2026-03-23T09:23:18Z</time></trkpt><trkpt lat="31.219214305866892" lon="-4.3937474105888255"><ele>766.0</ele><time>2026-03-23T09:23:19Z</time></trkpt><trkpt lat="31.21910909353823" lon="-4.393728642207926"><ele>766.0</ele><time>2026-03-23T09:23:20Z</time></trkpt><trkpt lat="31.21900583449434" lon="-4.393703817371254"><ele>766.0</ele><time>2026-03-23T09:23:21Z</time></trkpt><trkpt lat="31.218910736772607" lon="-4.393671913297551"><ele>766.0</ele><time>2026-03-23T09:23:22Z</time></trkpt><trkpt lat="31.21881437931578" lon="-4.393631999851105"><ele>766.0</ele><time>2026-03-23T09:23:23Z</time></trkpt><trkpt lat="31.21872060839418" lon="-4.393599710680443"><ele>765.5999999999999</ele><time>2026-03-23T09:23:24Z</time></trkpt><trkpt lat="31.21861537632513" lon="-4.393581001371943"><ele>765.2</ele><time>2026-03-23T09:23:25Z</time></trkpt><trkpt lat="31.218518272091806" lon="-4.393553487932403"><ele>764.8</ele><time>2026-03-23T09:23:26Z</time></trkpt><trkpt lat="31.218421922115958" lon="-4.393504788185396"><ele>764.4000000000001</ele><time>2026-03-23T09:23:27Z</time></trkpt><trkpt lat="31.218327835394277" lon="-4.393471580096898"><ele>764.0</ele><time>2026-03-23T09:23:28Z</time></trkpt><trkpt lat="31.218227642449875" lon="-4.393452426577668"><ele>763.5</ele><time>2026-03-23T09:23:29Z</time></trkpt><trkpt lat="31.218108457414555" lon="-4.393434293815291"><ele>763.0</ele><time>2026-03-23T09:23:30Z</time></trkpt><trkpt lat="31.217988061421416" lon="-4.393428946927076"><ele>762.5</ele><time>2026-03-23T09:23:31Z</time></trkpt><trkpt lat="31.217876738509972" lon="-4.393419009109764"><ele>762.0</ele><time>2026-03-23T09:23:32Z</time></trkpt><trkpt lat="31.217767473027305" lon="-4.3934029021576375"><ele>762.0</ele><time>2026-03-23T09:23:33Z</time></trkpt><trkpt lat="31.217653558927246" lon="-4.393375958893703"><ele>762.0</ele><time>2026-03-23T09:23:34Z</time></trkpt><trkpt lat="31.217531128044207" lon="-4.39334810707319"><ele>762.0</ele><time>2026-03-23T09:23:35Z</time></trkpt><trkpt lat="31.217407206909897" lon="-4.393320454232517"><ele>762.0</ele><time>2026-03-23T09:23:36Z</time></trkpt><trkpt lat="31.217276286336634" lon="-4.393302654697723"><ele>761.0</ele><time>2026-03-23T09:23:37Z</time></trkpt><trkpt lat="31.217151812582912" lon="-4.393294322861481"><ele>760.0</ele><time>2026-03-23T09:23:38Z</time></trkpt><trkpt lat="31.217025686094775" lon="-4.393294515088724"><ele>759.0</ele><time>2026-03-23T09:23:39Z</time></trkpt><trkpt lat="31.21689340294022" lon="-4.393306434241792"><ele>758.0</ele><time>2026-03-23T09:23:40Z</time></trkpt><trkpt lat="31.216749479884175" lon="-4.39333784905861"><ele>758.0</ele><time>2026-03-23T09:23:41Z</time></trkpt><trkpt lat="31.21659366840298" lon="-4.393377265012459"><ele>758.0</ele><time>2026-03-23T09:23:42Z</time></trkpt><trkpt lat="31.216460622140083" lon="-4.39340924591744"><ele>758.0</ele><time>2026-03-23T09:23:43Z</time></trkpt><trkpt lat="31.216333697297376" lon="-4.393423128780553"><ele>758.0</ele><time>2026-03-23T09:23:44Z</time></trkpt><trkpt lat="31.216197267737673" lon="-4.393426787031123"><ele>757.8333333333333</ele><time>2026-03-23T09:23:45Z</time></trkpt><trkpt lat="31.21609590869822" lon="-4.393433082678417"><ele>757.6666666666666</ele><time>2026-03-23T09:23:46Z</time></trkpt><trkpt lat="31.216027726169614" lon="-4.393445246157774"><ele>757.5</ele><time>2026-03-23T09:23:47Z</time></trkpt><trkpt lat="31.215956219447555" lon="-4.393461105587624"><ele>757.3333333333334</ele><time>2026-03-23T09:23:48Z</time></trkpt><trkpt lat="31.215868013507322" lon="-4.393474029080431"><ele>757.1666666666667</ele><time>2026-03-23T09:23:49Z</time></trkpt><trkpt lat="31.215797581303086" lon="-4.393488107112297"><ele>757.0</ele><time>2026-03-23T09:23:50Z</time></trkpt><trkpt lat="31.21566081827383" lon="-4.393510017893586"><ele>757.0</ele><time>2026-03-23T09:23:52Z</time></trkpt><trkpt lat="31.21555133752829" lon="-4.39353022092298"><ele>757.0</ele><time>2026-03-23T09:23:53Z</time></trkpt><trkpt lat="31.2154341459297" lon="-4.393548424082639"><ele>757.0</ele><time>2026-03-23T09:23:54Z</time></trkpt><trkpt lat="31.215290338984627" lon="-4.393578709525331"><ele>757.0</ele><time>2026-03-23T09:23:55Z</time></trkpt><trkpt lat="31.215144412407653" lon="-4.393623106797316"><ele>757.0</ele><time>2026-03-23T09:23:56Z</time></trkpt><trkpt lat="31.21499476442649" lon="-4.393680618272021"><ele>757.0</ele><time>2026-03-23T09:23:57Z</time></trkpt><trkpt lat="31.21487288308004" lon="-4.393731382983022"><ele>757.0</ele><time>2026-03-23T09:23:58Z</time></trkpt><trkpt lat="31.21476772154951" lon="-4.393766875061408"><ele>757.0</ele><time>2026-03-23T09:23:59Z</time></trkpt><trkpt lat="31.21466439469282" lon="-4.393802266187019"><ele>756.8</ele><time>2026-03-23T09:24:00Z</time></trkpt><trkpt lat="31.214556953940285" lon="-4.393842896765343"><ele>756.6</ele><time>2026-03-23T09:24:01Z</time></trkpt><trkpt lat="31.21446306026674" lon="-4.393875875041673"><ele>756.4</ele><time>2026-03-23T09:24:02Z</time></trkpt><trkpt lat="31.21438480644577" lon="-4.39390774135377"><ele>756.1999999999999</ele><time>2026-03-23T09:24:03Z</time></trkpt><trkpt lat="31.214311800202" lon="-4.393938016744924"><ele>756.0</ele><time>2026-03-23T09:24:04Z</time></trkpt><trkpt lat="31.214239721520467" lon="-4.3939775664049785"><ele>756.0</ele><time>2026-03-23T09:24:05Z</time></trkpt><trkpt lat="31.214154779614006" lon="-4.39403806279107"><ele>756.0</ele><time>2026-03-23T09:24:06Z</time></trkpt><trkpt lat="31.214073260583834" lon="-4.394111184223284"><ele>756.0</ele><time>2026-03-23T09:24:07Z</time></trkpt><trkpt lat="31.213991535873316" lon="-4.394191979681654"><ele>756.0</ele><time>2026-03-23T09:24:08Z</time></trkpt><trkpt lat="31.213903369173273" lon="-4.394283608021355"><ele>756.0</ele><time>2026-03-23T09:24:09Z</time></trkpt><trkpt lat="31.21381524769629" lon="-4.394399771174233"><ele>756.0</ele><time>2026-03-23T09:24:10Z</time></trkpt><trkpt lat="31.213726926228425" lon="-4.394540912902564"><ele>756.0</ele><time>2026-03-23T09:24:11Z</time></trkpt><trkpt lat="31.21365154897527" lon="-4.39468123222817"><ele>756.0</ele><time>2026-03-23T09:24:12Z</time></trkpt><trkpt lat="31.213589791807628" lon="-4.3948244428087975"><ele>756.0</ele><time>2026-03-23T09:24:13Z</time></trkpt><trkpt lat="31.213542009044406" lon="-4.394960606674821"><ele>756.1999999999999</ele><time>2026-03-23T09:24:14Z</time></trkpt><trkpt lat="31.213504508949548" lon="-4.395073185907475"><ele>756.4</ele><time>2026-03-23T09:24:15Z</time></trkpt><trkpt lat="31.21347124896092" lon="-4.39517116311196"><ele>756.6</ele><time>2026-03-23T09:24:16Z</time></trkpt><trkpt lat="31.213426501599773" lon="-4.395286778562157"><ele>756.8</ele><time>2026-03-23T09:24:17Z</time></trkpt><trkpt lat="31.2133776525624" lon="-4.395420620510733"><ele>757.0</ele><time>2026-03-23T09:24:18Z</time></trkpt><trkpt lat="31.21333252549829" lon="-4.395547484034555"><ele>756.8333333333334</ele><time>2026-03-23T09:24:19Z</time></trkpt><trkpt lat="31.213291341936603" lon="-4.39566586419635"><ele>756.6666666666667</ele><time>2026-03-23T09:24:20Z</time></trkpt><trkpt lat="31.21326164373199" lon="-4.395749994574433"><ele>756.5</ele><time>2026-03-23T09:24:21Z</time></trkpt><trkpt lat="31.213235753673064" lon="-4.395851276570581"><ele>756.3333333333334</ele><time>2026-03-23T09:24:22Z</time></trkpt><trkpt lat="31.21320563964581" lon="-4.3959204980526705"><ele>756.1666666666666</ele><time>2026-03-23T09:24:23Z</time></trkpt><trkpt lat="31.213169707085363" lon="-4.3959914934406905"><ele>756.0</ele><time>2026-03-23T09:24:24Z</time></trkpt><trkpt lat="31.213126666224408" lon="-4.396108188351982"><ele>756.0</ele><time>2026-03-23T09:24:26Z</time></trkpt><trkpt lat="31.213101319416996" lon="-4.396176223549947"><ele>756.0</ele><time>2026-03-23T09:24:27Z</time></trkpt><trkpt lat="31.21304898819216" lon="-4.396309730666593"><ele>756.0</ele><time>2026-03-23T09:24:29Z</time></trkpt><trkpt lat="31.21300906157592" lon="-4.396377105096111"><ele>756.0</ele><time>2026-03-23T09:24:30Z</time></trkpt><trkpt lat="31.21295334927604" lon="-4.396437720802267"><ele>756.0</ele><time>2026-03-23T09:24:31Z</time></trkpt><trkpt lat="31.212883396062967" lon="-4.396497038270748"><ele>756.0</ele><time>2026-03-23T09:24:32Z</time></trkpt><trkpt lat="31.212813324896093" lon="-4.396546999327933"><ele>755.5999999999999</ele><time>2026-03-23T09:24:33Z</time></trkpt><trkpt lat="31.212725260507895" lon="-4.39660123655804"><ele>755.2</ele><time>2026-03-23T09:24:34Z</time></trkpt><trkpt lat="31.21262680476097" lon="-4.396670293551183"><ele>754.8</ele><time>2026-03-23T09:24:35Z</time></trkpt><trkpt lat="31.212540378491152" lon="-4.396740123193723"><ele>754.4000000000001</ele><time>2026-03-23T09:24:36Z</time></trkpt><trkpt lat="31.212437350513753" lon="-4.39678841992705"><ele>754.0</ele><time>2026-03-23T09:24:37Z</time></trkpt><trkpt lat="31.212334160379392" lon="-4.396809687923375"><ele>753.6</ele><time>2026-03-23T09:24:38Z</time></trkpt><trkpt lat="31.21224797590503" lon="-4.396801398326888"><ele>753.2</ele><time>2026-03-23T09:24:39Z</time></trkpt><trkpt lat="31.212164742976995" lon="-4.39676963106976"><ele>752.8000000000001</ele><time>2026-03-23T09:24:40Z</time></trkpt><trkpt lat="31.212061129538846" lon="-4.396730913208726"><ele>752.4000000000001</ele><time>2026-03-23T09:24:41Z</time></trkpt><trkpt lat="31.211950684961966" lon="-4.396688520874711"><ele>752.0</ele><time>2026-03-23T09:24:42Z</time></trkpt><trkpt lat="31.2118431425437" lon="-4.3966519608591375"><ele>752.0</ele><time>2026-03-23T09:24:43Z</time></trkpt><trkpt lat="31.21172691384777" lon="-4.396612734987586"><ele>752.0</ele><time>2026-03-23T09:24:44Z</time></trkpt><trkpt lat="31.21159277124078" lon="-4.396573170652573"><ele>752.0</ele><time>2026-03-23T09:24:45Z</time></trkpt><trkpt lat="31.21147601992547" lon="-4.396539333295067"><ele>752.0</ele><time>2026-03-23T09:24:46Z</time></trkpt><trkpt lat="31.2113599189549" lon="-4.396506165414924"><ele>752.0</ele><time>2026-03-23T09:24:47Z</time></trkpt><trkpt lat="31.21124355728649" lon="-4.396470882833719"><ele>752.0</ele><time>2026-03-23T09:24:48Z</time></trkpt><trkpt lat="31.211164188901815" lon="-4.396431690251742"><ele>752.0</ele><time>2026-03-23T09:24:49Z</time></trkpt><trkpt lat="31.211081247128647" lon="-4.396412441916299"><ele>752.0</ele><time>2026-03-23T09:24:50Z</time></trkpt><trkpt lat="31.210992165176926" lon="-4.396387989191901"><ele>752.0</ele><time>2026-03-23T09:24:51Z</time></trkpt><trkpt lat="31.210903018331287" lon="-4.396348357818012"><ele>752.0</ele><time>2026-03-23T09:24:52Z</time></trkpt><trkpt lat="31.21083212629765" lon="-4.396338118131256"><ele>752.0</ele><time>2026-03-23T09:24:53Z</time></trkpt><trkpt lat="31.210767904198452" lon="-4.396354828970589"><ele>752.0</ele><time>2026-03-23T09:24:54Z</time></trkpt><trkpt lat="31.210681585226514" lon="-4.396365668748061"><ele>752.0</ele><time>2026-03-23T09:24:55Z</time></trkpt><trkpt lat="31.21057307486078" lon="-4.3963569963314395"><ele>752.0</ele><time>2026-03-23T09:24:56Z</time></trkpt><trkpt lat="31.210473697506664" lon="-4.396338784568881"><ele>752.0</ele><time>2026-03-23T09:24:57Z</time></trkpt><trkpt lat="31.21038082124371" lon="-4.396325841921697"><ele>752.0</ele><time>2026-03-23T09:24:58Z</time></trkpt><trkpt lat="31.210269565731572" lon="-4.396314307413815"><ele>752.0</ele><time>2026-03-23T09:24:59Z</time></trkpt><trkpt lat="31.21014577913853" lon="-4.396299833296892"><ele>752.0</ele><time>2026-03-23T09:25:00Z</time></trkpt><trkpt lat="31.21002854310233" lon="-4.396280179420922"><ele>752.0</ele><time>2026-03-23T09:25:01Z</time></trkpt><trkpt lat="31.209911537194976" lon="-4.396271415139073"><ele>751.5</ele><time>2026-03-23T09:25:02Z</time></trkpt><trkpt lat="31.20978427747952" lon="-4.396274461512364"><ele>751.0</ele><time>2026-03-23T09:25:03Z</time></trkpt><trkpt lat="31.20964965608752" lon="-4.3962850315141315"><ele>750.5</ele><time>2026-03-23T09:25:04Z</time></trkpt><trkpt lat="31.20950939157421" lon="-4.3962882729625745"><ele>750.0</ele><time>2026-03-23T09:25:05Z</time></trkpt><trkpt lat="31.209360599209703" lon="-4.396282964142852"><ele>750.0</ele><time>2026-03-23T09:25:06Z</time></trkpt><trkpt lat="31.209212599637468" lon="-4.396274059890955"><ele>750.0</ele><time>2026-03-23T09:25:07Z</time></trkpt><trkpt lat="31.20905999945564" lon="-4.3962560757809195"><ele>750.0</ele><time>2026-03-23T09:25:08Z</time></trkpt><trkpt lat="31.20890336029628" lon="-4.396230301246206"><ele>750.25</ele><time>2026-03-23T09:25:09Z</time></trkpt><trkpt lat="31.208769019365207" lon="-4.3961959405125"><ele>750.5</ele><time>2026-03-23T09:25:10Z</time></trkpt><trkpt lat="31.20864760758959" lon="-4.396158189461853"><ele>750.75</ele><time>2026-03-23T09:25:11Z</time></trkpt><trkpt lat="31.208517552323862" lon="-4.396131443663786"><ele>751.0</ele><time>2026-03-23T09:25:12Z</time></trkpt><trkpt lat="31.208388168665724" lon="-4.3961093239609825"><ele>751.0</ele><time>2026-03-23T09:25:13Z</time></trkpt><trkpt lat="31.20825443977912" lon="-4.396078768473609"><ele>751.0</ele><time>2026-03-23T09:25:14Z</time></trkpt><trkpt lat="31.20811992144784" lon="-4.396043041153555"><ele>751.0</ele><time>2026-03-23T09:25:15Z</time></trkpt><trkpt lat="31.207990953900772" lon="-4.396004152011087"><ele>751.0</ele><time>2026-03-23T09:25:16Z</time></trkpt><trkpt lat="31.207859441346383" lon="-4.395967588565712"><ele>750.25</ele><time>2026-03-23T09:25:17Z</time></trkpt><trkpt lat="31.20772461257863" lon="-4.395940195214551"><ele>749.5</ele><time>2026-03-23T09:25:18Z</time></trkpt><trkpt lat="31.207583063331036" lon="-4.395918503068258"><ele>748.75</ele><time>2026-03-23T09:25:19Z</time></trkpt><trkpt lat="31.20744417526801" lon="-4.395904309236878"><ele>748.0</ele><time>2026-03-23T09:25:20Z</time></trkpt><trkpt lat="31.20731448255377" lon="-4.3958951266413395"><ele>747.75</ele><time>2026-03-23T09:25:21Z</time></trkpt><trkpt lat="31.2071941923076" lon="-4.395893130908686"><ele>747.5</ele><time>2026-03-23T09:25:22Z</time></trkpt><trkpt lat="31.20706739256845" lon="-4.395886821352208"><ele>747.25</ele><time>2026-03-23T09:25:23Z</time></trkpt><trkpt lat="31.20693023699581" lon="-4.395876675593088"><ele>747.0</ele><time>2026-03-23T09:25:24Z</time></trkpt><trkpt lat="31.206787295468114" lon="-4.395885374197243"><ele>747.0</ele><time>2026-03-23T09:25:25Z</time></trkpt><trkpt lat="31.206644226739034" lon="-4.395909092283965"><ele>747.0</ele><time>2026-03-23T09:25:26Z</time></trkpt><trkpt lat="31.20652407703731" lon="-4.395926305797901"><ele>747.0</ele><time>2026-03-23T09:25:27Z</time></trkpt><trkpt lat="31.206420710536804" lon="-4.395939973933355"><ele>747.0</ele><time>2026-03-23T09:25:28Z</time></trkpt><trkpt lat="31.206331555074826" lon="-4.3959506113947295"><ele>746.6</ele><time>2026-03-23T09:25:29Z</time></trkpt><trkpt lat="31.206251721850588" lon="-4.395956213475955"><ele>746.2</ele><time>2026-03-23T09:25:30Z</time></trkpt><trkpt lat="31.206159165446927" lon="-4.395961328138018"><ele>745.8</ele><time>2026-03-23T09:25:31Z</time></trkpt><trkpt lat="31.206046717108038" lon="-4.395982867645758"><ele>745.4</ele><time>2026-03-23T09:25:32Z</time></trkpt><trkpt lat="31.20592520209126" lon="-4.396001966838189"><ele>745.0</ele><time>2026-03-23T09:25:33Z</time></trkpt><trkpt lat="31.20580350976259" lon="-4.396019835980813"><ele>745.0</ele><time>2026-03-23T09:25:34Z</time></trkpt><trkpt lat="31.20567212680566" lon="-4.396046562680782"><ele>745.0</ele><time>2026-03-23T09:25:35Z</time></trkpt><trkpt lat="31.205533323138173" lon="-4.396105218995167"><ele>745.0</ele><time>2026-03-23T09:25:36Z</time></trkpt><trkpt lat="31.205386123583096" lon="-4.396155416618788"><ele>745.0</ele><time>2026-03-23T09:25:37Z</time></trkpt><trkpt lat="31.205237571303474" lon="-4.396246568649051"><ele>745.3333333333334</ele><time>2026-03-23T09:25:38Z</time></trkpt><trkpt lat="31.205104330383268" lon="-4.396386766268588"><ele>745.6666666666666</ele><time>2026-03-23T09:25:39Z</time></trkpt><trkpt lat="31.204975002132926" lon="-4.39648272675781"><ele>746.0</ele><time>2026-03-23T09:25:40Z</time></trkpt><trkpt lat="31.20487131843781" lon="-4.3965856036228255"><ele>745.6666666666666</ele><time>2026-03-23T09:25:41Z</time></trkpt><trkpt lat="31.204747881392752" lon="-4.396699867506481"><ele>745.3333333333334</ele><time>2026-03-23T09:25:42Z</time></trkpt><trkpt lat="31.204617551836368" lon="-4.396820511683788"><ele>745.0</ele><time>2026-03-23T09:25:43Z</time></trkpt><trkpt lat="31.204475569299248" lon="-4.396951859560896"><ele>745.0</ele><time>2026-03-23T09:25:44Z</time></trkpt><trkpt lat="31.204327994813433" lon="-4.397088311279929"><ele>745.0</ele><time>2026-03-23T09:25:45Z</time></trkpt><trkpt lat="31.204190583212597" lon="-4.397215366111524"><ele>745.0</ele><time>2026-03-23T09:25:46Z</time></trkpt><trkpt lat="31.204056105292523" lon="-4.397339582468121"><ele>744.0</ele><time>2026-03-23T09:25:47Z</time></trkpt><trkpt lat="31.203909708413768" lon="-4.397474381009273"><ele>743.0</ele><time>2026-03-23T09:25:48Z</time></trkpt><trkpt lat="31.20377099455809" lon="-4.397602543565845"><ele>742.0</ele><time>2026-03-23T09:25:49Z</time></trkpt><trkpt lat="31.203630118665508" lon="-4.397732940297859"><ele>742.0</ele><time>2026-03-23T09:25:50Z</time></trkpt><trkpt lat="31.20350103935563" lon="-4.397852456638502"><ele>742.0</ele><time>2026-03-23T09:25:51Z</time></trkpt><trkpt lat="31.203394410097886" lon="-4.397951228776462"><ele>742.0</ele><time>2026-03-23T09:25:52Z</time></trkpt><trkpt lat="31.203299778162176" lon="-4.398038922245095"><ele>742.0</ele><time>2026-03-23T09:25:53Z</time></trkpt><trkpt lat="31.20321602619111" lon="-4.398116533475789"><ele>742.5</ele><time>2026-03-23T09:25:54Z</time></trkpt><trkpt lat="31.203129858311012" lon="-4.39819648593023"><ele>743.0</ele><time>2026-03-23T09:25:55Z</time></trkpt><trkpt lat="31.203033360730764" lon="-4.398285507571565"><ele>743.5</ele><time>2026-03-23T09:25:56Z</time></trkpt><trkpt lat="31.202930537505704" lon="-4.398380221348286"><ele>744.0</ele><time>2026-03-23T09:25:57Z</time></trkpt><trkpt lat="31.20281204551847" lon="-4.398471458136572"><ele>744.0</ele><time>2026-03-23T09:25:58Z</time></trkpt><trkpt lat="31.202708071945022" lon="-4.398603845311613"><ele>744.0</ele><time>2026-03-23T09:25:59Z</time></trkpt><trkpt lat="31.20259930509064" lon="-4.398718962123923"><ele>744.0</ele><time>2026-03-23T09:26:00Z</time></trkpt><trkpt lat="31.202485781596227" lon="-4.398839114034228"><ele>744.3333333333334</ele><time>2026-03-23T09:26:01Z</time></trkpt><trkpt lat="31.202356827424037" lon="-4.39897559757954"><ele>744.6666666666667</ele><time>2026-03-23T09:26:02Z</time></trkpt><trkpt lat="31.202221614502395" lon="-4.399118771172051"><ele>745.0</ele><time>2026-03-23T09:26:03Z</time></trkpt><trkpt lat="31.20207005643584" lon="-4.399278752879699"><ele>745.0</ele><time>2026-03-23T09:26:04Z</time></trkpt><trkpt lat="31.20191127340008" lon="-4.399446175159512"><ele>745.0</ele><time>2026-03-23T09:26:05Z</time></trkpt><trkpt lat="31.20176816058846" lon="-4.3995969893279625"><ele>745.0</ele><time>2026-03-23T09:26:06Z</time></trkpt><trkpt lat="31.201628674785038" lon="-4.399735855805004"><ele>744.6666666666667</ele><time>2026-03-23T09:26:07Z</time></trkpt><trkpt lat="31.201495869446124" lon="-4.399863057450975"><ele>744.3333333333334</ele><time>2026-03-23T09:26:08Z</time></trkpt><trkpt lat="31.20136242313324" lon="-4.399990873027794"><ele>744.0</ele><time>2026-03-23T09:26:09Z</time></trkpt><trkpt lat="31.201230234618407" lon="-4.4001174838858645"><ele>744.0</ele><time>2026-03-23T09:26:10Z</time></trkpt><trkpt lat="31.201095011906755" lon="-4.400247000911802"><ele>744.0</ele><time>2026-03-23T09:26:11Z</time></trkpt><trkpt lat="31.200950231660897" lon="-4.400385892021084"><ele>744.0</ele><time>2026-03-23T09:26:12Z</time></trkpt><trkpt lat="31.200810149997956" lon="-4.400520328943367"><ele>743.3333333333334</ele><time>2026-03-23T09:26:13Z</time></trkpt><trkpt lat="31.20065987177665" lon="-4.400664429290717"><ele>742.6666666666667</ele><time>2026-03-23T09:26:14Z</time></trkpt><trkpt lat="31.200511622881088" lon="-4.400806265867253"><ele>742.0</ele><time>2026-03-23T09:26:15Z</time></trkpt><trkpt lat="31.200374760941557" lon="-4.40093653518362"><ele>742.0</ele><time>2026-03-23T09:26:16Z</time></trkpt><trkpt lat="31.200239260019227" lon="-4.401037503808038"><ele>742.0</ele><time>2026-03-23T09:26:17Z</time></trkpt><trkpt lat="31.200113893012073" lon="-4.4011626994901185"><ele>742.0</ele><time>2026-03-23T09:26:18Z</time></trkpt><trkpt lat="31.19998396884144" lon="-4.401291892403111"><ele>742.0</ele><time>2026-03-23T09:26:19Z</time></trkpt><trkpt lat="31.199847833852573" lon="-4.401419608847449"><ele>742.0</ele><time>2026-03-23T09:26:20Z</time></trkpt><trkpt lat="31.19970920282809" lon="-4.40153445703529"><ele>742.0</ele><time>2026-03-23T09:26:21Z</time></trkpt><trkpt lat="31.199570427314875" lon="-4.401677588894898"><ele>742.0</ele><time>2026-03-23T09:26:22Z</time></trkpt><trkpt lat="31.19942205321051" lon="-4.401817119870936"><ele>742.0</ele><time>2026-03-23T09:26:23Z</time></trkpt><trkpt lat="31.19928330000226" lon="-4.40196563078138"><ele>742.0</ele><time>2026-03-23T09:26:24Z</time></trkpt><trkpt lat="31.199135330336592" lon="-4.402124006307207"><ele>741.6666666666667</ele><time>2026-03-23T09:26:25Z</time></trkpt><trkpt lat="31.198989059500363" lon="-4.402280563524469"><ele>741.3333333333334</ele><time>2026-03-23T09:26:26Z</time></trkpt><trkpt lat="31.198838056369834" lon="-4.402419568070649"><ele>741.0</ele><time>2026-03-23T09:26:27Z</time></trkpt><trkpt lat="31.198702694002968" lon="-4.4025722918645736"><ele>741.0</ele><time>2026-03-23T09:26:28Z</time></trkpt><trkpt lat="31.198561976401937" lon="-4.402727884132743"><ele>741.0</ele><time>2026-03-23T09:26:29Z</time></trkpt><trkpt lat="31.198429957203302" lon="-4.402878606187481"><ele>741.0</ele><time>2026-03-23T09:26:30Z</time></trkpt><trkpt lat="31.198293895038784" lon="-4.403031118627537"><ele>741.0</ele><time>2026-03-23T09:26:31Z</time></trkpt><trkpt lat="31.198159747702913" lon="-4.4031822094393585"><ele>741.0</ele><time>2026-03-23T09:26:32Z</time></trkpt><trkpt lat="31.198047771141233" lon="-4.403304993595534"><ele>741.0</ele><time>2026-03-23T09:26:33Z</time></trkpt><trkpt lat="31.197946938741516" lon="-4.403415872140268"><ele>741.0</ele><time>2026-03-23T09:26:34Z</time></trkpt><trkpt lat="31.19785245577739" lon="-4.403517655719029"><ele>741.0</ele><time>2026-03-23T09:26:35Z</time></trkpt><trkpt lat="31.197763283396057" lon="-4.403609552673131"><ele>741.0</ele><time>2026-03-23T09:26:36Z</time></trkpt><trkpt lat="31.197679454271693" lon="-4.403701276853251"><ele>741.0</ele><time>2026-03-23T09:26:37Z</time></trkpt><trkpt lat="31.197589198913995" lon="-4.403816334661584"><ele>741.5</ele><time>2026-03-23T09:26:38Z</time></trkpt><trkpt lat="31.19748848714565" lon="-4.403931191024227"><ele>742.0</ele><time>2026-03-23T09:26:39Z</time></trkpt><trkpt lat="31.19738582710595" lon="-4.404043056607615"><ele>742.5</ele><time>2026-03-23T09:26:40Z</time></trkpt><trkpt lat="31.197294820840142" lon="-4.404176739169917"><ele>743.0</ele><time>2026-03-23T09:26:41Z</time></trkpt><trkpt lat="31.197195296178485" lon="-4.404299963955616"><ele>741.6666666666666</ele><time>2026-03-23T09:26:42Z</time></trkpt><trkpt lat="31.197095756141668" lon="-4.404433085861636"><ele>740.3333333333334</ele><time>2026-03-23T09:26:43Z</time></trkpt><trkpt lat="31.196995412969166" lon="-4.4045667815982315"><ele>739.0</ele><time>2026-03-23T09:26:44Z</time></trkpt><trkpt lat="31.196890583446773" lon="-4.404706956945615"><ele>738.3333333333334</ele><time>2026-03-23T09:26:45Z</time></trkpt><trkpt lat="31.196770588973866" lon="-4.404845714331599"><ele>737.6666666666666</ele><time>2026-03-23T09:26:46Z</time></trkpt><trkpt lat="31.196643112130403" lon="-4.404981327992704"><ele>737.0</ele><time>2026-03-23T09:26:47Z</time></trkpt><trkpt lat="31.196512958413415" lon="-4.40511978938887"><ele>737.3333333333333</ele><time>2026-03-23T09:26:48Z</time></trkpt><trkpt lat="31.196377673803994" lon="-4.405263709187103"><ele>737.6666666666666</ele><time>2026-03-23T09:26:49Z</time></trkpt><trkpt lat="31.19625131229091" lon="-4.40539811240388"><ele>738.0</ele><time>2026-03-23T09:26:50Z</time></trkpt><trkpt lat="31.196132434569957" lon="-4.4055243057061215"><ele>738.0</ele><time>2026-03-23T09:26:51Z</time></trkpt><trkpt lat="31.196011098167208" lon="-4.405653288378859"><ele>738.0</ele><time>2026-03-23T09:26:52Z</time></trkpt><trkpt lat="31.195896251777814" lon="-4.405775382783744"><ele>738.0</ele><time>2026-03-23T09:26:53Z</time></trkpt><trkpt lat="31.195768346420547" lon="-4.405911235114213"><ele>737.6666666666666</ele><time>2026-03-23T09:26:54Z</time></trkpt><trkpt lat="31.19563641679838" lon="-4.406051308812579"><ele>737.3333333333333</ele><time>2026-03-23T09:26:55Z</time></trkpt><trkpt lat="31.195507393642853" lon="-4.406188296614698"><ele>737.0</ele><time>2026-03-23T09:26:56Z</time></trkpt><trkpt lat="31.195379678820085" lon="-4.40632389532756"><ele>736.6666666666666</ele><time>2026-03-23T09:26:57Z</time></trkpt><trkpt lat="31.19525534535128" lon="-4.406455903941136"><ele>736.3333333333334</ele><time>2026-03-23T09:26:58Z</time></trkpt><trkpt lat="31.19513905778417" lon="-4.406593919268621"><ele>736.0</ele><time>2026-03-23T09:26:59Z</time></trkpt><trkpt lat="31.19502391997011" lon="-4.406733778798125"><ele>736.0</ele><time>2026-03-23T09:27:00Z</time></trkpt><trkpt lat="31.194907459985888" lon="-4.406875244384006"><ele>736.0</ele><time>2026-03-23T09:27:01Z</time></trkpt><trkpt lat="31.19478339801629" lon="-4.4070259442177235"><ele>736.0</ele><time>2026-03-23T09:27:02Z</time></trkpt><trkpt lat="31.194658349050023" lon="-4.407176984244636"><ele>736.0</ele><time>2026-03-23T09:27:03Z</time></trkpt><trkpt lat="31.19452901411676" lon="-4.40733351196785"><ele>736.0</ele><time>2026-03-23T09:27:04Z</time></trkpt><trkpt lat="31.194390872225142" lon="-4.407500193442246"><ele>736.0</ele><time>2026-03-23T09:27:05Z</time></trkpt><trkpt lat="31.19424870591204" lon="-4.4076731769716"><ele>736.0</ele><time>2026-03-23T09:27:06Z</time></trkpt><trkpt lat="31.194091548295948" lon="-4.407831747464843"><ele>736.0</ele><time>2026-03-23T09:27:07Z</time></trkpt><trkpt lat="31.193949564728907" lon="-4.407973680365589"><ele>736.0</ele><time>2026-03-23T09:27:08Z</time></trkpt><trkpt lat="31.193817665975136" lon="-4.4081052938611816"><ele>736.6666666666667</ele><time>2026-03-23T09:27:09Z</time></trkpt><trkpt lat="31.193695511238445" lon="-4.408227184423986"><ele>737.3333333333334</ele><time>2026-03-23T09:27:10Z</time></trkpt><trkpt lat="31.193577697358204" lon="-4.408344743518921"><ele>738.0</ele><time>2026-03-23T09:27:11Z</time></trkpt><trkpt lat="31.19347225089249" lon="-4.408450402095094"><ele>738.0</ele><time>2026-03-23T09:27:12Z</time></trkpt><trkpt lat="31.19336027539227" lon="-4.4085629839247344"><ele>738.0</ele><time>2026-03-23T09:27:13Z</time></trkpt><trkpt lat="31.193250902129986" lon="-4.4086857698344835"><ele>738.0</ele><time>2026-03-23T09:27:14Z</time></trkpt><trkpt lat="31.193137966116932" lon="-4.40881255537454"><ele>738.3333333333334</ele><time>2026-03-23T09:27:15Z</time></trkpt><trkpt lat="31.193021895576745" lon="-4.408942667901789"><ele>738.6666666666667</ele><time>2026-03-23T09:27:16Z</time></trkpt><trkpt lat="31.19290422702398" lon="-4.409074834586779"><ele>739.0</ele><time>2026-03-23T09:27:17Z</time></trkpt><trkpt lat="31.19277675974101" lon="-4.40920807789768"><ele>739.0</ele><time>2026-03-23T09:27:18Z</time></trkpt><trkpt lat="31.1926511574989" lon="-4.40933486185152"><ele>739.0</ele><time>2026-03-23T09:27:19Z</time></trkpt><trkpt lat="31.192528030240712" lon="-4.409459147275026"><ele>739.0</ele><time>2026-03-23T09:27:20Z</time></trkpt><trkpt lat="31.192393729572835" lon="-4.409584250901088"><ele>738.0</ele><time>2026-03-23T09:27:21Z</time></trkpt><trkpt lat="31.192263622643072" lon="-4.409695684649606"><ele>737.0</ele><time>2026-03-23T09:27:22Z</time></trkpt><trkpt lat="31.192133848824014" lon="-4.409807354271886"><ele>736.0</ele><time>2026-03-23T09:27:23Z</time></trkpt><trkpt lat="31.19200146613052" lon="-4.409921346881884"><ele>736.0</ele><time>2026-03-23T09:27:24Z</time></trkpt><trkpt lat="31.191868466333055" lon="-4.410035870906179"><ele>736.0</ele><time>2026-03-23T09:27:25Z</time></trkpt><trkpt lat="31.191742551913197" lon="-4.410155277326502"><ele>736.0</ele><time>2026-03-23T09:27:26Z</time></trkpt><trkpt lat="31.19160351098545" lon="-4.410290916831864"><ele>736.3333333333334</ele><time>2026-03-23T09:27:27Z</time></trkpt><trkpt lat="31.191471940732555" lon="-4.4104216421345415"><ele>736.6666666666666</ele><time>2026-03-23T09:27:28Z</time></trkpt><trkpt lat="31.19134712668489" lon="-4.410553315903594"><ele>737.0</ele><time>2026-03-23T09:27:29Z</time></trkpt><trkpt lat="31.19121407830987" lon="-4.410693145717509"><ele>737.3333333333333</ele><time>2026-03-23T09:27:30Z</time></trkpt><trkpt lat="31.191095958913543" lon="-4.410822700367956"><ele>737.6666666666666</ele><time>2026-03-23T09:27:31Z</time></trkpt><trkpt lat="31.190967186767477" lon="-4.410951003490595"><ele>738.0</ele><time>2026-03-23T09:27:32Z</time></trkpt><trkpt lat="31.190863119425835" lon="-4.411095825601238"><ele>738.0</ele><time>2026-03-23T09:27:33Z</time></trkpt><trkpt lat="31.190795936470582" lon="-4.411246221999964"><ele>738.0</ele><time>2026-03-23T09:27:34Z</time></trkpt><trkpt lat="31.19074599277672" lon="-4.411373168052167"><ele>738.0</ele><time>2026-03-23T09:27:35Z</time></trkpt><trkpt lat="31.190621215780393" lon="-4.4114750708896615"><ele>738.0</ele><time>2026-03-23T09:27:36Z</time></trkpt><trkpt lat="31.19053300178523" lon="-4.411537964743562"><ele>737.75</ele><time>2026-03-23T09:27:37Z</time></trkpt><trkpt lat="31.190433745734293" lon="-4.411608648854045"><ele>737.5</ele><time>2026-03-23T09:27:38Z</time></trkpt><trkpt lat="31.19032793379027" lon="-4.411687693226724"><ele>737.25</ele><time>2026-03-23T09:27:39Z</time></trkpt><trkpt lat="31.190239538568488" lon="-4.4117818253387755"><ele>737.0</ele><time>2026-03-23T09:27:40Z</time></trkpt><trkpt lat="31.190151970993146" lon="-4.411886456267554"><ele>737.0</ele><time>2026-03-23T09:27:41Z</time></trkpt><trkpt lat="31.190059808713006" lon="-4.412018152434868"><ele>737.0</ele><time>2026-03-23T09:27:42Z</time></trkpt><trkpt lat="31.189942331118278" lon="-4.4121407350668225"><ele>737.0</ele><time>2026-03-23T09:27:43Z</time></trkpt><trkpt lat="31.189832685115235" lon="-4.412281226511142"><ele>736.6666666666666</ele><time>2026-03-23T09:27:44Z</time></trkpt><trkpt lat="31.189734280661753" lon="-4.412406897682206"><ele>736.3333333333334</ele><time>2026-03-23T09:27:45Z</time></trkpt><trkpt lat="31.18963199695883" lon="-4.412532689575529"><ele>736.0</ele><time>2026-03-23T09:27:46Z</time></trkpt><trkpt lat="31.189523720919038" lon="-4.412665077825113"><ele>736.0</ele><time>2026-03-23T09:27:47Z</time></trkpt><trkpt lat="31.18940515997323" lon="-4.412797255614363"><ele>736.0</ele><time>2026-03-23T09:27:48Z</time></trkpt><trkpt lat="31.189278141322706" lon="-4.412939014796947"><ele>736.0</ele><time>2026-03-23T09:27:49Z</time></trkpt><trkpt lat="31.189149826198218" lon="-4.413082802971947"><ele>735.6666666666667</ele><time>2026-03-23T09:27:50Z</time></trkpt><trkpt lat="31.18903920655344" lon="-4.413229693067003"><ele>735.3333333333334</ele><time>2026-03-23T09:27:51Z</time></trkpt><trkpt lat="31.188901598785822" lon="-4.413362128438522"><ele>735.0</ele><time>2026-03-23T09:27:52Z</time></trkpt><trkpt lat="31.188778751525184" lon="-4.413503742868365"><ele>735.0</ele><time>2026-03-23T09:27:53Z</time></trkpt><trkpt lat="31.188638929502936" lon="-4.41366190914348"><ele>735.0</ele><time>2026-03-23T09:27:54Z</time></trkpt><trkpt lat="31.18852190170139" lon="-4.413820740827275"><ele>735.0</ele><time>2026-03-23T09:27:55Z</time></trkpt><trkpt lat="31.188399784518744" lon="-4.413960085701905"><ele>735.0</ele><time>2026-03-23T09:27:56Z</time></trkpt><trkpt lat="31.18827238143441" lon="-4.414105597691421"><ele>735.0</ele><time>2026-03-23T09:27:57Z</time></trkpt><trkpt lat="31.18813976939829" lon="-4.414256203681798"><ele>735.0</ele><time>2026-03-23T09:27:58Z</time></trkpt><trkpt lat="31.18800084730982" lon="-4.414414609353778"><ele>735.0</ele><time>2026-03-23T09:27:59Z</time></trkpt><trkpt lat="31.187867789284596" lon="-4.4145664426521884"><ele>735.0</ele><time>2026-03-23T09:28:00Z</time></trkpt><trkpt lat="31.18775446561581" lon="-4.414695836623658"><ele>735.0</ele><time>2026-03-23T09:28:01Z</time></trkpt><trkpt lat="31.187648817411016" lon="-4.414816466947117"><ele>734.6666666666666</ele><time>2026-03-23T09:28:02Z</time></trkpt><trkpt lat="31.187540438018452" lon="-4.4149402161989775"><ele>734.3333333333333</ele><time>2026-03-23T09:28:03Z</time></trkpt><trkpt lat="31.18743112174745" lon="-4.41506473583388"><ele>734.0</ele><time>2026-03-23T09:28:04Z</time></trkpt><trkpt lat="31.18732659228296" lon="-4.415187919416718"><ele>734.6666666666666</ele><time>2026-03-23T09:28:05Z</time></trkpt><trkpt lat="31.187216430615166" lon="-4.415320094948339"><ele>735.3333333333334</ele><time>2026-03-23T09:28:06Z</time></trkpt><trkpt lat="31.187099547523705" lon="-4.415460334531398"><ele>736.0</ele><time>2026-03-23T09:28:07Z</time></trkpt><trkpt lat="31.18699797099401" lon="-4.415582208909226"><ele>736.5</ele><time>2026-03-23T09:28:08Z</time></trkpt><trkpt lat="31.18690684397654" lon="-4.415691545639552"><ele>737.0</ele><time>2026-03-23T09:28:09Z</time></trkpt><trkpt lat="31.186822612630355" lon="-4.415792608772488"><ele>737.5</ele><time>2026-03-23T09:28:10Z</time></trkpt><trkpt lat="31.186728410034828" lon="-4.415905635678273"><ele>738.0</ele><time>2026-03-23T09:28:11Z</time></trkpt><trkpt lat="31.18661839697815" lon="-4.416027650007628"><ele>738.0</ele><time>2026-03-23T09:28:12Z</time></trkpt><trkpt lat="31.18652279481882" lon="-4.416172252130986"><ele>738.0</ele><time>2026-03-23T09:28:13Z</time></trkpt><trkpt lat="31.186418861339018" lon="-4.416278790133321"><ele>738.0</ele><time>2026-03-23T09:28:14Z</time></trkpt><trkpt lat="31.18635022133072" lon="-4.4163982040537935"><ele>738.0</ele><time>2026-03-23T09:28:15Z</time></trkpt><trkpt lat="31.18626984510024" lon="-4.416503968142275"><ele>738.0</ele><time>2026-03-23T09:28:16Z</time></trkpt><trkpt lat="31.186183168922913" lon="-4.416617697110799"><ele>738.0</ele><time>2026-03-23T09:28:17Z</time></trkpt><trkpt lat="31.186089103234714" lon="-4.416740168866421"><ele>738.0</ele><time>2026-03-23T09:28:18Z</time></trkpt><trkpt lat="31.185963643712586" lon="-4.4168594192956006"><ele>738.0</ele><time>2026-03-23T09:28:19Z</time></trkpt><trkpt lat="31.18584240071384" lon="-4.416975913518184"><ele>738.0</ele><time>2026-03-23T09:28:20Z</time></trkpt><trkpt lat="31.18572004402412" lon="-4.417095293191997"><ele>738.0</ele><time>2026-03-23T09:28:21Z</time></trkpt><trkpt lat="31.185595562129013" lon="-4.417215058292723"><ele>738.0</ele><time>2026-03-23T09:28:22Z</time></trkpt><trkpt lat="31.185454507075264" lon="-4.4173258114239236"><ele>738.3333333333334</ele><time>2026-03-23T09:28:23Z</time></trkpt><trkpt lat="31.185329933522222" lon="-4.4174624238566995"><ele>738.6666666666667</ele><time>2026-03-23T09:28:24Z</time></trkpt><trkpt lat="31.185199206482014" lon="-4.4176065530123365"><ele>739.0</ele><time>2026-03-23T09:28:25Z</time></trkpt><trkpt lat="31.185049725208817" lon="-4.4177416501703215"><ele>739.0</ele><time>2026-03-23T09:28:26Z</time></trkpt><trkpt lat="31.18492632367381" lon="-4.417914222182483"><ele>739.0</ele><time>2026-03-23T09:28:27Z</time></trkpt><trkpt lat="31.184818067806894" lon="-4.418097775856264"><ele>739.0</ele><time>2026-03-23T09:28:28Z</time></trkpt><trkpt lat="31.184703383833618" lon="-4.418274161999374"><ele>739.0</ele><time>2026-03-23T09:28:29Z</time></trkpt><trkpt lat="31.1845873668364" lon="-4.4184526456649245"><ele>739.0</ele><time>2026-03-23T09:28:30Z</time></trkpt><trkpt lat="31.184471923265974" lon="-4.418630356047502"><ele>739.0</ele><time>2026-03-23T09:28:31Z</time></trkpt><trkpt lat="31.18435138274682" lon="-4.418815681475992"><ele>738.3333333333334</ele><time>2026-03-23T09:28:32Z</time></trkpt><trkpt lat="31.184232741685218" lon="-4.418999876875159"><ele>737.6666666666666</ele><time>2026-03-23T09:28:33Z</time></trkpt><trkpt lat="31.184113638854438" lon="-4.419162418109374"><ele>737.0</ele><time>2026-03-23T09:28:34Z</time></trkpt><trkpt lat="31.184023216814502" lon="-4.419349671576252"><ele>737.0</ele><time>2026-03-23T09:28:35Z</time></trkpt><trkpt lat="31.183920060514804" lon="-4.419526340238951"><ele>737.0</ele><time>2026-03-23T09:28:36Z</time></trkpt><trkpt lat="31.183817414507303" lon="-4.419702134971218"><ele>737.0</ele><time>2026-03-23T09:28:37Z</time></trkpt><trkpt lat="31.183729927116488" lon="-4.419851968602701"><ele>737.0</ele><time>2026-03-23T09:28:38Z</time></trkpt><trkpt lat="31.183631980520193" lon="-4.419999039817759"><ele>737.0</ele><time>2026-03-23T09:28:39Z</time></trkpt><trkpt lat="31.183527770915997" lon="-4.420123747857627"><ele>737.0</ele><time>2026-03-23T09:28:40Z</time></trkpt><trkpt lat="31.183433624479434" lon="-4.420236559490597"><ele>737.0</ele><time>2026-03-23T09:28:41Z</time></trkpt><trkpt lat="31.183364499355957" lon="-4.420319300190637"><ele>737.0</ele><time>2026-03-23T09:28:42Z</time></trkpt><trkpt lat="31.18330600035212" lon="-4.420389317616462"><ele>737.0</ele><time>2026-03-23T09:28:43Z</time></trkpt><trkpt lat="31.18324103779426" lon="-4.420467071295753"><ele>737.0</ele><time>2026-03-23T09:28:44Z</time></trkpt><trkpt lat="31.183169452244844" lon="-4.420552733531564"><ele>737.0</ele><time>2026-03-23T09:28:45Z</time></trkpt><trkpt lat="31.1830866071952" lon="-4.420651820678671"><ele>737.0</ele><time>2026-03-23T09:28:46Z</time></trkpt><trkpt lat="31.18299208338802" lon="-4.420764876301745"><ele>737.6666666666666</ele><time>2026-03-23T09:28:47Z</time></trkpt><trkpt lat="31.182874627828244" lon="-4.420906310759632"><ele>738.3333333333334</ele><time>2026-03-23T09:28:48Z</time></trkpt><trkpt lat="31.18273726591076" lon="-4.421048438573775"><ele>739.0</ele><time>2026-03-23T09:28:49Z</time></trkpt><trkpt lat="31.182607066329684" lon="-4.421213130735186"><ele>738.3333333333334</ele><time>2026-03-23T09:28:50Z</time></trkpt><trkpt lat="31.18246477351259" lon="-4.421392889301617"><ele>737.6666666666666</ele><time>2026-03-23T09:28:51Z</time></trkpt><trkpt lat="31.182337406401523" lon="-4.421545749976671"><ele>737.0</ele><time>2026-03-23T09:28:52Z</time></trkpt><trkpt lat="31.182215563733017" lon="-4.4217206543949334"><ele>736.6666666666666</ele><time>2026-03-23T09:28:53Z</time></trkpt><trkpt lat="31.182080920767596" lon="-4.421876067303639"><ele>736.3333333333334</ele><time>2026-03-23T09:28:54Z</time></trkpt><trkpt lat="31.1819442144405" lon="-4.4220431135968585"><ele>736.0</ele><time>2026-03-23T09:28:55Z</time></trkpt><trkpt lat="31.18181351476366" lon="-4.4221924457706026"><ele>736.0</ele><time>2026-03-23T09:28:56Z</time></trkpt><trkpt lat="31.181680424742876" lon="-4.422334302187441"><ele>736.0</ele><time>2026-03-23T09:28:57Z</time></trkpt><trkpt lat="31.181549298267413" lon="-4.422484278368881"><ele>736.0</ele><time>2026-03-23T09:28:58Z</time></trkpt><trkpt lat="31.181441023701566" lon="-4.422643896483125"><ele>735.6666666666667</ele><time>2026-03-23T09:28:59Z</time></trkpt><trkpt lat="31.181325174731743" lon="-4.422785906853479"><ele>735.3333333333334</ele><time>2026-03-23T09:29:00Z</time></trkpt><trkpt lat="31.181204587102073" lon="-4.422933696457935"><ele>735.0</ele><time>2026-03-23T09:29:01Z</time></trkpt><trkpt lat="31.18107992946872" lon="-4.423086943601369"><ele>735.0</ele><time>2026-03-23T09:29:02Z</time></trkpt><trkpt lat="31.18094379413901" lon="-4.423253322085878"><ele>735.0</ele><time>2026-03-23T09:29:03Z</time></trkpt><trkpt lat="31.180779637076256" lon="-4.423445643114971"><ele>735.0</ele><time>2026-03-23T09:29:04Z</time></trkpt><trkpt lat="31.18067561809337" lon="-4.423554265141847"><ele>735.0</ele><time>2026-03-23T09:29:05Z</time></trkpt><trkpt lat="31.1806012909632" lon="-4.42367712887665"><ele>735.0</ele><time>2026-03-23T09:29:06Z</time></trkpt><trkpt lat="31.180509437856422" lon="-4.423796854685361"><ele>735.0</ele><time>2026-03-23T09:29:07Z</time></trkpt><trkpt lat="31.180440089212485" lon="-4.423888239556102"><ele>735.0</ele><time>2026-03-23T09:29:08Z</time></trkpt><trkpt lat="31.180202047639494" lon="-4.424200090773669"><ele>735.0</ele><time>2026-03-23T09:29:09Z</time></trkpt><trkpt lat="31.180069751701033" lon="-4.424343633073097"><ele>735.0</ele><time>2026-03-23T09:29:10Z</time></trkpt><trkpt lat="31.179950498144613" lon="-4.4244993022429515"><ele>735.0</ele><time>2026-03-23T09:29:11Z</time></trkpt><trkpt lat="31.17983665124462" lon="-4.424652973348615"><ele>735.0</ele><time>2026-03-23T09:29:12Z</time></trkpt><trkpt lat="31.17972568827891" lon="-4.424800208919815"><ele>735.0</ele><time>2026-03-23T09:29:13Z</time></trkpt><trkpt lat="31.179604682136304" lon="-4.424953802518436"><ele>735.0</ele><time>2026-03-23T09:29:14Z</time></trkpt><trkpt lat="31.179479310386377" lon="-4.425120622472235"><ele>735.0</ele><time>2026-03-23T09:29:15Z</time></trkpt><trkpt lat="31.179360918573156" lon="-4.425289098688119"><ele>735.0</ele><time>2026-03-23T09:29:16Z</time></trkpt><trkpt lat="31.179240815238643" lon="-4.425459977747462"><ele>735.0</ele><time>2026-03-23T09:29:17Z</time></trkpt><trkpt lat="31.1791218473409" lon="-4.4256276513299175"><ele>735.6666666666666</ele><time>2026-03-23T09:29:18Z</time></trkpt><trkpt lat="31.17901446862044" lon="-4.425806229223109"><ele>736.3333333333333</ele><time>2026-03-23T09:29:19Z</time></trkpt><trkpt lat="31.178890125425838" lon="-4.4259592946010935"><ele>737.0</ele><time>2026-03-23T09:29:20Z</time></trkpt><trkpt lat="31.178783330909226" lon="-4.426112109568898"><ele>737.0</ele><time>2026-03-23T09:29:21Z</time></trkpt><trkpt lat="31.178675040933438" lon="-4.426263455917119"><ele>737.0</ele><time>2026-03-23T09:29:22Z</time></trkpt><trkpt lat="31.178576659263406" lon="-4.426431824068419"><ele>737.0</ele><time>2026-03-23T09:29:23Z</time></trkpt><trkpt lat="31.17846284382869" lon="-4.4265953555355555"><ele>737.0</ele><time>2026-03-23T09:29:24Z</time></trkpt><trkpt lat="31.178348290759114" lon="-4.42675897437411"><ele>737.0</ele><time>2026-03-23T09:29:25Z</time></trkpt><trkpt lat="31.17823094348254" lon="-4.426926629919592"><ele>737.0</ele><time>2026-03-23T09:29:26Z</time></trkpt><trkpt lat="31.178105339894106" lon="-4.427082978242091"><ele>737.3333333333333</ele><time>2026-03-23T09:29:27Z</time></trkpt><trkpt lat="31.178001963183064" lon="-4.427252713467214"><ele>737.6666666666666</ele><time>2026-03-23T09:29:28Z</time></trkpt><trkpt lat="31.177900711849883" lon="-4.427422137823744"><ele>738.0</ele><time>2026-03-23T09:29:29Z</time></trkpt><trkpt lat="31.177797421713592" lon="-4.427591445347973"><ele>738.0</ele><time>2026-03-23T09:29:30Z</time></trkpt><trkpt lat="31.17769471690823" lon="-4.427760585414612"><ele>738.0</ele><time>2026-03-23T09:29:31Z</time></trkpt><trkpt lat="31.177588863347115" lon="-4.427923630762428"><ele>738.0</ele><time>2026-03-23T09:29:32Z</time></trkpt><trkpt lat="31.17748017647268" lon="-4.428098536230373"><ele>738.0</ele><time>2026-03-23T09:29:33Z</time></trkpt><trkpt lat="31.177368143722664" lon="-4.42826949185508"><ele>738.0</ele><time>2026-03-23T09:29:34Z</time></trkpt><trkpt lat="31.17728007621819" lon="-4.428442632477168"><ele>738.0</ele><time>2026-03-23T09:29:35Z</time></trkpt><trkpt lat="31.17718035609607" lon="-4.428603073082654"><ele>738.0</ele><time>2026-03-23T09:29:36Z</time></trkpt><trkpt lat="31.17707890148513" lon="-4.428766304661559"><ele>738.0</ele><time>2026-03-23T09:29:37Z</time></trkpt><trkpt lat="31.176973301437382" lon="-4.4289362058404835"><ele>738.0</ele><time>2026-03-23T09:29:38Z</time></trkpt><trkpt lat="31.176871578873982" lon="-4.429099868491316"><ele>738.0</ele><time>2026-03-23T09:29:39Z</time></trkpt><trkpt lat="31.1767633774399" lon="-4.429274012752852"><ele>738.0</ele><time>2026-03-23T09:29:40Z</time></trkpt><trkpt lat="31.17665514970657" lon="-4.429448306552408"><ele>738.0</ele><time>2026-03-23T09:29:41Z</time></trkpt><trkpt lat="31.176547788358643" lon="-4.429621363000675"><ele>739.5</ele><time>2026-03-23T09:29:42Z</time></trkpt><trkpt lat="31.176421363821227" lon="-4.429825318014607"><ele>741.0</ele><time>2026-03-23T09:29:43Z</time></trkpt><trkpt lat="31.17626783620399" lon="-4.4300519693638485"><ele>741.0</ele><time>2026-03-23T09:29:44Z</time></trkpt><trkpt lat="31.176132093441066" lon="-4.4302461138781855"><ele>741.0</ele><time>2026-03-23T09:29:45Z</time></trkpt><trkpt lat="31.176034717394792" lon="-4.430385951164463"><ele>741.0</ele><time>2026-03-23T09:29:46Z</time></trkpt><trkpt lat="31.175914032120158" lon="-4.430559233535567"><ele>741.3333333333334</ele><time>2026-03-23T09:29:47Z</time></trkpt><trkpt lat="31.17580406049474" lon="-4.430716742057805"><ele>741.6666666666667</ele><time>2026-03-23T09:29:48Z</time></trkpt><trkpt lat="31.17569107995757" lon="-4.430878584436163"><ele>742.0</ele><time>2026-03-23T09:29:49Z</time></trkpt><trkpt lat="31.175579687606554" lon="-4.431037284304437"><ele>742.0</ele><time>2026-03-23T09:29:50Z</time></trkpt><trkpt lat="31.175467003929878" lon="-4.4311990720749055"><ele>742.0</ele><time>2026-03-23T09:29:51Z</time></trkpt><trkpt lat="31.175352412215837" lon="-4.4313639879284015"><ele>742.0</ele><time>2026-03-23T09:29:52Z</time></trkpt><trkpt lat="31.175234340690867" lon="-4.431532492895149"><ele>741.6666666666667</ele><time>2026-03-23T09:29:53Z</time></trkpt><trkpt lat="31.175111166854965" lon="-4.43170889677673"><ele>741.3333333333334</ele><time>2026-03-23T09:29:54Z</time></trkpt><trkpt lat="31.17499215290489" lon="-4.4318885061586455"><ele>741.0</ele><time>2026-03-23T09:29:55Z</time></trkpt><trkpt lat="31.17486801451882" lon="-4.432078024091651"><ele>742.0</ele><time>2026-03-23T09:29:56Z</time></trkpt><trkpt lat="31.17474273892746" lon="-4.43226929592252"><ele>743.0</ele><time>2026-03-23T09:29:57Z</time></trkpt><trkpt lat="31.17462327760573" lon="-4.432451707735816"><ele>744.0</ele><time>2026-03-23T09:29:58Z</time></trkpt><trkpt lat="31.1745209486394" lon="-4.432608599624294"><ele>744.0</ele><time>2026-03-23T09:29:59Z</time></trkpt><trkpt lat="31.17441740519103" lon="-4.432767477345218"><ele>744.0</ele><time>2026-03-23T09:30:00Z</time></trkpt><trkpt lat="31.17430919322769" lon="-4.432931792126004"><ele>744.0</ele><time>2026-03-23T09:30:01Z</time></trkpt><trkpt lat="31.174199193159726" lon="-4.433101742418772"><ele>743.3333333333334</ele><time>2026-03-23T09:30:02Z</time></trkpt><trkpt lat="31.17409104450231" lon="-4.433266239078609"><ele>742.6666666666667</ele><time>2026-03-23T09:30:03Z</time></trkpt><trkpt lat="31.173983293014334" lon="-4.433431222746859"><ele>742.0</ele><time>2026-03-23T09:30:04Z</time></trkpt><trkpt lat="31.173879217933482" lon="-4.433590577179285"><ele>742.0</ele><time>2026-03-23T09:30:05Z</time></trkpt><trkpt lat="31.173781440843793" lon="-4.433742338949978"><ele>742.0</ele><time>2026-03-23T09:30:06Z</time></trkpt><trkpt lat="31.173687675362764" lon="-4.433889684741926"><ele>742.0</ele><time>2026-03-23T09:30:07Z</time></trkpt><trkpt lat="31.173591711678437" lon="-4.4340402693090555"><ele>742.0</ele><time>2026-03-23T09:30:08Z</time></trkpt><trkpt lat="31.173492888625738" lon="-4.434195506319845"><ele>742.0</ele><time>2026-03-23T09:30:09Z</time></trkpt><trkpt lat="31.173396493466385" lon="-4.434346800639663"><ele>742.0</ele><time>2026-03-23T09:30:10Z</time></trkpt><trkpt lat="31.173299309700873" lon="-4.434499289193427"><ele>742.0</ele><time>2026-03-23T09:30:11Z</time></trkpt><trkpt lat="31.173204461697786" lon="-4.434648112475126"><ele>742.0</ele><time>2026-03-23T09:30:12Z</time></trkpt><trkpt lat="31.17310451503054" lon="-4.434804650730571"><ele>742.0</ele><time>2026-03-23T09:30:13Z</time></trkpt><trkpt lat="31.17299917126404" lon="-4.434969782300741"><ele>742.0</ele><time>2026-03-23T09:30:14Z</time></trkpt><trkpt lat="31.17288449830425" lon="-4.435150402904608"><ele>742.0</ele><time>2026-03-23T09:30:15Z</time></trkpt><trkpt lat="31.17277100486176" lon="-4.435328740779359"><ele>742.0</ele><time>2026-03-23T09:30:16Z</time></trkpt><trkpt lat="31.172657564729917" lon="-4.435507285127697"><ele>742.6666666666667</ele><time>2026-03-23T09:30:17Z</time></trkpt><trkpt lat="31.172553942212517" lon="-4.435689303896607"><ele>743.3333333333334</ele><time>2026-03-23T09:30:18Z</time></trkpt><trkpt lat="31.17245881670122" lon="-4.435856253672611"><ele>744.0</ele><time>2026-03-23T09:30:19Z</time></trkpt><trkpt lat="31.17237183160245" lon="-4.4360086318359"><ele>743.75</ele><time>2026-03-23T09:30:20Z</time></trkpt><trkpt lat="31.172292958839872" lon="-4.436146798843525"><ele>743.5</ele><time>2026-03-23T09:30:21Z</time></trkpt><trkpt lat="31.172215973306038" lon="-4.4362816597067365"><ele>743.25</ele><time>2026-03-23T09:30:22Z</time></trkpt><trkpt lat="31.172132336247095" lon="-4.436428172959995"><ele>743.0</ele><time>2026-03-23T09:30:23Z</time></trkpt><trkpt lat="31.172035246334527" lon="-4.436585119018456"><ele>743.6666666666666</ele><time>2026-03-23T09:30:24Z</time></trkpt><trkpt lat="31.171940177571095" lon="-4.436764935043936"><ele>744.3333333333334</ele><time>2026-03-23T09:30:25Z</time></trkpt><trkpt lat="31.171865659615854" lon="-4.436947115431567"><ele>745.0</ele><time>2026-03-23T09:30:26Z</time></trkpt><trkpt lat="31.171781019590547" lon="-4.437114551230984"><ele>745.0</ele><time>2026-03-23T09:30:27Z</time></trkpt><trkpt lat="31.17170756920385" lon="-4.437259685630423"><ele>745.0</ele><time>2026-03-23T09:30:28Z</time></trkpt><trkpt lat="31.17164292498186" lon="-4.437388376211105"><ele>745.0</ele><time>2026-03-23T09:30:29Z</time></trkpt><trkpt lat="31.17158456226345" lon="-4.437503166634854"><ele>745.0</ele><time>2026-03-23T09:30:30Z</time></trkpt><trkpt lat="31.171490017394106" lon="-4.437664409972596"><ele>744.5</ele><time>2026-03-23T09:30:31Z</time></trkpt><trkpt lat="31.171390911515424" lon="-4.43777283931027"><ele>744.0</ele><time>2026-03-23T09:30:32Z</time></trkpt><trkpt lat="31.1713025082301" lon="-4.437869392927054"><ele>743.5</ele><time>2026-03-23T09:30:33Z</time></trkpt><trkpt lat="31.171225119513334" lon="-4.4379539259068"><ele>743.0</ele><time>2026-03-23T09:30:34Z</time></trkpt><trkpt lat="31.1711555866955" lon="-4.438030181507053"><ele>742.5</ele><time>2026-03-23T09:30:35Z</time></trkpt><trkpt lat="31.171077214857274" lon="-4.438115002309297"><ele>742.0</ele><time>2026-03-23T09:30:36Z</time></trkpt><trkpt lat="31.17098935975166" lon="-4.438210421181451"><ele>741.5</ele><time>2026-03-23T09:30:37Z</time></trkpt><trkpt lat="31.170887799641203" lon="-4.438321097659079"><ele>741.0</ele><time>2026-03-23T09:30:38Z</time></trkpt><trkpt lat="31.17078529236561" lon="-4.438433282928566"><ele>741.5</ele><time>2026-03-23T09:30:39Z</time></trkpt><trkpt lat="31.1706884276453" lon="-4.4385269197247"><ele>742.0</ele><time>2026-03-23T09:30:40Z</time></trkpt><trkpt lat="31.170622205675485" lon="-4.43865852625133"><ele>742.5</ele><time>2026-03-23T09:30:41Z</time></trkpt><trkpt lat="31.17056292072003" lon="-4.438776438697493"><ele>743.0</ele><time>2026-03-23T09:30:42Z</time></trkpt><trkpt lat="31.170493367689378" lon="-4.438914622664118"><ele>743.0</ele><time>2026-03-23T09:30:43Z</time></trkpt><trkpt lat="31.17042540278918" lon="-4.439036735312405"><ele>743.0</ele><time>2026-03-23T09:30:44Z</time></trkpt><trkpt lat="31.170357418624377" lon="-4.439184718453625"><ele>743.0</ele><time>2026-03-23T09:30:45Z</time></trkpt><trkpt lat="31.170274985803996" lon="-4.43936175415594"><ele>743.0</ele><time>2026-03-23T09:30:46Z</time></trkpt><trkpt lat="31.170196374571262" lon="-4.439549307215313"><ele>743.25</ele><time>2026-03-23T09:30:47Z</time></trkpt><trkpt lat="31.17013155916289" lon="-4.43970394588054"><ele>743.5</ele><time>2026-03-23T09:30:48Z</time></trkpt><trkpt lat="31.17007236139666" lon="-4.439844102224608"><ele>743.75</ele><time>2026-03-23T09:30:49Z</time></trkpt><trkpt lat="31.17001811590005" lon="-4.439973099740264"><ele>744.0</ele><time>2026-03-23T09:30:50Z</time></trkpt><trkpt lat="31.169960427959186" lon="-4.440104327236847"><ele>744.0</ele><time>2026-03-23T09:30:51Z</time></trkpt><trkpt lat="31.169886208200644" lon="-4.440254952960638"><ele>744.0</ele><time>2026-03-23T09:30:52Z</time></trkpt><trkpt lat="31.169815119352613" lon="-4.440424196523739"><ele>744.0</ele><time>2026-03-23T09:30:53Z</time></trkpt><trkpt lat="31.16974530230709" lon="-4.440621662351068"><ele>743.6666666666666</ele><time>2026-03-23T09:30:54Z</time></trkpt><trkpt lat="31.169668111441354" lon="-4.440822688884564"><ele>743.3333333333333</ele><time>2026-03-23T09:30:55Z</time></trkpt><trkpt lat="31.1696208776776" lon="-4.440995985143254"><ele>743.0</ele><time>2026-03-23T09:30:56Z</time></trkpt><trkpt lat="31.169566145581584" lon="-4.441146311603701"><ele>743.3333333333333</ele><time>2026-03-23T09:30:57Z</time></trkpt><trkpt lat="31.169510186169415" lon="-4.44129993145388"><ele>743.6666666666666</ele><time>2026-03-23T09:30:58Z</time></trkpt><trkpt lat="31.16945307649496" lon="-4.44145669761401"><ele>744.0</ele><time>2026-03-23T09:30:59Z</time></trkpt><trkpt lat="31.169379379340768" lon="-4.441631701286817"><ele>744.0</ele><time>2026-03-23T09:31:00Z</time></trkpt><trkpt lat="31.169298074904514" lon="-4.44177996984628"><ele>744.0</ele><time>2026-03-23T09:31:01Z</time></trkpt><trkpt lat="31.169214078098246" lon="-4.441933171642687"><ele>744.0</ele><time>2026-03-23T09:31:02Z</time></trkpt><trkpt lat="31.169130172005207" lon="-4.442086798577355"><ele>744.0</ele><time>2026-03-23T09:31:03Z</time></trkpt><trkpt lat="31.16904513057065" lon="-4.442242504294918"><ele>744.0</ele><time>2026-03-23T09:31:04Z</time></trkpt><trkpt lat="31.168957404451575" lon="-4.442403177481787"><ele>744.0</ele><time>2026-03-23T09:31:05Z</time></trkpt><trkpt lat="31.1688760048724" lon="-4.442552298121456"><ele>744.0</ele><time>2026-03-23T09:31:06Z</time></trkpt><trkpt lat="31.168791061923162" lon="-4.44270770219685"><ele>744.0</ele><time>2026-03-23T09:31:07Z</time></trkpt><trkpt lat="31.16870713434186" lon="-4.44286070860473"><ele>744.0</ele><time>2026-03-23T09:31:08Z</time></trkpt><trkpt lat="31.168639550724578" lon="-4.443000135653126"><ele>744.5</ele><time>2026-03-23T09:31:09Z</time></trkpt><trkpt lat="31.168572255476292" lon="-4.443141749236152"><ele>745.0</ele><time>2026-03-23T09:31:10Z</time></trkpt><trkpt lat="31.168502669642056" lon="-4.443288737831167"><ele>745.5</ele><time>2026-03-23T09:31:11Z</time></trkpt><trkpt lat="31.168429799064103" lon="-4.443442665049517"><ele>746.0</ele><time>2026-03-23T09:31:12Z</time></trkpt><trkpt lat="31.168337283417692" lon="-4.443578164643836"><ele>746.0</ele><time>2026-03-23T09:31:13Z</time></trkpt><trkpt lat="31.16823744812239" lon="-4.443691584344505"><ele>746.0</ele><time>2026-03-23T09:31:14Z</time></trkpt><trkpt lat="31.16814522571688" lon="-4.443804044763922"><ele>746.0</ele><time>2026-03-23T09:31:15Z</time></trkpt><trkpt lat="31.1680445016363" lon="-4.443897109629724"><ele>746.0</ele><time>2026-03-23T09:31:16Z</time></trkpt><trkpt lat="31.167955998857384" lon="-4.444002143132588"><ele>745.5</ele><time>2026-03-23T09:31:17Z</time></trkpt><trkpt lat="31.16786710813255" lon="-4.444101222050802"><ele>745.0</ele><time>2026-03-23T09:31:18Z</time></trkpt><trkpt lat="31.167804531090983" lon="-4.44417097131991"><ele>744.5</ele><time>2026-03-23T09:31:19Z</time></trkpt><trkpt lat="31.167743357312688" lon="-4.444239169978883"><ele>744.0</ele><time>2026-03-23T09:31:20Z</time></trkpt><trkpt lat="31.167696814690835" lon="-4.4442910572648735"><ele>743.5</ele><time>2026-03-23T09:31:21Z</time></trkpt><trkpt lat="31.16763823705333" lon="-4.444342451380486"><ele>743.0</ele><time>2026-03-23T09:31:22Z</time></trkpt><trkpt lat="31.16759703108287" lon="-4.444435632025359"><ele>743.0</ele><time>2026-03-23T09:31:23Z</time></trkpt><trkpt lat="31.167559064097244" lon="-4.444521394207904"><ele>743.0</ele><time>2026-03-23T09:31:24Z</time></trkpt><trkpt lat="31.167524688239364" lon="-4.444598920461985"><ele>743.0</ele><time>2026-03-23T09:31:25Z</time></trkpt><trkpt lat="31.167479102447796" lon="-4.444701576167558"><ele>743.0</ele><time>2026-03-23T09:31:26Z</time></trkpt><trkpt lat="31.167422229807343" lon="-4.444829564636635"><ele>743.0</ele><time>2026-03-23T09:31:27Z</time></trkpt><trkpt lat="31.167360344383553" lon="-4.444968865384624"><ele>743.4</ele><time>2026-03-23T09:31:28Z</time></trkpt><trkpt lat="31.16730325364032" lon="-4.445097369568929"><ele>743.8</ele><time>2026-03-23T09:31:29Z</time></trkpt><trkpt lat="31.167342375093558" lon="-4.445229518703365"><ele>744.2</ele><time>2026-03-23T09:31:30Z</time></trkpt><trkpt lat="31.16732608495173" lon="-4.44533678873751"><ele>744.6</ele><time>2026-03-23T09:31:31Z</time></trkpt><trkpt lat="31.167307186943088" lon="-4.445437878758931"><ele>745.0</ele><time>2026-03-23T09:31:32Z</time></trkpt><trkpt lat="31.167283698091808" lon="-4.445548448936998"><ele>745.5</ele><time>2026-03-23T09:31:33Z</time></trkpt><trkpt lat="31.167255496226765" lon="-4.445673542228429"><ele>746.0</ele><time>2026-03-23T09:31:34Z</time></trkpt><trkpt lat="31.166770849294785" lon="-4.445873256618264"><ele>746.0</ele><time>2026-03-23T09:31:36Z</time></trkpt><trkpt lat="31.166692221403896" lon="-4.446001307584404"><ele>746.0</ele><time>2026-03-23T09:31:37Z</time></trkpt><trkpt lat="31.16661811942566" lon="-4.446136624554451"><ele>746.0</ele><time>2026-03-23T09:31:38Z</time></trkpt><trkpt lat="31.166554225226758" lon="-4.446265418121498"><ele>746.0</ele><time>2026-03-23T09:31:39Z</time></trkpt><trkpt lat="31.16649557945894" lon="-4.446396085993406"><ele>747.25</ele><time>2026-03-23T09:31:40Z</time></trkpt><trkpt lat="31.16644300084751" lon="-4.446534772286511"><ele>748.5</ele><time>2026-03-23T09:31:41Z</time></trkpt><trkpt lat="31.166392046243825" lon="-4.446676549048316"><ele>749.75</ele><time>2026-03-23T09:31:42Z</time></trkpt><trkpt lat="31.166345275954512" lon="-4.4468010588706495"><ele>751.0</ele><time>2026-03-23T09:31:43Z</time></trkpt><trkpt lat="31.166306540491643" lon="-4.446914671107921"><ele>751.0</ele><time>2026-03-23T09:31:44Z</time></trkpt><trkpt lat="31.16627647786873" lon="-4.447039238926899"><ele>751.0</ele><time>2026-03-23T09:31:45Z</time></trkpt><trkpt lat="31.166254296266146" lon="-4.447190412090192"><ele>751.0</ele><time>2026-03-23T09:31:46Z</time></trkpt><trkpt lat="31.16624181035676" lon="-4.44736487428776"><ele>751.0</ele><time>2026-03-23T09:31:47Z</time></trkpt><trkpt lat="31.16623655334732" lon="-4.447530986776714"><ele>751.0</ele><time>2026-03-23T09:31:48Z</time></trkpt><trkpt lat="31.16623368979812" lon="-4.447700423323802"><ele>751.0</ele><time>2026-03-23T09:31:49Z</time></trkpt><trkpt lat="31.166229701867163" lon="-4.447822937350219"><ele>751.0</ele><time>2026-03-23T09:31:50Z</time></trkpt><trkpt lat="31.166215031432692" lon="-4.44791708492265"><ele>751.0</ele><time>2026-03-23T09:31:51Z</time></trkpt><trkpt lat="31.166205975925763" lon="-4.44799165620035"><ele>751.0</ele><time>2026-03-23T09:31:52Z</time></trkpt><trkpt lat="31.166181102117836" lon="-4.448126570458541"><ele>751.0</ele><time>2026-03-23T09:31:54Z</time></trkpt><trkpt lat="31.166168704075435" lon="-4.448211101115968"><ele>751.0</ele><time>2026-03-23T09:31:55Z</time></trkpt><trkpt lat="31.166160385136994" lon="-4.448325421135208"><ele>751.0</ele><time>2026-03-23T09:31:56Z</time></trkpt><trkpt lat="31.16615317859501" lon="-4.4484657705795945"><ele>751.0</ele><time>2026-03-23T09:31:57Z</time></trkpt><trkpt lat="31.166133613955118" lon="-4.448611518964179"><ele>751.0</ele><time>2026-03-23T09:31:58Z</time></trkpt><trkpt lat="31.166104421175046" lon="-4.448766824127055"><ele>750.75</ele><time>2026-03-23T09:31:59Z</time></trkpt><trkpt lat="31.166078839803557" lon="-4.4489220426579275"><ele>750.5</ele><time>2026-03-23T09:32:00Z</time></trkpt><trkpt lat="31.166067747865803" lon="-4.449077679686324"><ele>750.25</ele><time>2026-03-23T09:32:01Z</time></trkpt><trkpt lat="31.16607580042604" lon="-4.449224854843129"><ele>750.0</ele><time>2026-03-23T09:32:02Z</time></trkpt><trkpt lat="31.16608612729573" lon="-4.449374697482678"><ele>750.0</ele><time>2026-03-23T09:32:03Z</time></trkpt><trkpt lat="31.166077367895433" lon="-4.449522608536124"><ele>750.0</ele><time>2026-03-23T09:32:04Z</time></trkpt><trkpt lat="31.166119212543148" lon="-4.4496741270675155"><ele>750.0</ele><time>2026-03-23T09:32:05Z</time></trkpt><trkpt lat="31.166104699730493" lon="-4.449808192966201"><ele>750.0</ele><time>2026-03-23T09:32:06Z</time></trkpt><trkpt lat="31.166090263260436" lon="-4.449942520923188"><ele>750.0</ele><time>2026-03-23T09:32:07Z</time></trkpt><trkpt lat="31.16607213619282" lon="-4.450085429002249"><ele>750.0</ele><time>2026-03-23T09:32:08Z</time></trkpt><trkpt lat="31.166046287756462" lon="-4.450239562297594"><ele>750.0</ele><time>2026-03-23T09:32:09Z</time></trkpt><trkpt lat="31.166013832613682" lon="-4.4503869995787655"><ele>750.0</ele><time>2026-03-23T09:32:10Z</time></trkpt><trkpt lat="31.16600061797729" lon="-4.4505159702807235"><ele>750.25</ele><time>2026-03-23T09:32:11Z</time></trkpt><trkpt lat="31.165963855452254" lon="-4.450644413385792"><ele>750.5</ele><time>2026-03-23T09:32:12Z</time></trkpt><trkpt lat="31.165948798875792" lon="-4.450784381145783"><ele>750.75</ele><time>2026-03-23T09:32:13Z</time></trkpt><trkpt lat="31.16592217214451" lon="-4.450918713813541"><ele>751.0</ele><time>2026-03-23T09:32:14Z</time></trkpt><trkpt lat="31.165914545613127" lon="-4.451039463494987"><ele>751.0</ele><time>2026-03-23T09:32:15Z</time></trkpt><trkpt lat="31.16589426827281" lon="-4.4511621096168765"><ele>751.0</ele><time>2026-03-23T09:32:16Z</time></trkpt><trkpt lat="31.16587321227956" lon="-4.451288312070057"><ele>751.0</ele><time>2026-03-23T09:32:17Z</time></trkpt><trkpt lat="31.165853177474588" lon="-4.451408393911735"><ele>751.0</ele><time>2026-03-23T09:32:18Z</time></trkpt><trkpt lat="31.165830293707412" lon="-4.4515288840643095"><ele>751.0</ele><time>2026-03-23T09:32:19Z</time></trkpt><trkpt lat="31.165801396642863" lon="-4.451643532475725"><ele>750.8333333333334</ele><time>2026-03-23T09:32:20Z</time></trkpt><trkpt lat="31.165776146004976" lon="-4.451743826399813"><ele>750.6666666666667</ele><time>2026-03-23T09:32:21Z</time></trkpt><trkpt lat="31.165758319298753" lon="-4.451814632926301"><ele>750.5</ele><time>2026-03-23T09:32:22Z</time></trkpt><trkpt lat="31.165727734639674" lon="-4.451936113225788"><ele>750.3333333333334</ele><time>2026-03-23T09:33:38Z</time></trkpt><trkpt lat="31.165695278339058" lon="-4.452065027538011"><ele>750.1666666666666</ele><time>2026-03-23T09:33:40Z</time></trkpt><trkpt lat="31.165675277928766" lon="-4.452145399821928"><ele>750.0</ele><time>2026-03-23T09:33:41Z</time></trkpt><trkpt lat="31.1656537545663" lon="-4.452232314043979"><ele>751.0</ele><time>2026-03-23T09:33:42Z</time></trkpt><trkpt lat="31.165630831099932" lon="-4.452339605171425"><ele>752.0</ele><time>2026-03-23T09:33:43Z</time></trkpt><trkpt lat="31.1655844089395" lon="-4.4524396992114195"><ele>753.0</ele><time>2026-03-23T09:33:46Z</time></trkpt><trkpt lat="31.16555397674566" lon="-4.452535189395293"><ele>754.0</ele><time>2026-03-23T09:33:47Z</time></trkpt><trkpt lat="31.165519538734017" lon="-4.452643103607868"><ele>755.0</ele><time>2026-03-23T09:33:48Z</time></trkpt><trkpt lat="31.16547496049764" lon="-4.452765209259712"><ele>755.0</ele><time>2026-03-23T09:33:49Z</time></trkpt><trkpt lat="31.16543710861708" lon="-4.452891025627682"><ele>755.0</ele><time>2026-03-23T09:33:50Z</time></trkpt><trkpt lat="31.16540435559662" lon="-4.453001835423562"><ele>755.0</ele><time>2026-03-23T09:33:51Z</time></trkpt><trkpt lat="31.16537326934702" lon="-4.453112660558122"><ele>755.0</ele><time>2026-03-23T09:33:52Z</time></trkpt><trkpt lat="31.165346090516273" lon="-4.453214964872271"><ele>755.0</ele><time>2026-03-23T09:33:53Z</time></trkpt><trkpt lat="31.165324529852654" lon="-4.453321925083898"><ele>754.8</ele><time>2026-03-23T09:33:54Z</time></trkpt><trkpt lat="31.165317557690308" lon="-4.453439853892101"><ele>754.6</ele><time>2026-03-23T09:33:55Z</time></trkpt><trkpt lat="31.165274500304264" lon="-4.453556032690992"><ele>754.4000000000001</ele><time>2026-03-23T09:33:56Z</time></trkpt><trkpt lat="31.16522294684082" lon="-4.453665493505613"><ele>754.2</ele><time>2026-03-23T09:33:57Z</time></trkpt><trkpt lat="31.165175529433714" lon="-4.453790691695379"><ele>754.0</ele><time>2026-03-23T09:33:58Z</time></trkpt><trkpt lat="31.165129073693404" lon="-4.453916162656817"><ele>754.0</ele><time>2026-03-23T09:33:59Z</time></trkpt><trkpt lat="31.165081320597505" lon="-4.454045491073527"><ele>754.0</ele><time>2026-03-23T09:34:00Z</time></trkpt><trkpt lat="31.165042748976585" lon="-4.4541849678309875"><ele>754.0</ele><time>2026-03-23T09:34:01Z</time></trkpt><trkpt lat="31.16500240295746" lon="-4.45431076320855"><ele>754.0</ele><time>2026-03-23T09:34:02Z</time></trkpt><trkpt lat="31.16494119747924" lon="-4.454429974666576"><ele>754.0</ele><time>2026-03-23T09:34:03Z</time></trkpt><trkpt lat="31.164882871328185" lon="-4.454555514053268"><ele>754.0</ele><time>2026-03-23T09:34:04Z</time></trkpt><trkpt lat="31.164827989680013" lon="-4.454674622507993"><ele>754.0</ele><time>2026-03-23T09:34:05Z</time></trkpt><trkpt lat="31.16476715441227" lon="-4.454792704132503"><ele>754.0</ele><time>2026-03-23T09:34:06Z</time></trkpt><trkpt lat="31.164685377097264" lon="-4.454930114196569"><ele>754.0</ele><time>2026-03-23T09:34:07Z</time></trkpt><trkpt lat="31.16462595597858" lon="-4.455051579700064"><ele>754.0</ele><time>2026-03-23T09:34:08Z</time></trkpt><trkpt lat="31.16459412624562" lon="-4.4551881849733785"><ele>754.0</ele><time>2026-03-23T09:34:09Z</time></trkpt><trkpt lat="31.165727734639674" lon="-4.451936113225788"><ele>754.2</ele><time>2026-03-23T09:33:38Z</time></trkpt><trkpt lat="31.165695278339058" lon="-4.452065027538011"><ele>754.4000000000001</ele><time>2026-03-23T09:33:40Z</time></trkpt><trkpt lat="31.165675277928766" lon="-4.452145399821928"><ele>754.6</ele><time>2026-03-23T09:33:41Z</time></trkpt><trkpt lat="31.1656537545663" lon="-4.452232314043979"><ele>754.8</ele><time>2026-03-23T09:33:42Z</time></trkpt><trkpt lat="31.165630831099932" lon="-4.452339605171425"><ele>755.0</ele><time>2026-03-23T09:33:43Z</time></trkpt><trkpt lat="31.1655844089395" lon="-4.4524396992114195"><ele>755.0</ele><time>2026-03-23T09:33:46Z</time></trkpt><trkpt lat="31.16555397674566" lon="-4.452535189395293"><ele>755.0</ele><time>2026-03-23T09:33:47Z</time></trkpt><trkpt lat="31.165519538734017" lon="-4.452643103607868"><ele>755.0</ele><time>2026-03-23T09:33:48Z</time></trkpt><trkpt lat="31.16547496049764" lon="-4.452765209259712"><ele>755.0</ele><time>2026-03-23T09:33:49Z</time></trkpt><trkpt lat="31.16543710861708" lon="-4.452891025627682"><ele>755.0</ele><time>2026-03-23T09:33:50Z</time></trkpt><trkpt lat="31.16540435559662" lon="-4.453001835423562"><ele>754.8</ele><time>2026-03-23T09:33:51Z</time></trkpt><trkpt lat="31.16537326934702" lon="-4.453112660558122"><ele>754.6</ele><time>2026-03-23T09:33:52Z</time></trkpt><trkpt lat="31.165346090516273" lon="-4.453214964872271"><ele>754.4000000000001</ele><time>2026-03-23T09:33:53Z</time></trkpt><trkpt lat="31.165324529852654" lon="-4.453321925083898"><ele>754.2</ele><time>2026-03-23T09:33:54Z</time></trkpt><trkpt lat="31.165317557690308" lon="-4.453439853892101"><ele>754.0</ele><time>2026-03-23T09:33:55Z</time></trkpt><trkpt lat="31.165274500304264" lon="-4.453556032690992"><ele>754.0</ele><time>2026-03-23T09:33:56Z</time></trkpt><trkpt lat="31.16522294684082" lon="-4.453665493505613"><ele>754.0</ele><time>2026-03-23T09:33:57Z</time></trkpt><trkpt lat="31.165175529433714" lon="-4.453790691695379"><ele>754.0</ele><time>2026-03-23T09:33:58Z</time></trkpt><trkpt lat="31.165129073693404" lon="-4.453916162656817"><ele>754.0</ele><time>2026-03-23T09:33:59Z</time></trkpt><trkpt lat="31.165081320597505" lon="-4.454045491073527"><ele>754.0</ele><time>2026-03-23T09:34:00Z</time></trkpt><trkpt lat="31.165042748976585" lon="-4.4541849678309875"><ele>754.0</ele><time>2026-03-23T09:34:01Z</time></trkpt><trkpt lat="31.16500240295746" lon="-4.45431076320855"><ele>754.0</ele><time>2026-03-23T09:34:02Z</time></trkpt><trkpt lat="31.16494119747924" lon="-4.454429974666576"><ele>754.0</ele><time>2026-03-23T09:34:03Z</time></trkpt><trkpt lat="31.164882871328185" lon="-4.454555514053268"><ele>754.0</ele><time>2026-03-23T09:34:04Z</time></trkpt><trkpt lat="31.164827989680013" lon="-4.454674622507993"><ele>754.0</ele><time>2026-03-23T09:34:05Z</time></trkpt><trkpt lat="31.16476715441227" lon="-4.454792704132503"><ele>754.0</ele><time>2026-03-23T09:34:06Z</time></trkpt><trkpt lat="31.164685377097264" lon="-4.454930114196569"><ele>754.0</ele><time>2026-03-23T09:34:07Z</time></trkpt><trkpt lat="31.16462595597858" lon="-4.455051579700064"><ele>754.0</ele><time>2026-03-23T09:34:08Z</time></trkpt><trkpt lat="31.16459412624562" lon="-4.4551881849733785"><ele>754.0</ele><time>2026-03-23T09:34:09Z</time></trkpt><trkpt lat="31.164556150105152" lon="-4.45532392954386"><ele>754.0</ele><time>2026-03-23T09:34:10Z</time></trkpt><trkpt lat="31.164520480548212" lon="-4.455453348982539"><ele>754.0</ele><time>2026-03-23T09:34:11Z</time></trkpt><trkpt lat="31.1644866103115" lon="-4.455577385717694"><ele>753.4000000000001</ele><time>2026-03-23T09:34:12Z</time></trkpt><trkpt lat="31.16446854216978" lon="-4.455691558292383"><ele>752.8</ele><time>2026-03-23T09:34:13Z</time></trkpt><trkpt lat="31.16444898126154" lon="-4.455823368760081"><ele>752.2</ele><time>2026-03-23T09:34:14Z</time></trkpt><trkpt lat="31.16441528895484" lon="-4.455937174034349"><ele>751.5999999999999</ele><time>2026-03-23T09:34:15Z</time></trkpt><trkpt lat="31.164374217532142" lon="-4.456011706241406"><ele>751.0</ele><time>2026-03-23T09:34:16Z</time></trkpt><trkpt lat="31.164346881971788" lon="-4.45610260788667"><ele>751.0</ele><time>2026-03-23T09:34:17Z</time></trkpt><trkpt lat="31.16429538859499" lon="-4.45620013086906"><ele>751.0</ele><time>2026-03-23T09:34:18Z</time></trkpt><trkpt lat="31.16420899799991" lon="-4.456315662666859"><ele>751.0</ele><time>2026-03-23T09:34:19Z</time></trkpt><trkpt lat="31.164114536809436" lon="-4.45643144317461"><ele>751.0</ele><time>2026-03-23T09:34:20Z</time></trkpt><trkpt lat="31.16399520396336" lon="-4.456493612238937"><ele>751.5</ele><time>2026-03-23T09:34:21Z</time></trkpt><trkpt lat="31.163881457489634" lon="-4.456563567993862"><ele>752.0</ele><time>2026-03-23T09:34:22Z</time></trkpt><trkpt lat="31.163774437080573" lon="-4.456636934675031"><ele>752.5</ele><time>2026-03-23T09:34:23Z</time></trkpt><trkpt lat="31.16366306707832" lon="-4.45669903544226"><ele>753.0</ele><time>2026-03-23T09:34:24Z</time></trkpt><trkpt lat="31.163528712962993" lon="-4.4566826458370015"><ele>753.0</ele><time>2026-03-23T09:34:25Z</time></trkpt><trkpt lat="31.16342763594478" lon="-4.4566836972539265"><ele>753.0</ele><time>2026-03-23T09:34:26Z</time></trkpt><trkpt lat="31.16333362526834" lon="-4.4566860441963785"><ele>753.0</ele><time>2026-03-23T09:34:27Z</time></trkpt><trkpt lat="31.16319551269861" lon="-4.4567461958577415"><ele>753.0</ele><time>2026-03-23T09:34:28Z</time></trkpt><trkpt lat="31.163096778732044" lon="-4.456821755394608"><ele>753.25</ele><time>2026-03-23T09:34:29Z</time></trkpt><trkpt lat="31.16297573728757" lon="-4.456892489175572"><ele>753.5</ele><time>2026-03-23T09:34:30Z</time></trkpt><trkpt lat="31.162848201842806" lon="-4.457001454080044"><ele>753.75</ele><time>2026-03-23T09:34:31Z</time></trkpt><trkpt lat="31.162748631730828" lon="-4.457133904153413"><ele>754.0</ele><time>2026-03-23T09:34:32Z</time></trkpt><trkpt lat="31.16266847829634" lon="-4.45725978437587"><ele>754.0</ele><time>2026-03-23T09:34:33Z</time></trkpt><trkpt lat="31.162593561245977" lon="-4.457387334969948"><ele>754.0</ele><time>2026-03-23T09:34:34Z</time></trkpt><trkpt lat="31.162520390614723" lon="-4.457507884068077"><ele>754.0</ele><time>2026-03-23T09:34:35Z</time></trkpt><trkpt lat="31.162446207554723" lon="-4.457630101144777"><ele>754.0</ele><time>2026-03-23T09:34:36Z</time></trkpt><trkpt lat="31.162364604157958" lon="-4.457764543279638"><ele>754.6666666666667</ele><time>2026-03-23T09:34:37Z</time></trkpt><trkpt lat="31.162258882933262" lon="-4.457905098467747"><ele>755.3333333333334</ele><time>2026-03-23T09:34:38Z</time></trkpt><trkpt lat="31.16219311531342" lon="-4.458068801963068"><ele>756.0</ele><time>2026-03-23T09:34:39Z</time></trkpt><trkpt lat="31.162125562656676" lon="-4.458222525116188"><ele>756.0</ele><time>2026-03-23T09:34:40Z</time></trkpt><trkpt lat="31.16207519318275" lon="-4.458355506192467"><ele>756.0</ele><time>2026-03-23T09:34:41Z</time></trkpt><trkpt lat="31.16202169805593" lon="-4.458496356358359"><ele>756.0</ele><time>2026-03-23T09:34:42Z</time></trkpt><trkpt lat="31.161963143279916" lon="-4.458625692552461"><ele>756.0</ele><time>2026-03-23T09:34:43Z</time></trkpt><trkpt lat="31.161886447404374" lon="-4.458754549145446"><ele>755.75</ele><time>2026-03-23T09:34:44Z</time></trkpt><trkpt lat="31.161798135966627" lon="-4.458883818589442"><ele>755.5</ele><time>2026-03-23T09:34:45Z</time></trkpt><trkpt lat="31.161711786292916" lon="-4.4590170645685125"><ele>755.25</ele><time>2026-03-23T09:34:46Z</time></trkpt><trkpt lat="31.161626838612058" lon="-4.45915388027734"><ele>755.0</ele><time>2026-03-23T09:34:47Z</time></trkpt><trkpt lat="31.161541337304467" lon="-4.459293338265379"><ele>755.0</ele><time>2026-03-23T09:34:48Z</time></trkpt><trkpt lat="31.16145160762855" lon="-4.459431730825069"><ele>755.0</ele><time>2026-03-23T09:34:49Z</time></trkpt><trkpt lat="31.1613605439908" lon="-4.459554111055386"><ele>755.0</ele><time>2026-03-23T09:34:50Z</time></trkpt><trkpt lat="31.16127291515484" lon="-4.459660644531091"><ele>755.0</ele><time>2026-03-23T09:34:51Z</time></trkpt><trkpt lat="31.161180810763188" lon="-4.459742120478093"><ele>755.0</ele><time>2026-03-23T09:34:52Z</time></trkpt><trkpt lat="31.161095391612772" lon="-4.459836483793436"><ele>755.0</ele><time>2026-03-23T09:34:53Z</time></trkpt><trkpt lat="31.16100637568909" lon="-4.459969326491909"><ele>755.0</ele><time>2026-03-23T09:34:54Z</time></trkpt><trkpt lat="31.160901611542442" lon="-4.460099155995169"><ele>755.0</ele><time>2026-03-23T09:34:55Z</time></trkpt><trkpt lat="31.16079707432548" lon="-4.460229384319128"><ele>755.3333333333333</ele><time>2026-03-23T09:34:56Z</time></trkpt><trkpt lat="31.16067944044604" lon="-4.46037592796371"><ele>755.6666666666666</ele><time>2026-03-23T09:34:57Z</time></trkpt><trkpt lat="31.160550735874608" lon="-4.460513266579526"><ele>756.0</ele><time>2026-03-23T09:34:58Z</time></trkpt><trkpt lat="31.160434424685064" lon="-4.460657473957367"><ele>756.0</ele><time>2026-03-23T09:34:59Z</time></trkpt><trkpt lat="31.160345129514127" lon="-4.460773317009747"><ele>756.0</ele><time>2026-03-23T09:35:00Z</time></trkpt><trkpt lat="31.16027471222596" lon="-4.460864741537285"><ele>756.0</ele><time>2026-03-23T09:35:01Z</time></trkpt><trkpt lat="31.16019886447664" lon="-4.460959630500884"><ele>756.0</ele><time>2026-03-23T09:35:02Z</time></trkpt><trkpt lat="31.160130136592414" lon="-4.4610764200297295"><ele>756.0</ele><time>2026-03-23T09:35:03Z</time></trkpt><trkpt lat="31.16005848283499" lon="-4.461210729694337"><ele>756.0</ele><time>2026-03-23T09:35:04Z</time></trkpt><trkpt lat="31.15999877208332" lon="-4.461351742378042"><ele>756.0</ele><time>2026-03-23T09:35:05Z</time></trkpt><trkpt lat="31.15992566058113" lon="-4.461489435696746"><ele>756.0</ele><time>2026-03-23T09:35:06Z</time></trkpt><trkpt lat="31.159856945283508" lon="-4.461649036941973"><ele>756.6666666666666</ele><time>2026-03-23T09:35:07Z</time></trkpt><trkpt lat="31.159784246503172" lon="-4.461811549146543"><ele>757.3333333333333</ele><time>2026-03-23T09:35:08Z</time></trkpt><trkpt lat="31.159708844305943" lon="-4.461980760202886"><ele>758.0</ele><time>2026-03-23T09:35:09Z</time></trkpt><trkpt lat="31.159637414397185" lon="-4.462155605974243"><ele>758.3333333333333</ele><time>2026-03-23T09:35:10Z</time></trkpt><trkpt lat="31.15956694688445" lon="-4.462325903874084"><ele>758.6666666666666</ele><time>2026-03-23T09:35:11Z</time></trkpt><trkpt lat="31.159493238193726" lon="-4.462491566938911"><ele>759.0</ele><time>2026-03-23T09:35:12Z</time></trkpt><trkpt lat="31.159417870991618" lon="-4.4626541301669205"><ele>759.0</ele><time>2026-03-23T09:35:13Z</time></trkpt><trkpt lat="31.159341400828193" lon="-4.462813356946597"><ele>759.0</ele><time>2026-03-23T09:35:14Z</time></trkpt><trkpt lat="31.159259587265268" lon="-4.462974475246981"><ele>759.0</ele><time>2026-03-23T09:35:15Z</time></trkpt><trkpt lat="31.159176837336208" lon="-4.4631372797645525"><ele>758.6666666666666</ele><time>2026-03-23T09:35:16Z</time></trkpt><trkpt lat="31.159094527395652" lon="-4.463296165447936"><ele>758.3333333333333</ele><time>2026-03-23T09:35:17Z</time></trkpt><trkpt lat="31.15901383867028" lon="-4.463451915479989"><ele>758.0</ele><time>2026-03-23T09:35:18Z</time></trkpt><trkpt lat="31.15892921762765" lon="-4.463603864416315"><ele>758.0</ele><time>2026-03-23T09:35:19Z</time></trkpt><trkpt lat="31.158832279284617" lon="-4.463753130124066"><ele>758.0</ele><time>2026-03-23T09:35:20Z</time></trkpt><trkpt lat="31.158721448730283" lon="-4.463913328045984"><ele>758.0</ele><time>2026-03-23T09:35:20.999Z</time></trkpt><trkpt lat="31.15861829742173" lon="-4.464052199723533"><ele>758.25</ele><time>2026-03-23T09:35:21.999Z</time></trkpt><trkpt lat="31.158528488918826" lon="-4.4641694709795825"><ele>758.5</ele><time>2026-03-23T09:35:22.999Z</time></trkpt><trkpt lat="31.158441157860803" lon="-4.464291897916462"><ele>758.75</ele><time>2026-03-23T09:35:23.999Z</time></trkpt><trkpt lat="31.158344694611227" lon="-4.464423961414609"><ele>759.0</ele><time>2026-03-23T09:35:24.999Z</time></trkpt><trkpt lat="31.15824852339648" lon="-4.464559915752809"><ele>760.0</ele><time>2026-03-23T09:35:25.999Z</time></trkpt><trkpt lat="31.158144097042506" lon="-4.4646973146506514"><ele>761.0</ele><time>2026-03-23T09:35:26.999Z</time></trkpt><trkpt lat="31.158027616702096" lon="-4.464838954125597"><ele>762.0</ele><time>2026-03-23T09:35:27.999Z</time></trkpt><trkpt lat="31.157915058983733" lon="-4.464967739067291"><ele>762.0</ele><time>2026-03-23T09:35:28.999Z</time></trkpt><trkpt lat="31.157802062329477" lon="-4.465098688231698"><ele>762.0</ele><time>2026-03-23T09:35:29.999Z</time></trkpt><trkpt lat="31.1576922772018" lon="-4.465235298802254"><ele>762.0</ele><time>2026-03-23T09:35:30.999Z</time></trkpt><trkpt lat="31.157579628493586" lon="-4.4653728555276615"><ele>761.6666666666666</ele><time>2026-03-23T09:35:32Z</time></trkpt><trkpt lat="31.15746901382897" lon="-4.465499173623994"><ele>761.3333333333333</ele><time>2026-03-23T09:35:33Z</time></trkpt><trkpt lat="31.157363261828465" lon="-4.465618455257539"><ele>761.0</ele><time>2026-03-23T09:35:34Z</time></trkpt><trkpt lat="31.157256873836722" lon="-4.465748556601167"><ele>762.3333333333333</ele><time>2026-03-23T09:35:35Z</time></trkpt><trkpt lat="31.157160096504892" lon="-4.465878590801044"><ele>763.6666666666666</ele><time>2026-03-23T09:35:36Z</time></trkpt><trkpt lat="31.15706024114839" lon="-4.466017085086201"><ele>765.0</ele><time>2026-03-23T09:35:37Z</time></trkpt><trkpt lat="31.156967038357223" lon="-4.466160360586991"><ele>765.3333333333334</ele><time>2026-03-23T09:35:38Z</time></trkpt><trkpt lat="31.15687765621526" lon="-4.466308109530441"><ele>765.6666666666667</ele><time>2026-03-23T09:35:39Z</time></trkpt><trkpt lat="31.156791466553997" lon="-4.46645535488825"><ele>766.0</ele><time>2026-03-23T09:35:40Z</time></trkpt><trkpt lat="31.156705915354053" lon="-4.466599411570972"><ele>766.0</ele><time>2026-03-23T09:35:41Z</time></trkpt><trkpt lat="31.15661778383054" lon="-4.4667446765703405"><ele>766.0</ele><time>2026-03-23T09:35:42Z</time></trkpt><trkpt lat="31.156525402048754" lon="-4.466895902269311"><ele>766.0</ele><time>2026-03-23T09:35:43Z</time></trkpt><trkpt lat="31.156433736745868" lon="-4.467045611745014"><ele>765.0</ele><time>2026-03-23T09:35:44Z</time></trkpt><trkpt lat="31.156348266948225" lon="-4.467192449187824"><ele>764.0</ele><time>2026-03-23T09:35:45Z</time></trkpt><trkpt lat="31.15626309136849" lon="-4.467343464382869"><ele>763.0</ele><time>2026-03-23T09:35:46Z</time></trkpt><trkpt lat="31.156182508581292" lon="-4.467492184050011"><ele>763.0</ele><time>2026-03-23T09:35:47Z</time></trkpt><trkpt lat="31.156085213042108" lon="-4.467669401820016"><ele>763.0</ele><time>2026-03-23T09:35:48Z</time></trkpt><trkpt lat="31.155997957804807" lon="-4.467832277999146"><ele>763.0</ele><time>2026-03-23T09:35:49Z</time></trkpt><trkpt lat="31.155907592646884" lon="-4.4679866284878145"><ele>763.75</ele><time>2026-03-23T09:35:50Z</time></trkpt><trkpt lat="31.155822461433768" lon="-4.468138342433829"><ele>764.5</ele><time>2026-03-23T09:35:51Z</time></trkpt><trkpt lat="31.15574409773971" lon="-4.468293339847514"><ele>765.25</ele><time>2026-03-23T09:35:52Z</time></trkpt><trkpt lat="31.1556816396358" lon="-4.468434955546543"><ele>766.0</ele><time>2026-03-23T09:35:53Z</time></trkpt><trkpt lat="31.155625616963317" lon="-4.468570423476495"><ele>766.25</ele><time>2026-03-23T09:35:54Z</time></trkpt><trkpt lat="31.155557041319963" lon="-4.468714452922388"><ele>766.5</ele><time>2026-03-23T09:35:55Z</time></trkpt><trkpt lat="31.155477589003905" lon="-4.468858160779483"><ele>766.75</ele><time>2026-03-23T09:35:56Z</time></trkpt><trkpt lat="31.15539289460013" lon="-4.468993454870318"><ele>767.0</ele><time>2026-03-23T09:35:57Z</time></trkpt><trkpt lat="31.15530967434176" lon="-4.46911899567155"><ele>767.0</ele><time>2026-03-23T09:35:58Z</time></trkpt><trkpt lat="31.1552228626794" lon="-4.469253060847063"><ele>767.0</ele><time>2026-03-23T09:35:59Z</time></trkpt><trkpt lat="31.155141060075913" lon="-4.469389128444065"><ele>767.0</ele><time>2026-03-23T09:36:00Z</time></trkpt><trkpt lat="31.15507799617519" lon="-4.469504821256323"><ele>767.0</ele><time>2026-03-23T09:36:01Z</time></trkpt><trkpt lat="31.15503089772935" lon="-4.4695967814741255"><ele>767.3333333333333</ele><time>2026-03-23T09:36:02Z</time></trkpt><trkpt lat="31.155000647236022" lon="-4.4696674250025445"><ele>767.6666666666666</ele><time>2026-03-23T09:36:03Z</time></trkpt><trkpt lat="31.154959188687823" lon="-4.469761288592779"><ele>768.0</ele><time>2026-03-23T09:36:05Z</time></trkpt><trkpt lat="31.154909395782862" lon="-4.469844564189794"><ele>768.3333333333333</ele><time>2026-03-23T09:36:07Z</time></trkpt><trkpt lat="31.15486005895255" lon="-4.4699290206726925"><ele>768.6666666666666</ele><time>2026-03-23T09:36:08Z</time></trkpt><trkpt lat="31.154795587572504" lon="-4.470036024041362"><ele>769.0</ele><time>2026-03-23T09:36:09Z</time></trkpt><trkpt lat="31.15471663277774" lon="-4.470161254098958"><ele>769.25</ele><time>2026-03-23T09:36:10Z</time></trkpt><trkpt lat="31.154640173163777" lon="-4.470291000033183"><ele>769.5</ele><time>2026-03-23T09:36:11Z</time></trkpt><trkpt lat="31.154562691494267" lon="-4.4704372400677235"><ele>769.75</ele><time>2026-03-23T09:36:12Z</time></trkpt><trkpt lat="31.154484012373157" lon="-4.470595081685344"><ele>770.0</ele><time>2026-03-23T09:36:13Z</time></trkpt><trkpt lat="31.15439916416304" lon="-4.470757357119373"><ele>769.3333333333334</ele><time>2026-03-23T09:36:14Z</time></trkpt><trkpt lat="31.154308481317948" lon="-4.470914991710437"><ele>768.6666666666667</ele><time>2026-03-23T09:36:15Z</time></trkpt><trkpt lat="31.154216524957306" lon="-4.471071175743116"><ele>768.0</ele><time>2026-03-23T09:36:16Z</time></trkpt><trkpt lat="31.1541282280411" lon="-4.471234597067338"><ele>768.25</ele><time>2026-03-23T09:36:17Z</time></trkpt><trkpt lat="31.1540550084674" lon="-4.471385204282334"><ele>768.5</ele><time>2026-03-23T09:36:18Z</time></trkpt><trkpt lat="31.15399335209719" lon="-4.471512463225392"><ele>768.75</ele><time>2026-03-23T09:36:19Z</time></trkpt><trkpt lat="31.153926474409456" lon="-4.47165339381861"><ele>769.0</ele><time>2026-03-23T09:36:20Z</time></trkpt><trkpt lat="31.15385706962864" lon="-4.471802988233496"><ele>769.6666666666666</ele><time>2026-03-23T09:36:21Z</time></trkpt><trkpt lat="31.153785398759226" lon="-4.471957886971814"><ele>770.3333333333333</ele><time>2026-03-23T09:36:22Z</time></trkpt><trkpt lat="31.153711651640492" lon="-4.472119000088921"><ele>771.0</ele><time>2026-03-23T09:36:23Z</time></trkpt><trkpt lat="31.153635450739234" lon="-4.472301798527532"><ele>771.0</ele><time>2026-03-23T09:36:24Z</time></trkpt><trkpt lat="31.153569109707984" lon="-4.47247623581728"><ele>771.0</ele><time>2026-03-23T09:36:25Z</time></trkpt><trkpt lat="31.153513836611335" lon="-4.472615214796832"><ele>771.0</ele><time>2026-03-23T09:36:26Z</time></trkpt><trkpt lat="31.153459420745403" lon="-4.472743375197255"><ele>771.0</ele><time>2026-03-23T09:36:27Z</time></trkpt><trkpt lat="31.153420200697486" lon="-4.472892598671858"><ele>771.0</ele><time>2026-03-23T09:36:28Z</time></trkpt><trkpt lat="31.153354682636078" lon="-4.473044641786856"><ele>771.0</ele><time>2026-03-23T09:36:29Z</time></trkpt><trkpt lat="31.15327487921618" lon="-4.473211517794024"><ele>771.0</ele><time>2026-03-23T09:36:30Z</time></trkpt><trkpt lat="31.15318139261532" lon="-4.473387301334129"><ele>771.0</ele><time>2026-03-23T09:36:31Z</time></trkpt><trkpt lat="31.15306901538721" lon="-4.473585968781942"><ele>771.0</ele><time>2026-03-23T09:36:32Z</time></trkpt><trkpt lat="31.152966826151673" lon="-4.473779130733584"><ele>771.0</ele><time>2026-03-23T09:36:33Z</time></trkpt><trkpt lat="31.152859764716872" lon="-4.473980649041062"><ele>771.0</ele><time>2026-03-23T09:36:34Z</time></trkpt><trkpt lat="31.152740158148898" lon="-4.474215208138837"><ele>771.0</ele><time>2026-03-23T09:36:35Z</time></trkpt><trkpt lat="31.152630337559728" lon="-4.4744481179861815"><ele>771.3333333333333</ele><time>2026-03-23T09:36:36Z</time></trkpt><trkpt lat="31.1525310368018" lon="-4.474652193706389"><ele>771.6666666666666</ele><time>2026-03-23T09:36:37Z</time></trkpt><trkpt lat="31.152442352806066" lon="-4.474866843092037"><ele>772.0</ele><time>2026-03-23T09:36:38Z</time></trkpt><trkpt lat="31.152348365551777" lon="-4.4750756358879"><ele>772.0</ele><time>2026-03-23T09:36:39Z</time></trkpt><trkpt lat="31.152252731877553" lon="-4.475272528715056"><ele>772.0</ele><time>2026-03-23T09:36:40Z</time></trkpt><trkpt lat="31.152156812054773" lon="-4.475466098959683"><ele>772.0</ele><time>2026-03-23T09:36:41Z</time></trkpt><trkpt lat="31.152061502720663" lon="-4.475670101747811"><ele>772.0</ele><time>2026-03-23T09:36:42Z</time></trkpt><trkpt lat="31.15196462079434" lon="-4.4758765713107875"><ele>772.0</ele><time>2026-03-23T09:36:43Z</time></trkpt><trkpt lat="31.15186358424496" lon="-4.476093359672574"><ele>772.0</ele><time>2026-03-23T09:36:44Z</time></trkpt><trkpt lat="31.1517515068586" lon="-4.476325445078764"><ele>772.0</ele><time>2026-03-23T09:36:45Z</time></trkpt><trkpt lat="31.15164700250328" lon="-4.476545485701582"><ele>772.0</ele><time>2026-03-23T09:36:46Z</time></trkpt><trkpt lat="31.151561608835294" lon="-4.4767206338221825"><ele>772.0</ele><time>2026-03-23T09:36:47Z</time></trkpt><trkpt lat="31.151491073680635" lon="-4.476866282843603"><ele>772.0</ele><time>2026-03-23T09:36:48Z</time></trkpt><trkpt lat="31.15142675111264" lon="-4.47699667046258"><ele>772.0</ele><time>2026-03-23T09:36:49Z</time></trkpt><trkpt lat="31.151367486339577" lon="-4.477123572524575"><ele>772.0</ele><time>2026-03-23T09:36:50Z</time></trkpt><trkpt lat="31.151312936647265" lon="-4.47725104627081"><ele>772.0</ele><time>2026-03-23T09:36:51Z</time></trkpt><trkpt lat="31.151248292419854" lon="-4.477386317247966"><ele>772.0</ele><time>2026-03-23T09:36:52Z</time></trkpt><trkpt lat="31.15119133093658" lon="-4.477534788184349"><ele>772.0</ele><time>2026-03-23T09:36:53Z</time></trkpt><trkpt lat="31.151100847666473" lon="-4.477688356114797"><ele>772.0</ele><time>2026-03-23T09:36:54Z</time></trkpt><trkpt lat="31.15102483110123" lon="-4.477843345959634"><ele>772.5</ele><time>2026-03-23T09:36:55Z</time></trkpt><trkpt lat="31.15095413816625" lon="-4.477997154410112"><ele>773.0</ele><time>2026-03-23T09:36:56Z</time></trkpt><trkpt lat="31.150881793162917" lon="-4.4781410802851065"><ele>773.5</ele><time>2026-03-23T09:36:57Z</time></trkpt><trkpt lat="31.15079532192816" lon="-4.478284026274036"><ele>774.0</ele><time>2026-03-23T09:36:58Z</time></trkpt><trkpt lat="31.150726726731367" lon="-4.478439150086461"><ele>774.6666666666667</ele><time>2026-03-23T09:36:59Z</time></trkpt><trkpt lat="31.150631710223163" lon="-4.47858816566765"><ele>775.3333333333334</ele><time>2026-03-23T09:37:00Z</time></trkpt><trkpt lat="31.15054833110746" lon="-4.478742630893838"><ele>776.0</ele><time>2026-03-23T09:37:01Z</time></trkpt><trkpt lat="31.150458094828743" lon="-4.478909772108983"><ele>776.0</ele><time>2026-03-23T09:37:02Z</time></trkpt><trkpt lat="31.150370409474824" lon="-4.4790721883355324"><ele>776.0</ele><time>2026-03-23T09:37:03Z</time></trkpt><trkpt lat="31.150305884119255" lon="-4.479226318505121"><ele>776.0</ele><time>2026-03-23T09:37:04Z</time></trkpt><trkpt lat="31.150217505250094" lon="-4.479372083962883"><ele>776.0</ele><time>2026-03-23T09:37:05Z</time></trkpt><trkpt lat="31.15013327602844" lon="-4.4795170016957595"><ele>776.0</ele><time>2026-03-23T09:37:06Z</time></trkpt><trkpt lat="31.150044164550696" lon="-4.47966431357766"><ele>776.0</ele><time>2026-03-23T09:37:07Z</time></trkpt><trkpt lat="31.149970006463693" lon="-4.479798912958647"><ele>776.0</ele><time>2026-03-23T09:37:08Z</time></trkpt><trkpt lat="31.149899879221852" lon="-4.479930183687502"><ele>776.0</ele><time>2026-03-23T09:37:09Z</time></trkpt><trkpt lat="31.149829727318036" lon="-4.480068801381266"><ele>776.0</ele><time>2026-03-23T09:37:10Z</time></trkpt><trkpt lat="31.149745587071394" lon="-4.480214826369338"><ele>776.0</ele><time>2026-03-23T09:37:11Z</time></trkpt><trkpt lat="31.149648319537693" lon="-4.480376294398961"><ele>774.6666666666667</ele><time>2026-03-23T09:37:12Z</time></trkpt><trkpt lat="31.149564050365544" lon="-4.480555307500487"><ele>773.3333333333333</ele><time>2026-03-23T09:37:13Z</time></trkpt><trkpt lat="31.14945711214459" lon="-4.480739868067981"><ele>772.0</ele><time>2026-03-23T09:37:14Z</time></trkpt><trkpt lat="31.14935155190175" lon="-4.4809060046960925"><ele>772.0</ele><time>2026-03-23T09:37:15Z</time></trkpt><trkpt lat="31.14924489159734" lon="-4.481048418035185"><ele>772.0</ele><time>2026-03-23T09:37:16Z</time></trkpt><trkpt lat="31.149150198846357" lon="-4.481204971024823"><ele>772.0</ele><time>2026-03-23T09:37:17Z</time></trkpt><trkpt lat="31.14904672039246" lon="-4.4813749825272495"><ele>772.6666666666666</ele><time>2026-03-23T09:37:18Z</time></trkpt><trkpt lat="31.14894239482802" lon="-4.481542047389401"><ele>773.3333333333333</ele><time>2026-03-23T09:37:19Z</time></trkpt><trkpt lat="31.148842839097806" lon="-4.481698804517422"><ele>774.0</ele><time>2026-03-23T09:37:20Z</time></trkpt><trkpt lat="31.148740605104237" lon="-4.481872508083699"><ele>774.0</ele><time>2026-03-23T09:37:21Z</time></trkpt><trkpt lat="31.148638772405125" lon="-4.482055074779309"><ele>774.0</ele><time>2026-03-23T09:37:22Z</time></trkpt><trkpt lat="31.148535870611273" lon="-4.4822242719276115"><ele>774.0</ele><time>2026-03-23T09:37:23Z</time></trkpt><trkpt lat="31.148432123057642" lon="-4.482388993436373"><ele>774.0</ele><time>2026-03-23T09:37:24Z</time></trkpt><trkpt lat="31.14833091668343" lon="-4.482562460175648"><ele>774.0</ele><time>2026-03-23T09:37:25Z</time></trkpt><trkpt lat="31.14822894787633" lon="-4.482732406883838"><ele>774.0</ele><time>2026-03-23T09:37:26Z</time></trkpt><trkpt lat="31.14813412651302" lon="-4.482893748096222"><ele>775.3333333333333</ele><time>2026-03-23T09:37:26.999Z</time></trkpt><trkpt lat="31.148047070230252" lon="-4.483046683353049"><ele>776.6666666666666</ele><time>2026-03-23T09:37:27.999Z</time></trkpt><trkpt lat="31.147961269065345" lon="-4.483195678710272"><ele>778.0</ele><time>2026-03-23T09:37:28.999Z</time></trkpt><trkpt lat="31.147893452912363" lon="-4.483356745576784"><ele>778.0</ele><time>2026-03-23T09:37:29.999Z</time></trkpt><trkpt lat="31.1478144210192" lon="-4.483505817292422"><ele>778.0</ele><time>2026-03-23T09:37:30.999Z</time></trkpt><trkpt lat="31.14772725081197" lon="-4.483669969764309"><ele>778.0</ele><time>2026-03-23T09:37:31.999Z</time></trkpt><trkpt lat="31.147640265329365" lon="-4.483834611240648"><ele>778.0</ele><time>2026-03-23T09:37:32.999Z</time></trkpt><trkpt lat="31.147557384311693" lon="-4.483992161763919"><ele>778.0</ele><time>2026-03-23T09:37:33.999Z</time></trkpt><trkpt lat="31.14746600924307" lon="-4.4841660844406785"><ele>778.0</ele><time>2026-03-23T09:37:34.999Z</time></trkpt><trkpt lat="31.14735569446826" lon="-4.484364155184236"><ele>778.3333333333333</ele><time>2026-03-23T09:37:35.999Z</time></trkpt><trkpt lat="31.14723757987182" lon="-4.484531502614435"><ele>778.6666666666667</ele><time>2026-03-23T09:37:36.999Z</time></trkpt><trkpt lat="31.147123553460585" lon="-4.48469420329541"><ele>779.0</ele><time>2026-03-23T09:37:37.999Z</time></trkpt><trkpt lat="31.147005443912352" lon="-4.48486273283378"><ele>779.0</ele><time>2026-03-23T09:37:38.999Z</time></trkpt><trkpt lat="31.146897096976236" lon="-4.48501735129151"><ele>779.0</ele><time>2026-03-23T09:37:39.999Z</time></trkpt><trkpt lat="31.146796716886392" lon="-4.485160600511143"><ele>779.0</ele><time>2026-03-23T09:37:41Z</time></trkpt><trkpt lat="31.14670555907759" lon="-4.4852906889165585"><ele>779.0</ele><time>2026-03-23T09:37:42Z</time></trkpt><trkpt lat="31.146612729734702" lon="-4.485423150805753"><ele>779.0</ele><time>2026-03-23T09:37:43Z</time></trkpt><trkpt lat="31.146495815094262" lon="-4.485577159279845"><ele>779.0</ele><time>2026-03-23T09:37:44Z</time></trkpt><trkpt lat="31.14637861174093" lon="-4.485711082355441"><ele>779.0</ele><time>2026-03-23T09:37:45Z</time></trkpt><trkpt lat="31.14626400529404" lon="-4.485841860269271"><ele>779.0</ele><time>2026-03-23T09:37:46Z</time></trkpt><trkpt lat="31.14615871184938" lon="-4.485962411273996"><ele>779.0</ele><time>2026-03-23T09:37:47Z</time></trkpt><trkpt lat="31.146058426628077" lon="-4.486077228340473"><ele>779.0</ele><time>2026-03-23T09:37:48Z</time></trkpt><trkpt lat="31.145951402695232" lon="-4.486199760593324"><ele>778.6666666666667</ele><time>2026-03-23T09:37:49Z</time></trkpt><trkpt lat="31.145838610600666" lon="-4.4863288968461355"><ele>778.3333333333333</ele><time>2026-03-23T09:37:50Z</time></trkpt><trkpt lat="31.145726938847247" lon="-4.486457251723805"><ele>778.0</ele><time>2026-03-23T09:37:51Z</time></trkpt><trkpt lat="31.145605088399428" lon="-4.486583786542291"><ele>779.0</ele><time>2026-03-23T09:37:52Z</time></trkpt><trkpt lat="31.145488169968182" lon="-4.486698330064528"><ele>780.0</ele><time>2026-03-23T09:37:53Z</time></trkpt><trkpt lat="31.14536910222407" lon="-4.486800547443486"><ele>781.0</ele><time>2026-03-23T09:37:54Z</time></trkpt><trkpt lat="31.14526602628009" lon="-4.486926814011356"><ele>781.0</ele><time>2026-03-23T09:37:55Z</time></trkpt><trkpt lat="31.14516308690503" lon="-4.487054422757776"><ele>781.0</ele><time>2026-03-23T09:37:56Z</time></trkpt><trkpt lat="31.14506685282567" lon="-4.487182777152749"><ele>781.0</ele><time>2026-03-23T09:37:57Z</time></trkpt><trkpt lat="31.144975818282262" lon="-4.48732045836847"><ele>781.0</ele><time>2026-03-23T09:37:58Z</time></trkpt><trkpt lat="31.144893911619576" lon="-4.487460107374262"><ele>780.5</ele><time>2026-03-23T09:37:59Z</time></trkpt><trkpt lat="31.144820811278436" lon="-4.487600421915789"><ele>780.0</ele><time>2026-03-23T09:38:00Z</time></trkpt><trkpt lat="31.14474846186451" lon="-4.487731119877705"><ele>779.5</ele><time>2026-03-23T09:38:01Z</time></trkpt><trkpt lat="31.144678522231757" lon="-4.487849634821465"><ele>779.0</ele><time>2026-03-23T09:38:02Z</time></trkpt><trkpt lat="31.144610997959354" lon="-4.487945779842055"><ele>779.0</ele><time>2026-03-23T09:38:03Z</time></trkpt><trkpt lat="31.14453596639392" lon="-4.488033612856811"><ele>779.0</ele><time>2026-03-23T09:38:04Z</time></trkpt><trkpt lat="31.1444489085654" lon="-4.488108061053956"><ele>779.0</ele><time>2026-03-23T09:38:05Z</time></trkpt><trkpt lat="31.144352813194523" lon="-4.488179629602116"><ele>779.0</ele><time>2026-03-23T09:38:06Z</time></trkpt><trkpt lat="31.144254201944566" lon="-4.488258909574587"><ele>779.0</ele><time>2026-03-23T09:38:07Z</time></trkpt><trkpt lat="31.14414774397845" lon="-4.488322767915163"><ele>779.0</ele><time>2026-03-23T09:38:08Z</time></trkpt><trkpt lat="31.144069440887478" lon="-4.488401099450569"><ele>779.0</ele><time>2026-03-23T09:38:09Z</time></trkpt><trkpt lat="31.143985849827313" lon="-4.4884743766040724"><ele>779.0</ele><time>2026-03-23T09:38:10Z</time></trkpt><trkpt lat="31.143907076137385" lon="-4.488560875600215"><ele>779.0</ele><time>2026-03-23T09:38:11Z</time></trkpt><trkpt lat="31.14384487617914" lon="-4.488645213231331"><ele>779.0</ele><time>2026-03-23T09:38:12Z</time></trkpt><trkpt lat="31.143779007493638" lon="-4.488704989579433"><ele>778.8000000000001</ele><time>2026-03-23T09:38:13Z</time></trkpt><trkpt lat="31.143725732027413" lon="-4.488800262593434"><ele>778.6</ele><time>2026-03-23T09:38:14Z</time></trkpt><trkpt lat="31.143654433287416" lon="-4.488892486195507"><ele>778.4</ele><time>2026-03-23T09:38:15Z</time></trkpt><trkpt lat="31.14358452754635" lon="-4.488982907976476"><ele>778.2</ele><time>2026-03-23T09:38:16Z</time></trkpt><trkpt lat="31.14351288921088" lon="-4.489075570844524"><ele>778.0</ele><time>2026-03-23T09:38:17Z</time></trkpt><trkpt lat="31.143448324351905" lon="-4.489162370212424"><ele>778.0</ele><time>2026-03-23T09:38:18Z</time></trkpt><trkpt lat="31.143379074789188" lon="-4.489258904006808"><ele>778.0</ele><time>2026-03-23T09:38:19Z</time></trkpt><trkpt lat="31.14330800444666" lon="-4.489357975956904"><ele>778.0</ele><time>2026-03-23T09:38:20Z</time></trkpt><trkpt lat="31.143235610016593" lon="-4.489458893686048"><ele>778.0</ele><time>2026-03-23T09:38:21Z</time></trkpt><trkpt lat="31.14315943409957" lon="-4.489565082799388"><ele>779.25</ele><time>2026-03-23T09:38:22Z</time></trkpt><trkpt lat="31.143073587797858" lon="-4.489686224165786"><ele>780.5</ele><time>2026-03-23T09:38:23Z</time></trkpt><trkpt lat="31.14296886764474" lon="-4.489785625101107"><ele>781.75</ele><time>2026-03-23T09:38:24Z</time></trkpt><trkpt lat="31.142859200544383" lon="-4.489873722522894"><ele>783.0</ele><time>2026-03-23T09:38:25Z</time></trkpt><trkpt lat="31.142756711195148" lon="-4.48998363393104"><ele>783.0</ele><time>2026-03-23T09:38:26Z</time></trkpt><trkpt lat="31.142645949769456" lon="-4.490075165175507"><ele>783.0</ele><time>2026-03-23T09:38:27Z</time></trkpt><trkpt lat="31.142549170856714" lon="-4.490177167849562"><ele>783.0</ele><time>2026-03-23T09:38:28Z</time></trkpt><trkpt lat="31.14244350091683" lon="-4.49026646015857"><ele>783.0</ele><time>2026-03-23T09:38:29Z</time></trkpt><trkpt lat="31.14234875347502" lon="-4.4903575530430775"><ele>782.75</ele><time>2026-03-23T09:38:30Z</time></trkpt><trkpt lat="31.142253563737828" lon="-4.490446203774947"><ele>782.5</ele><time>2026-03-23T09:38:31Z</time></trkpt><trkpt lat="31.142171609981773" lon="-4.49054947451334"><ele>782.25</ele><time>2026-03-23T09:38:32Z</time></trkpt><trkpt lat="31.14208855698489" lon="-4.490635068999586"><ele>782.0</ele><time>2026-03-23T09:38:33Z</time></trkpt><trkpt lat="31.142003689019543" lon="-4.490722533997117"><ele>782.0</ele><time>2026-03-23T09:38:34Z</time></trkpt><trkpt lat="31.14190749279382" lon="-4.490821673905692"><ele>782.0</ele><time>2026-03-23T09:38:35Z</time></trkpt><trkpt lat="31.14179770511554" lon="-4.4909348211808355"><ele>782.0</ele><time>2026-03-23T09:38:36Z</time></trkpt><trkpt lat="31.141689788353176" lon="-4.491046040286866"><ele>782.0</ele><time>2026-03-23T09:38:37Z</time></trkpt><trkpt lat="31.141573583909583" lon="-4.491139935257079"><ele>781.3333333333334</ele><time>2026-03-23T09:38:38Z</time></trkpt><trkpt lat="31.141481764309567" lon="-4.491260430040532"><ele>780.6666666666667</ele><time>2026-03-23T09:38:39Z</time></trkpt><trkpt lat="31.14136670332845" lon="-4.491379011984656"><ele>780.0</ele><time>2026-03-23T09:38:40Z</time></trkpt><trkpt lat="31.141240385233004" lon="-4.491490724727135"><ele>780.0</ele><time>2026-03-23T09:38:41Z</time></trkpt><trkpt lat="31.141108291245278" lon="-4.491606020383368"><ele>780.0</ele><time>2026-03-23T09:38:42Z</time></trkpt><trkpt lat="31.140973002685122" lon="-4.491703938548597"><ele>780.0</ele><time>2026-03-23T09:38:43Z</time></trkpt><trkpt lat="31.140847059266417" lon="-4.491820112068223"><ele>780.0</ele><time>2026-03-23T09:38:44Z</time></trkpt><trkpt lat="31.140722702725295" lon="-4.491939213866368"><ele>780.0</ele><time>2026-03-23T09:38:45Z</time></trkpt><trkpt lat="31.14059524006266" lon="-4.492056794887932"><ele>780.0</ele><time>2026-03-23T09:38:46Z</time></trkpt><trkpt lat="31.140463377562146" lon="-4.492173663742624"><ele>780.5</ele><time>2026-03-23T09:38:47Z</time></trkpt><trkpt lat="31.140342291764398" lon="-4.492281910874274"><ele>781.0</ele><time>2026-03-23T09:38:48Z</time></trkpt><trkpt lat="31.14023403263156" lon="-4.4923675978429625"><ele>781.5</ele><time>2026-03-23T09:38:49Z</time></trkpt><trkpt lat="31.14012742877334" lon="-4.492442592611846"><ele>782.0</ele><time>2026-03-23T09:38:50Z</time></trkpt><trkpt lat="31.140003250417834" lon="-4.492527189481754"><ele>782.0</ele><time>2026-03-23T09:38:51Z</time></trkpt><trkpt lat="31.139896737560267" lon="-4.492605370705324"><ele>782.0</ele><time>2026-03-23T09:38:52Z</time></trkpt><trkpt lat="31.13978507621893" lon="-4.492687230444243"><ele>782.0</ele><time>2026-03-23T09:38:53Z</time></trkpt><trkpt lat="31.139656234481368" lon="-4.492779374414226"><ele>782.0</ele><time>2026-03-23T09:38:54Z</time></trkpt><trkpt lat="31.13951540486889" lon="-4.492884564800504"><ele>782.0</ele><time>2026-03-23T09:38:55Z</time></trkpt><trkpt lat="31.13936028073974" lon="-4.492989416331137"><ele>782.0</ele><time>2026-03-23T09:38:56Z</time></trkpt><trkpt lat="31.1392247772773" lon="-4.493100519189733"><ele>782.0</ele><time>2026-03-23T09:38:57Z</time></trkpt><trkpt lat="31.139114093088924" lon="-4.493187270550667"><ele>782.5</ele><time>2026-03-23T09:38:58Z</time></trkpt><trkpt lat="31.139019883115395" lon="-4.49326894476677"><ele>783.0</ele><time>2026-03-23T09:38:59Z</time></trkpt><trkpt lat="31.138926183608632" lon="-4.493341432195098"><ele>783.5</ele><time>2026-03-23T09:39:00Z</time></trkpt><trkpt lat="31.13881955580108" lon="-4.493425814933962"><ele>784.0</ele><time>2026-03-23T09:39:01Z</time></trkpt><trkpt lat="31.138702929266884" lon="-4.493515480620041"><ele>784.0</ele><time>2026-03-23T09:39:02Z</time></trkpt><trkpt lat="31.138582806012664" lon="-4.493610042411882"><ele>784.0</ele><time>2026-03-23T09:39:03Z</time></trkpt><trkpt lat="31.138454673461887" lon="-4.493710000136296"><ele>784.0</ele><time>2026-03-23T09:39:04Z</time></trkpt><trkpt lat="31.138323829318253" lon="-4.493813489205514"><ele>784.6666666666666</ele><time>2026-03-23T09:39:05Z</time></trkpt><trkpt lat="31.138181896319868" lon="-4.493924317118962"><ele>785.3333333333333</ele><time>2026-03-23T09:39:06Z</time></trkpt><trkpt lat="31.13805569189043" lon="-4.494062378758214"><ele>786.0</ele><time>2026-03-23T09:39:07Z</time></trkpt><trkpt lat="31.137925022670007" lon="-4.494185745436419"><ele>786.0</ele><time>2026-03-23T09:39:08Z</time></trkpt><trkpt lat="31.137800925922246" lon="-4.494308018759068"><ele>786.0</ele><time>2026-03-23T09:39:09Z</time></trkpt><trkpt lat="31.137677979460953" lon="-4.494422574841307"><ele>786.0</ele><time>2026-03-23T09:39:10Z</time></trkpt><trkpt lat="31.137557670168245" lon="-4.494536770516372"><ele>785.6666666666667</ele><time>2026-03-23T09:39:11Z</time></trkpt><trkpt lat="31.13743216058664" lon="-4.4946586631556755"><ele>785.3333333333334</ele><time>2026-03-23T09:39:12Z</time></trkpt><trkpt lat="31.137307409740494" lon="-4.494781431937589"><ele>785.0</ele><time>2026-03-23T09:39:13Z</time></trkpt><trkpt lat="31.13718192032001" lon="-4.494900220908435"><ele>785.6666666666667</ele><time>2026-03-23T09:39:14Z</time></trkpt><trkpt lat="31.137056132605966" lon="-4.495016974302613"><ele>786.3333333333333</ele><time>2026-03-23T09:39:15Z</time></trkpt><trkpt lat="31.136938475189297" lon="-4.495156987986333"><ele>787.0</ele><time>2026-03-23T09:39:16Z</time></trkpt><trkpt lat="31.13680860251611" lon="-4.495284541161668"><ele>787.0</ele><time>2026-03-23T09:39:17Z</time></trkpt><trkpt lat="31.13667540370879" lon="-4.495414664410083"><ele>787.0</ele><time>2026-03-23T09:39:18Z</time></trkpt><trkpt lat="31.136539184153495" lon="-4.495547738673031"><ele>787.0</ele><time>2026-03-23T09:39:19Z</time></trkpt><trkpt lat="31.13641171584986" lon="-4.495672263728928"><ele>786.3333333333333</ele><time>2026-03-23T09:39:20Z</time></trkpt><trkpt lat="31.136284205031124" lon="-4.495797245235155"><ele>785.6666666666667</ele><time>2026-03-23T09:39:21Z</time></trkpt><trkpt lat="31.136144541683908" lon="-4.495926434439813"><ele>785.0</ele><time>2026-03-23T09:39:22Z</time></trkpt><trkpt lat="31.13600786368038" lon="-4.496051935320822"><ele>785.0</ele><time>2026-03-23T09:39:23Z</time></trkpt><trkpt lat="31.135870251950703" lon="-4.496178665793941"><ele>785.0</ele><time>2026-03-23T09:39:24Z</time></trkpt><trkpt lat="31.135728069851385" lon="-4.496309605219677"><ele>785.0</ele><time>2026-03-23T09:39:25Z</time></trkpt><trkpt lat="31.135583303526747" lon="-4.496442924565516"><ele>785.3333333333334</ele><time>2026-03-23T09:39:26Z</time></trkpt><trkpt lat="31.13543300071347" lon="-4.496581342592272"><ele>785.6666666666667</ele><time>2026-03-23T09:39:27Z</time></trkpt><trkpt lat="31.13527971647746" lon="-4.496722539358774"><ele>786.0</ele><time>2026-03-23T09:39:28Z</time></trkpt><trkpt lat="31.135125331899328" lon="-4.496865460846796"><ele>786.0</ele><time>2026-03-23T09:39:29Z</time></trkpt><trkpt lat="31.13495682455996" lon="-4.4970039021773704"><ele>786.0</ele><time>2026-03-23T09:39:30Z</time></trkpt><trkpt lat="31.134789809581314" lon="-4.4971340133351685"><ele>786.0</ele><time>2026-03-23T09:39:31Z</time></trkpt><trkpt lat="31.134620856189137" lon="-4.497261205829067"><ele>786.3333333333333</ele><time>2026-03-23T09:39:32Z</time></trkpt><trkpt lat="31.134448639034648" lon="-4.497387968479969"><ele>786.6666666666666</ele><time>2026-03-23T09:39:33Z</time></trkpt><trkpt lat="31.134285215868296" lon="-4.497508257301799"><ele>787.0</ele><time>2026-03-23T09:39:34Z</time></trkpt><trkpt lat="31.134128362377627" lon="-4.49762501307932"><ele>787.3333333333333</ele><time>2026-03-23T09:39:35Z</time></trkpt><trkpt lat="31.13397123359097" lon="-4.497742170844179"><ele>787.6666666666667</ele><time>2026-03-23T09:39:36Z</time></trkpt><trkpt lat="31.13381020595366" lon="-4.497862236054376"><ele>788.0</ele><time>2026-03-23T09:39:37Z</time></trkpt><trkpt lat="31.1336637960662" lon="-4.497970798313643"><ele>788.25</ele><time>2026-03-23T09:39:38Z</time></trkpt><trkpt lat="31.133527054908257" lon="-4.498051361562887"><ele>788.5</ele><time>2026-03-23T09:39:39Z</time></trkpt><trkpt lat="31.133411209061865" lon="-4.49813448368194"><ele>788.75</ele><time>2026-03-23T09:39:40Z</time></trkpt><trkpt lat="31.13328478906542" lon="-4.498224852371878"><ele>789.0</ele><time>2026-03-23T09:39:41Z</time></trkpt><trkpt lat="31.133145338722315" lon="-4.4983274957823784"><ele>789.0</ele><time>2026-03-23T09:39:42Z</time></trkpt><trkpt lat="31.13300212519996" lon="-4.498453047053387"><ele>789.0</ele><time>2026-03-23T09:39:43Z</time></trkpt><trkpt lat="31.132846575771254" lon="-4.498567023214061"><ele>789.0</ele><time>2026-03-23T09:39:44Z</time></trkpt><trkpt lat="31.13269976043398" lon="-4.4986818622731315"><ele>789.0</ele><time>2026-03-23T09:39:45Z</time></trkpt><trkpt lat="31.13255954669129" lon="-4.498791526808511"><ele>789.0</ele><time>2026-03-23T09:39:46Z</time></trkpt><trkpt lat="31.132421072608185" lon="-4.498899830636378"><ele>789.0</ele><time>2026-03-23T09:39:47Z</time></trkpt><trkpt lat="31.132287470023073" lon="-4.499004324384277"><ele>788.3333333333333</ele><time>2026-03-23T09:39:48Z</time></trkpt><trkpt lat="31.132155933134822" lon="-4.499107202495454"><ele>787.6666666666666</ele><time>2026-03-23T09:39:49Z</time></trkpt><trkpt lat="31.132019712059062" lon="-4.499213744192902"><ele>787.0</ele><time>2026-03-23T09:39:50Z</time></trkpt><trkpt lat="31.13189618793596" lon="-4.499311558033327"><ele>787.0</ele><time>2026-03-23T09:39:51Z</time></trkpt><trkpt lat="31.13178157419051" lon="-4.49940425386615"><ele>787.0</ele><time>2026-03-23T09:39:52Z</time></trkpt><trkpt lat="31.131663835868626" lon="-4.499499476764383"><ele>787.0</ele><time>2026-03-23T09:39:53Z</time></trkpt><trkpt lat="31.131545414368816" lon="-4.499595250349153"><ele>787.0</ele><time>2026-03-23T09:39:54Z</time></trkpt><trkpt lat="31.13142393042288" lon="-4.499693490764822"><ele>788.0</ele><time>2026-03-23T09:39:55Z</time></trkpt><trkpt lat="31.13130420224529" lon="-4.499790311262894"><ele>789.0</ele><time>2026-03-23T09:39:56Z</time></trkpt><trkpt lat="31.13117959974871" lon="-4.499891073501135"><ele>790.0</ele><time>2026-03-23T09:39:57Z</time></trkpt><trkpt lat="31.13104237880125" lon="-4.500003592938909"><ele>790.0</ele><time>2026-03-23T09:39:58Z</time></trkpt><trkpt lat="31.13091171161209" lon="-4.500117222615021"><ele>790.0</ele><time>2026-03-23T09:39:59Z</time></trkpt><trkpt lat="31.130785685698243" lon="-4.500226816151243"><ele>790.0</ele><time>2026-03-23T09:40:00Z</time></trkpt><trkpt lat="31.13066790152193" lon="-4.50032924261689"><ele>789.75</ele><time>2026-03-23T09:40:01Z</time></trkpt><trkpt lat="31.13055428751013" lon="-4.500428042653707"><ele>789.5</ele><time>2026-03-23T09:40:02Z</time></trkpt><trkpt lat="31.130448993506764" lon="-4.500518998567823"><ele>789.25</ele><time>2026-03-23T09:40:03Z</time></trkpt><trkpt lat="31.130326745312793" lon="-4.500619975418006"><ele>789.0</ele><time>2026-03-23T09:40:04Z</time></trkpt><trkpt lat="31.13019908351666" lon="-4.50071843732011"><ele>789.0</ele><time>2026-03-23T09:40:05Z</time></trkpt><trkpt lat="31.13005655983241" lon="-4.500828361804633"><ele>789.0</ele><time>2026-03-23T09:40:06Z</time></trkpt><trkpt lat="31.129918906033716" lon="-4.500934530188458"><ele>789.0</ele><time>2026-03-23T09:40:07Z</time></trkpt><trkpt lat="31.12978291390579" lon="-4.501039417083214"><ele>789.0</ele><time>2026-03-23T09:40:08Z</time></trkpt><trkpt lat="31.129655197562176" lon="-4.501137921087129"><ele>789.0</ele><time>2026-03-23T09:40:09Z</time></trkpt><trkpt lat="31.129542546814445" lon="-4.501224805403209"><ele>789.0</ele><time>2026-03-23T09:40:10Z</time></trkpt><trkpt lat="31.129449301373768" lon="-4.501296722945079"><ele>789.0</ele><time>2026-03-23T09:40:11Z</time></trkpt><trkpt lat="31.129330445145683" lon="-4.50137056923828"><ele>789.3333333333333</ele><time>2026-03-23T09:40:12Z</time></trkpt><trkpt lat="31.129205157431432" lon="-4.501467633919971"><ele>789.6666666666666</ele><time>2026-03-23T09:40:13Z</time></trkpt><trkpt lat="31.129064763495577" lon="-4.501548280823566"><ele>790.0</ele><time>2026-03-23T09:40:14Z</time></trkpt><trkpt lat="31.12892567920028" lon="-4.501646877709939"><ele>790.0</ele><time>2026-03-23T09:40:15Z</time></trkpt><trkpt lat="31.128789749059468" lon="-4.50173952524161"><ele>790.0</ele><time>2026-03-23T09:40:16Z</time></trkpt><trkpt lat="31.1286535413241" lon="-4.501831177413602"><ele>790.0</ele><time>2026-03-23T09:40:17Z</time></trkpt><trkpt lat="31.1285223326784" lon="-4.501940580901801"><ele>790.0</ele><time>2026-03-23T09:40:18Z</time></trkpt><trkpt lat="31.12838971161256" lon="-4.5020422588772675"><ele>790.0</ele><time>2026-03-23T09:40:19Z</time></trkpt><trkpt lat="31.128253090380646" lon="-4.502145262114245"><ele>790.0</ele><time>2026-03-23T09:40:20Z</time></trkpt><trkpt lat="31.12810529192196" lon="-4.502255981827591"><ele>790.0</ele><time>2026-03-23T09:40:21Z</time></trkpt><trkpt lat="31.12795037880872" lon="-4.502371046367196"><ele>790.0</ele><time>2026-03-23T09:40:22Z</time></trkpt><trkpt lat="31.127786951776883" lon="-4.5024932858958255"><ele>790.0</ele><time>2026-03-23T09:40:23Z</time></trkpt><trkpt lat="31.127630940049134" lon="-4.502612892834021"><ele>790.0</ele><time>2026-03-23T09:40:24Z</time></trkpt><trkpt lat="31.12747945206259" lon="-4.502706147195014"><ele>790.0</ele><time>2026-03-23T09:40:25Z</time></trkpt><trkpt lat="31.127347620700267" lon="-4.502813280502216"><ele>790.0</ele><time>2026-03-23T09:40:26Z</time></trkpt><trkpt lat="31.12721321313967" lon="-4.50292238059556"><ele>790.0</ele><time>2026-03-23T09:40:27Z</time></trkpt><trkpt lat="31.127076447614492" lon="-4.503029148756908"><ele>790.0</ele><time>2026-03-23T09:40:28Z</time></trkpt><trkpt lat="31.126927704541476" lon="-4.503138875200473"><ele>790.0</ele><time>2026-03-23T09:40:29Z</time></trkpt><trkpt lat="31.126774303011835" lon="-4.5032466269964075"><ele>790.0</ele><time>2026-03-23T09:40:30Z</time></trkpt><trkpt lat="31.126630113261765" lon="-4.50333975514899"><ele>790.0</ele><time>2026-03-23T09:40:31Z</time></trkpt><trkpt lat="31.1264894934543" lon="-4.503423420689434"><ele>790.0</ele><time>2026-03-23T09:40:32Z</time></trkpt><trkpt lat="31.126357223694615" lon="-4.503500014246203"><ele>790.0</ele><time>2026-03-23T09:40:33Z</time></trkpt><trkpt lat="31.126227984924775" lon="-4.503603943127239"><ele>790.0</ele><time>2026-03-23T09:40:34Z</time></trkpt><trkpt lat="31.126089125412502" lon="-4.503697848834515"><ele>790.0</ele><time>2026-03-23T09:40:35Z</time></trkpt><trkpt lat="31.125937025912748" lon="-4.503800708321587"><ele>790.0</ele><time>2026-03-23T09:40:36Z</time></trkpt><trkpt lat="31.125779249818446" lon="-4.503907406604702"><ele>790.0</ele><time>2026-03-23T09:40:37Z</time></trkpt><trkpt lat="31.12561512770829" lon="-4.5040166844064045"><ele>790.0</ele><time>2026-03-23T09:40:38Z</time></trkpt><trkpt lat="31.12545608110921" lon="-4.504122652603111"><ele>790.3333333333333</ele><time>2026-03-23T09:40:39Z</time></trkpt><trkpt lat="31.125289491593506" lon="-4.5042329808361785"><ele>790.6666666666667</ele><time>2026-03-23T09:40:40Z</time></trkpt><trkpt lat="31.125128590002944" lon="-4.504339150908587"><ele>791.0</ele><time>2026-03-23T09:40:41Z</time></trkpt><trkpt lat="31.124967131084112" lon="-4.5044458044140825"><ele>791.0</ele><time>2026-03-23T09:40:42Z</time></trkpt><trkpt lat="31.12479389643505" lon="-4.504542432691987"><ele>791.0</ele><time>2026-03-23T09:40:43Z</time></trkpt><trkpt lat="31.124634620581237" lon="-4.504654393833452"><ele>791.0</ele><time>2026-03-23T09:40:44Z</time></trkpt><trkpt lat="31.124474629031305" lon="-4.5047656317323845"><ele>791.0</ele><time>2026-03-23T09:40:45Z</time></trkpt><trkpt lat="31.124331124475155" lon="-4.5048925637172506"><ele>791.0</ele><time>2026-03-23T09:40:46Z</time></trkpt><trkpt lat="31.124179344860142" lon="-4.505002611121707"><ele>791.0</ele><time>2026-03-23T09:40:47Z</time></trkpt><trkpt lat="31.124025985184588" lon="-4.505113802428124"><ele>791.3333333333334</ele><time>2026-03-23T09:40:48Z</time></trkpt><trkpt lat="31.123872442035594" lon="-4.505225616136182"><ele>791.6666666666667</ele><time>2026-03-23T09:40:49Z</time></trkpt><trkpt lat="31.123716897723813" lon="-4.505338886933485"><ele>792.0</ele><time>2026-03-23T09:40:50Z</time></trkpt><trkpt lat="31.12356282329655" lon="-4.5054618303863165"><ele>792.0</ele><time>2026-03-23T09:40:51Z</time></trkpt><trkpt lat="31.123406682269575" lon="-4.505586426062069"><ele>792.0</ele><time>2026-03-23T09:40:52Z</time></trkpt><trkpt lat="31.123259744637007" lon="-4.505703935163159"><ele>792.0</ele><time>2026-03-23T09:40:53Z</time></trkpt><trkpt lat="31.123113048701338" lon="-4.505821328460378"><ele>793.0</ele><time>2026-03-23T09:40:54Z</time></trkpt><trkpt lat="31.122964056585104" lon="-4.505940559310356"><ele>794.0</ele><time>2026-03-23T09:40:55Z</time></trkpt><trkpt lat="31.12281912194601" lon="-4.506062947779933"><ele>795.0</ele><time>2026-03-23T09:40:56Z</time></trkpt><trkpt lat="31.12266799881014" lon="-4.506197182713101"><ele>794.6666666666667</ele><time>2026-03-23T09:40:57Z</time></trkpt><trkpt lat="31.122526843394102" lon="-4.506322563887817"><ele>794.3333333333334</ele><time>2026-03-23T09:40:58Z</time></trkpt><trkpt lat="31.12238110681149" lon="-4.506452014186024"><ele>794.0</ele><time>2026-03-23T09:40:59Z</time></trkpt><trkpt lat="31.12223975403675" lon="-4.506579803688288"><ele>793.6666666666667</ele><time>2026-03-23T09:41:00Z</time></trkpt><trkpt lat="31.122096422270108" lon="-4.506712157195048"><ele>793.3333333333333</ele><time>2026-03-23T09:41:01Z</time></trkpt><trkpt lat="31.121951385083804" lon="-4.5068466343672196"><ele>793.0</ele><time>2026-03-23T09:41:02Z</time></trkpt><trkpt lat="31.121806724235814" lon="-4.506980908602752"><ele>794.0</ele><time>2026-03-23T09:41:03Z</time></trkpt><trkpt lat="31.1216604463686" lon="-4.5071165783343625"><ele>795.0</ele><time>2026-03-23T09:41:04Z</time></trkpt><trkpt lat="31.12151506503865" lon="-4.507233593030153"><ele>796.0</ele><time>2026-03-23T09:41:05Z</time></trkpt><trkpt lat="31.12139742328898" lon="-4.507376169518771"><ele>796.0</ele><time>2026-03-23T09:41:06Z</time></trkpt><trkpt lat="31.121265375653998" lon="-4.507512334152077"><ele>796.0</ele><time>2026-03-23T09:41:07Z</time></trkpt><trkpt lat="31.121133273663283" lon="-4.5076482948213075"><ele>796.0</ele><time>2026-03-23T09:41:08Z</time></trkpt><trkpt lat="31.120997400649955" lon="-4.507788197188259"><ele>796.0</ele><time>2026-03-23T09:41:09Z</time></trkpt><trkpt lat="31.120854721677702" lon="-4.507935109140957"><ele>796.0</ele><time>2026-03-23T09:41:10Z</time></trkpt><trkpt lat="31.120703516427437" lon="-4.508093267560691"><ele>796.0</ele><time>2026-03-23T09:41:11Z</time></trkpt><trkpt lat="31.120556354668178" lon="-4.508252375321328"><ele>796.0</ele><time>2026-03-23T09:41:12Z</time></trkpt><trkpt lat="31.120414320210624" lon="-4.508405856320938"><ele>796.0</ele><time>2026-03-23T09:41:13Z</time></trkpt><trkpt lat="31.12027785462147" lon="-4.508553263696154"><ele>796.0</ele><time>2026-03-23T09:41:14Z</time></trkpt><trkpt lat="31.120154445352743" lon="-4.5086865532994365"><ele>796.0</ele><time>2026-03-23T09:41:15Z</time></trkpt><trkpt lat="31.12003969326571" lon="-4.5088104925600625"><ele>796.0</ele><time>2026-03-23T09:41:16Z</time></trkpt><trkpt lat="31.11992287790053" lon="-4.508936660238343"><ele>796.0</ele><time>2026-03-23T09:41:17Z</time></trkpt><trkpt lat="31.119813778071798" lon="-4.509054494750987"><ele>796.0</ele><time>2026-03-23T09:41:18Z</time></trkpt><trkpt lat="31.11970674334566" lon="-4.509171193216319"><ele>796.0</ele><time>2026-03-23T09:41:19Z</time></trkpt><trkpt lat="31.11960532171926" lon="-4.509280767414249"><ele>796.0</ele><time>2026-03-23T09:41:20Z</time></trkpt><trkpt lat="31.119505310975022" lon="-4.509388817956441"><ele>796.0</ele><time>2026-03-23T09:41:21Z</time></trkpt><trkpt lat="31.119406985447437" lon="-4.509495047878436"><ele>796.0</ele><time>2026-03-23T09:41:22Z</time></trkpt><trkpt lat="31.119305558804527" lon="-4.509604628229445"><ele>796.0</ele><time>2026-03-23T09:41:23Z</time></trkpt><trkpt lat="31.119212341120907" lon="-4.509705339563167"><ele>796.0</ele><time>2026-03-23T09:41:24Z</time></trkpt><trkpt lat="31.11910992241094" lon="-4.509792343251176"><ele>796.0</ele><time>2026-03-23T09:41:25Z</time></trkpt><trkpt lat="31.11902890325198" lon="-4.509903451212246"><ele>796.0</ele><time>2026-03-23T09:41:26Z</time></trkpt><trkpt lat="31.118939774944838" lon="-4.50999953276727"><ele>796.0</ele><time>2026-03-23T09:41:27Z</time></trkpt><trkpt lat="31.118854540642047" lon="-4.510091416624891"><ele>796.0</ele><time>2026-03-23T09:41:28Z</time></trkpt><trkpt lat="31.118773641591076" lon="-4.510178625689902"><ele>796.0</ele><time>2026-03-23T09:41:29Z</time></trkpt><trkpt lat="31.118699529182486" lon="-4.510258517210129"><ele>796.0</ele><time>2026-03-23T09:41:30Z</time></trkpt><trkpt lat="31.118619826643258" lon="-4.510344434765028"><ele>796.0</ele><time>2026-03-23T09:41:31Z</time></trkpt><trkpt lat="31.118543775817557" lon="-4.510426415854369"><ele>796.0</ele><time>2026-03-23T09:41:32Z</time></trkpt><trkpt lat="31.118376650974604" lon="-4.510377414209622"><ele>796.0</ele><time>2026-03-23T09:41:33Z</time></trkpt><trkpt lat="31.118295293472553" lon="-4.510427217925186"><ele>796.0</ele><time>2026-03-23T09:41:34Z</time></trkpt><trkpt lat="31.118218913023277" lon="-4.510480956819353"><ele>796.5999999999999</ele><time>2026-03-23T09:41:35Z</time></trkpt><trkpt lat="31.118143271442737" lon="-4.510550999032748"><ele>797.2</ele><time>2026-03-23T09:41:36Z</time></trkpt><trkpt lat="31.118083329674988" lon="-4.510622375343598"><ele>797.8</ele><time>2026-03-23T09:41:37Z</time></trkpt><trkpt lat="31.1180352741676" lon="-4.5106923433835036"><ele>798.4000000000001</ele><time>2026-03-23T09:41:38Z</time></trkpt><trkpt lat="31.11799782881983" lon="-4.510759162943539"><ele>799.0</ele><time>2026-03-23T09:41:39Z</time></trkpt><trkpt lat="31.117924100673356" lon="-4.510899366489882"><ele>799.0</ele><time>2026-03-23T09:41:41Z</time></trkpt><trkpt lat="31.117864660484525" lon="-4.510978080774234"><ele>799.0</ele><time>2026-03-23T09:41:42Z</time></trkpt><trkpt lat="31.11778893846013" lon="-4.511051580241521"><ele>799.0</ele><time>2026-03-23T09:41:43Z</time></trkpt><trkpt lat="31.11771435935974" lon="-4.511142597829183"><ele>799.0</ele><time>2026-03-23T09:41:44Z</time></trkpt><trkpt lat="31.117651966315975" lon="-4.5112289875433484"><ele>799.0</ele><time>2026-03-23T09:41:45Z</time></trkpt><trkpt lat="31.117600928685757" lon="-4.511291311912958"><ele>798.9999999999999</ele><time>2026-03-23T09:41:46Z</time></trkpt><trkpt lat="31.1175019411966" lon="-4.511315764291292"><ele>799.0</ele><time>2026-03-23T09:41:48Z</time></trkpt><trkpt lat="31.117418914280684" lon="-4.5112204455290685"><ele>799.0</ele><time>2026-03-23T09:41:50Z</time></trkpt><trkpt lat="31.11740489520459" lon="-4.511145691929767"><ele>799.0</ele><time>2026-03-23T09:41:51Z</time></trkpt><trkpt lat="31.11741526083594" lon="-4.5110536626"><ele>798.9999999999999</ele><time>2026-03-23T09:41:52Z</time></trkpt><trkpt lat="31.11744579613229" lon="-4.510960724879017"><ele>799.0</ele><time>2026-03-23T09:41:53Z</time></trkpt><trkpt lat="31.117484766156302" lon="-4.510884117989488"><ele>798.9999999999999</ele><time>2026-03-23T09:41:54Z</time></trkpt><trkpt lat="31.117528359737573" lon="-4.510815482069931"><ele>799.0</ele><time>2026-03-23T09:41:55Z</time></trkpt><trkpt lat="31.11757034005663" lon="-4.5107516082568075"><ele>799.0</ele><time>2026-03-23T09:41:56Z</time></trkpt><trkpt lat="31.117628823163635" lon="-4.510646773895871"><ele>799.0</ele><time>2026-03-23T09:41:58Z</time></trkpt><trkpt lat="31.11769212827074" lon="-4.510665865818711"><ele>798.9999999999999</ele><time>2026-03-23T09:42:17Z</time></trkpt><trkpt lat="31.11772061076875" lon="-4.510813892626959"><ele>799.0</ele><time>2026-03-23T09:42:19Z</time></trkpt><trkpt lat="31.11771957658517" lon="-4.510924079491917"><ele>799.0</ele><time>2026-03-23T09:42:20Z</time></trkpt><trkpt lat="31.117709097599338" lon="-4.511036943151627"><ele>799.0</ele><time>2026-03-23T09:42:21Z</time></trkpt><trkpt lat="31.11770124907839" lon="-4.511138365321288"><ele>799.0</ele><time>2026-03-23T09:42:22Z</time></trkpt><trkpt lat="31.117681992108952" lon="-4.511237595590429"><ele>799.0</ele><time>2026-03-23T09:42:23Z</time></trkpt><trkpt lat="31.117640335214844" lon="-4.5113584006166425"><ele>799.0</ele><time>2026-03-23T09:42:24Z</time></trkpt><trkpt lat="31.11758609484816" lon="-4.511477499659368"><ele>798.75</ele><time>2026-03-23T09:42:25Z</time></trkpt><trkpt lat="31.11751541865313" lon="-4.511585220914042"><ele>798.5</ele><time>2026-03-23T09:42:26Z</time></trkpt><trkpt lat="31.11744959879267" lon="-4.511746741397508"><ele>798.25</ele><time>2026-03-23T09:42:27Z</time></trkpt><trkpt lat="31.117340133969886" lon="-4.51187249577099"><ele>798.0</ele><time>2026-03-23T09:42:28Z</time></trkpt><trkpt lat="31.117209433895074" lon="-4.512000152320512"><ele>797.0</ele><time>2026-03-23T09:42:29Z</time></trkpt><trkpt lat="31.11709644285304" lon="-4.512152635092651"><ele>796.0</ele><time>2026-03-23T09:42:30Z</time></trkpt><trkpt lat="31.116983758810257" lon="-4.512289859633863"><ele>795.0</ele><time>2026-03-23T09:42:31Z</time></trkpt><trkpt lat="31.11688216745865" lon="-4.512417338780234"><ele>795.0</ele><time>2026-03-23T09:42:32Z</time></trkpt><trkpt lat="31.116797471323213" lon="-4.512567848047354"><ele>795.0</ele><time>2026-03-23T09:42:33Z</time></trkpt><trkpt lat="31.11668887378421" lon="-4.512726920223177"><ele>795.0</ele><time>2026-03-23T09:42:34Z</time></trkpt><trkpt lat="31.116599086046158" lon="-4.512868568856053"><ele>795.25</ele><time>2026-03-23T09:42:35Z</time></trkpt><trkpt lat="31.11651841287049" lon="-4.513002987181001"><ele>795.5</ele><time>2026-03-23T09:42:36Z</time></trkpt><trkpt lat="31.116436533235" lon="-4.513139415583033"><ele>795.75</ele><time>2026-03-23T09:42:37Z</time></trkpt><trkpt lat="31.116353947254975" lon="-4.513277653454872"><ele>796.0</ele><time>2026-03-23T09:42:38Z</time></trkpt><trkpt lat="31.116269070161266" lon="-4.513413274357563"><ele>796.0</ele><time>2026-03-23T09:42:39Z</time></trkpt><trkpt lat="31.116200117596712" lon="-4.513576635395928"><ele>796.0</ele><time>2026-03-23T09:42:40Z</time></trkpt><trkpt lat="31.11615392426301" lon="-4.513769024036464"><ele>796.0</ele><time>2026-03-23T09:42:41Z</time></trkpt><trkpt lat="31.11608345558885" lon="-4.5139925686221165"><ele>796.6666666666666</ele><time>2026-03-23T09:42:42Z</time></trkpt><trkpt lat="31.116010825925656" lon="-4.514194050008337"><ele>797.3333333333333</ele><time>2026-03-23T09:42:43Z</time></trkpt><trkpt lat="31.11596634859006" lon="-4.514370608027827"><ele>798.0</ele><time>2026-03-23T09:42:44Z</time></trkpt><trkpt lat="31.115926739144033" lon="-4.514526908375017"><ele>798.0</ele><time>2026-03-23T09:42:45Z</time></trkpt><trkpt lat="31.115899607479893" lon="-4.514674198153864"><ele>798.0</ele><time>2026-03-23T09:42:46Z</time></trkpt><trkpt lat="31.11583469521773" lon="-4.5147957069022935"><ele>798.0</ele><time>2026-03-23T09:42:47Z</time></trkpt><trkpt lat="31.115792008436454" lon="-4.51491579353171"><ele>798.0</ele><time>2026-03-23T09:42:48Z</time></trkpt><trkpt lat="31.11574665404349" lon="-4.515028925793117"><ele>797.8</ele><time>2026-03-23T09:42:49Z</time></trkpt><trkpt lat="31.115704010844436" lon="-4.515134131603132"><ele>797.5999999999999</ele><time>2026-03-23T09:42:50Z</time></trkpt><trkpt lat="31.115679509909352" lon="-4.515237722186795"><ele>797.4000000000001</ele><time>2026-03-23T09:42:51Z</time></trkpt><trkpt lat="31.115630109840897" lon="-4.515316879394914"><ele>797.2</ele><time>2026-03-23T09:42:52Z</time></trkpt><trkpt lat="31.115597132800985" lon="-4.5153967467979115"><ele>797.0</ele><time>2026-03-23T09:42:53Z</time></trkpt><trkpt lat="31.11555070242123" lon="-4.5155202500337746"><ele>797.0</ele><time>2026-03-23T09:42:55.001Z</time></trkpt><trkpt lat="31.115512376869336" lon="-4.515613151602855"><ele>797.0</ele><time>2026-03-23T09:42:57.001Z</time></trkpt><trkpt lat="31.115461792835035" lon="-4.515746651278236"><ele>797.0</ele><time>2026-03-23T09:45:49.001Z</time></trkpt><trkpt lat="31.11542962418473" lon="-4.515848296952861"><ele>797.0</ele><time>2026-03-23T09:45:50.001Z</time></trkpt><trkpt lat="31.11538061936804" lon="-4.515972953918293"><ele>797.0</ele><time>2026-03-23T09:45:51Z</time></trkpt><trkpt lat="31.115319334901532" lon="-4.5161044609921435"><ele>797.0</ele><time>2026-03-23T09:45:52Z</time></trkpt><trkpt lat="31.11528287953834" lon="-4.516227303307012"><ele>797.0</ele><time>2026-03-23T09:45:53Z</time></trkpt><trkpt lat="31.11523764921937" lon="-4.516339946783905"><ele>797.0</ele><time>2026-03-23T09:45:54Z</time></trkpt><trkpt lat="31.11519194474372" lon="-4.5164531786173026"><ele>797.0</ele><time>2026-03-23T09:45:55Z</time></trkpt><trkpt lat="31.11514966337391" lon="-4.516573248890834"><ele>797.0</ele><time>2026-03-23T09:45:56Z</time></trkpt><trkpt lat="31.115109020373072" lon="-4.516690182720773"><ele>797.4000000000001</ele><time>2026-03-23T09:45:57Z</time></trkpt><trkpt lat="31.115055665414335" lon="-4.516798221052694"><ele>797.8000000000001</ele><time>2026-03-23T09:45:58Z</time></trkpt><trkpt lat="31.115019152692472" lon="-4.516920937712074"><ele>798.2</ele><time>2026-03-23T09:45:59Z</time></trkpt><trkpt lat="31.114998896029793" lon="-4.517036264070449"><ele>798.6</ele><time>2026-03-23T09:46:00Z</time></trkpt><trkpt lat="31.11497616674396" lon="-4.517130639441208"><ele>799.0</ele><time>2026-03-23T09:46:01Z</time></trkpt><trkpt lat="31.114949515441914" lon="-4.517241299533834"><ele>799.75</ele><time>2026-03-23T09:46:02Z</time></trkpt><trkpt lat="31.114924143961105" lon="-4.517364864136744"><ele>800.5</ele><time>2026-03-23T09:46:03Z</time></trkpt><trkpt lat="31.114898598621753" lon="-4.51749479098588"><ele>801.25</ele><time>2026-03-23T09:46:04Z</time></trkpt><trkpt lat="31.114874515372833" lon="-4.517615792482751"><ele>802.0</ele><time>2026-03-23T09:46:05Z</time></trkpt><trkpt lat="31.11482532272919" lon="-4.517811831006978"><ele>803.25</ele><time>2026-03-23T09:46:06Z</time></trkpt><trkpt lat="31.11477260452954" lon="-4.517948781011491"><ele>804.5</ele><time>2026-03-23T09:46:07Z</time></trkpt><trkpt lat="31.114717925046634" lon="-4.518090826111566"><ele>805.75</ele><time>2026-03-23T09:46:08Z</time></trkpt><trkpt lat="31.114660918412433" lon="-4.51823891625566"><ele>807.0</ele><time>2026-03-23T09:46:09Z</time></trkpt><trkpt lat="31.114607426326256" lon="-4.518379491488521"><ele>807.0</ele><time>2026-03-23T09:46:10Z</time></trkpt><trkpt lat="31.114553118830493" lon="-4.518524461694946"><ele>807.0</ele><time>2026-03-23T09:46:11Z</time></trkpt><trkpt lat="31.11450007350125" lon="-4.51866605849372"><ele>807.0</ele><time>2026-03-23T09:46:12Z</time></trkpt><trkpt lat="31.114430394180587" lon="-4.518960315991605"><ele>808.3333333333333</ele><time>2026-03-23T09:46:14Z</time></trkpt><trkpt lat="31.114358948294974" lon="-4.51912443023275"><ele>809.6666666666666</ele><time>2026-03-23T09:46:15Z</time></trkpt><trkpt lat="31.11421214855944" lon="-4.519328196715328"><ele>811.0</ele><time>2026-03-23T09:46:16Z</time></trkpt><trkpt lat="31.1140806347853" lon="-4.519432735097264"><ele>811.5</ele><time>2026-03-23T09:46:17Z</time></trkpt><trkpt lat="31.114025526326053" lon="-4.519470036122591"><ele>812.0</ele><time>2026-03-23T09:46:18Z</time></trkpt><trkpt lat="31.11396235136922" lon="-4.519511809899417"><ele>812.5</ele><time>2026-03-23T09:46:19Z</time></trkpt><trkpt lat="31.113801202784096" lon="-4.519363871093504"><ele>813.0</ele><time>2026-03-23T09:46:20Z</time></trkpt><trkpt lat="31.113775581749948" lon="-4.519492211571253"><ele>813.75</ele><time>2026-03-23T09:46:21Z</time></trkpt><trkpt lat="31.11372402700897" lon="-4.519607573104885"><ele>814.5</ele><time>2026-03-23T09:46:22Z</time></trkpt><trkpt lat="31.113654198651933" lon="-4.519711611513878"><ele>815.25</ele><time>2026-03-23T09:46:23Z</time></trkpt><trkpt lat="31.113570547899357" lon="-4.519813258648114"><ele>816.0</ele><time>2026-03-23T09:46:24Z</time></trkpt><trkpt lat="31.113485154445154" lon="-4.5199167606222295"><ele>816.0</ele><time>2026-03-23T09:46:25Z</time></trkpt><trkpt lat="31.113431912532164" lon="-4.520036633877899"><ele>816.0</ele><time>2026-03-23T09:46:26Z</time></trkpt><trkpt lat="31.113401255765574" lon="-4.520123180135894"><ele>816.0</ele><time>2026-03-23T09:46:27Z</time></trkpt><trkpt lat="31.113379878288022" lon="-4.5202027218951155"><ele>816.0</ele><time>2026-03-23T09:46:28Z</time></trkpt><trkpt lat="31.113360823767476" lon="-4.520273138017379"><ele>816.0</ele><time>2026-03-23T09:46:29Z</time></trkpt><trkpt lat="31.113337469879266" lon="-4.520358290600794"><ele>816.0</ele><time>2026-03-23T09:46:30Z</time></trkpt><trkpt lat="31.113242870554018" lon="-4.5204368707091795"><ele>815.8</ele><time>2026-03-23T09:46:31Z</time></trkpt><trkpt lat="31.113179241170634" lon="-4.520533439865296"><ele>815.5999999999999</ele><time>2026-03-23T09:46:32Z</time></trkpt><trkpt lat="31.113103104742628" lon="-4.520629985271632"><ele>815.4</ele><time>2026-03-23T09:46:33Z</time></trkpt><trkpt lat="31.113017696138385" lon="-4.5207200822752185"><ele>815.2</ele><time>2026-03-23T09:46:34Z</time></trkpt><trkpt lat="31.112925139389755" lon="-4.5208021766687665"><ele>815.0</ele><time>2026-03-23T09:46:35Z</time></trkpt><trkpt lat="31.11284165818447" lon="-4.5208870080241566"><ele>815.0</ele><time>2026-03-23T09:46:36Z</time></trkpt><trkpt lat="31.112751415426658" lon="-4.520977871310271"><ele>815.0</ele><time>2026-03-23T09:46:37Z</time></trkpt><trkpt lat="31.112652382672223" lon="-4.521063485359736"><ele>815.0</ele><time>2026-03-23T09:46:38Z</time></trkpt><trkpt lat="31.11254409285221" lon="-4.5211200318912885"><ele>815.0</ele><time>2026-03-23T09:46:39Z</time></trkpt><trkpt lat="31.112442678374393" lon="-4.521193124644322"><ele>813.5</ele><time>2026-03-23T09:46:40Z</time></trkpt><trkpt lat="31.112345250120566" lon="-4.521262457765323"><ele>812.0</ele><time>2026-03-23T09:46:41Z</time></trkpt><trkpt lat="31.1122563568808" lon="-4.521355500574042"><ele>810.5</ele><time>2026-03-23T09:46:42Z</time></trkpt><trkpt lat="31.11214639970575" lon="-4.521402013951621"><ele>809.0</ele><time>2026-03-23T09:46:43Z</time></trkpt><trkpt lat="31.112038264539784" lon="-4.5214658786321325"><ele>809.0</ele><time>2026-03-23T09:46:44Z</time></trkpt><trkpt lat="31.111924294845146" lon="-4.521540512961166"><ele>809.0</ele><time>2026-03-23T09:46:45Z</time></trkpt><trkpt lat="31.11179749899769" lon="-4.521600226440584"><ele>809.0</ele><time>2026-03-23T09:46:46Z</time></trkpt><trkpt lat="31.111671881812853" lon="-4.521684788473892"><ele>809.0</ele><time>2026-03-23T09:46:47Z</time></trkpt><trkpt lat="31.111534748868344" lon="-4.5217621294760235"><ele>808.0</ele><time>2026-03-23T09:46:48Z</time></trkpt><trkpt lat="31.111390764283968" lon="-4.521846890858926"><ele>807.0</ele><time>2026-03-23T09:46:49Z</time></trkpt><trkpt lat="31.11124242131057" lon="-4.5219292699970985"><ele>806.0</ele><time>2026-03-23T09:46:50Z</time></trkpt><trkpt lat="31.111084811865645" lon="-4.522011794290729"><ele>805.3333333333334</ele><time>2026-03-23T09:46:51Z</time></trkpt><trkpt lat="31.110907050771566" lon="-4.5221272304612325"><ele>804.6666666666667</ele><time>2026-03-23T09:46:52Z</time></trkpt><trkpt lat="31.110723336422463" lon="-4.522233179244001"><ele>804.0</ele><time>2026-03-23T09:46:53Z</time></trkpt><trkpt lat="31.110553685038315" lon="-4.522296570271356"><ele>803.0</ele><time>2026-03-23T09:46:54Z</time></trkpt><trkpt lat="31.110384546199217" lon="-4.522375857070536"><ele>802.0</ele><time>2026-03-23T09:46:55Z</time></trkpt><trkpt lat="31.110213142424826" lon="-4.5224453767701105"><ele>801.0</ele><time>2026-03-23T09:46:56Z</time></trkpt><trkpt lat="31.11004503548654" lon="-4.522510480141518"><ele>800.3333333333333</ele><time>2026-03-23T09:46:57Z</time></trkpt><trkpt lat="31.109889822305906" lon="-4.522572939886759"><ele>799.6666666666666</ele><time>2026-03-23T09:46:58Z</time></trkpt><trkpt lat="31.109742351374173" lon="-4.5226300390544525"><ele>799.0</ele><time>2026-03-23T09:46:59Z</time></trkpt><trkpt lat="31.109583559633155" lon="-4.522680234890595"><ele>799.0</ele><time>2026-03-23T09:47:00Z</time></trkpt><trkpt lat="31.10942179668215" lon="-4.522736507762358"><ele>799.0</ele><time>2026-03-23T09:47:01Z</time></trkpt><trkpt lat="31.109262358697677" lon="-4.522787927833321"><ele>799.0</ele><time>2026-03-23T09:47:02Z</time></trkpt><trkpt lat="31.109104076647277" lon="-4.522864155955125"><ele>798.6666666666666</ele><time>2026-03-23T09:47:03Z</time></trkpt><trkpt lat="31.10894008070983" lon="-4.522929833387658"><ele>798.3333333333333</ele><time>2026-03-23T09:47:04Z</time></trkpt><trkpt lat="31.10877075615892" lon="-4.522964199587889"><ele>798.0</ele><time>2026-03-23T09:47:05Z</time></trkpt><trkpt lat="31.108609022953118" lon="-4.523025879209341"><ele>798.0</ele><time>2026-03-23T09:47:06Z</time></trkpt><trkpt lat="31.108450433256746" lon="-4.523085704156336"><ele>798.0</ele><time>2026-03-23T09:47:07Z</time></trkpt><trkpt lat="31.10828995352027" lon="-4.523155817931514"><ele>798.0</ele><time>2026-03-23T09:47:08Z</time></trkpt><trkpt lat="31.108130238073972" lon="-4.523234794287149"><ele>798.0</ele><time>2026-03-23T09:47:09Z</time></trkpt><trkpt lat="31.107981604083665" lon="-4.523309644077753"><ele>798.0</ele><time>2026-03-23T09:47:10Z</time></trkpt><trkpt lat="31.10784150098554" lon="-4.523368412555518"><ele>798.0</ele><time>2026-03-23T09:47:11Z</time></trkpt><trkpt lat="31.10768919843649" lon="-4.5234246202543895"><ele>798.0</ele><time>2026-03-23T09:47:12Z</time></trkpt><trkpt lat="31.10753137482851" lon="-4.523480089372998"><ele>798.0</ele><time>2026-03-23T09:47:13Z</time></trkpt><trkpt lat="31.107364745996737" lon="-4.523552613194619"><ele>798.0</ele><time>2026-03-23T09:47:14Z</time></trkpt><trkpt lat="31.10720508692619" lon="-4.523620647842649"><ele>797.3333333333333</ele><time>2026-03-23T09:47:15Z</time></trkpt><trkpt lat="31.107047935345104" lon="-4.523680569219193"><ele>796.6666666666666</ele><time>2026-03-23T09:47:16Z</time></trkpt><trkpt lat="31.10688419103552" lon="-4.523744131134638"><ele>796.0</ele><time>2026-03-23T09:47:17Z</time></trkpt><trkpt lat="31.106744974640367" lon="-4.523800665910673"><ele>796.0</ele><time>2026-03-23T09:47:18Z</time></trkpt><trkpt lat="31.106645520102763" lon="-4.523840064485638"><ele>796.0</ele><time>2026-03-23T09:47:19Z</time></trkpt><trkpt lat="31.106543321932225" lon="-4.523900881332622"><ele>796.0</ele><time>2026-03-23T09:47:20Z</time></trkpt><trkpt lat="31.10642146652181" lon="-4.523954010525373"><ele>796.0</ele><time>2026-03-23T09:47:21Z</time></trkpt><trkpt lat="31.106301603761946" lon="-4.523995686169736"><ele>795.75</ele><time>2026-03-23T09:47:22Z</time></trkpt><trkpt lat="31.10618497406917" lon="-4.5240389053036285"><ele>795.5</ele><time>2026-03-23T09:47:23Z</time></trkpt><trkpt lat="31.10605028874239" lon="-4.524098656664075"><ele>795.25</ele><time>2026-03-23T09:47:24Z</time></trkpt><trkpt lat="31.105902998899072" lon="-4.5241591933566685"><ele>795.0</ele><time>2026-03-23T09:47:25Z</time></trkpt><trkpt lat="31.10573327778482" lon="-4.5242317936936765"><ele>794.6666666666667</ele><time>2026-03-23T09:47:26Z</time></trkpt><trkpt lat="31.105565065164388" lon="-4.524297379795394"><ele>794.3333333333334</ele><time>2026-03-23T09:47:27Z</time></trkpt><trkpt lat="31.10539886142857" lon="-4.524354091667066"><ele>794.0</ele><time>2026-03-23T09:47:28Z</time></trkpt><trkpt lat="31.105248101536656" lon="-4.524414055419824"><ele>794.0</ele><time>2026-03-23T09:47:29Z</time></trkpt><trkpt lat="31.105096627853946" lon="-4.524470189848994"><ele>794.0</ele><time>2026-03-23T09:47:30Z</time></trkpt><trkpt lat="31.10494720329169" lon="-4.52452881278405"><ele>794.0</ele><time>2026-03-23T09:47:31Z</time></trkpt><trkpt lat="31.10478388115343" lon="-4.524583386847709"><ele>794.3333333333334</ele><time>2026-03-23T09:47:32Z</time></trkpt><trkpt lat="31.10461876445298" lon="-4.524642945773473"><ele>794.6666666666667</ele><time>2026-03-23T09:47:33Z</time></trkpt><trkpt lat="31.104441057497255" lon="-4.524696164796563"><ele>795.0</ele><time>2026-03-23T09:47:34.001Z</time></trkpt><trkpt lat="31.104258543155634" lon="-4.524748458881894"><ele>795.0</ele><time>2026-03-23T09:47:35.001Z</time></trkpt><trkpt lat="31.104079934798726" lon="-4.524805498115519"><ele>795.0</ele><time>2026-03-23T09:47:36.001Z</time></trkpt><trkpt lat="31.10390743865912" lon="-4.524861824402204"><ele>795.0</ele><time>2026-03-23T09:47:37.001Z</time></trkpt><trkpt lat="31.103724501942576" lon="-4.524919186773412"><ele>795.0</ele><time>2026-03-23T09:47:38.001Z</time></trkpt><trkpt lat="31.10354439058651" lon="-4.524976986497214"><ele>795.0</ele><time>2026-03-23T09:47:39.001Z</time></trkpt><trkpt lat="31.103363581719123" lon="-4.5250547655597035"><ele>795.0</ele><time>2026-03-23T09:47:40.001Z</time></trkpt><trkpt lat="31.103171725312894" lon="-4.5251414313547516"><ele>794.6666666666667</ele><time>2026-03-23T09:47:41.001Z</time></trkpt><trkpt lat="31.102973524757267" lon="-4.525228661648583"><ele>794.3333333333334</ele><time>2026-03-23T09:47:42.001Z</time></trkpt><trkpt lat="31.102768376012587" lon="-4.525309934282541"><ele>794.0</ele><time>2026-03-23T09:47:43.001Z</time></trkpt><trkpt lat="31.102561709100936" lon="-4.525375540434865"><ele>794.3333333333334</ele><time>2026-03-23T09:47:44.001Z</time></trkpt><trkpt lat="31.102371924293887" lon="-4.525436753687422"><ele>794.6666666666667</ele><time>2026-03-23T09:47:45.001Z</time></trkpt><trkpt lat="31.102177425577352" lon="-4.525510099310764"><ele>795.0</ele><time>2026-03-23T09:47:46.001Z</time></trkpt><trkpt lat="31.101995303770764" lon="-4.525577462267064"><ele>795.0</ele><time>2026-03-23T09:47:47.001Z</time></trkpt><trkpt lat="31.101826489368463" lon="-4.525643497635554"><ele>795.0</ele><time>2026-03-23T09:47:48.001Z</time></trkpt><trkpt lat="31.101662608967022" lon="-4.525709124344016"><ele>795.0</ele><time>2026-03-23T09:47:49.001Z</time></trkpt><trkpt lat="31.101502754432072" lon="-4.525772005650488"><ele>795.6666666666667</ele><time>2026-03-23T09:47:50.001Z</time></trkpt><trkpt lat="31.101348701321644" lon="-4.525829274599529"><ele>796.3333333333334</ele><time>2026-03-23T09:47:51.001Z</time></trkpt><trkpt lat="31.10117324760406" lon="-4.525897157807086"><ele>797.0</ele><time>2026-03-23T09:47:52.001Z</time></trkpt><trkpt lat="31.10098670213869" lon="-4.525961136092382"><ele>797.0</ele><time>2026-03-23T09:47:53.001Z</time></trkpt><trkpt lat="31.10079708507535" lon="-4.526031966562541"><ele>797.0</ele><time>2026-03-23T09:47:54.001Z</time></trkpt><trkpt lat="31.100606804200538" lon="-4.526109192261216"><ele>797.0</ele><time>2026-03-23T09:47:55.001Z</time></trkpt><trkpt lat="31.10040952631464" lon="-4.526180259914413"><ele>796.6666666666667</ele><time>2026-03-23T09:47:56.001Z</time></trkpt><trkpt lat="31.100207065048696" lon="-4.526252969358098"><ele>796.3333333333333</ele><time>2026-03-23T09:47:56.998Z</time></trkpt><trkpt lat="31.100008683873682" lon="-4.526320677012311"><ele>796.0</ele><time>2026-03-23T09:47:57.998Z</time></trkpt><trkpt lat="31.09982448848298" lon="-4.526391814324882"><ele>795.6666666666666</ele><time>2026-03-23T09:47:58.998Z</time></trkpt><trkpt lat="31.099648224141156" lon="-4.526458556935469"><ele>795.3333333333333</ele><time>2026-03-23T09:47:59.998Z</time></trkpt><trkpt lat="31.09946513986981" lon="-4.526524344198514"><ele>795.0</ele><time>2026-03-23T09:48:00.999Z</time></trkpt><trkpt lat="31.099277883772572" lon="-4.526594883645149"><ele>794.3333333333333</ele><time>2026-03-23T09:48:01.999Z</time></trkpt><trkpt lat="31.099079456408237" lon="-4.526666313444889"><ele>793.6666666666666</ele><time>2026-03-23T09:48:02.999Z</time></trkpt><trkpt lat="31.09887549191661" lon="-4.526742204489364"><ele>793.0</ele><time>2026-03-23T09:48:03.999Z</time></trkpt><trkpt lat="31.098661248768284" lon="-4.526826471379321"><ele>793.0</ele><time>2026-03-23T09:48:04.999Z</time></trkpt><trkpt lat="31.09844725008468" lon="-4.526910096074743"><ele>793.0</ele><time>2026-03-23T09:48:05.999Z</time></trkpt><trkpt lat="31.098235163986104" lon="-4.526998773910361"><ele>793.0</ele><time>2026-03-23T09:48:06.999Z</time></trkpt><trkpt lat="31.098023157721105" lon="-4.527081349896158"><ele>793.0</ele><time>2026-03-23T09:48:07.999Z</time></trkpt><trkpt lat="31.097817324314576" lon="-4.5271562841868285"><ele>793.0</ele><time>2026-03-23T09:48:08.999Z</time></trkpt><trkpt lat="31.097611326037406" lon="-4.527226449216107"><ele>792.6666666666666</ele><time>2026-03-23T09:48:09.999Z</time></trkpt><trkpt lat="31.09740524399421" lon="-4.527301323654777"><ele>792.3333333333333</ele><time>2026-03-23T09:48:10.999Z</time></trkpt><trkpt lat="31.097199032860935" lon="-4.527375974885874"><ele>792.0</ele><time>2026-03-23T09:48:11.999Z</time></trkpt><trkpt lat="31.096995276582962" lon="-4.527451359325581"><ele>792.0</ele><time>2026-03-23T09:48:12.999Z</time></trkpt><trkpt lat="31.096792484294287" lon="-4.527535511078925"><ele>792.0</ele><time>2026-03-23T09:48:13.999Z</time></trkpt><trkpt lat="31.096591759911398" lon="-4.5276126940209585"><ele>792.0</ele><time>2026-03-23T09:48:14.999Z</time></trkpt><trkpt lat="31.096388393255694" lon="-4.527702907077968"><ele>792.3333333333333</ele><time>2026-03-23T09:48:15.999Z</time></trkpt><trkpt lat="31.096186776662357" lon="-4.527783818156833"><ele>792.6666666666666</ele><time>2026-03-23T09:48:16.999Z</time></trkpt><trkpt lat="31.09596810799194" lon="-4.527874416008199"><ele>793.0</ele><time>2026-03-23T09:48:17.999Z</time></trkpt><trkpt lat="31.095745997991948" lon="-4.527968949280537"><ele>793.0</ele><time>2026-03-23T09:48:18.999Z</time></trkpt><trkpt lat="31.09552641805593" lon="-4.528076290754136"><ele>793.0</ele><time>2026-03-23T09:48:19.999Z</time></trkpt><trkpt lat="31.095344468545402" lon="-4.528177433286799"><ele>793.0</ele><time>2026-03-23T09:48:20.999Z</time></trkpt><trkpt lat="31.095185915965207" lon="-4.528256765293103"><ele>793.0</ele><time>2026-03-23T09:48:21.999Z</time></trkpt><trkpt lat="31.095035062139257" lon="-4.528316383790403"><ele>793.0</ele><time>2026-03-23T09:48:22.999Z</time></trkpt><trkpt lat="31.09488042172624" lon="-4.528371560781104"><ele>793.0</ele><time>2026-03-23T09:48:23.999Z</time></trkpt><trkpt lat="31.094720491501693" lon="-4.528428091498241"><ele>793.3333333333333</ele><time>2026-03-23T09:48:24.999Z</time></trkpt><trkpt lat="31.094569068388655" lon="-4.528485371840367"><ele>793.6666666666667</ele><time>2026-03-23T09:48:25.999Z</time></trkpt><trkpt lat="31.094404725742596" lon="-4.528552834649246"><ele>794.0</ele><time>2026-03-23T09:48:26.999Z</time></trkpt><trkpt lat="31.09423977552387" lon="-4.528621825831939"><ele>793.3333333333334</ele><time>2026-03-23T09:48:27.999Z</time></trkpt><trkpt lat="31.094073299179662" lon="-4.528690559838748"><ele>792.6666666666667</ele><time>2026-03-23T09:48:28.999Z</time></trkpt><trkpt lat="31.0939086677184" lon="-4.528760356940209"><ele>792.0</ele><time>2026-03-23T09:48:29.999Z</time></trkpt><trkpt lat="31.09375185442441" lon="-4.528832202183791"><ele>792.0</ele><time>2026-03-23T09:48:30.999Z</time></trkpt><trkpt lat="31.093605017357582" lon="-4.528900391877543"><ele>792.0</ele><time>2026-03-23T09:48:31.999Z</time></trkpt><trkpt lat="31.093453969977453" lon="-4.528969460160582"><ele>792.0</ele><time>2026-03-23T09:48:33Z</time></trkpt><trkpt lat="31.093323310441242" lon="-4.52903435042152"><ele>791.75</ele><time>2026-03-23T09:48:34Z</time></trkpt><trkpt lat="31.09320530629493" lon="-4.529085263339906"><ele>791.5</ele><time>2026-03-23T09:48:35Z</time></trkpt><trkpt lat="31.09308820600668" lon="-4.529115241837595"><ele>791.25</ele><time>2026-03-23T09:48:36Z</time></trkpt><trkpt lat="31.09296910861424" lon="-4.529135515923798"><ele>791.0</ele><time>2026-03-23T09:48:37Z</time></trkpt><trkpt lat="31.092836625134783" lon="-4.529154307738464"><ele>791.0</ele><time>2026-03-23T09:48:38Z</time></trkpt><trkpt lat="31.092697799666333" lon="-4.529169487060412"><ele>791.0</ele><time>2026-03-23T09:48:39Z</time></trkpt><trkpt lat="31.09256031517005" lon="-4.529175721797765"><ele>791.0</ele><time>2026-03-23T09:48:40Z</time></trkpt><trkpt lat="31.092425227547857" lon="-4.529171805915713"><ele>791.0</ele><time>2026-03-23T09:48:41Z</time></trkpt><trkpt lat="31.092292821660493" lon="-4.529144338952345"><ele>790.75</ele><time>2026-03-23T09:48:42Z</time></trkpt><trkpt lat="31.09215838298465" lon="-4.529104624253549"><ele>790.5</ele><time>2026-03-23T09:48:43Z</time></trkpt><trkpt lat="31.0920155444311" lon="-4.529078250365388"><ele>790.25</ele><time>2026-03-23T09:48:44Z</time></trkpt><trkpt lat="31.09186348664757" lon="-4.529074082207579"><ele>790.0</ele><time>2026-03-23T09:48:45Z</time></trkpt><trkpt lat="31.091728855113626" lon="-4.529104778034052"><ele>790.0</ele><time>2026-03-23T09:48:46Z</time></trkpt><trkpt lat="31.091593587063674" lon="-4.52915165864671"><ele>790.0</ele><time>2026-03-23T09:48:47Z</time></trkpt><trkpt lat="31.09145412120227" lon="-4.5292046740430685"><ele>790.0</ele><time>2026-03-23T09:48:48Z</time></trkpt><trkpt lat="31.0913098968902" lon="-4.5292834153118395"><ele>790.0</ele><time>2026-03-23T09:48:49Z</time></trkpt><trkpt lat="31.09116452197847" lon="-4.529364423809341"><ele>790.6666666666666</ele><time>2026-03-23T09:48:50Z</time></trkpt><trkpt lat="31.091014077160626" lon="-4.529439099783455"><ele>791.3333333333333</ele><time>2026-03-23T09:48:51Z</time></trkpt><trkpt lat="31.09084762407626" lon="-4.529519693520113"><ele>792.0</ele><time>2026-03-23T09:48:52Z</time></trkpt><trkpt lat="31.090663263117392" lon="-4.5295925677348405"><ele>793.6666666666667</ele><time>2026-03-23T09:48:53Z</time></trkpt><trkpt lat="31.090485648279113" lon="-4.529681071013608"><ele>795.3333333333334</ele><time>2026-03-23T09:48:54Z</time></trkpt><trkpt lat="31.090301036235143" lon="-4.529773560773826"><ele>797.0</ele><time>2026-03-23T09:48:55Z</time></trkpt><trkpt lat="31.0901303688818" lon="-4.52986711115063"><ele>797.0</ele><time>2026-03-23T09:48:56Z</time></trkpt><trkpt lat="31.08999109529029" lon="-4.529942108790836"><ele>797.0</ele><time>2026-03-23T09:48:57Z</time></trkpt><trkpt lat="31.089859550994493" lon="-4.530007354386263"><ele>797.0</ele><time>2026-03-23T09:48:58Z</time></trkpt><trkpt lat="31.089736139768792" lon="-4.530061054385769"><ele>797.0</ele><time>2026-03-23T09:48:59Z</time></trkpt><trkpt lat="31.089631662350758" lon="-4.530105526376189"><ele>797.0</ele><time>2026-03-23T09:49:00Z</time></trkpt><trkpt lat="31.089539358838177" lon="-4.530159895447528"><ele>797.0</ele><time>2026-03-23T09:49:01Z</time></trkpt><trkpt lat="31.089453005860026" lon="-4.530217734981521"><ele>797.0</ele><time>2026-03-23T09:49:02Z</time></trkpt><trkpt lat="31.089352734326656" lon="-4.530272597153569"><ele>797.0</ele><time>2026-03-23T09:49:03Z</time></trkpt><trkpt lat="31.089241464269175" lon="-4.530333926694984"><ele>797.0</ele><time>2026-03-23T09:49:04Z</time></trkpt><trkpt lat="31.089125863663593" lon="-4.530388502371084"><ele>797.0</ele><time>2026-03-23T09:49:05Z</time></trkpt><trkpt lat="31.08899558491685" lon="-4.530462528318356"><ele>797.0</ele><time>2026-03-23T09:49:06Z</time></trkpt><trkpt lat="31.088870506281996" lon="-4.530537232041066"><ele>797.0</ele><time>2026-03-23T09:49:07Z</time></trkpt><trkpt lat="31.088765782200547" lon="-4.5306025809047945"><ele>797.0</ele><time>2026-03-23T09:49:08Z</time></trkpt><trkpt lat="31.08869268887429" lon="-4.530657994875427"><ele>797.0000000000001</ele><time>2026-03-23T09:49:09Z</time></trkpt><trkpt lat="31.088632354008194" lon="-4.530709070082328"><ele>797.0</ele><time>2026-03-23T09:49:10Z</time></trkpt><trkpt lat="31.08857616928038" lon="-4.530749621878662"><ele>797.0</ele><time>2026-03-23T09:49:11Z</time></trkpt><trkpt lat="31.08850763737424" lon="-4.530784738956769"><ele>797.0</ele><time>2026-03-23T09:49:12Z</time></trkpt><trkpt lat="31.088428893905853" lon="-4.530815988255947"><ele>797.0000000000001</ele><time>2026-03-23T09:49:13Z</time></trkpt><trkpt lat="31.088339747157896" lon="-4.530838772532621"><ele>797.0</ele><time>2026-03-23T09:49:14Z</time></trkpt><trkpt lat="31.08825901653487" lon="-4.530844847376258"><ele>797.0</ele><time>2026-03-23T09:49:15Z</time></trkpt><trkpt lat="31.088173680232973" lon="-4.530848440009512"><ele>797.0</ele><time>2026-03-23T09:49:16Z</time></trkpt><trkpt lat="31.088094813284247" lon="-4.530846106362451"><ele>797.0</ele><time>2026-03-23T09:49:17Z</time></trkpt><trkpt lat="31.087996188450184" lon="-4.530825229477657"><ele>797.0</ele><time>2026-03-23T09:49:19Z</time></trkpt><trkpt lat="31.087893962116457" lon="-4.530820025513642"><ele>797.0</ele><time>2026-03-23T09:50:30.999Z</time></trkpt><trkpt lat="31.087762706917946" lon="-4.53082621260746"><ele>797.0</ele><time>2026-03-23T09:50:32.999Z</time></trkpt><trkpt lat="31.08767066321774" lon="-4.530845633443455"><ele>797.0</ele><time>2026-03-23T09:50:33.999Z</time></trkpt><trkpt lat="31.08755767319716" lon="-4.530860128766258"><ele>797.0</ele><time>2026-03-23T09:50:34.999Z</time></trkpt><trkpt lat="31.08743755016858" lon="-4.530880526081894"><ele>797.0</ele><time>2026-03-23T09:50:35.999Z</time></trkpt><trkpt lat="31.087307000702147" lon="-4.53089505653672"><ele>797.0</ele><time>2026-03-23T09:50:36.999Z</time></trkpt><trkpt lat="31.087170860990323" lon="-4.530903579312611"><ele>797.0</ele><time>2026-03-23T09:50:37.999Z</time></trkpt><trkpt lat="31.087031184838853" lon="-4.53091324130325"><ele>797.0</ele><time>2026-03-23T09:50:38.999Z</time></trkpt><trkpt lat="31.086892261143674" lon="-4.530934486858061"><ele>797.0</ele><time>2026-03-23T09:50:39.999Z</time></trkpt><trkpt lat="31.08676071206765" lon="-4.530965240405422"><ele>797.0</ele><time>2026-03-23T09:50:40.999Z</time></trkpt><trkpt lat="31.086630404841923" lon="-4.5309995545198145"><ele>797.0</ele><time>2026-03-23T09:50:41.999Z</time></trkpt><trkpt lat="31.086500633573277" lon="-4.5310448396974135"><ele>797.0</ele><time>2026-03-23T09:50:42.999Z</time></trkpt><trkpt lat="31.086375289588613" lon="-4.531098460837188"><ele>797.0</ele><time>2026-03-23T09:50:43.999Z</time></trkpt><trkpt lat="31.086248940584372" lon="-4.5311694117448615"><ele>797.25</ele><time>2026-03-23T09:50:44.999Z</time></trkpt><trkpt lat="31.0861304072856" lon="-4.531248629521724"><ele>797.5</ele><time>2026-03-23T09:50:45.999Z</time></trkpt><trkpt lat="31.086002697880513" lon="-4.5313176065123715"><ele>797.75</ele><time>2026-03-23T09:50:46.999Z</time></trkpt><trkpt lat="31.085868862190875" lon="-4.5313728693864626"><ele>798.0</ele><time>2026-03-23T09:50:47.999Z</time></trkpt><trkpt lat="31.08573345601168" lon="-4.531409880082484"><ele>798.0</ele><time>2026-03-23T09:50:48.999Z</time></trkpt><trkpt lat="31.085596058117897" lon="-4.5314348739671155"><ele>798.0</ele><time>2026-03-23T09:50:49.999Z</time></trkpt><trkpt lat="31.085461965503043" lon="-4.531471795246457"><ele>798.0</ele><time>2026-03-23T09:50:51Z</time></trkpt><trkpt lat="31.085331582728564" lon="-4.531534745358073"><ele>798.0</ele><time>2026-03-23T09:50:52Z</time></trkpt><trkpt lat="31.08520521696892" lon="-4.53161555569159"><ele>798.0</ele><time>2026-03-23T09:50:53Z</time></trkpt><trkpt lat="31.085073995120442" lon="-4.5316795251888555"><ele>798.0</ele><time>2026-03-23T09:50:54Z</time></trkpt><trkpt lat="31.08494304743629" lon="-4.531728756187734"><ele>798.0</ele><time>2026-03-23T09:50:55Z</time></trkpt><trkpt lat="31.084802689931212" lon="-4.531793142856183"><ele>798.0</ele><time>2026-03-23T09:50:56Z</time></trkpt><trkpt lat="31.084670023497182" lon="-4.53186555781742"><ele>798.6666666666667</ele><time>2026-03-23T09:50:57Z</time></trkpt><trkpt lat="31.084533410386467" lon="-4.531941965926592"><ele>799.3333333333334</ele><time>2026-03-23T09:50:58Z</time></trkpt><trkpt lat="31.084383990443584" lon="-4.532027536529668"><ele>800.0</ele><time>2026-03-23T09:50:59Z</time></trkpt><trkpt lat="31.084235286419315" lon="-4.532109425783772"><ele>801.0</ele><time>2026-03-23T09:51:00Z</time></trkpt><trkpt lat="31.084084542496782" lon="-4.532196694083356"><ele>802.0</ele><time>2026-03-23T09:51:01Z</time></trkpt><trkpt lat="31.083934063477525" lon="-4.532282915042652"><ele>803.0</ele><time>2026-03-23T09:51:02Z</time></trkpt><trkpt lat="31.0837732087882" lon="-4.532362515476333"><ele>803.0</ele><time>2026-03-23T09:51:03Z</time></trkpt><trkpt lat="31.083631336944713" lon="-4.532447630591879"><ele>803.0</ele><time>2026-03-23T09:51:04Z</time></trkpt><trkpt lat="31.08348663467424" lon="-4.532546402764996"><ele>803.0</ele><time>2026-03-23T09:51:05Z</time></trkpt><trkpt lat="31.083344326643385" lon="-4.532645471353095"><ele>803.3333333333334</ele><time>2026-03-23T09:51:06Z</time></trkpt><trkpt lat="31.08321005902336" lon="-4.532737677165872"><ele>803.6666666666667</ele><time>2026-03-23T09:51:07Z</time></trkpt><trkpt lat="31.083058962295468" lon="-4.532843929677553"><ele>804.0</ele><time>2026-03-23T09:51:08Z</time></trkpt><trkpt lat="31.082914686339727" lon="-4.532933079402345"><ele>804.0</ele><time>2026-03-23T09:51:09Z</time></trkpt><trkpt lat="31.082769358971067" lon="-4.533016849990473"><ele>804.0</ele><time>2026-03-23T09:51:10Z</time></trkpt><trkpt lat="31.08262810408827" lon="-4.533096738264495"><ele>804.0</ele><time>2026-03-23T09:51:11Z</time></trkpt><trkpt lat="31.082484400525075" lon="-4.533163115693229"><ele>805.0</ele><time>2026-03-23T09:51:12Z</time></trkpt><trkpt lat="31.08233710166672" lon="-4.533218443773911"><ele>806.0</ele><time>2026-03-23T09:51:13Z</time></trkpt><trkpt lat="31.08218694958713" lon="-4.533273960204267"><ele>807.0</ele><time>2026-03-23T09:51:14Z</time></trkpt><trkpt lat="31.08203791169926" lon="-4.533330228866764"><ele>807.0</ele><time>2026-03-23T09:51:15Z</time></trkpt><trkpt lat="31.081883673301718" lon="-4.533387000669294"><ele>807.0</ele><time>2026-03-23T09:51:16Z</time></trkpt><trkpt lat="31.081731258163092" lon="-4.533438929037514"><ele>807.0</ele><time>2026-03-23T09:51:17Z</time></trkpt><trkpt lat="31.081567189610542" lon="-4.533498206344122"><ele>806.3333333333333</ele><time>2026-03-23T09:51:18Z</time></trkpt><trkpt lat="31.081388649140727" lon="-4.533567747066711"><ele>805.6666666666666</ele><time>2026-03-23T09:51:19Z</time></trkpt><trkpt lat="31.081209333273407" lon="-4.533636937956366"><ele>805.0</ele><time>2026-03-23T09:51:20Z</time></trkpt><trkpt lat="31.081043069376594" lon="-4.533712534929016"><ele>805.3333333333333</ele><time>2026-03-23T09:51:21Z</time></trkpt><trkpt lat="31.080883317005465" lon="-4.533794629351778"><ele>805.6666666666667</ele><time>2026-03-23T09:51:22Z</time></trkpt><trkpt lat="31.0807350126265" lon="-4.533865027728513"><ele>806.0</ele><time>2026-03-23T09:51:23Z</time></trkpt><trkpt lat="31.080599872178844" lon="-4.533928367688756"><ele>806.0</ele><time>2026-03-23T09:51:24Z</time></trkpt><trkpt lat="31.080468001896094" lon="-4.533988957248247"><ele>806.0</ele><time>2026-03-23T09:51:25Z</time></trkpt><trkpt lat="31.080342340212674" lon="-4.53405569869104"><ele>806.0</ele><time>2026-03-23T09:51:26Z</time></trkpt><trkpt lat="31.080210153843122" lon="-4.534123710798089"><ele>806.0</ele><time>2026-03-23T09:51:27Z</time></trkpt><trkpt lat="31.08008207427276" lon="-4.534186270880216"><ele>806.0</ele><time>2026-03-23T09:51:28Z</time></trkpt><trkpt lat="31.079951560801746" lon="-4.534240754707213"><ele>806.0</ele><time>2026-03-23T09:51:29Z</time></trkpt><trkpt lat="31.07981868532252" lon="-4.534288029395887"><ele>806.0</ele><time>2026-03-23T09:51:30Z</time></trkpt><trkpt lat="31.079676053350894" lon="-4.5343324562812795"><ele>806.0</ele><time>2026-03-23T09:51:31Z</time></trkpt><trkpt lat="31.079544053902065" lon="-4.534385183597281"><ele>806.0</ele><time>2026-03-23T09:51:32Z</time></trkpt><trkpt lat="31.079408866165732" lon="-4.534451439513821"><ele>806.0</ele><time>2026-03-23T09:51:33Z</time></trkpt><trkpt lat="31.079262077973475" lon="-4.534514172816316"><ele>806.0</ele><time>2026-03-23T09:51:34Z</time></trkpt><trkpt lat="31.079135835961537" lon="-4.534565084169586"><ele>806.0</ele><time>2026-03-23T09:51:35Z</time></trkpt><trkpt lat="31.079026127006053" lon="-4.534602262851387"><ele>806.1999999999999</ele><time>2026-03-23T09:51:36Z</time></trkpt><trkpt lat="31.078928029067246" lon="-4.534637465096196"><ele>806.4</ele><time>2026-03-23T09:51:37Z</time></trkpt><trkpt lat="31.078846086174785" lon="-4.534677530955225"><ele>806.6</ele><time>2026-03-23T09:51:38Z</time></trkpt><trkpt lat="31.078775746068644" lon="-4.534714240162627"><ele>806.8</ele><time>2026-03-23T09:51:39Z</time></trkpt><trkpt lat="31.078652221957395" lon="-4.534761879279022"><ele>807.0</ele><time>2026-03-23T09:51:41Z</time></trkpt><trkpt lat="31.0785526441665" lon="-4.5348121690925955"><ele>807.0</ele><time>2026-03-23T09:51:43Z</time></trkpt><trkpt lat="31.078462113126808" lon="-4.5348820938840735"><ele>807.0</ele><time>2026-03-23T09:51:45Z</time></trkpt><trkpt lat="31.078407873670432" lon="-4.534938289837822"><ele>807.0</ele><time>2026-03-23T09:51:46Z</time></trkpt><trkpt lat="31.07834198575892" lon="-4.534997506445479"><ele>807.0</ele><time>2026-03-23T09:51:47Z</time></trkpt><trkpt lat="31.078264343646925" lon="-4.535056188912737"><ele>807.0</ele><time>2026-03-23T09:51:48.001Z</time></trkpt><trkpt lat="31.078185470431485" lon="-4.535120298702699"><ele>806.8333333333334</ele><time>2026-03-23T09:51:49.001Z</time></trkpt><trkpt lat="31.07811643856439" lon="-4.535188895954765"><ele>806.6666666666667</ele><time>2026-03-23T09:51:50.001Z</time></trkpt><trkpt lat="31.07807132703859" lon="-4.535241943171607"><ele>806.5</ele><time>2026-03-23T09:51:51.001Z</time></trkpt><trkpt lat="31.07799614506556" lon="-4.535311459086235"><ele>806.3333333333334</ele><time>2026-03-23T09:51:53.001Z</time></trkpt><trkpt lat="31.07792258133309" lon="-4.535365691548451"><ele>806.1666666666667</ele><time>2026-03-23T09:51:55.001Z</time></trkpt><trkpt lat="31.077870368636262" lon="-4.535408955038334"><ele>806.0</ele><time>2026-03-23T09:51:56.001Z</time></trkpt><trkpt lat="31.077810066467848" lon="-4.53546718681566"><ele>806.0</ele><time>2026-03-23T09:51:57.001Z</time></trkpt><trkpt lat="31.077740865951547" lon="-4.5355246481844285"><ele>806.0</ele><time>2026-03-23T09:51:58.001Z</time></trkpt><trkpt lat="31.077656639777462" lon="-4.53558392766385"><ele>806.0</ele><time>2026-03-23T09:51:59.001Z</time></trkpt><trkpt lat="31.07756265390153" lon="-4.535638030541514"><ele>806.0</ele><time>2026-03-23T09:52:00.001Z</time></trkpt><trkpt lat="31.07745159854319" lon="-4.535694275595838"><ele>806.0</ele><time>2026-03-23T09:52:01.001Z</time></trkpt><trkpt lat="31.077330883547408" lon="-4.535758878967503"><ele>804.5</ele><time>2026-03-23T09:52:02.001Z</time></trkpt><trkpt lat="31.077194978570386" lon="-4.535833748665749"><ele>803.0</ele><time>2026-03-23T09:52:03.001Z</time></trkpt><trkpt lat="31.077078786204012" lon="-4.535909814075063"><ele>801.5</ele><time>2026-03-23T09:52:04.001Z</time></trkpt><trkpt lat="31.076967239666907" lon="-4.535964495421339"><ele>800.0</ele><time>2026-03-23T09:52:05.001Z</time></trkpt><trkpt lat="31.076838815145972" lon="-4.536012750643202"><ele>800.0</ele><time>2026-03-23T09:52:06.001Z</time></trkpt><trkpt lat="31.076704639487748" lon="-4.536071195528334"><ele>800.0</ele><time>2026-03-23T09:52:07.001Z</time></trkpt><trkpt lat="31.07656781237409" lon="-4.53613631646692"><ele>800.0</ele><time>2026-03-23T09:52:08.001Z</time></trkpt><trkpt lat="31.07641573848243" lon="-4.536225172929666"><ele>800.0</ele><time>2026-03-23T09:52:08.997Z</time></trkpt><trkpt lat="31.076272008371102" lon="-4.536312386835181"><ele>800.0</ele><time>2026-03-23T09:52:09.997Z</time></trkpt><trkpt lat="31.07612201883892" lon="-4.536399520200229"><ele>800.0</ele><time>2026-03-23T09:52:10.997Z</time></trkpt><trkpt lat="31.075966258392942" lon="-4.536486181448518"><ele>800.0</ele><time>2026-03-23T09:52:11.997Z</time></trkpt><trkpt lat="31.07581347892273" lon="-4.5365771175375285"><ele>800.0</ele><time>2026-03-23T09:52:12.997Z</time></trkpt><trkpt lat="31.075668151081285" lon="-4.5366643615205815"><ele>800.0</ele><time>2026-03-23T09:52:13.998Z</time></trkpt><trkpt lat="31.075542326283905" lon="-4.5367303401616095"><ele>799.4</ele><time>2026-03-23T09:52:14.998Z</time></trkpt><trkpt lat="31.075430777166968" lon="-4.536795139158519"><ele>798.8</ele><time>2026-03-23T09:52:15.998Z</time></trkpt><trkpt lat="31.075333599907154" lon="-4.536853895892698"><ele>798.2</ele><time>2026-03-23T09:52:16.998Z</time></trkpt><trkpt lat="31.07525043290615" lon="-4.536906307121831"><ele>797.6</ele><time>2026-03-23T09:52:17.998Z</time></trkpt><trkpt lat="31.07518230339231" lon="-4.5369495427784265"><ele>797.0</ele><time>2026-03-23T09:52:18.998Z</time></trkpt><trkpt lat="31.07509759256015" lon="-4.537003533691998"><ele>797.3333333333334</ele><time>2026-03-23T09:52:20.998Z</time></trkpt><trkpt lat="31.07505702669006" lon="-4.537093809594081"><ele>797.6666666666667</ele><time>2026-03-23T09:52:51Z</time></trkpt><trkpt lat="31.075095654693772" lon="-4.5371751398233595"><ele>798.0</ele><time>2026-03-23T09:52:52Z</time></trkpt><trkpt lat="31.075137810749712" lon="-4.537267126549328"><ele>798.3333333333333</ele><time>2026-03-23T09:52:53Z</time></trkpt><trkpt lat="31.075173045296886" lon="-4.537377023309896"><ele>798.6666666666666</ele><time>2026-03-23T09:52:55Z</time></trkpt><trkpt lat="31.075191585135848" lon="-4.5374698630099575"><ele>799.0</ele><time>2026-03-23T09:52:58Z</time></trkpt><trkpt lat="31.075153387809316" lon="-4.537542559225491"><ele>798.9999999999999</ele><time>2026-03-23T09:53:14Z</time></trkpt><trkpt lat="31.075060536985713" lon="-4.537560389107993"><ele>799.0</ele><time>2026-03-23T09:53:16Z</time></trkpt><trkpt lat="31.074997297849933" lon="-4.537520121205014"><ele>799.0</ele><time>2026-03-23T09:53:18Z</time></trkpt><trkpt lat="31.07489983423815" lon="-4.537538247468361"><ele>799.0</ele><time>2026-03-23T09:53:21Z</time></trkpt><trkpt lat="31.074843774009008" lon="-4.53759779098127"><ele>798.9999999999999</ele><time>2026-03-23T09:53:22Z</time></trkpt><trkpt lat="31.074768528001197" lon="-4.537666247730312"><ele>799.0</ele><time>2026-03-23T09:53:23Z</time></trkpt><trkpt lat="31.074687416263977" lon="-4.53773703372246"><ele>799.0</ele><time>2026-03-23T09:53:24Z</time></trkpt><trkpt lat="31.074606367159735" lon="-4.537809417535621"><ele>799.0</ele><time>2026-03-23T09:53:25.001Z</time></trkpt><trkpt lat="31.07452301768147" lon="-4.537890724332658"><ele>799.0</ele><time>2026-03-23T09:53:26.001Z</time></trkpt><trkpt lat="31.07443477466886" lon="-4.537976694558322"><ele>799.0</ele><time>2026-03-23T09:53:27.001Z</time></trkpt><trkpt lat="31.074349432899492" lon="-4.538051668781804"><ele>799.0</ele><time>2026-03-23T09:53:28.001Z</time></trkpt><trkpt lat="31.07426037547406" lon="-4.538143023598697"><ele>799.0</ele><time>2026-03-23T09:53:29.001Z</time></trkpt><trkpt lat="31.074173637272004" lon="-4.538233537680891"><ele>799.0</ele><time>2026-03-23T09:53:30.001Z</time></trkpt><trkpt lat="31.074082372553583" lon="-4.538324610248593"><ele>799.0</ele><time>2026-03-23T09:53:31.001Z</time></trkpt><trkpt lat="31.07398807525174" lon="-4.53841389541033"><ele>799.0</ele><time>2026-03-23T09:53:32.001Z</time></trkpt><trkpt lat="31.073898805208803" lon="-4.538498066323421"><ele>798.5</ele><time>2026-03-23T09:53:33.001Z</time></trkpt><trkpt lat="31.073808596038518" lon="-4.538578603944615"><ele>798.0</ele><time>2026-03-23T09:53:34.001Z</time></trkpt><trkpt lat="31.073714863670297" lon="-4.538664266607248"><ele>797.5</ele><time>2026-03-23T09:53:35.001Z</time></trkpt><trkpt lat="31.073621284788913" lon="-4.538756724641818"><ele>797.0</ele><time>2026-03-23T09:53:36.001Z</time></trkpt><trkpt lat="31.073527473254682" lon="-4.538857109786741"><ele>796.75</ele><time>2026-03-23T09:53:37.001Z</time></trkpt><trkpt lat="31.073438176945892" lon="-4.5389675267936305"><ele>796.5</ele><time>2026-03-23T09:53:38.001Z</time></trkpt><trkpt lat="31.073347358618957" lon="-4.539075827026875"><ele>796.25</ele><time>2026-03-23T09:53:39.001Z</time></trkpt><trkpt lat="31.0732482260075" lon="-4.5391800963999245"><ele>796.0</ele><time>2026-03-23T09:53:40.001Z</time></trkpt><trkpt lat="31.073154902976786" lon="-4.539297763627917"><ele>795.75</ele><time>2026-03-23T09:53:41.001Z</time></trkpt><trkpt lat="31.073049079471016" lon="-4.539415077377158"><ele>795.5</ele><time>2026-03-23T09:53:42.001Z</time></trkpt><trkpt lat="31.07292910998141" lon="-4.539496746792653"><ele>795.25</ele><time>2026-03-23T09:53:43.001Z</time></trkpt><trkpt lat="31.07281997890118" lon="-4.5396050679926105"><ele>795.0</ele><time>2026-03-23T09:53:44.001Z</time></trkpt><trkpt lat="31.072718693407317" lon="-4.539714141650928"><ele>795.0</ele><time>2026-03-23T09:53:45.001Z</time></trkpt><trkpt lat="31.072618833108503" lon="-4.5398333241939905"><ele>795.0</ele><time>2026-03-23T09:53:46.001Z</time></trkpt><trkpt lat="31.07253281901994" lon="-4.539957526495566"><ele>795.0</ele><time>2026-03-23T09:53:47.001Z</time></trkpt><trkpt lat="31.072461715452683" lon="-4.540083806491605"><ele>795.0</ele><time>2026-03-23T09:53:48.001Z</time></trkpt><trkpt lat="31.072403502325535" lon="-4.54021906755517"><ele>794.25</ele><time>2026-03-23T09:53:49.001Z</time></trkpt><trkpt lat="31.072349197464085" lon="-4.540356943561881"><ele>793.5</ele><time>2026-03-23T09:53:50.001Z</time></trkpt><trkpt lat="31.072310711394056" lon="-4.54049879339277"><ele>792.75</ele><time>2026-03-23T09:53:51.001Z</time></trkpt><trkpt lat="31.072278169325244" lon="-4.540628303469196"><ele>792.0</ele><time>2026-03-23T09:53:52.001Z</time></trkpt><trkpt lat="31.07222978413148" lon="-4.540742478389416"><ele>792.0</ele><time>2026-03-23T09:53:53.001Z</time></trkpt><trkpt lat="31.07216290742925" lon="-4.540848528096397"><ele>792.0</ele><time>2026-03-23T09:53:54.001Z</time></trkpt><trkpt lat="31.072069188804246" lon="-4.54094579643507"><ele>792.0</ele><time>2026-03-23T09:53:55.001Z</time></trkpt><trkpt lat="31.071980018898213" lon="-4.541047293374818"><ele>792.0</ele><time>2026-03-23T09:53:56.001Z</time></trkpt><trkpt lat="31.07188544781318" lon="-4.541167537450357"><ele>791.5</ele><time>2026-03-23T09:53:57.001Z</time></trkpt><trkpt lat="31.071794774903417" lon="-4.541289303281705"><ele>791.0</ele><time>2026-03-23T09:53:58.001Z</time></trkpt><trkpt lat="31.071698118169017" lon="-4.541409123410905"><ele>790.5</ele><time>2026-03-23T09:53:59.001Z</time></trkpt><trkpt lat="31.071605605969218" lon="-4.541519267412738"><ele>790.0</ele><time>2026-03-23T09:54:00.001Z</time></trkpt><trkpt lat="31.0715318672804" lon="-4.54161821979297"><ele>790.0</ele><time>2026-03-23T09:54:01.001Z</time></trkpt><trkpt lat="31.0714807327608" lon="-4.5417158163230305"><ele>790.0</ele><time>2026-03-23T09:54:02.001Z</time></trkpt><trkpt lat="31.071440043075246" lon="-4.54183004111992"><ele>790.0</ele><time>2026-03-23T09:54:03.001Z</time></trkpt><trkpt lat="31.071396785665904" lon="-4.5419462376174105"><ele>790.0</ele><time>2026-03-23T09:54:04.001Z</time></trkpt><trkpt lat="31.071362625398592" lon="-4.542029729872901"><ele>790.0</ele><time>2026-03-23T09:54:05.001Z</time></trkpt><trkpt lat="31.071331117645553" lon="-4.542102458195913"><ele>789.2</ele><time>2026-03-23T09:54:06.001Z</time></trkpt><trkpt lat="31.071284100523336" lon="-4.542195480628676"><ele>788.4</ele><time>2026-03-23T09:54:07.001Z</time></trkpt><trkpt lat="31.07122251519795" lon="-4.542310777376357"><ele>787.5999999999999</ele><time>2026-03-23T09:54:08.001Z</time></trkpt><trkpt lat="31.071168412904782" lon="-4.542425857911783"><ele>786.8</ele><time>2026-03-23T09:54:09.002Z</time></trkpt><trkpt lat="31.07110862777044" lon="-4.542530455434602"><ele>786.0</ele><time>2026-03-23T09:54:10.002Z</time></trkpt><trkpt lat="31.071042329301598" lon="-4.542635914620607"><ele>786.0</ele><time>2026-03-23T09:54:11.002Z</time></trkpt><trkpt lat="31.07097410229175" lon="-4.542739154573517"><ele>786.0</ele><time>2026-03-23T09:54:12.002Z</time></trkpt><trkpt lat="31.07091188239011" lon="-4.542839253095208"><ele>786.0</ele><time>2026-03-23T09:54:13.002Z</time></trkpt><trkpt lat="31.070862450914362" lon="-4.542917321336258"><ele>786.0</ele><time>2026-03-23T09:54:14.002Z</time></trkpt><trkpt lat="31.07081772804094" lon="-4.542978115661121"><ele>786.0</ele><time>2026-03-23T09:54:15Z</time></trkpt><trkpt lat="31.07078345304841" lon="-4.54304039993478"><ele>786.0</ele><time>2026-03-23T09:54:16Z</time></trkpt><trkpt lat="31.070754177358072" lon="-4.543122857523441"><ele>786.1428571428572</ele><time>2026-03-23T09:54:17Z</time></trkpt><trkpt lat="31.070748664859476" lon="-4.543204024115765"><ele>786.2857142857143</ele><time>2026-03-23T09:54:18Z</time></trkpt><trkpt lat="31.07075854252841" lon="-4.543282223048348"><ele>786.4285714285714</ele><time>2026-03-23T09:54:19Z</time></trkpt><trkpt lat="31.070773648017283" lon="-4.543362035065352"><ele>786.5714285714287</ele><time>2026-03-23T09:54:20Z</time></trkpt><trkpt lat="31.070781628964152" lon="-4.543451722451428"><ele>786.7142857142857</ele><time>2026-03-23T09:54:21Z</time></trkpt><trkpt lat="31.07078869176998" lon="-4.54353649923678"><ele>786.8571428571429</ele><time>2026-03-23T09:54:22Z</time></trkpt><trkpt lat="31.070767269318754" lon="-4.543637134588263"><ele>787.0</ele><time>2026-03-23T09:54:24Z</time></trkpt><trkpt lat="31.0706544220676" lon="-4.543709028304008"><ele>787.0</ele><time>2026-03-23T09:54:26Z</time></trkpt><trkpt lat="31.070581914750786" lon="-4.543767970684489"><ele>787.0</ele><time>2026-03-23T09:54:27Z</time></trkpt><trkpt lat="31.070505929690263" lon="-4.543839499517051"><ele>787.0</ele><time>2026-03-23T09:54:28Z</time></trkpt><trkpt lat="31.07041650581025" lon="-4.543908070627393"><ele>787.0</ele><time>2026-03-23T09:54:29Z</time></trkpt><trkpt lat="31.07032018487912" lon="-4.543982491789714"><ele>787.0</ele><time>2026-03-23T09:54:30Z</time></trkpt><trkpt lat="31.070216472451154" lon="-4.544072155775533"><ele>787.0</ele><time>2026-03-23T09:54:31Z</time></trkpt><trkpt lat="31.07011467725022" lon="-4.544167367459994"><ele>787.0</ele><time>2026-03-23T09:54:32Z</time></trkpt><trkpt lat="31.070026709734634" lon="-4.544261672669773"><ele>787.0</ele><time>2026-03-23T09:54:33Z</time></trkpt><trkpt lat="31.06996237621729" lon="-4.544353030500656"><ele>787.0</ele><time>2026-03-23T09:54:34Z</time></trkpt><trkpt lat="31.069920790544924" lon="-4.544463336599024"><ele>786.8333333333333</ele><time>2026-03-23T09:54:35Z</time></trkpt><trkpt lat="31.069905761709634" lon="-4.544570419134252"><ele>786.6666666666666</ele><time>2026-03-23T09:54:36Z</time></trkpt><trkpt lat="31.069913195537584" lon="-4.544671895584629"><ele>786.5</ele><time>2026-03-23T09:54:37Z</time></trkpt><trkpt lat="31.069946513317852" lon="-4.5447580307242745"><ele>786.3333333333333</ele><time>2026-03-23T09:54:38Z</time></trkpt><trkpt lat="31.06997785174502" lon="-4.544832909884795"><ele>786.1666666666666</ele><time>2026-03-23T09:54:39Z</time></trkpt><trkpt lat="31.07000110172887" lon="-4.544907039523768"><ele>786.0</ele><time>2026-03-23T09:54:40Z</time></trkpt><trkpt lat="31.070022674260976" lon="-4.544981918235583"><ele>786.4</ele><time>2026-03-23T09:54:41Z</time></trkpt><trkpt lat="31.070046174720705" lon="-4.545070994789893"><ele>786.8</ele><time>2026-03-23T09:54:42Z</time></trkpt><trkpt lat="31.070078740827224" lon="-4.545168949709838"><ele>787.1999999999999</ele><time>2026-03-23T09:54:43Z</time></trkpt><trkpt lat="31.07010672258819" lon="-4.545280323953211"><ele>787.5999999999999</ele><time>2026-03-23T09:54:44Z</time></trkpt><trkpt lat="31.070138659508554" lon="-4.545394644007451"><ele>788.0</ele><time>2026-03-23T09:54:45Z</time></trkpt><trkpt lat="31.07015404733024" lon="-4.545488681851007"><ele>788.0</ele><time>2026-03-23T09:54:46Z</time></trkpt><trkpt lat="31.07015410122245" lon="-4.545598727058624"><ele>788.0</ele><time>2026-03-23T09:54:47Z</time></trkpt><trkpt lat="31.07013735874987" lon="-4.545720608888747"><ele>788.0</ele><time>2026-03-23T09:54:48Z</time></trkpt><trkpt lat="31.070109868425035" lon="-4.545857608531872"><ele>788.0</ele><time>2026-03-23T09:54:49Z</time></trkpt><trkpt lat="31.07005299267429" lon="-4.54600596364553"><ele>788.0</ele><time>2026-03-23T09:54:50Z</time></trkpt><trkpt lat="31.069994644611526" lon="-4.546154032482264"><ele>788.0</ele><time>2026-03-23T09:54:51Z</time></trkpt><trkpt lat="31.069948447520574" lon="-4.546307604648348"><ele>788.0</ele><time>2026-03-23T09:54:52Z</time></trkpt><trkpt lat="31.06992055846179" lon="-4.546448052911564"><ele>788.0</ele><time>2026-03-23T09:54:53.001Z</time></trkpt><trkpt lat="31.06989132971377" lon="-4.54657759378969"><ele>788.0</ele><time>2026-03-23T09:54:54.001Z</time></trkpt><trkpt lat="31.069864566040522" lon="-4.546702371354046"><ele>788.0</ele><time>2026-03-23T09:54:55.001Z</time></trkpt><trkpt lat="31.069834834229283" lon="-4.546824073317528"><ele>788.0</ele><time>2026-03-23T09:54:56.001Z</time></trkpt><trkpt lat="31.069805507250095" lon="-4.5469485169181825"><ele>788.0</ele><time>2026-03-23T09:54:57.001Z</time></trkpt><trkpt lat="31.069778592403356" lon="-4.54706346876274"><ele>788.0</ele><time>2026-03-23T09:54:58.001Z</time></trkpt><trkpt lat="31.069751344886782" lon="-4.547191331028927"><ele>787.5</ele><time>2026-03-23T09:54:59.001Z</time></trkpt><trkpt lat="31.06972144452068" lon="-4.547333734758886"><ele>787.0</ele><time>2026-03-23T09:55:00.001Z</time></trkpt><trkpt lat="31.06967911309734" lon="-4.547496455740502"><ele>786.5</ele><time>2026-03-23T09:55:01.001Z</time></trkpt><trkpt lat="31.06964402853309" lon="-4.5476420902649215"><ele>786.0</ele><time>2026-03-23T09:55:02.001Z</time></trkpt><trkpt lat="31.069596064004728" lon="-4.54780018498396"><ele>785.75</ele><time>2026-03-23T09:55:03.001Z</time></trkpt><trkpt lat="31.069536481917428" lon="-4.547943842036191"><ele>785.5</ele><time>2026-03-23T09:55:04.001Z</time></trkpt><trkpt lat="31.069460858296875" lon="-4.5480817640870255"><ele>785.25</ele><time>2026-03-23T09:55:05.001Z</time></trkpt><trkpt lat="31.069366826703742" lon="-4.548204539199733"><ele>785.0</ele><time>2026-03-23T09:55:06.001Z</time></trkpt><trkpt lat="31.069256844223723" lon="-4.548309955164784"><ele>785.0</ele><time>2026-03-23T09:55:07.001Z</time></trkpt><trkpt lat="31.069129801696253" lon="-4.54841329821796"><ele>785.0</ele><time>2026-03-23T09:55:08.001Z</time></trkpt><trkpt lat="31.069004311005685" lon="-4.548508001413359"><ele>785.0</ele><time>2026-03-23T09:55:09.001Z</time></trkpt><trkpt lat="31.0688838270627" lon="-4.548604353531191"><ele>785.3333333333334</ele><time>2026-03-23T09:55:10.001Z</time></trkpt><trkpt lat="31.068756972154" lon="-4.548704390837398"><ele>785.6666666666667</ele><time>2026-03-23T09:55:11.001Z</time></trkpt><trkpt lat="31.068631551907558" lon="-4.54881489937409"><ele>786.0</ele><time>2026-03-23T09:55:12.001Z</time></trkpt><trkpt lat="31.068504271417183" lon="-4.548938253672126"><ele>786.0</ele><time>2026-03-23T09:55:13.001Z</time></trkpt><trkpt lat="31.068377649915053" lon="-4.549069964362124"><ele>786.0</ele><time>2026-03-23T09:55:14.001Z</time></trkpt><trkpt lat="31.068254135753026" lon="-4.549196372373043"><ele>786.0</ele><time>2026-03-23T09:55:15.001Z</time></trkpt><trkpt lat="31.068127790287683" lon="-4.549302431866108"><ele>785.25</ele><time>2026-03-23T09:55:16.001Z</time></trkpt><trkpt lat="31.068018199670103" lon="-4.549405880766797"><ele>784.5</ele><time>2026-03-23T09:55:17.001Z</time></trkpt><trkpt lat="31.06792677218597" lon="-4.549522565794376"><ele>783.75</ele><time>2026-03-23T09:55:18.001Z</time></trkpt><trkpt lat="31.0678631518054" lon="-4.549651070406435"><ele>783.0</ele><time>2026-03-23T09:55:19.001Z</time></trkpt><trkpt lat="31.067814350656423" lon="-4.549772613686462"><ele>782.8</ele><time>2026-03-23T09:55:20.001Z</time></trkpt><trkpt lat="31.06778726703463" lon="-4.54990298541194"><ele>782.5999999999999</ele><time>2026-03-23T09:55:21.001Z</time></trkpt><trkpt lat="31.067768795029206" lon="-4.550027889730537"><ele>782.4000000000001</ele><time>2026-03-23T09:55:22.001Z</time></trkpt><trkpt lat="31.067747729258944" lon="-4.550129196808513"><ele>782.2</ele><time>2026-03-23T09:55:23.001Z</time></trkpt><trkpt lat="31.06770685568011" lon="-4.55022249412601"><ele>782.0</ele><time>2026-03-23T09:55:24.001Z</time></trkpt><trkpt lat="31.067661363762415" lon="-4.550312849338254"><ele>782.0000000000001</ele><time>2026-03-23T09:55:25.001Z</time></trkpt><trkpt lat="31.067616071184283" lon="-4.5504202917708065"><ele>782.0</ele><time>2026-03-23T09:55:26.001Z</time></trkpt><trkpt lat="31.067575268819176" lon="-4.550508246910373"><ele>782.0</ele><time>2026-03-23T09:55:27.001Z</time></trkpt><trkpt lat="31.067545705708515" lon="-4.550584392244141"><ele>782.0</ele><time>2026-03-23T09:55:28.001Z</time></trkpt><trkpt lat="31.067523836458015" lon="-4.550657272360443"><ele>782.0000000000001</ele><time>2026-03-23T09:55:45.002Z</time></trkpt><trkpt lat="31.067490280906544" lon="-4.5507742898355765"><ele>782.0</ele><time>2026-03-23T09:55:47.002Z</time></trkpt><trkpt lat="31.067464315855045" lon="-4.550858704836301"><ele>782.1666666666667</ele><time>2026-03-23T09:55:48.002Z</time></trkpt><trkpt lat="31.06743766085716" lon="-4.550951042557354"><ele>782.3333333333334</ele><time>2026-03-23T09:55:49.002Z</time></trkpt><trkpt lat="31.06741195155773" lon="-4.5510430065059015"><ele>782.5</ele><time>2026-03-23T09:55:50.002Z</time></trkpt><trkpt lat="31.067386548547457" lon="-4.5511320805292454"><ele>782.6666666666667</ele><time>2026-03-23T09:55:51.002Z</time></trkpt><trkpt lat="31.067361734124187" lon="-4.551211227031203"><ele>782.8333333333334</ele><time>2026-03-23T09:55:52.002Z</time></trkpt><trkpt lat="31.067325436158125" lon="-4.551298643671335"><ele>783.0</ele><time>2026-03-23T09:55:54.002Z</time></trkpt><trkpt lat="31.067293126541184" lon="-4.551396082179485"><ele>782.5</ele><time>2026-03-23T09:56:28.001Z</time></trkpt><trkpt lat="31.067233307510246" lon="-4.551550697965745"><ele>782.0</ele><time>2026-03-23T09:56:30.001Z</time></trkpt><trkpt lat="31.06717597496051" lon="-4.551658439936065"><ele>781.5</ele><time>2026-03-23T09:56:31.001Z</time></trkpt><trkpt lat="31.067126264131204" lon="-4.551773199932673"><ele>781.0</ele><time>2026-03-23T09:56:32.001Z</time></trkpt><trkpt lat="31.0670801531858" lon="-4.551882631005332"><ele>780.9999999999999</ele><time>2026-03-23T09:56:33.001Z</time></trkpt><trkpt lat="31.067040857808927" lon="-4.5519745687097615"><ele>781.0</ele><time>2026-03-23T09:56:34.001Z</time></trkpt><trkpt lat="31.067007985997183" lon="-4.552051803083018"><ele>781.0</ele><time>2026-03-23T09:56:35.001Z</time></trkpt><trkpt lat="31.0669660032779" lon="-4.55214205329636"><ele>781.0</ele><time>2026-03-23T09:56:36.001Z</time></trkpt><trkpt lat="31.06692713696476" lon="-4.552228153273933"><ele>780.9999999999999</ele><time>2026-03-23T09:56:37.001Z</time></trkpt><trkpt lat="31.06689544254512" lon="-4.552306638960147"><ele>781.0</ele><time>2026-03-23T09:56:38.001Z</time></trkpt><trkpt lat="31.06686300877802" lon="-4.552385769787471"><ele>780.8333333333333</ele><time>2026-03-23T09:56:39.001Z</time></trkpt><trkpt lat="31.066833464686468" lon="-4.552470736277094"><ele>780.6666666666666</ele><time>2026-03-23T09:56:40.001Z</time></trkpt><trkpt lat="31.066800980497238" lon="-4.55256257443482"><ele>780.5</ele><time>2026-03-23T09:56:41.001Z</time></trkpt><trkpt lat="31.066768404326474" lon="-4.552653863086783"><ele>780.3333333333333</ele><time>2026-03-23T09:56:42.001Z</time></trkpt><trkpt lat="31.06673527321074" lon="-4.5527456498948204"><ele>780.1666666666666</ele><time>2026-03-23T09:56:43.001Z</time></trkpt><trkpt lat="31.066701474895524" lon="-4.552834052561298"><ele>780.0</ele><time>2026-03-23T09:56:44.001Z</time></trkpt><trkpt lat="31.066660767424906" lon="-4.5529343045888275"><ele>780.0</ele><time>2026-03-23T09:56:45.001Z</time></trkpt><trkpt lat="31.06661805743279" lon="-4.553023697467541"><ele>780.0</ele><time>2026-03-23T09:56:46.001Z</time></trkpt><trkpt lat="31.06656985892036" lon="-4.5531259315748525"><ele>780.0</ele><time>2026-03-23T09:56:47.001Z</time></trkpt><trkpt lat="31.066523449547326" lon="-4.553223666920719"><ele>780.0</ele><time>2026-03-23T09:56:48.001Z</time></trkpt><trkpt lat="31.066477734453684" lon="-4.5533115870960215"><ele>780.0</ele><time>2026-03-23T09:56:49.001Z</time></trkpt><trkpt lat="31.06642651183181" lon="-4.553408879981959"><ele>780.2</ele><time>2026-03-23T09:56:50.001Z</time></trkpt><trkpt lat="31.06636408267822" lon="-4.553498105949979"><ele>780.4</ele><time>2026-03-23T09:56:51.001Z</time></trkpt><trkpt lat="31.0662910504185" lon="-4.553580414356304"><ele>780.5999999999999</ele><time>2026-03-23T09:56:52.001Z</time></trkpt><trkpt lat="31.06621199928698" lon="-4.553664614997686"><ele>780.8</ele><time>2026-03-23T09:56:53.001Z</time></trkpt><trkpt lat="31.066138437315114" lon="-4.55373914667292"><ele>781.0</ele><time>2026-03-23T09:56:54.001Z</time></trkpt><trkpt lat="31.066054025924053" lon="-4.553821577745488"><ele>780.75</ele><time>2026-03-23T09:56:55.001Z</time></trkpt><trkpt lat="31.065968887374705" lon="-4.553907487630888"><ele>780.5</ele><time>2026-03-23T09:56:56.001Z</time></trkpt><trkpt lat="31.06587700091702" lon="-4.553995319104442"><ele>780.25</ele><time>2026-03-23T09:56:57.001Z</time></trkpt><trkpt lat="31.065783602315527" lon="-4.554090017762599"><ele>780.0</ele><time>2026-03-23T09:56:58.001Z</time></trkpt><trkpt lat="31.06569131574922" lon="-4.554190114410016"><ele>780.0</ele><time>2026-03-23T09:56:59.001Z</time></trkpt><trkpt lat="31.065600993727035" lon="-4.554293521406745"><ele>780.0</ele><time>2026-03-23T09:57:00.001Z</time></trkpt><trkpt lat="31.065509590558896" lon="-4.5543993677668135"><ele>780.0</ele><time>2026-03-23T09:57:01.001Z</time></trkpt><trkpt lat="31.065418756297774" lon="-4.554505325214862"><ele>780.0</ele><time>2026-03-23T09:57:02.001Z</time></trkpt><trkpt lat="31.06532986113175" lon="-4.554611482671597"><ele>779.25</ele><time>2026-03-23T09:57:03.001Z</time></trkpt><trkpt lat="31.06523478230342" lon="-4.554714643628948"><ele>778.5</ele><time>2026-03-23T09:57:04.001Z</time></trkpt><trkpt lat="31.065141110386094" lon="-4.5548179352901315"><ele>777.75</ele><time>2026-03-23T09:57:05.001Z</time></trkpt><trkpt lat="31.06504901020977" lon="-4.554920718156157"><ele>777.0</ele><time>2026-03-23T09:57:06.001Z</time></trkpt><trkpt lat="31.064959196750664" lon="-4.555018522103928"><ele>777.0</ele><time>2026-03-23T09:57:07.001Z</time></trkpt><trkpt lat="31.06487402921268" lon="-4.555111876829425"><ele>777.0</ele><time>2026-03-23T09:57:08.001Z</time></trkpt><trkpt lat="31.064783612496075" lon="-4.5552027388671945"><ele>777.0</ele><time>2026-03-23T09:57:09.001Z</time></trkpt><trkpt lat="31.064687759026" lon="-4.555292039490035"><ele>777.0</ele><time>2026-03-23T09:57:10.001Z</time></trkpt><trkpt lat="31.064592306683373" lon="-4.55537848214974"><ele>777.0</ele><time>2026-03-23T09:57:11.001Z</time></trkpt><trkpt lat="31.064498009410936" lon="-4.555473251102524"><ele>777.0</ele><time>2026-03-23T09:57:12.001Z</time></trkpt><trkpt lat="31.06440521502467" lon="-4.555579092085508"><ele>777.0</ele><time>2026-03-23T09:57:13.001Z</time></trkpt><trkpt lat="31.064310143704116" lon="-4.555684431937173"><ele>777.0</ele><time>2026-03-23T09:57:14.001Z</time></trkpt><trkpt lat="31.06421820839586" lon="-4.555787477213237"><ele>777.0</ele><time>2026-03-23T09:57:15.001Z</time></trkpt><trkpt lat="31.064130161826288" lon="-4.555890594049667"><ele>777.0</ele><time>2026-03-23T09:57:16.001Z</time></trkpt><trkpt lat="31.06403911125061" lon="-4.555999338049684"><ele>777.0</ele><time>2026-03-23T09:57:17.001Z</time></trkpt><trkpt lat="31.06394013835178" lon="-4.556104179774832"><ele>777.0</ele><time>2026-03-23T09:57:18.001Z</time></trkpt><trkpt lat="31.063833466183333" lon="-4.556215232005372"><ele>776.6666666666667</ele><time>2026-03-23T09:57:19.001Z</time></trkpt><trkpt lat="31.063704160865317" lon="-4.556352286584572"><ele>776.3333333333334</ele><time>2026-03-23T09:57:20.001Z</time></trkpt><trkpt lat="31.063563654807012" lon="-4.556510243611645"><ele>776.0</ele><time>2026-03-23T09:57:21.001Z</time></trkpt><trkpt lat="31.063415919115915" lon="-4.556673727371198"><ele>775.5</ele><time>2026-03-23T09:57:22.001Z</time></trkpt><trkpt lat="31.063247432486232" lon="-4.556860190793356"><ele>775.0</ele><time>2026-03-23T09:57:23.001Z</time></trkpt><trkpt lat="31.063063465302314" lon="-4.557072130725255"><ele>775.0</ele><time>2026-03-23T09:57:24.001Z</time></trkpt><trkpt lat="31.062888259553556" lon="-4.5572687476523654"><ele>775.0</ele><time>2026-03-23T09:57:25.001Z</time></trkpt><trkpt lat="31.062744136626623" lon="-4.557430424295553"><ele>775.0</ele><time>2026-03-23T09:57:26.001Z</time></trkpt><trkpt lat="31.062619577671565" lon="-4.55757107577509"><ele>775.0</ele><time>2026-03-23T09:57:27.002Z</time></trkpt><trkpt lat="31.062506731235825" lon="-4.557701072540733"><ele>775.0</ele><time>2026-03-23T09:57:28.002Z</time></trkpt><trkpt lat="31.06237983930421" lon="-4.557829467924185"><ele>775.0</ele><time>2026-03-23T09:57:29.002Z</time></trkpt><trkpt lat="31.06226136576066" lon="-4.557963598477289"><ele>775.25</ele><time>2026-03-23T09:57:30.002Z</time></trkpt><trkpt lat="31.06216565257285" lon="-4.558071188499002"><ele>775.5</ele><time>2026-03-23T09:57:31.002Z</time></trkpt><trkpt lat="31.062068271935434" lon="-4.558180078282143"><ele>775.75</ele><time>2026-03-23T09:57:32.002Z</time></trkpt><trkpt lat="31.061968211541526" lon="-4.558287148638759"><ele>776.0</ele><time>2026-03-23T09:57:33.002Z</time></trkpt><trkpt lat="31.06186918519226" lon="-4.558383221269865"><ele>776.0</ele><time>2026-03-23T09:57:34.002Z</time></trkpt><trkpt lat="31.06177971556539" lon="-4.558449899656704"><ele>776.0</ele><time>2026-03-23T09:57:35.002Z</time></trkpt><trkpt lat="31.061689041771906" lon="-4.558506944601041"><ele>776.0</ele><time>2026-03-23T09:57:36.002Z</time></trkpt><trkpt lat="31.061575520807814" lon="-4.5585822781662415"><ele>776.0</ele><time>2026-03-23T09:57:37.002Z</time></trkpt><trkpt lat="31.061454035435794" lon="-4.5586726385282414"><ele>775.0</ele><time>2026-03-23T09:57:38.002Z</time></trkpt><trkpt lat="31.06132515797098" lon="-4.558779250066562"><ele>774.0</ele><time>2026-03-23T09:57:39.002Z</time></trkpt><trkpt lat="31.06119237323046" lon="-4.558900528524705"><ele>773.0</ele><time>2026-03-23T09:57:40.002Z</time></trkpt><trkpt lat="31.061063972131304" lon="-4.559020489761092"><ele>773.0</ele><time>2026-03-23T09:57:41.002Z</time></trkpt><trkpt lat="31.060934671180767" lon="-4.559146338253312"><ele>773.0</ele><time>2026-03-23T09:57:42.002Z</time></trkpt><trkpt lat="31.060802981313124" lon="-4.559275459123644"><ele>773.0</ele><time>2026-03-23T09:57:43.002Z</time></trkpt><trkpt lat="31.060678587259257" lon="-4.559394181242597"><ele>772.6666666666667</ele><time>2026-03-23T09:57:44.002Z</time></trkpt><trkpt lat="31.060544476137505" lon="-4.559517623692007"><ele>772.3333333333333</ele><time>2026-03-23T09:57:45.002Z</time></trkpt><trkpt lat="31.060398955578236" lon="-4.559652602672005"><ele>772.0</ele><time>2026-03-23T09:57:46.002Z</time></trkpt><trkpt lat="31.060260683320404" lon="-4.559789554914787"><ele>771.0</ele><time>2026-03-23T09:57:47.002Z</time></trkpt><trkpt lat="31.06010995899516" lon="-4.559898155650523"><ele>770.0</ele><time>2026-03-23T09:57:48.002Z</time></trkpt><trkpt lat="31.05996181422972" lon="-4.560049418222728"><ele>769.0</ele><time>2026-03-23T09:57:49.002Z</time></trkpt><trkpt lat="31.059807541477642" lon="-4.560192764288082"><ele>769.0</ele><time>2026-03-23T09:57:50.002Z</time></trkpt><trkpt lat="31.059652961413768" lon="-4.560343389676105"><ele>769.0</ele><time>2026-03-23T09:57:51.002Z</time></trkpt><trkpt lat="31.059509852056898" lon="-4.5604877303263525"><ele>769.0</ele><time>2026-03-23T09:57:52.002Z</time></trkpt><trkpt lat="31.05936108293753" lon="-4.560635732454222"><ele>769.0</ele><time>2026-03-23T09:57:53.002Z</time></trkpt><trkpt lat="31.05921028110701" lon="-4.560785836910018"><ele>769.0</ele><time>2026-03-23T09:57:54.002Z</time></trkpt><trkpt lat="31.059063187047872" lon="-4.560933021478851"><ele>769.0</ele><time>2026-03-23T09:57:55.002Z</time></trkpt><trkpt lat="31.058917241799843" lon="-4.561085060266322"><ele>769.3333333333333</ele><time>2026-03-23T09:57:56.002Z</time></trkpt><trkpt lat="31.058771554119502" lon="-4.561229840219982"><ele>769.6666666666667</ele><time>2026-03-23T09:57:57.002Z</time></trkpt><trkpt lat="31.058630138408514" lon="-4.561374785562152"><ele>770.0</ele><time>2026-03-23T09:57:58.002Z</time></trkpt><trkpt lat="31.05848462359539" lon="-4.561520096574689"><ele>770.0</ele><time>2026-03-23T09:57:59.002Z</time></trkpt><trkpt lat="31.058345362716953" lon="-4.561667067095393"><ele>770.0</ele><time>2026-03-23T09:58:00.002Z</time></trkpt><trkpt lat="31.058191589446498" lon="-4.561815381793398"><ele>770.0</ele><time>2026-03-23T09:58:01.002Z</time></trkpt><trkpt lat="31.05804385446627" lon="-4.561976307301446"><ele>769.3333333333334</ele><time>2026-03-23T09:58:02.002Z</time></trkpt><trkpt lat="31.05789592286958" lon="-4.562142424750423"><ele>768.6666666666667</ele><time>2026-03-23T09:58:03.002Z</time></trkpt><trkpt lat="31.057744232031368" lon="-4.562302855187004"><ele>768.0</ele><time>2026-03-23T09:58:04.002Z</time></trkpt><trkpt lat="31.057584693301855" lon="-4.562466003217844"><ele>766.5</ele><time>2026-03-23T09:58:05.002Z</time></trkpt><trkpt lat="31.0574134062509" lon="-4.562645999193027"><ele>765.0</ele><time>2026-03-23T09:58:06.002Z</time></trkpt><trkpt lat="31.05725170322577" lon="-4.562840387877915"><ele>765.6666666666666</ele><time>2026-03-23T09:58:07.002Z</time></trkpt><trkpt lat="31.057134611268285" lon="-4.5630397866879715"><ele>766.3333333333333</ele><time>2026-03-23T09:58:08.002Z</time></trkpt><trkpt lat="31.057022400899726" lon="-4.563253010822519"><ele>767.0</ele><time>2026-03-23T09:58:09.002Z</time></trkpt><trkpt lat="31.056793599651545" lon="-4.5633413042841635"><ele>767.0</ele><time>2026-03-23T09:58:10.002Z</time></trkpt><trkpt lat="31.05663500943578" lon="-4.563520779828375"><ele>767.0</ele><time>2026-03-23T09:58:11.002Z</time></trkpt><trkpt lat="31.056482216776185" lon="-4.563698628606913"><ele>767.0</ele><time>2026-03-23T09:58:12.002Z</time></trkpt><trkpt lat="31.056330964846893" lon="-4.563874694042461"><ele>766.6666666666666</ele><time>2026-03-23T09:58:13.002Z</time></trkpt><trkpt lat="31.05618203345906" lon="-4.564047486834698"><ele>766.3333333333334</ele><time>2026-03-23T09:58:14.003Z</time></trkpt><trkpt lat="31.056033247428843" lon="-4.564226715646537"><ele>766.0</ele><time>2026-03-23T09:58:15.003Z</time></trkpt><trkpt lat="31.055887538132808" lon="-4.564397253682659"><ele>767.0</ele><time>2026-03-23T09:58:16.003Z</time></trkpt><trkpt lat="31.055751895413106" lon="-4.5645617266742216"><ele>768.0</ele><time>2026-03-23T09:58:17.003Z</time></trkpt><trkpt lat="31.055612866085635" lon="-4.564728156773862"><ele>769.0</ele><time>2026-03-23T09:58:18.003Z</time></trkpt><trkpt lat="31.05546498244493" lon="-4.564906288060843"><ele>769.0</ele><time>2026-03-23T09:58:19.003Z</time></trkpt><trkpt lat="31.055314086343063" lon="-4.56508446873765"><ele>769.0</ele><time>2026-03-23T09:58:20.003Z</time></trkpt><trkpt lat="31.055180278422363" lon="-4.565237649176019"><ele>769.0</ele><time>2026-03-23T09:58:21.003Z</time></trkpt><trkpt lat="31.055062157191337" lon="-4.565378017263651"><ele>767.6666666666666</ele><time>2026-03-23T09:58:22.003Z</time></trkpt><trkpt lat="31.054946939916896" lon="-4.5655168903216365"><ele>766.3333333333333</ele><time>2026-03-23T09:58:23.003Z</time></trkpt><trkpt lat="31.054818955301418" lon="-4.565671701048935"><ele>765.0</ele><time>2026-03-23T09:58:24.003Z</time></trkpt><trkpt lat="31.05468213224717" lon="-4.565832825230561"><ele>765.0</ele><time>2026-03-23T09:58:25.003Z</time></trkpt><trkpt lat="31.054538314063713" lon="-4.5659901854094"><ele>765.0</ele><time>2026-03-23T09:58:26.003Z</time></trkpt><trkpt lat="31.05440171477836" lon="-4.566134376010053"><ele>765.0</ele><time>2026-03-23T09:58:27.001Z</time></trkpt><trkpt lat="31.054249703694996" lon="-4.56628341360079"><ele>765.0</ele><time>2026-03-23T09:58:28.001Z</time></trkpt><trkpt lat="31.05408829578435" lon="-4.5664413900205725"><ele>765.0</ele><time>2026-03-23T09:58:29.001Z</time></trkpt><trkpt lat="31.053920979296354" lon="-4.566604939357414"><ele>765.0</ele><time>2026-03-23T09:58:30.001Z</time></trkpt><trkpt lat="31.053754371962587" lon="-4.566767888047051"><ele>765.0</ele><time>2026-03-23T09:58:31.001Z</time></trkpt><trkpt lat="31.05357129302921" lon="-4.566915014782259"><ele>765.0</ele><time>2026-03-23T09:58:32.001Z</time></trkpt><trkpt lat="31.053387048586227" lon="-4.567059872199861"><ele>765.0</ele><time>2026-03-23T09:58:33.001Z</time></trkpt><trkpt lat="31.053187049405416" lon="-4.567211935208581"><ele>764.3333333333334</ele><time>2026-03-23T09:58:34.001Z</time></trkpt><trkpt lat="31.053011666913726" lon="-4.567332348502646"><ele>763.6666666666667</ele><time>2026-03-23T09:58:35.001Z</time></trkpt><trkpt lat="31.05284734307555" lon="-4.567445875878088"><ele>763.0</ele><time>2026-03-23T09:58:36.001Z</time></trkpt><trkpt lat="31.052700203253185" lon="-4.567557295086714"><ele>763.0</ele><time>2026-03-23T09:58:37.001Z</time></trkpt><trkpt lat="31.052552340573513" lon="-4.567683416683101"><ele>763.0</ele><time>2026-03-23T09:58:38.001Z</time></trkpt><trkpt lat="31.05240109474636" lon="-4.5678061686432185"><ele>763.0</ele><time>2026-03-23T09:58:39.001Z</time></trkpt><trkpt lat="31.052243171894187" lon="-4.567928565780298"><ele>763.6666666666667</ele><time>2026-03-23T09:58:40.001Z</time></trkpt><trkpt lat="31.05208559129738" lon="-4.568048582136979"><ele>764.3333333333334</ele><time>2026-03-23T09:58:41.001Z</time></trkpt><trkpt lat="31.05193226797974" lon="-4.568171184297081"><ele>765.0</ele><time>2026-03-23T09:58:42.001Z</time></trkpt><trkpt lat="31.051781268012807" lon="-4.568294300124467"><ele>765.0</ele><time>2026-03-23T09:58:43.001Z</time></trkpt><trkpt lat="31.051637560313065" lon="-4.568414412822665"><ele>765.0</ele><time>2026-03-23T09:58:44.001Z</time></trkpt><trkpt lat="31.051504269472655" lon="-4.568521653560435"><ele>765.0</ele><time>2026-03-23T09:58:45.001Z</time></trkpt><trkpt lat="31.051388367582863" lon="-4.568618839443076"><ele>765.25</ele><time>2026-03-23T09:58:46.001Z</time></trkpt><trkpt lat="31.051284122252486" lon="-4.568715554133148"><ele>765.5</ele><time>2026-03-23T09:58:47.001Z</time></trkpt><trkpt lat="31.051179639425477" lon="-4.568814626360342"><ele>765.75</ele><time>2026-03-23T09:58:48.001Z</time></trkpt><trkpt lat="31.051069316807634" lon="-4.568926590825114"><ele>766.0</ele><time>2026-03-23T09:58:49.001Z</time></trkpt><trkpt lat="31.050943972487776" lon="-4.569047528511037"><ele>766.0</ele><time>2026-03-23T09:58:50.001Z</time></trkpt><trkpt lat="31.05082470196344" lon="-4.5691744129112895"><ele>766.0</ele><time>2026-03-23T09:58:51.001Z</time></trkpt><trkpt lat="31.050708272986846" lon="-4.569296753404798"><ele>766.0</ele><time>2026-03-23T09:58:52.001Z</time></trkpt><trkpt lat="31.05058405419322" lon="-4.569416665734651"><ele>765.6666666666667</ele><time>2026-03-23T09:58:53.001Z</time></trkpt><trkpt lat="31.050471103648555" lon="-4.569551798478679"><ele>765.3333333333334</ele><time>2026-03-23T09:58:54.001Z</time></trkpt><trkpt lat="31.05035584921766" lon="-4.569677925088591"><ele>765.0</ele><time>2026-03-23T09:58:55.001Z</time></trkpt><trkpt lat="31.050242502503593" lon="-4.569802364686408"><ele>765.0</ele><time>2026-03-23T09:58:56.001Z</time></trkpt><trkpt lat="31.050131874595625" lon="-4.569935124506184"><ele>765.0</ele><time>2026-03-23T09:58:57.001Z</time></trkpt><trkpt lat="31.050024179418966" lon="-4.570077315965712"><ele>765.0</ele><time>2026-03-23T09:58:58.001Z</time></trkpt><trkpt lat="31.049914288416755" lon="-4.570227710663591"><ele>765.3333333333334</ele><time>2026-03-23T09:58:59.001Z</time></trkpt><trkpt lat="31.049803773900866" lon="-4.570379187406518"><ele>765.6666666666667</ele><time>2026-03-23T09:59:00.001Z</time></trkpt><trkpt lat="31.049688613536095" lon="-4.570528504139058"><ele>766.0</ele><time>2026-03-23T09:59:01.001Z</time></trkpt><trkpt lat="31.04957451376097" lon="-4.570685931326416"><ele>766.0</ele><time>2026-03-23T09:59:02.001Z</time></trkpt><trkpt lat="31.049461300658155" lon="-4.570835487876396"><ele>766.0</ele><time>2026-03-23T09:59:03.001Z</time></trkpt><trkpt lat="31.04935496529503" lon="-4.570970846785771"><ele>766.0</ele><time>2026-03-23T09:59:04.001Z</time></trkpt><trkpt lat="31.04923941966925" lon="-4.571117383055246"><ele>766.0</ele><time>2026-03-23T09:59:05.001Z</time></trkpt><trkpt lat="31.049132822278068" lon="-4.571274685528306"><ele>766.0</ele><time>2026-03-23T09:59:06.001Z</time></trkpt><trkpt lat="31.04902208793974" lon="-4.57142455990199"><ele>766.0</ele><time>2026-03-23T09:59:07.001Z</time></trkpt><trkpt lat="31.048905048008645" lon="-4.5715783872281355"><ele>766.0</ele><time>2026-03-23T09:59:08.001Z</time></trkpt><trkpt lat="31.04879212055378" lon="-4.571736886849285"><ele>766.0</ele><time>2026-03-23T09:59:09.001Z</time></trkpt><trkpt lat="31.048676813861544" lon="-4.571896616742248"><ele>766.0</ele><time>2026-03-23T09:59:10.001Z</time></trkpt><trkpt lat="31.048547965950846" lon="-4.572070783356564"><ele>766.0</ele><time>2026-03-23T09:59:11.001Z</time></trkpt><trkpt lat="31.04840525188442" lon="-4.5722682180736465"><ele>766.0</ele><time>2026-03-23T09:59:12.001Z</time></trkpt><trkpt lat="31.048268751476325" lon="-4.572469303291295"><ele>766.0</ele><time>2026-03-23T09:59:13.001Z</time></trkpt><trkpt lat="31.048138351775894" lon="-4.572659633243696"><ele>766.0</ele><time>2026-03-23T09:59:14.001Z</time></trkpt><trkpt lat="31.04800017539213" lon="-4.572824646046343"><ele>766.0</ele><time>2026-03-23T09:59:15.001Z</time></trkpt><trkpt lat="31.04788000237876" lon="-4.5729804028697165"><ele>766.0</ele><time>2026-03-23T09:59:16.001Z</time></trkpt><trkpt lat="31.047783919071364" lon="-4.5731207258128155"><ele>766.0</ele><time>2026-03-23T09:59:17.001Z</time></trkpt><trkpt lat="31.047696444756447" lon="-4.573269321972794"><ele>766.0</ele><time>2026-03-23T09:59:18.001Z</time></trkpt><trkpt lat="31.04761253441417" lon="-4.573422217131848"><ele>766.0</ele><time>2026-03-23T09:59:19.001Z</time></trkpt><trkpt lat="31.04753796780832" lon="-4.573567691066816"><ele>765.75</ele><time>2026-03-23T09:59:20.001Z</time></trkpt><trkpt lat="31.047470402997906" lon="-4.57370766809088"><ele>765.5</ele><time>2026-03-23T09:59:21.001Z</time></trkpt><trkpt lat="31.04740812610463" lon="-4.573839293138765"><ele>765.25</ele><time>2026-03-23T09:59:22.001Z</time></trkpt><trkpt lat="31.047348465041754" lon="-4.5739376747704465"><ele>765.0</ele><time>2026-03-23T09:59:23.001Z</time></trkpt><trkpt lat="31.04729318994575" lon="-4.574012337997361"><ele>765.0</ele><time>2026-03-23T09:59:24.001Z</time></trkpt><trkpt lat="31.047241027735513" lon="-4.574097706329072"><ele>765.0</ele><time>2026-03-23T09:59:25.001Z</time></trkpt><trkpt lat="31.04719055301814" lon="-4.574204620374345"><ele>765.0</ele><time>2026-03-23T09:59:26.001Z</time></trkpt><trkpt lat="31.047134374610202" lon="-4.5743285620206695"><ele>765.0</ele><time>2026-03-23T09:59:27.001Z</time></trkpt><trkpt lat="31.047060100301998" lon="-4.574470915437594"><ele>764.3333333333334</ele><time>2026-03-23T09:59:28.001Z</time></trkpt><trkpt lat="31.04698834823609" lon="-4.574615222346756"><ele>763.6666666666667</ele><time>2026-03-23T09:59:29.001Z</time></trkpt><trkpt lat="31.046912336517366" lon="-4.574776805130698"><ele>763.0</ele><time>2026-03-23T09:59:30.001Z</time></trkpt><trkpt lat="31.04683561639046" lon="-4.574936198602603"><ele>763.0</ele><time>2026-03-23T09:59:31.001Z</time></trkpt><trkpt lat="31.04674870650906" lon="-4.575098301679598"><ele>763.0</ele><time>2026-03-23T09:59:32.001Z</time></trkpt><trkpt lat="31.046660569235335" lon="-4.575265471322561"><ele>763.0</ele><time>2026-03-23T09:59:33.001Z</time></trkpt><trkpt lat="31.04657381504962" lon="-4.575438153868364"><ele>762.6666666666667</ele><time>2026-03-23T09:59:34.001Z</time></trkpt><trkpt lat="31.04648454267706" lon="-4.57560458279478"><ele>762.3333333333334</ele><time>2026-03-23T09:59:35.001Z</time></trkpt><trkpt lat="31.046397068007618" lon="-4.575776585806152"><ele>762.0</ele><time>2026-03-23T09:59:36.001Z</time></trkpt><trkpt lat="31.04631155135001" lon="-4.575954105956203"><ele>762.0</ele><time>2026-03-23T09:59:37.001Z</time></trkpt><trkpt lat="31.04622763074664" lon="-4.5761267537156245"><ele>762.0</ele><time>2026-03-23T09:59:38.001Z</time></trkpt><trkpt lat="31.046139591767805" lon="-4.576294749008959"><ele>762.0</ele><time>2026-03-23T09:59:39.001Z</time></trkpt><trkpt lat="31.04604714238888" lon="-4.576466535996947"><ele>762.0</ele><time>2026-03-23T09:59:40.001Z</time></trkpt><trkpt lat="31.045957039447085" lon="-4.5766386173303095"><ele>762.0</ele><time>2026-03-23T09:59:41.001Z</time></trkpt><trkpt lat="31.045865473415788" lon="-4.576807112724882"><ele>762.0</ele><time>2026-03-23T09:59:42.001Z</time></trkpt><trkpt lat="31.045769533312384" lon="-4.576978584886653"><ele>761.6666666666666</ele><time>2026-03-23T09:59:43.001Z</time></trkpt><trkpt lat="31.045671260690302" lon="-4.577151531296784"><ele>761.3333333333333</ele><time>2026-03-23T09:59:44.001Z</time></trkpt><trkpt lat="31.045577386619488" lon="-4.577329828341429"><ele>761.0</ele><time>2026-03-23T09:59:45.002Z</time></trkpt><trkpt lat="31.0454912812323" lon="-4.57751195497296"><ele>761.0</ele><time>2026-03-23T09:59:46.002Z</time></trkpt><trkpt lat="31.04540395046899" lon="-4.577695181986137"><ele>761.0</ele><time>2026-03-23T09:59:47.002Z</time></trkpt><trkpt lat="31.045306677467025" lon="-4.577873857679185"><ele>761.0</ele><time>2026-03-23T09:59:48.002Z</time></trkpt><trkpt lat="31.045209948718433" lon="-4.578045894957954"><ele>760.3333333333333</ele><time>2026-03-23T09:59:49.002Z</time></trkpt><trkpt lat="31.045111085492014" lon="-4.578226309669493"><ele>759.6666666666666</ele><time>2026-03-23T09:59:50.002Z</time></trkpt><trkpt lat="31.045016780473446" lon="-4.578392691006707"><ele>759.0</ele><time>2026-03-23T09:59:51.002Z</time></trkpt><trkpt lat="31.04492131909614" lon="-4.578562703216301"><ele>758.3333333333334</ele><time>2026-03-23T09:59:52.002Z</time></trkpt><trkpt lat="31.044824281056936" lon="-4.578730523640535"><ele>757.6666666666667</ele><time>2026-03-23T09:59:53.002Z</time></trkpt><trkpt lat="31.04473245312393" lon="-4.578904166137622"><ele>757.0</ele><time>2026-03-23T09:59:54.002Z</time></trkpt><trkpt lat="31.044634633225023" lon="-4.579076951213923"><ele>757.0</ele><time>2026-03-23T09:59:55.002Z</time></trkpt><trkpt lat="31.044536634802654" lon="-4.579248026125284"><ele>757.0</ele><time>2026-03-23T09:59:56.002Z</time></trkpt><trkpt lat="31.044442228332745" lon="-4.579411449139714"><ele>757.0</ele><time>2026-03-23T09:59:57.002Z</time></trkpt><trkpt lat="31.044363924437317" lon="-4.5795746746804715"><ele>756.75</ele><time>2026-03-23T09:59:58.002Z</time></trkpt><trkpt lat="31.044301160887482" lon="-4.579717275143734"><ele>756.5</ele><time>2026-03-23T09:59:59.002Z</time></trkpt><trkpt lat="31.044240295808002" lon="-4.579842741643398"><ele>756.25</ele><time>2026-03-23T10:00:00.002Z</time></trkpt><trkpt lat="31.0441687180151" lon="-4.579958804090719"><ele>756.0</ele><time>2026-03-23T10:00:01.002Z</time></trkpt><trkpt lat="31.04408687070872" lon="-4.5800673339570475"><ele>756.0</ele><time>2026-03-23T10:00:02.002Z</time></trkpt><trkpt lat="31.04400462805778" lon="-4.580168533367119"><ele>756.0</ele><time>2026-03-23T10:00:03.002Z</time></trkpt><trkpt lat="31.043934295146734" lon="-4.580254791605512"><ele>756.0</ele><time>2026-03-23T10:00:04.002Z</time></trkpt><trkpt lat="31.04385393058556" lon="-4.580342095534793"><ele>756.0</ele><time>2026-03-23T10:00:05.002Z</time></trkpt><trkpt lat="31.043773257815953" lon="-4.58044036184363"><ele>756.0</ele><time>2026-03-23T10:00:06.002Z</time></trkpt><trkpt lat="31.04370233196836" lon="-4.580548507177318"><ele>756.0</ele><time>2026-03-23T10:00:07.002Z</time></trkpt><trkpt lat="31.043638332678487" lon="-4.5806659563734735"><ele>756.0</ele><time>2026-03-23T10:00:08.002Z</time></trkpt><trkpt lat="31.043589166779224" lon="-4.580763374103796"><ele>756.0</ele><time>2026-03-23T10:00:09.002Z</time></trkpt><trkpt lat="31.043549972514946" lon="-4.58085822241754"><ele>756.0</ele><time>2026-03-23T10:00:10.002Z</time></trkpt><trkpt lat="31.043507740419685" lon="-4.580969284962211"><ele>756.0</ele><time>2026-03-23T10:00:11.002Z</time></trkpt><trkpt lat="31.043463206099414" lon="-4.581096275988234"><ele>756.25</ele><time>2026-03-23T10:00:12.002Z</time></trkpt><trkpt lat="31.043417462946582" lon="-4.581239603426006"><ele>756.5</ele><time>2026-03-23T10:00:13.002Z</time></trkpt><trkpt lat="31.043375276611055" lon="-4.581394397637484"><ele>756.75</ele><time>2026-03-23T10:00:14.002Z</time></trkpt><trkpt lat="31.043348112722317" lon="-4.581567075272663"><ele>757.0</ele><time>2026-03-23T10:00:15.002Z</time></trkpt><trkpt lat="31.043335790603393" lon="-4.581739039027432"><ele>757.0</ele><time>2026-03-23T10:00:16.002Z</time></trkpt><trkpt lat="31.043310694449648" lon="-4.581916483504674"><ele>757.0</ele><time>2026-03-23T10:00:17.002Z</time></trkpt><trkpt lat="31.043280525443812" lon="-4.58208395136753"><ele>757.0</ele><time>2026-03-23T10:00:18.002Z</time></trkpt><trkpt lat="31.043239913477795" lon="-4.582254954795083"><ele>757.25</ele><time>2026-03-23T10:00:19.002Z</time></trkpt><trkpt lat="31.0431835507114" lon="-4.58241709349549"><ele>757.5</ele><time>2026-03-23T10:00:20.002Z</time></trkpt><trkpt lat="31.04311888615196" lon="-4.5825747316887595"><ele>757.75</ele><time>2026-03-23T10:00:21.002Z</time></trkpt><trkpt lat="31.043038296518226" lon="-4.582721369211065"><ele>758.0</ele><time>2026-03-23T10:00:22.002Z</time></trkpt><trkpt lat="31.042950941505737" lon="-4.582870038775832"><ele>757.0</ele><time>2026-03-23T10:00:23.002Z</time></trkpt><trkpt lat="31.04287481937126" lon="-4.583023258152692"><ele>756.0</ele><time>2026-03-23T10:00:24.002Z</time></trkpt><trkpt lat="31.042799371692922" lon="-4.583189966393094"><ele>755.0</ele><time>2026-03-23T10:00:25.002Z</time></trkpt><trkpt lat="31.042718574017197" lon="-4.58335361263996"><ele>755.0</ele><time>2026-03-23T10:00:26.002Z</time></trkpt><trkpt lat="31.042633196610417" lon="-4.583509346026974"><ele>755.0</ele><time>2026-03-23T10:00:27.002Z</time></trkpt><trkpt lat="31.04254057777517" lon="-4.583659611557371"><ele>755.0</ele><time>2026-03-23T10:00:28.002Z</time></trkpt><trkpt lat="31.042457802955163" lon="-4.583811498417945"><ele>755.0</ele><time>2026-03-23T10:00:29.002Z</time></trkpt><trkpt lat="31.042377248489657" lon="-4.583976446859202"><ele>755.0</ele><time>2026-03-23T10:00:30.002Z</time></trkpt><trkpt lat="31.042290269195398" lon="-4.584143300852767"><ele>755.0</ele><time>2026-03-23T10:00:31.002Z</time></trkpt><trkpt lat="31.04219587693351" lon="-4.584297829933915"><ele>755.0</ele><time>2026-03-23T10:00:32.002Z</time></trkpt><trkpt lat="31.042102599607464" lon="-4.584455227708278"><ele>755.0</ele><time>2026-03-23T10:00:33Z</time></trkpt><trkpt lat="31.042011943547408" lon="-4.584614017239874"><ele>755.0</ele><time>2026-03-23T10:00:34Z</time></trkpt><trkpt lat="31.041925448106078" lon="-4.584762549977115"><ele>754.5</ele><time>2026-03-23T10:00:35.001Z</time></trkpt><trkpt lat="31.04184105592069" lon="-4.5849056231037695"><ele>754.0</ele><time>2026-03-23T10:00:36.001Z</time></trkpt><trkpt lat="31.041765148657525" lon="-4.585053716412985"><ele>753.5</ele><time>2026-03-23T10:00:37Z</time></trkpt><trkpt lat="31.04170122033576" lon="-4.585186061777431"><ele>753.0</ele><time>2026-03-23T10:00:38.001Z</time></trkpt><trkpt lat="31.04163591293123" lon="-4.585312949719248"><ele>755.5</ele><time>2026-03-23T10:00:39Z</time></trkpt><trkpt lat="31.041579041641825" lon="-4.585451249712884"><ele>758.0</ele><time>2026-03-23T10:00:40Z</time></trkpt><trkpt lat="31.04151967976955" lon="-4.585594867900746"><ele>760.5</ele><time>2026-03-23T10:00:41Z</time></trkpt><trkpt lat="31.04145703028312" lon="-4.585736521986673"><ele>763.0</ele><time>2026-03-23T10:00:42Z</time></trkpt><trkpt lat="31.041393328895047" lon="-4.585877973614313"><ele>763.0</ele><time>2026-03-23T10:00:43Z</time></trkpt><trkpt lat="31.041333885763482" lon="-4.586025396402273"><ele>763.0</ele><time>2026-03-23T10:00:44Z</time></trkpt><trkpt lat="31.04126254845142" lon="-4.586173283449502"><ele>763.0</ele><time>2026-03-23T10:00:45Z</time></trkpt><trkpt lat="31.04119491881413" lon="-4.586312697874753"><ele>763.0</ele><time>2026-03-23T10:00:46Z</time></trkpt><trkpt lat="31.041117795824402" lon="-4.586458028321782"><ele>761.0</ele><time>2026-03-23T10:00:47Z</time></trkpt><trkpt lat="31.041036372302884" lon="-4.586601044218163"><ele>759.0</ele><time>2026-03-23T10:00:48Z</time></trkpt><trkpt lat="31.040945197874972" lon="-4.586736802686177"><ele>757.0</ele><time>2026-03-23T10:00:49Z</time></trkpt><trkpt lat="31.040844494940057" lon="-4.586874062600572"><ele>757.0</ele><time>2026-03-23T10:00:50Z</time></trkpt><trkpt lat="31.040749199763916" lon="-4.58701330048737"><ele>757.0</ele><time>2026-03-23T10:00:51Z</time></trkpt><trkpt lat="31.040658856610595" lon="-4.587158404347076"><ele>757.0</ele><time>2026-03-23T10:00:52Z</time></trkpt><trkpt lat="31.040565627092242" lon="-4.5873037005071255"><ele>757.0</ele><time>2026-03-23T10:00:53Z</time></trkpt><trkpt lat="31.040468675045528" lon="-4.587445028860075"><ele>757.0</ele><time>2026-03-23T10:00:54Z</time></trkpt><trkpt lat="31.040364767135927" lon="-4.587596904559472"><ele>757.0</ele><time>2026-03-23T10:00:55Z</time></trkpt><trkpt lat="31.040270143700212" lon="-4.587732871862225"><ele>755.5</ele><time>2026-03-23T10:00:56.001Z</time></trkpt><trkpt lat="31.040177183650567" lon="-4.587844072174847"><ele>754.0</ele><time>2026-03-23T10:00:57.001Z</time></trkpt><trkpt lat="31.04007841827629" lon="-4.5879437574925035"><ele>752.5</ele><time>2026-03-23T10:00:58.001Z</time></trkpt><trkpt lat="31.03997858871571" lon="-4.588015619728226"><ele>751.0</ele><time>2026-03-23T10:00:59.001Z</time></trkpt><trkpt lat="31.03986926329416" lon="-4.588082872406025"><ele>751.0</ele><time>2026-03-23T10:01:00.001Z</time></trkpt><trkpt lat="31.03975510185516" lon="-4.588147400176561"><ele>751.0</ele><time>2026-03-23T10:01:01.001Z</time></trkpt><trkpt lat="31.039643839085194" lon="-4.5882092882213525"><ele>751.0</ele><time>2026-03-23T10:01:02.001Z</time></trkpt><trkpt lat="31.039527071886564" lon="-4.588282344743581"><ele>751.0</ele><time>2026-03-23T10:01:03.001Z</time></trkpt><trkpt lat="31.03940102388008" lon="-4.588353017647591"><ele>751.0</ele><time>2026-03-23T10:01:04.001Z</time></trkpt><trkpt lat="31.03926113412387" lon="-4.588421934189151"><ele>751.0</ele><time>2026-03-23T10:01:05.001Z</time></trkpt><trkpt lat="31.03911418382988" lon="-4.58846510415682"><ele>751.0</ele><time>2026-03-23T10:01:06.001Z</time></trkpt><trkpt lat="31.038973859880922" lon="-4.588520766926848"><ele>751.25</ele><time>2026-03-23T10:01:07.001Z</time></trkpt><trkpt lat="31.03883860040437" lon="-4.588595672314117"><ele>751.5</ele><time>2026-03-23T10:01:08.001Z</time></trkpt><trkpt lat="31.03870710831534" lon="-4.588677583900634"><ele>751.75</ele><time>2026-03-23T10:01:09.001Z</time></trkpt><trkpt lat="31.038575302993937" lon="-4.588754627297248"><ele>752.0</ele><time>2026-03-23T10:01:10.001Z</time></trkpt><trkpt lat="31.038434120015364" lon="-4.58882350557867"><ele>751.75</ele><time>2026-03-23T10:01:11.001Z</time></trkpt><trkpt lat="31.038300076260768" lon="-4.588892737686313"><ele>751.5</ele><time>2026-03-23T10:01:12.001Z</time></trkpt><trkpt lat="31.0381678121108" lon="-4.588957941340655"><ele>751.25</ele><time>2026-03-23T10:01:13.001Z</time></trkpt><trkpt lat="31.03802629692087" lon="-4.589017263132614"><ele>751.0</ele><time>2026-03-23T10:01:14.001Z</time></trkpt><trkpt lat="31.037878923284584" lon="-4.589071937710748"><ele>751.0</ele><time>2026-03-23T10:01:15.001Z</time></trkpt><trkpt lat="31.037737083529162" lon="-4.58912955301048"><ele>751.0</ele><time>2026-03-23T10:01:16.001Z</time></trkpt><trkpt lat="31.037588166645723" lon="-4.589191142555004"><ele>751.0</ele><time>2026-03-23T10:01:17.001Z</time></trkpt><trkpt lat="31.037440151903578" lon="-4.5892598400623354"><ele>750.3333333333334</ele><time>2026-03-23T10:01:18.001Z</time></trkpt><trkpt lat="31.03730862370153" lon="-4.589320082136799"><ele>749.6666666666666</ele><time>2026-03-23T10:01:19.001Z</time></trkpt><trkpt lat="31.037165842267214" lon="-4.589380463294"><ele>749.0</ele><time>2026-03-23T10:01:20.001Z</time></trkpt><trkpt lat="31.037013845056183" lon="-4.589450463902019"><ele>748.6666666666666</ele><time>2026-03-23T10:01:21.001Z</time></trkpt><trkpt lat="31.03686148434272" lon="-4.589522068609647"><ele>748.3333333333334</ele><time>2026-03-23T10:01:22.001Z</time></trkpt><trkpt lat="31.036709466043774" lon="-4.589588683963446"><ele>748.0</ele><time>2026-03-23T10:01:23.001Z</time></trkpt><trkpt lat="31.036570193422403" lon="-4.589652366359734"><ele>748.0</ele><time>2026-03-23T10:01:24.001Z</time></trkpt><trkpt lat="31.036456912203175" lon="-4.5897243730248665"><ele>748.0</ele><time>2026-03-23T10:01:25.001Z</time></trkpt><trkpt lat="31.03636190432628" lon="-4.589824833138316"><ele>748.0</ele><time>2026-03-23T10:01:26.001Z</time></trkpt><trkpt lat="31.036275561749658" lon="-4.589941429897149"><ele>748.0</ele><time>2026-03-23T10:01:27.001Z</time></trkpt><trkpt lat="31.036211182655446" lon="-4.590044453421093"><ele>748.0</ele><time>2026-03-23T10:01:28.001Z</time></trkpt><trkpt lat="31.036138926532868" lon="-4.590143878531795"><ele>748.0</ele><time>2026-03-23T10:01:29.001Z</time></trkpt><trkpt lat="31.036061017092365" lon="-4.590241165537828"><ele>748.0</ele><time>2026-03-23T10:01:30.001Z</time></trkpt><trkpt lat="31.035974528416286" lon="-4.590327949716189"><ele>748.0</ele><time>2026-03-23T10:01:31.001Z</time></trkpt><trkpt lat="31.035873861706104" lon="-4.590407208330194"><ele>747.0</ele><time>2026-03-23T10:01:32.001Z</time></trkpt><trkpt lat="31.03576351763531" lon="-4.590495548570998"><ele>746.0</ele><time>2026-03-23T10:01:33.001Z</time></trkpt><trkpt lat="31.035650540752847" lon="-4.5905751769475165"><ele>745.0</ele><time>2026-03-23T10:01:34.001Z</time></trkpt><trkpt lat="31.035534155257025" lon="-4.590665218005099"><ele>744.0</ele><time>2026-03-23T10:01:35.001Z</time></trkpt><trkpt lat="31.035416796999726" lon="-4.5907642085736216"><ele>744.0</ele><time>2026-03-23T10:01:36.001Z</time></trkpt><trkpt lat="31.035302066869917" lon="-4.5908810940721665"><ele>744.0</ele><time>2026-03-23T10:01:37.001Z</time></trkpt><trkpt lat="31.035182306368615" lon="-4.59099823933675"><ele>744.0</ele><time>2026-03-23T10:01:38.001Z</time></trkpt><trkpt lat="31.035060235855113" lon="-4.591103643546588"><ele>743.3333333333334</ele><time>2026-03-23T10:01:39.001Z</time></trkpt><trkpt lat="31.034926622567074" lon="-4.591220729714482"><ele>742.6666666666667</ele><time>2026-03-23T10:01:40.001Z</time></trkpt><trkpt lat="31.03478829113592" lon="-4.591313952242818"><ele>742.0</ele><time>2026-03-23T10:01:41.001Z</time></trkpt><trkpt lat="31.03465509339744" lon="-4.5913989116701694"><ele>742.0</ele><time>2026-03-23T10:01:42.001Z</time></trkpt><trkpt lat="31.034520111453883" lon="-4.5914884340252105"><ele>742.0</ele><time>2026-03-23T10:01:43.001Z</time></trkpt><trkpt lat="31.034392119144275" lon="-4.591581997540566"><ele>742.0</ele><time>2026-03-23T10:01:44.001Z</time></trkpt><trkpt lat="31.034262230273768" lon="-4.591666050955069"><ele>742.0</ele><time>2026-03-23T10:01:45.001Z</time></trkpt><trkpt lat="31.034135453634715" lon="-4.591739736349016"><ele>742.0</ele><time>2026-03-23T10:01:46.001Z</time></trkpt><trkpt lat="31.034005306382305" lon="-4.5918083763215245"><ele>742.0</ele><time>2026-03-23T10:01:47.001Z</time></trkpt><trkpt lat="31.033883980942228" lon="-4.591885990008966"><ele>742.0</ele><time>2026-03-23T10:01:48.001Z</time></trkpt><trkpt lat="31.03375386769404" lon="-4.591961981421482"><ele>741.0</ele><time>2026-03-23T10:01:49.001Z</time></trkpt><trkpt lat="31.03362235168378" lon="-4.5920431201107"><ele>740.0</ele><time>2026-03-23T10:01:50.001Z</time></trkpt><trkpt lat="31.033488245747904" lon="-4.592121132676483"><ele>739.0</ele><time>2026-03-23T10:01:51.001Z</time></trkpt><trkpt lat="31.033346522140633" lon="-4.592185416791274"><ele>739.3333333333334</ele><time>2026-03-23T10:01:52.001Z</time></trkpt><trkpt lat="31.033192991495945" lon="-4.592243348509301"><ele>739.6666666666666</ele><time>2026-03-23T10:01:53.001Z</time></trkpt><trkpt lat="31.033040067592353" lon="-4.5922958968937"><ele>740.0</ele><time>2026-03-23T10:01:54.001Z</time></trkpt><trkpt lat="31.032890614070055" lon="-4.592356273206251"><ele>740.0</ele><time>2026-03-23T10:01:55.001Z</time></trkpt><trkpt lat="31.03272769437737" lon="-4.59241957244963"><ele>740.0</ele><time>2026-03-23T10:01:56.002Z</time></trkpt><trkpt lat="31.032570148345474" lon="-4.592483686667794"><ele>740.0</ele><time>2026-03-23T10:01:57.002Z</time></trkpt><trkpt lat="31.03241356246954" lon="-4.592550437393529"><ele>739.6666666666666</ele><time>2026-03-23T10:01:58.002Z</time></trkpt><trkpt lat="31.03226498246241" lon="-4.592629447875625"><ele>739.3333333333334</ele><time>2026-03-23T10:01:59.002Z</time></trkpt><trkpt lat="31.03212402728485" lon="-4.5927091038026475"><ele>739.0</ele><time>2026-03-23T10:02:00.002Z</time></trkpt><trkpt lat="31.03198222561098" lon="-4.592798847780188"><ele>740.0</ele><time>2026-03-23T10:02:01.002Z</time></trkpt><trkpt lat="31.031844794496063" lon="-4.592907411190889"><ele>741.0</ele><time>2026-03-23T10:02:02.002Z</time></trkpt><trkpt lat="31.031684205206826" lon="-4.5930044261242235"><ele>742.0</ele><time>2026-03-23T10:02:03.002Z</time></trkpt><trkpt lat="31.03153392601297" lon="-4.593088091090103"><ele>742.0</ele><time>2026-03-23T10:02:04.002Z</time></trkpt><trkpt lat="31.031389793485335" lon="-4.593164969211254"><ele>742.0</ele><time>2026-03-23T10:02:05.002Z</time></trkpt><trkpt lat="31.031252263471238" lon="-4.593234242753523"><ele>742.0</ele><time>2026-03-23T10:02:06.002Z</time></trkpt><trkpt lat="31.031125281409764" lon="-4.593302012738889"><ele>742.0</ele><time>2026-03-23T10:02:07.002Z</time></trkpt><trkpt lat="31.03099963643065" lon="-4.5933688009169265"><ele>742.0</ele><time>2026-03-23T10:02:08.002Z</time></trkpt><trkpt lat="31.030864055618128" lon="-4.59344204188867"><ele>742.0</ele><time>2026-03-23T10:02:09.002Z</time></trkpt><trkpt lat="31.030715494696377" lon="-4.5935248318326005"><ele>742.0</ele><time>2026-03-23T10:02:10.002Z</time></trkpt><trkpt lat="31.030555292348797" lon="-4.593607549830505"><ele>741.6666666666667</ele><time>2026-03-23T10:02:11.002Z</time></trkpt><trkpt lat="31.030384744754127" lon="-4.593695848431863"><ele>741.3333333333334</ele><time>2026-03-23T10:02:12.002Z</time></trkpt><trkpt lat="31.030233483116703" lon="-4.593775112277296"><ele>741.0</ele><time>2026-03-23T10:02:13.002Z</time></trkpt><trkpt lat="31.030087398752805" lon="-4.593843552785644"><ele>739.6666666666666</ele><time>2026-03-23T10:02:14.002Z</time></trkpt><trkpt lat="31.02993988207775" lon="-4.593908500709841"><ele>738.3333333333333</ele><time>2026-03-23T10:02:15.002Z</time></trkpt><trkpt lat="31.029799091084545" lon="-4.593973076559688"><ele>737.0</ele><time>2026-03-23T10:02:16.002Z</time></trkpt><trkpt lat="31.029664388870344" lon="-4.594045304097084"><ele>737.0</ele><time>2026-03-23T10:02:17.002Z</time></trkpt><trkpt lat="31.029534437057688" lon="-4.594117005247261"><ele>737.0</ele><time>2026-03-23T10:02:18.002Z</time></trkpt><trkpt lat="31.029418338947295" lon="-4.5941995583744015"><ele>737.0</ele><time>2026-03-23T10:02:19.002Z</time></trkpt><trkpt lat="31.029300660673382" lon="-4.594287290762243"><ele>737.0</ele><time>2026-03-23T10:02:20.002Z</time></trkpt><trkpt lat="31.029201947586664" lon="-4.594366567040264"><ele>737.0</ele><time>2026-03-23T10:02:21.002Z</time></trkpt><trkpt lat="31.029099984335936" lon="-4.594443576803806"><ele>737.0</ele><time>2026-03-23T10:02:22.002Z</time></trkpt><trkpt lat="31.02900497983314" lon="-4.594518330975868"><ele>737.0</ele><time>2026-03-23T10:02:23.002Z</time></trkpt><trkpt lat="31.028910416190318" lon="-4.594588150145145"><ele>737.0</ele><time>2026-03-23T10:02:24.002Z</time></trkpt><trkpt lat="31.028818440586832" lon="-4.5946635241007305"><ele>737.0</ele><time>2026-03-23T10:02:25.002Z</time></trkpt><trkpt lat="31.02873405919657" lon="-4.594736247559711"><ele>737.0</ele><time>2026-03-23T10:02:26.002Z</time></trkpt><trkpt lat="31.02864713278965" lon="-4.59481492036229"><ele>737.0</ele><time>2026-03-23T10:02:27.002Z</time></trkpt><trkpt lat="31.028545453986638" lon="-4.594904362256275"><ele>737.0</ele><time>2026-03-23T10:02:28.002Z</time></trkpt><trkpt lat="31.02843956349112" lon="-4.594994450438558"><ele>737.0</ele><time>2026-03-23T10:02:29.002Z</time></trkpt><trkpt lat="31.028333475730495" lon="-4.595086970839958"><ele>737.0</ele><time>2026-03-23T10:02:30.002Z</time></trkpt><trkpt lat="31.028229339011187" lon="-4.59519472645558"><ele>737.0</ele><time>2026-03-23T10:02:31.002Z</time></trkpt><trkpt lat="31.028139766639256" lon="-4.595310076899964"><ele>737.0</ele><time>2026-03-23T10:02:32.002Z</time></trkpt><trkpt lat="31.0280557239179" lon="-4.59543877581681"><ele>737.25</ele><time>2026-03-23T10:02:33.002Z</time></trkpt><trkpt lat="31.027988219195134" lon="-4.5955528222032775"><ele>737.5</ele><time>2026-03-23T10:02:34.002Z</time></trkpt><trkpt lat="31.027920470761696" lon="-4.595659459941191"><ele>737.75</ele><time>2026-03-23T10:02:35.002Z</time></trkpt><trkpt lat="31.02785534708565" lon="-4.595765163468941"><ele>738.0</ele><time>2026-03-23T10:02:36.002Z</time></trkpt><trkpt lat="31.027792579803172" lon="-4.595880274605287"><ele>738.0</ele><time>2026-03-23T10:02:37.002Z</time></trkpt><trkpt lat="31.027734822109952" lon="-4.595995541202263"><ele>738.0</ele><time>2026-03-23T10:02:38.002Z</time></trkpt><trkpt lat="31.027677529996605" lon="-4.596108299627809"><ele>738.0</ele><time>2026-03-23T10:02:39Z</time></trkpt><trkpt lat="31.02761603431754" lon="-4.596226593617453"><ele>738.0</ele><time>2026-03-23T10:02:40Z</time></trkpt><trkpt lat="31.027553333051145" lon="-4.596346168272231"><ele>737.5</ele><time>2026-03-23T10:02:41Z</time></trkpt><trkpt lat="31.027492661047233" lon="-4.596461301231715"><ele>737.0</ele><time>2026-03-23T10:02:42Z</time></trkpt><trkpt lat="31.027428277062537" lon="-4.596576864835263"><ele>736.5</ele><time>2026-03-23T10:02:43Z</time></trkpt><trkpt lat="31.027372338268403" lon="-4.596701511930016"><ele>736.0</ele><time>2026-03-23T10:02:44Z</time></trkpt><trkpt lat="31.027317552669928" lon="-4.596842602602802"><ele>736.0</ele><time>2026-03-23T10:02:45Z</time></trkpt><trkpt lat="31.027259545214932" lon="-4.596990612982824"><ele>736.0</ele><time>2026-03-23T10:02:46Z</time></trkpt><trkpt lat="31.02720350867718" lon="-4.597155462853903"><ele>736.0</ele><time>2026-03-23T10:02:47Z</time></trkpt><trkpt lat="31.027147715183172" lon="-4.5973011213506965"><ele>736.0</ele><time>2026-03-23T10:02:48Z</time></trkpt><trkpt lat="31.027087715914696" lon="-4.597435410211318"><ele>735.75</ele><time>2026-03-23T10:02:49Z</time></trkpt><trkpt lat="31.027025266132775" lon="-4.5975592399543395"><ele>735.5</ele><time>2026-03-23T10:02:50Z</time></trkpt><trkpt lat="31.026972453586897" lon="-4.597679644590578"><ele>735.25</ele><time>2026-03-23T10:02:51Z</time></trkpt><trkpt lat="31.026912072926788" lon="-4.597818940846889"><ele>735.0</ele><time>2026-03-23T10:02:52Z</time></trkpt><trkpt lat="31.026843655480256" lon="-4.5979617665729275"><ele>735.0</ele><time>2026-03-23T10:02:53Z</time></trkpt><trkpt lat="31.026781368988075" lon="-4.598098524197748"><ele>735.0</ele><time>2026-03-23T10:02:54Z</time></trkpt><trkpt lat="31.026719966959472" lon="-4.598238471106673"><ele>735.0</ele><time>2026-03-23T10:02:55Z</time></trkpt><trkpt lat="31.026655805073045" lon="-4.598371381483396"><ele>735.0</ele><time>2026-03-23T10:02:56Z</time></trkpt><trkpt lat="31.02658413667324" lon="-4.598504391352426"><ele>735.5</ele><time>2026-03-23T10:02:57Z</time></trkpt><trkpt lat="31.026505723703643" lon="-4.598652647938105"><ele>736.0</ele><time>2026-03-23T10:02:58Z</time></trkpt><trkpt lat="31.02643280737242" lon="-4.598803377236483"><ele>736.5</ele><time>2026-03-23T10:02:59Z</time></trkpt><trkpt lat="31.026366538794417" lon="-4.59893983102611"><ele>737.0</ele><time>2026-03-23T10:03:00Z</time></trkpt><trkpt lat="31.026317471822527" lon="-4.599055881281653"><ele>737.2</ele><time>2026-03-23T10:03:01Z</time></trkpt><trkpt lat="31.02628289371398" lon="-4.599160496115777"><ele>737.4000000000001</ele><time>2026-03-23T10:03:02Z</time></trkpt><trkpt lat="31.026244500466003" lon="-4.599261448437717"><ele>737.5999999999999</ele><time>2026-03-23T10:03:03Z</time></trkpt><trkpt lat="31.026205452443595" lon="-4.5993648178467765"><ele>737.8</ele><time>2026-03-23T10:03:04Z</time></trkpt><trkpt lat="31.026175035475177" lon="-4.599480370468893"><ele>738.0</ele><time>2026-03-23T10:03:05Z</time></trkpt><trkpt lat="31.026139847110777" lon="-4.599605917155874"><ele>737.25</ele><time>2026-03-23T10:03:06Z</time></trkpt><trkpt lat="31.026096901334565" lon="-4.599748464112267"><ele>736.5</ele><time>2026-03-23T10:03:07Z</time></trkpt><trkpt lat="31.02604695931346" lon="-4.599892196748971"><ele>735.75</ele><time>2026-03-23T10:03:08Z</time></trkpt><trkpt lat="31.025988166476374" lon="-4.6000450540801605"><ele>735.0</ele><time>2026-03-23T10:03:09Z</time></trkpt><trkpt lat="31.025930672050695" lon="-4.600202242153635"><ele>735.2</ele><time>2026-03-23T10:03:10Z</time></trkpt><trkpt lat="31.02587777629314" lon="-4.600343065792155"><ele>735.4</ele><time>2026-03-23T10:03:11Z</time></trkpt><trkpt lat="31.025828722898694" lon="-4.600462059006104"><ele>735.5999999999999</ele><time>2026-03-23T10:03:12Z</time></trkpt><trkpt lat="31.02577879029374" lon="-4.600567814959596"><ele>735.8</ele><time>2026-03-23T10:03:13Z</time></trkpt><trkpt lat="31.025735821941563" lon="-4.600660275607634"><ele>736.0</ele><time>2026-03-23T10:03:14Z</time></trkpt><trkpt lat="31.02570589197516" lon="-4.600738382576466"><ele>736.5</ele><time>2026-03-23T10:03:15Z</time></trkpt><trkpt lat="31.025653804543307" lon="-4.600839408374502"><ele>737.0</ele><time>2026-03-23T10:03:17Z</time></trkpt><trkpt lat="31.02557344768581" lon="-4.600938872758002"><ele>737.5</ele><time>2026-03-23T10:03:19Z</time></trkpt><trkpt lat="31.025513904974574" lon="-4.60105706124191"><ele>738.0</ele><time>2026-03-23T10:03:21.001Z</time></trkpt><trkpt lat="31.025424976964036" lon="-4.601152035423173"><ele>737.5</ele><time>2026-03-23T10:03:23.001Z</time></trkpt><trkpt lat="31.025364958551926" lon="-4.601185164996479"><ele>737.0</ele><time>2026-03-23T10:03:24.001Z</time></trkpt><trkpt lat="31.025297063365276" lon="-4.601242027838695"><ele>736.5</ele><time>2026-03-23T10:03:25.001Z</time></trkpt><trkpt lat="31.02522743979474" lon="-4.6013147422954415"><ele>736.0</ele><time>2026-03-23T10:03:26.001Z</time></trkpt><trkpt lat="31.02515690617836" lon="-4.601397972140762"><ele>735.5</ele><time>2026-03-23T10:03:27.001Z</time></trkpt><trkpt lat="31.02508960584987" lon="-4.6014826984760555"><ele>735.0</ele><time>2026-03-23T10:03:28.001Z</time></trkpt><trkpt lat="31.025020895561372" lon="-4.601569458361362"><ele>735.75</ele><time>2026-03-23T10:03:29.001Z</time></trkpt><trkpt lat="31.02495641962416" lon="-4.60167176245569"><ele>736.5</ele><time>2026-03-23T10:03:30.001Z</time></trkpt><trkpt lat="31.02488509469812" lon="-4.601799329736746"><ele>737.25</ele><time>2026-03-23T10:03:31.001Z</time></trkpt><trkpt lat="31.024815071601967" lon="-4.60194213127572"><ele>738.0</ele><time>2026-03-23T10:03:32.001Z</time></trkpt><trkpt lat="31.02474116958421" lon="-4.602100732871054"><ele>738.0</ele><time>2026-03-23T10:03:33.001Z</time></trkpt><trkpt lat="31.024651844406527" lon="-4.602265704852494"><ele>738.0</ele><time>2026-03-23T10:03:34.001Z</time></trkpt><trkpt lat="31.02455903222658" lon="-4.602433684280589"><ele>738.0</ele><time>2026-03-23T10:03:35.001Z</time></trkpt><trkpt lat="31.024468372797802" lon="-4.602606982061349"><ele>738.0</ele><time>2026-03-23T10:03:36.001Z</time></trkpt><trkpt lat="31.02438555513711" lon="-4.6027717334543095"><ele>738.0</ele><time>2026-03-23T10:03:37.001Z</time></trkpt><trkpt lat="31.024304752227977" lon="-4.602945261236822"><ele>738.0</ele><time>2026-03-23T10:03:38.001Z</time></trkpt><trkpt lat="31.02423323499871" lon="-4.603104573865568"><ele>737.0</ele><time>2026-03-23T10:03:39.001Z</time></trkpt><trkpt lat="31.02416631548565" lon="-4.603255704434731"><ele>736.0</ele><time>2026-03-23T10:03:40.001Z</time></trkpt><trkpt lat="31.024106260705743" lon="-4.60340816634681"><ele>735.0</ele><time>2026-03-23T10:03:41.001Z</time></trkpt><trkpt lat="31.024049075789804" lon="-4.60355427782284"><ele>734.0</ele><time>2026-03-23T10:03:42.001Z</time></trkpt><trkpt lat="31.023990925104428" lon="-4.603699812869413"><ele>732.6666666666666</ele><time>2026-03-23T10:03:43.001Z</time></trkpt><trkpt lat="31.02393130456442" lon="-4.603856668127826"><ele>731.3333333333334</ele><time>2026-03-23T10:03:44.001Z</time></trkpt><trkpt lat="31.023860047298616" lon="-4.604023275428645"><ele>730.0</ele><time>2026-03-23T10:03:45.001Z</time></trkpt><trkpt lat="31.02376854036972" lon="-4.604204938286672"><ele>730.0</ele><time>2026-03-23T10:03:46.001Z</time></trkpt><trkpt lat="31.023673334640804" lon="-4.604390266498791"><ele>730.0</ele><time>2026-03-23T10:03:47.001Z</time></trkpt><trkpt lat="31.023579123844478" lon="-4.604571193249859"><ele>730.0</ele><time>2026-03-23T10:03:48.001Z</time></trkpt><trkpt lat="31.023488357512868" lon="-4.604744926970826"><ele>730.0</ele><time>2026-03-23T10:03:49.001Z</time></trkpt><trkpt lat="31.023402080443947" lon="-4.6049106432649"><ele>730.0</ele><time>2026-03-23T10:03:50.001Z</time></trkpt><trkpt lat="31.02333908781659" lon="-4.60508930178256"><ele>730.0</ele><time>2026-03-23T10:03:51.001Z</time></trkpt><trkpt lat="31.023272734622577" lon="-4.605280802141206"><ele>730.3333333333334</ele><time>2026-03-23T10:03:52.001Z</time></trkpt><trkpt lat="31.023206556755216" lon="-4.605485573608046"><ele>730.6666666666666</ele><time>2026-03-23T10:03:53.001Z</time></trkpt><trkpt lat="31.02315267829398" lon="-4.60568323187789"><ele>731.0</ele><time>2026-03-23T10:03:54.001Z</time></trkpt><trkpt lat="31.023106089782214" lon="-4.605888704489194"><ele>731.0</ele><time>2026-03-23T10:03:55.001Z</time></trkpt><trkpt lat="31.023071113425512" lon="-4.606076445992926"><ele>731.0</ele><time>2026-03-23T10:03:56.001Z</time></trkpt><trkpt lat="31.02303097757093" lon="-4.606251409059668"><ele>731.0</ele><time>2026-03-23T10:03:57.001Z</time></trkpt><trkpt lat="31.022996024598296" lon="-4.606436560605491"><ele>730.6666666666666</ele><time>2026-03-23T10:03:58.001Z</time></trkpt><trkpt lat="31.02295969837308" lon="-4.606611731992572"><ele>730.3333333333334</ele><time>2026-03-23T10:03:59.001Z</time></trkpt><trkpt lat="31.02291444453512" lon="-4.6067852537668585"><ele>730.0</ele><time>2026-03-23T10:04:00.001Z</time></trkpt><trkpt lat="31.022883552492296" lon="-4.606962284959456"><ele>729.25</ele><time>2026-03-23T10:04:01.001Z</time></trkpt><trkpt lat="31.022844862251418" lon="-4.60712762396715"><ele>728.5</ele><time>2026-03-23T10:04:02.001Z</time></trkpt><trkpt lat="31.022800559509548" lon="-4.60728887301667"><ele>727.75</ele><time>2026-03-23T10:04:03.001Z</time></trkpt><trkpt lat="31.022754109375356" lon="-4.607453187495637"><ele>727.0</ele><time>2026-03-23T10:04:04.001Z</time></trkpt><trkpt lat="31.02270216434079" lon="-4.607604110261961"><ele>727.0</ele><time>2026-03-23T10:04:05.001Z</time></trkpt><trkpt lat="31.02265245089007" lon="-4.607742420111044"><ele>727.0</ele><time>2026-03-23T10:04:06.001Z</time></trkpt><trkpt lat="31.022599252866637" lon="-4.607862101628021"><ele>727.0</ele><time>2026-03-23T10:04:07.001Z</time></trkpt><trkpt lat="31.022546427803835" lon="-4.6079758273660145"><ele>727.0</ele><time>2026-03-23T10:04:08.001Z</time></trkpt><trkpt lat="31.022493065964476" lon="-4.608083512334497"><ele>727.5</ele><time>2026-03-23T10:04:09.001Z</time></trkpt><trkpt lat="31.02243140501156" lon="-4.608193756356949"><ele>728.0</ele><time>2026-03-23T10:04:10.001Z</time></trkpt><trkpt lat="31.022367292352286" lon="-4.608310029036841"><ele>728.5</ele><time>2026-03-23T10:04:11.001Z</time></trkpt><trkpt lat="31.022299416246803" lon="-4.608433157190497"><ele>729.0</ele><time>2026-03-23T10:04:12.001Z</time></trkpt><trkpt lat="31.022229340574064" lon="-4.608556980708199"><ele>728.6</ele><time>2026-03-23T10:04:13.001Z</time></trkpt><trkpt lat="31.022163344157892" lon="-4.60867654724453"><ele>728.2</ele><time>2026-03-23T10:04:14.001Z</time></trkpt><trkpt lat="31.02209687473041" lon="-4.6087912138002745"><ele>727.8000000000001</ele><time>2026-03-23T10:04:15.001Z</time></trkpt><trkpt lat="31.022045025438075" lon="-4.608884929518666"><ele>727.4000000000001</ele><time>2026-03-23T10:04:16.001Z</time></trkpt><trkpt lat="31.021996424053874" lon="-4.608988495805707"><ele>727.0</ele><time>2026-03-23T10:04:17.001Z</time></trkpt><trkpt lat="31.02193880326649" lon="-4.609111408098964"><ele>727.0</ele><time>2026-03-23T10:04:18.002Z</time></trkpt><trkpt lat="31.02189225621381" lon="-4.6092376345036055"><ele>727.0</ele><time>2026-03-23T10:04:19.002Z</time></trkpt><trkpt lat="31.02184748064457" lon="-4.609357200575935"><ele>727.0</ele><time>2026-03-23T10:04:20.002Z</time></trkpt><trkpt lat="31.02180096653858" lon="-4.609484604353896"><ele>727.0</ele><time>2026-03-23T10:04:21.002Z</time></trkpt><trkpt lat="31.021748304920433" lon="-4.609602825650443"><ele>726.75</ele><time>2026-03-23T10:04:22.002Z</time></trkpt><trkpt lat="31.02169829255962" lon="-4.609725170066812"><ele>726.5</ele><time>2026-03-23T10:04:23.002Z</time></trkpt><trkpt lat="31.021650044855065" lon="-4.609859543342002"><ele>726.25</ele><time>2026-03-23T10:04:24.002Z</time></trkpt><trkpt lat="31.021608723005727" lon="-4.609989277273865"><ele>726.0</ele><time>2026-03-23T10:04:25.002Z</time></trkpt><trkpt lat="31.021570094599788" lon="-4.610110725769672"><ele>726.0</ele><time>2026-03-23T10:04:26.002Z</time></trkpt><trkpt lat="31.02153808574519" lon="-4.610222778158226"><ele>726.0</ele><time>2026-03-23T10:04:27.002Z</time></trkpt><trkpt lat="31.02149707884045" lon="-4.610338561416047"><ele>726.0</ele><time>2026-03-23T10:04:28.002Z</time></trkpt><trkpt lat="31.021447357837378" lon="-4.610452529361826"><ele>726.0</ele><time>2026-03-23T10:04:29.002Z</time></trkpt><trkpt lat="31.021390015614028" lon="-4.610560547665721"><ele>726.0</ele><time>2026-03-23T10:04:30.002Z</time></trkpt><trkpt lat="31.02133211474702" lon="-4.6106729349574485"><ele>725.8333333333334</ele><time>2026-03-23T10:04:31.002Z</time></trkpt><trkpt lat="31.02128329264074" lon="-4.6107681410219925"><ele>725.6666666666666</ele><time>2026-03-23T10:04:32.002Z</time></trkpt><trkpt lat="31.021246839753267" lon="-4.610841040822236"><ele>725.5</ele><time>2026-03-23T10:04:33.002Z</time></trkpt><trkpt lat="31.021222058598205" lon="-4.610940362411929"><ele>725.3333333333333</ele><time>2026-03-23T10:04:35.002Z</time></trkpt><trkpt lat="31.021198819169804" lon="-4.611031787828834"><ele>725.1666666666666</ele><time>2026-03-23T10:04:37.002Z</time></trkpt><trkpt lat="31.021144585648567" lon="-4.611114427278207"><ele>725.0</ele><time>2026-03-23T10:04:46Z</time></trkpt><trkpt lat="31.02110289675575" lon="-4.611236262363222"><ele>724.8</ele><time>2026-03-23T10:04:48Z</time></trkpt><trkpt lat="31.021064871912046" lon="-4.611322489005853"><ele>724.6</ele><time>2026-03-23T10:04:49Z</time></trkpt><trkpt lat="31.021012535253384" lon="-4.611425668328953"><ele>724.4000000000001</ele><time>2026-03-23T10:04:50Z</time></trkpt><trkpt lat="31.020959606408134" lon="-4.611542384833243"><ele>724.2</ele><time>2026-03-23T10:04:51Z</time></trkpt><trkpt lat="31.020904977879542" lon="-4.611668850531762"><ele>724.0</ele><time>2026-03-23T10:04:52Z</time></trkpt><trkpt lat="31.020847591956397" lon="-4.611800651971847"><ele>724.5</ele><time>2026-03-23T10:04:53Z</time></trkpt><trkpt lat="31.02078144046209" lon="-4.611938259425031"><ele>725.0</ele><time>2026-03-23T10:04:54Z</time></trkpt><trkpt lat="31.020710842176232" lon="-4.612067005435579"><ele>725.5</ele><time>2026-03-23T10:04:55Z</time></trkpt><trkpt lat="31.020633127237055" lon="-4.61219800118591"><ele>726.0</ele><time>2026-03-23T10:04:56Z</time></trkpt><trkpt lat="31.020564866812865" lon="-4.612321538843218"><ele>726.0</ele><time>2026-03-23T10:04:57Z</time></trkpt><trkpt lat="31.020496128604226" lon="-4.61244289213143"><ele>726.0</ele><time>2026-03-23T10:04:58Z</time></trkpt><trkpt lat="31.02042414576221" lon="-4.612563287847456"><ele>726.0</ele><time>2026-03-23T10:04:59Z</time></trkpt><trkpt lat="31.020348991321" lon="-4.612683704864125"><ele>726.0</ele><time>2026-03-23T10:05:00Z</time></trkpt><trkpt lat="31.020278951593486" lon="-4.612802899935787"><ele>726.0</ele><time>2026-03-23T10:05:01Z</time></trkpt><trkpt lat="31.020216677315403" lon="-4.6129301048481155"><ele>726.0</ele><time>2026-03-23T10:05:02Z</time></trkpt><trkpt lat="31.020155109057214" lon="-4.613061581071741"><ele>726.0</ele><time>2026-03-23T10:05:03Z</time></trkpt><trkpt lat="31.020091041773217" lon="-4.613190421259462"><ele>726.0</ele><time>2026-03-23T10:05:04Z</time></trkpt><trkpt lat="31.02003210991567" lon="-4.61332745468751"><ele>725.5</ele><time>2026-03-23T10:05:05Z</time></trkpt><trkpt lat="31.019970063849527" lon="-4.613464099595252"><ele>725.0</ele><time>2026-03-23T10:05:06Z</time></trkpt><trkpt lat="31.019919148172338" lon="-4.613596597247645"><ele>724.5</ele><time>2026-03-23T10:05:07Z</time></trkpt><trkpt lat="31.019859143374042" lon="-4.613731121861766"><ele>724.0</ele><time>2026-03-23T10:05:08Z</time></trkpt><trkpt lat="31.019794161984603" lon="-4.613858914868502"><ele>723.5</ele><time>2026-03-23T10:05:09Z</time></trkpt><trkpt lat="31.019724464128675" lon="-4.613977325249742"><ele>723.0</ele><time>2026-03-23T10:05:10Z</time></trkpt><trkpt lat="31.019648769120955" lon="-4.6140985296642105"><ele>722.5</ele><time>2026-03-23T10:05:11Z</time></trkpt><trkpt lat="31.01957791698991" lon="-4.614214269870753"><ele>722.0</ele><time>2026-03-23T10:05:12Z</time></trkpt><trkpt lat="31.019505299502136" lon="-4.614340013641612"><ele>722.0</ele><time>2026-03-23T10:05:13Z</time></trkpt><trkpt lat="31.01943440683546" lon="-4.614463690957932"><ele>722.0</ele><time>2026-03-23T10:05:14Z</time></trkpt><trkpt lat="31.01936846280601" lon="-4.614587924496299"><ele>722.0</ele><time>2026-03-23T10:05:15Z</time></trkpt><trkpt lat="31.019299437645138" lon="-4.614716801368828"><ele>722.0</ele><time>2026-03-23T10:05:16Z</time></trkpt><trkpt lat="31.0192356258666" lon="-4.6148433962621755"><ele>722.0</ele><time>2026-03-23T10:05:17Z</time></trkpt><trkpt lat="31.01916738957179" lon="-4.614964187593333"><ele>722.0</ele><time>2026-03-23T10:05:18Z</time></trkpt><trkpt lat="31.01909971786521" lon="-4.615088497095887"><ele>722.0</ele><time>2026-03-23T10:05:19Z</time></trkpt><trkpt lat="31.01903204733475" lon="-4.615215505353154"><ele>722.0</ele><time>2026-03-23T10:05:20Z</time></trkpt><trkpt lat="31.018976539950224" lon="-4.6153517596579094"><ele>722.25</ele><time>2026-03-23T10:05:21Z</time></trkpt><trkpt lat="31.01892075771069" lon="-4.615487486068886"><ele>722.5</ele><time>2026-03-23T10:05:22Z</time></trkpt><trkpt lat="31.018865629911183" lon="-4.61561682648003"><ele>722.75</ele><time>2026-03-23T10:05:23Z</time></trkpt><trkpt lat="31.018814002342623" lon="-4.615737674757886"><ele>723.0</ele><time>2026-03-23T10:05:24Z</time></trkpt><trkpt lat="31.01875993799186" lon="-4.615862302294888"><ele>723.0</ele><time>2026-03-23T10:05:25Z</time></trkpt><trkpt lat="31.018712101500864" lon="-4.615988041640501"><ele>723.0</ele><time>2026-03-23T10:05:26Z</time></trkpt><trkpt lat="31.018663694665882" lon="-4.6161088425551835"><ele>723.0</ele><time>2026-03-23T10:05:27Z</time></trkpt><trkpt lat="31.01862141302015" lon="-4.616233884383922"><ele>723.0</ele><time>2026-03-23T10:05:28Z</time></trkpt><trkpt lat="31.0185863745944" lon="-4.616362105531092"><ele>722.75</ele><time>2026-03-23T10:05:29Z</time></trkpt><trkpt lat="31.018550361067792" lon="-4.616489675894622"><ele>722.5</ele><time>2026-03-23T10:05:30Z</time></trkpt><trkpt lat="31.018512861717696" lon="-4.616614798631324"><ele>722.25</ele><time>2026-03-23T10:05:31.001Z</time></trkpt><trkpt lat="31.01846995779639" lon="-4.616744625819427"><ele>722.0</ele><time>2026-03-23T10:05:32.001Z</time></trkpt><trkpt lat="31.018432477688886" lon="-4.616871872886106"><ele>722.0</ele><time>2026-03-23T10:05:33.001Z</time></trkpt><trkpt lat="31.018393763194712" lon="-4.617002110982308"><ele>722.0</ele><time>2026-03-23T10:05:34.001Z</time></trkpt><trkpt lat="31.018357217325" lon="-4.617145460094378"><ele>722.0</ele><time>2026-03-23T10:05:35.001Z</time></trkpt><trkpt lat="31.018319012766813" lon="-4.6172956410157315"><ele>722.0</ele><time>2026-03-23T10:05:36.001Z</time></trkpt><trkpt lat="31.018283152683203" lon="-4.617435415090951"><ele>721.75</ele><time>2026-03-23T10:05:37.001Z</time></trkpt><trkpt lat="31.018242819798477" lon="-4.617567156527657"><ele>721.5</ele><time>2026-03-23T10:05:38.001Z</time></trkpt><trkpt lat="31.018189500408717" lon="-4.617708555357738"><ele>721.25</ele><time>2026-03-23T10:05:39.001Z</time></trkpt><trkpt lat="31.018137435238536" lon="-4.617856110301347"><ele>721.0</ele><time>2026-03-23T10:05:40.001Z</time></trkpt><trkpt lat="31.01808674205825" lon="-4.618001941689874"><ele>721.0</ele><time>2026-03-23T10:05:41.001Z</time></trkpt><trkpt lat="31.018044871276544" lon="-4.618151034421046"><ele>721.0</ele><time>2026-03-23T10:05:42.001Z</time></trkpt><trkpt lat="31.017997902428547" lon="-4.618297190634492"><ele>721.0</ele><time>2026-03-23T10:05:43.001Z</time></trkpt><trkpt lat="31.01794764031957" lon="-4.618452389752967"><ele>721.0</ele><time>2026-03-23T10:05:44.001Z</time></trkpt><trkpt lat="31.0179025507344" lon="-4.618608102225923"><ele>721.25</ele><time>2026-03-23T10:05:45.001Z</time></trkpt><trkpt lat="31.01785492436079" lon="-4.618761931411241"><ele>721.5</ele><time>2026-03-23T10:05:46.001Z</time></trkpt><trkpt lat="31.01780706579856" lon="-4.618913532964905"><ele>721.75</ele><time>2026-03-23T10:05:47.001Z</time></trkpt><trkpt lat="31.017751392258436" lon="-4.619066910563006"><ele>722.0</ele><time>2026-03-23T10:05:48.001Z</time></trkpt><trkpt lat="31.017695152287196" lon="-4.619223820829319"><ele>722.0</ele><time>2026-03-23T10:05:49.001Z</time></trkpt><trkpt lat="31.017643790077496" lon="-4.619379147507145"><ele>722.0</ele><time>2026-03-23T10:05:50.001Z</time></trkpt><trkpt lat="31.017594332946075" lon="-4.6195421562256165"><ele>722.0</ele><time>2026-03-23T10:05:51.001Z</time></trkpt><trkpt lat="31.017549583351407" lon="-4.619694746468979"><ele>722.0</ele><time>2026-03-23T10:05:52.001Z</time></trkpt><trkpt lat="31.01749804319752" lon="-4.619859182353105"><ele>722.0</ele><time>2026-03-23T10:05:53.001Z</time></trkpt><trkpt lat="31.01744722882788" lon="-4.620021027223819"><ele>722.0</ele><time>2026-03-23T10:05:54.001Z</time></trkpt><trkpt lat="31.017393302039718" lon="-4.620182939604716"><ele>722.0</ele><time>2026-03-23T10:05:55.001Z</time></trkpt><trkpt lat="31.017342320797574" lon="-4.620343828424286"><ele>722.0</ele><time>2026-03-23T10:05:56.001Z</time></trkpt><trkpt lat="31.01728628567076" lon="-4.620507586342712"><ele>722.0</ele><time>2026-03-23T10:05:57.001Z</time></trkpt><trkpt lat="31.01722032335689" lon="-4.620669618027218"><ele>722.0</ele><time>2026-03-23T10:05:58.001Z</time></trkpt><trkpt lat="31.01715339033781" lon="-4.62082626031848"><ele>722.0</ele><time>2026-03-23T10:05:59.001Z</time></trkpt><trkpt lat="31.01708108541006" lon="-4.620986734162979"><ele>722.0</ele><time>2026-03-23T10:06:00.001Z</time></trkpt><trkpt lat="31.01701253924398" lon="-4.621139438502353"><ele>722.0</ele><time>2026-03-23T10:06:01.001Z</time></trkpt><trkpt lat="31.016949292274937" lon="-4.6212964839748905"><ele>722.0</ele><time>2026-03-23T10:06:02.001Z</time></trkpt><trkpt lat="31.016885208210745" lon="-4.62145027532666"><ele>722.0</ele><time>2026-03-23T10:06:03.001Z</time></trkpt><trkpt lat="31.016827876036686" lon="-4.621611561243422"><ele>721.6666666666666</ele><time>2026-03-23T10:06:04.001Z</time></trkpt><trkpt lat="31.016767749667228" lon="-4.621774801377121"><ele>721.3333333333334</ele><time>2026-03-23T10:06:05.001Z</time></trkpt><trkpt lat="31.0167029218683" lon="-4.621947657475555"><ele>721.0</ele><time>2026-03-23T10:06:06.001Z</time></trkpt><trkpt lat="31.016632092800865" lon="-4.622134536854813"><ele>721.0</ele><time>2026-03-23T10:06:07.001Z</time></trkpt><trkpt lat="31.016553875714806" lon="-4.622339342944456"><ele>721.0</ele><time>2026-03-23T10:06:08.001Z</time></trkpt><trkpt lat="31.016464145651376" lon="-4.622563030813253"><ele>721.0</ele><time>2026-03-23T10:06:09.001Z</time></trkpt><trkpt lat="31.016373974257842" lon="-4.622777900836608"><ele>720.6666666666667</ele><time>2026-03-23T10:06:10.001Z</time></trkpt><trkpt lat="31.016290464601894" lon="-4.622976668534893"><ele>720.3333333333334</ele><time>2026-03-23T10:06:11.001Z</time></trkpt><trkpt lat="31.016211629889533" lon="-4.623160056724564"><ele>720.0</ele><time>2026-03-23T10:06:12.001Z</time></trkpt><trkpt lat="31.016145593377896" lon="-4.623322510115471"><ele>720.0</ele><time>2026-03-23T10:06:13.001Z</time></trkpt><trkpt lat="31.016079359711856" lon="-4.6234757117813565"><ele>720.0</ele><time>2026-03-23T10:06:14.001Z</time></trkpt><trkpt lat="31.016026721566774" lon="-4.623611689903784"><ele>720.0</ele><time>2026-03-23T10:06:15.001Z</time></trkpt><trkpt lat="31.015971867490574" lon="-4.623737268945672"><ele>720.0</ele><time>2026-03-23T10:06:16.001Z</time></trkpt><trkpt lat="31.015924766940515" lon="-4.623848432959976"><ele>719.6</ele><time>2026-03-23T10:06:17.001Z</time></trkpt><trkpt lat="31.015886929011096" lon="-4.623950142751199"><ele>719.2</ele><time>2026-03-23T10:06:18.001Z</time></trkpt><trkpt lat="31.015847672483225" lon="-4.624059375081959"><ele>718.8</ele><time>2026-03-23T10:06:19.001Z</time></trkpt><trkpt lat="31.015797095314806" lon="-4.624174120449004"><ele>718.4</ele><time>2026-03-23T10:06:20.001Z</time></trkpt><trkpt lat="31.015740807148145" lon="-4.624289846880671"><ele>718.0</ele><time>2026-03-23T10:06:21.001Z</time></trkpt><trkpt lat="31.015689346696078" lon="-4.6244085354919875"><ele>718.0</ele><time>2026-03-23T10:06:22.001Z</time></trkpt><trkpt lat="31.01563656115962" lon="-4.624539651212774"><ele>718.0</ele><time>2026-03-23T10:06:23.001Z</time></trkpt><trkpt lat="31.015577572126357" lon="-4.6246930181682195"><ele>718.0</ele><time>2026-03-23T10:06:24.002Z</time></trkpt><trkpt lat="31.015516614180537" lon="-4.624856804590874"><ele>718.0</ele><time>2026-03-23T10:06:25.002Z</time></trkpt><trkpt lat="31.015445732683794" lon="-4.625028427309438"><ele>718.0</ele><time>2026-03-23T10:06:26.002Z</time></trkpt><trkpt lat="31.015370863152572" lon="-4.6252069829815605"><ele>718.0</ele><time>2026-03-23T10:06:27.002Z</time></trkpt><trkpt lat="31.015290966966592" lon="-4.625402100220632"><ele>718.0</ele><time>2026-03-23T10:06:28.002Z</time></trkpt><trkpt lat="31.0152197292462" lon="-4.625590752879442"><ele>717.6666666666667</ele><time>2026-03-23T10:06:29.002Z</time></trkpt><trkpt lat="31.0151503425311" lon="-4.6257736741895155"><ele>717.3333333333334</ele><time>2026-03-23T10:06:30.002Z</time></trkpt><trkpt lat="31.01508224663069" lon="-4.6259415780829425"><ele>717.0</ele><time>2026-03-23T10:06:31.002Z</time></trkpt><trkpt lat="31.01501518388929" lon="-4.626096866574607"><ele>717.0</ele><time>2026-03-23T10:06:32.002Z</time></trkpt><trkpt lat="31.01495069984728" lon="-4.6262584824784305"><ele>717.0</ele><time>2026-03-23T10:06:33.002Z</time></trkpt><trkpt lat="31.01489029064779" lon="-4.626412024627046"><ele>717.0</ele><time>2026-03-23T10:06:34.002Z</time></trkpt><trkpt lat="31.01482480608607" lon="-4.626572479146121"><ele>717.0</ele><time>2026-03-23T10:06:35.002Z</time></trkpt><trkpt lat="31.01476428013959" lon="-4.62672153938258"><ele>717.0</ele><time>2026-03-23T10:06:36.002Z</time></trkpt><trkpt lat="31.014701088934007" lon="-4.626875810637305"><ele>717.0</ele><time>2026-03-23T10:06:37.002Z</time></trkpt><trkpt lat="31.014640966894227" lon="-4.627025392653155"><ele>717.0</ele><time>2026-03-23T10:06:38.002Z</time></trkpt><trkpt lat="31.01457943326881" lon="-4.627173439548398"><ele>717.0</ele><time>2026-03-23T10:06:39.002Z</time></trkpt><trkpt lat="31.014529192422923" lon="-4.627303176667672"><ele>717.0</ele><time>2026-03-23T10:06:40.002Z</time></trkpt><trkpt lat="31.014474950349882" lon="-4.6274315092747536"><ele>717.0</ele><time>2026-03-23T10:06:41.002Z</time></trkpt><trkpt lat="31.014411692736015" lon="-4.627572560944966"><ele>717.0</ele><time>2026-03-23T10:06:42.002Z</time></trkpt><trkpt lat="31.014351626831054" lon="-4.6277131926704325"><ele>717.25</ele><time>2026-03-23T10:06:43.002Z</time></trkpt><trkpt lat="31.014283943420214" lon="-4.6278651454218585"><ele>717.5</ele><time>2026-03-23T10:06:44.002Z</time></trkpt><trkpt lat="31.014218080971705" lon="-4.628008616055146"><ele>717.75</ele><time>2026-03-23T10:06:45.002Z</time></trkpt><trkpt lat="31.014152947511732" lon="-4.628153141643952"><ele>718.0</ele><time>2026-03-23T10:06:46.002Z</time></trkpt><trkpt lat="31.014092105428908" lon="-4.628302348737431"><ele>718.25</ele><time>2026-03-23T10:06:47.002Z</time></trkpt><trkpt lat="31.014034798368392" lon="-4.628451794682615"><ele>718.5</ele><time>2026-03-23T10:06:48.002Z</time></trkpt><trkpt lat="31.013979862628997" lon="-4.628598102519078"><ele>718.75</ele><time>2026-03-23T10:06:49.002Z</time></trkpt><trkpt lat="31.013922573455535" lon="-4.628736537335343"><ele>719.0</ele><time>2026-03-23T10:06:50.002Z</time></trkpt><trkpt lat="31.01386548928981" lon="-4.6288749918867085"><ele>718.5</ele><time>2026-03-23T10:06:51Z</time></trkpt><trkpt lat="31.01380957068401" lon="-4.629015152629785"><ele>718.0</ele><time>2026-03-23T10:06:52Z</time></trkpt><trkpt lat="31.013753192768295" lon="-4.6291520357877065"><ele>717.5</ele><time>2026-03-23T10:06:53Z</time></trkpt><trkpt lat="31.01369281830561" lon="-4.629294895215989"><ele>717.0</ele><time>2026-03-23T10:06:54Z</time></trkpt><trkpt lat="31.01363493110765" lon="-4.629437833172715"><ele>716.5</ele><time>2026-03-23T10:06:55Z</time></trkpt><trkpt lat="31.013575951291187" lon="-4.629577148105325"><ele>716.0</ele><time>2026-03-23T10:06:56Z</time></trkpt><trkpt lat="31.013520198163903" lon="-4.629716814272133"><ele>715.5</ele><time>2026-03-23T10:06:57Z</time></trkpt><trkpt lat="31.01346273602127" lon="-4.629860938393436"><ele>715.0</ele><time>2026-03-23T10:06:58Z</time></trkpt><trkpt lat="31.01340227137617" lon="-4.630010830298195"><ele>715.0</ele><time>2026-03-23T10:06:59Z</time></trkpt><trkpt lat="31.013341760254402" lon="-4.630160318221767"><ele>715.0</ele><time>2026-03-23T10:07:00Z</time></trkpt><trkpt lat="31.0132740898346" lon="-4.630307260897832"><ele>715.0</ele><time>2026-03-23T10:07:01Z</time></trkpt><trkpt lat="31.013207915742996" lon="-4.630450710295183"><ele>715.0</ele><time>2026-03-23T10:07:02Z</time></trkpt><trkpt lat="31.013147537703105" lon="-4.630588316000861"><ele>715.0</ele><time>2026-03-23T10:07:03Z</time></trkpt><trkpt lat="31.013085275970052" lon="-4.630731254680616"><ele>715.0</ele><time>2026-03-23T10:07:04Z</time></trkpt><trkpt lat="31.013022597867256" lon="-4.630868681123671"><ele>715.0</ele><time>2026-03-23T10:07:05Z</time></trkpt><trkpt lat="31.012958137779616" lon="-4.6310069299144745"><ele>715.0</ele><time>2026-03-23T10:07:06Z</time></trkpt><trkpt lat="31.012896519350395" lon="-4.631146574698724"><ele>714.5</ele><time>2026-03-23T10:07:07Z</time></trkpt><trkpt lat="31.01283170306771" lon="-4.631301208070405"><ele>714.0</ele><time>2026-03-23T10:07:08Z</time></trkpt><trkpt lat="31.01276188279451" lon="-4.631455004948392"><ele>713.5</ele><time>2026-03-23T10:07:09Z</time></trkpt><trkpt lat="31.012695158195555" lon="-4.631602790526176"><ele>713.0</ele><time>2026-03-23T10:07:10Z</time></trkpt><trkpt lat="31.012631338092437" lon="-4.631749412092642"><ele>713.0</ele><time>2026-03-23T10:07:11Z</time></trkpt><trkpt lat="31.01257336427354" lon="-4.631881256653235"><ele>713.0</ele><time>2026-03-23T10:07:12Z</time></trkpt><trkpt lat="31.012510537824024" lon="-4.632011466556795"><ele>713.0</ele><time>2026-03-23T10:07:13Z</time></trkpt><trkpt lat="31.01244863250409" lon="-4.632142555940646"><ele>713.0</ele><time>2026-03-23T10:07:14Z</time></trkpt><trkpt lat="31.012385376904287" lon="-4.632278414175166"><ele>713.25</ele><time>2026-03-23T10:07:15Z</time></trkpt><trkpt lat="31.012318850208104" lon="-4.632431846169274"><ele>713.5</ele><time>2026-03-23T10:07:16Z</time></trkpt><trkpt lat="31.012257654433167" lon="-4.632582653956"><ele>713.75</ele><time>2026-03-23T10:07:17Z</time></trkpt><trkpt lat="31.01219996331353" lon="-4.632731276197641"><ele>714.0</ele><time>2026-03-23T10:07:18Z</time></trkpt><trkpt lat="31.012138530406855" lon="-4.632882608261246"><ele>714.0</ele><time>2026-03-23T10:07:19Z</time></trkpt><trkpt lat="31.012077547270422" lon="-4.633021521705503"><ele>714.0</ele><time>2026-03-23T10:07:20Z</time></trkpt><trkpt lat="31.012019864904236" lon="-4.633157279415673"><ele>714.0</ele><time>2026-03-23T10:07:21Z</time></trkpt><trkpt lat="31.011971174056193" lon="-4.633283110833425"><ele>714.0</ele><time>2026-03-23T10:07:22Z</time></trkpt><trkpt lat="31.011928067297212" lon="-4.63340053513604"><ele>714.0</ele><time>2026-03-23T10:07:23Z</time></trkpt><trkpt lat="31.011885948877424" lon="-4.633522558323281"><ele>714.0</ele><time>2026-03-23T10:07:24Z</time></trkpt><trkpt lat="31.01183957438874" lon="-4.633647066587018"><ele>714.0</ele><time>2026-03-23T10:07:25Z</time></trkpt><trkpt lat="31.011797022131645" lon="-4.633778839782433"><ele>714.0</ele><time>2026-03-23T10:07:26Z</time></trkpt><trkpt lat="31.011752397013392" lon="-4.633916085442606"><ele>714.0</ele><time>2026-03-23T10:07:27Z</time></trkpt><trkpt lat="31.011711739717388" lon="-4.634062655582453"><ele>714.0</ele><time>2026-03-23T10:07:28Z</time></trkpt><trkpt lat="31.01167067351438" lon="-4.634225552501636"><ele>714.0</ele><time>2026-03-23T10:07:29Z</time></trkpt><trkpt lat="31.011629674513635" lon="-4.634384639884753"><ele>714.0</ele><time>2026-03-23T10:07:30Z</time></trkpt><trkpt lat="31.011585509971567" lon="-4.634546396135517"><ele>714.0</ele><time>2026-03-23T10:07:31Z</time></trkpt><trkpt lat="31.01154698027692" lon="-4.634703323885567"><ele>714.0</ele><time>2026-03-23T10:07:32Z</time></trkpt><trkpt lat="31.01150642249179" lon="-4.634884635816532"><ele>714.0</ele><time>2026-03-23T10:07:33Z</time></trkpt><trkpt lat="31.011462555622387" lon="-4.6350730713588035"><ele>714.0</ele><time>2026-03-23T10:07:34Z</time></trkpt><trkpt lat="31.011418972294436" lon="-4.635254826787706"><ele>714.0</ele><time>2026-03-23T10:07:35Z</time></trkpt><trkpt lat="31.011374766444302" lon="-4.635435954404674"><ele>714.0</ele><time>2026-03-23T10:07:36Z</time></trkpt><trkpt lat="31.011332106634608" lon="-4.635614173642033"><ele>713.6666666666666</ele><time>2026-03-23T10:07:37Z</time></trkpt><trkpt lat="31.011290788121933" lon="-4.635789975689395"><ele>713.3333333333333</ele><time>2026-03-23T10:07:38Z</time></trkpt><trkpt lat="31.011250542754567" lon="-4.6359520119585484"><ele>713.0</ele><time>2026-03-23T10:07:39.001Z</time></trkpt><trkpt lat="31.01121039320648" lon="-4.636124889233652"><ele>712.6666666666666</ele><time>2026-03-23T10:07:40.001Z</time></trkpt><trkpt lat="31.01117133977242" lon="-4.636300047044339"><ele>712.3333333333334</ele><time>2026-03-23T10:07:41.001Z</time></trkpt><trkpt lat="31.011133291258233" lon="-4.6364730686321405"><ele>712.0</ele><time>2026-03-23T10:07:42.001Z</time></trkpt><trkpt lat="31.01109754453344" lon="-4.6366464110096715"><ele>712.0</ele><time>2026-03-23T10:07:43.001Z</time></trkpt><trkpt lat="31.01106060996253" lon="-4.636817903622593"><ele>712.0</ele><time>2026-03-23T10:07:44.001Z</time></trkpt><trkpt lat="31.011026844868663" lon="-4.6369956800074466"><ele>712.0</ele><time>2026-03-23T10:07:45.001Z</time></trkpt><trkpt lat="31.01099578125492" lon="-4.637174862053974"><ele>712.3333333333334</ele><time>2026-03-23T10:07:46.001Z</time></trkpt><trkpt lat="31.010969861576758" lon="-4.637350577512969"><ele>712.6666666666666</ele><time>2026-03-23T10:07:47.001Z</time></trkpt><trkpt lat="31.010942113226275" lon="-4.637532545250052"><ele>713.0</ele><time>2026-03-23T10:07:48.001Z</time></trkpt><trkpt lat="31.010913776366923" lon="-4.637717036771154"><ele>712.6666666666666</ele><time>2026-03-23T10:07:49.001Z</time></trkpt><trkpt lat="31.010890338865025" lon="-4.637909338790836"><ele>712.3333333333334</ele><time>2026-03-23T10:07:50.001Z</time></trkpt><trkpt lat="31.010861829503323" lon="-4.638115849067203"><ele>712.0</ele><time>2026-03-23T10:07:51.001Z</time></trkpt><trkpt lat="31.010837495166093" lon="-4.638321661796166"><ele>711.6666666666667</ele><time>2026-03-23T10:07:52.001Z</time></trkpt><trkpt lat="31.010806958099685" lon="-4.638529784130407"><ele>711.3333333333334</ele><time>2026-03-23T10:07:53.001Z</time></trkpt><trkpt lat="31.01077717742553" lon="-4.638724708557699"><ele>711.0</ele><time>2026-03-23T10:07:54.001Z</time></trkpt><trkpt lat="31.010743481217652" lon="-4.638918364387155"><ele>711.0</ele><time>2026-03-23T10:07:55.001Z</time></trkpt><trkpt lat="31.010712211510928" lon="-4.639110408982159"><ele>711.0</ele><time>2026-03-23T10:07:56.001Z</time></trkpt><trkpt lat="31.010685253812955" lon="-4.63930253609852"><ele>711.0</ele><time>2026-03-23T10:07:57.001Z</time></trkpt><trkpt lat="31.01066440366463" lon="-4.639487905323079"><ele>711.0</ele><time>2026-03-23T10:07:58.001Z</time></trkpt><trkpt lat="31.010641752914804" lon="-4.639665605782685"><ele>711.0</ele><time>2026-03-23T10:07:59.001Z</time></trkpt><trkpt lat="31.010622229484607" lon="-4.639813321494426"><ele>711.0</ele><time>2026-03-23T10:08:00.001Z</time></trkpt><trkpt lat="31.010601900139502" lon="-4.639960207151009"><ele>711.0</ele><time>2026-03-23T10:08:01.001Z</time></trkpt><trkpt lat="31.010579412203015" lon="-4.640111206388178"><ele>711.0</ele><time>2026-03-23T10:08:02.001Z</time></trkpt><trkpt lat="31.010556494374562" lon="-4.640268154444363"><ele>711.0</ele><time>2026-03-23T10:08:03.001Z</time></trkpt><trkpt lat="31.010528855719457" lon="-4.6404405332449885"><ele>711.0</ele><time>2026-03-23T10:08:04.001Z</time></trkpt><trkpt lat="31.010500211110713" lon="-4.640627563599329"><ele>711.0</ele><time>2026-03-23T10:08:05.001Z</time></trkpt><trkpt lat="31.01046830847551" lon="-4.640824164244913"><ele>711.0</ele><time>2026-03-23T10:08:06.001Z</time></trkpt><trkpt lat="31.01043589495627" lon="-4.641016497081293"><ele>711.0</ele><time>2026-03-23T10:08:07.001Z</time></trkpt><trkpt lat="31.010403223822287" lon="-4.641209135994327"><ele>710.0</ele><time>2026-03-23T10:08:08.001Z</time></trkpt><trkpt lat="31.010371259457198" lon="-4.641406713621185"><ele>709.0</ele><time>2026-03-23T10:08:09.001Z</time></trkpt><trkpt lat="31.010338276910407" lon="-4.641600139661393"><ele>708.0</ele><time>2026-03-23T10:08:10.001Z</time></trkpt><trkpt lat="31.010298572111708" lon="-4.641794307023347"><ele>708.0</ele><time>2026-03-23T10:08:11.001Z</time></trkpt><trkpt lat="31.010263633500326" lon="-4.641964882104297"><ele>708.0</ele><time>2026-03-23T10:08:12.001Z</time></trkpt><trkpt lat="31.01022131314496" lon="-4.642127982016532"><ele>708.0</ele><time>2026-03-23T10:08:13.001Z</time></trkpt><trkpt lat="31.010185488099662" lon="-4.642280405560167"><ele>708.0</ele><time>2026-03-23T10:08:14.001Z</time></trkpt><trkpt lat="31.010150602545405" lon="-4.642422574693354"><ele>708.25</ele><time>2026-03-23T10:08:15.001Z</time></trkpt><trkpt lat="31.010116393798324" lon="-4.64256704697086"><ele>708.5</ele><time>2026-03-23T10:08:16.001Z</time></trkpt><trkpt lat="31.010080408493362" lon="-4.642703436487949"><ele>708.75</ele><time>2026-03-23T10:08:17.001Z</time></trkpt><trkpt lat="31.010042742264048" lon="-4.642845489989435"><ele>709.0</ele><time>2026-03-23T10:08:18.001Z</time></trkpt><trkpt lat="31.010012260588883" lon="-4.642984555680156"><ele>709.25</ele><time>2026-03-23T10:08:19.001Z</time></trkpt><trkpt lat="31.009974327977204" lon="-4.643134748890304"><ele>709.5</ele><time>2026-03-23T10:08:20.001Z</time></trkpt><trkpt lat="31.00993596478208" lon="-4.6432921067795245"><ele>709.75</ele><time>2026-03-23T10:08:21.001Z</time></trkpt><trkpt lat="31.00989911150665" lon="-4.643458761518019"><ele>710.0</ele><time>2026-03-23T10:08:22.001Z</time></trkpt><trkpt lat="31.009860874141225" lon="-4.643627818176682"><ele>709.5</ele><time>2026-03-23T10:08:23.001Z</time></trkpt><trkpt lat="31.00982259607818" lon="-4.643793849784613"><ele>709.0</ele><time>2026-03-23T10:08:24.001Z</time></trkpt><trkpt lat="31.009781223665204" lon="-4.6439586892543145"><ele>708.5</ele><time>2026-03-23T10:08:25.001Z</time></trkpt><trkpt lat="31.009736482047206" lon="-4.644121110889344"><ele>708.0</ele><time>2026-03-23T10:08:26.001Z</time></trkpt><trkpt lat="31.009693845164133" lon="-4.644284197011485"><ele>708.0</ele><time>2026-03-23T10:08:27.001Z</time></trkpt><trkpt lat="31.009656803995643" lon="-4.64444697582337"><ele>708.0</ele><time>2026-03-23T10:08:28.001Z</time></trkpt><trkpt lat="31.00961880872445" lon="-4.644614756140059"><ele>708.0</ele><time>2026-03-23T10:08:29.002Z</time></trkpt><trkpt lat="31.00958008614684" lon="-4.644772629890891"><ele>708.0</ele><time>2026-03-23T10:08:30.002Z</time></trkpt><trkpt lat="31.009536043936166" lon="-4.644935200550352"><ele>708.0</ele><time>2026-03-23T10:08:31.002Z</time></trkpt><trkpt lat="31.009486362970424" lon="-4.6451081109567856"><ele>708.0</ele><time>2026-03-23T10:08:32.002Z</time></trkpt><trkpt lat="31.00943134366934" lon="-4.645291829334638"><ele>708.0</ele><time>2026-03-23T10:08:33.002Z</time></trkpt><trkpt lat="31.009374863792804" lon="-4.645471111368166"><ele>708.0</ele><time>2026-03-23T10:08:34.002Z</time></trkpt><trkpt lat="31.009320245614933" lon="-4.64564008791162"><ele>708.0</ele><time>2026-03-23T10:08:35.002Z</time></trkpt><trkpt lat="31.009269263566445" lon="-4.645799944086402"><ele>708.0</ele><time>2026-03-23T10:08:36.002Z</time></trkpt><trkpt lat="31.009223565081694" lon="-4.645938518593213"><ele>708.0</ele><time>2026-03-23T10:08:37.002Z</time></trkpt><trkpt lat="31.009182268840966" lon="-4.646060250771405"><ele>707.5</ele><time>2026-03-23T10:08:38.002Z</time></trkpt><trkpt lat="31.009143060142666" lon="-4.64617436553369"><ele>707.0</ele><time>2026-03-23T10:08:39.002Z</time></trkpt><trkpt lat="31.009105915789238" lon="-4.646294887426184"><ele>706.5</ele><time>2026-03-23T10:08:40.002Z</time></trkpt><trkpt lat="31.009062038698175" lon="-4.646423721999644"><ele>706.0</ele><time>2026-03-23T10:08:41.002Z</time></trkpt><trkpt lat="31.00901163790993" lon="-4.6465787598232335"><ele>706.0</ele><time>2026-03-23T10:08:42.002Z</time></trkpt><trkpt lat="31.00895076192127" lon="-4.646751648436687"><ele>706.0</ele><time>2026-03-23T10:08:43.002Z</time></trkpt><trkpt lat="31.008884881686416" lon="-4.646936989944561"><ele>706.0</ele><time>2026-03-23T10:08:44.002Z</time></trkpt><trkpt lat="31.00881395325793" lon="-4.647127908061839"><ele>706.3333333333334</ele><time>2026-03-23T10:08:45.002Z</time></trkpt><trkpt lat="31.008743539286503" lon="-4.647325260307547"><ele>706.6666666666666</ele><time>2026-03-23T10:08:46.002Z</time></trkpt><trkpt lat="31.008679545830933" lon="-4.647501752241662"><ele>707.0</ele><time>2026-03-23T10:08:47.002Z</time></trkpt><trkpt lat="31.008626820060496" lon="-4.647653062366977"><ele>706.75</ele><time>2026-03-23T10:08:48.002Z</time></trkpt><trkpt lat="31.00857790035422" lon="-4.64779641783712"><ele>706.5</ele><time>2026-03-23T10:08:49.002Z</time></trkpt><trkpt lat="31.008528614595512" lon="-4.64793602927394"><ele>706.25</ele><time>2026-03-23T10:08:50.002Z</time></trkpt><trkpt lat="31.008485107871852" lon="-4.648067321375703"><ele>706.0</ele><time>2026-03-23T10:08:51.002Z</time></trkpt><trkpt lat="31.008441605880844" lon="-4.648208998805214"><ele>706.0</ele><time>2026-03-23T10:08:52.002Z</time></trkpt><trkpt lat="31.008390735276063" lon="-4.6483570232825935"><ele>706.0</ele><time>2026-03-23T10:08:53.002Z</time></trkpt><trkpt lat="31.008337204200586" lon="-4.648512396810732"><ele>706.0</ele><time>2026-03-23T10:08:54.002Z</time></trkpt><trkpt lat="31.008281983637456" lon="-4.648673519576608"><ele>706.0</ele><time>2026-03-23T10:08:55.002Z</time></trkpt><trkpt lat="31.00822826081333" lon="-4.648832690336043"><ele>705.6666666666667</ele><time>2026-03-23T10:08:56.002Z</time></trkpt><trkpt lat="31.00817117833618" lon="-4.649005587913763"><ele>705.3333333333334</ele><time>2026-03-23T10:08:56.999Z</time></trkpt><trkpt lat="31.008111680315515" lon="-4.64918052058294"><ele>705.0</ele><time>2026-03-23T10:08:57.999Z</time></trkpt><trkpt lat="31.008045811907632" lon="-4.649364750372369"><ele>705.3333333333334</ele><time>2026-03-23T10:08:58.999Z</time></trkpt><trkpt lat="31.007980309735228" lon="-4.649546200685441"><ele>705.6666666666667</ele><time>2026-03-23T10:08:59.999Z</time></trkpt><trkpt lat="31.007913480148733" lon="-4.649743566710336"><ele>706.0</ele><time>2026-03-23T10:09:00.999Z</time></trkpt><trkpt lat="31.00785307751543" lon="-4.649920487487866"><ele>706.0</ele><time>2026-03-23T10:09:01.999Z</time></trkpt><trkpt lat="31.00778934820025" lon="-4.650111851381002"><ele>706.0</ele><time>2026-03-23T10:09:02.999Z</time></trkpt><trkpt lat="31.007724192168574" lon="-4.650312125557186"><ele>706.0</ele><time>2026-03-23T10:09:03.999Z</time></trkpt><trkpt lat="31.007659439879284" lon="-4.65051851424116"><ele>706.0</ele><time>2026-03-23T10:09:04.999Z</time></trkpt><trkpt lat="31.007601430662362" lon="-4.650694606188769"><ele>706.0</ele><time>2026-03-23T10:09:05.999Z</time></trkpt><trkpt lat="31.007537886079728" lon="-4.65087451191562"><ele>706.0</ele><time>2026-03-23T10:09:06.999Z</time></trkpt><trkpt lat="31.007474449801077" lon="-4.651055698357649"><ele>705.0</ele><time>2026-03-23T10:09:07.999Z</time></trkpt><trkpt lat="31.007409197973985" lon="-4.651241574016603"><ele>704.0</ele><time>2026-03-23T10:09:08.999Z</time></trkpt><trkpt lat="31.007339403916568" lon="-4.651444295953306"><ele>703.0</ele><time>2026-03-23T10:09:09.999Z</time></trkpt><trkpt lat="31.00727069292612" lon="-4.651645127512886"><ele>703.0</ele><time>2026-03-23T10:09:10.999Z</time></trkpt><trkpt lat="31.007209617133043" lon="-4.651835813666572"><ele>703.0</ele><time>2026-03-23T10:09:11.999Z</time></trkpt><trkpt lat="31.007149030105754" lon="-4.652018366835127"><ele>703.0</ele><time>2026-03-23T10:09:12.999Z</time></trkpt><trkpt lat="31.007088496217282" lon="-4.652188502230233"><ele>704.0</ele><time>2026-03-23T10:09:14Z</time></trkpt><trkpt lat="31.007034006333953" lon="-4.652360518851868"><ele>705.0</ele><time>2026-03-23T10:09:15Z</time></trkpt><trkpt lat="31.006977289827272" lon="-4.6525357478653495"><ele>706.0</ele><time>2026-03-23T10:09:16Z</time></trkpt><trkpt lat="31.00691718520139" lon="-4.652708748479468"><ele>705.3333333333334</ele><time>2026-03-23T10:09:17Z</time></trkpt><trkpt lat="31.00685707963306" lon="-4.652879881401578"><ele>704.6666666666666</ele><time>2026-03-23T10:09:18Z</time></trkpt><trkpt lat="31.006793705802203" lon="-4.653061260988808"><ele>704.0</ele><time>2026-03-23T10:09:19Z</time></trkpt><trkpt lat="31.006729988093575" lon="-4.65325335652315"><ele>704.0</ele><time>2026-03-23T10:09:20Z</time></trkpt><trkpt lat="31.00666398252672" lon="-4.653441844871175"><ele>704.0</ele><time>2026-03-23T10:09:21Z</time></trkpt><trkpt lat="31.00660024720095" lon="-4.653618438412066"><ele>704.0</ele><time>2026-03-23T10:09:22Z</time></trkpt><trkpt lat="31.0065267970349" lon="-4.653813373146913"><ele>704.6666666666666</ele><time>2026-03-23T10:09:23Z</time></trkpt><trkpt lat="31.006458805076456" lon="-4.654004380016088"><ele>705.3333333333334</ele><time>2026-03-23T10:09:24Z</time></trkpt><trkpt lat="31.006390360355535" lon="-4.654194310343738"><ele>706.0</ele><time>2026-03-23T10:09:25Z</time></trkpt><trkpt lat="31.00632370171566" lon="-4.654378225043821"><ele>705.3333333333334</ele><time>2026-03-23T10:09:26Z</time></trkpt><trkpt lat="31.006260556105214" lon="-4.6545584000058104"><ele>704.6666666666666</ele><time>2026-03-23T10:09:27Z</time></trkpt><trkpt lat="31.006199172191305" lon="-4.6547422265227905"><ele>704.0</ele><time>2026-03-23T10:09:28Z</time></trkpt><trkpt lat="31.006136080351524" lon="-4.6549294072710605"><ele>704.0</ele><time>2026-03-23T10:09:29Z</time></trkpt><trkpt lat="31.006070051228626" lon="-4.655117406815542"><ele>704.0</ele><time>2026-03-23T10:09:30Z</time></trkpt><trkpt lat="31.00600427150443" lon="-4.655294080971682"><ele>704.0</ele><time>2026-03-23T10:09:31Z</time></trkpt><trkpt lat="31.00593948087208" lon="-4.6554822372476306"><ele>704.0</ele><time>2026-03-23T10:09:32Z</time></trkpt><trkpt lat="31.005880406586716" lon="-4.6556605185168225"><ele>704.0</ele><time>2026-03-23T10:09:33Z</time></trkpt><trkpt lat="31.00582361336169" lon="-4.6558534044405375"><ele>704.0</ele><time>2026-03-23T10:09:34Z</time></trkpt><trkpt lat="31.005767451240246" lon="-4.656038148087448"><ele>703.3333333333333</ele><time>2026-03-23T10:09:35Z</time></trkpt><trkpt lat="31.00571370266258" lon="-4.656221781775938"><ele>702.6666666666666</ele><time>2026-03-23T10:09:36Z</time></trkpt><trkpt lat="31.005660215125282" lon="-4.656401442543252"><ele>702.0</ele><time>2026-03-23T10:09:37Z</time></trkpt><trkpt lat="31.005606799168607" lon="-4.656582410261512"><ele>702.0</ele><time>2026-03-23T10:09:38Z</time></trkpt><trkpt lat="31.005555864447" lon="-4.656748028384046"><ele>702.0</ele><time>2026-03-23T10:09:39Z</time></trkpt><trkpt lat="31.005511784937482" lon="-4.656911905768418"><ele>702.0</ele><time>2026-03-23T10:09:40Z</time></trkpt><trkpt lat="31.00546465994959" lon="-4.657083456976235"><ele>702.0</ele><time>2026-03-23T10:09:41Z</time></trkpt><trkpt lat="31.005417952299673" lon="-4.657245928941344"><ele>702.0</ele><time>2026-03-23T10:09:42Z</time></trkpt><trkpt lat="31.005364760925985" lon="-4.6574159004394335"><ele>702.0</ele><time>2026-03-23T10:09:43Z</time></trkpt><trkpt lat="31.00530931789002" lon="-4.657598978088427"><ele>702.0</ele><time>2026-03-23T10:09:44Z</time></trkpt><trkpt lat="31.005257684164693" lon="-4.657765588916855"><ele>702.0</ele><time>2026-03-23T10:09:45Z</time></trkpt><trkpt lat="31.005201711044663" lon="-4.657949236159254"><ele>702.0</ele><time>2026-03-23T10:09:46Z</time></trkpt><trkpt lat="31.005137662239054" lon="-4.658136240685327"><ele>701.6666666666666</ele><time>2026-03-23T10:09:47Z</time></trkpt><trkpt lat="31.005077632336988" lon="-4.658314547143214"><ele>701.3333333333333</ele><time>2026-03-23T10:09:48Z</time></trkpt><trkpt lat="31.005018241256256" lon="-4.6584948838797"><ele>701.0</ele><time>2026-03-23T10:09:49Z</time></trkpt><trkpt lat="31.0049654475083" lon="-4.658665980205457"><ele>701.75</ele><time>2026-03-23T10:09:50.001Z</time></trkpt><trkpt lat="31.004917164943688" lon="-4.658832880298079"><ele>702.5</ele><time>2026-03-23T10:09:51.001Z</time></trkpt><trkpt lat="31.0048652875819" lon="-4.658981991982469"><ele>703.25</ele><time>2026-03-23T10:09:52.001Z</time></trkpt><trkpt lat="31.0048121880663" lon="-4.659136772949929"><ele>704.0</ele><time>2026-03-23T10:09:53.001Z</time></trkpt><trkpt lat="31.004755570918533" lon="-4.659286185372144"><ele>704.0</ele><time>2026-03-23T10:09:54.001Z</time></trkpt><trkpt lat="31.00469460773662" lon="-4.659437863238074"><ele>704.0</ele><time>2026-03-23T10:09:55.001Z</time></trkpt><trkpt lat="31.004635969011527" lon="-4.6595922560853795"><ele>704.0</ele><time>2026-03-23T10:09:56.001Z</time></trkpt><trkpt lat="31.00458128578092" lon="-4.659748468276741"><ele>704.0</ele><time>2026-03-23T10:09:57.001Z</time></trkpt><trkpt lat="31.0045232745095" lon="-4.659889885233657"><ele>703.5</ele><time>2026-03-23T10:09:58.001Z</time></trkpt><trkpt lat="31.004466553222652" lon="-4.660021280083239"><ele>703.0</ele><time>2026-03-23T10:09:59.001Z</time></trkpt><trkpt lat="31.004413913271513" lon="-4.660149799603766"><ele>702.5</ele><time>2026-03-23T10:10:00.001Z</time></trkpt><trkpt lat="31.00436163534516" lon="-4.660273087508451"><ele>702.0</ele><time>2026-03-23T10:10:01.001Z</time></trkpt><trkpt lat="31.004309688776008" lon="-4.660409403849313"><ele>701.75</ele><time>2026-03-23T10:10:02.001Z</time></trkpt><trkpt lat="31.00425424804861" lon="-4.66055552831104"><ele>701.5</ele><time>2026-03-23T10:10:03.001Z</time></trkpt><trkpt lat="31.00419551135056" lon="-4.66071124811876"><ele>701.25</ele><time>2026-03-23T10:10:04.001Z</time></trkpt><trkpt lat="31.004132725843363" lon="-4.660878764901315"><ele>701.0</ele><time>2026-03-23T10:10:05.001Z</time></trkpt><trkpt lat="31.004075211012825" lon="-4.661030607574564"><ele>701.25</ele><time>2026-03-23T10:10:06.001Z</time></trkpt><trkpt lat="31.004015726559377" lon="-4.661180590763993"><ele>701.5</ele><time>2026-03-23T10:10:07.001Z</time></trkpt><trkpt lat="31.0039564510822" lon="-4.661334888736463"><ele>701.75</ele><time>2026-03-23T10:10:08.001Z</time></trkpt><trkpt lat="31.00389927777717" lon="-4.661490849785665"><ele>702.0</ele><time>2026-03-23T10:10:09.001Z</time></trkpt><trkpt lat="31.003842291212568" lon="-4.661648675431881"><ele>702.0</ele><time>2026-03-23T10:10:10.001Z</time></trkpt><trkpt lat="31.00377759900153" lon="-4.661806262547259"><ele>702.0</ele><time>2026-03-23T10:10:11.001Z</time></trkpt><trkpt lat="31.003707573416218" lon="-4.661972248245192"><ele>702.0</ele><time>2026-03-23T10:10:12.001Z</time></trkpt><trkpt lat="31.003641037252585" lon="-4.662143614332386"><ele>702.0</ele><time>2026-03-23T10:10:13.001Z</time></trkpt><trkpt lat="31.003577176176123" lon="-4.662315260741991"><ele>702.0</ele><time>2026-03-23T10:10:14.001Z</time></trkpt><trkpt lat="31.00351182757778" lon="-4.662489602261617"><ele>702.0</ele><time>2026-03-23T10:10:15.001Z</time></trkpt><trkpt lat="31.003443073580097" lon="-4.662665085368485"><ele>702.0</ele><time>2026-03-23T10:10:16.001Z</time></trkpt><trkpt lat="31.003381308124794" lon="-4.662832290955748"><ele>702.0</ele><time>2026-03-23T10:10:17.001Z</time></trkpt><trkpt lat="31.00331297567887" lon="-4.663005285992149"><ele>702.0</ele><time>2026-03-23T10:10:18.001Z</time></trkpt><trkpt lat="31.003247587804843" lon="-4.66318210775923"><ele>702.3333333333334</ele><time>2026-03-23T10:10:19.001Z</time></trkpt><trkpt lat="31.003182727080073" lon="-4.663355696719796"><ele>702.6666666666667</ele><time>2026-03-23T10:10:20.001Z</time></trkpt><trkpt lat="31.003119450967613" lon="-4.66352161349363"><ele>703.0</ele><time>2026-03-23T10:10:21.001Z</time></trkpt><trkpt lat="31.003063725744692" lon="-4.6636797589419325"><ele>702.4</ele><time>2026-03-23T10:10:22.001Z</time></trkpt><trkpt lat="31.00301427379914" lon="-4.66381356109457"><ele>701.8</ele><time>2026-03-23T10:10:23.001Z</time></trkpt><trkpt lat="31.00297344124718" lon="-4.663940931987118"><ele>701.2</ele><time>2026-03-23T10:10:24.001Z</time></trkpt><trkpt lat="31.002942363419642" lon="-4.664059639309183"><ele>700.6</ele><time>2026-03-23T10:10:25.001Z</time></trkpt><trkpt lat="31.00291135405392" lon="-4.664167213236306"><ele>700.0</ele><time>2026-03-23T10:10:26.001Z</time></trkpt><trkpt lat="31.00288319197499" lon="-4.664261090398332"><ele>700.0</ele><time>2026-03-23T10:10:27.001Z</time></trkpt><trkpt lat="31.002859319010735" lon="-4.664347474097388"><ele>700.0</ele><time>2026-03-23T10:10:28.001Z</time></trkpt><trkpt lat="31.002836533203762" lon="-4.664418199988107"><ele>700.0</ele><time>2026-03-23T10:10:29.001Z</time></trkpt><trkpt lat="31.00280374599565" lon="-4.664512471697872"><ele>700.0</ele><time>2026-03-23T10:10:31.001Z</time></trkpt><trkpt lat="31.002784351409826" lon="-4.664592780489468"><ele>700.0</ele><time>2026-03-23T10:10:49.002Z</time></trkpt><trkpt lat="31.002746084130784" lon="-4.664719120178267"><ele>700.0</ele><time>2026-03-23T10:10:51.002Z</time></trkpt><trkpt lat="31.002711160804836" lon="-4.664813590484604"><ele>699.75</ele><time>2026-03-23T10:10:52.002Z</time></trkpt><trkpt lat="31.002671287259457" lon="-4.664919507743024"><ele>699.5</ele><time>2026-03-23T10:10:53.002Z</time></trkpt><trkpt lat="31.002623878665986" lon="-4.665047115959055"><ele>699.25</ele><time>2026-03-23T10:10:54.002Z</time></trkpt><trkpt lat="31.002574046806917" lon="-4.6651713043383225"><ele>699.0</ele><time>2026-03-23T10:10:55.002Z</time></trkpt><trkpt lat="31.00252660340666" lon="-4.665297644720965"><ele>698.75</ele><time>2026-03-23T10:10:56.002Z</time></trkpt><trkpt lat="31.002477645877967" lon="-4.665431514445214"><ele>698.5</ele><time>2026-03-23T10:10:57.002Z</time></trkpt><trkpt lat="31.002425073529796" lon="-4.665573448167453"><ele>698.25</ele><time>2026-03-23T10:10:58.002Z</time></trkpt><trkpt lat="31.002362922673157" lon="-4.665723019019002"><ele>698.0</ele><time>2026-03-23T10:10:59.002Z</time></trkpt><trkpt lat="31.002296563396502" lon="-4.6658632542108665"><ele>698.0</ele><time>2026-03-23T10:11:00.002Z</time></trkpt><trkpt lat="31.002233344382844" lon="-4.66601123504737"><ele>698.0</ele><time>2026-03-23T10:11:01.002Z</time></trkpt><trkpt lat="31.002174660573527" lon="-4.666168473240141"><ele>698.0</ele><time>2026-03-23T10:11:02.002Z</time></trkpt><trkpt lat="31.002117679621012" lon="-4.66633346804378"><ele>698.0</ele><time>2026-03-23T10:11:03Z</time></trkpt><trkpt lat="31.002058268410106" lon="-4.666502727680069"><ele>697.6666666666666</ele><time>2026-03-23T10:11:04Z</time></trkpt><trkpt lat="31.001992654898924" lon="-4.6666757274290696"><ele>697.3333333333334</ele><time>2026-03-23T10:11:05Z</time></trkpt><trkpt lat="31.001927183257287" lon="-4.6668408260617715"><ele>697.0</ele><time>2026-03-23T10:11:06Z</time></trkpt><trkpt lat="31.001860549456204" lon="-4.667014321192598"><ele>697.6666666666667</ele><time>2026-03-23T10:11:07Z</time></trkpt><trkpt lat="31.001795252125326" lon="-4.667183816947876"><ele>698.3333333333334</ele><time>2026-03-23T10:11:08Z</time></trkpt><trkpt lat="31.001735757241594" lon="-4.667354225819005"><ele>699.0</ele><time>2026-03-23T10:11:09Z</time></trkpt><trkpt lat="31.001677770806385" lon="-4.667527309514965"><ele>699.0</ele><time>2026-03-23T10:11:10Z</time></trkpt><trkpt lat="31.001618197866108" lon="-4.667695271657937"><ele>699.0</ele><time>2026-03-23T10:11:11Z</time></trkpt><trkpt lat="31.00155774661894" lon="-4.66785957137961"><ele>699.0</ele><time>2026-03-23T10:11:12Z</time></trkpt><trkpt lat="31.001500589078557" lon="-4.668034575631656"><ele>698.6666666666666</ele><time>2026-03-23T10:11:13Z</time></trkpt><trkpt lat="31.001445836110012" lon="-4.668198836526216"><ele>698.3333333333333</ele><time>2026-03-23T10:11:14Z</time></trkpt><trkpt lat="31.0013883509083" lon="-4.6683722506701315"><ele>698.0</ele><time>2026-03-23T10:11:15Z</time></trkpt><trkpt lat="31.001330756533655" lon="-4.668543889861799"><ele>698.0</ele><time>2026-03-23T10:11:16Z</time></trkpt><trkpt lat="31.00127530717098" lon="-4.668709968373218"><ele>698.0</ele><time>2026-03-23T10:11:17Z</time></trkpt><trkpt lat="31.00122055501459" lon="-4.668881237385311"><ele>698.0</ele><time>2026-03-23T10:11:18Z</time></trkpt><trkpt lat="31.00116393733625" lon="-4.669048054092516"><ele>698.0</ele><time>2026-03-23T10:11:19Z</time></trkpt><trkpt lat="31.00110969083775" lon="-4.669221856992244"><ele>698.0</ele><time>2026-03-23T10:11:20Z</time></trkpt><trkpt lat="31.001053585227847" lon="-4.669387670936951"><ele>698.0</ele><time>2026-03-23T10:11:21Z</time></trkpt><trkpt lat="31.000997948933453" lon="-4.6695617004188135"><ele>698.0</ele><time>2026-03-23T10:11:22Z</time></trkpt><trkpt lat="31.00093981158229" lon="-4.669739648661215"><ele>698.0</ele><time>2026-03-23T10:11:23Z</time></trkpt><trkpt lat="31.000880838134055" lon="-4.66991536831709"><ele>698.0</ele><time>2026-03-23T10:11:24Z</time></trkpt><trkpt lat="31.000817495522245" lon="-4.6700910925633226"><ele>697.6666666666666</ele><time>2026-03-23T10:11:25Z</time></trkpt><trkpt lat="31.000751958907625" lon="-4.670276244156326"><ele>697.3333333333334</ele><time>2026-03-23T10:11:26Z</time></trkpt><trkpt lat="31.000687129835388" lon="-4.6704594887429485"><ele>697.0</ele><time>2026-03-23T10:11:27Z</time></trkpt><trkpt lat="31.000621455776855" lon="-4.670635978712523"><ele>697.0</ele><time>2026-03-23T10:11:28Z</time></trkpt><trkpt lat="31.000555252848486" lon="-4.670806378847772"><ele>697.0</ele><time>2026-03-23T10:11:29Z</time></trkpt><trkpt lat="31.000490075621844" lon="-4.670970768046822"><ele>697.0</ele><time>2026-03-23T10:11:30Z</time></trkpt><trkpt lat="31.000427318113612" lon="-4.67113282915056"><ele>697.0</ele><time>2026-03-23T10:11:31Z</time></trkpt><trkpt lat="31.000363196093318" lon="-4.671300943470683"><ele>697.0</ele><time>2026-03-23T10:11:32Z</time></trkpt><trkpt lat="31.00030158367422" lon="-4.671473412894756"><ele>697.0</ele><time>2026-03-23T10:11:33Z</time></trkpt><trkpt lat="31.000242163473985" lon="-4.671647010824974"><ele>697.0</ele><time>2026-03-23T10:11:34Z</time></trkpt><trkpt lat="31.00019002145309" lon="-4.671817404924272"><ele>697.0</ele><time>2026-03-23T10:11:35Z</time></trkpt><trkpt lat="31.000138572939914" lon="-4.671992971494208"><ele>697.0</ele><time>2026-03-23T10:11:36Z</time></trkpt><trkpt lat="31.000088336228647" lon="-4.672169677976181"><ele>697.0</ele><time>2026-03-23T10:11:37Z</time></trkpt><trkpt lat="31.000038376790183" lon="-4.6723485809033285"><ele>697.0</ele><time>2026-03-23T10:11:38Z</time></trkpt><trkpt lat="30.999992067027854" lon="-4.672512605709205"><ele>697.0</ele><time>2026-03-23T10:11:39Z</time></trkpt><trkpt lat="30.99994592560509" lon="-4.672691587518345"><ele>696.6666666666667</ele><time>2026-03-23T10:11:40Z</time></trkpt><trkpt lat="30.99990281568151" lon="-4.672870454625128"><ele>696.3333333333334</ele><time>2026-03-23T10:11:41Z</time></trkpt><trkpt lat="30.999861595972167" lon="-4.6730471905076625"><ele>696.0</ele><time>2026-03-23T10:11:42Z</time></trkpt><trkpt lat="30.999818362644234" lon="-4.673213868682935"><ele>696.0</ele><time>2026-03-23T10:11:43Z</time></trkpt><trkpt lat="30.999774766956357" lon="-4.673380400604146"><ele>696.0</ele><time>2026-03-23T10:11:44Z</time></trkpt><trkpt lat="30.99972772768969" lon="-4.6735410054629405"><ele>696.0</ele><time>2026-03-23T10:11:45Z</time></trkpt><trkpt lat="30.9996750097471" lon="-4.673726528767456"><ele>695.3333333333334</ele><time>2026-03-23T10:11:46Z</time></trkpt><trkpt lat="30.999623594255233" lon="-4.6739050068435555"><ele>694.6666666666667</ele><time>2026-03-23T10:11:47.001Z</time></trkpt><trkpt lat="30.99957100608353" lon="-4.674073925021651"><ele>694.0</ele><time>2026-03-23T10:11:48.001Z</time></trkpt><trkpt lat="30.999514372842892" lon="-4.674241114728174"><ele>694.0</ele><time>2026-03-23T10:11:49.001Z</time></trkpt><trkpt lat="30.999456060487514" lon="-4.6744125700453685"><ele>694.0</ele><time>2026-03-23T10:11:50.001Z</time></trkpt><trkpt lat="30.999394387179837" lon="-4.67459336658181"><ele>694.0</ele><time>2026-03-23T10:11:51.001Z</time></trkpt><trkpt lat="30.999333505678724" lon="-4.67476496194208"><ele>694.6666666666667</ele><time>2026-03-23T10:11:52.001Z</time></trkpt><trkpt lat="30.999271292263618" lon="-4.674937383614344"><ele>695.3333333333334</ele><time>2026-03-23T10:11:53.001Z</time></trkpt><trkpt lat="30.999204565045755" lon="-4.675115151758782"><ele>696.0</ele><time>2026-03-23T10:11:54.001Z</time></trkpt><trkpt lat="30.99913228040792" lon="-4.675301709767428"><ele>696.0</ele><time>2026-03-23T10:11:55.001Z</time></trkpt><trkpt lat="30.99905776854042" lon="-4.675483728237733"><ele>696.0</ele><time>2026-03-23T10:11:56.001Z</time></trkpt><trkpt lat="30.9989807388683" lon="-4.675656983711805"><ele>696.0</ele><time>2026-03-23T10:11:57.001Z</time></trkpt><trkpt lat="30.998904185128477" lon="-4.6758340354969645"><ele>696.0</ele><time>2026-03-23T10:11:58.001Z</time></trkpt><trkpt lat="30.998829911598943" lon="-4.675993921634831"><ele>696.0</ele><time>2026-03-23T10:11:59.001Z</time></trkpt><trkpt lat="30.99876928894733" lon="-4.676146196040431"><ele>696.0</ele><time>2026-03-23T10:12:00.001Z</time></trkpt><trkpt lat="30.998712603196363" lon="-4.67627468509987"><ele>696.0</ele><time>2026-03-23T10:12:01.001Z</time></trkpt><trkpt lat="30.99866833308846" lon="-4.676398558816308"><ele>695.8</ele><time>2026-03-23T10:12:02.001Z</time></trkpt><trkpt lat="30.998633074601475" lon="-4.676516071345663"><ele>695.5999999999999</ele><time>2026-03-23T10:12:03.001Z</time></trkpt><trkpt lat="30.99859880125897" lon="-4.676632852239951"><ele>695.4</ele><time>2026-03-23T10:12:04.001Z</time></trkpt><trkpt lat="30.99855755790432" lon="-4.676732038525994"><ele>695.2</ele><time>2026-03-23T10:12:05.001Z</time></trkpt><trkpt lat="30.99850566466009" lon="-4.676824588260008"><ele>695.0</ele><time>2026-03-23T10:12:06.001Z</time></trkpt><trkpt lat="30.998449371841275" lon="-4.676905036047611"><ele>695.0</ele><time>2026-03-23T10:12:07.001Z</time></trkpt><trkpt lat="30.998387329096722" lon="-4.676999583120841"><ele>695.0</ele><time>2026-03-23T10:12:08.001Z</time></trkpt><trkpt lat="30.99832021713076" lon="-4.6771119465854945"><ele>695.0</ele><time>2026-03-23T10:12:09.001Z</time></trkpt><trkpt lat="30.998255791343546" lon="-4.6772332696537475"><ele>695.0</ele><time>2026-03-23T10:12:10.001Z</time></trkpt><trkpt lat="30.998197249621853" lon="-4.677355803035605"><ele>695.0</ele><time>2026-03-23T10:12:11.001Z</time></trkpt><trkpt lat="30.99814066415367" lon="-4.677489322021224"><ele>695.0</ele><time>2026-03-23T10:12:12.001Z</time></trkpt><trkpt lat="30.99807773505411" lon="-4.677632472587716"><ele>695.0</ele><time>2026-03-23T10:12:13.001Z</time></trkpt><trkpt lat="30.998010301406524" lon="-4.677778138425929"><ele>695.0</ele><time>2026-03-23T10:12:14.001Z</time></trkpt><trkpt lat="30.997943378262377" lon="-4.677926617362721"><ele>695.25</ele><time>2026-03-23T10:12:15.001Z</time></trkpt><trkpt lat="30.99787977512685" lon="-4.678073995984875"><ele>695.5</ele><time>2026-03-23T10:12:16.001Z</time></trkpt><trkpt lat="30.997817629922086" lon="-4.678198934711549"><ele>695.75</ele><time>2026-03-23T10:12:17.001Z</time></trkpt><trkpt lat="30.99776198692001" lon="-4.6783078475076705"><ele>696.0</ele><time>2026-03-23T10:12:18.001Z</time></trkpt><trkpt lat="30.997706228948754" lon="-4.678419795381247"><ele>696.0</ele><time>2026-03-23T10:12:19.001Z</time></trkpt><trkpt lat="30.99765728922923" lon="-4.678545292718417"><ele>696.0</ele><time>2026-03-23T10:12:20.001Z</time></trkpt><trkpt lat="30.997606809894776" lon="-4.678676950029215"><ele>696.0</ele><time>2026-03-23T10:12:21.001Z</time></trkpt><trkpt lat="30.99755540122952" lon="-4.678810121291103"><ele>696.0</ele><time>2026-03-23T10:12:22.001Z</time></trkpt><trkpt lat="30.997509068614193" lon="-4.678936216087007"><ele>696.0</ele><time>2026-03-23T10:12:23.001Z</time></trkpt><trkpt lat="30.997468765715542" lon="-4.679056916623764"><ele>696.0</ele><time>2026-03-23T10:12:24.001Z</time></trkpt><trkpt lat="30.99742550828503" lon="-4.679182225009486"><ele>696.0</ele><time>2026-03-23T10:12:25.001Z</time></trkpt><trkpt lat="30.99738226496969" lon="-4.679317549288218"><ele>696.0</ele><time>2026-03-23T10:12:26.001Z</time></trkpt><trkpt lat="30.997333003686105" lon="-4.679465608044555"><ele>696.0</ele><time>2026-03-23T10:12:27.001Z</time></trkpt><trkpt lat="30.997282853478673" lon="-4.679602405449422"><ele>696.0</ele><time>2026-03-23T10:12:28.001Z</time></trkpt><trkpt lat="30.99723063214686" lon="-4.679734516353738"><ele>696.0</ele><time>2026-03-23T10:12:29.001Z</time></trkpt><trkpt lat="30.99717792412004" lon="-4.679876749920504"><ele>696.0</ele><time>2026-03-23T10:12:30.001Z</time></trkpt><trkpt lat="30.997120820375713" lon="-4.68002649703777"><ele>696.0</ele><time>2026-03-23T10:12:31.002Z</time></trkpt><trkpt lat="30.99706670192708" lon="-4.68017991869924"><ele>696.0</ele><time>2026-03-23T10:12:32.002Z</time></trkpt><trkpt lat="30.997014982603158" lon="-4.680333350010121"><ele>696.0</ele><time>2026-03-23T10:12:33.002Z</time></trkpt><trkpt lat="30.99696450119398" lon="-4.6804817387339686"><ele>696.0</ele><time>2026-03-23T10:12:34.002Z</time></trkpt><trkpt lat="30.99691406573311" lon="-4.680635757351938"><ele>695.75</ele><time>2026-03-23T10:12:35.002Z</time></trkpt><trkpt lat="30.996861263563474" lon="-4.680785277357786"><ele>695.5</ele><time>2026-03-23T10:12:36.002Z</time></trkpt><trkpt lat="30.996810693908937" lon="-4.680934217173419"><ele>695.25</ele><time>2026-03-23T10:12:37.002Z</time></trkpt><trkpt lat="30.996760293263197" lon="-4.681090459747702"><ele>695.0</ele><time>2026-03-23T10:12:38.002Z</time></trkpt><trkpt lat="30.99670460546869" lon="-4.681263273760078"><ele>695.0</ele><time>2026-03-23T10:12:39.002Z</time></trkpt><trkpt lat="30.996651296141753" lon="-4.681426880853285"><ele>695.0</ele><time>2026-03-23T10:12:40.002Z</time></trkpt><trkpt lat="30.996602197666974" lon="-4.681584641099976"><ele>695.0</ele><time>2026-03-23T10:12:41.002Z</time></trkpt><trkpt lat="30.996547211627682" lon="-4.68174477863505"><ele>695.0</ele><time>2026-03-23T10:12:42.002Z</time></trkpt><trkpt lat="30.99650123016198" lon="-4.681900384942894"><ele>694.75</ele><time>2026-03-23T10:12:43.002Z</time></trkpt><trkpt lat="30.996457456821965" lon="-4.682067054164505"><ele>694.5</ele><time>2026-03-23T10:12:44.002Z</time></trkpt><trkpt lat="30.99641498660544" lon="-4.68223483044854"><ele>694.25</ele><time>2026-03-23T10:12:45.002Z</time></trkpt><trkpt lat="30.99637382664296" lon="-4.682394909659596"><ele>694.0</ele><time>2026-03-23T10:12:46.002Z</time></trkpt><trkpt lat="30.996339967993475" lon="-4.682556456564601"><ele>694.0</ele><time>2026-03-23T10:12:47.002Z</time></trkpt><trkpt lat="30.99631718935797" lon="-4.682708549606174"><ele>694.0</ele><time>2026-03-23T10:12:48.002Z</time></trkpt><trkpt lat="30.99629600342759" lon="-4.682862434002793"><ele>694.0</ele><time>2026-03-23T10:12:49.002Z</time></trkpt><trkpt lat="30.996279291153858" lon="-4.683019799002482"><ele>694.0</ele><time>2026-03-23T10:12:50.002Z</time></trkpt><trkpt lat="30.996255803856087" lon="-4.683173616725148"><ele>694.25</ele><time>2026-03-23T10:12:51.002Z</time></trkpt><trkpt lat="30.996228612236607" lon="-4.683322846842031"><ele>694.5</ele><time>2026-03-23T10:12:52.002Z</time></trkpt><trkpt lat="30.996199275530575" lon="-4.6834568731474"><ele>694.75</ele><time>2026-03-23T10:12:53.002Z</time></trkpt><trkpt lat="30.99617101598761" lon="-4.683577308094729"><ele>695.0</ele><time>2026-03-23T10:12:54.002Z</time></trkpt><trkpt lat="30.996140251447283" lon="-4.683697423779946"><ele>695.25</ele><time>2026-03-23T10:12:55.002Z</time></trkpt><trkpt lat="30.996104839210684" lon="-4.683827168670424"><ele>695.5</ele><time>2026-03-23T10:12:56.002Z</time></trkpt><trkpt lat="30.99606199528641" lon="-4.68396871682856"><ele>695.75</ele><time>2026-03-23T10:12:57.002Z</time></trkpt><trkpt lat="30.996017666792216" lon="-4.684111187276511"><ele>696.0</ele><time>2026-03-23T10:12:58.002Z</time></trkpt><trkpt lat="30.99596328298052" lon="-4.684264415491359"><ele>696.0</ele><time>2026-03-23T10:12:59.002Z</time></trkpt><trkpt lat="30.99590395550594" lon="-4.684409991653298"><ele>696.0</ele><time>2026-03-23T10:13:00.002Z</time></trkpt><trkpt lat="30.995846088003084" lon="-4.68455289520251"><ele>696.0</ele><time>2026-03-23T10:13:01.002Z</time></trkpt><trkpt lat="30.995788488402706" lon="-4.684700773646119"><ele>696.0</ele><time>2026-03-23T10:13:02.002Z</time></trkpt><trkpt lat="30.995733284199137" lon="-4.684844746800379"><ele>695.25</ele><time>2026-03-23T10:13:03.002Z</time></trkpt><trkpt lat="30.9956729859507" lon="-4.684999936033145"><ele>694.5</ele><time>2026-03-23T10:13:04.002Z</time></trkpt><trkpt lat="30.995610496826984" lon="-4.685149013473333"><ele>693.75</ele><time>2026-03-23T10:13:05.002Z</time></trkpt><trkpt lat="30.995548604557317" lon="-4.685305362481514"><ele>693.0</ele><time>2026-03-23T10:13:06.002Z</time></trkpt><trkpt lat="30.995496717096632" lon="-4.685458373631103"><ele>693.0</ele><time>2026-03-23T10:13:07.002Z</time></trkpt><trkpt lat="30.99544584291729" lon="-4.685598240370682"><ele>693.0</ele><time>2026-03-23T10:13:08.002Z</time></trkpt><trkpt lat="30.995397297605212" lon="-4.685730131163913"><ele>693.0</ele><time>2026-03-23T10:13:09Z</time></trkpt><trkpt lat="30.995345489998147" lon="-4.68587028607853"><ele>693.0</ele><time>2026-03-23T10:13:10Z</time></trkpt><trkpt lat="30.995291955749625" lon="-4.686018748148706"><ele>693.5</ele><time>2026-03-23T10:13:11Z</time></trkpt><trkpt lat="30.995236815201523" lon="-4.6861784037911045"><ele>694.0</ele><time>2026-03-23T10:13:12Z</time></trkpt><trkpt lat="30.995181076288265" lon="-4.686328426945643"><ele>694.5</ele><time>2026-03-23T10:13:13Z</time></trkpt><trkpt lat="30.995131002806943" lon="-4.686464629733181"><ele>695.0</ele><time>2026-03-23T10:13:14Z</time></trkpt><trkpt lat="30.995085858181774" lon="-4.686604443234792"><ele>695.0</ele><time>2026-03-23T10:13:15Z</time></trkpt><trkpt lat="30.995046706585423" lon="-4.686733713123891"><ele>695.0</ele><time>2026-03-23T10:13:16Z</time></trkpt><trkpt lat="30.99500281677344" lon="-4.686872324893623"><ele>695.0</ele><time>2026-03-23T10:13:17Z</time></trkpt><trkpt lat="30.994958825236576" lon="-4.6869961939737745"><ele>695.0</ele><time>2026-03-23T10:13:18Z</time></trkpt><trkpt lat="30.994918720581907" lon="-4.6871089488098745"><ele>694.8</ele><time>2026-03-23T10:13:19Z</time></trkpt><trkpt lat="30.994878869188664" lon="-4.687201136996843"><ele>694.6</ele><time>2026-03-23T10:13:20Z</time></trkpt><trkpt lat="30.99483735013475" lon="-4.687301076479476"><ele>694.4000000000001</ele><time>2026-03-23T10:13:21Z</time></trkpt><trkpt lat="30.994788666265368" lon="-4.6874121461357765"><ele>694.2</ele><time>2026-03-23T10:13:22Z</time></trkpt><trkpt lat="30.994736047272188" lon="-4.687550781627776"><ele>694.0</ele><time>2026-03-23T10:13:23Z</time></trkpt><trkpt lat="30.99467837520331" lon="-4.68769237843115"><ele>693.6666666666667</ele><time>2026-03-23T10:13:24Z</time></trkpt><trkpt lat="30.994623512501505" lon="-4.687848015403325"><ele>693.3333333333334</ele><time>2026-03-23T10:13:25Z</time></trkpt><trkpt lat="30.994563613182823" lon="-4.688021210683174"><ele>693.0</ele><time>2026-03-23T10:13:26Z</time></trkpt><trkpt lat="30.994504953473335" lon="-4.688208749916558"><ele>693.0</ele><time>2026-03-23T10:13:27Z</time></trkpt><trkpt lat="30.994446620556086" lon="-4.688384818757114"><ele>693.0</ele><time>2026-03-23T10:13:28Z</time></trkpt><trkpt lat="30.994390198335655" lon="-4.688545640016564"><ele>693.0</ele><time>2026-03-23T10:13:29Z</time></trkpt><trkpt lat="30.994316744192908" lon="-4.688734910339395"><ele>693.3333333333334</ele><time>2026-03-23T10:13:30Z</time></trkpt><trkpt lat="30.994261929825075" lon="-4.688901342440918"><ele>693.6666666666667</ele><time>2026-03-23T10:13:31Z</time></trkpt><trkpt lat="30.994203648460296" lon="-4.689077760994754"><ele>694.0</ele><time>2026-03-23T10:13:32Z</time></trkpt><trkpt lat="30.994150428677912" lon="-4.689249680166539"><ele>694.0</ele><time>2026-03-23T10:13:33Z</time></trkpt><trkpt lat="30.994094190360006" lon="-4.689422475797144"><ele>694.0</ele><time>2026-03-23T10:13:34Z</time></trkpt><trkpt lat="30.994030887382205" lon="-4.689598857303234"><ele>694.0</ele><time>2026-03-23T10:13:35Z</time></trkpt><trkpt lat="30.993965544850095" lon="-4.6897742704023555"><ele>694.0</ele><time>2026-03-23T10:13:36Z</time></trkpt><trkpt lat="30.993899199446005" lon="-4.689949547906784"><ele>694.0</ele><time>2026-03-23T10:13:37Z</time></trkpt><trkpt lat="30.993832429412528" lon="-4.690120819138834"><ele>694.0</ele><time>2026-03-23T10:13:38Z</time></trkpt><trkpt lat="30.99376772775593" lon="-4.690286599740043"><ele>693.6666666666667</ele><time>2026-03-23T10:13:39Z</time></trkpt><trkpt lat="30.99370562894118" lon="-4.6904470078828755"><ele>693.3333333333334</ele><time>2026-03-23T10:13:40Z</time></trkpt><trkpt lat="30.993646840395638" lon="-4.690611156960137"><ele>693.0</ele><time>2026-03-23T10:13:41Z</time></trkpt><trkpt lat="30.99359028773083" lon="-4.690785199501911"><ele>693.0</ele><time>2026-03-23T10:13:42Z</time></trkpt><trkpt lat="30.99353850607536" lon="-4.690956135993153"><ele>693.0</ele><time>2026-03-23T10:13:43Z</time></trkpt><trkpt lat="30.99348582193254" lon="-4.691122612024677"><ele>693.0</ele><time>2026-03-23T10:13:44Z</time></trkpt><trkpt lat="30.993434028230105" lon="-4.691287987356958"><ele>692.75</ele><time>2026-03-23T10:13:45Z</time></trkpt><trkpt lat="30.993384477306233" lon="-4.691452535030212"><ele>692.5</ele><time>2026-03-23T10:13:46Z</time></trkpt><trkpt lat="30.99333636995153" lon="-4.691612190690234"><ele>692.25</ele><time>2026-03-23T10:13:47Z</time></trkpt><trkpt lat="30.993290207725657" lon="-4.691760560512134"><ele>692.0</ele><time>2026-03-23T10:13:48.001Z</time></trkpt><trkpt lat="30.993248032126154" lon="-4.691907319190881"><ele>692.5</ele><time>2026-03-23T10:13:49.001Z</time></trkpt><trkpt lat="30.993200293318132" lon="-4.692062825527867"><ele>693.0</ele><time>2026-03-23T10:13:50.001Z</time></trkpt><trkpt lat="30.993152214766454" lon="-4.692218101575018"><ele>693.5</ele><time>2026-03-23T10:13:51.001Z</time></trkpt><trkpt lat="30.993098977268215" lon="-4.6923899508552545"><ele>694.0</ele><time>2026-03-23T10:13:52.001Z</time></trkpt><trkpt lat="30.99304620764439" lon="-4.6925630405827485"><ele>694.0</ele><time>2026-03-23T10:13:53.001Z</time></trkpt><trkpt lat="30.992995312955333" lon="-4.6927378665980015"><ele>694.0</ele><time>2026-03-23T10:13:54.001Z</time></trkpt><trkpt lat="30.992954079255345" lon="-4.692892528010627"><ele>694.0</ele><time>2026-03-23T10:13:55.001Z</time></trkpt><trkpt lat="30.992910741707405" lon="-4.693045644250663"><ele>694.0</ele><time>2026-03-23T10:13:56.001Z</time></trkpt><trkpt lat="30.99287193319764" lon="-4.693188394892031"><ele>694.0</ele><time>2026-03-23T10:13:57.001Z</time></trkpt><trkpt lat="30.992828574157006" lon="-4.693339591274635"><ele>694.0</ele><time>2026-03-23T10:13:58.001Z</time></trkpt><trkpt lat="30.992787350238224" lon="-4.693488201451355"><ele>694.0</ele><time>2026-03-23T10:13:59.001Z</time></trkpt><trkpt lat="30.992743572488152" lon="-4.693637106452834"><ele>694.0</ele><time>2026-03-23T10:14:00.001Z</time></trkpt><trkpt lat="30.99269508114887" lon="-4.693800372362754"><ele>694.0</ele><time>2026-03-23T10:14:01.001Z</time></trkpt><trkpt lat="30.992648700675943" lon="-4.693973886199198"><ele>694.0</ele><time>2026-03-23T10:14:02.001Z</time></trkpt><trkpt lat="30.9926024346901" lon="-4.694142284680474"><ele>694.0</ele><time>2026-03-23T10:14:03.001Z</time></trkpt><trkpt lat="30.99255010420183" lon="-4.694310211163131"><ele>695.0</ele><time>2026-03-23T10:14:04.001Z</time></trkpt><trkpt lat="30.99250283942488" lon="-4.694474041782031"><ele>696.0</ele><time>2026-03-23T10:14:05.001Z</time></trkpt><trkpt lat="30.992452071283743" lon="-4.694644422478642"><ele>697.0</ele><time>2026-03-23T10:14:06.001Z</time></trkpt><trkpt lat="30.99240163388448" lon="-4.69481383694544"><ele>697.0</ele><time>2026-03-23T10:14:07.001Z</time></trkpt><trkpt lat="30.992352467534396" lon="-4.694979126520845"><ele>697.0</ele><time>2026-03-23T10:14:08.001Z</time></trkpt><trkpt lat="30.99230341221734" lon="-4.695145546627661"><ele>697.0</ele><time>2026-03-23T10:14:09.001Z</time></trkpt><trkpt lat="30.992258397177526" lon="-4.695307151016136"><ele>697.0</ele><time>2026-03-23T10:14:10.001Z</time></trkpt><trkpt lat="30.992210477649657" lon="-4.695470218574874"><ele>697.0</ele><time>2026-03-23T10:14:11.001Z</time></trkpt><trkpt lat="30.992166394409416" lon="-4.695630775047543"><ele>697.0</ele><time>2026-03-23T10:14:12.001Z</time></trkpt><trkpt lat="30.992121178730205" lon="-4.695791069543231"><ele>697.0</ele><time>2026-03-23T10:14:13.001Z</time></trkpt><trkpt lat="30.99207706205922" lon="-4.695940713412313"><ele>697.0</ele><time>2026-03-23T10:14:14.001Z</time></trkpt><trkpt lat="30.992037335449034" lon="-4.696071147535261"><ele>696.4000000000001</ele><time>2026-03-23T10:14:15.001Z</time></trkpt><trkpt lat="30.99200385282492" lon="-4.696189006130557"><ele>695.8000000000001</ele><time>2026-03-23T10:14:16.001Z</time></trkpt><trkpt lat="30.99197807229359" lon="-4.69628837203454"><ele>695.2</ele><time>2026-03-23T10:14:17.001Z</time></trkpt><trkpt lat="30.991952784281334" lon="-4.696377702293809"><ele>694.6</ele><time>2026-03-23T10:14:18.001Z</time></trkpt><trkpt lat="30.99192810163749" lon="-4.696461696277162"><ele>694.0</ele><time>2026-03-23T10:14:19.001Z</time></trkpt><trkpt lat="30.991900170712704" lon="-4.69657399179448"><ele>694.0</ele><time>2026-03-23T10:14:20.001Z</time></trkpt><trkpt lat="30.991864718019333" lon="-4.69670852299217"><ele>694.0</ele><time>2026-03-23T10:14:21.001Z</time></trkpt><trkpt lat="30.991809224578752" lon="-4.696863226642158"><ele>694.0</ele><time>2026-03-23T10:14:22.001Z</time></trkpt><trkpt lat="30.991748775734518" lon="-4.697027953597005"><ele>694.0</ele><time>2026-03-23T10:14:23.001Z</time></trkpt><trkpt lat="30.99168869260643" lon="-4.697213835395884"><ele>693.6666666666667</ele><time>2026-03-23T10:14:24.001Z</time></trkpt><trkpt lat="30.991641911187084" lon="-4.697394289904663"><ele>693.3333333333334</ele><time>2026-03-23T10:14:25.001Z</time></trkpt><trkpt lat="30.99159125851717" lon="-4.697568684873617"><ele>693.0</ele><time>2026-03-23T10:14:26.001Z</time></trkpt><trkpt lat="30.991539829624603" lon="-4.697737690167998"><ele>693.0</ele><time>2026-03-23T10:14:27.001Z</time></trkpt><trkpt lat="30.99148375341867" lon="-4.697912711624938"><ele>693.0</ele><time>2026-03-23T10:14:28.001Z</time></trkpt><trkpt lat="30.9914329881396" lon="-4.698082590539104"><ele>693.0</ele><time>2026-03-23T10:14:29.001Z</time></trkpt><trkpt lat="30.991379580063853" lon="-4.698248555888116"><ele>693.0</ele><time>2026-03-23T10:14:30.002Z</time></trkpt><trkpt lat="30.99133433476922" lon="-4.6984011617512245"><ele>693.0</ele><time>2026-03-23T10:14:31.002Z</time></trkpt><trkpt lat="30.99128629648163" lon="-4.698550036327817"><ele>693.0</ele><time>2026-03-23T10:14:32.002Z</time></trkpt><trkpt lat="30.99123641608404" lon="-4.69870519760457"><ele>693.0</ele><time>2026-03-23T10:14:33.002Z</time></trkpt><trkpt lat="30.99118665378724" lon="-4.698867309374145"><ele>692.75</ele><time>2026-03-23T10:14:34.002Z</time></trkpt><trkpt lat="30.991146493384864" lon="-4.6990079972834735"><ele>692.5</ele><time>2026-03-23T10:14:35.002Z</time></trkpt><trkpt lat="30.991105408775216" lon="-4.699141553332822"><ele>692.25</ele><time>2026-03-23T10:14:36.002Z</time></trkpt><trkpt lat="30.99106041424591" lon="-4.699283531162179"><ele>692.0</ele><time>2026-03-23T10:14:37.002Z</time></trkpt><trkpt lat="30.991017479517346" lon="-4.69942255463214"><ele>691.6</ele><time>2026-03-23T10:14:38.002Z</time></trkpt><trkpt lat="30.990981177643285" lon="-4.699568395140943"><ele>691.2</ele><time>2026-03-23T10:14:39.002Z</time></trkpt><trkpt lat="30.99095216411573" lon="-4.699696378127644"><ele>690.8</ele><time>2026-03-23T10:14:40.002Z</time></trkpt><trkpt lat="30.990929534619898" lon="-4.699812203154226"><ele>690.4</ele><time>2026-03-23T10:14:41.002Z</time></trkpt><trkpt lat="30.990906939244674" lon="-4.699916311258787"><ele>690.0</ele><time>2026-03-23T10:14:42.002Z</time></trkpt><trkpt lat="30.99088509056333" lon="-4.700010384359301"><ele>690.0</ele><time>2026-03-23T10:14:43.002Z</time></trkpt><trkpt lat="30.990865444934368" lon="-4.700100037200555"><ele>690.0</ele><time>2026-03-23T10:14:44.002Z</time></trkpt><trkpt lat="30.990854527687244" lon="-4.700187249887543"><ele>690.0</ele><time>2026-03-23T10:14:45.002Z</time></trkpt><trkpt lat="30.990840364980926" lon="-4.70026693953303"><ele>690.0</ele><time>2026-03-23T10:14:46.002Z</time></trkpt><trkpt lat="30.990829102685424" lon="-4.700348953659015"><ele>690.0</ele><time>2026-03-23T10:14:47.002Z</time></trkpt><trkpt lat="30.990819159905822" lon="-4.700438461235704"><ele>690.0</ele><time>2026-03-23T10:14:48.002Z</time></trkpt><trkpt lat="30.99081318282813" lon="-4.700522957397953"><ele>690.0</ele><time>2026-03-23T10:14:49.002Z</time></trkpt><trkpt lat="30.990805761725984" lon="-4.700607376444078"><ele>690.1666666666666</ele><time>2026-03-23T10:14:50.002Z</time></trkpt><trkpt lat="30.990795210926333" lon="-4.700692495137345"><ele>690.3333333333334</ele><time>2026-03-23T10:14:51.002Z</time></trkpt><trkpt lat="30.99077405453998" lon="-4.700783119118824"><ele>690.5</ele><time>2026-03-23T10:14:52.002Z</time></trkpt><trkpt lat="30.99076484590515" lon="-4.700874709582797"><ele>690.6666666666667</ele><time>2026-03-23T10:14:53.002Z</time></trkpt><trkpt lat="30.990788982979854" lon="-4.700984614091583"><ele>690.8333333333334</ele><time>2026-03-23T10:14:54.002Z</time></trkpt><trkpt lat="30.990738705745713" lon="-4.701088756538177"><ele>691.0</ele><time>2026-03-23T10:14:55.002Z</time></trkpt><trkpt lat="30.9907256510769" lon="-4.701224747111492"><ele>691.75</ele><time>2026-03-23T10:14:56.002Z</time></trkpt><trkpt lat="30.990706861922504" lon="-4.701370986826389"><ele>692.5</ele><time>2026-03-23T10:14:57.002Z</time></trkpt><trkpt lat="30.99069843671399" lon="-4.701513013156575"><ele>693.25</ele><time>2026-03-23T10:14:58.002Z</time></trkpt><trkpt lat="30.990688472194517" lon="-4.701647764668042"><ele>694.0</ele><time>2026-03-23T10:14:59.002Z</time></trkpt><trkpt lat="30.99066678762405" lon="-4.70178301255843"><ele>693.4000000000001</ele><time>2026-03-23T10:15:00.002Z</time></trkpt><trkpt lat="30.990642850620528" lon="-4.701926979015542"><ele>692.8</ele><time>2026-03-23T10:15:01.002Z</time></trkpt><trkpt lat="30.99063056015448" lon="-4.702019628274771"><ele>692.2</ele><time>2026-03-23T10:15:02.002Z</time></trkpt><trkpt lat="30.990615756858457" lon="-4.702099754615936"><ele>691.5999999999999</ele><time>2026-03-23T10:15:03.002Z</time></trkpt><trkpt lat="30.990593824630093" lon="-4.702217100008741"><ele>691.0</ele><time>2026-03-23T10:15:04.002Z</time></trkpt><trkpt lat="30.990560886118267" lon="-4.70236100654037"><ele>691.0</ele><time>2026-03-23T10:15:05.002Z</time></trkpt><trkpt lat="30.99051663757258" lon="-4.702505584760548"><ele>691.0</ele><time>2026-03-23T10:15:06.002Z</time></trkpt><trkpt lat="30.990473656537958" lon="-4.702639784602051"><ele>691.0</ele><time>2026-03-23T10:15:07.002Z</time></trkpt><trkpt lat="30.990438573545465" lon="-4.702763035627375"><ele>691.0</ele><time>2026-03-23T10:15:08.002Z</time></trkpt><trkpt lat="30.99040020858024" lon="-4.702877686772343"><ele>690.5999999999999</ele><time>2026-03-23T10:15:09.002Z</time></trkpt><trkpt lat="30.990365565786544" lon="-4.702990322205153"><ele>690.2</ele><time>2026-03-23T10:15:10.002Z</time></trkpt><trkpt lat="30.990333426597978" lon="-4.703107011562536"><ele>689.8</ele><time>2026-03-23T10:15:11.002Z</time></trkpt><trkpt lat="30.990294065034945" lon="-4.70323554042723"><ele>689.4000000000001</ele><time>2026-03-23T10:15:12.002Z</time></trkpt><trkpt lat="30.990252346471443" lon="-4.703350086769647"><ele>689.0</ele><time>2026-03-23T10:15:13.003Z</time></trkpt><trkpt lat="30.990208455367224" lon="-4.7034316119211335"><ele>689.0</ele><time>2026-03-23T10:15:14.003Z</time></trkpt><trkpt lat="30.990155333565763" lon="-4.703504232740037"><ele>689.0</ele><time>2026-03-23T10:15:15Z</time></trkpt><trkpt lat="30.990090228470088" lon="-4.70359039350008"><ele>689.0</ele><time>2026-03-23T10:15:16Z</time></trkpt><trkpt lat="30.9900323479037" lon="-4.703660342472154"><ele>689.0</ele><time>2026-03-23T10:15:17Z</time></trkpt><trkpt lat="30.989976481689258" lon="-4.703730346897592"><ele>689.0</ele><time>2026-03-23T10:15:18Z</time></trkpt><trkpt lat="30.989923793721363" lon="-4.703806151860155"><ele>689.0</ele><time>2026-03-23T10:15:19Z</time></trkpt><trkpt lat="30.989876401181032" lon="-4.703896435010815"><ele>689.1666666666666</ele><time>2026-03-23T10:15:20Z</time></trkpt><trkpt lat="30.989830678144124" lon="-4.7039906364206905"><ele>689.3333333333333</ele><time>2026-03-23T10:15:21Z</time></trkpt><trkpt lat="30.989794975078524" lon="-4.704076092037702"><ele>689.5</ele><time>2026-03-23T10:15:22Z</time></trkpt><trkpt lat="30.989772738611418" lon="-4.704161198418095"><ele>689.6666666666666</ele><time>2026-03-23T10:15:23Z</time></trkpt><trkpt lat="30.989761375229556" lon="-4.704239555723378"><ele>689.8333333333334</ele><time>2026-03-23T10:15:24Z</time></trkpt><trkpt lat="30.989742132071818" lon="-4.7043413995181655"><ele>690.0</ele><time>2026-03-23T10:15:25Z</time></trkpt><trkpt lat="30.989721186450932" lon="-4.704451927311786"><ele>690.6666666666666</ele><time>2026-03-23T10:15:26Z</time></trkpt><trkpt lat="30.9896940868452" lon="-4.70456085023167"><ele>691.3333333333334</ele><time>2026-03-23T10:15:27Z</time></trkpt><trkpt lat="30.98966333131063" lon="-4.704662149372282"><ele>692.0</ele><time>2026-03-23T10:15:28Z</time></trkpt><trkpt lat="30.98962305512545" lon="-4.704739070216698"><ele>692.6666666666667</ele><time>2026-03-23T10:15:29Z</time></trkpt><trkpt lat="30.989574415838533" lon="-4.704812422208934"><ele>693.3333333333334</ele><time>2026-03-23T10:15:30Z</time></trkpt><trkpt lat="30.98953427020834" lon="-4.704873634480917"><ele>694.0</ele><time>2026-03-23T10:15:31Z</time></trkpt><trkpt lat="30.98950407240465" lon="-4.704939849569778"><ele>694.0</ele><time>2026-03-23T10:15:32Z</time></trkpt><trkpt lat="30.989478576174946" lon="-4.705010522823811"><ele>694.0</ele><time>2026-03-23T10:15:33Z</time></trkpt><trkpt lat="30.989453746636666" lon="-4.705094399575235"><ele>694.0</ele><time>2026-03-23T10:15:34Z</time></trkpt><trkpt lat="30.989436827028243" lon="-4.705176243384991"><ele>694.0</ele><time>2026-03-23T10:15:35Z</time></trkpt><trkpt lat="30.98942826588302" lon="-4.7052742537545855"><ele>694.0</ele><time>2026-03-23T10:15:36Z</time></trkpt><trkpt lat="30.989416742862044" lon="-4.705371057090941"><ele>694.0</ele><time>2026-03-23T10:15:37Z</time></trkpt><trkpt lat="30.989398942273006" lon="-4.7054840136914144"><ele>693.6</ele><time>2026-03-23T10:15:38Z</time></trkpt><trkpt lat="30.989379058387623" lon="-4.705594485081652"><ele>693.2</ele><time>2026-03-23T10:15:39Z</time></trkpt><trkpt lat="30.989363355774806" lon="-4.705706160298088"><ele>692.8000000000001</ele><time>2026-03-23T10:15:40Z</time></trkpt><trkpt lat="30.98935690678305" lon="-4.705824411609869"><ele>692.4000000000001</ele><time>2026-03-23T10:15:41Z</time></trkpt><trkpt lat="30.989355963085412" lon="-4.705950082624333"><ele>692.0</ele><time>2026-03-23T10:15:42Z</time></trkpt><trkpt lat="30.989344293391742" lon="-4.706073726471299"><ele>691.75</ele><time>2026-03-23T10:15:43Z</time></trkpt><trkpt lat="30.989326570492835" lon="-4.706197317226321"><ele>691.5</ele><time>2026-03-23T10:15:44Z</time></trkpt><trkpt lat="30.989297779993613" lon="-4.706349723137608"><ele>691.25</ele><time>2026-03-23T10:15:45Z</time></trkpt><trkpt lat="30.98926865092143" lon="-4.706516164871091"><ele>691.0</ele><time>2026-03-23T10:15:46.001Z</time></trkpt><trkpt lat="30.989246110217767" lon="-4.706654049895416"><ele>691.0</ele><time>2026-03-23T10:15:47.001Z</time></trkpt><trkpt lat="30.989217928791128" lon="-4.706785597109179"><ele>691.0</ele><time>2026-03-23T10:15:48.001Z</time></trkpt><trkpt lat="30.989175361570844" lon="-4.706923223089345"><ele>691.0</ele><time>2026-03-23T10:15:49.001Z</time></trkpt><trkpt lat="30.989134809189792" lon="-4.707087322872198"><ele>691.0</ele><time>2026-03-23T10:15:50.001Z</time></trkpt><trkpt lat="30.989085154455772" lon="-4.707277817014875"><ele>691.0</ele><time>2026-03-23T10:15:51.001Z</time></trkpt><trkpt lat="30.98904424942731" lon="-4.707493016984243"><ele>691.0</ele><time>2026-03-23T10:15:52.001Z</time></trkpt><trkpt lat="30.988994634712412" lon="-4.707699599262624"><ele>691.0</ele><time>2026-03-23T10:15:53.001Z</time></trkpt><trkpt lat="30.988964990977465" lon="-4.707873011656761"><ele>691.6666666666667</ele><time>2026-03-23T10:15:54.001Z</time></trkpt><trkpt lat="30.988927380774836" lon="-4.708042654077235"><ele>692.3333333333334</ele><time>2026-03-23T10:15:55.001Z</time></trkpt><trkpt lat="30.988885648889056" lon="-4.708217580868003"><ele>693.0</ele><time>2026-03-23T10:15:56.001Z</time></trkpt><trkpt lat="30.988850370678822" lon="-4.708389052630472"><ele>693.0</ele><time>2026-03-23T10:15:57.001Z</time></trkpt><trkpt lat="30.988814594642317" lon="-4.708557211554803"><ele>693.0</ele><time>2026-03-23T10:15:58.001Z</time></trkpt><trkpt lat="30.98878752985209" lon="-4.708726611651015"><ele>693.0</ele><time>2026-03-23T10:15:59.001Z</time></trkpt><trkpt lat="30.98876033204093" lon="-4.708900369142357"><ele>693.0</ele><time>2026-03-23T10:16:00.001Z</time></trkpt><trkpt lat="30.98873159730702" lon="-4.709074263051315"><ele>693.25</ele><time>2026-03-23T10:16:01.001Z</time></trkpt><trkpt lat="30.988703736373836" lon="-4.709249615855701"><ele>693.5</ele><time>2026-03-23T10:16:02.001Z</time></trkpt><trkpt lat="30.988676463168034" lon="-4.709419955594709"><ele>693.75</ele><time>2026-03-23T10:16:03.001Z</time></trkpt><trkpt lat="30.98865262315985" lon="-4.709583799136916"><ele>694.0</ele><time>2026-03-23T10:16:04.001Z</time></trkpt><trkpt lat="30.988626944573795" lon="-4.709753347256388"><ele>693.25</ele><time>2026-03-23T10:16:05.001Z</time></trkpt><trkpt lat="30.988599243648178" lon="-4.70992221289539"><ele>692.5</ele><time>2026-03-23T10:16:06.001Z</time></trkpt><trkpt lat="30.988572215039486" lon="-4.71008948061996"><ele>691.75</ele><time>2026-03-23T10:16:07.001Z</time></trkpt><trkpt lat="30.9885463778273" lon="-4.710256364553723"><ele>691.0</ele><time>2026-03-23T10:16:08.001Z</time></trkpt><trkpt lat="30.988520659679025" lon="-4.7104273516477555"><ele>691.0</ele><time>2026-03-23T10:16:09.001Z</time></trkpt><trkpt lat="30.98849602098165" lon="-4.710594683331789"><ele>691.0</ele><time>2026-03-23T10:16:10.001Z</time></trkpt><trkpt lat="30.988469401662076" lon="-4.710769657676959"><ele>691.0</ele><time>2026-03-23T10:16:11.001Z</time></trkpt><trkpt lat="30.988439852662" lon="-4.710952145647181"><ele>691.0</ele><time>2026-03-23T10:16:12.001Z</time></trkpt><trkpt lat="30.988400113533828" lon="-4.711140320104389"><ele>691.0</ele><time>2026-03-23T10:16:13.001Z</time></trkpt><trkpt lat="30.988366768847776" lon="-4.711324978571262"><ele>691.0</ele><time>2026-03-23T10:16:14.001Z</time></trkpt><trkpt lat="30.988334110557844" lon="-4.711495223414071"><ele>691.0</ele><time>2026-03-23T10:16:15.001Z</time></trkpt><trkpt lat="30.988291118838834" lon="-4.711679177552133"><ele>691.0</ele><time>2026-03-23T10:16:16.001Z</time></trkpt><trkpt lat="30.988246560093852" lon="-4.7118680180626855"><ele>691.0</ele><time>2026-03-23T10:16:17.001Z</time></trkpt><trkpt lat="30.988206055336843" lon="-4.712058834430143"><ele>691.3333333333334</ele><time>2026-03-23T10:16:18.001Z</time></trkpt><trkpt lat="30.988172508511813" lon="-4.712237099642595"><ele>691.6666666666666</ele><time>2026-03-23T10:16:19.001Z</time></trkpt><trkpt lat="30.988135210198838" lon="-4.712409392504982"><ele>692.0</ele><time>2026-03-23T10:16:20.001Z</time></trkpt><trkpt lat="30.988097820947868" lon="-4.712591105086301"><ele>692.6666666666666</ele><time>2026-03-23T10:16:21.001Z</time></trkpt><trkpt lat="30.988066982078003" lon="-4.712779759962701"><ele>693.3333333333334</ele><time>2026-03-23T10:16:22.001Z</time></trkpt><trkpt lat="30.988035383712717" lon="-4.712971821283298"><ele>694.0</ele><time>2026-03-23T10:16:23.001Z</time></trkpt><trkpt lat="30.988003397351516" lon="-4.713152109682886"><ele>694.0</ele><time>2026-03-23T10:16:24.001Z</time></trkpt><trkpt lat="30.98797771266904" lon="-4.713329755153066"><ele>694.0</ele><time>2026-03-23T10:16:25.001Z</time></trkpt><trkpt lat="30.987949184858362" lon="-4.713519650912208"><ele>694.0</ele><time>2026-03-23T10:16:26.001Z</time></trkpt><trkpt lat="30.987926224619816" lon="-4.7137037277159894"><ele>693.6666666666667</ele><time>2026-03-23T10:16:27.001Z</time></trkpt><trkpt lat="30.987899206293555" lon="-4.71389533714618"><ele>693.3333333333334</ele><time>2026-03-23T10:16:28.001Z</time></trkpt><trkpt lat="30.987876764746783" lon="-4.714096867217566"><ele>693.0</ele><time>2026-03-23T10:16:29.001Z</time></trkpt><trkpt lat="30.987863948420532" lon="-4.714299333693716"><ele>693.3333333333334</ele><time>2026-03-23T10:16:30.001Z</time></trkpt><trkpt lat="30.98784953807253" lon="-4.714509392307207"><ele>693.6666666666667</ele><time>2026-03-23T10:16:31.002Z</time></trkpt><trkpt lat="30.98784173358883" lon="-4.714692418800313"><ele>694.0</ele><time>2026-03-23T10:16:32.002Z</time></trkpt><trkpt lat="30.987838870746575" lon="-4.714848109848686"><ele>694.0</ele><time>2026-03-23T10:16:33.002Z</time></trkpt><trkpt lat="30.987837973572358" lon="-4.7149908115023065"><ele>694.0</ele><time>2026-03-23T10:16:34.002Z</time></trkpt><trkpt lat="30.987837712625026" lon="-4.715148967072496"><ele>694.0</ele><time>2026-03-23T10:16:35.002Z</time></trkpt><trkpt lat="30.9878409295442" lon="-4.71531419347443"><ele>694.0</ele><time>2026-03-23T10:16:36.002Z</time></trkpt><trkpt lat="30.98785052593037" lon="-4.71547505715908"><ele>694.0</ele><time>2026-03-23T10:16:37.002Z</time></trkpt><trkpt lat="30.987860389771345" lon="-4.715635935462053"><ele>694.0</ele><time>2026-03-23T10:16:38.002Z</time></trkpt><trkpt lat="30.987865904402803" lon="-4.71580419498068"><ele>694.0</ele><time>2026-03-23T10:16:39.002Z</time></trkpt><trkpt lat="30.98787194500015" lon="-4.7159802177977745"><ele>694.0</ele><time>2026-03-23T10:16:40.002Z</time></trkpt><trkpt lat="30.98788397007781" lon="-4.716166024760254"><ele>694.0</ele><time>2026-03-23T10:16:41.002Z</time></trkpt><trkpt lat="30.987897974525882" lon="-4.716361786955063"><ele>694.0</ele><time>2026-03-23T10:16:42.002Z</time></trkpt><trkpt lat="30.987912822475543" lon="-4.716555127687412"><ele>694.0</ele><time>2026-03-23T10:16:43.002Z</time></trkpt><trkpt lat="30.98792634010358" lon="-4.716743090162587"><ele>693.6666666666667</ele><time>2026-03-23T10:16:44.002Z</time></trkpt><trkpt lat="30.987941671593948" lon="-4.71692954444811"><ele>693.3333333333334</ele><time>2026-03-23T10:16:45.002Z</time></trkpt><trkpt lat="30.98795421412473" lon="-4.717110426506644"><ele>693.0</ele><time>2026-03-23T10:16:46.002Z</time></trkpt><trkpt lat="30.987965614261224" lon="-4.717294262632893"><ele>693.0</ele><time>2026-03-23T10:16:47.002Z</time></trkpt><trkpt lat="30.98798157690195" lon="-4.717479384621819"><ele>693.0</ele><time>2026-03-23T10:16:48.002Z</time></trkpt><trkpt lat="30.98799890984704" lon="-4.717652555565408"><ele>693.0</ele><time>2026-03-23T10:16:49.002Z</time></trkpt><trkpt lat="30.988014812338342" lon="-4.717826679967174"><ele>693.0</ele><time>2026-03-23T10:16:50.002Z</time></trkpt><trkpt lat="30.98802904877447" lon="-4.717994919181136"><ele>693.0</ele><time>2026-03-23T10:16:51.002Z</time></trkpt><trkpt lat="30.988042782733615" lon="-4.718162813299034"><ele>693.0</ele><time>2026-03-23T10:16:52.002Z</time></trkpt><trkpt lat="30.988058755048396" lon="-4.718328281835563"><ele>693.0</ele><time>2026-03-23T10:16:53.002Z</time></trkpt><trkpt lat="30.988069941401825" lon="-4.718501334242381"><ele>692.6666666666666</ele><time>2026-03-23T10:16:54.002Z</time></trkpt><trkpt lat="30.988074380493565" lon="-4.7186870832557615"><ele>692.3333333333333</ele><time>2026-03-23T10:16:55.002Z</time></trkpt><trkpt lat="30.988065162088503" lon="-4.718868285604673"><ele>692.0</ele><time>2026-03-23T10:16:56.002Z</time></trkpt><trkpt lat="30.988051835254304" lon="-4.719052268414313"><ele>692.0</ele><time>2026-03-23T10:16:57.002Z</time></trkpt><trkpt lat="30.98803547521872" lon="-4.719249430143031"><ele>692.0</ele><time>2026-03-23T10:16:58.002Z</time></trkpt><trkpt lat="30.98802188860724" lon="-4.7194486586230315"><ele>692.0</ele><time>2026-03-23T10:16:59.002Z</time></trkpt><trkpt lat="30.988003499742273" lon="-4.719650495596493"><ele>692.0</ele><time>2026-03-23T10:17:00.002Z</time></trkpt><trkpt lat="30.987982348663433" lon="-4.719846298473156"><ele>692.0</ele><time>2026-03-23T10:17:01.002Z</time></trkpt><trkpt lat="30.987958912461906" lon="-4.7200503463067625"><ele>692.0</ele><time>2026-03-23T10:17:02.002Z</time></trkpt><trkpt lat="30.987937435464293" lon="-4.720251837876581"><ele>692.0</ele><time>2026-03-23T10:17:03.002Z</time></trkpt><trkpt lat="30.987914904205084" lon="-4.720460996150218"><ele>692.0</ele><time>2026-03-23T10:17:04.002Z</time></trkpt><trkpt lat="30.98788475288123" lon="-4.720671083607043"><ele>692.0</ele><time>2026-03-23T10:17:05.002Z</time></trkpt><trkpt lat="30.987844798739815" lon="-4.720872527973427"><ele>692.0</ele><time>2026-03-23T10:17:06.002Z</time></trkpt><trkpt lat="30.987801405232005" lon="-4.721064548291249"><ele>692.0</ele><time>2026-03-23T10:17:07.002Z</time></trkpt><trkpt lat="30.9877630624131" lon="-4.7212615473175354"><ele>692.0</ele><time>2026-03-23T10:17:08.002Z</time></trkpt><trkpt lat="30.987731502200855" lon="-4.721454240672829"><ele>692.0</ele><time>2026-03-23T10:17:09.002Z</time></trkpt><trkpt lat="30.98770022274454" lon="-4.721627226079168"><ele>692.0</ele><time>2026-03-23T10:17:10.002Z</time></trkpt><trkpt lat="30.987669543771496" lon="-4.721793082843594"><ele>692.0</ele><time>2026-03-23T10:17:11.002Z</time></trkpt><trkpt lat="30.98763507049193" lon="-4.721971169593361"><ele>691.0</ele><time>2026-03-23T10:17:12.002Z</time></trkpt><trkpt lat="30.987593033848665" lon="-4.722168968048662"><ele>690.0</ele><time>2026-03-23T10:17:13.002Z</time></trkpt><trkpt lat="30.987555919872406" lon="-4.7223422655108065"><ele>689.0</ele><time>2026-03-23T10:17:14.002Z</time></trkpt><trkpt lat="30.987517072601317" lon="-4.7225022243881325"><ele>689.25</ele><time>2026-03-23T10:17:15.003Z</time></trkpt><trkpt lat="30.98748797567872" lon="-4.7226397180825375"><ele>689.5</ele><time>2026-03-23T10:17:16.003Z</time></trkpt><trkpt lat="30.987461085051496" lon="-4.722775920548803"><ele>689.75</ele><time>2026-03-23T10:17:17.003Z</time></trkpt><trkpt lat="30.987432135686067" lon="-4.722911212024686"><ele>690.0</ele><time>2026-03-23T10:17:18.003Z</time></trkpt><trkpt lat="30.98740006138698" lon="-4.723075248884613"><ele>690.3333333333334</ele><time>2026-03-23T10:17:19.003Z</time></trkpt><trkpt lat="30.98736632862321" lon="-4.723259984971739"><ele>690.6666666666667</ele><time>2026-03-23T10:17:20.003Z</time></trkpt><trkpt lat="30.9873282688213" lon="-4.723447185016174"><ele>691.0</ele><time>2026-03-23T10:17:21.001Z</time></trkpt><trkpt lat="30.987290995686163" lon="-4.723623263437253"><ele>691.1999999999999</ele><time>2026-03-23T10:17:22.001Z</time></trkpt><trkpt lat="30.987256318958195" lon="-4.7237727506997995"><ele>691.4</ele><time>2026-03-23T10:17:23.001Z</time></trkpt><trkpt lat="30.987238434513845" lon="-4.723908070540568"><ele>691.6</ele><time>2026-03-23T10:17:24.001Z</time></trkpt><trkpt lat="30.98724442604689" lon="-4.724021903671005"><ele>691.8</ele><time>2026-03-23T10:17:25.001Z</time></trkpt><trkpt lat="30.987255640333313" lon="-4.724130135571755"><ele>692.0</ele><time>2026-03-23T10:17:26.001Z</time></trkpt><trkpt lat="30.98724802349862" lon="-4.724227906452542"><ele>692.0</ele><time>2026-03-23T10:17:27.001Z</time></trkpt><trkpt lat="30.987221769231372" lon="-4.724302337188386"><ele>692.0</ele><time>2026-03-23T10:17:28.001Z</time></trkpt><trkpt lat="30.987184295586864" lon="-4.7243768089714475"><ele>692.0</ele><time>2026-03-23T10:17:29.001Z</time></trkpt><trkpt lat="30.987143610772375" lon="-4.72445890134387"><ele>692.0</ele><time>2026-03-23T10:17:30.001Z</time></trkpt><trkpt lat="30.98709771442579" lon="-4.724548097774768"><ele>692.0</ele><time>2026-03-23T10:17:31Z</time></trkpt><trkpt lat="30.987039110685195" lon="-4.724646642525999"><ele>692.0</ele><time>2026-03-23T10:17:32Z</time></trkpt><trkpt lat="30.986972291589208" lon="-4.724754974228104"><ele>691.6666666666666</ele><time>2026-03-23T10:17:33Z</time></trkpt><trkpt lat="30.98689344538548" lon="-4.724907960321951"><ele>691.3333333333334</ele><time>2026-03-23T10:17:34Z</time></trkpt><trkpt lat="30.986813902160506" lon="-4.725102876411277"><ele>691.0</ele><time>2026-03-23T10:17:35Z</time></trkpt><trkpt lat="30.986731249100217" lon="-4.725327516275305"><ele>690.6666666666667</ele><time>2026-03-23T10:17:36Z</time></trkpt><trkpt lat="30.986644053882927" lon="-4.7255478557764645"><ele>690.3333333333334</ele><time>2026-03-23T10:17:37Z</time></trkpt><trkpt lat="30.98655138707402" lon="-4.725760339756379"><ele>690.0</ele><time>2026-03-23T10:17:38Z</time></trkpt><trkpt lat="30.986460668388787" lon="-4.725963853305276"><ele>690.6666666666666</ele><time>2026-03-23T10:17:39Z</time></trkpt><trkpt lat="30.986391486213822" lon="-4.726139590024499"><ele>691.3333333333333</ele><time>2026-03-23T10:17:40Z</time></trkpt><trkpt lat="30.98631780534169" lon="-4.726315183492976"><ele>692.0</ele><time>2026-03-23T10:17:41.001Z</time></trkpt><trkpt lat="30.986245898943153" lon="-4.726502476233793"><ele>692.0</ele><time>2026-03-23T10:17:42.001Z</time></trkpt><trkpt lat="30.986170663035274" lon="-4.726686120914313"><ele>692.0</ele><time>2026-03-23T10:17:43.001Z</time></trkpt><trkpt lat="30.986099986177123" lon="-4.726853679990517"><ele>692.0</ele><time>2026-03-23T10:17:44.001Z</time></trkpt><trkpt lat="30.986038215483884" lon="-4.727019304739491"><ele>691.5</ele><time>2026-03-23T10:17:45.001Z</time></trkpt><trkpt lat="30.985981755515155" lon="-4.727170237201974"><ele>691.0</ele><time>2026-03-23T10:17:46.001Z</time></trkpt><trkpt lat="30.985918023324327" lon="-4.727333868639527"><ele>690.5</ele><time>2026-03-23T10:17:47.001Z</time></trkpt><trkpt lat="30.985859593152334" lon="-4.727495901812638"><ele>690.0</ele><time>2026-03-23T10:17:48.001Z</time></trkpt><trkpt lat="30.98579583816196" lon="-4.727661421680402"><ele>690.6666666666666</ele><time>2026-03-23T10:17:49.001Z</time></trkpt><trkpt lat="30.98573391732072" lon="-4.7278280745981744"><ele>691.3333333333333</ele><time>2026-03-23T10:17:50.001Z</time></trkpt><trkpt lat="30.985672848967337" lon="-4.728001142862089"><ele>692.0</ele><time>2026-03-23T10:17:51.001Z</time></trkpt><trkpt lat="30.985608457113415" lon="-4.728184009182333"><ele>692.0</ele><time>2026-03-23T10:17:52.001Z</time></trkpt><trkpt lat="30.985549737002618" lon="-4.728361793667264"><ele>692.0</ele><time>2026-03-23T10:17:53.001Z</time></trkpt><trkpt lat="30.985493578080643" lon="-4.728544282122406"><ele>692.0</ele><time>2026-03-23T10:17:54.001Z</time></trkpt><trkpt lat="30.985443567535736" lon="-4.728716138366815"><ele>691.6666666666666</ele><time>2026-03-23T10:17:55.001Z</time></trkpt><trkpt lat="30.98538067166235" lon="-4.728901240905379"><ele>691.3333333333334</ele><time>2026-03-23T10:17:56.001Z</time></trkpt><trkpt lat="30.985323451147742" lon="-4.729076146757998"><ele>691.0</ele><time>2026-03-23T10:17:57.001Z</time></trkpt><trkpt lat="30.98527005621127" lon="-4.72924517335717"><ele>690.6666666666667</ele><time>2026-03-23T10:17:58.001Z</time></trkpt><trkpt lat="30.98521025173866" lon="-4.72943536013285"><ele>690.3333333333334</ele><time>2026-03-23T10:17:59.001Z</time></trkpt><trkpt lat="30.985151152274945" lon="-4.729631577508366"><ele>690.0</ele><time>2026-03-23T10:18:00.001Z</time></trkpt><trkpt lat="30.98510550692075" lon="-4.729816247727865"><ele>690.0</ele><time>2026-03-23T10:18:01.001Z</time></trkpt><trkpt lat="30.985051501962758" lon="-4.730003173308256"><ele>690.0</ele><time>2026-03-23T10:18:02.001Z</time></trkpt><trkpt lat="30.98499066191661" lon="-4.730193761464345"><ele>690.0</ele><time>2026-03-23T10:18:03.001Z</time></trkpt><trkpt lat="30.984931611411284" lon="-4.730367425424011"><ele>690.0</ele><time>2026-03-23T10:18:04.001Z</time></trkpt><trkpt lat="30.984874883252445" lon="-4.730534129530133"><ele>690.0</ele><time>2026-03-23T10:18:05.001Z</time></trkpt><trkpt lat="30.984827858603136" lon="-4.730682772518434"><ele>690.0</ele><time>2026-03-23T10:18:06.001Z</time></trkpt><trkpt lat="30.984780333576495" lon="-4.730821466945119"><ele>690.0</ele><time>2026-03-23T10:18:07.001Z</time></trkpt><trkpt lat="30.984726825682788" lon="-4.730970866227679"><ele>689.75</ele><time>2026-03-23T10:18:08.001Z</time></trkpt><trkpt lat="30.984674220765918" lon="-4.731127154406839"><ele>689.5</ele><time>2026-03-23T10:18:09.001Z</time></trkpt><trkpt lat="30.98461413356896" lon="-4.731283031657163"><ele>689.25</ele><time>2026-03-23T10:18:10.001Z</time></trkpt><trkpt lat="30.984561346166956" lon="-4.731429112478101"><ele>689.0</ele><time>2026-03-23T10:18:11.001Z</time></trkpt><trkpt lat="30.98450490887224" lon="-4.731576067663894"><ele>689.0</ele><time>2026-03-23T10:18:12.001Z</time></trkpt><trkpt lat="30.984451541555366" lon="-4.73172933006367"><ele>689.0</ele><time>2026-03-23T10:18:13.001Z</time></trkpt><trkpt lat="30.9843985853584" lon="-4.731903764433311"><ele>689.0</ele><time>2026-03-23T10:18:14.001Z</time></trkpt><trkpt lat="30.984340635518844" lon="-4.732087562939555"><ele>689.0</ele><time>2026-03-23T10:18:15.001Z</time></trkpt><trkpt lat="30.984268935307057" lon="-4.732295087914533"><ele>689.0</ele><time>2026-03-23T10:18:16.001Z</time></trkpt><trkpt lat="30.984199823582244" lon="-4.732514634154674"><ele>689.0</ele><time>2026-03-23T10:18:17.001Z</time></trkpt><trkpt lat="30.98413027548655" lon="-4.732714338704317"><ele>688.6666666666666</ele><time>2026-03-23T10:18:18.001Z</time></trkpt><trkpt lat="30.984067989841407" lon="-4.732895538554488"><ele>688.3333333333334</ele><time>2026-03-23T10:18:19.001Z</time></trkpt><trkpt lat="30.984003981319287" lon="-4.733066644296766"><ele>688.0</ele><time>2026-03-23T10:18:20.001Z</time></trkpt><trkpt lat="30.983936486873844" lon="-4.733237893335087"><ele>688.0</ele><time>2026-03-23T10:18:21.001Z</time></trkpt><trkpt lat="30.983883414487163" lon="-4.733403706242702"><ele>688.0</ele><time>2026-03-23T10:18:22.001Z</time></trkpt><trkpt lat="30.983831802132062" lon="-4.733561124253667"><ele>688.0</ele><time>2026-03-23T10:18:23.001Z</time></trkpt><trkpt lat="30.98378518658483" lon="-4.733699503462697"><ele>688.0</ele><time>2026-03-23T10:18:24.001Z</time></trkpt><trkpt lat="30.983745659933284" lon="-4.733818261071663"><ele>688.4</ele><time>2026-03-23T10:18:25.001Z</time></trkpt><trkpt lat="30.983708647617636" lon="-4.7339304780899"><ele>688.8</ele><time>2026-03-23T10:18:26.001Z</time></trkpt><trkpt lat="30.983673620050638" lon="-4.734030580895369"><ele>689.2</ele><time>2026-03-23T10:18:27.001Z</time></trkpt><trkpt lat="30.983635312534105" lon="-4.734126712005768"><ele>689.6</ele><time>2026-03-23T10:18:28.001Z</time></trkpt><trkpt lat="30.98359138390977" lon="-4.73423245273614"><ele>690.0</ele><time>2026-03-23T10:18:29.001Z</time></trkpt><trkpt lat="30.98354340839564" lon="-4.7343536265273745"><ele>689.75</ele><time>2026-03-23T10:18:30.001Z</time></trkpt><trkpt lat="30.983493428177272" lon="-4.734498038484622"><ele>689.5</ele><time>2026-03-23T10:18:31.001Z</time></trkpt><trkpt lat="30.9834407623587" lon="-4.734654412306126"><ele>689.25</ele><time>2026-03-23T10:18:32.001Z</time></trkpt><trkpt lat="30.983380086841827" lon="-4.734829415118094"><ele>689.0</ele><time>2026-03-23T10:18:33.001Z</time></trkpt><trkpt lat="30.983312183460995" lon="-4.735012658716911"><ele>689.3333333333333</ele><time>2026-03-23T10:18:34.002Z</time></trkpt><trkpt lat="30.98323311272293" lon="-4.735227497330029"><ele>689.6666666666666</ele><time>2026-03-23T10:18:35.002Z</time></trkpt><trkpt lat="30.983141582248685" lon="-4.735465579900158"><ele>690.0</ele><time>2026-03-23T10:18:36.002Z</time></trkpt><trkpt lat="30.983058550880653" lon="-4.735676666112342"><ele>690.0</ele><time>2026-03-23T10:18:37.002Z</time></trkpt><trkpt lat="30.982969625786943" lon="-4.7359216573684275"><ele>690.0</ele><time>2026-03-23T10:18:38.002Z</time></trkpt><trkpt lat="30.982879085885322" lon="-4.736187922866374"><ele>688.5</ele><time>2026-03-23T10:18:39.002Z</time></trkpt><trkpt lat="30.98277806434511" lon="-4.736447121368209"><ele>687.0</ele><time>2026-03-23T10:18:40.002Z</time></trkpt><trkpt lat="30.982663142852097" lon="-4.7367298967502744"><ele>687.5</ele><time>2026-03-23T10:18:41.002Z</time></trkpt><trkpt lat="30.982565882623188" lon="-4.736984942522049"><ele>688.0</ele><time>2026-03-23T10:18:42.002Z</time></trkpt><trkpt lat="30.982482058822995" lon="-4.73721027333876"><ele>688.0</ele><time>2026-03-23T10:18:43.002Z</time></trkpt><trkpt lat="30.982375770789954" lon="-4.737457109966641"><ele>688.0</ele><time>2026-03-23T10:18:44.002Z</time></trkpt><trkpt lat="30.982305870616393" lon="-4.737733048778099"><ele>688.5</ele><time>2026-03-23T10:18:45.002Z</time></trkpt><trkpt lat="30.9822510099921" lon="-4.737999375714492"><ele>689.0</ele><time>2026-03-23T10:18:46.002Z</time></trkpt><trkpt lat="30.982193644805008" lon="-4.738241743977927"><ele>689.0</ele><time>2026-03-23T10:18:47.002Z</time></trkpt><trkpt lat="30.982116369621416" lon="-4.738460365521742"><ele>689.0</ele><time>2026-03-23T10:18:48.002Z</time></trkpt><trkpt lat="30.98197730263098" lon="-4.738675400964961"><ele>689.0</ele><time>2026-03-23T10:18:49.002Z</time></trkpt><trkpt lat="30.98185736424736" lon="-4.73890823738437"><ele>689.3333333333333</ele><time>2026-03-23T10:18:50.002Z</time></trkpt><trkpt lat="30.98176405606349" lon="-4.7391342003125505"><ele>689.6666666666666</ele><time>2026-03-23T10:18:51.002Z</time></trkpt><trkpt lat="30.981686663660533" lon="-4.739349736805266"><ele>690.0</ele><time>2026-03-23T10:18:52.002Z</time></trkpt><trkpt lat="30.981613121601526" lon="-4.739566182952817"><ele>689.3333333333334</ele><time>2026-03-23T10:18:53.002Z</time></trkpt><trkpt lat="30.981543372095263" lon="-4.7397716694742"><ele>688.6666666666667</ele><time>2026-03-23T10:18:54.002Z</time></trkpt><trkpt lat="30.981477312502754" lon="-4.739974148436305"><ele>688.0</ele><time>2026-03-23T10:18:55.002Z</time></trkpt><trkpt lat="30.9814063104261" lon="-4.740176635508637"><ele>687.6666666666667</ele><time>2026-03-23T10:18:56.002Z</time></trkpt><trkpt lat="30.98133279865103" lon="-4.740396549967305"><ele>687.3333333333334</ele><time>2026-03-23T10:18:57.002Z</time></trkpt><trkpt lat="30.981251426111726" lon="-4.740642121724866"><ele>687.0</ele><time>2026-03-23T10:18:58.002Z</time></trkpt><trkpt lat="30.981162204434753" lon="-4.7409163424907605"><ele>688.0</ele><time>2026-03-23T10:18:59.002Z</time></trkpt><trkpt lat="30.98106849730457" lon="-4.741201021863338"><ele>689.0</ele><time>2026-03-23T10:19:00.002Z</time></trkpt><trkpt lat="30.980984627528176" lon="-4.741460774160449"><ele>689.0</ele><time>2026-03-23T10:19:01.002Z</time></trkpt><trkpt lat="30.98089768319575" lon="-4.741701347816422"><ele>689.0</ele><time>2026-03-23T10:19:02.002Z</time></trkpt><trkpt lat="30.98082796308667" lon="-4.741927693012959"><ele>689.0</ele><time>2026-03-23T10:19:03.002Z</time></trkpt><trkpt lat="30.980763020930304" lon="-4.742134918715112"><ele>689.0</ele><time>2026-03-23T10:19:04.002Z</time></trkpt><trkpt lat="30.98069420427834" lon="-4.7423365140608835"><ele>689.0</ele><time>2026-03-23T10:19:05.002Z</time></trkpt><trkpt lat="30.9806279193636" lon="-4.742541563246642"><ele>689.0</ele><time>2026-03-23T10:19:06.002Z</time></trkpt><trkpt lat="30.980561889686108" lon="-4.742760271454038"><ele>688.0</ele><time>2026-03-23T10:19:07.002Z</time></trkpt><trkpt lat="30.9804923451207" lon="-4.742989102833224"><ele>687.0</ele><time>2026-03-23T10:19:08.002Z</time></trkpt><trkpt lat="30.98042164387114" lon="-4.743229107468034"><ele>686.0</ele><time>2026-03-23T10:19:09.002Z</time></trkpt><trkpt lat="30.98034490936579" lon="-4.743486936164562"><ele>686.0</ele><time>2026-03-23T10:19:10.002Z</time></trkpt><trkpt lat="30.98026132166227" lon="-4.74374017441162"><ele>686.0</ele><time>2026-03-23T10:19:11.002Z</time></trkpt><trkpt lat="30.98018377749002" lon="-4.743985320625787"><ele>686.0</ele><time>2026-03-23T10:19:12.002Z</time></trkpt><trkpt lat="30.9800908248285" lon="-4.744231431260315"><ele>686.0</ele><time>2026-03-23T10:19:13.002Z</time></trkpt><trkpt lat="30.98001783038557" lon="-4.744480133778786"><ele>686.0</ele><time>2026-03-23T10:19:14.002Z</time></trkpt><trkpt lat="30.979976760765442" lon="-4.744734288196241"><ele>686.0</ele><time>2026-03-23T10:19:15.002Z</time></trkpt><trkpt lat="30.97990225586692" lon="-4.744970327862297"><ele>686.0</ele><time>2026-03-23T10:19:16.002Z</time></trkpt><trkpt lat="30.97978181947273" lon="-4.745181293429539"><ele>686.3333333333333</ele><time>2026-03-23T10:19:17.002Z</time></trkpt><trkpt lat="30.979699145961508" lon="-4.745402579553512"><ele>686.6666666666666</ele><time>2026-03-23T10:19:18.002Z</time></trkpt><trkpt lat="30.97961862827815" lon="-4.745655755822897"><ele>687.0</ele><time>2026-03-23T10:19:19.002Z</time></trkpt><trkpt lat="30.979527405799175" lon="-4.745929454741397"><ele>687.0</ele><time>2026-03-23T10:19:20.002Z</time></trkpt><trkpt lat="30.979436038139166" lon="-4.746211248748945"><ele>687.0</ele><time>2026-03-23T10:19:21.003Z</time></trkpt><trkpt lat="30.979349076644553" lon="-4.746467313813115"><ele>687.0</ele><time>2026-03-23T10:19:22.003Z</time></trkpt><trkpt lat="30.979271856528815" lon="-4.746716768213185"><ele>687.0</ele><time>2026-03-23T10:19:23.003Z</time></trkpt><trkpt lat="30.979219101135467" lon="-4.746972884734394"><ele>686.5</ele><time>2026-03-23T10:19:24.003Z</time></trkpt><trkpt lat="30.979115970543276" lon="-4.747244592395556"><ele>686.0</ele><time>2026-03-23T10:19:25.003Z</time></trkpt><trkpt lat="30.979001676764998" lon="-4.747540864310556"><ele>686.0</ele><time>2026-03-23T10:19:26.003Z</time></trkpt><trkpt lat="30.978911387937295" lon="-4.747815211378323"><ele>686.0</ele><time>2026-03-23T10:19:27Z</time></trkpt><trkpt lat="30.978826712854612" lon="-4.748085311103588"><ele>686.0</ele><time>2026-03-23T10:19:28Z</time></trkpt><trkpt lat="30.978735948000466" lon="-4.748363232599856"><ele>686.0</ele><time>2026-03-23T10:19:29Z</time></trkpt><trkpt lat="30.978674553504444" lon="-4.748619601840272"><ele>686.0</ele><time>2026-03-23T10:19:30Z</time></trkpt><trkpt lat="30.97864356886755" lon="-4.748887977517757"><ele>686.0</ele><time>2026-03-23T10:19:31Z</time></trkpt><trkpt lat="30.978513263862805" lon="-4.749049739887644"><ele>686.0</ele><time>2026-03-23T10:19:32Z</time></trkpt><trkpt lat="30.978444226297484" lon="-4.749260056319139"><ele>686.0</ele><time>2026-03-23T10:19:33Z</time></trkpt><trkpt lat="30.97837343057636" lon="-4.7494781086460005"><ele>686.0</ele><time>2026-03-23T10:19:34Z</time></trkpt><trkpt lat="30.978301154437016" lon="-4.749697053254927"><ele>686.0</ele><time>2026-03-23T10:19:35Z</time></trkpt><trkpt lat="30.978224946323635" lon="-4.749938027866111"><ele>686.0</ele><time>2026-03-23T10:19:36Z</time></trkpt><trkpt lat="30.978138459820904" lon="-4.750202876916802"><ele>686.0</ele><time>2026-03-23T10:19:37Z</time></trkpt><trkpt lat="30.97805733027394" lon="-4.750446480903715"><ele>686.0</ele><time>2026-03-23T10:19:38Z</time></trkpt><trkpt lat="30.977971565934062" lon="-4.750703235651661"><ele>686.0</ele><time>2026-03-23T10:19:39Z</time></trkpt><trkpt lat="30.97788617955877" lon="-4.750965148924009"><ele>686.0</ele><time>2026-03-23T10:19:40Z</time></trkpt><trkpt lat="30.977821090926604" lon="-4.751185781800795"><ele>686.0</ele><time>2026-03-23T10:19:41Z</time></trkpt><trkpt lat="30.977757332014388" lon="-4.751404096871578"><ele>686.0</ele><time>2026-03-23T10:19:42Z</time></trkpt><trkpt lat="30.977694714098746" lon="-4.751621434271964"><ele>686.0</ele><time>2026-03-23T10:19:43Z</time></trkpt><trkpt lat="30.977634600554584" lon="-4.751839883031716"><ele>686.0</ele><time>2026-03-23T10:19:44Z</time></trkpt><trkpt lat="30.97757761497522" lon="-4.752060793727954"><ele>686.0</ele><time>2026-03-23T10:19:45Z</time></trkpt><trkpt lat="30.977514686462282" lon="-4.752290705719388"><ele>685.6666666666666</ele><time>2026-03-23T10:19:46Z</time></trkpt><trkpt lat="30.977447037360996" lon="-4.752540622348346"><ele>685.3333333333334</ele><time>2026-03-23T10:19:47Z</time></trkpt><trkpt lat="30.977382247338486" lon="-4.752770320450907"><ele>685.0</ele><time>2026-03-23T10:19:48Z</time></trkpt><trkpt lat="30.977323222023525" lon="-4.75298190651613"><ele>685.0</ele><time>2026-03-23T10:19:49Z</time></trkpt><trkpt lat="30.977269794238723" lon="-4.75319567931595"><ele>685.0</ele><time>2026-03-23T10:19:50Z</time></trkpt><trkpt lat="30.977214383105053" lon="-4.7534091742716935"><ele>685.0</ele><time>2026-03-23T10:19:51Z</time></trkpt><trkpt lat="30.97715935032044" lon="-4.753636193419121"><ele>685.0</ele><time>2026-03-23T10:19:52Z</time></trkpt><trkpt lat="30.977108600260085" lon="-4.753875722158134"><ele>685.0</ele><time>2026-03-23T10:19:53Z</time></trkpt><trkpt lat="30.97706135010041" lon="-4.754095684324163"><ele>685.0</ele><time>2026-03-23T10:19:54Z</time></trkpt><trkpt lat="30.977020733423867" lon="-4.754280386604115"><ele>684.6666666666667</ele><time>2026-03-23T10:19:55Z</time></trkpt><trkpt lat="30.976980050883512" lon="-4.754450616313178"><ele>684.3333333333334</ele><time>2026-03-23T10:19:56Z</time></trkpt><trkpt lat="30.97693681868215" lon="-4.754652508559436"><ele>684.0</ele><time>2026-03-23T10:19:57Z</time></trkpt><trkpt lat="30.976888888050862" lon="-4.754872105863322"><ele>684.0</ele><time>2026-03-23T10:19:58Z</time></trkpt><trkpt lat="30.976832431644354" lon="-4.7551048605329616"><ele>684.0</ele><time>2026-03-23T10:19:59Z</time></trkpt><trkpt lat="30.976778615071485" lon="-4.75534971833923"><ele>684.0</ele><time>2026-03-23T10:20:00Z</time></trkpt><trkpt lat="30.97673619886008" lon="-4.755589938539348"><ele>684.0</ele><time>2026-03-23T10:20:01Z</time></trkpt><trkpt lat="30.976696240704285" lon="-4.755833239894986"><ele>684.0</ele><time>2026-03-23T10:20:02Z</time></trkpt><trkpt lat="30.976659448829636" lon="-4.756079657718692"><ele>684.0</ele><time>2026-03-23T10:20:03Z</time></trkpt><trkpt lat="30.97662072992212" lon="-4.7563359669794485"><ele>684.0</ele><time>2026-03-23T10:20:04Z</time></trkpt><trkpt lat="30.976585530115756" lon="-4.7565740350838865"><ele>684.0</ele><time>2026-03-23T10:20:05Z</time></trkpt><trkpt lat="30.97654601587702" lon="-4.756825408520841"><ele>684.0</ele><time>2026-03-23T10:20:06Z</time></trkpt><trkpt lat="30.976506339287013" lon="-4.757091616681015"><ele>684.0</ele><time>2026-03-23T10:20:07Z</time></trkpt><trkpt lat="30.976468852920327" lon="-4.757350039715963"><ele>684.0</ele><time>2026-03-23T10:20:08Z</time></trkpt><trkpt lat="30.976431780705507" lon="-4.757595438742171"><ele>684.0</ele><time>2026-03-23T10:20:09Z</time></trkpt><trkpt lat="30.976397760943314" lon="-4.75782070569932"><ele>683.6666666666666</ele><time>2026-03-23T10:20:10Z</time></trkpt><trkpt lat="30.976367339410327" lon="-4.758021934948509"><ele>683.3333333333333</ele><time>2026-03-23T10:20:11.001Z</time></trkpt><trkpt lat="30.976338756564576" lon="-4.758203306263703"><ele>683.0</ele><time>2026-03-23T10:20:12.001Z</time></trkpt><trkpt lat="30.976316016057336" lon="-4.758384014818527"><ele>682.6666666666666</ele><time>2026-03-23T10:20:13.001Z</time></trkpt><trkpt lat="30.976288704228054" lon="-4.758581083377947"><ele>682.3333333333334</ele><time>2026-03-23T10:20:14.001Z</time></trkpt><trkpt lat="30.976249009259977" lon="-4.758802671829088"><ele>682.0</ele><time>2026-03-23T10:20:15.001Z</time></trkpt><trkpt lat="30.976209040034778" lon="-4.7590095262832275"><ele>682.0</ele><time>2026-03-23T10:20:16.001Z</time></trkpt><trkpt lat="30.976179036775584" lon="-4.759184425086916"><ele>682.0</ele><time>2026-03-23T10:20:17.001Z</time></trkpt><trkpt lat="30.97615101302974" lon="-4.7593442924189"><ele>682.0</ele><time>2026-03-23T10:20:18.001Z</time></trkpt><trkpt lat="30.976117741544858" lon="-4.759531867231305"><ele>683.0</ele><time>2026-03-23T10:20:19.001Z</time></trkpt><trkpt lat="30.976083447877016" lon="-4.759767604948601"><ele>684.0</ele><time>2026-03-23T10:20:20.001Z</time></trkpt><trkpt lat="30.976033680483194" lon="-4.760027833296908"><ele>685.0</ele><time>2026-03-23T10:20:21.001Z</time></trkpt><trkpt lat="30.975994805434393" lon="-4.7602486178266465"><ele>685.0</ele><time>2026-03-23T10:20:22.001Z</time></trkpt><trkpt lat="30.975950047887007" lon="-4.76047024092602"><ele>685.0</ele><time>2026-03-23T10:20:23.001Z</time></trkpt><trkpt lat="30.97590361254046" lon="-4.760674913383828"><ele>685.0</ele><time>2026-03-23T10:20:24.001Z</time></trkpt><trkpt lat="30.975857067569866" lon="-4.760880798755219"><ele>685.0</ele><time>2026-03-23T10:20:25.001Z</time></trkpt><trkpt lat="30.975812746825063" lon="-4.761089810137012"><ele>685.0</ele><time>2026-03-23T10:20:26.001Z</time></trkpt><trkpt lat="30.97576462371535" lon="-4.761298122608418"><ele>685.0</ele><time>2026-03-23T10:20:27.001Z</time></trkpt><trkpt lat="30.97571333361622" lon="-4.761503946666682"><ele>685.0</ele><time>2026-03-23T10:20:28.001Z</time></trkpt><trkpt lat="30.975671303563303" lon="-4.76171096029928"><ele>685.0</ele><time>2026-03-23T10:20:29.001Z</time></trkpt><trkpt lat="30.975635024956926" lon="-4.761897584241621"><ele>685.0</ele><time>2026-03-23T10:20:30.001Z</time></trkpt><trkpt lat="30.975593325262814" lon="-4.762078414599169"><ele>684.0</ele><time>2026-03-23T10:20:31.001Z</time></trkpt><trkpt lat="30.97555013520489" lon="-4.762258175941316"><ele>683.0</ele><time>2026-03-23T10:20:32.001Z</time></trkpt><trkpt lat="30.97551245437312" lon="-4.762437191052251"><ele>682.0</ele><time>2026-03-23T10:20:33.001Z</time></trkpt><trkpt lat="30.97547681785913" lon="-4.762602868313857"><ele>681.75</ele><time>2026-03-23T10:20:34.001Z</time></trkpt><trkpt lat="30.975439857223765" lon="-4.762746792228287"><ele>681.5</ele><time>2026-03-23T10:20:35.001Z</time></trkpt><trkpt lat="30.97540935335418" lon="-4.762892945301771"><ele>681.25</ele><time>2026-03-23T10:20:36.001Z</time></trkpt><trkpt lat="30.97537716488355" lon="-4.763050073582865"><ele>681.0</ele><time>2026-03-23T10:20:37.001Z</time></trkpt><trkpt lat="30.97534998597259" lon="-4.763201240300656"><ele>681.0</ele><time>2026-03-23T10:20:38.001Z</time></trkpt><trkpt lat="30.97531917484401" lon="-4.763348004556349"><ele>681.0</ele><time>2026-03-23T10:20:39.001Z</time></trkpt><trkpt lat="30.97528794814965" lon="-4.763496367036563"><ele>681.0</ele><time>2026-03-23T10:20:40.001Z</time></trkpt><trkpt lat="30.975259071841162" lon="-4.763642831183732"><ele>681.0</ele><time>2026-03-23T10:20:41.001Z</time></trkpt><trkpt lat="30.97522781332065" lon="-4.7637910287415615"><ele>682.25</ele><time>2026-03-23T10:20:42.001Z</time></trkpt><trkpt lat="30.975203421010846" lon="-4.763949669678841"><ele>683.5</ele><time>2026-03-23T10:20:43.001Z</time></trkpt><trkpt lat="30.975167582589187" lon="-4.764122523705501"><ele>684.75</ele><time>2026-03-23T10:20:44.001Z</time></trkpt><trkpt lat="30.97513171364621" lon="-4.764280939012716"><ele>686.0</ele><time>2026-03-23T10:20:45.001Z</time></trkpt><trkpt lat="30.97510513004252" lon="-4.764420968993117"><ele>686.4</ele><time>2026-03-23T10:20:46.001Z</time></trkpt><trkpt lat="30.97507781468353" lon="-4.764546862445404"><ele>686.8</ele><time>2026-03-23T10:20:47.001Z</time></trkpt><trkpt lat="30.975055994593458" lon="-4.764649429127891"><ele>687.1999999999999</ele><time>2026-03-23T10:20:48.001Z</time></trkpt><trkpt lat="30.97504332572418" lon="-4.7647575528105985"><ele>687.5999999999999</ele><time>2026-03-23T10:20:49.001Z</time></trkpt><trkpt lat="30.975038535385146" lon="-4.764874599486075"><ele>688.0</ele><time>2026-03-23T10:20:50.001Z</time></trkpt><trkpt lat="30.975022172679832" lon="-4.764993619822434"><ele>688.75</ele><time>2026-03-23T10:20:51.001Z</time></trkpt><trkpt lat="30.975013607765447" lon="-4.765137099988948"><ele>689.5</ele><time>2026-03-23T10:20:52.001Z</time></trkpt><trkpt lat="30.97501076832067" lon="-4.765289124534339"><ele>690.25</ele><time>2026-03-23T10:20:53.001Z</time></trkpt><trkpt lat="30.975000273930107" lon="-4.765448878824118"><ele>691.0</ele><time>2026-03-23T10:20:54.002Z</time></trkpt><trkpt lat="30.974979419488363" lon="-4.765600612884562"><ele>691.5</ele><time>2026-03-23T10:20:55.002Z</time></trkpt><trkpt lat="30.9749554196841" lon="-4.765752656828337"><ele>692.0</ele><time>2026-03-23T10:20:56.002Z</time></trkpt><trkpt lat="30.974935849791787" lon="-4.76591271288651"><ele>692.5</ele><time>2026-03-23T10:20:57.002Z</time></trkpt><trkpt lat="30.974911621982734" lon="-4.766060859831651"><ele>693.0</ele><time>2026-03-23T10:20:58.002Z</time></trkpt><trkpt lat="30.97489155706187" lon="-4.766203660160221"><ele>693.25</ele><time>2026-03-23T10:20:59.002Z</time></trkpt><trkpt lat="30.97486502086925" lon="-4.766355723077056"><ele>693.5</ele><time>2026-03-23T10:21:00.002Z</time></trkpt><trkpt lat="30.97484236110483" lon="-4.7665269357733795"><ele>693.75</ele><time>2026-03-23T10:21:01.002Z</time></trkpt><trkpt lat="30.97481779503231" lon="-4.766715234952257"><ele>694.0</ele><time>2026-03-23T10:21:02.002Z</time></trkpt><trkpt lat="30.974787606871676" lon="-4.766893383929288"><ele>693.5</ele><time>2026-03-23T10:21:03.002Z</time></trkpt><trkpt lat="30.974753947018613" lon="-4.767058852468555"><ele>693.0</ele><time>2026-03-23T10:21:04.002Z</time></trkpt><trkpt lat="30.974725482809454" lon="-4.767220825674874"><ele>692.5</ele><time>2026-03-23T10:21:05.002Z</time></trkpt><trkpt lat="30.97470601895137" lon="-4.767370738502682"><ele>692.0</ele><time>2026-03-23T10:21:06.002Z</time></trkpt><trkpt lat="30.974679841855277" lon="-4.76751535753186"><ele>692.0</ele><time>2026-03-23T10:21:07.002Z</time></trkpt><trkpt lat="30.974647185671728" lon="-4.767663329058309"><ele>692.0</ele><time>2026-03-23T10:21:08.002Z</time></trkpt><trkpt lat="30.97461421446058" lon="-4.767815783630753"><ele>692.0</ele><time>2026-03-23T10:21:09.002Z</time></trkpt><trkpt lat="30.97458423754175" lon="-4.767978090086706"><ele>692.0</ele><time>2026-03-23T10:21:10.002Z</time></trkpt><trkpt lat="30.97455869113523" lon="-4.768130877287762"><ele>692.25</ele><time>2026-03-23T10:21:11.002Z</time></trkpt><trkpt lat="30.974532057297466" lon="-4.768289033377283"><ele>692.5</ele><time>2026-03-23T10:21:12.002Z</time></trkpt><trkpt lat="30.97450181991394" lon="-4.768450193060059"><ele>692.75</ele><time>2026-03-23T10:21:13.002Z</time></trkpt><trkpt lat="30.97447942686071" lon="-4.7686087960970545"><ele>693.0</ele><time>2026-03-23T10:21:14.002Z</time></trkpt><trkpt lat="30.97445992939148" lon="-4.7687647688496675"><ele>693.0</ele><time>2026-03-23T10:21:15.002Z</time></trkpt><trkpt lat="30.974436400255268" lon="-4.768925497822149"><ele>693.0</ele><time>2026-03-23T10:21:16.002Z</time></trkpt><trkpt lat="30.97441023723888" lon="-4.769082361001298"><ele>693.0</ele><time>2026-03-23T10:21:17.002Z</time></trkpt><trkpt lat="30.97438352146543" lon="-4.7692390365958754"><ele>693.0</ele><time>2026-03-23T10:21:18.002Z</time></trkpt><trkpt lat="30.974353910496994" lon="-4.7694049363843884"><ele>692.3333333333334</ele><time>2026-03-23T10:21:19.002Z</time></trkpt><trkpt lat="30.97432254085745" lon="-4.769578905099369"><ele>691.6666666666667</ele><time>2026-03-23T10:21:20.002Z</time></trkpt><trkpt lat="30.97428903776997" lon="-4.769755213957859"><ele>691.0</ele><time>2026-03-23T10:21:21.002Z</time></trkpt><trkpt lat="30.974255712983307" lon="-4.76992593160884"><ele>691.0</ele><time>2026-03-23T10:21:22.002Z</time></trkpt><trkpt lat="30.974219831414135" lon="-4.770102752994597"><ele>691.0</ele><time>2026-03-23T10:21:23.002Z</time></trkpt><trkpt lat="30.974182722705823" lon="-4.770277844416283"><ele>691.0</ele><time>2026-03-23T10:21:24.002Z</time></trkpt><trkpt lat="30.974141012624024" lon="-4.770448602008769"><ele>690.75</ele><time>2026-03-23T10:21:25.002Z</time></trkpt><trkpt lat="30.974102005900285" lon="-4.770611853858654"><ele>690.5</ele><time>2026-03-23T10:21:26.002Z</time></trkpt><trkpt lat="30.974059586086963" lon="-4.770778566136805"><ele>690.25</ele><time>2026-03-23T10:21:27.002Z</time></trkpt><trkpt lat="30.974024146610425" lon="-4.770944085957189"><ele>690.0</ele><time>2026-03-23T10:21:28.002Z</time></trkpt><trkpt lat="30.973991124414628" lon="-4.771105538317298"><ele>689.25</ele><time>2026-03-23T10:21:29.002Z</time></trkpt><trkpt lat="30.9739617911592" lon="-4.771262344871781"><ele>688.5</ele><time>2026-03-23T10:21:30.002Z</time></trkpt><trkpt lat="30.97393530050562" lon="-4.771426158006399"><ele>687.75</ele><time>2026-03-23T10:21:31.002Z</time></trkpt><trkpt lat="30.973907113160177" lon="-4.771603987550504"><ele>687.0</ele><time>2026-03-23T10:21:32.002Z</time></trkpt><trkpt lat="30.973882067092735" lon="-4.771784015716732"><ele>686.75</ele><time>2026-03-23T10:21:33Z</time></trkpt><trkpt lat="30.973855700156847" lon="-4.771960410620846"><ele>686.5</ele><time>2026-03-23T10:21:34Z</time></trkpt><trkpt lat="30.973820659042115" lon="-4.772129430337402"><ele>686.25</ele><time>2026-03-23T10:21:35Z</time></trkpt><trkpt lat="30.973788401916153" lon="-4.772295406616634"><ele>686.0</ele><time>2026-03-23T10:21:36Z</time></trkpt><trkpt lat="30.97376069992747" lon="-4.77246861334744"><ele>686.0</ele><time>2026-03-23T10:21:37Z</time></trkpt><trkpt lat="30.973731494567044" lon="-4.772644354504264"><ele>686.0</ele><time>2026-03-23T10:21:38Z</time></trkpt><trkpt lat="30.973706834714303" lon="-4.772821136929288"><ele>686.0</ele><time>2026-03-23T10:21:39Z</time></trkpt><trkpt lat="30.973677249400275" lon="-4.773001516048671"><ele>685.6666666666666</ele><time>2026-03-23T10:21:40Z</time></trkpt><trkpt lat="30.973650393856424" lon="-4.7731898745967545"><ele>685.3333333333334</ele><time>2026-03-23T10:21:41Z</time></trkpt><trkpt lat="30.97362234456641" lon="-4.773376208706343"><ele>685.0</ele><time>2026-03-23T10:21:42Z</time></trkpt><trkpt lat="30.973595099438228" lon="-4.773556659206222"><ele>686.0</ele><time>2026-03-23T10:21:43Z</time></trkpt><trkpt lat="30.97357432472739" lon="-4.773741238686365"><ele>687.0</ele><time>2026-03-23T10:21:44Z</time></trkpt><trkpt lat="30.973555722102173" lon="-4.773919729878676"><ele>688.0</ele><time>2026-03-23T10:21:45Z</time></trkpt><trkpt lat="30.97353404296138" lon="-4.774104945573338"><ele>688.0</ele><time>2026-03-23T10:21:46Z</time></trkpt><trkpt lat="30.973513578453332" lon="-4.774291158356744"><ele>688.0</ele><time>2026-03-23T10:21:47Z</time></trkpt><trkpt lat="30.973496029026894" lon="-4.774473527246397"><ele>688.0</ele><time>2026-03-23T10:21:48Z</time></trkpt><trkpt lat="30.97347875556866" lon="-4.774660382741279"><ele>688.0</ele><time>2026-03-23T10:21:49Z</time></trkpt><trkpt lat="30.97346324461739" lon="-4.7748525133017115"><ele>688.0</ele><time>2026-03-23T10:21:50Z</time></trkpt><trkpt lat="30.973450165579656" lon="-4.775035066129353"><ele>688.0</ele><time>2026-03-23T10:21:51Z</time></trkpt><trkpt lat="30.97343607969757" lon="-4.775227707023273"><ele>687.3333333333334</ele><time>2026-03-23T10:21:52Z</time></trkpt><trkpt lat="30.97341954740191" lon="-4.775429524291139"><ele>686.6666666666666</ele><time>2026-03-23T10:21:53Z</time></trkpt><trkpt lat="30.973399785062725" lon="-4.775635541589954"><ele>686.0</ele><time>2026-03-23T10:21:54Z</time></trkpt><trkpt lat="30.973378013557845" lon="-4.775840006477698"><ele>685.6666666666666</ele><time>2026-03-23T10:21:55Z</time></trkpt><trkpt lat="30.973353840600225" lon="-4.776070424884871"><ele>685.3333333333334</ele><time>2026-03-23T10:21:56Z</time></trkpt><trkpt lat="30.9733350185575" lon="-4.776324445967612"><ele>685.0</ele><time>2026-03-23T10:21:57Z</time></trkpt><trkpt lat="30.97330303510176" lon="-4.776616155629095"><ele>685.0</ele><time>2026-03-23T10:21:58Z</time></trkpt><trkpt lat="30.97327489233038" lon="-4.77688070769164"><ele>685.0</ele><time>2026-03-23T10:21:59Z</time></trkpt><trkpt lat="30.973245360308763" lon="-4.777118601857165"><ele>685.0</ele><time>2026-03-23T10:22:00Z</time></trkpt><trkpt lat="30.973214711184628" lon="-4.777343517887107"><ele>685.0</ele><time>2026-03-23T10:22:01Z</time></trkpt><trkpt lat="30.97318772857532" lon="-4.777565283709585"><ele>685.0</ele><time>2026-03-23T10:22:02Z</time></trkpt><trkpt lat="30.97316652464967" lon="-4.777775483146776"><ele>685.0</ele><time>2026-03-23T10:22:03Z</time></trkpt><trkpt lat="30.973149410566986" lon="-4.777983737542546"><ele>685.3333333333334</ele><time>2026-03-23T10:22:04Z</time></trkpt><trkpt lat="30.97313188961002" lon="-4.7781824360917895"><ele>685.6666666666666</ele><time>2026-03-23T10:22:05Z</time></trkpt><trkpt lat="30.973122801583045" lon="-4.77836213824491"><ele>686.0</ele><time>2026-03-23T10:22:06Z</time></trkpt><trkpt lat="30.97311113276571" lon="-4.778527954992367"><ele>685.5</ele><time>2026-03-23T10:22:07Z</time></trkpt><trkpt lat="30.973097024476857" lon="-4.778695650314255"><ele>685.0</ele><time>2026-03-23T10:22:08Z</time></trkpt><trkpt lat="30.973084419159584" lon="-4.77886810462585"><ele>684.5</ele><time>2026-03-23T10:22:09Z</time></trkpt><trkpt lat="30.97307543506788" lon="-4.779013769732217"><ele>684.0</ele><time>2026-03-23T10:22:10Z</time></trkpt><trkpt lat="30.973066600722824" lon="-4.779161746723568"><ele>684.0</ele><time>2026-03-23T10:22:11Z</time></trkpt><trkpt lat="30.973060269868025" lon="-4.779328740634651"><ele>684.0</ele><time>2026-03-23T10:22:12Z</time></trkpt><trkpt lat="30.9730562530011" lon="-4.779501494553562"><ele>684.0</ele><time>2026-03-23T10:22:13Z</time></trkpt><trkpt lat="30.973051004465358" lon="-4.779679236073192"><ele>684.0</ele><time>2026-03-23T10:22:14.001Z</time></trkpt><trkpt lat="30.973046180447888" lon="-4.779862323400281"><ele>685.0</ele><time>2026-03-23T10:22:15.001Z</time></trkpt><trkpt lat="30.973039406842574" lon="-4.78005477137663"><ele>686.0</ele><time>2026-03-23T10:22:16.001Z</time></trkpt><trkpt lat="30.973029761376186" lon="-4.78023914295038"><ele>687.0</ele><time>2026-03-23T10:22:17.001Z</time></trkpt><trkpt lat="30.973021599559925" lon="-4.78042518833984"><ele>687.0</ele><time>2026-03-23T10:22:18.001Z</time></trkpt><trkpt lat="30.973015386090346" lon="-4.780612973979796"><ele>687.0</ele><time>2026-03-23T10:22:19.001Z</time></trkpt><trkpt lat="30.97300419953168" lon="-4.780796278081855"><ele>687.0</ele><time>2026-03-23T10:22:20.001Z</time></trkpt><trkpt lat="30.972988972323005" lon="-4.780989891524008"><ele>687.0</ele><time>2026-03-23T10:22:21.001Z</time></trkpt><trkpt lat="30.972973551792613" lon="-4.781179836163993"><ele>687.0</ele><time>2026-03-23T10:22:22.001Z</time></trkpt><trkpt lat="30.972960062515025" lon="-4.781369636939131"><ele>687.0</ele><time>2026-03-23T10:22:23.001Z</time></trkpt><trkpt lat="30.972948730476375" lon="-4.781564047844143"><ele>687.0</ele><time>2026-03-23T10:22:24.001Z</time></trkpt><trkpt lat="30.97293606055132" lon="-4.78176431770497"><ele>687.0</ele><time>2026-03-23T10:22:25.001Z</time></trkpt><trkpt lat="30.97291879055509" lon="-4.781973028224255"><ele>687.0</ele><time>2026-03-23T10:22:26.001Z</time></trkpt><trkpt lat="30.972912515824312" lon="-4.782183832483848"><ele>687.0</ele><time>2026-03-23T10:22:27.001Z</time></trkpt><trkpt lat="30.972895531194784" lon="-4.7824000270413825"><ele>687.0</ele><time>2026-03-23T10:22:28.001Z</time></trkpt><trkpt lat="30.97289194555999" lon="-4.782621934819255"><ele>687.0</ele><time>2026-03-23T10:22:29.001Z</time></trkpt><trkpt lat="30.972886488060055" lon="-4.7828457641492985"><ele>687.6666666666666</ele><time>2026-03-23T10:22:30.001Z</time></trkpt><trkpt lat="30.972873531252546" lon="-4.783076689654501"><ele>688.3333333333333</ele><time>2026-03-23T10:22:31.001Z</time></trkpt><trkpt lat="30.972863143889793" lon="-4.78330404369348"><ele>689.0</ele><time>2026-03-23T10:22:32.001Z</time></trkpt><trkpt lat="30.972853132019225" lon="-4.783535029839359"><ele>689.0</ele><time>2026-03-23T10:22:33.001Z</time></trkpt><trkpt lat="30.97283842096187" lon="-4.783766447070947"><ele>689.0</ele><time>2026-03-23T10:22:34.001Z</time></trkpt><trkpt lat="30.972819616548637" lon="-4.783998065419369"><ele>689.0</ele><time>2026-03-23T10:22:35.001Z</time></trkpt><trkpt lat="30.972801153665742" lon="-4.784239898129842"><ele>689.6666666666666</ele><time>2026-03-23T10:22:36.001Z</time></trkpt><trkpt lat="30.9727840684243" lon="-4.7844786988070265"><ele>690.3333333333334</ele><time>2026-03-23T10:22:37.001Z</time></trkpt><trkpt lat="30.97277025590856" lon="-4.784717070936256"><ele>691.0</ele><time>2026-03-23T10:22:38.001Z</time></trkpt><trkpt lat="30.97274638729534" lon="-4.7849417593226"><ele>691.0</ele><time>2026-03-23T10:22:39.001Z</time></trkpt><trkpt lat="30.972717722488802" lon="-4.785170892265152"><ele>691.0</ele><time>2026-03-23T10:22:40.001Z</time></trkpt><trkpt lat="30.972694875191067" lon="-4.785414000878573"><ele>691.0</ele><time>2026-03-23T10:22:41.001Z</time></trkpt><trkpt lat="30.972676648734957" lon="-4.785654277914417"><ele>691.0</ele><time>2026-03-23T10:22:42.001Z</time></trkpt><trkpt lat="30.97266336304913" lon="-4.785883375358373"><ele>691.0</ele><time>2026-03-23T10:22:43.001Z</time></trkpt><trkpt lat="30.97265116799091" lon="-4.786096149878106"><ele>691.0</ele><time>2026-03-23T10:22:44.001Z</time></trkpt><trkpt lat="30.972637774950357" lon="-4.786328338378989"><ele>691.0</ele><time>2026-03-23T10:22:45.001Z</time></trkpt><trkpt lat="30.97262365124818" lon="-4.7865564943165895"><ele>691.0</ele><time>2026-03-23T10:22:46.001Z</time></trkpt><trkpt lat="30.972613160938117" lon="-4.786780579077904"><ele>691.0</ele><time>2026-03-23T10:22:47.001Z</time></trkpt><trkpt lat="30.972605941717525" lon="-4.787007078335595"><ele>691.6666666666667</ele><time>2026-03-23T10:22:48.001Z</time></trkpt><trkpt lat="30.972595150646928" lon="-4.787235934238284"><ele>692.3333333333334</ele><time>2026-03-23T10:22:49.001Z</time></trkpt><trkpt lat="30.972579539074815" lon="-4.787460768952364"><ele>693.0</ele><time>2026-03-23T10:22:50.001Z</time></trkpt><trkpt lat="30.972565571783402" lon="-4.787698435808487"><ele>693.0</ele><time>2026-03-23T10:22:51.001Z</time></trkpt><trkpt lat="30.972550172616682" lon="-4.787942687867632"><ele>693.0</ele><time>2026-03-23T10:22:52.001Z</time></trkpt><trkpt lat="30.97253405966188" lon="-4.788171358904258"><ele>693.0</ele><time>2026-03-23T10:22:53.001Z</time></trkpt><trkpt lat="30.972509760571114" lon="-4.788403504401863"><ele>693.6666666666666</ele><time>2026-03-23T10:22:54.002Z</time></trkpt><trkpt lat="30.972475447660656" lon="-4.7886416522528314"><ele>694.3333333333333</ele><time>2026-03-23T10:22:55.002Z</time></trkpt><trkpt lat="30.97245109913253" lon="-4.788878426999708"><ele>695.0</ele><time>2026-03-23T10:22:56.002Z</time></trkpt><trkpt lat="30.972425012981926" lon="-4.789114606018705"><ele>695.3333333333333</ele><time>2026-03-23T10:22:57.002Z</time></trkpt><trkpt lat="30.97240141065474" lon="-4.789343496933905"><ele>695.6666666666666</ele><time>2026-03-23T10:22:58.002Z</time></trkpt><trkpt lat="30.97237423917788" lon="-4.789572420959543"><ele>696.0</ele><time>2026-03-23T10:22:59.002Z</time></trkpt><trkpt lat="30.972338762827622" lon="-4.78982592069942"><ele>696.0</ele><time>2026-03-23T10:23:00.002Z</time></trkpt><trkpt lat="30.972302320427513" lon="-4.790096716803642"><ele>696.0</ele><time>2026-03-23T10:23:01.002Z</time></trkpt><trkpt lat="30.972254864797424" lon="-4.790354914488907"><ele>696.3333333333334</ele><time>2026-03-23T10:23:02.002Z</time></trkpt><trkpt lat="30.9722061038816" lon="-4.7905838917160946"><ele>696.6666666666667</ele><time>2026-03-23T10:23:03.002Z</time></trkpt><trkpt lat="30.97215070610143" lon="-4.790792845722693"><ele>697.0</ele><time>2026-03-23T10:23:04.002Z</time></trkpt><trkpt lat="30.97209793521156" lon="-4.790991129016072"><ele>697.6666666666667</ele><time>2026-03-23T10:23:05.002Z</time></trkpt><trkpt lat="30.97206107329184" lon="-4.791184333064135"><ele>698.3333333333334</ele><time>2026-03-23T10:23:06.002Z</time></trkpt><trkpt lat="30.972042745720614" lon="-4.791391240315847"><ele>699.0</ele><time>2026-03-23T10:23:07.002Z</time></trkpt><trkpt lat="30.972043651604984" lon="-4.791601231855091"><ele>699.0</ele><time>2026-03-23T10:23:08.002Z</time></trkpt><trkpt lat="30.972037992037016" lon="-4.79177828395185"><ele>699.0</ele><time>2026-03-23T10:23:09.002Z</time></trkpt><trkpt lat="30.972018187610452" lon="-4.7919173850732255"><ele>699.0</ele><time>2026-03-23T10:23:10.002Z</time></trkpt><trkpt lat="30.97199708381243" lon="-4.792049892339923"><ele>699.0</ele><time>2026-03-23T10:23:11.002Z</time></trkpt><trkpt lat="30.971974134375593" lon="-4.792219860982925"><ele>699.0</ele><time>2026-03-23T10:23:12.002Z</time></trkpt><trkpt lat="30.971950651075574" lon="-4.792410298341337"><ele>699.0</ele><time>2026-03-23T10:23:13.002Z</time></trkpt><trkpt lat="30.971947419910144" lon="-4.792597783380777"><ele>699.0</ele><time>2026-03-23T10:23:14.002Z</time></trkpt><trkpt lat="30.971929197660405" lon="-4.792778968587309"><ele>699.0</ele><time>2026-03-23T10:23:15.002Z</time></trkpt><trkpt lat="30.97193227547737" lon="-4.79295490715876"><ele>699.0</ele><time>2026-03-23T10:23:16.002Z</time></trkpt><trkpt lat="30.971937353144696" lon="-4.79312208742735"><ele>699.0</ele><time>2026-03-23T10:23:17.002Z</time></trkpt><trkpt lat="30.97193455104788" lon="-4.793291181822078"><ele>699.0</ele><time>2026-03-23T10:23:18.002Z</time></trkpt><trkpt lat="30.97192862391629" lon="-4.7934566455867005"><ele>699.75</ele><time>2026-03-23T10:23:19.002Z</time></trkpt><trkpt lat="30.97191683648568" lon="-4.793597871821511"><ele>700.5</ele><time>2026-03-23T10:23:20.002Z</time></trkpt><trkpt lat="30.971899299550074" lon="-4.793725139063529"><ele>701.25</ele><time>2026-03-23T10:23:21.002Z</time></trkpt><trkpt lat="30.971884578373935" lon="-4.79384898973561"><ele>702.0</ele><time>2026-03-23T10:23:22.002Z</time></trkpt><trkpt lat="30.97187399636658" lon="-4.793997772056129"><ele>702.0</ele><time>2026-03-23T10:23:23.002Z</time></trkpt><trkpt lat="30.97186427407014" lon="-4.794148088097699"><ele>702.0</ele><time>2026-03-23T10:23:24.002Z</time></trkpt><trkpt lat="30.97185520332131" lon="-4.794289730717764"><ele>702.0</ele><time>2026-03-23T10:23:25.002Z</time></trkpt><trkpt lat="30.9718434279575" lon="-4.794403774152327"><ele>702.0</ele><time>2026-03-23T10:23:26.002Z</time></trkpt><trkpt lat="30.97183837914892" lon="-4.79448614216936"><ele>702.0</ele><time>2026-03-23T10:23:27.002Z</time></trkpt><trkpt lat="30.971829750814106" lon="-4.794585720997316"><ele>702.0</ele><time>2026-03-23T10:23:29.002Z</time></trkpt><trkpt lat="30.97181371737454" lon="-4.794691909981622"><ele>702.0</ele><time>2026-03-23T10:23:31.002Z</time></trkpt><trkpt lat="30.971795799459294" lon="-4.794773752933093"><ele>702.0</ele><time>2026-03-23T10:23:32.002Z</time></trkpt><trkpt lat="30.97176443033179" lon="-4.7948510647063545"><ele>702.0</ele><time>2026-03-23T10:23:33.002Z</time></trkpt><trkpt lat="30.971668609531243" lon="-4.794925584752749"><ele>702.0</ele><time>2026-03-23T10:23:35.002Z</time></trkpt><trkpt lat="30.971602650930382" lon="-4.794955181716717"><ele>702.0</ele><time>2026-03-23T10:23:36.003Z</time></trkpt><trkpt lat="30.97153007155497" lon="-4.794970668414346"><ele>702.0</ele><time>2026-03-23T10:23:37.003Z</time></trkpt><trkpt lat="30.971459187235705" lon="-4.794971187420243"><ele>702.0</ele><time>2026-03-23T10:23:38.003Z</time></trkpt><trkpt lat="30.971371809395116" lon="-4.794964351596475"><ele>702.0</ele><time>2026-03-23T10:23:39Z</time></trkpt><trkpt lat="30.971274930509892" lon="-4.794944086474638"><ele>702.0</ele><time>2026-03-23T10:23:40Z</time></trkpt><trkpt lat="30.971163139466128" lon="-4.79490169238975"><ele>702.0</ele><time>2026-03-23T10:23:41Z</time></trkpt><trkpt lat="30.971041009379736" lon="-4.794840991971067"><ele>702.0</ele><time>2026-03-23T10:23:42Z</time></trkpt><trkpt lat="30.97091791594054" lon="-4.794777496692325"><ele>702.0</ele><time>2026-03-23T10:23:43Z</time></trkpt><trkpt lat="30.970790863737758" lon="-4.794695271961191"><ele>702.0</ele><time>2026-03-23T10:23:44Z</time></trkpt><trkpt lat="30.970662984457686" lon="-4.794631617899937"><ele>702.0</ele><time>2026-03-23T10:23:45Z</time></trkpt><trkpt lat="30.97053135641997" lon="-4.794554618029895"><ele>703.0</ele><time>2026-03-23T10:23:46Z</time></trkpt><trkpt lat="30.970407728477564" lon="-4.794445232776028"><ele>704.0</ele><time>2026-03-23T10:23:47Z</time></trkpt><trkpt lat="30.97029773275546" lon="-4.794296762625437"><ele>705.0</ele><time>2026-03-23T10:23:48Z</time></trkpt><trkpt lat="30.97019061911997" lon="-4.794127360223091"><ele>705.3333333333334</ele><time>2026-03-23T10:23:49Z</time></trkpt><trkpt lat="30.970073914055053" lon="-4.793960346013709"><ele>705.6666666666667</ele><time>2026-03-23T10:23:50Z</time></trkpt><trkpt lat="30.969952732989153" lon="-4.793807893785272"><ele>706.0</ele><time>2026-03-23T10:23:51Z</time></trkpt><trkpt lat="30.969843815439155" lon="-4.793668595252182"><ele>706.25</ele><time>2026-03-23T10:23:52Z</time></trkpt><trkpt lat="30.969733380430753" lon="-4.793545951254621"><ele>706.5</ele><time>2026-03-23T10:23:53Z</time></trkpt><trkpt lat="30.9696346763235" lon="-4.7934421758363035"><ele>706.75</ele><time>2026-03-23T10:23:54Z</time></trkpt><trkpt lat="30.969556159988606" lon="-4.793348050282701"><ele>707.0</ele><time>2026-03-23T10:23:55Z</time></trkpt><trkpt lat="30.969490866312995" lon="-4.7932630469706945"><ele>707.6</ele><time>2026-03-23T10:23:56Z</time></trkpt><trkpt lat="30.969428025264435" lon="-4.793174530245111"><ele>708.2</ele><time>2026-03-23T10:23:57Z</time></trkpt><trkpt lat="30.969361453311407" lon="-4.7930763422180815"><ele>708.8</ele><time>2026-03-23T10:23:58Z</time></trkpt><trkpt lat="30.969300035676977" lon="-4.792967515069609"><ele>709.4</ele><time>2026-03-23T10:23:59Z</time></trkpt><trkpt lat="30.969240010706713" lon="-4.792867361899219"><ele>710.0</ele><time>2026-03-23T10:24:00Z</time></trkpt><trkpt lat="30.969199293372178" lon="-4.792764945334417"><ele>711.6666666666666</ele><time>2026-03-23T10:24:01Z</time></trkpt><trkpt lat="30.96916087810351" lon="-4.7926442265173925"><ele>713.3333333333333</ele><time>2026-03-23T10:24:02Z</time></trkpt><trkpt lat="30.96911918067884" lon="-4.792536166603831"><ele>715.0</ele><time>2026-03-23T10:24:03Z</time></trkpt><trkpt lat="30.969078256055955" lon="-4.792467038154952"><ele>716.6666666666666</ele><time>2026-03-23T10:24:04Z</time></trkpt><trkpt lat="30.969026262453035" lon="-4.792412688011162"><ele>718.3333333333334</ele><time>2026-03-23T10:24:05Z</time></trkpt><trkpt lat="30.968962168715436" lon="-4.792368111799033"><ele>720.0</ele><time>2026-03-23T10:24:06Z</time></trkpt><trkpt lat="30.968893825896327" lon="-4.792312710850897"><ele>720.0</ele><time>2026-03-23T10:24:07Z</time></trkpt><trkpt lat="30.968829074513362" lon="-4.7922510266725"><ele>720.0</ele><time>2026-03-23T10:24:08Z</time></trkpt><trkpt lat="30.968771814369628" lon="-4.792201503999644"><ele>720.0</ele><time>2026-03-23T10:24:09Z</time></trkpt><trkpt lat="30.968711489724207" lon="-4.79215149339561"><ele>720.0</ele><time>2026-03-23T10:24:10Z</time></trkpt><trkpt lat="30.96865383276743" lon="-4.792089784176004"><ele>720.0</ele><time>2026-03-23T10:24:11Z</time></trkpt><trkpt lat="30.968593632802815" lon="-4.792021314055917"><ele>720.0</ele><time>2026-03-23T10:24:12Z</time></trkpt><trkpt lat="30.968528085973805" lon="-4.791954365759764"><ele>720.0</ele><time>2026-03-23T10:24:13Z</time></trkpt><trkpt lat="30.96841582646943" lon="-4.7919590040232345"><ele>720.0</ele><time>2026-03-23T10:24:14Z</time></trkpt><trkpt lat="30.96841063086477" lon="-4.79175911118192"><ele>720.0</ele><time>2026-03-23T10:24:15.001Z</time></trkpt><trkpt lat="30.968335379142843" lon="-4.791642858740973"><ele>720.0</ele><time>2026-03-23T10:24:16.001Z</time></trkpt><trkpt lat="30.968277588434276" lon="-4.791540276185821"><ele>720.8333333333334</ele><time>2026-03-23T10:24:17.001Z</time></trkpt><trkpt lat="30.968238712241487" lon="-4.791476005055383"><ele>721.6666666666666</ele><time>2026-03-23T10:24:18.001Z</time></trkpt><trkpt lat="30.968203715143108" lon="-4.791354640929879"><ele>722.5</ele><time>2026-03-23T10:24:20.001Z</time></trkpt><trkpt lat="30.968209487759026" lon="-4.79127086651495"><ele>723.3333333333333</ele><time>2026-03-23T10:24:21.001Z</time></trkpt><trkpt lat="30.968217483835755" lon="-4.791174789574031"><ele>724.1666666666666</ele><time>2026-03-23T10:24:22.001Z</time></trkpt><trkpt lat="30.968231040052665" lon="-4.7910429087091355"><ele>725.0</ele><time>2026-03-23T10:24:23.001Z</time></trkpt><trkpt lat="30.968234982865614" lon="-4.790884671417096"><ele>726.0</ele><time>2026-03-23T10:24:24.001Z</time></trkpt><trkpt lat="30.96822463709527" lon="-4.790739746953733"><ele>727.0</ele><time>2026-03-23T10:24:25.001Z</time></trkpt><trkpt lat="30.968217309689113" lon="-4.79062526024558"><ele>728.0</ele><time>2026-03-23T10:24:26.001Z</time></trkpt><trkpt lat="30.968216281124782" lon="-4.7905370662624005"><ele>729.0</ele><time>2026-03-23T10:24:27.001Z</time></trkpt><trkpt lat="30.968210956626407" lon="-4.79043505532457"><ele>730.0</ele><time>2026-03-23T10:24:28.001Z</time></trkpt><trkpt lat="30.96817731298924" lon="-4.7903283612351295"><ele>730.0</ele><time>2026-03-23T10:24:29.001Z</time></trkpt><trkpt lat="30.968121199337023" lon="-4.790221359989988"><ele>730.0</ele><time>2026-03-23T10:24:30.001Z</time></trkpt><trkpt lat="30.968049294145022" lon="-4.790127383364813"><ele>730.0</ele><time>2026-03-23T10:24:31.001Z</time></trkpt><trkpt lat="30.96797536271048" lon="-4.7900396217456445"><ele>730.0</ele><time>2026-03-23T10:24:32.001Z</time></trkpt><trkpt lat="30.967903128962863" lon="-4.789943605805084"><ele>730.0</ele><time>2026-03-23T10:24:33.001Z</time></trkpt><trkpt lat="30.9678411846631" lon="-4.78983196061039"><ele>731.6</ele><time>2026-03-23T10:24:34.001Z</time></trkpt><trkpt lat="30.967794599110906" lon="-4.789705723347769"><ele>733.2</ele><time>2026-03-23T10:24:35.001Z</time></trkpt><trkpt lat="30.967725507351364" lon="-4.7895738165973745"><ele>734.8</ele><time>2026-03-23T10:24:36.001Z</time></trkpt><trkpt lat="30.96764577362781" lon="-4.789466436213675"><ele>736.4</ele><time>2026-03-23T10:24:37.001Z</time></trkpt><trkpt lat="30.967583289096865" lon="-4.78941352171603"><ele>738.0</ele><time>2026-03-23T10:24:38.001Z</time></trkpt><trkpt lat="30.967536885263456" lon="-4.78935884187024"><ele>740.1666666666666</ele><time>2026-03-23T10:24:39.001Z</time></trkpt><trkpt lat="30.967491035604063" lon="-4.789276375293357"><ele>742.3333333333334</ele><time>2026-03-23T10:24:40.001Z</time></trkpt><trkpt lat="30.9674581556548" lon="-4.789195933258939"><ele>744.5</ele><time>2026-03-23T10:24:41.001Z</time></trkpt><trkpt lat="30.967436935600347" lon="-4.789119221967842"><ele>746.6666666666667</ele><time>2026-03-23T10:24:42.001Z</time></trkpt><trkpt lat="30.967385956795372" lon="-4.788997865113241"><ele>748.8333333333334</ele><time>2026-03-23T10:24:44.001Z</time></trkpt><trkpt lat="30.96733622796306" lon="-4.788948125173626"><ele>751.0</ele><time>2026-03-23T10:24:46.001Z</time></trkpt><trkpt lat="30.967331514710164" lon="-4.789042913394473"><ele>751.0</ele><time>2026-03-23T10:30:44.001Z</time></trkpt><trkpt lat="30.967399824293935" lon="-4.789091251175186"><ele>751.0</ele><time>2026-03-23T10:32:03.001Z</time></trkpt><trkpt lat="30.96745687026113" lon="-4.789159148647775"><ele>751.0</ele><time>2026-03-23T10:32:06.001Z</time></trkpt><trkpt lat="30.96750498835612" lon="-4.789254472382032"><ele>751.0</ele><time>2026-03-23T10:32:09.001Z</time></trkpt><trkpt lat="30.967538920679175" lon="-4.789330916706597"><ele>751.0</ele><time>2026-03-23T10:32:11.001Z</time></trkpt><trkpt lat="30.96759017708754" lon="-4.7894361148582725"><ele>751.0</ele><time>2026-03-23T10:32:13.001Z</time></trkpt><trkpt lat="30.96765646067093" lon="-4.789511948309094"><ele>748.4</ele><time>2026-03-23T10:32:15.001Z</time></trkpt><trkpt lat="30.9677246305129" lon="-4.789581175589494"><ele>745.8</ele><time>2026-03-23T10:32:17.001Z</time></trkpt><trkpt lat="30.967793656814955" lon="-4.789678743987927"><ele>743.1999999999999</ele><time>2026-03-23T10:32:19.001Z</time></trkpt><trkpt lat="30.967858274692343" lon="-4.7898050198739615"><ele>740.5999999999999</ele><time>2026-03-23T10:32:21.001Z</time></trkpt><trkpt lat="30.96788412615674" lon="-4.789873957372784"><ele>738.0</ele><time>2026-03-23T10:32:22.001Z</time></trkpt><trkpt lat="30.96794357054598" lon="-4.789994962852658"><ele>738.0</ele><time>2026-03-23T10:32:24.001Z</time></trkpt><trkpt lat="30.967977072467015" lon="-4.790058000517245"><ele>738.0</ele><time>2026-03-23T10:32:25.001Z</time></trkpt><trkpt lat="30.968055958679592" lon="-4.7901719283363455"><ele>738.0</ele><time>2026-03-23T10:32:27.001Z</time></trkpt><trkpt lat="30.968098443826207" lon="-4.790231934601711"><ele>738.0</ele><time>2026-03-23T10:32:28.001Z</time></trkpt><trkpt lat="30.96816283934168" lon="-4.790337411293609"><ele>738.0</ele><time>2026-03-23T10:32:30.001Z</time></trkpt><trkpt lat="30.968208771096204" lon="-4.7904582881364215"><ele>736.6666666666666</ele><time>2026-03-23T10:32:32.001Z</time></trkpt><trkpt lat="30.968229407013332" lon="-4.79053343863683"><ele>735.3333333333334</ele><time>2026-03-23T10:32:33.001Z</time></trkpt><trkpt lat="30.968237511024963" lon="-4.790616678403027"><ele>734.0</ele><time>2026-03-23T10:32:34.001Z</time></trkpt><trkpt lat="30.968240922565776" lon="-4.790702292901943"><ele>732.6666666666667</ele><time>2026-03-23T10:32:35.001Z</time></trkpt><trkpt lat="30.968242975411883" lon="-4.790802291469293"><ele>731.3333333333334</ele><time>2026-03-23T10:32:36.001Z</time></trkpt><trkpt lat="30.968247396351337" lon="-4.790922023737911"><ele>730.0</ele><time>2026-03-23T10:32:37.001Z</time></trkpt><trkpt lat="30.968244137422808" lon="-4.791043401802887"><ele>729.0</ele><time>2026-03-23T10:32:38.001Z</time></trkpt><trkpt lat="30.968246352746178" lon="-4.791164088086492"><ele>728.0</ele><time>2026-03-23T10:32:39.001Z</time></trkpt><trkpt lat="30.96824754731881" lon="-4.79129182004914"><ele>727.0</ele><time>2026-03-23T10:32:40.001Z</time></trkpt><trkpt lat="30.968251612128427" lon="-4.791400567332641"><ele>726.0</ele><time>2026-03-23T10:32:41.001Z</time></trkpt><trkpt lat="30.968265707223075" lon="-4.791488243917131"><ele>725.0</ele><time>2026-03-23T10:32:42.001Z</time></trkpt><trkpt lat="30.96833474791558" lon="-4.79159346000679"><ele>724.0</ele><time>2026-03-23T10:32:44.001Z</time></trkpt><trkpt lat="30.968404715577584" lon="-4.791688525736261"><ele>723.0</ele><time>2026-03-23T10:32:46.001Z</time></trkpt><trkpt lat="30.96844801838418" lon="-4.7917614090288385"><ele>722.0</ele><time>2026-03-23T10:32:47.001Z</time></trkpt><trkpt lat="30.968501667849033" lon="-4.791860665141585"><ele>721.0</ele><time>2026-03-23T10:32:48.001Z</time></trkpt><trkpt lat="30.968564434141964" lon="-4.791958468512809"><ele>720.0</ele><time>2026-03-23T10:32:49.001Z</time></trkpt><trkpt lat="30.968617834785313" lon="-4.7920314162090465"><ele>720.0</ele><time>2026-03-23T10:32:50.001Z</time></trkpt><trkpt lat="30.968663975871692" lon="-4.792089709897652"><ele>720.0</ele><time>2026-03-23T10:32:51.001Z</time></trkpt><trkpt lat="30.968749877544383" lon="-4.79218314540379"><ele>720.0</ele><time>2026-03-23T10:32:53.001Z</time></trkpt><trkpt lat="30.968802709094607" lon="-4.7922256792639715"><ele>720.0</ele><time>2026-03-23T10:32:54.001Z</time></trkpt><trkpt lat="30.968867133267803" lon="-4.792259649167417"><ele>720.0</ele><time>2026-03-23T10:32:55.001Z</time></trkpt><trkpt lat="30.96892612047425" lon="-4.792299561572368"><ele>720.0</ele><time>2026-03-23T10:32:56.001Z</time></trkpt><trkpt lat="30.968978098920257" lon="-4.792351873940898"><ele>720.0</ele><time>2026-03-23T10:32:57.001Z</time></trkpt><trkpt lat="30.96902734266473" lon="-4.7924002331299835"><ele>720.0</ele><time>2026-03-23T10:32:58.001Z</time></trkpt><trkpt lat="30.96912240139301" lon="-4.7924973740493675"><ele>720.0</ele><time>2026-03-23T10:33:00.001Z</time></trkpt><trkpt lat="30.969187125287736" lon="-4.792608194237358"><ele>720.0</ele><time>2026-03-23T10:33:02.001Z</time></trkpt><trkpt lat="30.969209572287784" lon="-4.792678036579151"><ele>720.0</ele><time>2026-03-23T10:33:03.001Z</time></trkpt><trkpt lat="30.969229346174625" lon="-4.792752488057759"><ele>720.0</ele><time>2026-03-23T10:33:04.001Z</time></trkpt><trkpt lat="30.969277803534773" lon="-4.792872040945087"><ele>718.3333333333334</ele><time>2026-03-23T10:33:06.001Z</time></trkpt><trkpt lat="30.969316828164082" lon="-4.7929415544264105"><ele>716.6666666666666</ele><time>2026-03-23T10:33:07.001Z</time></trkpt><trkpt lat="30.969364470916734" lon="-4.793029649021532"><ele>715.0</ele><time>2026-03-23T10:33:08.001Z</time></trkpt><trkpt lat="30.969433686414778" lon="-4.7931246177097515"><ele>713.3333333333333</ele><time>2026-03-23T10:33:09.001Z</time></trkpt><trkpt lat="30.969481402167684" lon="-4.793199010062298"><ele>711.6666666666666</ele><time>2026-03-23T10:33:10.002Z</time></trkpt><trkpt lat="30.969515901752864" lon="-4.793293005081989"><ele>710.0</ele><time>2026-03-23T10:33:11.002Z</time></trkpt><trkpt lat="30.969550152639194" lon="-4.793409216663013"><ele>709.25</ele><time>2026-03-23T10:33:12.002Z</time></trkpt><trkpt lat="30.96958744432556" lon="-4.793536366473303"><ele>708.5</ele><time>2026-03-23T10:33:13.002Z</time></trkpt><trkpt lat="30.969632072368437" lon="-4.793660526035525"><ele>707.75</ele><time>2026-03-23T10:33:14.002Z</time></trkpt><trkpt lat="30.969681411215987" lon="-4.793793791966619"><ele>707.0</ele><time>2026-03-23T10:33:15.002Z</time></trkpt><trkpt lat="30.969726411812545" lon="-4.793925368583692"><ele>707.0</ele><time>2026-03-23T10:33:16.002Z</time></trkpt><trkpt lat="30.96977005492199" lon="-4.794044486011119"><ele>707.0</ele><time>2026-03-23T10:33:17.002Z</time></trkpt><trkpt lat="30.969811414902594" lon="-4.794171457667906"><ele>707.0</ele><time>2026-03-23T10:33:18.002Z</time></trkpt><trkpt lat="30.969851809657175" lon="-4.794304912433378"><ele>707.0</ele><time>2026-03-23T10:33:19.002Z</time></trkpt><trkpt lat="30.969892766539644" lon="-4.794441471919232"><ele>706.5</ele><time>2026-03-23T10:33:20.002Z</time></trkpt><trkpt lat="30.969927230936328" lon="-4.794572386623682"><ele>706.0</ele><time>2026-03-23T10:33:21.002Z</time></trkpt><trkpt lat="30.969967588075825" lon="-4.794707039812342"><ele>705.5</ele><time>2026-03-23T10:33:22.002Z</time></trkpt><trkpt lat="30.970008244884397" lon="-4.794839305672169"><ele>705.0</ele><time>2026-03-23T10:33:23.002Z</time></trkpt><trkpt lat="30.97004767706682" lon="-4.794970019609929"><ele>705.0</ele><time>2026-03-23T10:33:24.002Z</time></trkpt><trkpt lat="30.97008834064664" lon="-4.795105565839716"><ele>705.0</ele><time>2026-03-23T10:33:25.002Z</time></trkpt><trkpt lat="30.97012900361883" lon="-4.795247520758744"><ele>705.0</ele><time>2026-03-23T10:33:26.002Z</time></trkpt><trkpt lat="30.970166166249694" lon="-4.795390576315832"><ele>705.0</ele><time>2026-03-23T10:33:27.002Z</time></trkpt><trkpt lat="30.970200384365647" lon="-4.795530557635249"><ele>704.5</ele><time>2026-03-23T10:33:28.002Z</time></trkpt><trkpt lat="30.97023091563097" lon="-4.795668676032696"><ele>704.0</ele><time>2026-03-23T10:33:29.002Z</time></trkpt><trkpt lat="30.970262633328083" lon="-4.795803580496368"><ele>703.5</ele><time>2026-03-23T10:33:30.002Z</time></trkpt><trkpt lat="30.9702897059081" lon="-4.7959373035445125"><ele>703.0</ele><time>2026-03-23T10:33:31.002Z</time></trkpt><trkpt lat="30.970316862709545" lon="-4.796065266132953"><ele>702.8</ele><time>2026-03-23T10:33:32.002Z</time></trkpt><trkpt lat="30.9703458445785" lon="-4.79618954811883"><ele>702.5999999999999</ele><time>2026-03-23T10:33:33.002Z</time></trkpt><trkpt lat="30.97037792539878" lon="-4.796312033066133"><ele>702.4000000000001</ele><time>2026-03-23T10:33:34.002Z</time></trkpt><trkpt lat="30.97040710072521" lon="-4.796433796488338"><ele>702.2</ele><time>2026-03-23T10:33:35.002Z</time></trkpt><trkpt lat="30.970434133971462" lon="-4.796553050878321"><ele>702.0</ele><time>2026-03-23T10:33:36.002Z</time></trkpt><trkpt lat="30.970462741317313" lon="-4.796666959601151"><ele>702.0</ele><time>2026-03-23T10:33:37.002Z</time></trkpt><trkpt lat="30.970490304220377" lon="-4.796765420053668"><ele>702.0</ele><time>2026-03-23T10:33:38.002Z</time></trkpt><trkpt lat="30.97051962279845" lon="-4.796876402605032"><ele>702.0</ele><time>2026-03-23T10:33:39.002Z</time></trkpt><trkpt lat="30.970557093311815" lon="-4.797021249545827"><ele>702.0</ele><time>2026-03-23T10:33:40.002Z</time></trkpt><trkpt lat="30.97059823534136" lon="-4.797187586907746"><ele>701.6666666666666</ele><time>2026-03-23T10:33:41.002Z</time></trkpt><trkpt lat="30.970648805610228" lon="-4.797375798624756"><ele>701.3333333333333</ele><time>2026-03-23T10:33:42.002Z</time></trkpt><trkpt lat="30.970701710062272" lon="-4.797588416796746"><ele>701.0</ele><time>2026-03-23T10:33:43.002Z</time></trkpt><trkpt lat="30.97074406311256" lon="-4.797782113076547"><ele>700.6666666666666</ele><time>2026-03-23T10:33:44.002Z</time></trkpt><trkpt lat="30.970791968819658" lon="-4.797970167645863"><ele>700.3333333333334</ele><time>2026-03-23T10:33:45.002Z</time></trkpt><trkpt lat="30.970828897400715" lon="-4.798136526958148"><ele>700.0</ele><time>2026-03-23T10:33:46.002Z</time></trkpt><trkpt lat="30.970864546026466" lon="-4.798301717640646"><ele>699.75</ele><time>2026-03-23T10:33:47.002Z</time></trkpt><trkpt lat="30.97089530025027" lon="-4.798455491195926"><ele>699.5</ele><time>2026-03-23T10:33:48.002Z</time></trkpt><trkpt lat="30.970922313823266" lon="-4.798605849857469"><ele>699.25</ele><time>2026-03-23T10:33:49.002Z</time></trkpt><trkpt lat="30.9709430175795" lon="-4.798740491911148"><ele>699.0</ele><time>2026-03-23T10:33:50.002Z</time></trkpt><trkpt lat="30.970955157112968" lon="-4.79886879406875"><ele>699.0</ele><time>2026-03-23T10:33:51.002Z</time></trkpt><trkpt lat="30.970962394517862" lon="-4.798990222573563"><ele>699.0</ele><time>2026-03-23T10:33:52.002Z</time></trkpt><trkpt lat="30.97096545033626" lon="-4.79911554175722"><ele>699.0</ele><time>2026-03-23T10:33:53.002Z</time></trkpt><trkpt lat="30.970960939580916" lon="-4.799247499968962"><ele>699.0</ele><time>2026-03-23T10:33:54.002Z</time></trkpt><trkpt lat="30.970954570865548" lon="-4.799375689838898"><ele>699.0</ele><time>2026-03-23T10:33:55.002Z</time></trkpt><trkpt lat="30.970918564159078" lon="-4.799499328924269"><ele>698.5</ele><time>2026-03-23T10:33:56.002Z</time></trkpt><trkpt lat="30.970892480259472" lon="-4.7996260582383785"><ele>698.0</ele><time>2026-03-23T10:33:57.002Z</time></trkpt><trkpt lat="30.97086717826963" lon="-4.799750077732041"><ele>697.5</ele><time>2026-03-23T10:33:58.002Z</time></trkpt><trkpt lat="30.97084168434911" lon="-4.799875037985666"><ele>697.0</ele><time>2026-03-23T10:33:59.003Z</time></trkpt><trkpt lat="30.970813913519613" lon="-4.800011158675726"><ele>697.0</ele><time>2026-03-23T10:34:00.003Z</time></trkpt><trkpt lat="30.97078769841816" lon="-4.80016504675271"><ele>697.0</ele><time>2026-03-23T10:34:01.003Z</time></trkpt><trkpt lat="30.970762897232284" lon="-4.800319192833857"><ele>697.0</ele><time>2026-03-23T10:34:02.003Z</time></trkpt><trkpt lat="30.97073891494652" lon="-4.80046824922715"><ele>697.0</ele><time>2026-03-23T10:34:03.003Z</time></trkpt><trkpt lat="30.970713173729163" lon="-4.8006282378543075"><ele>697.3333333333334</ele><time>2026-03-23T10:34:04.003Z</time></trkpt><trkpt lat="30.970685643992393" lon="-4.800799642310729"><ele>697.6666666666666</ele><time>2026-03-23T10:34:05.003Z</time></trkpt><trkpt lat="30.970656328093835" lon="-4.800984212653242"><ele>698.0</ele><time>2026-03-23T10:34:06.003Z</time></trkpt><trkpt lat="30.970629310723837" lon="-4.801150186545882"><ele>697.5</ele><time>2026-03-23T10:34:07.003Z</time></trkpt><trkpt lat="30.970595705884136" lon="-4.8013108605428165"><ele>697.0</ele><time>2026-03-23T10:34:08.001Z</time></trkpt><trkpt lat="30.970558495441416" lon="-4.801464004333639"><ele>696.5</ele><time>2026-03-23T10:34:09.001Z</time></trkpt><trkpt lat="30.97052806705429" lon="-4.801589235804065"><ele>696.0</ele><time>2026-03-23T10:34:10.001Z</time></trkpt><trkpt lat="30.97049692539092" lon="-4.8017174028433445"><ele>696.0</ele><time>2026-03-23T10:34:11.001Z</time></trkpt><trkpt lat="30.97047154012812" lon="-4.801821878769609"><ele>696.0</ele><time>2026-03-23T10:34:12.001Z</time></trkpt><trkpt lat="30.970442796837848" lon="-4.80194017502764"><ele>696.0</ele><time>2026-03-23T10:34:13.001Z</time></trkpt><trkpt lat="30.97041286395574" lon="-4.802063373841863"><ele>696.0</ele><time>2026-03-23T10:34:14.001Z</time></trkpt><trkpt lat="30.970378123079964" lon="-4.802206365269742"><ele>696.0</ele><time>2026-03-23T10:34:15.001Z</time></trkpt><trkpt lat="30.97034705535881" lon="-4.802334238210447"><ele>695.8</ele><time>2026-03-23T10:34:16.001Z</time></trkpt><trkpt lat="30.970314975829037" lon="-4.802466275694239"><ele>695.5999999999999</ele><time>2026-03-23T10:34:17.001Z</time></trkpt><trkpt lat="30.970280045129588" lon="-4.8026100484337375"><ele>695.4</ele><time>2026-03-23T10:34:18.001Z</time></trkpt><trkpt lat="30.970248602622625" lon="-4.802738819317648"><ele>695.2</ele><time>2026-03-23T10:34:19.001Z</time></trkpt><trkpt lat="30.970224239340332" lon="-4.802838487296056"><ele>695.0</ele><time>2026-03-23T10:34:20.001Z</time></trkpt><trkpt lat="30.970194023070487" lon="-4.802984895920503"><ele>695.0</ele><time>2026-03-23T10:34:21.001Z</time></trkpt><trkpt lat="30.970165617421465" lon="-4.803122043422614"><ele>695.0</ele><time>2026-03-23T10:34:22.001Z</time></trkpt><trkpt lat="30.97013462421491" lon="-4.803271684115317"><ele>695.0</ele><time>2026-03-23T10:34:23.001Z</time></trkpt><trkpt lat="30.970100484292963" lon="-4.803401024956174"><ele>695.0</ele><time>2026-03-23T10:34:24.001Z</time></trkpt><trkpt lat="30.970077502348403" lon="-4.803547478618289"><ele>695.0</ele><time>2026-03-23T10:34:25.001Z</time></trkpt><trkpt lat="30.970048635436687" lon="-4.803686853184408"><ele>695.0</ele><time>2026-03-23T10:34:26.001Z</time></trkpt><trkpt lat="30.970015559897057" lon="-4.803846547761643"><ele>695.0</ele><time>2026-03-23T10:34:27.001Z</time></trkpt><trkpt lat="30.969970987148457" lon="-4.8040438336526705"><ele>695.0</ele><time>2026-03-23T10:34:28.001Z</time></trkpt><trkpt lat="30.969918840792875" lon="-4.804231989396412"><ele>694.3333333333333</ele><time>2026-03-23T10:34:29.001Z</time></trkpt><trkpt lat="30.969869514155327" lon="-4.804409970983096"><ele>693.6666666666666</ele><time>2026-03-23T10:34:30.001Z</time></trkpt><trkpt lat="30.96982028330084" lon="-4.804587606948793"><ele>693.0</ele><time>2026-03-23T10:34:31.001Z</time></trkpt><trkpt lat="30.96977215542133" lon="-4.804761263127294"><ele>693.0</ele><time>2026-03-23T10:34:32.001Z</time></trkpt><trkpt lat="30.9697272701476" lon="-4.804923219257169"><ele>693.0</ele><time>2026-03-23T10:34:33.001Z</time></trkpt><trkpt lat="30.969677788703414" lon="-4.805101759405485"><ele>693.0</ele><time>2026-03-23T10:34:34.001Z</time></trkpt><trkpt lat="30.969627578091576" lon="-4.805282930552261"><ele>693.3333333333334</ele><time>2026-03-23T10:34:35.001Z</time></trkpt><trkpt lat="30.969571349915764" lon="-4.805485814419563"><ele>693.6666666666667</ele><time>2026-03-23T10:34:36.001Z</time></trkpt><trkpt lat="30.96951946070938" lon="-4.8056730423107465"><ele>694.0</ele><time>2026-03-23T10:34:37.001Z</time></trkpt><trkpt lat="30.969462442882186" lon="-4.80586499921815"><ele>694.3333333333334</ele><time>2026-03-23T10:34:38.001Z</time></trkpt><trkpt lat="30.969407873435376" lon="-4.80603988309931"><ele>694.6666666666666</ele><time>2026-03-23T10:34:39.001Z</time></trkpt><trkpt lat="30.96935163242024" lon="-4.806220124010187"><ele>695.0</ele><time>2026-03-23T10:34:40.001Z</time></trkpt><trkpt lat="30.969297008154864" lon="-4.806395183571962"><ele>695.0</ele><time>2026-03-23T10:34:41.001Z</time></trkpt><trkpt lat="30.969237497700828" lon="-4.80658593478617"><ele>695.0</ele><time>2026-03-23T10:34:42.001Z</time></trkpt><trkpt lat="30.96918101253971" lon="-4.806767100171449"><ele>695.0</ele><time>2026-03-23T10:34:43.001Z</time></trkpt><trkpt lat="30.969119520872972" lon="-4.806964322974361"><ele>695.0</ele><time>2026-03-23T10:34:44.001Z</time></trkpt><trkpt lat="30.969059667477616" lon="-4.8071562913296955"><ele>695.0</ele><time>2026-03-23T10:34:45.001Z</time></trkpt><trkpt lat="30.969003830927452" lon="-4.807335376420549"><ele>695.0</ele><time>2026-03-23T10:34:46.001Z</time></trkpt><trkpt lat="30.968948048162936" lon="-4.8075142890045415"><ele>695.0</ele><time>2026-03-23T10:34:47.001Z</time></trkpt><trkpt lat="30.96890038983295" lon="-4.807696372816251"><ele>695.0</ele><time>2026-03-23T10:34:48.001Z</time></trkpt><trkpt lat="30.96885578570959" lon="-4.807879177917671"><ele>695.0</ele><time>2026-03-23T10:34:49.001Z</time></trkpt><trkpt lat="30.968812943614033" lon="-4.8080547615273"><ele>695.0</ele><time>2026-03-23T10:34:50.001Z</time></trkpt><trkpt lat="30.968763830338816" lon="-4.808256046883307"><ele>695.0</ele><time>2026-03-23T10:34:51.001Z</time></trkpt><trkpt lat="30.96871441763176" lon="-4.808458559426376"><ele>695.0</ele><time>2026-03-23T10:34:52.001Z</time></trkpt><trkpt lat="30.96866539367483" lon="-4.808647654895786"><ele>694.3333333333333</ele><time>2026-03-23T10:34:53.001Z</time></trkpt><trkpt lat="30.96863185772578" lon="-4.8088208941837145"><ele>693.6666666666666</ele><time>2026-03-23T10:34:54.001Z</time></trkpt><trkpt lat="30.968593007836603" lon="-4.808994798398032"><ele>693.0</ele><time>2026-03-23T10:34:55.001Z</time></trkpt><trkpt lat="30.96853491574557" lon="-4.809158376658839"><ele>693.0</ele><time>2026-03-23T10:34:56.001Z</time></trkpt><trkpt lat="30.968492614116126" lon="-4.809318183332477"><ele>693.0</ele><time>2026-03-23T10:34:57.001Z</time></trkpt><trkpt lat="30.96844633564569" lon="-4.809494196896674"><ele>693.0</ele><time>2026-03-23T10:34:58.001Z</time></trkpt><trkpt lat="30.968414608819877" lon="-4.809671904601715"><ele>693.3333333333334</ele><time>2026-03-23T10:34:59.001Z</time></trkpt><trkpt lat="30.96835717366822" lon="-4.809868820002476"><ele>693.6666666666667</ele><time>2026-03-23T10:35:00.001Z</time></trkpt><trkpt lat="30.968286048932566" lon="-4.810090621543851"><ele>694.0</ele><time>2026-03-23T10:35:01.001Z</time></trkpt><trkpt lat="30.968217630841057" lon="-4.810308266084728"><ele>694.0</ele><time>2026-03-23T10:35:02.001Z</time></trkpt><trkpt lat="30.968155121040976" lon="-4.810507455458398"><ele>694.0</ele><time>2026-03-23T10:35:03.001Z</time></trkpt><trkpt lat="30.96809412831254" lon="-4.8107020078081"><ele>694.0</ele><time>2026-03-23T10:35:04.001Z</time></trkpt><trkpt lat="30.968034966929146" lon="-4.810890718603115"><ele>694.0</ele><time>2026-03-23T10:35:05.001Z</time></trkpt><trkpt lat="30.967974559781744" lon="-4.811083403089286"><ele>694.0</ele><time>2026-03-23T10:35:06.001Z</time></trkpt><trkpt lat="30.967913089859113" lon="-4.811279477574376"><ele>694.0</ele><time>2026-03-23T10:35:07.001Z</time></trkpt><trkpt lat="30.967851736909005" lon="-4.811475178941889"><ele>694.0</ele><time>2026-03-23T10:35:08.001Z</time></trkpt><trkpt lat="30.967786875881675" lon="-4.811682070249592"><ele>694.0</ele><time>2026-03-23T10:35:09.001Z</time></trkpt><trkpt lat="30.967724688631264" lon="-4.811880388200433"><ele>694.0</ele><time>2026-03-23T10:35:10.001Z</time></trkpt><trkpt lat="30.967684445275886" lon="-4.8120611645543985"><ele>695.0</ele><time>2026-03-23T10:35:11.001Z</time></trkpt><trkpt lat="30.967630003109512" lon="-4.812220163130112"><ele>696.0</ele><time>2026-03-23T10:35:12.001Z</time></trkpt><trkpt lat="30.967559287067328" lon="-4.812379721024517"><ele>697.0</ele><time>2026-03-23T10:35:13.001Z</time></trkpt><trkpt lat="30.96749986386277" lon="-4.812551623857485"><ele>698.3333333333334</ele><time>2026-03-23T10:35:14.001Z</time></trkpt><trkpt lat="30.967439012479705" lon="-4.81272757077408"><ele>699.6666666666666</ele><time>2026-03-23T10:35:15.001Z</time></trkpt><trkpt lat="30.96738063307663" lon="-4.812895284602165"><ele>701.0</ele><time>2026-03-23T10:35:16.001Z</time></trkpt><trkpt lat="30.967336889276194" lon="-4.813070481367559"><ele>701.0</ele><time>2026-03-23T10:35:17.001Z</time></trkpt><trkpt lat="30.967265077909122" lon="-4.813225889159049"><ele>701.0</ele><time>2026-03-23T10:35:18.001Z</time></trkpt><trkpt lat="30.967212115274382" lon="-4.813371778792423"><ele>701.0</ele><time>2026-03-23T10:35:19.002Z</time></trkpt><trkpt lat="30.967153931981073" lon="-4.8135320491274785"><ele>701.0</ele><time>2026-03-23T10:35:20.002Z</time></trkpt><trkpt lat="30.967108764926966" lon="-4.813697016363836"><ele>701.25</ele><time>2026-03-23T10:35:21.002Z</time></trkpt><trkpt lat="30.967052011769216" lon="-4.81385428922177"><ele>701.5</ele><time>2026-03-23T10:35:22.002Z</time></trkpt><trkpt lat="30.966980559566412" lon="-4.814009507339142"><ele>701.75</ele><time>2026-03-23T10:35:23.002Z</time></trkpt><trkpt lat="30.966922575249765" lon="-4.814169114606394"><ele>702.0</ele><time>2026-03-23T10:35:24.002Z</time></trkpt><trkpt lat="30.966865510217612" lon="-4.814326220591188"><ele>702.0</ele><time>2026-03-23T10:35:25.002Z</time></trkpt><trkpt lat="30.966813594664057" lon="-4.814486816545412"><ele>702.0</ele><time>2026-03-23T10:35:26.002Z</time></trkpt><trkpt lat="30.966790971330134" lon="-4.814652386763541"><ele>702.0</ele><time>2026-03-23T10:35:27.002Z</time></trkpt><trkpt lat="30.966745633500217" lon="-4.814818529922873"><ele>702.0</ele><time>2026-03-23T10:35:28.002Z</time></trkpt><trkpt lat="30.966710950856292" lon="-4.814982412786667"><ele>701.6666666666666</ele><time>2026-03-23T10:35:29.002Z</time></trkpt><trkpt lat="30.96665780535052" lon="-4.815155374914029"><ele>701.3333333333333</ele><time>2026-03-23T10:35:30.002Z</time></trkpt><trkpt lat="30.96661415114286" lon="-4.815344172551027"><ele>701.0</ele><time>2026-03-23T10:35:31.002Z</time></trkpt><trkpt lat="30.96657143725933" lon="-4.8155289034313755"><ele>701.0</ele><time>2026-03-23T10:35:32.002Z</time></trkpt><trkpt lat="30.966535564222617" lon="-4.815708387042315"><ele>701.0</ele><time>2026-03-23T10:35:33.002Z</time></trkpt><trkpt lat="30.96648249414639" lon="-4.815892334402968"><ele>701.0</ele><time>2026-03-23T10:35:34.002Z</time></trkpt><trkpt lat="30.966445446529693" lon="-4.816075688999449"><ele>701.0</ele><time>2026-03-23T10:35:35.002Z</time></trkpt><trkpt lat="30.96639638310849" lon="-4.816250448205278"><ele>701.0</ele><time>2026-03-23T10:35:36.002Z</time></trkpt><trkpt lat="30.966348321309088" lon="-4.816410234586697"><ele>701.0</ele><time>2026-03-23T10:35:37.002Z</time></trkpt><trkpt lat="30.966303655377388" lon="-4.816558959995649"><ele>701.0</ele><time>2026-03-23T10:35:38.002Z</time></trkpt><trkpt lat="30.966245044001806" lon="-4.816712414455213"><ele>700.6666666666666</ele><time>2026-03-23T10:35:39.002Z</time></trkpt><trkpt lat="30.966204327246253" lon="-4.816886535134123"><ele>700.3333333333334</ele><time>2026-03-23T10:35:40.002Z</time></trkpt><trkpt lat="30.966165241442013" lon="-4.81706107404306"><ele>700.0</ele><time>2026-03-23T10:35:41.002Z</time></trkpt><trkpt lat="30.966102475090405" lon="-4.8172294895429655"><ele>700.0</ele><time>2026-03-23T10:35:42.002Z</time></trkpt><trkpt lat="30.96605173358173" lon="-4.817392043549204"><ele>700.0</ele><time>2026-03-23T10:35:43.002Z</time></trkpt><trkpt lat="30.96600306680183" lon="-4.8175479511329184"><ele>700.0</ele><time>2026-03-23T10:35:44.002Z</time></trkpt><trkpt lat="30.965958036598295" lon="-4.8176922086909615"><ele>700.0</ele><time>2026-03-23T10:35:45.002Z</time></trkpt><trkpt lat="30.96591852440673" lon="-4.817818788889109"><ele>700.0</ele><time>2026-03-23T10:35:46.002Z</time></trkpt><trkpt lat="30.96587603124204" lon="-4.817956057602704"><ele>700.0</ele><time>2026-03-23T10:35:47.002Z</time></trkpt><trkpt lat="30.965835092729506" lon="-4.8180887519642726"><ele>700.0</ele><time>2026-03-23T10:35:48.002Z</time></trkpt><trkpt lat="30.96579190701212" lon="-4.818227207769627"><ele>700.0</ele><time>2026-03-23T10:35:49.002Z</time></trkpt><trkpt lat="30.965747242441942" lon="-4.818371857830598"><ele>700.0</ele><time>2026-03-23T10:35:50.002Z</time></trkpt><trkpt lat="30.96570181053712" lon="-4.818517944170491"><ele>700.0</ele><time>2026-03-23T10:35:51.002Z</time></trkpt><trkpt lat="30.965655732790985" lon="-4.8186655867007735"><ele>700.0</ele><time>2026-03-23T10:35:52.002Z</time></trkpt><trkpt lat="30.965607990626985" lon="-4.818818495758543"><ele>700.0</ele><time>2026-03-23T10:35:53.002Z</time></trkpt><trkpt lat="30.965558053438553" lon="-4.818980608074256"><ele>700.0</ele><time>2026-03-23T10:35:54.002Z</time></trkpt><trkpt lat="30.965508852462595" lon="-4.819143826961313"><ele>700.0</ele><time>2026-03-23T10:35:55.002Z</time></trkpt><trkpt lat="30.965457765582276" lon="-4.81931330213892"><ele>700.0</ele><time>2026-03-23T10:35:56.002Z</time></trkpt><trkpt lat="30.965406364788404" lon="-4.81948381868054"><ele>699.6666666666667</ele><time>2026-03-23T10:35:57.002Z</time></trkpt><trkpt lat="30.965355308943007" lon="-4.819652611992478"><ele>699.3333333333334</ele><time>2026-03-23T10:35:58.002Z</time></trkpt><trkpt lat="30.965297377345525" lon="-4.819843952312526"><ele>699.0</ele><time>2026-03-23T10:35:59.002Z</time></trkpt><trkpt lat="30.965243298528325" lon="-4.820023321952812"><ele>699.5</ele><time>2026-03-23T10:36:00.002Z</time></trkpt><trkpt lat="30.965198393706604" lon="-4.820172263120817"><ele>700.0</ele><time>2026-03-23T10:36:01.002Z</time></trkpt><trkpt lat="30.965153211429783" lon="-4.8203221245391425"><ele>700.5</ele><time>2026-03-23T10:36:02.002Z</time></trkpt><trkpt lat="30.965101666817343" lon="-4.82049312296817"><ele>701.0</ele><time>2026-03-23T10:36:03.002Z</time></trkpt><trkpt lat="30.96504647758225" lon="-4.8206768806695495"><ele>700.0</ele><time>2026-03-23T10:36:04.002Z</time></trkpt><trkpt lat="30.964986220456865" lon="-4.82087447206797"><ele>699.0</ele><time>2026-03-23T10:36:05.002Z</time></trkpt><trkpt lat="30.964940075245973" lon="-4.821076814056006"><ele>698.0</ele><time>2026-03-23T10:36:06.002Z</time></trkpt><trkpt lat="30.964913826467203" lon="-4.821280065043907"><ele>698.0</ele><time>2026-03-23T10:36:07.002Z</time></trkpt><trkpt lat="30.964866713855045" lon="-4.821455197103228"><ele>698.0</ele><time>2026-03-23T10:36:08.002Z</time></trkpt><trkpt lat="30.9648201560007" lon="-4.821622628491312"><ele>698.0</ele><time>2026-03-23T10:36:09.002Z</time></trkpt><trkpt lat="30.964773127775427" lon="-4.821790959069174"><ele>697.5</ele><time>2026-03-23T10:36:10.002Z</time></trkpt><trkpt lat="30.96474586019134" lon="-4.821962598595762"><ele>697.0</ele><time>2026-03-23T10:36:11.002Z</time></trkpt><trkpt lat="30.964688007357395" lon="-4.8221219552153975"><ele>696.5</ele><time>2026-03-23T10:36:12.002Z</time></trkpt><trkpt lat="30.96464846223151" lon="-4.822291339464883"><ele>696.0</ele><time>2026-03-23T10:36:13.002Z</time></trkpt><trkpt lat="30.964606545023397" lon="-4.822467279023418"><ele>696.0</ele><time>2026-03-23T10:36:14.001Z</time></trkpt><trkpt lat="30.964548680906674" lon="-4.822638553663607"><ele>696.0</ele><time>2026-03-23T10:36:15.001Z</time></trkpt><trkpt lat="30.964496926472957" lon="-4.822816476799236"><ele>696.0</ele><time>2026-03-23T10:36:16.001Z</time></trkpt><trkpt lat="30.96444966614611" lon="-4.822978166919296"><ele>697.0</ele><time>2026-03-23T10:36:17.001Z</time></trkpt><trkpt lat="30.964399010991105" lon="-4.823151770693928"><ele>698.0</ele><time>2026-03-23T10:36:18.001Z</time></trkpt><trkpt lat="30.964349665390024" lon="-4.823321138327251"><ele>699.0</ele><time>2026-03-23T10:36:19.001Z</time></trkpt><trkpt lat="30.964307249722925" lon="-4.823489587688439"><ele>699.0</ele><time>2026-03-23T10:36:20.001Z</time></trkpt><trkpt lat="30.96427549603121" lon="-4.823646484631666"><ele>699.0</ele><time>2026-03-23T10:36:21.001Z</time></trkpt><trkpt lat="30.96424295640079" lon="-4.8238080309232645"><ele>699.0</ele><time>2026-03-23T10:36:22.001Z</time></trkpt><trkpt lat="30.964208014209827" lon="-4.823982278112366"><ele>699.0</ele><time>2026-03-23T10:36:23.001Z</time></trkpt><trkpt lat="30.964170049369713" lon="-4.824172600199259"><ele>700.3333333333334</ele><time>2026-03-23T10:36:24.001Z</time></trkpt><trkpt lat="30.96412935196364" lon="-4.824374764431937"><ele>701.6666666666667</ele><time>2026-03-23T10:36:25.001Z</time></trkpt><trkpt lat="30.96409525636705" lon="-4.824543805527902"><ele>703.0</ele><time>2026-03-23T10:36:26.001Z</time></trkpt><trkpt lat="30.964060195461578" lon="-4.824717632507442"><ele>703.0</ele><time>2026-03-23T10:36:27.001Z</time></trkpt><trkpt lat="30.964022082001637" lon="-4.824906557577796"><ele>703.0</ele><time>2026-03-23T10:36:28.001Z</time></trkpt><trkpt lat="30.96398305710554" lon="-4.825100802705229"><ele>703.0</ele><time>2026-03-23T10:36:29.001Z</time></trkpt><trkpt lat="30.963946418999537" lon="-4.8252835071334985"><ele>703.0</ele><time>2026-03-23T10:36:30.001Z</time></trkpt><trkpt lat="30.96390897200951" lon="-4.8254687776584"><ele>703.0</ele><time>2026-03-23T10:36:31.001Z</time></trkpt><trkpt lat="30.963872056602536" lon="-4.825663566474846"><ele>703.0</ele><time>2026-03-23T10:36:32.001Z</time></trkpt><trkpt lat="30.963832885716982" lon="-4.825887026406829"><ele>702.3333333333334</ele><time>2026-03-23T10:36:33.001Z</time></trkpt><trkpt lat="30.963794206388606" lon="-4.826107682108593"><ele>701.6666666666666</ele><time>2026-03-23T10:36:34.001Z</time></trkpt><trkpt lat="30.963758368766488" lon="-4.8263141659332955"><ele>701.0</ele><time>2026-03-23T10:36:35.001Z</time></trkpt><trkpt lat="30.963719648837206" lon="-4.826511086543695"><ele>701.0</ele><time>2026-03-23T10:36:36.001Z</time></trkpt><trkpt lat="30.96368644610429" lon="-4.826723969432682"><ele>701.0</ele><time>2026-03-23T10:36:37.001Z</time></trkpt><trkpt lat="30.963631711165554" lon="-4.82693478125758"><ele>701.0</ele><time>2026-03-23T10:36:38.001Z</time></trkpt><trkpt lat="30.963583997008268" lon="-4.8271548592683855"><ele>701.0</ele><time>2026-03-23T10:36:39.001Z</time></trkpt><trkpt lat="30.963539345206186" lon="-4.8273654719756065"><ele>701.0</ele><time>2026-03-23T10:36:40.001Z</time></trkpt><trkpt lat="30.963494114067352" lon="-4.8275713653906696"><ele>701.0</ele><time>2026-03-23T10:36:41.001Z</time></trkpt><trkpt lat="30.963447803911734" lon="-4.827774392244941"><ele>700.6666666666666</ele><time>2026-03-23T10:36:42.001Z</time></trkpt><trkpt lat="30.963408005646755" lon="-4.827973480784359"><ele>700.3333333333334</ele><time>2026-03-23T10:36:43.001Z</time></trkpt><trkpt lat="30.963360741871032" lon="-4.828169538051539"><ele>700.0</ele><time>2026-03-23T10:36:44.001Z</time></trkpt><trkpt lat="30.963337775881598" lon="-4.828368885317184"><ele>700.0</ele><time>2026-03-23T10:36:45.001Z</time></trkpt><trkpt lat="30.963299725861294" lon="-4.828563686505068"><ele>700.0</ele><time>2026-03-23T10:36:46.001Z</time></trkpt><trkpt lat="30.96324558748011" lon="-4.828746869514696"><ele>700.0</ele><time>2026-03-23T10:36:47.001Z</time></trkpt><trkpt lat="30.96321497371351" lon="-4.8289331718451916"><ele>700.0</ele><time>2026-03-23T10:36:48.001Z</time></trkpt><trkpt lat="30.963186303438164" lon="-4.829112329229405"><ele>700.0</ele><time>2026-03-23T10:36:49.001Z</time></trkpt><trkpt lat="30.963130252031252" lon="-4.829295570371411"><ele>700.0</ele><time>2026-03-23T10:36:50.001Z</time></trkpt><trkpt lat="30.96308422510152" lon="-4.829492895171896"><ele>700.0</ele><time>2026-03-23T10:36:51.001Z</time></trkpt><trkpt lat="30.963039375550238" lon="-4.829685287458762"><ele>700.0</ele><time>2026-03-23T10:36:52.001Z</time></trkpt><trkpt lat="30.96299459668586" lon="-4.82987737636939"><ele>700.0</ele><time>2026-03-23T10:36:53.001Z</time></trkpt><trkpt lat="30.962954157037018" lon="-4.830075247063312"><ele>699.6666666666667</ele><time>2026-03-23T10:36:54.001Z</time></trkpt><trkpt lat="30.962919393715577" lon="-4.830263161617585"><ele>699.3333333333334</ele><time>2026-03-23T10:36:55.001Z</time></trkpt><trkpt lat="30.962886633374865" lon="-4.830440249020122"><ele>699.0</ele><time>2026-03-23T10:36:56.001Z</time></trkpt><trkpt lat="30.962853731870922" lon="-4.830618099498643"><ele>699.0</ele><time>2026-03-23T10:36:57.001Z</time></trkpt><trkpt lat="30.962833201227877" lon="-4.830801444140739"><ele>699.0</ele><time>2026-03-23T10:36:58.001Z</time></trkpt><trkpt lat="30.96278941247848" lon="-4.8309692678718115"><ele>699.0</ele><time>2026-03-23T10:36:59.001Z</time></trkpt><trkpt lat="30.962724411843784" lon="-4.831144671804161"><ele>699.3333333333334</ele><time>2026-03-23T10:37:00.001Z</time></trkpt><trkpt lat="30.962674458366166" lon="-4.831321773914814"><ele>699.6666666666667</ele><time>2026-03-23T10:37:01.001Z</time></trkpt><trkpt lat="30.962620993422643" lon="-4.831511325280204"><ele>700.0</ele><time>2026-03-23T10:37:02.001Z</time></trkpt><trkpt lat="30.96255984447131" lon="-4.8317281193859225"><ele>699.6666666666667</ele><time>2026-03-23T10:37:03.001Z</time></trkpt><trkpt lat="30.962498641973113" lon="-4.831945103136515"><ele>699.3333333333334</ele><time>2026-03-23T10:37:04.001Z</time></trkpt><trkpt lat="30.96243768312526" lon="-4.832170424309578"><ele>699.0</ele><time>2026-03-23T10:37:05.001Z</time></trkpt><trkpt lat="30.962380550788655" lon="-4.832382347247271"><ele>699.0</ele><time>2026-03-23T10:37:06.001Z</time></trkpt><trkpt lat="30.96232945061174" lon="-4.832571895481617"><ele>699.0</ele><time>2026-03-23T10:37:07.001Z</time></trkpt><trkpt lat="30.962273415231458" lon="-4.8327787780901215"><ele>699.0</ele><time>2026-03-23T10:37:08.001Z</time></trkpt><trkpt lat="30.962216030750234" lon="-4.832990523896718"><ele>698.6666666666666</ele><time>2026-03-23T10:37:09.001Z</time></trkpt><trkpt lat="30.962161908254938" lon="-4.833194657899538"><ele>698.3333333333333</ele><time>2026-03-23T10:37:10.001Z</time></trkpt><trkpt lat="30.962111237860725" lon="-4.8333944033937515"><ele>698.0</ele><time>2026-03-23T10:37:11.001Z</time></trkpt><trkpt lat="30.962056497537485" lon="-4.833610961660831"><ele>697.3333333333333</ele><time>2026-03-23T10:37:12.001Z</time></trkpt><trkpt lat="30.962003966191066" lon="-4.833818781083611"><ele>696.6666666666666</ele><time>2026-03-23T10:37:13.001Z</time></trkpt><trkpt lat="30.96196786968283" lon="-4.834030768602135"><ele>696.0</ele><time>2026-03-23T10:37:14.001Z</time></trkpt><trkpt lat="30.96189605779817" lon="-4.834237740690049"><ele>695.6666666666666</ele><time>2026-03-23T10:37:15.001Z</time></trkpt><trkpt lat="30.961834821703935" lon="-4.834450709397509"><ele>695.3333333333333</ele><time>2026-03-23T10:37:16.001Z</time></trkpt><trkpt lat="30.961777011888742" lon="-4.8346510725057446"><ele>695.0</ele><time>2026-03-23T10:37:17.001Z</time></trkpt><trkpt lat="30.96172655003972" lon="-4.834821261197941"><ele>695.3333333333333</ele><time>2026-03-23T10:37:18.001Z</time></trkpt><trkpt lat="30.961680129796427" lon="-4.83498121829833"><ele>695.6666666666666</ele><time>2026-03-23T10:37:19.001Z</time></trkpt><trkpt lat="30.96163103707245" lon="-4.8351478223305255"><ele>696.0</ele><time>2026-03-23T10:37:20.001Z</time></trkpt><trkpt lat="30.96157843721117" lon="-4.835325052345451"><ele>695.3333333333334</ele><time>2026-03-23T10:37:21.001Z</time></trkpt><trkpt lat="30.9615275088494" lon="-4.835497116943801"><ele>694.6666666666667</ele><time>2026-03-23T10:37:22.001Z</time></trkpt><trkpt lat="30.96147613661614" lon="-4.835670681006963"><ele>694.0</ele><time>2026-03-23T10:37:23.001Z</time></trkpt><trkpt lat="30.96141661020989" lon="-4.835871287531549"><ele>694.3333333333334</ele><time>2026-03-23T10:37:24.001Z</time></trkpt><trkpt lat="30.961358040522448" lon="-4.836068190679997"><ele>694.6666666666666</ele><time>2026-03-23T10:37:25.001Z</time></trkpt><trkpt lat="30.961307728320264" lon="-4.83623733329433"><ele>695.0</ele><time>2026-03-23T10:37:26.001Z</time></trkpt><trkpt lat="30.96125993860117" lon="-4.836405133478628"><ele>695.0</ele><time>2026-03-23T10:37:27.001Z</time></trkpt><trkpt lat="30.96122514323937" lon="-4.836558301744859"><ele>695.0</ele><time>2026-03-23T10:37:28.001Z</time></trkpt><trkpt lat="30.961187359400647" lon="-4.836727564128412"><ele>695.0</ele><time>2026-03-23T10:37:29.001Z</time></trkpt><trkpt lat="30.961144789824353" lon="-4.836916843810737"><ele>695.3333333333333</ele><time>2026-03-23T10:37:30.001Z</time></trkpt><trkpt lat="30.96109879726232" lon="-4.8371212589213295"><ele>695.6666666666666</ele><time>2026-03-23T10:37:31.001Z</time></trkpt><trkpt lat="30.961048766829588" lon="-4.837343621046811"><ele>696.0</ele><time>2026-03-23T10:37:32.001Z</time></trkpt><trkpt lat="30.961000790111814" lon="-4.837600627061285"><ele>695.6666666666666</ele><time>2026-03-23T10:37:33.001Z</time></trkpt><trkpt lat="30.9609642823003" lon="-4.8378638490270935"><ele>695.3333333333333</ele><time>2026-03-23T10:37:34.001Z</time></trkpt><trkpt lat="30.960917484138985" lon="-4.838092516210196"><ele>695.0</ele><time>2026-03-23T10:37:35.001Z</time></trkpt><trkpt lat="30.960877707648994" lon="-4.8383163994053335"><ele>694.6666666666666</ele><time>2026-03-23T10:37:36.001Z</time></trkpt><trkpt lat="30.96083724547397" lon="-4.838527269421618"><ele>694.3333333333334</ele><time>2026-03-23T10:37:37.001Z</time></trkpt><trkpt lat="30.960795686469393" lon="-4.838748604503078"><ele>694.0</ele><time>2026-03-23T10:37:38.002Z</time></trkpt><trkpt lat="30.960759418352758" lon="-4.83896611397111"><ele>694.0</ele><time>2026-03-23T10:37:39.002Z</time></trkpt><trkpt lat="30.960724855568632" lon="-4.839181339318722"><ele>694.0</ele><time>2026-03-23T10:37:40.002Z</time></trkpt><trkpt lat="30.96069288784896" lon="-4.839381847733138"><ele>694.0</ele><time>2026-03-23T10:37:41.002Z</time></trkpt><trkpt lat="30.960650172773164" lon="-4.839585436619387"><ele>694.3333333333334</ele><time>2026-03-23T10:37:42.002Z</time></trkpt><trkpt lat="30.960610077874072" lon="-4.839793212468209"><ele>694.6666666666666</ele><time>2026-03-23T10:37:43.002Z</time></trkpt><trkpt lat="30.96057025082989" lon="-4.840013000732974"><ele>695.0</ele><time>2026-03-23T10:37:44.002Z</time></trkpt><trkpt lat="30.960528884658764" lon="-4.840226624011891"><ele>695.3333333333333</ele><time>2026-03-23T10:37:45.002Z</time></trkpt><trkpt lat="30.960485895974657" lon="-4.8404338476049915"><ele>695.6666666666666</ele><time>2026-03-23T10:37:46.002Z</time></trkpt><trkpt lat="30.960426023038938" lon="-4.840637844362655"><ele>696.0</ele><time>2026-03-23T10:37:47.002Z</time></trkpt><trkpt lat="30.960381345932717" lon="-4.840846227408601"><ele>695.3333333333334</ele><time>2026-03-23T10:37:48.002Z</time></trkpt><trkpt lat="30.96033698715742" lon="-4.841054290289834"><ele>694.6666666666667</ele><time>2026-03-23T10:37:49.002Z</time></trkpt><trkpt lat="30.960292035444592" lon="-4.841266204629383"><ele>694.0</ele><time>2026-03-23T10:37:50.002Z</time></trkpt><trkpt lat="30.960245263940752" lon="-4.841485200162987"><ele>694.0</ele><time>2026-03-23T10:37:51.002Z</time></trkpt><trkpt lat="30.960190120765148" lon="-4.841743393856834"><ele>694.0</ele><time>2026-03-23T10:37:52.002Z</time></trkpt><trkpt lat="30.960131095762772" lon="-4.842019763317178"><ele>694.0</ele><time>2026-03-23T10:37:53.002Z</time></trkpt><trkpt lat="30.96007465812139" lon="-4.842294073461783"><ele>694.0</ele><time>2026-03-23T10:37:54.002Z</time></trkpt><trkpt lat="30.960018593078836" lon="-4.842580424032573"><ele>694.0</ele><time>2026-03-23T10:37:55.002Z</time></trkpt><trkpt lat="30.959964928513465" lon="-4.8428544843129036"><ele>694.0</ele><time>2026-03-23T10:37:56.002Z</time></trkpt><trkpt lat="30.959911507061367" lon="-4.843127279660972"><ele>694.0</ele><time>2026-03-23T10:37:57.002Z</time></trkpt><trkpt lat="30.95986229902101" lon="-4.843391577707146"><ele>694.0</ele><time>2026-03-23T10:37:58.002Z</time></trkpt><trkpt lat="30.959824136983336" lon="-4.843616024303279"><ele>694.0</ele><time>2026-03-23T10:37:59.002Z</time></trkpt><trkpt lat="30.959786465719652" lon="-4.843837374310961"><ele>693.3333333333334</ele><time>2026-03-23T10:38:00.002Z</time></trkpt><trkpt lat="30.959745577141028" lon="-4.844079330883152"><ele>692.6666666666666</ele><time>2026-03-23T10:38:01.002Z</time></trkpt><trkpt lat="30.959700344323863" lon="-4.844346993926878"><ele>692.0</ele><time>2026-03-23T10:38:02.002Z</time></trkpt><trkpt lat="30.959665021738232" lon="-4.844627529982464"><ele>691.6666666666666</ele><time>2026-03-23T10:38:03.002Z</time></trkpt><trkpt lat="30.959616119078763" lon="-4.8448830748667095"><ele>691.3333333333334</ele><time>2026-03-23T10:38:04.002Z</time></trkpt><trkpt lat="30.959560841776327" lon="-4.8451078065754025"><ele>691.0</ele><time>2026-03-23T10:38:05.002Z</time></trkpt><trkpt lat="30.95952384569546" lon="-4.845308125545861"><ele>691.0</ele><time>2026-03-23T10:38:06.002Z</time></trkpt><trkpt lat="30.959490948888593" lon="-4.845501314076705"><ele>691.0</ele><time>2026-03-23T10:38:07.002Z</time></trkpt><trkpt lat="30.959460048632575" lon="-4.845684095134043"><ele>691.0</ele><time>2026-03-23T10:38:08.002Z</time></trkpt><trkpt lat="30.959430082261868" lon="-4.845861351990031"><ele>691.6666666666667</ele><time>2026-03-23T10:38:09.002Z</time></trkpt><trkpt lat="30.959401128947743" lon="-4.846032616413517"><ele>692.3333333333334</ele><time>2026-03-23T10:38:10.002Z</time></trkpt><trkpt lat="30.959372309665067" lon="-4.846202548417995"><ele>693.0</ele><time>2026-03-23T10:38:11.002Z</time></trkpt><trkpt lat="30.95934232516928" lon="-4.846377758333251"><ele>693.0</ele><time>2026-03-23T10:38:12.002Z</time></trkpt><trkpt lat="30.959314050740304" lon="-4.846543444923278"><ele>693.0</ele><time>2026-03-23T10:38:13.002Z</time></trkpt><trkpt lat="30.959287572960584" lon="-4.84672539874203"><ele>693.0</ele><time>2026-03-23T10:38:14.002Z</time></trkpt><trkpt lat="30.959260796016544" lon="-4.8469250875356"><ele>692.3333333333334</ele><time>2026-03-23T10:38:15.002Z</time></trkpt><trkpt lat="30.959234456028955" lon="-4.8471225556499045"><ele>691.6666666666667</ele><time>2026-03-23T10:38:16.002Z</time></trkpt><trkpt lat="30.95920579762928" lon="-4.8473383053564785"><ele>691.0</ele><time>2026-03-23T10:38:17.002Z</time></trkpt><trkpt lat="30.959172574724683" lon="-4.847588450741273"><ele>691.0</ele><time>2026-03-23T10:38:18.002Z</time></trkpt><trkpt lat="30.95914216310337" lon="-4.847817429084152"><ele>691.0</ele><time>2026-03-23T10:38:19.002Z</time></trkpt><trkpt lat="30.959113241011373" lon="-4.848024261316981"><ele>691.0</ele><time>2026-03-23T10:38:20.001Z</time></trkpt><trkpt lat="30.959083307072397" lon="-4.848220218481531"><ele>691.0</ele><time>2026-03-23T10:38:21.001Z</time></trkpt><trkpt lat="30.959051513622825" lon="-4.848428348683515"><ele>691.0</ele><time>2026-03-23T10:38:22.001Z</time></trkpt><trkpt lat="30.959015678894893" lon="-4.848663112085866"><ele>691.0</ele><time>2026-03-23T10:38:23.001Z</time></trkpt><trkpt lat="30.95899152593894" lon="-4.848925883049725"><ele>691.0</ele><time>2026-03-23T10:38:24.001Z</time></trkpt><trkpt lat="30.958953448215354" lon="-4.849133957775604"><ele>691.0</ele><time>2026-03-23T10:38:25.001Z</time></trkpt><trkpt lat="30.95892563795595" lon="-4.849334090727647"><ele>691.0</ele><time>2026-03-23T10:38:26.001Z</time></trkpt><trkpt lat="30.958881151624592" lon="-4.849538074427778"><ele>691.0</ele><time>2026-03-23T10:38:27.001Z</time></trkpt><trkpt lat="30.958844756493747" lon="-4.849748987562185"><ele>691.0</ele><time>2026-03-23T10:38:28.001Z</time></trkpt><trkpt lat="30.958810760334472" lon="-4.849945323948886"><ele>691.0</ele><time>2026-03-23T10:38:29.001Z</time></trkpt><trkpt lat="30.958775765083026" lon="-4.850150170739078"><ele>691.0</ele><time>2026-03-23T10:38:30.001Z</time></trkpt><trkpt lat="30.958735239966227" lon="-4.850385392616657"><ele>691.0</ele><time>2026-03-23T10:38:31.001Z</time></trkpt><trkpt lat="30.958693669014117" lon="-4.850626684917841"><ele>691.0</ele><time>2026-03-23T10:38:32.001Z</time></trkpt><trkpt lat="30.958672733920142" lon="-4.85088277547509"><ele>690.5</ele><time>2026-03-23T10:38:33.001Z</time></trkpt><trkpt lat="30.958631380910926" lon="-4.851132241461403"><ele>690.0</ele><time>2026-03-23T10:38:34.001Z</time></trkpt><trkpt lat="30.958594498822396" lon="-4.851405110911346"><ele>690.0</ele><time>2026-03-23T10:38:35.001Z</time></trkpt><trkpt lat="30.95855714471924" lon="-4.851630990272071"><ele>690.0</ele><time>2026-03-23T10:38:36.001Z</time></trkpt><trkpt lat="30.95853247173501" lon="-4.851837590232837"><ele>690.0</ele><time>2026-03-23T10:38:37.001Z</time></trkpt><trkpt lat="30.958508993247126" lon="-4.852045409882504"><ele>690.0</ele><time>2026-03-23T10:38:38.001Z</time></trkpt><trkpt lat="30.958482181366758" lon="-4.852249410786304"><ele>690.0</ele><time>2026-03-23T10:38:39.001Z</time></trkpt><trkpt lat="30.95845268510632" lon="-4.852456770775663"><ele>690.0</ele><time>2026-03-23T10:38:40.001Z</time></trkpt><trkpt lat="30.958422996103618" lon="-4.8526677751424305"><ele>690.0</ele><time>2026-03-23T10:38:41.001Z</time></trkpt><trkpt lat="30.958385023461396" lon="-4.852866140830844"><ele>690.0</ele><time>2026-03-23T10:38:42.001Z</time></trkpt><trkpt lat="30.958342753267225" lon="-4.853069257793725"><ele>690.0</ele><time>2026-03-23T10:38:43.001Z</time></trkpt><trkpt lat="30.95829149980857" lon="-4.853266458943933"><ele>689.5</ele><time>2026-03-23T10:38:44.001Z</time></trkpt><trkpt lat="30.958251378895326" lon="-4.853457094607675"><ele>689.0</ele><time>2026-03-23T10:38:45.001Z</time></trkpt><trkpt lat="30.958196050151056" lon="-4.853613353000089"><ele>688.5</ele><time>2026-03-23T10:38:46.001Z</time></trkpt><trkpt lat="30.958162669460577" lon="-4.853752056762871"><ele>688.0</ele><time>2026-03-23T10:38:47.001Z</time></trkpt><trkpt lat="30.95812602852093" lon="-4.853910574514228"><ele>688.0</ele><time>2026-03-23T10:38:48.001Z</time></trkpt><trkpt lat="30.958085694576493" lon="-4.85408442774585"><ele>688.0</ele><time>2026-03-23T10:38:49.001Z</time></trkpt><trkpt lat="30.95804606961784" lon="-4.854255793349778"><ele>688.0</ele><time>2026-03-23T10:38:50.001Z</time></trkpt><trkpt lat="30.9580067195938" lon="-4.854426504235534"><ele>688.5</ele><time>2026-03-23T10:38:51.001Z</time></trkpt><trkpt lat="30.95796757856558" lon="-4.85459550722672"><ele>689.0</ele><time>2026-03-23T10:38:52.001Z</time></trkpt><trkpt lat="30.957939246669063" lon="-4.854741591827077"><ele>689.5</ele><time>2026-03-23T10:38:53.001Z</time></trkpt><trkpt lat="30.957911763319963" lon="-4.854889965153428"><ele>690.0</ele><time>2026-03-23T10:38:54.001Z</time></trkpt><trkpt lat="30.95788270535755" lon="-4.8550468392831"><ele>690.25</ele><time>2026-03-23T10:38:55.001Z</time></trkpt><trkpt lat="30.957855758280008" lon="-4.855192276596037"><ele>690.5</ele><time>2026-03-23T10:38:56.001Z</time></trkpt><trkpt lat="30.957825697708124" lon="-4.855353014018093"><ele>690.75</ele><time>2026-03-23T10:38:57.001Z</time></trkpt><trkpt lat="30.957792450772125" lon="-4.855530336356308"><ele>691.0</ele><time>2026-03-23T10:38:58.001Z</time></trkpt><trkpt lat="30.957758020137174" lon="-4.85571497363001"><ele>691.0</ele><time>2026-03-23T10:38:59.001Z</time></trkpt><trkpt lat="30.95771946006998" lon="-4.855921414865527"><ele>691.0</ele><time>2026-03-23T10:39:00.001Z</time></trkpt><trkpt lat="30.95768162351083" lon="-4.856162986910036"><ele>691.0</ele><time>2026-03-23T10:39:01.001Z</time></trkpt><trkpt lat="30.95764189108249" lon="-4.856423751290174"><ele>690.3333333333334</ele><time>2026-03-23T10:39:02.001Z</time></trkpt><trkpt lat="30.95760251042972" lon="-4.856679972419193"><ele>689.6666666666666</ele><time>2026-03-23T10:39:03.001Z</time></trkpt><trkpt lat="30.957569586441853" lon="-4.856894184884413"><ele>689.0</ele><time>2026-03-23T10:39:04.001Z</time></trkpt><trkpt lat="30.957536996504505" lon="-4.8571077813102335"><ele>688.6666666666666</ele><time>2026-03-23T10:39:05.001Z</time></trkpt><trkpt lat="30.957507452657435" lon="-4.857303532049895"><ele>688.3333333333334</ele><time>2026-03-23T10:39:06.001Z</time></trkpt><trkpt lat="30.957468864538637" lon="-4.857502538648286"><ele>688.0</ele><time>2026-03-23T10:39:07.001Z</time></trkpt><trkpt lat="30.957427916396405" lon="-4.857711619214069"><ele>687.3333333333334</ele><time>2026-03-23T10:39:08.001Z</time></trkpt><trkpt lat="30.957389691613734" lon="-4.857909918951843"><ele>686.6666666666666</ele><time>2026-03-23T10:39:09.001Z</time></trkpt><trkpt lat="30.957351097018094" lon="-4.85811041799524"><ele>686.0</ele><time>2026-03-23T10:39:10.001Z</time></trkpt><trkpt lat="30.95731350274257" lon="-4.858301777999798"><ele>687.0</ele><time>2026-03-23T10:39:11.001Z</time></trkpt><trkpt lat="30.957276743162744" lon="-4.858499814581082"><ele>688.0</ele><time>2026-03-23T10:39:12.001Z</time></trkpt><trkpt lat="30.957238910356644" lon="-4.8587122509592575"><ele>689.0</ele><time>2026-03-23T10:39:13.001Z</time></trkpt><trkpt lat="30.957196580407356" lon="-4.858949975062459"><ele>689.0</ele><time>2026-03-23T10:39:14.001Z</time></trkpt><trkpt lat="30.957160911891428" lon="-4.859149769744761"><ele>689.0</ele><time>2026-03-23T10:39:15.001Z</time></trkpt><trkpt lat="30.957126229270845" lon="-4.8593446493998975"><ele>689.0</ele><time>2026-03-23T10:39:16.001Z</time></trkpt><trkpt lat="30.957089087642718" lon="-4.859555169405407"><ele>689.0</ele><time>2026-03-23T10:39:17.001Z</time></trkpt><trkpt lat="30.957061933491925" lon="-4.859778221774656"><ele>689.0</ele><time>2026-03-23T10:39:18.001Z</time></trkpt><trkpt lat="30.95704376678772" lon="-4.860004901553857"><ele>689.0</ele><time>2026-03-23T10:39:19.001Z</time></trkpt><trkpt lat="30.957027591196805" lon="-4.860214925034582"><ele>688.6666666666666</ele><time>2026-03-23T10:39:20.001Z</time></trkpt><trkpt lat="30.95702450385048" lon="-4.860401483062167"><ele>688.3333333333334</ele><time>2026-03-23T10:39:21.001Z</time></trkpt><trkpt lat="30.95700282100131" lon="-4.8605902091937825"><ele>688.0</ele><time>2026-03-23T10:39:22.001Z</time></trkpt><trkpt lat="30.956964744428333" lon="-4.860771873053941"><ele>688.0</ele><time>2026-03-23T10:39:23.001Z</time></trkpt><trkpt lat="30.956930365910402" lon="-4.860945524807377"><ele>688.0</ele><time>2026-03-23T10:39:24.001Z</time></trkpt><trkpt lat="30.95689593233591" lon="-4.861118363553964"><ele>688.0</ele><time>2026-03-23T10:39:25.001Z</time></trkpt><trkpt lat="30.95686258902497" lon="-4.861301459828273"><ele>689.0</ele><time>2026-03-23T10:39:26.001Z</time></trkpt><trkpt lat="30.956848276001914" lon="-4.8614751702283545"><ele>690.0</ele><time>2026-03-23T10:39:27.001Z</time></trkpt><trkpt lat="30.956832786966856" lon="-4.861653586593096"><ele>691.0</ele><time>2026-03-23T10:39:28.001Z</time></trkpt><trkpt lat="30.95681715330522" lon="-4.861831286795411"><ele>691.0</ele><time>2026-03-23T10:39:29.001Z</time></trkpt><trkpt lat="30.956801061418332" lon="-4.862014149050661"><ele>691.0</ele><time>2026-03-23T10:39:30.001Z</time></trkpt><trkpt lat="30.956784587985652" lon="-4.862201347132707"><ele>691.0</ele><time>2026-03-23T10:39:31.001Z</time></trkpt><trkpt lat="30.956768480433084" lon="-4.86239014701587"><ele>691.0</ele><time>2026-03-23T10:39:32.001Z</time></trkpt><trkpt lat="30.956752098595157" lon="-4.86258056771196"><ele>691.0</ele><time>2026-03-23T10:39:33.001Z</time></trkpt><trkpt lat="30.956716245179592" lon="-4.862769092237719"><ele>691.0</ele><time>2026-03-23T10:39:34.001Z</time></trkpt><trkpt lat="30.9566771267909" lon="-4.862973951674899"><ele>691.0</ele><time>2026-03-23T10:39:35.001Z</time></trkpt><trkpt lat="30.95663983501018" lon="-4.8631702715081175"><ele>691.0</ele><time>2026-03-23T10:39:36.001Z</time></trkpt><trkpt lat="30.956603524734973" lon="-4.863363460228791"><ele>691.0</ele><time>2026-03-23T10:39:37.001Z</time></trkpt><trkpt lat="30.956564927663873" lon="-4.863561583643809"><ele>690.6666666666667</ele><time>2026-03-23T10:39:38.001Z</time></trkpt><trkpt lat="30.956537850860357" lon="-4.863729791087572"><ele>690.3333333333334</ele><time>2026-03-23T10:39:39.001Z</time></trkpt><trkpt lat="30.956486298294035" lon="-4.863913714313113"><ele>690.0</ele><time>2026-03-23T10:39:40.001Z</time></trkpt><trkpt lat="30.95646714892759" lon="-4.864073659377912"><ele>690.0</ele><time>2026-03-23T10:39:41.001Z</time></trkpt><trkpt lat="30.956426574526468" lon="-4.864243012079718"><ele>690.0</ele><time>2026-03-23T10:39:42.001Z</time></trkpt><trkpt lat="30.95638429193164" lon="-4.8644194944725205"><ele>690.0</ele><time>2026-03-23T10:39:43.001Z</time></trkpt><trkpt lat="30.956342299298136" lon="-4.864594766525245"><ele>690.0</ele><time>2026-03-23T10:39:44.001Z</time></trkpt><trkpt lat="30.956299767769167" lon="-4.864772287926308"><ele>690.0</ele><time>2026-03-23T10:39:45.001Z</time></trkpt><trkpt lat="30.956259555964774" lon="-4.864940127348831"><ele>690.0</ele><time>2026-03-23T10:39:46.001Z</time></trkpt><trkpt lat="30.956218965502824" lon="-4.865109546876178"><ele>689.3333333333334</ele><time>2026-03-23T10:39:47.001Z</time></trkpt><trkpt lat="30.956169581511425" lon="-4.865285163724328"><ele>688.6666666666667</ele><time>2026-03-23T10:39:48.001Z</time></trkpt><trkpt lat="30.95610806695223" lon="-4.8654454581016005"><ele>688.0</ele><time>2026-03-23T10:39:49.001Z</time></trkpt><trkpt lat="30.95607077550941" lon="-4.865619594696267"><ele>688.0</ele><time>2026-03-23T10:39:50.001Z</time></trkpt><trkpt lat="30.956031988323357" lon="-4.865795488010096"><ele>688.0</ele><time>2026-03-23T10:39:51.001Z</time></trkpt><trkpt lat="30.955988846650385" lon="-4.865964555298613"><ele>688.0</ele><time>2026-03-23T10:39:52.001Z</time></trkpt><trkpt lat="30.95593751722941" lon="-4.866145048880502"><ele>689.0</ele><time>2026-03-23T10:39:53.001Z</time></trkpt><trkpt lat="30.955870899722775" lon="-4.866319899678062"><ele>690.0</ele><time>2026-03-23T10:39:54.001Z</time></trkpt><trkpt lat="30.955819175847157" lon="-4.866494201498009"><ele>691.0</ele><time>2026-03-23T10:39:55.001Z</time></trkpt><trkpt lat="30.955780931145494" lon="-4.866678172915776"><ele>690.3333333333334</ele><time>2026-03-23T10:39:56.001Z</time></trkpt><trkpt lat="30.955723850740153" lon="-4.866861229669711"><ele>689.6666666666666</ele><time>2026-03-23T10:39:57.001Z</time></trkpt><trkpt lat="30.95566527277429" lon="-4.867046628753673"><ele>689.0</ele><time>2026-03-23T10:39:58.001Z</time></trkpt><trkpt lat="30.955607866804357" lon="-4.867233973674527"><ele>689.0</ele><time>2026-03-23T10:39:59.002Z</time></trkpt><trkpt lat="30.955552753317406" lon="-4.8674307984926655"><ele>689.0</ele><time>2026-03-23T10:40:00.002Z</time></trkpt><trkpt lat="30.955508729153504" lon="-4.86761660177696"><ele>689.0</ele><time>2026-03-23T10:40:01.002Z</time></trkpt><trkpt lat="30.95546177717823" lon="-4.8678002380444365"><ele>689.6666666666666</ele><time>2026-03-23T10:40:02.002Z</time></trkpt><trkpt lat="30.955415390821308" lon="-4.8679860163106214"><ele>690.3333333333334</ele><time>2026-03-23T10:40:03.002Z</time></trkpt><trkpt lat="30.955374124381137" lon="-4.868187675556313"><ele>691.0</ele><time>2026-03-23T10:40:04.002Z</time></trkpt><trkpt lat="30.95532622191495" lon="-4.868413383437072"><ele>691.3333333333334</ele><time>2026-03-23T10:40:05.002Z</time></trkpt><trkpt lat="30.95527441827975" lon="-4.868649584243819"><ele>691.6666666666666</ele><time>2026-03-23T10:40:06.002Z</time></trkpt><trkpt lat="30.9552368087192" lon="-4.868868806726188"><ele>692.0</ele><time>2026-03-23T10:40:07.002Z</time></trkpt><trkpt lat="30.955196422910515" lon="-4.869085750974776"><ele>691.3333333333333</ele><time>2026-03-23T10:40:08.002Z</time></trkpt><trkpt lat="30.95515127088119" lon="-4.869299678534149"><ele>690.6666666666666</ele><time>2026-03-23T10:40:09.002Z</time></trkpt><trkpt lat="30.95510970955652" lon="-4.869502055851616"><ele>690.0</ele><time>2026-03-23T10:40:10.002Z</time></trkpt><trkpt lat="30.95506395406267" lon="-4.869698649316562"><ele>690.3333333333334</ele><time>2026-03-23T10:40:11.002Z</time></trkpt><trkpt lat="30.955002763376047" lon="-4.869884020147968"><ele>690.6666666666667</ele><time>2026-03-23T10:40:12.002Z</time></trkpt><trkpt lat="30.954959390050647" lon="-4.870065869497134"><ele>691.0</ele><time>2026-03-23T10:40:13.002Z</time></trkpt><trkpt lat="30.954914858545347" lon="-4.870252574525528"><ele>691.6666666666667</ele><time>2026-03-23T10:40:14.002Z</time></trkpt><trkpt lat="30.95487337894492" lon="-4.870438170218181"><ele>692.3333333333334</ele><time>2026-03-23T10:40:15.002Z</time></trkpt><trkpt lat="30.95483585535601" lon="-4.870615013107107"><ele>693.0</ele><time>2026-03-23T10:40:16.002Z</time></trkpt><trkpt lat="30.954798002743026" lon="-4.870793527352331"><ele>693.6666666666666</ele><time>2026-03-23T10:40:17.002Z</time></trkpt><trkpt lat="30.954759561898147" lon="-4.870975853290912"><ele>694.3333333333333</ele><time>2026-03-23T10:40:18.002Z</time></trkpt><trkpt lat="30.954721303911576" lon="-4.8711575063861545"><ele>695.0</ele><time>2026-03-23T10:40:19.002Z</time></trkpt><trkpt lat="30.95468252880422" lon="-4.871341614616048"><ele>695.0</ele><time>2026-03-23T10:40:20.002Z</time></trkpt><trkpt lat="30.954641449265466" lon="-4.871536447037324"><ele>695.0</ele><time>2026-03-23T10:40:21.002Z</time></trkpt><trkpt lat="30.954595441443683" lon="-4.871754001454625"><ele>695.0</ele><time>2026-03-23T10:40:22.002Z</time></trkpt><trkpt lat="30.954560770770257" lon="-4.871988682168649"><ele>695.0</ele><time>2026-03-23T10:40:23.002Z</time></trkpt><trkpt lat="30.954508937923862" lon="-4.872208046092411"><ele>695.0</ele><time>2026-03-23T10:40:24.002Z</time></trkpt><trkpt lat="30.95444078384775" lon="-4.872416092725768"><ele>695.0</ele><time>2026-03-23T10:40:25.002Z</time></trkpt><trkpt lat="30.954386000758358" lon="-4.87263442002678"><ele>694.6666666666666</ele><time>2026-03-23T10:40:26Z</time></trkpt><trkpt lat="30.954331467627174" lon="-4.872851596487691"><ele>694.3333333333334</ele><time>2026-03-23T10:40:27Z</time></trkpt><trkpt lat="30.954274628449976" lon="-4.873076847576863"><ele>694.0</ele><time>2026-03-23T10:40:28Z</time></trkpt><trkpt lat="30.954233802701868" lon="-4.873297705289198"><ele>693.6666666666667</ele><time>2026-03-23T10:40:29Z</time></trkpt><trkpt lat="30.954180163538382" lon="-4.873510471989876"><ele>693.3333333333334</ele><time>2026-03-23T10:40:30Z</time></trkpt><trkpt lat="30.95412887319928" lon="-4.873715931936954"><ele>693.0</ele><time>2026-03-23T10:40:31Z</time></trkpt><trkpt lat="30.95408869454937" lon="-4.8739090661292295"><ele>693.0</ele><time>2026-03-23T10:40:32Z</time></trkpt><trkpt lat="30.954045830146494" lon="-4.874110825983942"><ele>693.0</ele><time>2026-03-23T10:40:33Z</time></trkpt><trkpt lat="30.95400921148766" lon="-4.874298463404507"><ele>693.0</ele><time>2026-03-23T10:40:34Z</time></trkpt><trkpt lat="30.95397426439935" lon="-4.8744826818501865"><ele>693.0</ele><time>2026-03-23T10:40:35Z</time></trkpt><trkpt lat="30.953945380893686" lon="-4.8746612425169475"><ele>693.0</ele><time>2026-03-23T10:40:36Z</time></trkpt><trkpt lat="30.953915757537867" lon="-4.8748505792579175"><ele>693.0</ele><time>2026-03-23T10:40:37Z</time></trkpt><trkpt lat="30.953885446919333" lon="-4.875036942926093"><ele>693.3333333333334</ele><time>2026-03-23T10:40:38Z</time></trkpt><trkpt lat="30.9538694533719" lon="-4.875216438946234"><ele>693.6666666666667</ele><time>2026-03-23T10:40:39Z</time></trkpt><trkpt lat="30.953840551519114" lon="-4.875393947404944"><ele>694.0</ele><time>2026-03-23T10:40:40Z</time></trkpt><trkpt lat="30.953809041803577" lon="-4.875571708568618"><ele>694.0</ele><time>2026-03-23T10:40:41Z</time></trkpt><trkpt lat="30.953759835685347" lon="-4.875753912043844"><ele>694.0</ele><time>2026-03-23T10:40:42Z</time></trkpt><trkpt lat="30.953727108040002" lon="-4.875942627190456"><ele>694.0</ele><time>2026-03-23T10:40:43Z</time></trkpt><trkpt lat="30.95368986064861" lon="-4.8761500926814865"><ele>694.25</ele><time>2026-03-23T10:40:44Z</time></trkpt><trkpt lat="30.95366281311312" lon="-4.876325571399066"><ele>694.5</ele><time>2026-03-23T10:40:45Z</time></trkpt><trkpt lat="30.953637625036507" lon="-4.87649955962797"><ele>694.75</ele><time>2026-03-23T10:40:46Z</time></trkpt><trkpt lat="30.953613454369812" lon="-4.876654300637113"><ele>695.0</ele><time>2026-03-23T10:40:47Z</time></trkpt><trkpt lat="30.9535843348821" lon="-4.876822862433337"><ele>695.0</ele><time>2026-03-23T10:40:48Z</time></trkpt><trkpt lat="30.953533611675688" lon="-4.876993992611845"><ele>695.0</ele><time>2026-03-23T10:40:49Z</time></trkpt><trkpt lat="30.953500446501828" lon="-4.877156610862972"><ele>695.0</ele><time>2026-03-23T10:40:50Z</time></trkpt><trkpt lat="30.953470399930044" lon="-4.8773039376508605"><ele>695.0</ele><time>2026-03-23T10:40:51Z</time></trkpt><trkpt lat="30.953439565590955" lon="-4.877454122104136"><ele>695.0</ele><time>2026-03-23T10:40:52Z</time></trkpt><trkpt lat="30.953404971083774" lon="-4.877612701197739"><ele>695.0</ele><time>2026-03-23T10:40:53Z</time></trkpt><trkpt lat="30.95335804684621" lon="-4.877784787805536"><ele>695.0</ele><time>2026-03-23T10:40:54Z</time></trkpt><trkpt lat="30.953307754834153" lon="-4.8779708191531785"><ele>695.0</ele><time>2026-03-23T10:40:55Z</time></trkpt><trkpt lat="30.953263380468112" lon="-4.878185714564078"><ele>695.0</ele><time>2026-03-23T10:40:56Z</time></trkpt><trkpt lat="30.953207578367824" lon="-4.878405344335932"><ele>695.0</ele><time>2026-03-23T10:40:57Z</time></trkpt><trkpt lat="30.953155293228406" lon="-4.878633279849547"><ele>695.3333333333333</ele><time>2026-03-23T10:40:58Z</time></trkpt><trkpt lat="30.9531060701267" lon="-4.878869226005442"><ele>695.6666666666666</ele><time>2026-03-23T10:40:59Z</time></trkpt><trkpt lat="30.953083367531043" lon="-4.879138951745035"><ele>696.0</ele><time>2026-03-23T10:41:00Z</time></trkpt><trkpt lat="30.9530727142363" lon="-4.879414790036775"><ele>696.5</ele><time>2026-03-23T10:41:01Z</time></trkpt><trkpt lat="30.953074275006514" lon="-4.879698121949184"><ele>697.0</ele><time>2026-03-23T10:41:02Z</time></trkpt><trkpt lat="30.95307573333149" lon="-4.879947796839301"><ele>697.6666666666667</ele><time>2026-03-23T10:41:03Z</time></trkpt><trkpt lat="30.953062729017475" lon="-4.880165205718081"><ele>698.3333333333334</ele><time>2026-03-23T10:41:04Z</time></trkpt><trkpt lat="30.95305936995866" lon="-4.880381243475219"><ele>699.0</ele><time>2026-03-23T10:41:05Z</time></trkpt><trkpt lat="30.953056163398262" lon="-4.880587473229477"><ele>699.0</ele><time>2026-03-23T10:41:06Z</time></trkpt><trkpt lat="30.953055984567563" lon="-4.880782683543282"><ele>699.0</ele><time>2026-03-23T10:41:07Z</time></trkpt><trkpt lat="30.95305598456615" lon="-4.880974356755693"><ele>699.0</ele><time>2026-03-23T10:41:08.001Z</time></trkpt><trkpt lat="30.953059854645353" lon="-4.881174504531325"><ele>699.3333333333334</ele><time>2026-03-23T10:41:09.001Z</time></trkpt><trkpt lat="30.953043176912665" lon="-4.8813691874879455"><ele>699.6666666666667</ele><time>2026-03-23T10:41:10.001Z</time></trkpt><trkpt lat="30.95302429459153" lon="-4.8815594742341775"><ele>700.0</ele><time>2026-03-23T10:41:11.001Z</time></trkpt><trkpt lat="30.953004795485725" lon="-4.881761772192748"><ele>700.3333333333334</ele><time>2026-03-23T10:41:12.001Z</time></trkpt><trkpt lat="30.952986836286367" lon="-4.881977627573024"><ele>700.6666666666666</ele><time>2026-03-23T10:41:13.001Z</time></trkpt><trkpt lat="30.952967483008223" lon="-4.882199100719353"><ele>701.0</ele><time>2026-03-23T10:41:14.001Z</time></trkpt><trkpt lat="30.95292919005329" lon="-4.882412134821304"><ele>701.0</ele><time>2026-03-23T10:41:15.001Z</time></trkpt><trkpt lat="30.95289833003402" lon="-4.882629476921821"><ele>701.0</ele><time>2026-03-23T10:41:16.001Z</time></trkpt><trkpt lat="30.952866050683795" lon="-4.882858718174484"><ele>701.0</ele><time>2026-03-23T10:41:17.001Z</time></trkpt><trkpt lat="30.9528105610183" lon="-4.8830653293838395"><ele>701.0</ele><time>2026-03-23T10:41:18.001Z</time></trkpt><trkpt lat="30.952757898104696" lon="-4.883260860416098"><ele>701.0</ele><time>2026-03-23T10:41:19.001Z</time></trkpt><trkpt lat="30.952705542696147" lon="-4.883456124797365"><ele>701.0</ele><time>2026-03-23T10:41:20.001Z</time></trkpt><trkpt lat="30.95265567139101" lon="-4.883647403966958"><ele>701.0</ele><time>2026-03-23T10:41:21.001Z</time></trkpt><trkpt lat="30.95261630643511" lon="-4.883840256926097"><ele>701.0</ele><time>2026-03-23T10:41:22.001Z</time></trkpt><trkpt lat="30.952573857662095" lon="-4.884008502946038"><ele>701.0</ele><time>2026-03-23T10:41:23.001Z</time></trkpt><trkpt lat="30.95254364975635" lon="-4.884184853195045"><ele>700.3333333333333</ele><time>2026-03-23T10:41:24.001Z</time></trkpt><trkpt lat="30.952520456148413" lon="-4.884378854944563"><ele>699.6666666666666</ele><time>2026-03-23T10:41:25.001Z</time></trkpt><trkpt lat="30.952494895715848" lon="-4.8845895822333585"><ele>699.0</ele><time>2026-03-23T10:41:26.001Z</time></trkpt><trkpt lat="30.952466776952757" lon="-4.884799507045678"><ele>699.0</ele><time>2026-03-23T10:41:27.001Z</time></trkpt><trkpt lat="30.952425136476986" lon="-4.884987559988542"><ele>699.0</ele><time>2026-03-23T10:41:28.001Z</time></trkpt><trkpt lat="30.95242890875182" lon="-4.885132952616487"><ele>699.0</ele><time>2026-03-23T10:41:29.001Z</time></trkpt><trkpt lat="30.952411143860125" lon="-4.885292820404406"><ele>699.0</ele><time>2026-03-23T10:41:30.001Z</time></trkpt><trkpt lat="30.95239362437369" lon="-4.885464477486282"><ele>699.5</ele><time>2026-03-23T10:41:31.001Z</time></trkpt><trkpt lat="30.95238633534132" lon="-4.885631726228767"><ele>700.0</ele><time>2026-03-23T10:41:32.001Z</time></trkpt><trkpt lat="30.952391189601176" lon="-4.885807562016565"><ele>700.5</ele><time>2026-03-23T10:41:33.001Z</time></trkpt><trkpt lat="30.952389267774286" lon="-4.88596516290052"><ele>701.0</ele><time>2026-03-23T10:41:34.001Z</time></trkpt><trkpt lat="30.95231688143168" lon="-4.886092266767792"><ele>701.0</ele><time>2026-03-23T10:41:35.001Z</time></trkpt><trkpt lat="30.952261964190612" lon="-4.886241721653741"><ele>701.0</ele><time>2026-03-23T10:41:36.001Z</time></trkpt><trkpt lat="30.952210417459018" lon="-4.886410378441089"><ele>701.0</ele><time>2026-03-23T10:41:37.001Z</time></trkpt><trkpt lat="30.952167787978556" lon="-4.886565662587968"><ele>701.0</ele><time>2026-03-23T10:41:38.001Z</time></trkpt><trkpt lat="30.95215682121459" lon="-4.886724537828531"><ele>701.3333333333333</ele><time>2026-03-23T10:41:39.001Z</time></trkpt><trkpt lat="30.95215219617358" lon="-4.8869041243030455"><ele>701.6666666666666</ele><time>2026-03-23T10:41:40.001Z</time></trkpt><trkpt lat="30.952155869031937" lon="-4.887114353880765"><ele>702.0</ele><time>2026-03-23T10:41:41.001Z</time></trkpt><trkpt lat="30.952115422216846" lon="-4.88731048955438"><ele>702.0</ele><time>2026-03-23T10:41:42.001Z</time></trkpt><trkpt lat="30.952070248823322" lon="-4.887545236519658"><ele>702.0</ele><time>2026-03-23T10:41:43.001Z</time></trkpt><trkpt lat="30.952019006134847" lon="-4.887783072341739"><ele>702.0</ele><time>2026-03-23T10:41:44.001Z</time></trkpt><trkpt lat="30.951963958261707" lon="-4.888021146489242"><ele>702.0</ele><time>2026-03-23T10:41:45.001Z</time></trkpt><trkpt lat="30.9519144447192" lon="-4.888228911473445"><ele>702.0</ele><time>2026-03-23T10:41:46.001Z</time></trkpt><trkpt lat="30.951862045625028" lon="-4.8884129684912425"><ele>702.0</ele><time>2026-03-23T10:41:47.001Z</time></trkpt><trkpt lat="30.951825868765418" lon="-4.888591480091787"><ele>702.3333333333334</ele><time>2026-03-23T10:41:48.001Z</time></trkpt><trkpt lat="30.951774506495777" lon="-4.888758584085141"><ele>702.6666666666667</ele><time>2026-03-23T10:41:49.001Z</time></trkpt><trkpt lat="30.951724179910837" lon="-4.888936215721109"><ele>703.0</ele><time>2026-03-23T10:41:50.001Z</time></trkpt><trkpt lat="30.951635811357484" lon="-4.889100232754151"><ele>702.25</ele><time>2026-03-23T10:41:51.001Z</time></trkpt><trkpt lat="30.951567989084715" lon="-4.889252454556779"><ele>701.5</ele><time>2026-03-23T10:41:52.001Z</time></trkpt><trkpt lat="30.951502623746507" lon="-4.889399168126007"><ele>700.75</ele><time>2026-03-23T10:41:53.001Z</time></trkpt><trkpt lat="30.951434960380674" lon="-4.889550803768455"><ele>700.0</ele><time>2026-03-23T10:41:54.001Z</time></trkpt><trkpt lat="30.951351744041254" lon="-4.889693919814926"><ele>700.0</ele><time>2026-03-23T10:41:55.001Z</time></trkpt><trkpt lat="30.951266494439878" lon="-4.8898451054144765"><ele>700.0</ele><time>2026-03-23T10:41:56.001Z</time></trkpt><trkpt lat="30.95119262966828" lon="-4.889999593321303"><ele>700.0</ele><time>2026-03-23T10:41:57.001Z</time></trkpt><trkpt lat="30.951087981078285" lon="-4.8901346522660765"><ele>700.0</ele><time>2026-03-23T10:41:58.001Z</time></trkpt><trkpt lat="30.95099184589128" lon="-4.890291408213356"><ele>700.0</ele><time>2026-03-23T10:41:59.001Z</time></trkpt><trkpt lat="30.950894574679484" lon="-4.890455280410487"><ele>700.0</ele><time>2026-03-23T10:42:00.001Z</time></trkpt><trkpt lat="30.950802054616133" lon="-4.890627508227353"><ele>699.3333333333334</ele><time>2026-03-23T10:42:01.001Z</time></trkpt><trkpt lat="30.95071025255347" lon="-4.890801257432231"><ele>698.6666666666666</ele><time>2026-03-23T10:42:02.001Z</time></trkpt><trkpt lat="30.9506117197742" lon="-4.891013359468118"><ele>698.0</ele><time>2026-03-23T10:42:03.001Z</time></trkpt><trkpt lat="30.950509479819367" lon="-4.891214122928211"><ele>698.0</ele><time>2026-03-23T10:42:04.001Z</time></trkpt><trkpt lat="30.9504042648751" lon="-4.891378701842407"><ele>698.0</ele><time>2026-03-23T10:42:05.001Z</time></trkpt><trkpt lat="30.950296980520818" lon="-4.891525775896852"><ele>698.0</ele><time>2026-03-23T10:42:06.001Z</time></trkpt><trkpt lat="30.950206111385356" lon="-4.89165449760921"><ele>697.5</ele><time>2026-03-23T10:42:07.001Z</time></trkpt><trkpt lat="30.950128253342402" lon="-4.89178879828896"><ele>697.0</ele><time>2026-03-23T10:42:08.001Z</time></trkpt><trkpt lat="30.95004101453566" lon="-4.891908810657511"><ele>696.5</ele><time>2026-03-23T10:42:09.001Z</time></trkpt><trkpt lat="30.95001915492648" lon="-4.8920727426639194"><ele>696.0</ele><time>2026-03-23T10:42:10.001Z</time></trkpt><trkpt lat="30.949985582701547" lon="-4.892218533319476"><ele>696.0</ele><time>2026-03-23T10:42:11.001Z</time></trkpt><trkpt lat="30.9499778818943" lon="-4.892356219487528"><ele>696.0</ele><time>2026-03-23T10:42:12.001Z</time></trkpt><trkpt lat="30.949994200092377" lon="-4.892480610232622"><ele>696.0</ele><time>2026-03-23T10:42:13.001Z</time></trkpt><trkpt lat="30.94998128458509" lon="-4.892590202056742"><ele>696.0</ele><time>2026-03-23T10:42:14.001Z</time></trkpt><trkpt lat="30.950093702809692" lon="-4.892678861515916"><ele>697.0</ele><time>2026-03-23T10:42:15.001Z</time></trkpt><trkpt lat="30.95017283570697" lon="-4.8927948630788345"><ele>698.0</ele><time>2026-03-23T10:42:16.001Z</time></trkpt><trkpt lat="30.950248088234233" lon="-4.892950132998621"><ele>699.0</ele><time>2026-03-23T10:42:17.001Z</time></trkpt><trkpt lat="30.950347154873104" lon="-4.8930922108981045"><ele>700.0</ele><time>2026-03-23T10:42:18.001Z</time></trkpt><trkpt lat="30.950387190853554" lon="-4.893221416244323"><ele>700.0</ele><time>2026-03-23T10:42:19.001Z</time></trkpt><trkpt lat="30.950444839676514" lon="-4.893317056155042"><ele>700.0</ele><time>2026-03-23T10:42:20.001Z</time></trkpt><trkpt lat="30.950504219976363" lon="-4.893419198687049"><ele>700.0</ele><time>2026-03-23T10:42:21.001Z</time></trkpt><trkpt lat="30.95057683241084" lon="-4.893504167839903"><ele>700.0</ele><time>2026-03-23T10:42:22.001Z</time></trkpt><trkpt lat="30.95065927999748" lon="-4.893585684846627"><ele>700.0</ele><time>2026-03-23T10:42:23.001Z</time></trkpt><trkpt lat="30.950746449648843" lon="-4.893669397843949"><ele>699.2</ele><time>2026-03-23T10:42:24.001Z</time></trkpt><trkpt lat="30.95082316516488" lon="-4.893750922809778"><ele>698.4</ele><time>2026-03-23T10:42:25.002Z</time></trkpt><trkpt lat="30.950882402378298" lon="-4.893819780599374"><ele>697.5999999999999</ele><time>2026-03-23T10:42:26.002Z</time></trkpt><trkpt lat="30.950925262655225" lon="-4.893907103518347"><ele>696.8</ele><time>2026-03-23T10:42:27.002Z</time></trkpt><trkpt lat="30.95093784629773" lon="-4.893989351818623"><ele>696.0</ele><time>2026-03-23T10:42:28.002Z</time></trkpt><trkpt lat="30.95091731648648" lon="-4.8941243257297025"><ele>695.1999999999999</ele><time>2026-03-23T10:42:30.002Z</time></trkpt><trkpt lat="30.95094306821112" lon="-4.894283181618034"><ele>694.4</ele><time>2026-03-23T10:42:32Z</time></trkpt><trkpt lat="30.950949499904276" lon="-4.8943746541521005"><ele>693.6</ele><time>2026-03-23T10:42:33Z</time></trkpt><trkpt lat="30.950956096017393" lon="-4.894482220235997"><ele>692.8</ele><time>2026-03-23T10:42:34Z</time></trkpt><trkpt lat="30.950967288771306" lon="-4.894616032383415"><ele>692.0</ele><time>2026-03-23T10:42:35Z</time></trkpt><trkpt lat="30.95096611117487" lon="-4.894765739976229"><ele>692.0</ele><time>2026-03-23T10:42:36Z</time></trkpt><trkpt lat="30.950964923266294" lon="-4.894916759320571"><ele>692.0</ele><time>2026-03-23T10:42:37Z</time></trkpt><trkpt lat="30.950966348136227" lon="-4.895024360103882"><ele>692.0</ele><time>2026-03-23T10:42:38Z</time></trkpt><trkpt lat="30.950968522034795" lon="-4.895149847771042"><ele>692.0</ele><time>2026-03-23T10:42:39Z</time></trkpt><trkpt lat="30.95097103796211" lon="-4.8952950787449225"><ele>692.2</ele><time>2026-03-23T10:42:40Z</time></trkpt><trkpt lat="30.950972794244507" lon="-4.89541949192303"><ele>692.4000000000001</ele><time>2026-03-23T10:42:41Z</time></trkpt><trkpt lat="30.95097423514579" lon="-4.89553250880844"><ele>692.5999999999999</ele><time>2026-03-23T10:42:42Z</time></trkpt><trkpt lat="30.950960069276945" lon="-4.895647230134589"><ele>692.8</ele><time>2026-03-23T10:42:43Z</time></trkpt><trkpt lat="30.950985990607908" lon="-4.8957435634480255"><ele>693.0</ele><time>2026-03-23T10:42:44Z</time></trkpt><trkpt lat="30.95096736114559" lon="-4.895833487608473"><ele>693.25</ele><time>2026-03-23T10:42:45Z</time></trkpt><trkpt lat="30.950960620067946" lon="-4.895938772171621"><ele>693.5</ele><time>2026-03-23T10:42:46Z</time></trkpt><trkpt lat="30.950953205717013" lon="-4.896053941322058"><ele>693.75</ele><time>2026-03-23T10:42:47Z</time></trkpt><trkpt lat="30.950936988401708" lon="-4.896189035976038"><ele>694.0</ele><time>2026-03-23T10:42:48Z</time></trkpt><trkpt lat="30.950906729624545" lon="-4.896356371529738"><ele>694.0</ele><time>2026-03-23T10:42:49Z</time></trkpt><trkpt lat="30.950865429887514" lon="-4.8965160163935835"><ele>694.0</ele><time>2026-03-23T10:42:50Z</time></trkpt><trkpt lat="30.950817099063695" lon="-4.8966698083308255"><ele>694.0</ele><time>2026-03-23T10:42:51Z</time></trkpt><trkpt lat="30.950776490647293" lon="-4.896809085002882"><ele>694.0</ele><time>2026-03-23T10:42:52Z</time></trkpt><trkpt lat="30.950747063035482" lon="-4.896928074872663"><ele>694.0</ele><time>2026-03-23T10:42:53Z</time></trkpt><trkpt lat="30.950716686667242" lon="-4.897050901331"><ele>694.0</ele><time>2026-03-23T10:42:54Z</time></trkpt><trkpt lat="30.950672008560502" lon="-4.8971782077521535"><ele>694.0</ele><time>2026-03-23T10:42:55Z</time></trkpt><trkpt lat="30.95062987158111" lon="-4.897332695460788"><ele>694.0</ele><time>2026-03-23T10:42:56Z</time></trkpt><trkpt lat="30.95062536389145" lon="-4.897495653306188"><ele>693.75</ele><time>2026-03-23T10:42:57Z</time></trkpt><trkpt lat="30.950623632584946" lon="-4.897645920209219"><ele>693.5</ele><time>2026-03-23T10:42:58Z</time></trkpt><trkpt lat="30.95062907691608" lon="-4.897796068967312"><ele>693.25</ele><time>2026-03-23T10:42:59Z</time></trkpt><trkpt lat="30.950645820275223" lon="-4.8979362998237965"><ele>693.0</ele><time>2026-03-23T10:43:00Z</time></trkpt><trkpt lat="30.95064527896295" lon="-4.898067459064233"><ele>693.0</ele><time>2026-03-23T10:43:01Z</time></trkpt><trkpt lat="30.950653208604937" lon="-4.898194832577183"><ele>693.0</ele><time>2026-03-23T10:43:02Z</time></trkpt><trkpt lat="30.9506756357869" lon="-4.898334295957371"><ele>693.0</ele><time>2026-03-23T10:43:03Z</time></trkpt><trkpt lat="30.950691656356017" lon="-4.898488028814079"><ele>693.0</ele><time>2026-03-23T10:43:04Z</time></trkpt><trkpt lat="30.950699499871398" lon="-4.898640580040389"><ele>693.0</ele><time>2026-03-23T10:43:05Z</time></trkpt><trkpt lat="30.950732000734895" lon="-4.898788935168027"><ele>693.0</ele><time>2026-03-23T10:43:06Z</time></trkpt><trkpt lat="30.9507470707265" lon="-4.8989249433231645"><ele>693.0</ele><time>2026-03-23T10:43:07Z</time></trkpt><trkpt lat="30.950755937207838" lon="-4.899066145276465"><ele>693.0</ele><time>2026-03-23T10:43:08Z</time></trkpt><trkpt lat="30.950765399259257" lon="-4.899213301883281"><ele>693.2</ele><time>2026-03-23T10:43:09Z</time></trkpt><trkpt lat="30.950774050876092" lon="-4.899352801799444"><ele>693.4</ele><time>2026-03-23T10:43:10Z</time></trkpt><trkpt lat="30.950780536020524" lon="-4.899469203426692"><ele>693.6</ele><time>2026-03-23T10:43:11Z</time></trkpt><trkpt lat="30.950786438935303" lon="-4.89957731138114"><ele>693.8000000000001</ele><time>2026-03-23T10:43:12Z</time></trkpt><trkpt lat="30.95080710360544" lon="-4.899692663095906"><ele>694.0</ele><time>2026-03-23T10:43:13Z</time></trkpt><trkpt lat="30.950805622005912" lon="-4.899812388203795"><ele>694.0</ele><time>2026-03-23T10:43:14Z</time></trkpt><trkpt lat="30.950825304896192" lon="-4.899944410249924"><ele>694.0</ele><time>2026-03-23T10:43:15Z</time></trkpt><trkpt lat="30.950828698105823" lon="-4.900064609825132"><ele>694.0</ele><time>2026-03-23T10:43:16Z</time></trkpt><trkpt lat="30.95082354331016" lon="-4.900185134607841"><ele>694.0</ele><time>2026-03-23T10:43:17.001Z</time></trkpt><trkpt lat="30.950846140898175" lon="-4.9003051962619235"><ele>694.0</ele><time>2026-03-23T10:43:18.001Z</time></trkpt><trkpt lat="30.95086067824169" lon="-4.900441111618292"><ele>693.75</ele><time>2026-03-23T10:43:19.001Z</time></trkpt><trkpt lat="30.950875068815556" lon="-4.900578835341131"><ele>693.5</ele><time>2026-03-23T10:43:20.001Z</time></trkpt><trkpt lat="30.950889056385726" lon="-4.900712392484445"><ele>693.25</ele><time>2026-03-23T10:43:21.001Z</time></trkpt><trkpt lat="30.95090371329618" lon="-4.900849410798799"><ele>693.0</ele><time>2026-03-23T10:43:22.001Z</time></trkpt><trkpt lat="30.950901213609338" lon="-4.9009781014662215"><ele>693.4</ele><time>2026-03-23T10:43:23.001Z</time></trkpt><trkpt lat="30.950919811051904" lon="-4.901102501801651"><ele>693.8</ele><time>2026-03-23T10:43:24.001Z</time></trkpt><trkpt lat="30.950932538119297" lon="-4.901224578146257"><ele>694.2</ele><time>2026-03-23T10:43:25.001Z</time></trkpt><trkpt lat="30.950945554455778" lon="-4.90133901514448"><ele>694.6</ele><time>2026-03-23T10:43:26.001Z</time></trkpt><trkpt lat="30.95095786666976" lon="-4.901449181276645"><ele>695.0</ele><time>2026-03-23T10:43:27.001Z</time></trkpt><trkpt lat="30.950969827906487" lon="-4.901561629902417"><ele>695.0</ele><time>2026-03-23T10:43:28.001Z</time></trkpt><trkpt lat="30.95098301588029" lon="-4.901675770162202"><ele>695.0</ele><time>2026-03-23T10:43:29.001Z</time></trkpt><trkpt lat="30.950992877570137" lon="-4.901775747511401"><ele>695.0</ele><time>2026-03-23T10:43:30.001Z</time></trkpt><trkpt lat="30.951002631012877" lon="-4.90186516681171"><ele>695.0</ele><time>2026-03-23T10:43:31.001Z</time></trkpt><trkpt lat="30.95101395036874" lon="-4.901954630290499"><ele>695.0</ele><time>2026-03-23T10:43:32.001Z</time></trkpt><trkpt lat="30.951029935706362" lon="-4.902050169306544"><ele>695.0</ele><time>2026-03-23T10:43:33.001Z</time></trkpt><trkpt lat="30.95104211069935" lon="-4.902162247240433"><ele>695.2</ele><time>2026-03-23T10:43:34.001Z</time></trkpt><trkpt lat="30.951048190817065" lon="-4.902283311380488"><ele>695.4</ele><time>2026-03-23T10:43:35.001Z</time></trkpt><trkpt lat="30.95105126784302" lon="-4.9023903944172975"><ele>695.5999999999999</ele><time>2026-03-23T10:43:36.001Z</time></trkpt><trkpt lat="30.951055680221675" lon="-4.902490105921371"><ele>695.8</ele><time>2026-03-23T10:43:37.001Z</time></trkpt><trkpt lat="30.951059443703087" lon="-4.902590319443196"><ele>696.0</ele><time>2026-03-23T10:43:38.001Z</time></trkpt><trkpt lat="30.95106148916291" lon="-4.902706596127053"><ele>696.0</ele><time>2026-03-23T10:43:39.001Z</time></trkpt><trkpt lat="30.951068379613044" lon="-4.902811303999908"><ele>696.0</ele><time>2026-03-23T10:43:40.001Z</time></trkpt><trkpt lat="30.95105528114573" lon="-4.902893437297699"><ele>696.0</ele><time>2026-03-23T10:43:41.001Z</time></trkpt><trkpt lat="30.951050963396717" lon="-4.902989870877032"><ele>696.0</ele><time>2026-03-23T10:43:43.001Z</time></trkpt><trkpt lat="30.9510600961379" lon="-4.903080038914689"><ele>696.0</ele><time>2026-03-23T10:43:45.001Z</time></trkpt><trkpt lat="30.95105832148637" lon="-4.903155615991004"><ele>696.0</ele><time>2026-03-23T10:43:47.001Z</time></trkpt><trkpt lat="30.95103958042971" lon="-4.903306474898546"><ele>696.0</ele><time>2026-03-23T10:43:49.001Z</time></trkpt><trkpt lat="30.95103650584757" lon="-4.903430232350704"><ele>696.0</ele><time>2026-03-23T10:43:50.001Z</time></trkpt><trkpt lat="30.95105056506723" lon="-4.903568159978237"><ele>696.0</ele><time>2026-03-23T10:43:51.001Z</time></trkpt><trkpt lat="30.951049522169843" lon="-4.903681291530279"><ele>696.0</ele><time>2026-03-23T10:43:52.001Z</time></trkpt><trkpt lat="30.951048784585875" lon="-4.9037766682143635"><ele>696.0</ele><time>2026-03-23T10:43:53.001Z</time></trkpt><trkpt lat="30.9510481196949" lon="-4.903879992354112"><ele>696.0</ele><time>2026-03-23T10:43:54.001Z</time></trkpt><trkpt lat="30.951047584586252" lon="-4.903984093575912"><ele>696.0</ele><time>2026-03-23T10:43:55.001Z</time></trkpt><trkpt lat="30.951047584585417" lon="-4.9040810928987115"><ele>696.0</ele><time>2026-03-23T10:43:56.001Z</time></trkpt><trkpt lat="30.951050967287106" lon="-4.90419282256786"><ele>696.0</ele><time>2026-03-23T10:43:57.001Z</time></trkpt><trkpt lat="30.95105438553329" lon="-4.904302737219486"><ele>696.0</ele><time>2026-03-23T10:43:58.001Z</time></trkpt><trkpt lat="30.95105706786613" lon="-4.9043889884401715"><ele>696.0</ele><time>2026-03-23T10:43:59.001Z</time></trkpt><trkpt lat="30.951049732986817" lon="-4.9045138868092835"><ele>696.4</ele><time>2026-03-23T10:44:01.001Z</time></trkpt><trkpt lat="30.951050523497845" lon="-4.904587648568771"><ele>696.8</ele><time>2026-03-23T10:44:02.001Z</time></trkpt><trkpt lat="30.95105832716735" lon="-4.904718782813951"><ele>697.1999999999999</ele><time>2026-03-23T10:44:04.001Z</time></trkpt><trkpt lat="30.95108440415308" lon="-4.904846558003528"><ele>697.5999999999999</ele><time>2026-03-23T10:44:06.001Z</time></trkpt><trkpt lat="30.951092209631717" lon="-4.904940745898347"><ele>698.0</ele><time>2026-03-23T10:44:08.001Z</time></trkpt><trkpt lat="30.951084431433085" lon="-4.905076886509967"><ele>698.0</ele><time>2026-03-23T10:44:10.001Z</time></trkpt><trkpt lat="30.951102809986878" lon="-4.905176089498045"><ele>698.0</ele><time>2026-03-23T10:44:12.001Z</time></trkpt><trkpt lat="30.951105453199407" lon="-4.905257321246345"><ele>698.0</ele><time>2026-03-23T10:44:14.001Z</time></trkpt><trkpt lat="30.9511084113628" lon="-4.905348232527395"><ele>698.0</ele><time>2026-03-23T10:44:16.001Z</time></trkpt><trkpt lat="30.95111212979838" lon="-4.905457972883687"><ele>698.0</ele><time>2026-03-23T10:44:17.001Z</time></trkpt><trkpt lat="30.95111521193662" lon="-4.90554676529752"><ele>698.0</ele><time>2026-03-23T10:44:18.001Z</time></trkpt><trkpt lat="30.951119218399292" lon="-4.905662186142619"><ele>698.0</ele><time>2026-03-23T10:44:20.001Z</time></trkpt><trkpt lat="30.950930870090996" lon="-4.905692885671062"><ele>698.0</ele><time>2026-03-23T10:44:24.001Z</time></trkpt><trkpt lat="30.950841343222567" lon="-4.905636845121714"><ele>698.0</ele><time>2026-03-23T10:44:25.001Z</time></trkpt><trkpt lat="30.95074052192949" lon="-4.905595735541977"><ele>698.0</ele><time>2026-03-23T10:44:26.001Z</time></trkpt><trkpt lat="30.95062688717811" lon="-4.90555586945382"><ele>698.25</ele><time>2026-03-23T10:44:27.001Z</time></trkpt><trkpt lat="30.95050314972639" lon="-4.905531936904574"><ele>698.5</ele><time>2026-03-23T10:44:28.001Z</time></trkpt><trkpt lat="30.95038382583891" lon="-4.905484504361349"><ele>698.75</ele><time>2026-03-23T10:44:29.001Z</time></trkpt><trkpt lat="30.950274268129352" lon="-4.90544120083779"><ele>699.0</ele><time>2026-03-23T10:44:30.001Z</time></trkpt><trkpt lat="30.950158958885208" lon="-4.905395623920941"><ele>699.0</ele><time>2026-03-23T10:44:31.001Z</time></trkpt><trkpt lat="30.950046550024226" lon="-4.905351193437019"><ele>699.0</ele><time>2026-03-23T10:44:32.001Z</time></trkpt><trkpt lat="30.94995007886338" lon="-4.9053130624799515"><ele>699.0</ele><time>2026-03-23T10:44:33.002Z</time></trkpt><trkpt lat="30.94984957304057" lon="-4.905273336717115"><ele>699.0</ele><time>2026-03-23T10:44:34.002Z</time></trkpt><trkpt lat="30.94972960837318" lon="-4.905225919648565"><ele>698.5</ele><time>2026-03-23T10:44:35.002Z</time></trkpt><trkpt lat="30.949596935488188" lon="-4.905173479626464"><ele>698.0</ele><time>2026-03-23T10:44:36.002Z</time></trkpt><trkpt lat="30.94945908897637" lon="-4.9051108709008515"><ele>697.5</ele><time>2026-03-23T10:44:37.002Z</time></trkpt><trkpt lat="30.949312238809465" lon="-4.905063092393842"><ele>697.0</ele><time>2026-03-23T10:44:38Z</time></trkpt><trkpt lat="30.949183900984174" lon="-4.905010676210205"><ele>697.0</ele><time>2026-03-23T10:44:39Z</time></trkpt><trkpt lat="30.94906650489338" lon="-4.904955310410981"><ele>697.0</ele><time>2026-03-23T10:44:40Z</time></trkpt><trkpt lat="30.948942959962036" lon="-4.904901632582912"><ele>697.0</ele><time>2026-03-23T10:44:41Z</time></trkpt><trkpt lat="30.94881350604392" lon="-4.904850724432704"><ele>697.0</ele><time>2026-03-23T10:44:42Z</time></trkpt><trkpt lat="30.94868967633313" lon="-4.904805028785012"><ele>697.0</ele><time>2026-03-23T10:44:43Z</time></trkpt><trkpt lat="30.948573177955435" lon="-4.90476695642973"><ele>697.0</ele><time>2026-03-23T10:44:44Z</time></trkpt><trkpt lat="30.948445034466868" lon="-4.904723387416991"><ele>697.0</ele><time>2026-03-23T10:44:45Z</time></trkpt><trkpt lat="30.948312311267262" lon="-4.904673503815815"><ele>697.0</ele><time>2026-03-23T10:44:46Z</time></trkpt><trkpt lat="30.948179765997434" lon="-4.904624837363018"><ele>696.75</ele><time>2026-03-23T10:44:47Z</time></trkpt><trkpt lat="30.94805224735957" lon="-4.904575765069737"><ele>696.5</ele><time>2026-03-23T10:44:48Z</time></trkpt><trkpt lat="30.947926901265703" lon="-4.9045274703478725"><ele>696.25</ele><time>2026-03-23T10:44:49Z</time></trkpt><trkpt lat="30.947790819187638" lon="-4.904473353287014"><ele>696.0</ele><time>2026-03-23T10:44:50Z</time></trkpt><trkpt lat="30.94765461775897" lon="-4.904422096182886"><ele>695.75</ele><time>2026-03-23T10:44:51Z</time></trkpt><trkpt lat="30.94753282429189" lon="-4.904376987082078"><ele>695.5</ele><time>2026-03-23T10:44:52Z</time></trkpt><trkpt lat="30.947411669089032" lon="-4.904332143151452"><ele>695.25</ele><time>2026-03-23T10:44:53Z</time></trkpt><trkpt lat="30.947292526354982" lon="-4.9042850734730346"><ele>695.0</ele><time>2026-03-23T10:44:54Z</time></trkpt><trkpt lat="30.947180726343504" lon="-4.904240924848991"><ele>695.0</ele><time>2026-03-23T10:44:55Z</time></trkpt><trkpt lat="30.947063553576875" lon="-4.904199845816288"><ele>695.0</ele><time>2026-03-23T10:44:56Z</time></trkpt><trkpt lat="30.946939827824327" lon="-4.904152540896906"><ele>695.0</ele><time>2026-03-23T10:44:57Z</time></trkpt><trkpt lat="30.946804505724135" lon="-4.904105084179952"><ele>695.0</ele><time>2026-03-23T10:44:58Z</time></trkpt><trkpt lat="30.946667140811364" lon="-4.904054760012178"><ele>695.0</ele><time>2026-03-23T10:44:59Z</time></trkpt><trkpt lat="30.946532471445767" lon="-4.904007833089001"><ele>695.0</ele><time>2026-03-23T10:45:00Z</time></trkpt><trkpt lat="30.946406686598007" lon="-4.903965012273814"><ele>695.0</ele><time>2026-03-23T10:45:01Z</time></trkpt><trkpt lat="30.94627602998191" lon="-4.9039258938855665"><ele>695.0</ele><time>2026-03-23T10:45:02Z</time></trkpt><trkpt lat="30.946138946052955" lon="-4.903884471771231"><ele>695.0</ele><time>2026-03-23T10:45:03Z</time></trkpt><trkpt lat="30.946009828714885" lon="-4.903845547706926"><ele>695.0</ele><time>2026-03-23T10:45:04Z</time></trkpt><trkpt lat="30.945878010349762" lon="-4.903801635197452"><ele>695.0</ele><time>2026-03-23T10:45:05Z</time></trkpt><trkpt lat="30.945733156101955" lon="-4.903758923930912"><ele>695.0</ele><time>2026-03-23T10:45:06Z</time></trkpt><trkpt lat="30.945581307720545" lon="-4.903718581368271"><ele>695.0</ele><time>2026-03-23T10:45:07Z</time></trkpt><trkpt lat="30.945421872601614" lon="-4.903672163623864"><ele>695.0</ele><time>2026-03-23T10:45:08Z</time></trkpt><trkpt lat="30.945268478207172" lon="-4.903630102005992"><ele>695.0</ele><time>2026-03-23T10:45:09Z</time></trkpt><trkpt lat="30.94511611908964" lon="-4.903584787790783"><ele>694.75</ele><time>2026-03-23T10:45:10Z</time></trkpt><trkpt lat="30.94496977573279" lon="-4.903538826103458"><ele>694.5</ele><time>2026-03-23T10:45:11Z</time></trkpt><trkpt lat="30.944831387561237" lon="-4.903494381861193"><ele>694.25</ele><time>2026-03-23T10:45:12Z</time></trkpt><trkpt lat="30.94470352501461" lon="-4.9034538215603884"><ele>694.0</ele><time>2026-03-23T10:45:13Z</time></trkpt><trkpt lat="30.94458385373996" lon="-4.903418348672589"><ele>694.0</ele><time>2026-03-23T10:45:14Z</time></trkpt><trkpt lat="30.94446022525821" lon="-4.903388851667661"><ele>694.0</ele><time>2026-03-23T10:45:15Z</time></trkpt><trkpt lat="30.944340634650853" lon="-4.903359621576857"><ele>694.0</ele><time>2026-03-23T10:45:16Z</time></trkpt><trkpt lat="30.944233625061198" lon="-4.903331978970288"><ele>694.0</ele><time>2026-03-23T10:45:17Z</time></trkpt><trkpt lat="30.944138563211748" lon="-4.903308314914457"><ele>694.0</ele><time>2026-03-23T10:45:18Z</time></trkpt><trkpt lat="30.944051673033574" lon="-4.903291359819795"><ele>694.0</ele><time>2026-03-23T10:45:19Z</time></trkpt><trkpt lat="30.9439795627559" lon="-4.903276404337572"><ele>694.0</ele><time>2026-03-23T10:45:20Z</time></trkpt><trkpt lat="30.943915048529615" lon="-4.903261316799675"><ele>694.0</ele><time>2026-03-23T10:45:21Z</time></trkpt><trkpt lat="30.943809425425524" lon="-4.903238765816817"><ele>694.0</ele><time>2026-03-23T10:45:23Z</time></trkpt></trkseg><trkseg><trkpt lat="30.943683082080305" lon="-4.903236469723735"><ele>694.0</ele><time>2026-03-23T11:05:17.002Z</time></trkpt><trkpt lat="30.94362018294238" lon="-4.903179339153343"><ele>694.0</ele><time>2026-03-23T11:09:07.001Z</time></trkpt><trkpt lat="30.943523614477353" lon="-4.903161514528637"><ele>694.0</ele><time>2026-03-23T11:09:09.001Z</time></trkpt><trkpt lat="30.943393384051625" lon="-4.903139959268431"><ele>694.0</ele><time>2026-03-23T11:09:11.001Z</time></trkpt><trkpt lat="30.94331300651047" lon="-4.903124236689494"><ele>694.0</ele><time>2026-03-23T11:09:12.001Z</time></trkpt><trkpt lat="30.943225463990437" lon="-4.903104027146692"><ele>694.2</ele><time>2026-03-23T11:09:13.001Z</time></trkpt><trkpt lat="30.943122989566614" lon="-4.903086899967957"><ele>694.4000000000001</ele><time>2026-03-23T11:09:14.001Z</time></trkpt><trkpt lat="30.943028280407553" lon="-4.903077120849748"><ele>694.6</ele><time>2026-03-23T11:09:15.001Z</time></trkpt><trkpt lat="30.942941433235607" lon="-4.903072744528614"><ele>694.8</ele><time>2026-03-23T11:09:16.001Z</time></trkpt><trkpt lat="30.942849640284827" lon="-4.90306722078016"><ele>695.0</ele><time>2026-03-23T11:09:17.001Z</time></trkpt><trkpt lat="30.94275186732695" lon="-4.903071145615332"><ele>695.0</ele><time>2026-03-23T11:09:18.001Z</time></trkpt><trkpt lat="30.942646155887907" lon="-4.903046488151127"><ele>695.0</ele><time>2026-03-23T11:09:19.001Z</time></trkpt><trkpt lat="30.94254797440821" lon="-4.902999901097633"><ele>695.0</ele><time>2026-03-23T11:09:20.001Z</time></trkpt><trkpt lat="30.942458292248666" lon="-4.902967359868378"><ele>695.0</ele><time>2026-03-23T11:09:21.001Z</time></trkpt><trkpt lat="30.942368986296763" lon="-4.902936407300215"><ele>695.0</ele><time>2026-03-23T11:09:22.001Z</time></trkpt><trkpt lat="30.942293871116963" lon="-4.902908801364102"><ele>695.1666666666666</ele><time>2026-03-23T11:09:23.001Z</time></trkpt><trkpt lat="30.942225277148534" lon="-4.9029030033265"><ele>695.3333333333333</ele><time>2026-03-23T11:09:24.001Z</time></trkpt><trkpt lat="30.942162692309015" lon="-4.902880920868799"><ele>695.5</ele><time>2026-03-23T11:09:25.001Z</time></trkpt><trkpt lat="30.942098482433924" lon="-4.902847968645888"><ele>695.6666666666666</ele><time>2026-03-23T11:09:26.001Z</time></trkpt><trkpt lat="30.942022243104102" lon="-4.902824062653671"><ele>695.8333333333334</ele><time>2026-03-23T11:09:27.001Z</time></trkpt><trkpt lat="30.941956380087902" lon="-4.902799809073871"><ele>696.0</ele><time>2026-03-23T11:09:28.001Z</time></trkpt><trkpt lat="30.941841631451318" lon="-4.902745394946043"><ele>696.0</ele><time>2026-03-23T11:09:30.001Z</time></trkpt><trkpt lat="30.941781010185558" lon="-4.902693521898455"><ele>696.0</ele><time>2026-03-23T11:09:31.001Z</time></trkpt><trkpt lat="30.94171764586819" lon="-4.9026227374143945"><ele>696.0</ele><time>2026-03-23T11:09:32.001Z</time></trkpt><trkpt lat="30.941647560944997" lon="-4.902547202633337"><ele>696.0</ele><time>2026-03-23T11:09:33.002Z</time></trkpt><trkpt lat="30.941575091874796" lon="-4.902469098213663"><ele>696.0</ele><time>2026-03-23T11:09:34.002Z</time></trkpt><trkpt lat="30.941496848430045" lon="-4.902384770401817"><ele>695.5999999999999</ele><time>2026-03-23T11:09:35.002Z</time></trkpt><trkpt lat="30.941419149469226" lon="-4.902301028521851"><ele>695.2</ele><time>2026-03-23T11:09:36.002Z</time></trkpt><trkpt lat="30.941340241949916" lon="-4.902225215981538"><ele>694.8</ele><time>2026-03-23T11:09:37.002Z</time></trkpt><trkpt lat="30.94127049870428" lon="-4.902156346478204"><ele>694.4000000000001</ele><time>2026-03-23T11:09:38.002Z</time></trkpt><trkpt lat="30.941218599937205" lon="-4.9020874379502075"><ele>694.0</ele><time>2026-03-23T11:09:39.002Z</time></trkpt><trkpt lat="30.941153199126738" lon="-4.902025849418254"><ele>694.0</ele><time>2026-03-23T11:09:40.002Z</time></trkpt><trkpt lat="30.941088312557877" lon="-4.901964130527054"><ele>694.0</ele><time>2026-03-23T11:09:41.002Z</time></trkpt><trkpt lat="30.94103539756102" lon="-4.90190556523277"><ele>694.0</ele><time>2026-03-23T11:09:42.002Z</time></trkpt><trkpt lat="30.940962718703634" lon="-4.901835735864353"><ele>694.0</ele><time>2026-03-23T11:09:43.002Z</time></trkpt><trkpt lat="30.9408790089509" lon="-4.901755968162215"><ele>694.0</ele><time>2026-03-23T11:09:44.002Z</time></trkpt><trkpt lat="30.940792481091496" lon="-4.901673874903409"><ele>693.6666666666667</ele><time>2026-03-23T11:09:45.002Z</time></trkpt><trkpt lat="30.940714199810476" lon="-4.9015942891361"><ele>693.3333333333334</ele><time>2026-03-23T11:09:46.002Z</time></trkpt><trkpt lat="30.94064086015131" lon="-4.901521678429951"><ele>693.0</ele><time>2026-03-23T11:09:47.002Z</time></trkpt><trkpt lat="30.940564113375807" lon="-4.901467460408966"><ele>692.6666666666666</ele><time>2026-03-23T11:09:48.002Z</time></trkpt><trkpt lat="30.94050494417308" lon="-4.901408136440794"><ele>692.3333333333333</ele><time>2026-03-23T11:09:48.999Z</time></trkpt><trkpt lat="30.940446471397582" lon="-4.901348478398689"><ele>692.0</ele><time>2026-03-23T11:09:49.999Z</time></trkpt><trkpt lat="30.94038346132808" lon="-4.901286691757137"><ele>692.0</ele><time>2026-03-23T11:09:50.999Z</time></trkpt><trkpt lat="30.940317933172246" lon="-4.901227064774326"><ele>692.0</ele><time>2026-03-23T11:09:51.999Z</time></trkpt><trkpt lat="30.940247194081284" lon="-4.901162167845494"><ele>692.0</ele><time>2026-03-23T11:09:52.999Z</time></trkpt><trkpt lat="30.940177984924446" lon="-4.9010957810313895"><ele>692.0</ele><time>2026-03-23T11:09:53.999Z</time></trkpt><trkpt lat="30.940100838926437" lon="-4.9010377013479856"><ele>692.0</ele><time>2026-03-23T11:09:54.999Z</time></trkpt><trkpt lat="30.940037081271363" lon="-4.900961170772175"><ele>692.0</ele><time>2026-03-23T11:09:55.999Z</time></trkpt><trkpt lat="30.9399654108376" lon="-4.900903850608518"><ele>692.6</ele><time>2026-03-23T11:09:56.999Z</time></trkpt><trkpt lat="30.939899972840685" lon="-4.900851716374217"><ele>693.2</ele><time>2026-03-23T11:09:57.999Z</time></trkpt><trkpt lat="30.939843699352743" lon="-4.900808317300832"><ele>693.8</ele><time>2026-03-23T11:09:58.999Z</time></trkpt><trkpt lat="30.93974086337577" lon="-4.9007382987878"><ele>694.4</ele><time>2026-03-23T11:10:00.999Z</time></trkpt><trkpt lat="30.939650544637637" lon="-4.900692159711624"><ele>695.0</ele><time>2026-03-23T11:10:01.999Z</time></trkpt><trkpt lat="30.93953039615485" lon="-4.9006383784398055"><ele>695.0</ele><time>2026-03-23T11:10:02.999Z</time></trkpt><trkpt lat="30.939414202922457" lon="-4.900589389964435"><ele>695.0</ele><time>2026-03-23T11:10:03.999Z</time></trkpt><trkpt lat="30.9393205154817" lon="-4.9005556135074135"><ele>695.0</ele><time>2026-03-23T11:10:04.999Z</time></trkpt><trkpt lat="30.93923729382117" lon="-4.900523032964926"><ele>695.0</ele><time>2026-03-23T11:10:06Z</time></trkpt><trkpt lat="30.939156989605333" lon="-4.900509005644763"><ele>695.0</ele><time>2026-03-23T11:10:07Z</time></trkpt><trkpt lat="30.939095987236787" lon="-4.9005296741930815"><ele>695.0</ele><time>2026-03-23T11:10:08Z</time></trkpt><trkpt lat="30.93900866271734" lon="-4.900506796565031"><ele>695.0</ele><time>2026-03-23T11:10:11Z</time></trkpt><trkpt lat="30.938882595084436" lon="-4.90080602543902"><ele>695.0</ele><time>2026-03-23T11:10:13Z</time></trkpt><trkpt lat="30.938865578239795" lon="-4.900886165723243"><ele>695.0</ele><time>2026-03-23T11:10:14Z</time></trkpt><trkpt lat="30.938859882269288" lon="-4.900977187883548"><ele>695.3333333333333</ele><time>2026-03-23T11:10:15Z</time></trkpt><trkpt lat="30.938856934777387" lon="-4.901073288403556"><ele>695.6666666666666</ele><time>2026-03-23T11:10:16Z</time></trkpt><trkpt lat="30.93885280245191" lon="-4.901166071339895"><ele>696.0</ele><time>2026-03-23T11:10:17Z</time></trkpt><trkpt lat="30.938844658495736" lon="-4.9012679033990905"><ele>696.3333333333334</ele><time>2026-03-23T11:10:18Z</time></trkpt><trkpt lat="30.938820333779876" lon="-4.901370994678701"><ele>696.6666666666667</ele><time>2026-03-23T11:10:19Z</time></trkpt><trkpt lat="30.938786586456306" lon="-4.901459184816868"><ele>697.0</ele><time>2026-03-23T11:10:20Z</time></trkpt><trkpt lat="30.938739269799086" lon="-4.901535622475555"><ele>697.0</ele><time>2026-03-23T11:10:21Z</time></trkpt><trkpt lat="30.93867206253067" lon="-4.901606903794335"><ele>697.0</ele><time>2026-03-23T11:10:22Z</time></trkpt><trkpt lat="30.938613184264337" lon="-4.901660607865062"><ele>697.0</ele><time>2026-03-23T11:10:23Z</time></trkpt><trkpt lat="30.938546694436027" lon="-4.901716074968706"><ele>697.0</ele><time>2026-03-23T11:10:24Z</time></trkpt><trkpt lat="30.93847709056529" lon="-4.901781907421684"><ele>697.0</ele><time>2026-03-23T11:10:25Z</time></trkpt><trkpt lat="30.938407674004434" lon="-4.901845563621342"><ele>697.0</ele><time>2026-03-23T11:10:26Z</time></trkpt><trkpt lat="30.938355308176263" lon="-4.901890245077728"><ele>697.2</ele><time>2026-03-23T11:10:27Z</time></trkpt><trkpt lat="30.938297733665724" lon="-4.901936676402292"><ele>697.4000000000001</ele><time>2026-03-23T11:10:28Z</time></trkpt><trkpt lat="30.938191246687715" lon="-4.902027415326166"><ele>697.5999999999999</ele><time>2026-03-23T11:10:30Z</time></trkpt><trkpt lat="30.938139232708583" lon="-4.902085972083653"><ele>697.8</ele><time>2026-03-23T11:10:31Z</time></trkpt><trkpt lat="30.938072208515198" lon="-4.902185824078297"><ele>698.0</ele><time>2026-03-23T11:10:33Z</time></trkpt><trkpt lat="30.938023382996374" lon="-4.902249449391941"><ele>698.0</ele><time>2026-03-23T11:10:35Z</time></trkpt><trkpt lat="30.93797783750147" lon="-4.902300753336603"><ele>698.0</ele><time>2026-03-23T11:10:38Z</time></trkpt><trkpt lat="30.9379833678651" lon="-4.902389442239622"><ele>698.0</ele><time>2026-03-23T11:14:07Z</time></trkpt><trkpt lat="30.938037323602874" lon="-4.902473963711758"><ele>698.0</ele><time>2026-03-23T11:14:09Z</time></trkpt><trkpt lat="30.938075917253276" lon="-4.9026230813739655"><ele>698.0</ele><time>2026-03-23T11:14:11Z</time></trkpt><trkpt lat="30.938108129187682" lon="-4.902710740456258"><ele>698.0</ele><time>2026-03-23T11:14:12Z</time></trkpt><trkpt lat="30.938144699112506" lon="-4.902806235418931"><ele>698.4</ele><time>2026-03-23T11:14:13Z</time></trkpt><trkpt lat="30.938179671367088" lon="-4.902914715137351"><ele>698.8</ele><time>2026-03-23T11:14:14Z</time></trkpt><trkpt lat="30.93821601537196" lon="-4.90302130644229"><ele>699.2</ele><time>2026-03-23T11:14:15Z</time></trkpt><trkpt lat="30.938256063714896" lon="-4.903128786418544"><ele>699.6</ele><time>2026-03-23T11:14:16Z</time></trkpt><trkpt lat="30.93830332859291" lon="-4.9032452527622485"><ele>700.0</ele><time>2026-03-23T11:14:17Z</time></trkpt><trkpt lat="30.9383643882854" lon="-4.903360700710022"><ele>699.8</ele><time>2026-03-23T11:14:18Z</time></trkpt><trkpt lat="30.93839134449773" lon="-4.9034739550433875"><ele>699.6</ele><time>2026-03-23T11:14:19Z</time></trkpt><trkpt lat="30.938434336433083" lon="-4.903592987321934"><ele>699.4000000000001</ele><time>2026-03-23T11:14:20Z</time></trkpt><trkpt lat="30.938519778111477" lon="-4.903689520931923"><ele>699.2</ele><time>2026-03-23T11:14:21Z</time></trkpt><trkpt lat="30.93858407578139" lon="-4.903796962204703"><ele>699.0</ele><time>2026-03-23T11:14:22Z</time></trkpt><trkpt lat="30.93864791919566" lon="-4.903902767372957"><ele>699.0</ele><time>2026-03-23T11:14:23Z</time></trkpt><trkpt lat="30.938708097005396" lon="-4.904003884591213"><ele>699.0</ele><time>2026-03-23T11:14:24Z</time></trkpt><trkpt lat="30.938754896426342" lon="-4.90413818553069"><ele>699.0</ele><time>2026-03-23T11:14:25Z</time></trkpt><trkpt lat="30.93879315645195" lon="-4.90425767317577"><ele>699.0</ele><time>2026-03-23T11:14:26Z</time></trkpt><trkpt lat="30.938828188893563" lon="-4.904368440399592"><ele>699.0</ele><time>2026-03-23T11:14:27Z</time></trkpt><trkpt lat="30.938859827210234" lon="-4.9044698342024455"><ele>698.4000000000001</ele><time>2026-03-23T11:14:28Z</time></trkpt><trkpt lat="30.938876729646875" lon="-4.904563741045591"><ele>697.8</ele><time>2026-03-23T11:14:29Z</time></trkpt><trkpt lat="30.938909466081792" lon="-4.904653962728442"><ele>697.2</ele><time>2026-03-23T11:14:30Z</time></trkpt><trkpt lat="30.93894261277359" lon="-4.90475893155363"><ele>696.5999999999999</ele><time>2026-03-23T11:14:31Z</time></trkpt><trkpt lat="30.93895904816426" lon="-4.904862366911176"><ele>696.0</ele><time>2026-03-23T11:14:32Z</time></trkpt><trkpt lat="30.938971509704047" lon="-4.9049776257663815"><ele>695.8</ele><time>2026-03-23T11:14:33Z</time></trkpt><trkpt lat="30.93897685742154" lon="-4.905094726898946"><ele>695.5999999999999</ele><time>2026-03-23T11:14:34Z</time></trkpt><trkpt lat="30.938939528043207" lon="-4.9052045659508705"><ele>695.4</ele><time>2026-03-23T11:14:35Z</time></trkpt><trkpt lat="30.938923728824783" lon="-4.90532707754275"><ele>695.2</ele><time>2026-03-23T11:14:36Z</time></trkpt><trkpt lat="30.93883913797129" lon="-4.905398898931703"><ele>695.0</ele><time>2026-03-23T11:14:37Z</time></trkpt><trkpt lat="30.93879012739177" lon="-4.905500214290594"><ele>695.0</ele><time>2026-03-23T11:14:38Z</time></trkpt><trkpt lat="30.93873710936229" lon="-4.905608644722631"><ele>695.0</ele><time>2026-03-23T11:14:39Z</time></trkpt><trkpt lat="30.938671664426415" lon="-4.905731497411725"><ele>695.0</ele><time>2026-03-23T11:14:40Z</time></trkpt><trkpt lat="30.938600407875068" lon="-4.905866913865558"><ele>695.0</ele><time>2026-03-23T11:14:41Z</time></trkpt><trkpt lat="30.93852804665741" lon="-4.906004429658373"><ele>695.0</ele><time>2026-03-23T11:14:42Z</time></trkpt><trkpt lat="30.93845365744725" lon="-4.906149888223522"><ele>695.0</ele><time>2026-03-23T11:14:43Z</time></trkpt><trkpt lat="30.938389384146536" lon="-4.906311005730318"><ele>695.0</ele><time>2026-03-23T11:14:44Z</time></trkpt><trkpt lat="30.938307659216306" lon="-4.9064657776676155"><ele>696.0</ele><time>2026-03-23T11:14:45Z</time></trkpt><trkpt lat="30.93823380611657" lon="-4.906618973663452"><ele>697.0</ele><time>2026-03-23T11:14:46.001Z</time></trkpt><trkpt lat="30.938145803094955" lon="-4.906765317987241"><ele>698.0</ele><time>2026-03-23T11:14:47.001Z</time></trkpt><trkpt lat="30.938061287030095" lon="-4.906913555540351"><ele>698.0</ele><time>2026-03-23T11:14:48.001Z</time></trkpt><trkpt lat="30.938003846966676" lon="-4.9070664358002585"><ele>698.0</ele><time>2026-03-23T11:14:49.001Z</time></trkpt><trkpt lat="30.9379008354393" lon="-4.907177291468943"><ele>698.0</ele><time>2026-03-23T11:14:50.001Z</time></trkpt><trkpt lat="30.93781461319306" lon="-4.90728329885658"><ele>698.0</ele><time>2026-03-23T11:14:51.001Z</time></trkpt><trkpt lat="30.937738873437663" lon="-4.9073774118980165"><ele>698.0</ele><time>2026-03-23T11:14:52.001Z</time></trkpt><trkpt lat="30.937668585664774" lon="-4.907464750439585"><ele>698.0</ele><time>2026-03-23T11:14:53.001Z</time></trkpt><trkpt lat="30.93759569333887" lon="-4.907555325222299"><ele>698.0</ele><time>2026-03-23T11:14:54.001Z</time></trkpt><trkpt lat="30.937515817758317" lon="-4.90763601505157"><ele>698.0</ele><time>2026-03-23T11:14:55.001Z</time></trkpt><trkpt lat="30.937428366503266" lon="-4.907719285896363"><ele>698.0</ele><time>2026-03-23T11:14:56.001Z</time></trkpt><trkpt lat="30.93734535568885" lon="-4.907798329576146"><ele>698.25</ele><time>2026-03-23T11:14:57.001Z</time></trkpt><trkpt lat="30.9373161845279" lon="-4.90799793087623"><ele>698.5</ele><time>2026-03-23T11:14:58.001Z</time></trkpt><trkpt lat="30.93727996425291" lon="-4.9081364804472205"><ele>698.75</ele><time>2026-03-23T11:14:59.001Z</time></trkpt><trkpt lat="30.93724230036895" lon="-4.908280551991856"><ele>699.0</ele><time>2026-03-23T11:15:00.001Z</time></trkpt><trkpt lat="30.937200951549805" lon="-4.908436912757636"><ele>698.0</ele><time>2026-03-23T11:15:01.001Z</time></trkpt><trkpt lat="30.937154096659807" lon="-4.908612493509799"><ele>697.0</ele><time>2026-03-23T11:15:02.001Z</time></trkpt><trkpt lat="30.93710320656951" lon="-4.908817599506703"><ele>696.0</ele><time>2026-03-23T11:15:03.001Z</time></trkpt><trkpt lat="30.93708175211237" lon="-4.9089844157287335"><ele>696.0</ele><time>2026-03-23T11:15:04.001Z</time></trkpt><trkpt lat="30.93706354834436" lon="-4.909125956504543"><ele>696.0</ele><time>2026-03-23T11:15:05.001Z</time></trkpt><trkpt lat="30.937061644788468" lon="-4.9092463276597185"><ele>696.0</ele><time>2026-03-23T11:15:06.001Z</time></trkpt><trkpt lat="30.93703471780809" lon="-4.9093501298007185"><ele>696.0</ele><time>2026-03-23T11:15:07.001Z</time></trkpt><trkpt lat="30.937162609325952" lon="-4.9094696296063605"><ele>695.6666666666666</ele><time>2026-03-23T11:15:08.001Z</time></trkpt><trkpt lat="30.937227526734052" lon="-4.909620978811037"><ele>695.3333333333333</ele><time>2026-03-23T11:15:09.001Z</time></trkpt><trkpt lat="30.937315221322827" lon="-4.9097807653368335"><ele>695.0</ele><time>2026-03-23T11:15:10.001Z</time></trkpt><trkpt lat="30.937382681475608" lon="-4.90994968879084"><ele>694.6666666666666</ele><time>2026-03-23T11:15:11.001Z</time></trkpt><trkpt lat="30.937432101016697" lon="-4.910129047683156"><ele>694.3333333333334</ele><time>2026-03-23T11:15:12.001Z</time></trkpt><trkpt lat="30.937455720259344" lon="-4.910298442496836"><ele>694.0</ele><time>2026-03-23T11:15:13.001Z</time></trkpt><trkpt lat="30.937481097648423" lon="-4.910468823821121"><ele>694.0</ele><time>2026-03-23T11:15:14.001Z</time></trkpt><trkpt lat="30.93750637964785" lon="-4.910651224517006"><ele>694.0</ele><time>2026-03-23T11:15:15.001Z</time></trkpt><trkpt lat="30.937527748281006" lon="-4.910809433392693"><ele>694.0</ele><time>2026-03-23T11:15:16.001Z</time></trkpt><trkpt lat="30.937547965208996" lon="-4.910958690299745"><ele>694.0</ele><time>2026-03-23T11:15:17.001Z</time></trkpt><trkpt lat="30.93744110149427" lon="-4.911081907031776"><ele>695.0</ele><time>2026-03-23T11:15:18.001Z</time></trkpt><trkpt lat="30.937383335626173" lon="-4.911217157869085"><ele>696.0</ele><time>2026-03-23T11:15:19.001Z</time></trkpt><trkpt lat="30.93733164668536" lon="-4.911371287294779"><ele>697.0</ele><time>2026-03-23T11:15:20.001Z</time></trkpt><trkpt lat="30.93722835555806" lon="-4.91151070918932"><ele>698.0</ele><time>2026-03-23T11:15:21.001Z</time></trkpt><trkpt lat="30.937125138883278" lon="-4.911653504550529"><ele>697.6666666666666</ele><time>2026-03-23T11:15:22.001Z</time></trkpt><trkpt lat="30.93701224140765" lon="-4.911800031121428"><ele>697.3333333333334</ele><time>2026-03-23T11:15:23.001Z</time></trkpt><trkpt lat="30.936878093570485" lon="-4.911976456083639"><ele>697.0</ele><time>2026-03-23T11:15:24.001Z</time></trkpt><trkpt lat="30.936766797398356" lon="-4.912154041360907"><ele>697.0</ele><time>2026-03-23T11:15:25.001Z</time></trkpt><trkpt lat="30.936665192921687" lon="-4.912337163958433"><ele>697.0</ele><time>2026-03-23T11:15:26.001Z</time></trkpt><trkpt lat="30.936563237040424" lon="-4.912510876197074"><ele>697.0</ele><time>2026-03-23T11:15:27.001Z</time></trkpt><trkpt lat="30.936471872941944" lon="-4.912666641109439"><ele>697.0</ele><time>2026-03-23T11:15:28.001Z</time></trkpt><trkpt lat="30.936386589079717" lon="-4.912838065510211"><ele>697.0</ele><time>2026-03-23T11:15:29.001Z</time></trkpt><trkpt lat="30.93630622164775" lon="-4.913006853706605"><ele>697.0</ele><time>2026-03-23T11:15:30.001Z</time></trkpt><trkpt lat="30.93622962955236" lon="-4.913153782449266"><ele>697.0</ele><time>2026-03-23T11:15:31.001Z</time></trkpt><trkpt lat="30.93614649307517" lon="-4.913289940259152"><ele>697.0</ele><time>2026-03-23T11:15:32.002Z</time></trkpt><trkpt lat="30.936062482976403" lon="-4.913423324334596"><ele>697.0</ele><time>2026-03-23T11:15:33.002Z</time></trkpt><trkpt lat="30.93598724472836" lon="-4.913558549175832"><ele>697.0</ele><time>2026-03-23T11:15:34.002Z</time></trkpt><trkpt lat="30.93592673601296" lon="-4.91369060754587"><ele>697.0</ele><time>2026-03-23T11:15:35.002Z</time></trkpt><trkpt lat="30.935854500716875" lon="-4.913830990464271"><ele>697.0</ele><time>2026-03-23T11:15:36.002Z</time></trkpt><trkpt lat="30.935764474464207" lon="-4.913970703570098"><ele>697.0</ele><time>2026-03-23T11:15:37.002Z</time></trkpt><trkpt lat="30.93565758743792" lon="-4.914123075790578"><ele>698.0</ele><time>2026-03-23T11:15:38.002Z</time></trkpt><trkpt lat="30.935534209195257" lon="-4.914294207067467"><ele>699.0</ele><time>2026-03-23T11:15:39.002Z</time></trkpt><trkpt lat="30.93540654984769" lon="-4.914487428038911"><ele>700.0</ele><time>2026-03-23T11:15:40.002Z</time></trkpt><trkpt lat="30.935319833013082" lon="-4.9146550626478405"><ele>700.0</ele><time>2026-03-23T11:15:41.002Z</time></trkpt><trkpt lat="30.935233217937327" lon="-4.914851107711914"><ele>700.0</ele><time>2026-03-23T11:15:42.002Z</time></trkpt><trkpt lat="30.935119674036923" lon="-4.915053751085559"><ele>700.0</ele><time>2026-03-23T11:15:43.002Z</time></trkpt><trkpt lat="30.93499795947943" lon="-4.915211586583714"><ele>699.5</ele><time>2026-03-23T11:15:44.002Z</time></trkpt><trkpt lat="30.9348924822672" lon="-4.915357404576019"><ele>699.0</ele><time>2026-03-23T11:15:45.002Z</time></trkpt><trkpt lat="30.93482136045229" lon="-4.915498857454514"><ele>698.5</ele><time>2026-03-23T11:15:46.002Z</time></trkpt><trkpt lat="30.93480049220868" lon="-4.915642733679311"><ele>698.0</ele><time>2026-03-23T11:15:47.002Z</time></trkpt><trkpt lat="30.934794702411256" lon="-4.915821406573801"><ele>698.25</ele><time>2026-03-23T11:15:48.002Z</time></trkpt><trkpt lat="30.934785115298375" lon="-4.916004481848351"><ele>698.5</ele><time>2026-03-23T11:15:49.002Z</time></trkpt><trkpt lat="30.934756314737538" lon="-4.9161715776884"><ele>698.75</ele><time>2026-03-23T11:15:50.002Z</time></trkpt><trkpt lat="30.93471668667871" lon="-4.916330921428483"><ele>699.0</ele><time>2026-03-23T11:15:51.002Z</time></trkpt><trkpt lat="30.93465548104699" lon="-4.916490868818104"><ele>699.0</ele><time>2026-03-23T11:15:52.002Z</time></trkpt><trkpt lat="30.93457377396446" lon="-4.916649069969792"><ele>699.0</ele><time>2026-03-23T11:15:53.002Z</time></trkpt><trkpt lat="30.93448853909738" lon="-4.916808573297325"><ele>699.0</ele><time>2026-03-23T11:15:54.002Z</time></trkpt><trkpt lat="30.93437830703605" lon="-4.916981943029361"><ele>699.0</ele><time>2026-03-23T11:15:55.002Z</time></trkpt><trkpt lat="30.934258401912537" lon="-4.917160778215178"><ele>699.0</ele><time>2026-03-23T11:15:56.002Z</time></trkpt><trkpt lat="30.934147654621345" lon="-4.917354439799224"><ele>699.0</ele><time>2026-03-23T11:15:57.002Z</time></trkpt><trkpt lat="30.93404340227179" lon="-4.917586621458821"><ele>699.3333333333334</ele><time>2026-03-23T11:15:58.002Z</time></trkpt><trkpt lat="30.93395252818851" lon="-4.917836417459438"><ele>699.6666666666667</ele><time>2026-03-23T11:15:59.002Z</time></trkpt><trkpt lat="30.933859521610994" lon="-4.918036094086413"><ele>700.0</ele><time>2026-03-23T11:16:00.002Z</time></trkpt><trkpt lat="30.933784743512593" lon="-4.918216094719603"><ele>700.0</ele><time>2026-03-23T11:16:01.002Z</time></trkpt><trkpt lat="30.933705175109456" lon="-4.91836881105916"><ele>700.0</ele><time>2026-03-23T11:16:02.002Z</time></trkpt><trkpt lat="30.933609801852903" lon="-4.918506092846326"><ele>700.0</ele><time>2026-03-23T11:16:03.002Z</time></trkpt><trkpt lat="30.93349892138166" lon="-4.9186309411530145"><ele>700.0</ele><time>2026-03-23T11:16:04.002Z</time></trkpt><trkpt lat="30.933379716646225" lon="-4.918761239543534"><ele>700.0</ele><time>2026-03-23T11:16:05.002Z</time></trkpt><trkpt lat="30.933263661783347" lon="-4.918911661968667"><ele>700.0</ele><time>2026-03-23T11:16:06.002Z</time></trkpt><trkpt lat="30.933153297879024" lon="-4.919094820502472"><ele>700.0</ele><time>2026-03-23T11:16:07Z</time></trkpt><trkpt lat="30.933035570435116" lon="-4.919277434759474"><ele>700.0</ele><time>2026-03-23T11:16:08Z</time></trkpt><trkpt lat="30.93290660455197" lon="-4.919461479267999"><ele>700.0</ele><time>2026-03-23T11:16:09Z</time></trkpt><trkpt lat="30.932763176242467" lon="-4.919644976489669"><ele>700.0</ele><time>2026-03-23T11:16:10Z</time></trkpt><trkpt lat="30.932624479547577" lon="-4.919829226924107"><ele>700.0</ele><time>2026-03-23T11:16:11Z</time></trkpt><trkpt lat="30.932496820727557" lon="-4.920007645617637"><ele>700.0</ele><time>2026-03-23T11:16:12Z</time></trkpt><trkpt lat="30.932373118618255" lon="-4.920174331764879"><ele>700.3333333333334</ele><time>2026-03-23T11:16:13Z</time></trkpt><trkpt lat="30.932263184315982" lon="-4.920334284528092"><ele>700.6666666666666</ele><time>2026-03-23T11:16:14Z</time></trkpt><trkpt lat="30.93215413052919" lon="-4.920489297070391"><ele>701.0</ele><time>2026-03-23T11:16:15Z</time></trkpt><trkpt lat="30.932038197482225" lon="-4.920643404207228"><ele>701.0</ele><time>2026-03-23T11:16:16Z</time></trkpt><trkpt lat="30.93191935143983" lon="-4.920794833031875"><ele>701.0</ele><time>2026-03-23T11:16:17Z</time></trkpt><trkpt lat="30.931799197098496" lon="-4.920944555397108"><ele>701.0</ele><time>2026-03-23T11:16:18Z</time></trkpt><trkpt lat="30.931681349627166" lon="-4.921094516295547"><ele>702.3333333333333</ele><time>2026-03-23T11:16:19Z</time></trkpt><trkpt lat="30.931576271356754" lon="-4.921249650340062"><ele>703.6666666666666</ele><time>2026-03-23T11:16:20Z</time></trkpt><trkpt lat="30.93148809397547" lon="-4.921402664719858"><ele>705.0</ele><time>2026-03-23T11:16:21Z</time></trkpt><trkpt lat="30.931393759253524" lon="-4.92157220674406"><ele>704.3333333333334</ele><time>2026-03-23T11:16:22Z</time></trkpt><trkpt lat="30.93129806578716" lon="-4.921747978169891"><ele>703.6666666666667</ele><time>2026-03-23T11:16:23Z</time></trkpt><trkpt lat="30.931203274288666" lon="-4.921930184402577"><ele>703.0</ele><time>2026-03-23T11:16:24Z</time></trkpt><trkpt lat="30.93110523793071" lon="-4.922114929389183"><ele>703.0</ele><time>2026-03-23T11:16:25Z</time></trkpt><trkpt lat="30.93099016992715" lon="-4.922291541996728"><ele>703.0</ele><time>2026-03-23T11:16:26Z</time></trkpt><trkpt lat="30.930885363689963" lon="-4.92247016724644"><ele>703.0</ele><time>2026-03-23T11:16:27Z</time></trkpt><trkpt lat="30.93078045101538" lon="-4.922661260683172"><ele>703.0</ele><time>2026-03-23T11:16:28Z</time></trkpt><trkpt lat="30.930659672062177" lon="-4.922851353759688"><ele>703.0</ele><time>2026-03-23T11:16:29Z</time></trkpt><trkpt lat="30.930569188308635" lon="-4.923004308771322"><ele>703.0</ele><time>2026-03-23T11:16:30Z</time></trkpt><trkpt lat="30.93047733240996" lon="-4.923137998980916"><ele>703.0</ele><time>2026-03-23T11:16:31Z</time></trkpt><trkpt lat="30.93038060711502" lon="-4.923276226436067"><ele>703.0</ele><time>2026-03-23T11:16:32Z</time></trkpt><trkpt lat="30.930279353970278" lon="-4.923418673859285"><ele>703.0</ele><time>2026-03-23T11:16:33Z</time></trkpt><trkpt lat="30.93017852924456" lon="-4.923568034994914"><ele>703.3333333333334</ele><time>2026-03-23T11:16:34Z</time></trkpt><trkpt lat="30.930077891523926" lon="-4.923732241037048"><ele>703.6666666666666</ele><time>2026-03-23T11:16:35Z</time></trkpt><trkpt lat="30.929961076293615" lon="-4.923918885247889"><ele>704.0</ele><time>2026-03-23T11:16:36Z</time></trkpt><trkpt lat="30.92985557254644" lon="-4.9240982454958555"><ele>704.0</ele><time>2026-03-23T11:16:37Z</time></trkpt><trkpt lat="30.92974927165826" lon="-4.924304027621828"><ele>704.0</ele><time>2026-03-23T11:16:38Z</time></trkpt><trkpt lat="30.92965157943853" lon="-4.924516087467071"><ele>704.0</ele><time>2026-03-23T11:16:39Z</time></trkpt><trkpt lat="30.92957270807019" lon="-4.924709767511062"><ele>704.0</ele><time>2026-03-23T11:16:40Z</time></trkpt><trkpt lat="30.92951594676349" lon="-4.924882591353899"><ele>704.0</ele><time>2026-03-23T11:16:41Z</time></trkpt><trkpt lat="30.929437660749684" lon="-4.925040880811724"><ele>704.0</ele><time>2026-03-23T11:16:42Z</time></trkpt><trkpt lat="30.929332046425053" lon="-4.925193836716503"><ele>704.3333333333333</ele><time>2026-03-23T11:16:43Z</time></trkpt><trkpt lat="30.929219350840423" lon="-4.92533699842457"><ele>704.6666666666666</ele><time>2026-03-23T11:16:44Z</time></trkpt><trkpt lat="30.92911107057773" lon="-4.925486694570121"><ele>705.0</ele><time>2026-03-23T11:16:45Z</time></trkpt><trkpt lat="30.92901233886007" lon="-4.925649162604094"><ele>705.0</ele><time>2026-03-23T11:16:46.001Z</time></trkpt><trkpt lat="30.928912985531305" lon="-4.925830040745553"><ele>705.0</ele><time>2026-03-23T11:16:47.001Z</time></trkpt><trkpt lat="30.928831084758816" lon="-4.9260124186797025"><ele>705.0</ele><time>2026-03-23T11:16:48.001Z</time></trkpt><trkpt lat="30.92874351756358" lon="-4.926225547901408"><ele>705.6666666666666</ele><time>2026-03-23T11:16:49.001Z</time></trkpt><trkpt lat="30.928655913146674" lon="-4.9264364817989135"><ele>706.3333333333333</ele><time>2026-03-23T11:16:50.001Z</time></trkpt><trkpt lat="30.928554324915524" lon="-4.926644763420226"><ele>707.0</ele><time>2026-03-23T11:16:51.001Z</time></trkpt><trkpt lat="30.928447376017452" lon="-4.926859387590838"><ele>707.6666666666666</ele><time>2026-03-23T11:16:52.001Z</time></trkpt><trkpt lat="30.928337058445994" lon="-4.92707565214743"><ele>708.3333333333334</ele><time>2026-03-23T11:16:53.001Z</time></trkpt><trkpt lat="30.928229252632327" lon="-4.927272265291655"><ele>709.0</ele><time>2026-03-23T11:16:54.001Z</time></trkpt><trkpt lat="30.928127371372888" lon="-4.927445259404914"><ele>707.6666666666667</ele><time>2026-03-23T11:16:55.001Z</time></trkpt><trkpt lat="30.92801820585443" lon="-4.927594532833514"><ele>706.3333333333334</ele><time>2026-03-23T11:16:56.001Z</time></trkpt><trkpt lat="30.92790152022947" lon="-4.927726976930729"><ele>705.0</ele><time>2026-03-23T11:16:57.001Z</time></trkpt><trkpt lat="30.927782658807388" lon="-4.927848716937014"><ele>705.0</ele><time>2026-03-23T11:16:58.001Z</time></trkpt><trkpt lat="30.927659857987386" lon="-4.92797787257345"><ele>705.0</ele><time>2026-03-23T11:16:59.001Z</time></trkpt><trkpt lat="30.927547622754563" lon="-4.928105667233495"><ele>705.0</ele><time>2026-03-23T11:17:00.001Z</time></trkpt><trkpt lat="30.927426656678367" lon="-4.928237192182532"><ele>704.6666666666666</ele><time>2026-03-23T11:17:01.001Z</time></trkpt><trkpt lat="30.92730406974336" lon="-4.928374957436949"><ele>704.3333333333333</ele><time>2026-03-23T11:17:02.001Z</time></trkpt><trkpt lat="30.92717766092332" lon="-4.928517101807996"><ele>704.0</ele><time>2026-03-23T11:17:03.001Z</time></trkpt><trkpt lat="30.927047135659542" lon="-4.928661767869647"><ele>704.0</ele><time>2026-03-23T11:17:04.001Z</time></trkpt><trkpt lat="30.926924314511602" lon="-4.928796874739355"><ele>704.0</ele><time>2026-03-23T11:17:05.001Z</time></trkpt><trkpt lat="30.92681736458738" lon="-4.92892322473774"><ele>704.0</ele><time>2026-03-23T11:17:06.001Z</time></trkpt><trkpt lat="30.926720964179776" lon="-4.929064746606965"><ele>705.3333333333333</ele><time>2026-03-23T11:17:07.001Z</time></trkpt><trkpt lat="30.926604524428498" lon="-4.92922964712694"><ele>706.6666666666666</ele><time>2026-03-23T11:17:08.001Z</time></trkpt><trkpt lat="30.92647344319896" lon="-4.929426732783205"><ele>708.0</ele><time>2026-03-23T11:17:09.001Z</time></trkpt><trkpt lat="30.926331913983702" lon="-4.929634169683273"><ele>708.0</ele><time>2026-03-23T11:17:10.001Z</time></trkpt><trkpt lat="30.92620095081032" lon="-4.92979871753242"><ele>708.0</ele><time>2026-03-23T11:17:11.001Z</time></trkpt><trkpt lat="30.92609727561139" lon="-4.929925166786509"><ele>708.0</ele><time>2026-03-23T11:17:12.001Z</time></trkpt><trkpt lat="30.92598827675914" lon="-4.9300610657465045"><ele>708.3333333333334</ele><time>2026-03-23T11:17:13.001Z</time></trkpt><trkpt lat="30.925861273625618" lon="-4.9302059999257475"><ele>708.6666666666667</ele><time>2026-03-23T11:17:14.001Z</time></trkpt><trkpt lat="30.925729861550586" lon="-4.9303605156327315"><ele>709.0</ele><time>2026-03-23T11:17:15.001Z</time></trkpt><trkpt lat="30.925608878172856" lon="-4.9305296117486"><ele>709.0</ele><time>2026-03-23T11:17:16.001Z</time></trkpt><trkpt lat="30.925509995773275" lon="-4.930691128952592"><ele>709.0</ele><time>2026-03-23T11:17:17.001Z</time></trkpt><trkpt lat="30.925418304901722" lon="-4.930854668773872"><ele>709.0</ele><time>2026-03-23T11:17:18.001Z</time></trkpt><trkpt lat="30.925331810697273" lon="-4.930992199156547"><ele>709.0</ele><time>2026-03-23T11:17:19.001Z</time></trkpt><trkpt lat="30.925237901735876" lon="-4.931120877045327"><ele>709.0</ele><time>2026-03-23T11:17:20.001Z</time></trkpt><trkpt lat="30.925116183002046" lon="-4.931267907357381"><ele>709.0</ele><time>2026-03-23T11:17:21.001Z</time></trkpt><trkpt lat="30.924990979912234" lon="-4.93143709430737"><ele>709.0</ele><time>2026-03-23T11:17:22.001Z</time></trkpt><trkpt lat="30.924849688028203" lon="-4.931603834568851"><ele>709.0</ele><time>2026-03-23T11:17:23.001Z</time></trkpt><trkpt lat="30.92471047977008" lon="-4.931757893799366"><ele>709.0</ele><time>2026-03-23T11:17:24.001Z</time></trkpt><trkpt lat="30.924589994040442" lon="-4.931895014248126"><ele>708.6666666666667</ele><time>2026-03-23T11:17:25.001Z</time></trkpt><trkpt lat="30.92446660698942" lon="-4.932032354488168"><ele>708.3333333333334</ele><time>2026-03-23T11:17:26.001Z</time></trkpt><trkpt lat="30.924353856740204" lon="-4.9321604097147445"><ele>708.0</ele><time>2026-03-23T11:17:27.001Z</time></trkpt><trkpt lat="30.924255457378074" lon="-4.932271058243323"><ele>708.0</ele><time>2026-03-23T11:17:28.001Z</time></trkpt><trkpt lat="30.924157702645477" lon="-4.932376916598678"><ele>708.0</ele><time>2026-03-23T11:17:29.001Z</time></trkpt><trkpt lat="30.924056027857862" lon="-4.932477436073027"><ele>708.0</ele><time>2026-03-23T11:17:30.001Z</time></trkpt><trkpt lat="30.923957955255073" lon="-4.932580575344313"><ele>708.0</ele><time>2026-03-23T11:17:31.001Z</time></trkpt><trkpt lat="30.923865484810616" lon="-4.932690139148545"><ele>708.0</ele><time>2026-03-23T11:17:32.002Z</time></trkpt><trkpt lat="30.92378050655852" lon="-4.932794661707721"><ele>708.0</ele><time>2026-03-23T11:17:33.002Z</time></trkpt><trkpt lat="30.923715797235907" lon="-4.932888743359879"><ele>708.0</ele><time>2026-03-23T11:17:34.002Z</time></trkpt><trkpt lat="30.92366128350628" lon="-4.932977722213105"><ele>708.0</ele><time>2026-03-23T11:17:35.002Z</time></trkpt><trkpt lat="30.923599214691325" lon="-4.933076518229248"><ele>708.0</ele><time>2026-03-23T11:17:36.002Z</time></trkpt><trkpt lat="30.923518175021467" lon="-4.933186960252152"><ele>708.0</ele><time>2026-03-23T11:17:37.002Z</time></trkpt><trkpt lat="30.92342375153101" lon="-4.933297931823432"><ele>708.0</ele><time>2026-03-23T11:17:38.002Z</time></trkpt><trkpt lat="30.923317777174606" lon="-4.933419134529243"><ele>708.0</ele><time>2026-03-23T11:17:39.002Z</time></trkpt><trkpt lat="30.92320943649207" lon="-4.933540353009695"><ele>708.0</ele><time>2026-03-23T11:17:40.002Z</time></trkpt><trkpt lat="30.923108979415026" lon="-4.9336546833965755"><ele>708.6666666666666</ele><time>2026-03-23T11:17:41.002Z</time></trkpt><trkpt lat="30.923003348606034" lon="-4.933783313323729"><ele>709.3333333333333</ele><time>2026-03-23T11:17:42.002Z</time></trkpt><trkpt lat="30.922890339247385" lon="-4.9339252714961335"><ele>710.0</ele><time>2026-03-23T11:17:43.002Z</time></trkpt><trkpt lat="30.922762859500416" lon="-4.934078847262216"><ele>709.3333333333333</ele><time>2026-03-23T11:17:44.002Z</time></trkpt><trkpt lat="30.922637182777272" lon="-4.9342323808933415"><ele>708.6666666666666</ele><time>2026-03-23T11:17:45.002Z</time></trkpt><trkpt lat="30.922513215490778" lon="-4.934389642291761"><ele>708.0</ele><time>2026-03-23T11:17:46.002Z</time></trkpt><trkpt lat="30.922370122911204" lon="-4.934552918887606"><ele>707.0</ele><time>2026-03-23T11:17:47.002Z</time></trkpt><trkpt lat="30.92222149011295" lon="-4.934743533419147"><ele>706.0</ele><time>2026-03-23T11:17:48.002Z</time></trkpt><trkpt lat="30.92208415543337" lon="-4.934970193830838"><ele>707.5</ele><time>2026-03-23T11:17:49.002Z</time></trkpt><trkpt lat="30.921932112229598" lon="-4.935201934557106"><ele>709.0</ele><time>2026-03-23T11:17:50.002Z</time></trkpt><trkpt lat="30.921773308631316" lon="-4.935419522856498"><ele>709.5</ele><time>2026-03-23T11:17:51.002Z</time></trkpt><trkpt lat="30.92161834144112" lon="-4.935641109910203"><ele>710.0</ele><time>2026-03-23T11:17:52.002Z</time></trkpt><trkpt lat="30.921427171066018" lon="-4.935836524632759"><ele>711.0</ele><time>2026-03-23T11:17:53.002Z</time></trkpt><trkpt lat="30.92125979212251" lon="-4.93601941697583"><ele>712.0</ele><time>2026-03-23T11:17:54.002Z</time></trkpt><trkpt lat="30.921117684381933" lon="-4.936193173191846"><ele>713.0</ele><time>2026-03-23T11:17:55.002Z</time></trkpt><trkpt lat="30.921010662568083" lon="-4.936344761187532"><ele>713.0</ele><time>2026-03-23T11:17:56.002Z</time></trkpt><trkpt lat="30.92092086864242" lon="-4.936491801303726"><ele>713.0</ele><time>2026-03-23T11:17:57.002Z</time></trkpt><trkpt lat="30.920816986981706" lon="-4.936656870758837"><ele>713.0</ele><time>2026-03-23T11:17:58.002Z</time></trkpt><trkpt lat="30.920706569825246" lon="-4.93683359522515"><ele>712.3333333333333</ele><time>2026-03-23T11:17:59.002Z</time></trkpt><trkpt lat="30.920593302546322" lon="-4.936989522049938"><ele>711.6666666666666</ele><time>2026-03-23T11:18:00.002Z</time></trkpt><trkpt lat="30.920482432368846" lon="-4.937092510674526"><ele>711.0</ele><time>2026-03-23T11:18:01.002Z</time></trkpt><trkpt lat="30.920360777578157" lon="-4.937159655118001"><ele>711.0</ele><time>2026-03-23T11:18:02.002Z</time></trkpt><trkpt lat="30.9202108855004" lon="-4.9372214916085495"><ele>711.0</ele><time>2026-03-23T11:18:03.002Z</time></trkpt><trkpt lat="30.920049576508234" lon="-4.937285324364783"><ele>711.0</ele><time>2026-03-23T11:18:04.002Z</time></trkpt><trkpt lat="30.919888229010898" lon="-4.9373578889285845"><ele>711.0</ele><time>2026-03-23T11:18:05.002Z</time></trkpt><trkpt lat="30.919726461581035" lon="-4.9374500346235894"><ele>711.0</ele><time>2026-03-23T11:18:06.002Z</time></trkpt><trkpt lat="30.919574864720097" lon="-4.937547647181854"><ele>711.0</ele><time>2026-03-23T11:18:07.002Z</time></trkpt><trkpt lat="30.91944700185016" lon="-4.937639566611207"><ele>711.0</ele><time>2026-03-23T11:18:08.002Z</time></trkpt><trkpt lat="30.91932044966268" lon="-4.937747950196007"><ele>711.0</ele><time>2026-03-23T11:18:09.002Z</time></trkpt><trkpt lat="30.919176183448062" lon="-4.937884625296387"><ele>711.0</ele><time>2026-03-23T11:18:10.002Z</time></trkpt><trkpt lat="30.919039407929535" lon="-4.938028265558117"><ele>712.0</ele><time>2026-03-23T11:18:11.002Z</time></trkpt><trkpt lat="30.91892371273461" lon="-4.938173286695253"><ele>713.0</ele><time>2026-03-23T11:18:12.002Z</time></trkpt><trkpt lat="30.918804006279053" lon="-4.9383140474662115"><ele>714.0</ele><time>2026-03-23T11:18:13Z</time></trkpt><trkpt lat="30.918681510482543" lon="-4.938473191607191"><ele>714.0</ele><time>2026-03-23T11:18:14Z</time></trkpt><trkpt lat="30.918555518552377" lon="-4.938648689684914"><ele>714.0</ele><time>2026-03-23T11:18:15Z</time></trkpt><trkpt lat="30.91843497325582" lon="-4.938844173287962"><ele>714.0</ele><time>2026-03-23T11:18:16Z</time></trkpt><trkpt lat="30.918310273740783" lon="-4.939040737341669"><ele>714.0</ele><time>2026-03-23T11:18:17Z</time></trkpt><trkpt lat="30.918172469560105" lon="-4.939253105599489"><ele>714.0</ele><time>2026-03-23T11:18:18Z</time></trkpt><trkpt lat="30.918011257625828" lon="-4.939472278142989"><ele>714.0</ele><time>2026-03-23T11:18:19Z</time></trkpt><trkpt lat="30.91786154075358" lon="-4.93967262924687"><ele>714.0</ele><time>2026-03-23T11:18:20Z</time></trkpt><trkpt lat="30.917719184676624" lon="-4.939855448462453"><ele>714.0</ele><time>2026-03-23T11:18:21Z</time></trkpt><trkpt lat="30.91758030971923" lon="-4.940020393791881"><ele>713.6666666666666</ele><time>2026-03-23T11:18:22Z</time></trkpt><trkpt lat="30.91743037778276" lon="-4.940181220877945"><ele>713.3333333333333</ele><time>2026-03-23T11:18:23Z</time></trkpt><trkpt lat="30.917290042466412" lon="-4.940361322504888"><ele>713.0</ele><time>2026-03-23T11:18:24Z</time></trkpt><trkpt lat="30.917146900986097" lon="-4.94054235129113"><ele>713.0</ele><time>2026-03-23T11:18:25Z</time></trkpt><trkpt lat="30.917003736198232" lon="-4.940709961473656"><ele>713.0</ele><time>2026-03-23T11:18:26Z</time></trkpt><trkpt lat="30.916853140288723" lon="-4.9408878438864186"><ele>713.0</ele><time>2026-03-23T11:18:27Z</time></trkpt><trkpt lat="30.916681605361884" lon="-4.941070588797503"><ele>713.0</ele><time>2026-03-23T11:18:28Z</time></trkpt><trkpt lat="30.91651834472873" lon="-4.941245492062661"><ele>713.0</ele><time>2026-03-23T11:18:29Z</time></trkpt><trkpt lat="30.916383566705548" lon="-4.941382018631838"><ele>713.0</ele><time>2026-03-23T11:18:30Z</time></trkpt><trkpt lat="30.91624020795542" lon="-4.941505079922607"><ele>713.0</ele><time>2026-03-23T11:18:31Z</time></trkpt><trkpt lat="30.91606446496419" lon="-4.94162825440239"><ele>713.0</ele><time>2026-03-23T11:18:32Z</time></trkpt><trkpt lat="30.915894185682166" lon="-4.9417440059115885"><ele>713.0</ele><time>2026-03-23T11:18:33.001Z</time></trkpt><trkpt lat="30.915726856169947" lon="-4.941837642719097"><ele>714.0</ele><time>2026-03-23T11:18:34.001Z</time></trkpt><trkpt lat="30.915565965464364" lon="-4.94195037644268"><ele>715.0</ele><time>2026-03-23T11:18:35.001Z</time></trkpt><trkpt lat="30.91540070997607" lon="-4.942084235703886"><ele>716.0</ele><time>2026-03-23T11:18:36.001Z</time></trkpt><trkpt lat="30.915235411418294" lon="-4.94224452035722"><ele>715.0</ele><time>2026-03-23T11:18:37.001Z</time></trkpt><trkpt lat="30.91506523626316" lon="-4.942412634905612"><ele>714.0</ele><time>2026-03-23T11:18:38.001Z</time></trkpt><trkpt lat="30.914867347661655" lon="-4.942572848804207"><ele>713.3333333333334</ele><time>2026-03-23T11:18:39.001Z</time></trkpt><trkpt lat="30.914686619025673" lon="-4.942734082179586"><ele>712.6666666666667</ele><time>2026-03-23T11:18:40.001Z</time></trkpt><trkpt lat="30.914515410196106" lon="-4.942888687311836"><ele>712.0</ele><time>2026-03-23T11:18:41.001Z</time></trkpt><trkpt lat="30.914325238953374" lon="-4.943037755410482"><ele>713.5</ele><time>2026-03-23T11:18:42.001Z</time></trkpt><trkpt lat="30.91412923645525" lon="-4.943221401213451"><ele>715.0</ele><time>2026-03-23T11:18:43.001Z</time></trkpt><trkpt lat="30.913928834467903" lon="-4.943404603422512"><ele>715.5</ele><time>2026-03-23T11:18:44.001Z</time></trkpt><trkpt lat="30.913723651128134" lon="-4.9435960930351985"><ele>716.0</ele><time>2026-03-23T11:18:45.001Z</time></trkpt><trkpt lat="30.91351301160007" lon="-4.943789316432472"><ele>716.5</ele><time>2026-03-23T11:18:46.001Z</time></trkpt><trkpt lat="30.913300006297707" lon="-4.943984181353628"><ele>717.0</ele><time>2026-03-23T11:18:47.001Z</time></trkpt><trkpt lat="30.91309444790011" lon="-4.944170783186776"><ele>717.5</ele><time>2026-03-23T11:18:48.001Z</time></trkpt><trkpt lat="30.91290600491703" lon="-4.944334386778051"><ele>718.0</ele><time>2026-03-23T11:18:49.001Z</time></trkpt><trkpt lat="30.912726808755295" lon="-4.944480178496697"><ele>718.0</ele><time>2026-03-23T11:18:50.001Z</time></trkpt><trkpt lat="30.912546792736336" lon="-4.944650544116995"><ele>718.0</ele><time>2026-03-23T11:18:51.001Z</time></trkpt><trkpt lat="30.912372017043367" lon="-4.944804708260081"><ele>718.0</ele><time>2026-03-23T11:18:52.001Z</time></trkpt><trkpt lat="30.912213306342288" lon="-4.944958597550137"><ele>718.0</ele><time>2026-03-23T11:18:53.001Z</time></trkpt><trkpt lat="30.912063533677127" lon="-4.945094000080205"><ele>718.0</ele><time>2026-03-23T11:18:54.001Z</time></trkpt><trkpt lat="30.911914091147562" lon="-4.945238929344042"><ele>718.3333333333334</ele><time>2026-03-23T11:18:55.001Z</time></trkpt><trkpt lat="30.911768176347316" lon="-4.945390100655051"><ele>718.6666666666666</ele><time>2026-03-23T11:18:56.001Z</time></trkpt><trkpt lat="30.91160484097484" lon="-4.945529588738018"><ele>719.0</ele><time>2026-03-23T11:18:57.001Z</time></trkpt><trkpt lat="30.91144173117128" lon="-4.9456484296802365"><ele>719.0</ele><time>2026-03-23T11:18:58.001Z</time></trkpt><trkpt lat="30.911284360495642" lon="-4.9457652355960775"><ele>719.0</ele><time>2026-03-23T11:18:59.001Z</time></trkpt><trkpt lat="30.91114285501891" lon="-4.9458517649485945"><ele>719.0</ele><time>2026-03-23T11:19:00.001Z</time></trkpt><trkpt lat="30.911014878345036" lon="-4.945933174055297"><ele>718.0</ele><time>2026-03-23T11:19:01.001Z</time></trkpt><trkpt lat="30.910906606518132" lon="-4.946052926996382"><ele>717.0</ele><time>2026-03-23T11:19:02.001Z</time></trkpt><trkpt lat="30.910798511515715" lon="-4.946205094539264"><ele>716.0</ele><time>2026-03-23T11:19:03.001Z</time></trkpt><trkpt lat="30.910665233106236" lon="-4.946350089691334"><ele>716.0</ele><time>2026-03-23T11:19:04.001Z</time></trkpt><trkpt lat="30.910537816456678" lon="-4.946495487762618"><ele>716.0</ele><time>2026-03-23T11:19:05.001Z</time></trkpt><trkpt lat="30.910400313989577" lon="-4.946637033010549"><ele>716.0</ele><time>2026-03-23T11:19:06.001Z</time></trkpt><trkpt lat="30.910252401658386" lon="-4.946768588804128"><ele>716.6666666666666</ele><time>2026-03-23T11:19:07.001Z</time></trkpt><trkpt lat="30.910080415806842" lon="-4.946901032549632"><ele>717.3333333333334</ele><time>2026-03-23T11:19:08.001Z</time></trkpt><trkpt lat="30.909897821250233" lon="-4.94702705697811"><ele>718.0</ele><time>2026-03-23T11:19:09.001Z</time></trkpt><trkpt lat="30.909734846739514" lon="-4.947131122418593"><ele>718.0</ele><time>2026-03-23T11:19:10.001Z</time></trkpt><trkpt lat="30.909603274371445" lon="-4.947215301990485"><ele>718.0</ele><time>2026-03-23T11:19:11.001Z</time></trkpt><trkpt lat="30.90948805443791" lon="-4.947292637518211"><ele>718.0</ele><time>2026-03-23T11:19:12.001Z</time></trkpt><trkpt lat="30.909365803137028" lon="-4.947388699117508"><ele>718.0</ele><time>2026-03-23T11:19:13.001Z</time></trkpt><trkpt lat="30.909243519346585" lon="-4.947500673368127"><ele>718.0</ele><time>2026-03-23T11:19:14.001Z</time></trkpt><trkpt lat="30.90912406533119" lon="-4.94762974951018"><ele>718.0</ele><time>2026-03-23T11:19:15.001Z</time></trkpt><trkpt lat="30.909007447108213" lon="-4.947773039726809"><ele>718.0</ele><time>2026-03-23T11:19:16.001Z</time></trkpt><trkpt lat="30.908888968676354" lon="-4.947915819148793"><ele>718.0</ele><time>2026-03-23T11:19:17.001Z</time></trkpt><trkpt lat="30.908769731004213" lon="-4.948047175781326"><ele>718.0</ele><time>2026-03-23T11:19:18.001Z</time></trkpt><trkpt lat="30.90865204186893" lon="-4.948167485793252"><ele>718.0</ele><time>2026-03-23T11:19:19.001Z</time></trkpt><trkpt lat="30.908536417068742" lon="-4.948282392312718"><ele>719.0</ele><time>2026-03-23T11:19:20.001Z</time></trkpt><trkpt lat="30.90842091330113" lon="-4.9484142914603"><ele>720.0</ele><time>2026-03-23T11:19:21.001Z</time></trkpt><trkpt lat="30.90830994547355" lon="-4.948556844755114"><ele>721.0</ele><time>2026-03-23T11:19:22.001Z</time></trkpt><trkpt lat="30.908195332680936" lon="-4.948694950046532"><ele>721.5</ele><time>2026-03-23T11:19:23.001Z</time></trkpt><trkpt lat="30.908088232451618" lon="-4.948815137397287"><ele>722.0</ele><time>2026-03-23T11:19:24.001Z</time></trkpt><trkpt lat="30.907982264596484" lon="-4.948927950231526"><ele>722.5</ele><time>2026-03-23T11:19:25.001Z</time></trkpt><trkpt lat="30.90787376126756" lon="-4.949034946862768"><ele>723.0</ele><time>2026-03-23T11:19:26.001Z</time></trkpt><trkpt lat="30.90776531338722" lon="-4.9491389878605805"><ele>722.75</ele><time>2026-03-23T11:19:27.001Z</time></trkpt><trkpt lat="30.90764913492508" lon="-4.9492461528163725"><ele>722.5</ele><time>2026-03-23T11:19:28.002Z</time></trkpt><trkpt lat="30.907533626147437" lon="-4.949357738294781"><ele>722.25</ele><time>2026-03-23T11:19:29.002Z</time></trkpt><trkpt lat="30.90741682370777" lon="-4.949465378203956"><ele>722.0</ele><time>2026-03-23T11:19:30.002Z</time></trkpt><trkpt lat="30.907299607202198" lon="-4.949570507507002"><ele>722.0</ele><time>2026-03-23T11:19:31.002Z</time></trkpt><trkpt lat="30.907185244994718" lon="-4.949677640817663"><ele>722.0</ele><time>2026-03-23T11:19:32.002Z</time></trkpt><trkpt lat="30.907072843647082" lon="-4.949782862536431"><ele>722.0</ele><time>2026-03-23T11:19:33.002Z</time></trkpt><trkpt lat="30.906960685039504" lon="-4.949892557558097"><ele>722.0</ele><time>2026-03-23T11:19:34.002Z</time></trkpt><trkpt lat="30.906852787053165" lon="-4.950002344486595"><ele>722.0</ele><time>2026-03-23T11:19:35.002Z</time></trkpt><trkpt lat="30.90674665412315" lon="-4.950115553168202"><ele>722.0</ele><time>2026-03-23T11:19:36.002Z</time></trkpt><trkpt lat="30.906643165158915" lon="-4.950226090075201"><ele>722.0</ele><time>2026-03-23T11:19:37.002Z</time></trkpt><trkpt lat="30.906537311206876" lon="-4.950332952668886"><ele>722.0</ele><time>2026-03-23T11:19:38.002Z</time></trkpt><trkpt lat="30.906423431499075" lon="-4.950431543893165"><ele>722.0</ele><time>2026-03-23T11:19:39.002Z</time></trkpt><trkpt lat="30.906297818493012" lon="-4.950524387287261"><ele>722.0</ele><time>2026-03-23T11:19:40.002Z</time></trkpt><trkpt lat="30.9061587898464" lon="-4.950613793883825"><ele>722.0</ele><time>2026-03-23T11:19:41.002Z</time></trkpt><trkpt lat="30.906024876632944" lon="-4.950707342158344"><ele>722.0</ele><time>2026-03-23T11:19:42.002Z</time></trkpt><trkpt lat="30.905881558729824" lon="-4.950799275824982"><ele>722.0</ele><time>2026-03-23T11:19:43.002Z</time></trkpt><trkpt lat="30.905741831649348" lon="-4.950893413279882"><ele>722.0</ele><time>2026-03-23T11:19:44.002Z</time></trkpt><trkpt lat="30.905598432409676" lon="-4.950994170118629"><ele>722.3333333333333</ele><time>2026-03-23T11:19:45.002Z</time></trkpt><trkpt lat="30.905470998497815" lon="-4.951102028208588"><ele>722.6666666666666</ele><time>2026-03-23T11:19:46.002Z</time></trkpt><trkpt lat="30.905351487886662" lon="-4.9512048924443475"><ele>723.0</ele><time>2026-03-23T11:19:47.002Z</time></trkpt><trkpt lat="30.90522771798214" lon="-4.951326489117982"><ele>723.0</ele><time>2026-03-23T11:19:48.002Z</time></trkpt><trkpt lat="30.905096321023343" lon="-4.951459901473771"><ele>723.0</ele><time>2026-03-23T11:19:49.002Z</time></trkpt><trkpt lat="30.904970551201412" lon="-4.951602862332106"><ele>723.0</ele><time>2026-03-23T11:19:50.002Z</time></trkpt><trkpt lat="30.904864272529252" lon="-4.951743703637426"><ele>723.0</ele><time>2026-03-23T11:19:51.002Z</time></trkpt><trkpt lat="30.904750143018905" lon="-4.95190590349319"><ele>723.0</ele><time>2026-03-23T11:19:52.002Z</time></trkpt><trkpt lat="30.90462742229912" lon="-4.952064537906214"><ele>723.0</ele><time>2026-03-23T11:19:53.002Z</time></trkpt><trkpt lat="30.90451881305937" lon="-4.952216278830606"><ele>723.0</ele><time>2026-03-23T11:19:54.002Z</time></trkpt><trkpt lat="30.904413439004337" lon="-4.952371261020953"><ele>723.0</ele><time>2026-03-23T11:19:55.002Z</time></trkpt><trkpt lat="30.90431134949759" lon="-4.952530066682198"><ele>723.0</ele><time>2026-03-23T11:19:56.002Z</time></trkpt><trkpt lat="30.904224354288555" lon="-4.952685134011062"><ele>723.25</ele><time>2026-03-23T11:19:57.002Z</time></trkpt><trkpt lat="30.90414234190624" lon="-4.952825545844726"><ele>723.5</ele><time>2026-03-23T11:19:58.002Z</time></trkpt><trkpt lat="30.904065463478446" lon="-4.952968335102403"><ele>723.75</ele><time>2026-03-23T11:19:59.002Z</time></trkpt><trkpt lat="30.904003449053757" lon="-4.953078963548012"><ele>724.0</ele><time>2026-03-23T11:20:00.002Z</time></trkpt><trkpt lat="30.903944013403756" lon="-4.953135434958765"><ele>724.0</ele><time>2026-03-23T11:20:01.002Z</time></trkpt><trkpt lat="30.903851310360515" lon="-4.953186038090161"><ele>724.0</ele><time>2026-03-23T11:20:02.002Z</time></trkpt><trkpt lat="30.903728248507807" lon="-4.953239858662446"><ele>724.0</ele><time>2026-03-23T11:20:03.002Z</time></trkpt><trkpt lat="30.90361374642979" lon="-4.953303588220714"><ele>724.0</ele><time>2026-03-23T11:20:04.002Z</time></trkpt><trkpt lat="30.90351188204696" lon="-4.953378934159938"><ele>724.0</ele><time>2026-03-23T11:20:05.002Z</time></trkpt><trkpt lat="30.903407051078293" lon="-4.953461131703235"><ele>724.0</ele><time>2026-03-23T11:20:06.002Z</time></trkpt><trkpt lat="30.903297750634632" lon="-4.953543119425078"><ele>724.0</ele><time>2026-03-23T11:20:07.002Z</time></trkpt><trkpt lat="30.9031919897339" lon="-4.953627716883481"><ele>724.0</ele><time>2026-03-23T11:20:08.002Z</time></trkpt><trkpt lat="30.903089198300155" lon="-4.953711317549987"><ele>724.0</ele><time>2026-03-23T11:20:09.002Z</time></trkpt><trkpt lat="30.9029917113448" lon="-4.953800761338186"><ele>724.0</ele><time>2026-03-23T11:20:10.002Z</time></trkpt><trkpt lat="30.90288721679898" lon="-4.95390267368121"><ele>724.0</ele><time>2026-03-23T11:20:11.002Z</time></trkpt><trkpt lat="30.9027753890395" lon="-4.954001811570672"><ele>724.0</ele><time>2026-03-23T11:20:12.002Z</time></trkpt><trkpt lat="30.902658897639665" lon="-4.95409240417923"><ele>724.0</ele><time>2026-03-23T11:20:13.002Z</time></trkpt><trkpt lat="30.90253425626692" lon="-4.95418115456154"><ele>724.0</ele><time>2026-03-23T11:20:14.002Z</time></trkpt><trkpt lat="30.902405350025507" lon="-4.954262866714165"><ele>724.0</ele><time>2026-03-23T11:20:15.002Z</time></trkpt><trkpt lat="30.902270549678192" lon="-4.954344295857019"><ele>724.0</ele><time>2026-03-23T11:20:16.003Z</time></trkpt><trkpt lat="30.90213492460046" lon="-4.954422571960222"><ele>724.6666666666667</ele><time>2026-03-23T11:20:17.003Z</time></trkpt><trkpt lat="30.902000284190823" lon="-4.95450965474524"><ele>725.3333333333334</ele><time>2026-03-23T11:20:18.003Z</time></trkpt><trkpt lat="30.901867333836957" lon="-4.954597734089274"><ele>726.0</ele><time>2026-03-23T11:20:19.001Z</time></trkpt><trkpt lat="30.901729411986928" lon="-4.954687031686917"><ele>726.3333333333334</ele><time>2026-03-23T11:20:20.001Z</time></trkpt><trkpt lat="30.90159191267322" lon="-4.9547783623084865"><ele>726.6666666666667</ele><time>2026-03-23T11:20:21.001Z</time></trkpt><trkpt lat="30.901450778020397" lon="-4.954866190071178"><ele>727.0</ele><time>2026-03-23T11:20:22.001Z</time></trkpt><trkpt lat="30.901320114457313" lon="-4.954975358633574"><ele>726.3333333333334</ele><time>2026-03-23T11:20:23.001Z</time></trkpt><trkpt lat="30.901188449069387" lon="-4.955115911418335"><ele>725.6666666666666</ele><time>2026-03-23T11:20:24.001Z</time></trkpt><trkpt lat="30.90107667737577" lon="-4.955255100490343"><ele>725.0</ele><time>2026-03-23T11:20:25.001Z</time></trkpt><trkpt lat="30.90096128509327" lon="-4.9553770394047545"><ele>725.5</ele><time>2026-03-23T11:20:26.001Z</time></trkpt><trkpt lat="30.900847071783428" lon="-4.955509542226115"><ele>726.0</ele><time>2026-03-23T11:20:27.001Z</time></trkpt><trkpt lat="30.900739022315626" lon="-4.955637235675329"><ele>726.5</ele><time>2026-03-23T11:20:28.001Z</time></trkpt><trkpt lat="30.900644670806386" lon="-4.9557485789641404"><ele>727.0</ele><time>2026-03-23T11:20:29.001Z</time></trkpt><trkpt lat="30.900535300008436" lon="-4.955840779249142"><ele>727.0</ele><time>2026-03-23T11:20:30.001Z</time></trkpt><trkpt lat="30.90039520586487" lon="-4.9559368788366305"><ele>727.0</ele><time>2026-03-23T11:20:31.001Z</time></trkpt><trkpt lat="30.90022879619169" lon="-4.956030858385495"><ele>727.0</ele><time>2026-03-23T11:20:32.001Z</time></trkpt><trkpt lat="30.900043297899614" lon="-4.956133183617079"><ele>726.5</ele><time>2026-03-23T11:20:33.001Z</time></trkpt><trkpt lat="30.89983049586817" lon="-4.956252172799089"><ele>726.0</ele><time>2026-03-23T11:20:34.001Z</time></trkpt><trkpt lat="30.89963379714862" lon="-4.956370793116145"><ele>726.0</ele><time>2026-03-23T11:20:35.001Z</time></trkpt><trkpt lat="30.899443624874785" lon="-4.956466040419557"><ele>726.0</ele><time>2026-03-23T11:20:36.001Z</time></trkpt><trkpt lat="30.899285407795475" lon="-4.956558731012294"><ele>726.0</ele><time>2026-03-23T11:20:37.001Z</time></trkpt><trkpt lat="30.899134613244808" lon="-4.956646437133119"><ele>726.3333333333334</ele><time>2026-03-23T11:20:38.001Z</time></trkpt><trkpt lat="30.89897929044319" lon="-4.956735249196185"><ele>726.6666666666667</ele><time>2026-03-23T11:20:39.001Z</time></trkpt><trkpt lat="30.898817124215988" lon="-4.956819100788511"><ele>727.0</ele><time>2026-03-23T11:20:40.001Z</time></trkpt><trkpt lat="30.89866352072298" lon="-4.956887953212977"><ele>727.0</ele><time>2026-03-23T11:20:41.001Z</time></trkpt><trkpt lat="30.89852302581065" lon="-4.956958757033738"><ele>727.0</ele><time>2026-03-23T11:20:42.001Z</time></trkpt><trkpt lat="30.89839360098795" lon="-4.9570303833999665"><ele>727.0</ele><time>2026-03-23T11:20:43.001Z</time></trkpt><trkpt lat="30.89827608248063" lon="-4.95709468381465"><ele>727.0</ele><time>2026-03-23T11:20:44.001Z</time></trkpt><trkpt lat="30.898152785538922" lon="-4.957152957637446"><ele>726.8</ele><time>2026-03-23T11:20:45.001Z</time></trkpt><trkpt lat="30.898039949105033" lon="-4.957189771213095"><ele>726.6</ele><time>2026-03-23T11:20:46.001Z</time></trkpt><trkpt lat="30.897937733163346" lon="-4.957221120778796"><ele>726.4</ele><time>2026-03-23T11:20:47.001Z</time></trkpt><trkpt lat="30.897832725974457" lon="-4.957255360732959"><ele>726.1999999999999</ele><time>2026-03-23T11:20:48.001Z</time></trkpt><trkpt lat="30.897726850773285" lon="-4.957306154333878"><ele>726.0</ele><time>2026-03-23T11:20:49.001Z</time></trkpt><trkpt lat="30.897616807066576" lon="-4.957371278942795"><ele>726.0</ele><time>2026-03-23T11:20:50.001Z</time></trkpt><trkpt lat="30.8974897669007" lon="-4.957444847859678"><ele>726.0</ele><time>2026-03-23T11:20:51.001Z</time></trkpt><trkpt lat="30.897359749510397" lon="-4.957516538275659"><ele>726.0</ele><time>2026-03-23T11:20:52.001Z</time></trkpt><trkpt lat="30.89722652728438" lon="-4.957570582107233"><ele>726.0</ele><time>2026-03-23T11:20:53.001Z</time></trkpt><trkpt lat="30.897083654838568" lon="-4.957612474411089"><ele>726.0</ele><time>2026-03-23T11:20:54.001Z</time></trkpt><trkpt lat="30.896946769100737" lon="-4.957661258246428"><ele>726.0</ele><time>2026-03-23T11:20:55.001Z</time></trkpt><trkpt lat="30.896824692224683" lon="-4.957721385449486"><ele>726.0</ele><time>2026-03-23T11:20:56.001Z</time></trkpt><trkpt lat="30.89670218361948" lon="-4.957783352662788"><ele>726.0</ele><time>2026-03-23T11:20:57.001Z</time></trkpt><trkpt lat="30.896578979653448" lon="-4.957849546080028"><ele>726.0</ele><time>2026-03-23T11:20:58.001Z</time></trkpt><trkpt lat="30.896456816151037" lon="-4.957916744595911"><ele>726.0</ele><time>2026-03-23T11:20:59.001Z</time></trkpt><trkpt lat="30.896331379063355" lon="-4.95798179252925"><ele>726.0</ele><time>2026-03-23T11:21:00.001Z</time></trkpt><trkpt lat="30.896207213861008" lon="-4.958041743338795"><ele>726.0</ele><time>2026-03-23T11:21:01.001Z</time></trkpt><trkpt lat="30.896075893766596" lon="-4.95810118558609"><ele>726.0</ele><time>2026-03-23T11:21:02.001Z</time></trkpt><trkpt lat="30.895953798103854" lon="-4.958162118781247"><ele>726.0</ele><time>2026-03-23T11:21:03.001Z</time></trkpt><trkpt lat="30.89583290593092" lon="-4.9582314419865785"><ele>726.0</ele><time>2026-03-23T11:21:04.001Z</time></trkpt><trkpt lat="30.895703893416723" lon="-4.958282358358478"><ele>726.0</ele><time>2026-03-23T11:21:05.001Z</time></trkpt><trkpt lat="30.89556872399508" lon="-4.958339542551344"><ele>726.5</ele><time>2026-03-23T11:21:06.001Z</time></trkpt><trkpt lat="30.895440492304164" lon="-4.958402334000336"><ele>727.0</ele><time>2026-03-23T11:21:07.001Z</time></trkpt><trkpt lat="30.895311261941224" lon="-4.958470293483616"><ele>727.5</ele><time>2026-03-23T11:21:08.001Z</time></trkpt><trkpt lat="30.895178814415164" lon="-4.958540908404526"><ele>728.0</ele><time>2026-03-23T11:21:09.001Z</time></trkpt><trkpt lat="30.895041546621467" lon="-4.958613016254023"><ele>728.3333333333333</ele><time>2026-03-23T11:21:10.001Z</time></trkpt><trkpt lat="30.89490213547525" lon="-4.958680111517011"><ele>728.6666666666666</ele><time>2026-03-23T11:21:11.001Z</time></trkpt><trkpt lat="30.89475295434543" lon="-4.9587598504705666"><ele>729.0</ele><time>2026-03-23T11:21:12.001Z</time></trkpt><trkpt lat="30.89460280917574" lon="-4.958836105424442"><ele>729.0</ele><time>2026-03-23T11:21:13.001Z</time></trkpt><trkpt lat="30.894445464188788" lon="-4.9589041673038565"><ele>729.0</ele><time>2026-03-23T11:21:14.001Z</time></trkpt><trkpt lat="30.894296652427673" lon="-4.958965025643587"><ele>729.0</ele><time>2026-03-23T11:21:15.001Z</time></trkpt><trkpt lat="30.8941846102263" lon="-4.959016115825329"><ele>729.0</ele><time>2026-03-23T11:21:16.001Z</time></trkpt><trkpt lat="30.894080054142492" lon="-4.95905777326527"><ele>728.5</ele><time>2026-03-23T11:21:17.001Z</time></trkpt><trkpt lat="30.89398220888193" lon="-4.959081010521393"><ele>728.0</ele><time>2026-03-23T11:21:18.001Z</time></trkpt><trkpt lat="30.893876545210087" lon="-4.959090653007126"><ele>727.5</ele><time>2026-03-23T11:21:19.001Z</time></trkpt><trkpt lat="30.893754928135934" lon="-4.959091774494088"><ele>727.0</ele><time>2026-03-23T11:21:20.001Z</time></trkpt><trkpt lat="30.89362624998586" lon="-4.959090006499836"><ele>727.0</ele><time>2026-03-23T11:21:21.001Z</time></trkpt><trkpt lat="30.893516370622233" lon="-4.959112401051878"><ele>727.0</ele><time>2026-03-23T11:21:22.001Z</time></trkpt><trkpt lat="30.89341422862694" lon="-4.959147946827076"><ele>727.0</ele><time>2026-03-23T11:21:23.001Z</time></trkpt><trkpt lat="30.893311227373776" lon="-4.959175751742019"><ele>727.0</ele><time>2026-03-23T11:21:24.001Z</time></trkpt><trkpt lat="30.8932043005909" lon="-4.959208253497529"><ele>727.0</ele><time>2026-03-23T11:21:25.001Z</time></trkpt><trkpt lat="30.893130235779097" lon="-4.959266445174373"><ele>727.25</ele><time>2026-03-23T11:21:26.001Z</time></trkpt><trkpt lat="30.893052743783507" lon="-4.959354079740948"><ele>727.5</ele><time>2026-03-23T11:21:27.001Z</time></trkpt><trkpt lat="30.89295310215596" lon="-4.959454640004257"><ele>727.75</ele><time>2026-03-23T11:21:28.001Z</time></trkpt><trkpt lat="30.89284326512969" lon="-4.959537800517817"><ele>728.0</ele><time>2026-03-23T11:21:29.001Z</time></trkpt><trkpt lat="30.892725866525296" lon="-4.959623420176682"><ele>728.0</ele><time>2026-03-23T11:21:30.001Z</time></trkpt><trkpt lat="30.89262387861256" lon="-4.959701451096103"><ele>728.0</ele><time>2026-03-23T11:21:31.001Z</time></trkpt><trkpt lat="30.8925226348839" lon="-4.959773215948724"><ele>728.0</ele><time>2026-03-23T11:21:32.001Z</time></trkpt><trkpt lat="30.892418337481228" lon="-4.959850897809374"><ele>728.0</ele><time>2026-03-23T11:21:33.001Z</time></trkpt><trkpt lat="30.89231941449265" lon="-4.959924020074688"><ele>728.0</ele><time>2026-03-23T11:21:34.001Z</time></trkpt><trkpt lat="30.89221683486287" lon="-4.96000121505409"><ele>728.0</ele><time>2026-03-23T11:21:35.001Z</time></trkpt><trkpt lat="30.89211991564676" lon="-4.960083239987112"><ele>728.0</ele><time>2026-03-23T11:21:36.001Z</time></trkpt><trkpt lat="30.892031555527204" lon="-4.960143547983388"><ele>728.0</ele><time>2026-03-23T11:21:37.002Z</time></trkpt><trkpt lat="30.89196696334539" lon="-4.96019206288679"><ele>728.0</ele><time>2026-03-23T11:21:38.002Z</time></trkpt><trkpt lat="30.891888779107806" lon="-4.96022982717929"><ele>728.2</ele><time>2026-03-23T11:21:40.002Z</time></trkpt><trkpt lat="30.891823004956652" lon="-4.960278128140802"><ele>728.4</ele><time>2026-03-23T11:21:43.002Z</time></trkpt><trkpt lat="30.891768957698492" lon="-4.960319673567827"><ele>728.6</ele><time>2026-03-23T11:21:45.002Z</time></trkpt><trkpt lat="30.891711548911594" lon="-4.960382606383499"><ele>728.8000000000001</ele><time>2026-03-23T11:21:49.002Z</time></trkpt><trkpt lat="30.89165351165745" lon="-4.960484853998859"><ele>729.0</ele><time>2026-03-23T11:21:51.002Z</time></trkpt><trkpt lat="30.891550578976165" lon="-4.960577948529475"><ele>729.2</ele><time>2026-03-23T11:21:53.002Z</time></trkpt><trkpt lat="30.891467120230875" lon="-4.960622789260583"><ele>729.4000000000001</ele><time>2026-03-23T11:21:54.002Z</time></trkpt><trkpt lat="30.891378585368535" lon="-4.960681867335829"><ele>729.6</ele><time>2026-03-23T11:21:55.002Z</time></trkpt><trkpt lat="30.891293471385225" lon="-4.960758211101985"><ele>729.8</ele><time>2026-03-23T11:21:56.002Z</time></trkpt><trkpt lat="30.89122055057782" lon="-4.960859817154488"><ele>730.0</ele><time>2026-03-23T11:21:57.002Z</time></trkpt><trkpt lat="30.89110629049559" lon="-4.9608636411572595"><ele>729.8</ele><time>2026-03-23T11:21:58.002Z</time></trkpt><trkpt lat="30.89101125320804" lon="-4.960916669932155"><ele>729.6</ele><time>2026-03-23T11:21:59.002Z</time></trkpt><trkpt lat="30.890908548188232" lon="-4.960974038039687"><ele>729.4000000000001</ele><time>2026-03-23T11:22:00.002Z</time></trkpt><trkpt lat="30.89081074384203" lon="-4.9610328490598175"><ele>729.2</ele><time>2026-03-23T11:22:01.002Z</time></trkpt><trkpt lat="30.890716226176277" lon="-4.961110150533173"><ele>729.0</ele><time>2026-03-23T11:22:02.002Z</time></trkpt><trkpt lat="30.890619730688563" lon="-4.961191782349765"><ele>728.75</ele><time>2026-03-23T11:22:03.002Z</time></trkpt><trkpt lat="30.89051419157338" lon="-4.96127164637052"><ele>728.5</ele><time>2026-03-23T11:22:04.002Z</time></trkpt><trkpt lat="30.890403831444374" lon="-4.961343560814027"><ele>728.25</ele><time>2026-03-23T11:22:05.002Z</time></trkpt><trkpt lat="30.89029357195707" lon="-4.961409887303022"><ele>728.0</ele><time>2026-03-23T11:22:06.002Z</time></trkpt><trkpt lat="30.890180630977373" lon="-4.96148360870638"><ele>728.5</ele><time>2026-03-23T11:22:07.002Z</time></trkpt><trkpt lat="30.89006091029869" lon="-4.96154185068347"><ele>729.0</ele><time>2026-03-23T11:22:08.002Z</time></trkpt><trkpt lat="30.889943746149157" lon="-4.96159358005811"><ele>729.5</ele><time>2026-03-23T11:22:09.002Z</time></trkpt><trkpt lat="30.889823394946923" lon="-4.961640293584366"><ele>730.0</ele><time>2026-03-23T11:22:10.002Z</time></trkpt><trkpt lat="30.88972074324092" lon="-4.961679869523109"><ele>730.0</ele><time>2026-03-23T11:22:11.002Z</time></trkpt><trkpt lat="30.889633444280086" lon="-4.96171486418738"><ele>730.0</ele><time>2026-03-23T11:22:12.002Z</time></trkpt><trkpt lat="30.88955929343435" lon="-4.9617482956654495"><ele>730.0</ele><time>2026-03-23T11:22:13.002Z</time></trkpt><trkpt lat="30.889483300703912" lon="-4.961782350463217"><ele>730.0</ele><time>2026-03-23T11:22:14.002Z</time></trkpt><trkpt lat="30.8893995977827" lon="-4.96182251530271"><ele>730.0</ele><time>2026-03-23T11:22:15.002Z</time></trkpt><trkpt lat="30.889307080210116" lon="-4.961871750637123"><ele>730.0</ele><time>2026-03-23T11:22:16.002Z</time></trkpt><trkpt lat="30.88920676643524" lon="-4.961917894583301"><ele>730.0</ele><time>2026-03-23T11:22:17.002Z</time></trkpt><trkpt lat="30.889105160803773" lon="-4.961943144775372"><ele>730.0</ele><time>2026-03-23T11:22:18.002Z</time></trkpt><trkpt lat="30.889023267711668" lon="-4.961964474557969"><ele>730.0</ele><time>2026-03-23T11:22:19.002Z</time></trkpt><trkpt lat="30.888948237520612" lon="-4.961990816890703"><ele>730.0</ele><time>2026-03-23T11:22:20.002Z</time></trkpt><trkpt lat="30.888871905991497" lon="-4.962027822554732"><ele>730.0</ele><time>2026-03-23T11:22:21.002Z</time></trkpt><trkpt lat="30.8887946172977" lon="-4.9620680046521395"><ele>730.0</ele><time>2026-03-23T11:22:22.002Z</time></trkpt><trkpt lat="30.888708626551917" lon="-4.9621182343282415"><ele>730.0</ele><time>2026-03-23T11:22:23.002Z</time></trkpt><trkpt lat="30.888609391947146" lon="-4.962178072473019"><ele>730.0</ele><time>2026-03-23T11:22:24.002Z</time></trkpt><trkpt lat="30.88851194556609" lon="-4.96224003704858"><ele>730.0</ele><time>2026-03-23T11:22:25Z</time></trkpt><trkpt lat="30.888407616863063" lon="-4.9622956521400265"><ele>730.0</ele><time>2026-03-23T11:22:26Z</time></trkpt><trkpt lat="30.888285325868697" lon="-4.962342453395975"><ele>730.0</ele><time>2026-03-23T11:22:27Z</time></trkpt><trkpt lat="30.88815944227031" lon="-4.9623846766037465"><ele>730.0</ele><time>2026-03-23T11:22:28Z</time></trkpt><trkpt lat="30.888031537905135" lon="-4.962430162521992"><ele>730.0</ele><time>2026-03-23T11:22:29Z</time></trkpt><trkpt lat="30.88790460786849" lon="-4.962476510220822"><ele>730.0</ele><time>2026-03-23T11:22:30Z</time></trkpt><trkpt lat="30.88777718507641" lon="-4.962519597431337"><ele>729.25</ele><time>2026-03-23T11:22:31Z</time></trkpt><trkpt lat="30.88763998228154" lon="-4.9625684724057395"><ele>728.5</ele><time>2026-03-23T11:22:32Z</time></trkpt><trkpt lat="30.88749945707209" lon="-4.962614060002172"><ele>727.75</ele><time>2026-03-23T11:22:33Z</time></trkpt><trkpt lat="30.887357939489576" lon="-4.962654944635021"><ele>727.0</ele><time>2026-03-23T11:22:34Z</time></trkpt><trkpt lat="30.887219566818345" lon="-4.962688478743329"><ele>727.0</ele><time>2026-03-23T11:22:35Z</time></trkpt><trkpt lat="30.88707949881821" lon="-4.962724145326587"><ele>727.0</ele><time>2026-03-23T11:22:36Z</time></trkpt><trkpt lat="30.88693531211061" lon="-4.9627564870874075"><ele>727.0</ele><time>2026-03-23T11:22:37Z</time></trkpt><trkpt lat="30.88678159972859" lon="-4.962784735295205"><ele>727.0</ele><time>2026-03-23T11:22:38Z</time></trkpt><trkpt lat="30.886631538557356" lon="-4.9628088918848645"><ele>727.6666666666667</ele><time>2026-03-23T11:22:39Z</time></trkpt><trkpt lat="30.88647711608302" lon="-4.962834778174396"><ele>728.3333333333334</ele><time>2026-03-23T11:22:40Z</time></trkpt><trkpt lat="30.886321793057615" lon="-4.962850151640482"><ele>729.0</ele><time>2026-03-23T11:22:41Z</time></trkpt><trkpt lat="30.886155727588473" lon="-4.962867742707121"><ele>729.0</ele><time>2026-03-23T11:22:42Z</time></trkpt><trkpt lat="30.885991619456522" lon="-4.962888120700031"><ele>729.0</ele><time>2026-03-23T11:22:43Z</time></trkpt><trkpt lat="30.885833729811704" lon="-4.962908778421226"><ele>729.0</ele><time>2026-03-23T11:22:44Z</time></trkpt><trkpt lat="30.885678615968416" lon="-4.962928940383059"><ele>729.0</ele><time>2026-03-23T11:22:45Z</time></trkpt><trkpt lat="30.88553240792034" lon="-4.962952032845327"><ele>729.0</ele><time>2026-03-23T11:22:46Z</time></trkpt><trkpt lat="30.88539932136187" lon="-4.962966982676701"><ele>729.0</ele><time>2026-03-23T11:22:47Z</time></trkpt><trkpt lat="30.885267549596" lon="-4.96298171233318"><ele>729.0</ele><time>2026-03-23T11:22:48Z</time></trkpt><trkpt lat="30.885128906188918" lon="-4.963001264930551"><ele>728.75</ele><time>2026-03-23T11:22:49Z</time></trkpt><trkpt lat="30.884987009953647" lon="-4.963016973567888"><ele>728.5</ele><time>2026-03-23T11:22:50Z</time></trkpt><trkpt lat="30.88484475114134" lon="-4.963027676629691"><ele>728.25</ele><time>2026-03-23T11:22:51Z</time></trkpt><trkpt lat="30.88469715837015" lon="-4.963038428578231"><ele>728.0</ele><time>2026-03-23T11:22:52Z</time></trkpt><trkpt lat="30.884550300893572" lon="-4.963052603657285"><ele>728.0</ele><time>2026-03-23T11:22:53.001Z</time></trkpt><trkpt lat="30.884413511732568" lon="-4.963063912668219"><ele>728.0</ele><time>2026-03-23T11:22:54.001Z</time></trkpt><trkpt lat="30.884278591335146" lon="-4.963072905309144"><ele>728.0</ele><time>2026-03-23T11:22:55.001Z</time></trkpt><trkpt lat="30.884133430966482" lon="-4.963078138310344"><ele>728.0</ele><time>2026-03-23T11:22:56.001Z</time></trkpt><trkpt lat="30.88397773276329" lon="-4.963082175594"><ele>727.3333333333333</ele><time>2026-03-23T11:22:57.001Z</time></trkpt><trkpt lat="30.883816143498606" lon="-4.96308342737913"><ele>726.6666666666666</ele><time>2026-03-23T11:22:58.001Z</time></trkpt><trkpt lat="30.88364627452981" lon="-4.963086656807011"><ele>726.0</ele><time>2026-03-23T11:22:59.001Z</time></trkpt><trkpt lat="30.883475682496215" lon="-4.9630986918907265"><ele>726.3333333333334</ele><time>2026-03-23T11:23:00.001Z</time></trkpt><trkpt lat="30.883300636185496" lon="-4.963105677243738"><ele>726.6666666666667</ele><time>2026-03-23T11:23:01.001Z</time></trkpt><trkpt lat="30.883116016174124" lon="-4.963104919122059"><ele>727.0</ele><time>2026-03-23T11:23:02.001Z</time></trkpt><trkpt lat="30.88292349761871" lon="-4.963084398005798"><ele>727.0</ele><time>2026-03-23T11:23:03.001Z</time></trkpt><trkpt lat="30.88276224099073" lon="-4.9630475683451785"><ele>727.0</ele><time>2026-03-23T11:23:04.001Z</time></trkpt><trkpt lat="30.882548783264507" lon="-4.963054812769449"><ele>727.0</ele><time>2026-03-23T11:23:05.001Z</time></trkpt><trkpt lat="30.882357508513877" lon="-4.9630360072353685"><ele>726.6666666666667</ele><time>2026-03-23T11:23:06.001Z</time></trkpt><trkpt lat="30.882168871486126" lon="-4.963012973048887"><ele>726.3333333333334</ele><time>2026-03-23T11:23:07.001Z</time></trkpt><trkpt lat="30.881989360580327" lon="-4.963000231943263"><ele>726.0</ele><time>2026-03-23T11:23:08.001Z</time></trkpt><trkpt lat="30.881804722748257" lon="-4.962973844540651"><ele>726.3333333333334</ele><time>2026-03-23T11:23:09.001Z</time></trkpt><trkpt lat="30.881621313318806" lon="-4.962942529174199"><ele>726.6666666666667</ele><time>2026-03-23T11:23:10.001Z</time></trkpt><trkpt lat="30.881446945918075" lon="-4.962908604022819"><ele>727.0</ele><time>2026-03-23T11:23:11.001Z</time></trkpt><trkpt lat="30.88128670626192" lon="-4.962875749888764"><ele>727.0</ele><time>2026-03-23T11:23:12.001Z</time></trkpt><trkpt lat="30.88112576601032" lon="-4.962844688181463"><ele>727.0</ele><time>2026-03-23T11:23:13.001Z</time></trkpt><trkpt lat="30.880966998068146" lon="-4.96282293546004"><ele>727.0</ele><time>2026-03-23T11:23:14.001Z</time></trkpt><trkpt lat="30.880802033680094" lon="-4.9627910656381"><ele>726.3333333333334</ele><time>2026-03-23T11:23:15.001Z</time></trkpt><trkpt lat="30.880634838846323" lon="-4.962754947972739"><ele>725.6666666666666</ele><time>2026-03-23T11:23:16.001Z</time></trkpt><trkpt lat="30.880468081150706" lon="-4.962714771338421"><ele>725.0</ele><time>2026-03-23T11:23:17.001Z</time></trkpt><trkpt lat="30.880296342201145" lon="-4.962670924683337"><ele>725.0</ele><time>2026-03-23T11:23:18.001Z</time></trkpt><trkpt lat="30.880125813710855" lon="-4.962634254813771"><ele>725.0</ele><time>2026-03-23T11:23:19.001Z</time></trkpt><trkpt lat="30.879954984927924" lon="-4.962586638309988"><ele>725.0</ele><time>2026-03-23T11:23:20.001Z</time></trkpt><trkpt lat="30.879804032149753" lon="-4.962542155223552"><ele>725.0</ele><time>2026-03-23T11:23:21.001Z</time></trkpt><trkpt lat="30.87967335850698" lon="-4.962512178333899"><ele>725.0</ele><time>2026-03-23T11:23:22.001Z</time></trkpt><trkpt lat="30.87955169225003" lon="-4.962490492836809"><ele>725.0</ele><time>2026-03-23T11:23:23.001Z</time></trkpt><trkpt lat="30.87943627361969" lon="-4.96247332107257"><ele>725.0</ele><time>2026-03-23T11:23:24.001Z</time></trkpt><trkpt lat="30.87932264837696" lon="-4.96245367703055"><ele>725.0</ele><time>2026-03-23T11:23:25.001Z</time></trkpt><trkpt lat="30.879209527311822" lon="-4.9624335603066365"><ele>725.0</ele><time>2026-03-23T11:23:26.001Z</time></trkpt><trkpt lat="30.879101993410647" lon="-4.962418368116657"><ele>725.0</ele><time>2026-03-23T11:23:27.001Z</time></trkpt><trkpt lat="30.878992112227504" lon="-4.962399973918914"><ele>725.0</ele><time>2026-03-23T11:23:28.001Z</time></trkpt><trkpt lat="30.87887996957609" lon="-4.962381032752699"><ele>725.0</ele><time>2026-03-23T11:23:29.001Z</time></trkpt><trkpt lat="30.878759723783126" lon="-4.962366140578538"><ele>725.0</ele><time>2026-03-23T11:23:30.001Z</time></trkpt><trkpt lat="30.87863988820694" lon="-4.962347072574584"><ele>725.0</ele><time>2026-03-23T11:23:31.001Z</time></trkpt><trkpt lat="30.87851990455826" lon="-4.962324100605465"><ele>725.0</ele><time>2026-03-23T11:23:32.001Z</time></trkpt><trkpt lat="30.878398825097314" lon="-4.962305454897682"><ele>725.0</ele><time>2026-03-23T11:23:33.001Z</time></trkpt><trkpt lat="30.878289489119837" lon="-4.962292246887358"><ele>725.0</ele><time>2026-03-23T11:23:34.001Z</time></trkpt><trkpt lat="30.87818527642586" lon="-4.962274283497717"><ele>725.0</ele><time>2026-03-23T11:23:35.001Z</time></trkpt><trkpt lat="30.87807096347439" lon="-4.9622484192953005"><ele>725.0</ele><time>2026-03-23T11:23:36.001Z</time></trkpt><trkpt lat="30.877959236449048" lon="-4.962221240009488"><ele>725.0</ele><time>2026-03-23T11:23:37.001Z</time></trkpt><trkpt lat="30.877861789876007" lon="-4.962200086226004"><ele>725.0</ele><time>2026-03-23T11:23:38.001Z</time></trkpt><trkpt lat="30.877770464783442" lon="-4.9621832407007505"><ele>725.0</ele><time>2026-03-23T11:23:39.001Z</time></trkpt><trkpt lat="30.877678911624443" lon="-4.962167544214802"><ele>725.0</ele><time>2026-03-23T11:23:40.001Z</time></trkpt><trkpt lat="30.8775593390495" lon="-4.962136889695337"><ele>725.0</ele><time>2026-03-23T11:23:41.001Z</time></trkpt><trkpt lat="30.877428511677824" lon="-4.962097681903918"><ele>725.0</ele><time>2026-03-23T11:23:42.001Z</time></trkpt><trkpt lat="30.87729951808804" lon="-4.962059281009595"><ele>725.0</ele><time>2026-03-23T11:23:43.001Z</time></trkpt><trkpt lat="30.877175180451868" lon="-4.962021076089026"><ele>725.0</ele><time>2026-03-23T11:23:44.001Z</time></trkpt><trkpt lat="30.87706384644109" lon="-4.961995563459396"><ele>725.0</ele><time>2026-03-23T11:23:45.001Z</time></trkpt><trkpt lat="30.876967006931732" lon="-4.96197627450332"><ele>725.0</ele><time>2026-03-23T11:23:46.001Z</time></trkpt><trkpt lat="30.876876836806392" lon="-4.961958217753652"><ele>725.0</ele><time>2026-03-23T11:23:47.001Z</time></trkpt><trkpt lat="30.876796244884304" lon="-4.961945423028231"><ele>725.0</ele><time>2026-03-23T11:23:48.001Z</time></trkpt><trkpt lat="30.876717777895898" lon="-4.961931827674984"><ele>725.0</ele><time>2026-03-23T11:23:49.001Z</time></trkpt><trkpt lat="30.87662832261442" lon="-4.961911040877642"><ele>725.0</ele><time>2026-03-23T11:23:50.001Z</time></trkpt><trkpt lat="30.876517839799792" lon="-4.961887745464641"><ele>725.0</ele><time>2026-03-23T11:23:51.001Z</time></trkpt><trkpt lat="30.87639351331222" lon="-4.961862133386943"><ele>725.0</ele><time>2026-03-23T11:23:52.002Z</time></trkpt><trkpt lat="30.87625031014454" lon="-4.961828233416153"><ele>725.0</ele><time>2026-03-23T11:23:53.002Z</time></trkpt><trkpt lat="30.87609790681598" lon="-4.96178620933594"><ele>725.0</ele><time>2026-03-23T11:23:54.002Z</time></trkpt><trkpt lat="30.87591882802513" lon="-4.961733130114568"><ele>725.0</ele><time>2026-03-23T11:23:55.002Z</time></trkpt><trkpt lat="30.875715904034276" lon="-4.961673893721678"><ele>724.0</ele><time>2026-03-23T11:23:56.002Z</time></trkpt><trkpt lat="30.875505326139464" lon="-4.961618475811985"><ele>723.0</ele><time>2026-03-23T11:23:57.002Z</time></trkpt><trkpt lat="30.875280475599933" lon="-4.961558101022932"><ele>722.0</ele><time>2026-03-23T11:23:58.002Z</time></trkpt><trkpt lat="30.875072981267234" lon="-4.961502517418781"><ele>722.0</ele><time>2026-03-23T11:23:59.002Z</time></trkpt><trkpt lat="30.87488180436574" lon="-4.961460875723098"><ele>722.0</ele><time>2026-03-23T11:24:00.002Z</time></trkpt><trkpt lat="30.87470237547751" lon="-4.961444339826"><ele>722.0</ele><time>2026-03-23T11:24:01.002Z</time></trkpt><trkpt lat="30.874536535417004" lon="-4.96141760150318"><ele>722.0</ele><time>2026-03-23T11:24:02.002Z</time></trkpt><trkpt lat="30.87438358544499" lon="-4.961358928912042"><ele>722.0</ele><time>2026-03-23T11:24:03.002Z</time></trkpt><trkpt lat="30.874248252537292" lon="-4.9613004250029915"><ele>722.0</ele><time>2026-03-23T11:24:04.002Z</time></trkpt><trkpt lat="30.874091727935262" lon="-4.9612619016458055"><ele>721.6666666666666</ele><time>2026-03-23T11:24:05.002Z</time></trkpt><trkpt lat="30.873897086475473" lon="-4.9612369562188805"><ele>721.3333333333334</ele><time>2026-03-23T11:24:06.002Z</time></trkpt><trkpt lat="30.873692657082522" lon="-4.961221629308069"><ele>721.0</ele><time>2026-03-23T11:24:07.002Z</time></trkpt><trkpt lat="30.87350219839313" lon="-4.961218039632977"><ele>721.6666666666667</ele><time>2026-03-23T11:24:08.002Z</time></trkpt><trkpt lat="30.873303046632696" lon="-4.961213781273863"><ele>722.3333333333334</ele><time>2026-03-23T11:24:09.002Z</time></trkpt><trkpt lat="30.873092754918954" lon="-4.961217468527023"><ele>723.0</ele><time>2026-03-23T11:24:10.002Z</time></trkpt><trkpt lat="30.872908409462656" lon="-4.961235730695319"><ele>723.0</ele><time>2026-03-23T11:24:11.002Z</time></trkpt><trkpt lat="30.872751800691123" lon="-4.961235723038535"><ele>723.0</ele><time>2026-03-23T11:24:12.002Z</time></trkpt><trkpt lat="30.872639090812218" lon="-4.961205771837474"><ele>723.0</ele><time>2026-03-23T11:24:13.002Z</time></trkpt><trkpt lat="30.872544959576093" lon="-4.961141940273065"><ele>723.0</ele><time>2026-03-23T11:24:14.002Z</time></trkpt><trkpt lat="30.872426051460184" lon="-4.9610583950857"><ele>723.3333333333334</ele><time>2026-03-23T11:24:15.002Z</time></trkpt><trkpt lat="30.87227014028732" lon="-4.9609596226297015"><ele>723.6666666666667</ele><time>2026-03-23T11:24:16.002Z</time></trkpt><trkpt lat="30.872108437799525" lon="-4.960865378553016"><ele>724.0</ele><time>2026-03-23T11:24:17.002Z</time></trkpt><trkpt lat="30.871938098154136" lon="-4.960769410342312"><ele>723.0</ele><time>2026-03-23T11:24:18.002Z</time></trkpt><trkpt lat="30.871759970239392" lon="-4.96065775950933"><ele>722.0</ele><time>2026-03-23T11:24:19.002Z</time></trkpt><trkpt lat="30.871599024144118" lon="-4.960541269109372"><ele>721.0</ele><time>2026-03-23T11:24:20.002Z</time></trkpt><trkpt lat="30.871420939701" lon="-4.9605047113773635"><ele>721.0</ele><time>2026-03-23T11:24:21.002Z</time></trkpt><trkpt lat="30.87120338487665" lon="-4.960452628924434"><ele>721.0</ele><time>2026-03-23T11:24:22.002Z</time></trkpt><trkpt lat="30.870986294826324" lon="-4.960392034122217"><ele>721.0</ele><time>2026-03-23T11:24:23.002Z</time></trkpt><trkpt lat="30.870789722612283" lon="-4.9603054206562955"><ele>721.3333333333334</ele><time>2026-03-23T11:24:24.002Z</time></trkpt><trkpt lat="30.870599633759536" lon="-4.960238236170697"><ele>721.6666666666666</ele><time>2026-03-23T11:24:25.002Z</time></trkpt><trkpt lat="30.870432775017793" lon="-4.960173891544548"><ele>722.0</ele><time>2026-03-23T11:24:26.002Z</time></trkpt><trkpt lat="30.870264140793488" lon="-4.960121619648102"><ele>722.0</ele><time>2026-03-23T11:24:27.002Z</time></trkpt><trkpt lat="30.870107610163892" lon="-4.96007805759645"><ele>722.0</ele><time>2026-03-23T11:24:28.002Z</time></trkpt><trkpt lat="30.869944660922535" lon="-4.960043564626746"><ele>722.0</ele><time>2026-03-23T11:24:29.002Z</time></trkpt><trkpt lat="30.869795797846205" lon="-4.960022002820733"><ele>722.0</ele><time>2026-03-23T11:24:30.002Z</time></trkpt><trkpt lat="30.869661075392276" lon="-4.960014283788327"><ele>722.0</ele><time>2026-03-23T11:24:31Z</time></trkpt><trkpt lat="30.86952654992979" lon="-4.960031484583048"><ele>722.0</ele><time>2026-03-23T11:24:32Z</time></trkpt><trkpt lat="30.869372392360802" lon="-4.960075678254388"><ele>722.0</ele><time>2026-03-23T11:24:33Z</time></trkpt><trkpt lat="30.869208280745895" lon="-4.960121846089964"><ele>721.6666666666666</ele><time>2026-03-23T11:24:34Z</time></trkpt><trkpt lat="30.86905118271802" lon="-4.960173103809815"><ele>721.3333333333334</ele><time>2026-03-23T11:24:35Z</time></trkpt><trkpt lat="30.86889251935807" lon="-4.96015381263933"><ele>721.0</ele><time>2026-03-23T11:24:36Z</time></trkpt><trkpt lat="30.868718537176477" lon="-4.96011575001529"><ele>721.0</ele><time>2026-03-23T11:24:37Z</time></trkpt><trkpt lat="30.868543008727222" lon="-4.960042926912716"><ele>721.0</ele><time>2026-03-23T11:24:38Z</time></trkpt><trkpt lat="30.868387713925937" lon="-4.960273414959942"><ele>721.0</ele><time>2026-03-23T11:24:39Z</time></trkpt><trkpt lat="30.86821128736426" lon="-4.960245556273586"><ele>720.6666666666667</ele><time>2026-03-23T11:24:40Z</time></trkpt><trkpt lat="30.86803319545441" lon="-4.960229565791716"><ele>720.3333333333334</ele><time>2026-03-23T11:24:41Z</time></trkpt><trkpt lat="30.867858860548576" lon="-4.960226893119188"><ele>720.0</ele><time>2026-03-23T11:24:42Z</time></trkpt><trkpt lat="30.867673749066952" lon="-4.96025030576548"><ele>720.0</ele><time>2026-03-23T11:24:43Z</time></trkpt><trkpt lat="30.86747575990706" lon="-4.960292414360188"><ele>720.0</ele><time>2026-03-23T11:24:44Z</time></trkpt><trkpt lat="30.867260772103954" lon="-4.960331296571908"><ele>720.0</ele><time>2026-03-23T11:24:45Z</time></trkpt><trkpt lat="30.867050331109123" lon="-4.960368867607868"><ele>720.0</ele><time>2026-03-23T11:24:46Z</time></trkpt><trkpt lat="30.866875844802916" lon="-4.960381420485715"><ele>720.0</ele><time>2026-03-23T11:24:47Z</time></trkpt><trkpt lat="30.866707954087705" lon="-4.960361686607214"><ele>720.0</ele><time>2026-03-23T11:24:48Z</time></trkpt><trkpt lat="30.866528422968273" lon="-4.960342040936363"><ele>719.6666666666666</ele><time>2026-03-23T11:24:49Z</time></trkpt><trkpt lat="30.866344048563803" lon="-4.9603415912265945"><ele>719.3333333333333</ele><time>2026-03-23T11:24:50Z</time></trkpt><trkpt lat="30.866159519352543" lon="-4.960341112949681"><ele>719.0</ele><time>2026-03-23T11:24:51Z</time></trkpt><trkpt lat="30.86598017184617" lon="-4.960335666019619"><ele>719.0</ele><time>2026-03-23T11:24:52Z</time></trkpt><trkpt lat="30.86581393152234" lon="-4.960345237029941"><ele>719.0</ele><time>2026-03-23T11:24:53Z</time></trkpt><trkpt lat="30.865662143995802" lon="-4.96036878745037"><ele>719.0</ele><time>2026-03-23T11:24:54Z</time></trkpt><trkpt lat="30.86550921552821" lon="-4.960396401575525"><ele>719.0</ele><time>2026-03-23T11:24:55Z</time></trkpt><trkpt lat="30.86535172962018" lon="-4.960437649805229"><ele>719.0</ele><time>2026-03-23T11:24:56Z</time></trkpt><trkpt lat="30.8651910038696" lon="-4.960482923299277"><ele>719.0</ele><time>2026-03-23T11:24:57Z</time></trkpt><trkpt lat="30.865043416941376" lon="-4.960531806107416"><ele>719.3333333333333</ele><time>2026-03-23T11:24:58Z</time></trkpt><trkpt lat="30.864900559097336" lon="-4.960592736309201"><ele>719.6666666666666</ele><time>2026-03-23T11:24:59Z</time></trkpt><trkpt lat="30.86475060777316" lon="-4.9606542523527795"><ele>720.0</ele><time>2026-03-23T11:25:00Z</time></trkpt><trkpt lat="30.864596432106985" lon="-4.960699337430093"><ele>720.0</ele><time>2026-03-23T11:25:01Z</time></trkpt><trkpt lat="30.864439541075743" lon="-4.960739344963697"><ele>720.0</ele><time>2026-03-23T11:25:02Z</time></trkpt><trkpt lat="30.86430590592682" lon="-4.960776196591637"><ele>720.0</ele><time>2026-03-23T11:25:03Z</time></trkpt><trkpt lat="30.864197416352667" lon="-4.960841474998516"><ele>720.0</ele><time>2026-03-23T11:25:04Z</time></trkpt><trkpt lat="30.864111245399002" lon="-4.960933884796483"><ele>720.0</ele><time>2026-03-23T11:25:05Z</time></trkpt><trkpt lat="30.864023552138725" lon="-4.961042936370797"><ele>720.0</ele><time>2026-03-23T11:25:06Z</time></trkpt><trkpt lat="30.863924832608024" lon="-4.961154863103045"><ele>720.0</ele><time>2026-03-23T11:25:07Z</time></trkpt><trkpt lat="30.863815715515496" lon="-4.961256473199052"><ele>720.0</ele><time>2026-03-23T11:25:08Z</time></trkpt><trkpt lat="30.863709329951426" lon="-4.961363084893861"><ele>720.0</ele><time>2026-03-23T11:25:09Z</time></trkpt><trkpt lat="30.863586414449564" lon="-4.961476308143138"><ele>720.0</ele><time>2026-03-23T11:25:10Z</time></trkpt><trkpt lat="30.863457851369944" lon="-4.961571762279442"><ele>720.0</ele><time>2026-03-23T11:25:11Z</time></trkpt><trkpt lat="30.863316211887188" lon="-4.961708687298465"><ele>720.6666666666666</ele><time>2026-03-23T11:25:12Z</time></trkpt><trkpt lat="30.86315739652831" lon="-4.961867362042824"><ele>721.3333333333333</ele><time>2026-03-23T11:25:13Z</time></trkpt><trkpt lat="30.863036645959298" lon="-4.9619983041086355"><ele>722.0</ele><time>2026-03-23T11:25:14Z</time></trkpt><trkpt lat="30.862906047183124" lon="-4.962128568763126"><ele>722.0</ele><time>2026-03-23T11:25:15Z</time></trkpt><trkpt lat="30.86274796978567" lon="-4.962286583937507"><ele>722.0</ele><time>2026-03-23T11:25:16Z</time></trkpt><trkpt lat="30.8625647571557" lon="-4.962436227898905"><ele>722.0</ele><time>2026-03-23T11:25:17Z</time></trkpt><trkpt lat="30.86237188464133" lon="-4.962574186741683"><ele>723.0</ele><time>2026-03-23T11:25:18Z</time></trkpt><trkpt lat="30.862216763474205" lon="-4.962683956086106"><ele>724.0</ele><time>2026-03-23T11:25:19.001Z</time></trkpt><trkpt lat="30.862061281992872" lon="-4.9627764705231465"><ele>725.0</ele><time>2026-03-23T11:25:20.001Z</time></trkpt><trkpt lat="30.861910495707164" lon="-4.962873284888344"><ele>724.75</ele><time>2026-03-23T11:25:21.001Z</time></trkpt><trkpt lat="30.861780351386052" lon="-4.962968846827822"><ele>724.5</ele><time>2026-03-23T11:25:22.001Z</time></trkpt><trkpt lat="30.861658059972225" lon="-4.963036389358403"><ele>724.25</ele><time>2026-03-23T11:25:23.001Z</time></trkpt><trkpt lat="30.861550972232283" lon="-4.963113759769769"><ele>724.0</ele><time>2026-03-23T11:25:24.001Z</time></trkpt><trkpt lat="30.86147291516651" lon="-4.963211507211704"><ele>724.0</ele><time>2026-03-23T11:25:25.001Z</time></trkpt><trkpt lat="30.861397137047376" lon="-4.9633256372205246"><ele>724.0</ele><time>2026-03-23T11:25:26.001Z</time></trkpt><trkpt lat="30.861295241306834" lon="-4.9634226830353105"><ele>724.0</ele><time>2026-03-23T11:25:27.001Z</time></trkpt><trkpt lat="30.86117722631212" lon="-4.9634992253384445"><ele>724.0</ele><time>2026-03-23T11:25:28.001Z</time></trkpt><trkpt lat="30.861073848870134" lon="-4.963579629163609"><ele>724.75</ele><time>2026-03-23T11:25:29.001Z</time></trkpt><trkpt lat="30.86097883029321" lon="-4.963693964861643"><ele>725.5</ele><time>2026-03-23T11:25:30.001Z</time></trkpt><trkpt lat="30.860892684367194" lon="-4.963816258976879"><ele>726.25</ele><time>2026-03-23T11:25:31.001Z</time></trkpt><trkpt lat="30.860803607664344" lon="-4.963939062564412"><ele>727.0</ele><time>2026-03-23T11:25:32.001Z</time></trkpt><trkpt lat="30.860697384560805" lon="-4.9640561881242515"><ele>727.0</ele><time>2026-03-23T11:25:33.001Z</time></trkpt><trkpt lat="30.86059726804427" lon="-4.964182035796139"><ele>727.0</ele><time>2026-03-23T11:25:34.001Z</time></trkpt><trkpt lat="30.860490708003056" lon="-4.964303003851076"><ele>727.0</ele><time>2026-03-23T11:25:35.001Z</time></trkpt><trkpt lat="30.860367977072556" lon="-4.96440767111165"><ele>727.0</ele><time>2026-03-23T11:25:36.001Z</time></trkpt><trkpt lat="30.860239789682325" lon="-4.964510708962828"><ele>727.75</ele><time>2026-03-23T11:25:37.001Z</time></trkpt><trkpt lat="30.8601536001322" lon="-4.964616843322832"><ele>728.5</ele><time>2026-03-23T11:25:38.001Z</time></trkpt><trkpt lat="30.860083516937014" lon="-4.964738178204819"><ele>729.25</ele><time>2026-03-23T11:25:39.001Z</time></trkpt><trkpt lat="30.860007165247655" lon="-4.964870671878844"><ele>730.0</ele><time>2026-03-23T11:25:40.001Z</time></trkpt><trkpt lat="30.859896234835972" lon="-4.9650050321813755"><ele>731.3333333333334</ele><time>2026-03-23T11:25:41.001Z</time></trkpt><trkpt lat="30.859785276838313" lon="-4.965144930361586"><ele>732.6666666666666</ele><time>2026-03-23T11:25:42.001Z</time></trkpt><trkpt lat="30.859676220935803" lon="-4.965282720067033"><ele>734.0</ele><time>2026-03-23T11:25:43.001Z</time></trkpt><trkpt lat="30.859577064955854" lon="-4.965407092277633"><ele>734.0</ele><time>2026-03-23T11:25:44.001Z</time></trkpt><trkpt lat="30.85950885027231" lon="-4.96551908788843"><ele>734.0</ele><time>2026-03-23T11:25:45.001Z</time></trkpt><trkpt lat="30.859459351454174" lon="-4.965648918838743"><ele>734.0</ele><time>2026-03-23T11:25:46.001Z</time></trkpt><trkpt lat="30.85940616600173" lon="-4.965788489183507"><ele>734.0</ele><time>2026-03-23T11:25:47.001Z</time></trkpt><trkpt lat="30.859336914613234" lon="-4.965921382426605"><ele>734.75</ele><time>2026-03-23T11:25:48.001Z</time></trkpt><trkpt lat="30.85924955648858" lon="-4.966057173816142"><ele>735.5</ele><time>2026-03-23T11:25:49.001Z</time></trkpt><trkpt lat="30.859157971487548" lon="-4.966177504269369"><ele>736.25</ele><time>2026-03-23T11:25:50.001Z</time></trkpt><trkpt lat="30.85906747564037" lon="-4.966280470775815"><ele>737.0</ele><time>2026-03-23T11:25:51.001Z</time></trkpt><trkpt lat="30.858992087274792" lon="-4.966396970804143"><ele>737.0</ele><time>2026-03-23T11:25:52.001Z</time></trkpt><trkpt lat="30.858929931090294" lon="-4.966526218289641"><ele>737.0</ele><time>2026-03-23T11:25:53.001Z</time></trkpt><trkpt lat="30.85886783181502" lon="-4.966669213781032"><ele>737.0</ele><time>2026-03-23T11:25:54.001Z</time></trkpt><trkpt lat="30.858791020500156" lon="-4.966777760278558"><ele>737.0</ele><time>2026-03-23T11:25:55.001Z</time></trkpt><trkpt lat="30.85869226758517" lon="-4.966883850241488"><ele>737.75</ele><time>2026-03-23T11:25:56.001Z</time></trkpt><trkpt lat="30.858602165827545" lon="-4.966999471763057"><ele>738.5</ele><time>2026-03-23T11:25:57.001Z</time></trkpt><trkpt lat="30.858531275877084" lon="-4.967147731051179"><ele>739.25</ele><time>2026-03-23T11:25:58.001Z</time></trkpt><trkpt lat="30.858474920955782" lon="-4.967282153152952"><ele>740.0</ele><time>2026-03-23T11:25:59.001Z</time></trkpt><trkpt lat="30.858404452279373" lon="-4.967416066814221"><ele>740.25</ele><time>2026-03-23T11:26:00.001Z</time></trkpt><trkpt lat="30.8583497994373" lon="-4.967543565468726"><ele>740.5</ele><time>2026-03-23T11:26:01.001Z</time></trkpt><trkpt lat="30.858303730969787" lon="-4.967693841082889"><ele>740.75</ele><time>2026-03-23T11:26:02.001Z</time></trkpt><trkpt lat="30.858249012402986" lon="-4.967846086202806"><ele>741.0</ele><time>2026-03-23T11:26:03.001Z</time></trkpt><trkpt lat="30.858191487101713" lon="-4.967989575042385"><ele>741.0</ele><time>2026-03-23T11:26:04.001Z</time></trkpt><trkpt lat="30.858122076801838" lon="-4.968123037735976"><ele>741.0</ele><time>2026-03-23T11:26:05.001Z</time></trkpt><trkpt lat="30.858035751739276" lon="-4.9682554165305"><ele>741.0</ele><time>2026-03-23T11:26:06.001Z</time></trkpt><trkpt lat="30.857950926774596" lon="-4.968388940388656"><ele>741.0</ele><time>2026-03-23T11:26:07.001Z</time></trkpt><trkpt lat="30.85787604927228" lon="-4.968509902742328"><ele>740.0</ele><time>2026-03-23T11:26:08.001Z</time></trkpt><trkpt lat="30.857802643323023" lon="-4.968636010685961"><ele>739.0</ele><time>2026-03-23T11:26:09.001Z</time></trkpt><trkpt lat="30.85773583687654" lon="-4.968767970605305"><ele>738.0</ele><time>2026-03-23T11:26:10.001Z</time></trkpt><trkpt lat="30.857670392872762" lon="-4.968891199469473"><ele>737.0</ele><time>2026-03-23T11:26:11.001Z</time></trkpt><trkpt lat="30.85761052703383" lon="-4.969000876290445"><ele>737.0</ele><time>2026-03-23T11:26:12.001Z</time></trkpt><trkpt lat="30.857554220789346" lon="-4.969097272615597"><ele>737.0</ele><time>2026-03-23T11:26:13.002Z</time></trkpt><trkpt lat="30.857489069397843" lon="-4.96919930337331"><ele>737.0</ele><time>2026-03-23T11:26:14.002Z</time></trkpt><trkpt lat="30.857429273546856" lon="-4.96930978831125"><ele>737.0</ele><time>2026-03-23T11:26:15.002Z</time></trkpt><trkpt lat="30.85737518511852" lon="-4.969429195843276"><ele>737.0</ele><time>2026-03-23T11:26:16.002Z</time></trkpt><trkpt lat="30.85732542602557" lon="-4.9695696363444934"><ele>736.25</ele><time>2026-03-23T11:26:17.002Z</time></trkpt><trkpt lat="30.85727874097731" lon="-4.969699186588437"><ele>735.5</ele><time>2026-03-23T11:26:18.002Z</time></trkpt><trkpt lat="30.857222593989462" lon="-4.969812438696921"><ele>734.75</ele><time>2026-03-23T11:26:19.002Z</time></trkpt><trkpt lat="30.857144324267555" lon="-4.969921940366549"><ele>734.0</ele><time>2026-03-23T11:26:20.002Z</time></trkpt><trkpt lat="30.857045185227975" lon="-4.970034473388564"><ele>733.0</ele><time>2026-03-23T11:26:21.002Z</time></trkpt><trkpt lat="30.85693945639355" lon="-4.970154097060995"><ele>732.0</ele><time>2026-03-23T11:26:22.002Z</time></trkpt><trkpt lat="30.85683669911619" lon="-4.970287141829963"><ele>731.0</ele><time>2026-03-23T11:26:23.002Z</time></trkpt><trkpt lat="30.85673348408472" lon="-4.970425669300712"><ele>731.0</ele><time>2026-03-23T11:26:24.002Z</time></trkpt><trkpt lat="30.85663255209166" lon="-4.970569404237592"><ele>731.0</ele><time>2026-03-23T11:26:25.002Z</time></trkpt><trkpt lat="30.856546800286107" lon="-4.970695082641759"><ele>731.0</ele><time>2026-03-23T11:26:26.002Z</time></trkpt><trkpt lat="30.856467181407194" lon="-4.970800914682614"><ele>731.0</ele><time>2026-03-23T11:26:27.002Z</time></trkpt><trkpt lat="30.856394873853542" lon="-4.970896580990572"><ele>730.1999999999999</ele><time>2026-03-23T11:26:28.002Z</time></trkpt><trkpt lat="30.85634518146928" lon="-4.970989841909529"><ele>729.4</ele><time>2026-03-23T11:26:29.002Z</time></trkpt><trkpt lat="30.85630425842253" lon="-4.971110039016259"><ele>728.6</ele><time>2026-03-23T11:26:30.002Z</time></trkpt><trkpt lat="30.8562697756089" lon="-4.971238032757119"><ele>727.8</ele><time>2026-03-23T11:26:31.002Z</time></trkpt><trkpt lat="30.856234110538786" lon="-4.971329191675185"><ele>727.0</ele><time>2026-03-23T11:26:32.002Z</time></trkpt><trkpt lat="30.85617517555266" lon="-4.971422549132018"><ele>727.0</ele><time>2026-03-23T11:26:33.002Z</time></trkpt><trkpt lat="30.856107312786495" lon="-4.971534690654708"><ele>727.0</ele><time>2026-03-23T11:26:34.002Z</time></trkpt><trkpt lat="30.85601194274858" lon="-4.9716527359655505"><ele>727.0</ele><time>2026-03-23T11:26:35.002Z</time></trkpt><trkpt lat="30.855918907431917" lon="-4.971782187516379"><ele>727.0</ele><time>2026-03-23T11:26:36.002Z</time></trkpt><trkpt lat="30.85583416950467" lon="-4.971943247166476"><ele>726.6666666666667</ele><time>2026-03-23T11:26:37Z</time></trkpt><trkpt lat="30.855749270335703" lon="-4.972138039826618"><ele>726.3333333333334</ele><time>2026-03-23T11:26:38Z</time></trkpt><trkpt lat="30.85566639023698" lon="-4.972351813879651"><ele>726.0</ele><time>2026-03-23T11:26:39Z</time></trkpt><trkpt lat="30.855580703341367" lon="-4.972541044354025"><ele>725.75</ele><time>2026-03-23T11:26:40Z</time></trkpt><trkpt lat="30.85550461653528" lon="-4.972689355194721"><ele>725.5</ele><time>2026-03-23T11:26:41Z</time></trkpt><trkpt lat="30.855429575350268" lon="-4.972801908914793"><ele>725.25</ele><time>2026-03-23T11:26:42Z</time></trkpt><trkpt lat="30.85534342447426" lon="-4.972906591723889"><ele>725.0</ele><time>2026-03-23T11:26:43Z</time></trkpt><trkpt lat="30.855245235673433" lon="-4.97301886448963"><ele>725.0</ele><time>2026-03-23T11:26:44Z</time></trkpt><trkpt lat="30.85513822375636" lon="-4.973139143382226"><ele>725.0</ele><time>2026-03-23T11:26:45Z</time></trkpt><trkpt lat="30.8550290628783" lon="-4.973268927694563"><ele>725.0</ele><time>2026-03-23T11:26:46Z</time></trkpt><trkpt lat="30.854921790057798" lon="-4.97338691576622"><ele>724.5</ele><time>2026-03-23T11:26:47Z</time></trkpt><trkpt lat="30.854798745118405" lon="-4.97350517615922"><ele>724.0</ele><time>2026-03-23T11:26:48Z</time></trkpt><trkpt lat="30.854685103587595" lon="-4.973616766359173"><ele>723.5</ele><time>2026-03-23T11:26:49Z</time></trkpt><trkpt lat="30.8545744138865" lon="-4.973714666808254"><ele>723.0</ele><time>2026-03-23T11:26:50Z</time></trkpt><trkpt lat="30.854456398300844" lon="-4.973821591147335"><ele>723.0</ele><time>2026-03-23T11:26:51Z</time></trkpt><trkpt lat="30.854337263667965" lon="-4.973930789345638"><ele>723.0</ele><time>2026-03-23T11:26:52Z</time></trkpt><trkpt lat="30.85421898635949" lon="-4.974035815841891"><ele>723.0</ele><time>2026-03-23T11:26:53Z</time></trkpt><trkpt lat="30.85408945139546" lon="-4.974117206061684"><ele>723.0</ele><time>2026-03-23T11:26:54Z</time></trkpt><trkpt lat="30.853957766160985" lon="-4.974183875631946"><ele>723.0</ele><time>2026-03-23T11:26:55Z</time></trkpt><trkpt lat="30.85381565770456" lon="-4.9742421165311725"><ele>723.0</ele><time>2026-03-23T11:26:56Z</time></trkpt><trkpt lat="30.853666732886207" lon="-4.974277367977657"><ele>723.0</ele><time>2026-03-23T11:26:57Z</time></trkpt><trkpt lat="30.853518295478008" lon="-4.974286051976001"><ele>722.75</ele><time>2026-03-23T11:26:58Z</time></trkpt><trkpt lat="30.853377004954652" lon="-4.974277932793734"><ele>722.5</ele><time>2026-03-23T11:26:59Z</time></trkpt><trkpt lat="30.853236610398657" lon="-4.974263405608246"><ele>722.25</ele><time>2026-03-23T11:27:00Z</time></trkpt><trkpt lat="30.853099827952036" lon="-4.974244422776167"><ele>722.0</ele><time>2026-03-23T11:27:01Z</time></trkpt><trkpt lat="30.852959820102676" lon="-4.974227017751354"><ele>722.0</ele><time>2026-03-23T11:27:02Z</time></trkpt><trkpt lat="30.85281783663306" lon="-4.974233245039381"><ele>722.0</ele><time>2026-03-23T11:27:03Z</time></trkpt><trkpt lat="30.85267728048784" lon="-4.9742536946983655"><ele>722.0</ele><time>2026-03-23T11:27:04Z</time></trkpt><trkpt lat="30.852537889480274" lon="-4.974302006162604"><ele>722.0</ele><time>2026-03-23T11:27:05Z</time></trkpt><trkpt lat="30.852403412763113" lon="-4.974363763796427"><ele>722.0</ele><time>2026-03-23T11:27:06Z</time></trkpt><trkpt lat="30.85226822011866" lon="-4.9744214261259385"><ele>722.0</ele><time>2026-03-23T11:27:07Z</time></trkpt><trkpt lat="30.852121878698984" lon="-4.974477110255217"><ele>722.0</ele><time>2026-03-23T11:27:08Z</time></trkpt><trkpt lat="30.851979175698492" lon="-4.97453307637217"><ele>722.0</ele><time>2026-03-23T11:27:09Z</time></trkpt><trkpt lat="30.85184111335823" lon="-4.974598659879526"><ele>722.0</ele><time>2026-03-23T11:27:10Z</time></trkpt><trkpt lat="30.851706585677356" lon="-4.974677281020501"><ele>722.0</ele><time>2026-03-23T11:27:11Z</time></trkpt><trkpt lat="30.851568709392353" lon="-4.974765273901189"><ele>722.0</ele><time>2026-03-23T11:27:12Z</time></trkpt><trkpt lat="30.851428430241533" lon="-4.97484534916581"><ele>722.0</ele><time>2026-03-23T11:27:13Z</time></trkpt><trkpt lat="30.851282205442924" lon="-4.974927725776089"><ele>722.0</ele><time>2026-03-23T11:27:14Z</time></trkpt><trkpt lat="30.851141930772805" lon="-4.975011393195819"><ele>722.0</ele><time>2026-03-23T11:27:15Z</time></trkpt><trkpt lat="30.85100697130679" lon="-4.975097104668226"><ele>721.75</ele><time>2026-03-23T11:27:16Z</time></trkpt><trkpt lat="30.85089389599098" lon="-4.975151611558673"><ele>721.5</ele><time>2026-03-23T11:27:17Z</time></trkpt><trkpt lat="30.850767232099084" lon="-4.975186038301692"><ele>721.25</ele><time>2026-03-23T11:27:18Z</time></trkpt><trkpt lat="30.8506232151939" lon="-4.97520488546119"><ele>721.0</ele><time>2026-03-23T11:27:19Z</time></trkpt><trkpt lat="30.85048636446459" lon="-4.9752149852262475"><ele>721.0</ele><time>2026-03-23T11:27:20Z</time></trkpt><trkpt lat="30.850357808214312" lon="-4.975240667291381"><ele>721.0</ele><time>2026-03-23T11:27:21Z</time></trkpt><trkpt lat="30.85022562090325" lon="-4.975273269536721"><ele>721.0</ele><time>2026-03-23T11:27:22Z</time></trkpt><trkpt lat="30.850091403318068" lon="-4.975334934819832"><ele>721.0</ele><time>2026-03-23T11:27:23Z</time></trkpt><trkpt lat="30.84995401505002" lon="-4.9754004365673525"><ele>721.25</ele><time>2026-03-23T11:27:24Z</time></trkpt><trkpt lat="30.849827735969633" lon="-4.9754560698447445"><ele>721.5</ele><time>2026-03-23T11:27:25Z</time></trkpt><trkpt lat="30.849702202380318" lon="-4.97550932088126"><ele>721.75</ele><time>2026-03-23T11:27:26.001Z</time></trkpt><trkpt lat="30.849566627350114" lon="-4.975561388163457"><ele>722.0</ele><time>2026-03-23T11:27:27.001Z</time></trkpt><trkpt lat="30.849428511354283" lon="-4.975624851377536"><ele>722.0</ele><time>2026-03-23T11:27:28.001Z</time></trkpt><trkpt lat="30.84930963275466" lon="-4.9756999281488445"><ele>722.0</ele><time>2026-03-23T11:27:29.001Z</time></trkpt><trkpt lat="30.84919436118181" lon="-4.975780388209803"><ele>722.0</ele><time>2026-03-23T11:27:30.001Z</time></trkpt><trkpt lat="30.84907334065549" lon="-4.97587002050043"><ele>722.0</ele><time>2026-03-23T11:27:31.001Z</time></trkpt><trkpt lat="30.84894871821459" lon="-4.975950755401692"><ele>720.6666666666666</ele><time>2026-03-23T11:27:32.001Z</time></trkpt><trkpt lat="30.848814083076732" lon="-4.976015149773017"><ele>719.3333333333334</ele><time>2026-03-23T11:27:33.001Z</time></trkpt><trkpt lat="30.848648906261857" lon="-4.9760862048065775"><ele>718.0</ele><time>2026-03-23T11:27:34.001Z</time></trkpt><trkpt lat="30.8484973606802" lon="-4.9761400202131005"><ele>718.3333333333334</ele><time>2026-03-23T11:27:35.001Z</time></trkpt><trkpt lat="30.848324761236576" lon="-4.976209125153155"><ele>718.6666666666666</ele><time>2026-03-23T11:27:36.001Z</time></trkpt><trkpt lat="30.848167216737462" lon="-4.97630267092539"><ele>719.0</ele><time>2026-03-23T11:27:37.001Z</time></trkpt><trkpt lat="30.84800783407858" lon="-4.976434548863791"><ele>719.0</ele><time>2026-03-23T11:27:38.001Z</time></trkpt><trkpt lat="30.847843233073117" lon="-4.976585238586515"><ele>719.0</ele><time>2026-03-23T11:27:39.001Z</time></trkpt><trkpt lat="30.847668845063435" lon="-4.97675398023197"><ele>719.0</ele><time>2026-03-23T11:27:40.001Z</time></trkpt><trkpt lat="30.847499488541825" lon="-4.976932251863193"><ele>717.6666666666666</ele><time>2026-03-23T11:27:41.001Z</time></trkpt><trkpt lat="30.84734301770233" lon="-4.977097830272201"><ele>716.3333333333334</ele><time>2026-03-23T11:27:42.001Z</time></trkpt><trkpt lat="30.847187330266017" lon="-4.977215852530879"><ele>715.0</ele><time>2026-03-23T11:27:43.001Z</time></trkpt><trkpt lat="30.847046888147027" lon="-4.977309033530929"><ele>715.0</ele><time>2026-03-23T11:27:44.001Z</time></trkpt><trkpt lat="30.846930423131383" lon="-4.977388046976939"><ele>715.0</ele><time>2026-03-23T11:27:45.001Z</time></trkpt><trkpt lat="30.84681062294894" lon="-4.9774356860430276"><ele>715.0</ele><time>2026-03-23T11:27:46.001Z</time></trkpt><trkpt lat="30.846674884588836" lon="-4.977461062582552"><ele>715.0</ele><time>2026-03-23T11:27:47.001Z</time></trkpt><trkpt lat="30.846515841712908" lon="-4.977486913765125"><ele>715.6666666666667</ele><time>2026-03-23T11:27:48.001Z</time></trkpt><trkpt lat="30.846366408843057" lon="-4.977487924955878"><ele>716.3333333333334</ele><time>2026-03-23T11:27:49.001Z</time></trkpt><trkpt lat="30.846197646950383" lon="-4.9774889383155685"><ele>717.0</ele><time>2026-03-23T11:27:50.001Z</time></trkpt><trkpt lat="30.846029401428908" lon="-4.977497556915631"><ele>716.0</ele><time>2026-03-23T11:27:51.001Z</time></trkpt><trkpt lat="30.845880944436974" lon="-4.977521268102854"><ele>715.0</ele><time>2026-03-23T11:27:52.001Z</time></trkpt><trkpt lat="30.845720567357656" lon="-4.977576507676817"><ele>714.0</ele><time>2026-03-23T11:27:53.001Z</time></trkpt><trkpt lat="30.84555182753585" lon="-4.977653094882511"><ele>714.0</ele><time>2026-03-23T11:27:54.001Z</time></trkpt><trkpt lat="30.84540079679908" lon="-4.977710514418868"><ele>714.0</ele><time>2026-03-23T11:27:55.001Z</time></trkpt><trkpt lat="30.845253918071343" lon="-4.977747283231456"><ele>714.0</ele><time>2026-03-23T11:27:56.001Z</time></trkpt><trkpt lat="30.845103794239538" lon="-4.977762364243984"><ele>714.3333333333334</ele><time>2026-03-23T11:27:57.001Z</time></trkpt><trkpt lat="30.844922806955264" lon="-4.977765547071233"><ele>714.6666666666667</ele><time>2026-03-23T11:27:58.001Z</time></trkpt><trkpt lat="30.84472893185089" lon="-4.977744264140163"><ele>715.0</ele><time>2026-03-23T11:27:59.001Z</time></trkpt><trkpt lat="30.844567258554545" lon="-4.9777154760195605"><ele>715.0</ele><time>2026-03-23T11:28:00.001Z</time></trkpt><trkpt lat="30.844429080172233" lon="-4.977699206114319"><ele>715.0</ele><time>2026-03-23T11:28:01.001Z</time></trkpt><trkpt lat="30.844275309399073" lon="-4.977680587017228"><ele>715.0</ele><time>2026-03-23T11:28:02.001Z</time></trkpt><trkpt lat="30.844117718439673" lon="-4.977654218536905"><ele>714.6666666666667</ele><time>2026-03-23T11:28:03.001Z</time></trkpt><trkpt lat="30.843948246333383" lon="-4.977643840747448"><ele>714.3333333333334</ele><time>2026-03-23T11:28:04.001Z</time></trkpt><trkpt lat="30.843802446801522" lon="-4.977643726059257"><ele>714.0</ele><time>2026-03-23T11:28:05.001Z</time></trkpt><trkpt lat="30.843667142675013" lon="-4.977660251234416"><ele>714.0</ele><time>2026-03-23T11:28:06.001Z</time></trkpt><trkpt lat="30.843540070169958" lon="-4.977670848952541"><ele>714.0</ele><time>2026-03-23T11:28:07.001Z</time></trkpt><trkpt lat="30.84341021233296" lon="-4.9776874594387515"><ele>714.0</ele><time>2026-03-23T11:28:08.001Z</time></trkpt><trkpt lat="30.84328948923769" lon="-4.977705665969382"><ele>714.0</ele><time>2026-03-23T11:28:09.001Z</time></trkpt><trkpt lat="30.843174257778255" lon="-4.977738151219556"><ele>714.5</ele><time>2026-03-23T11:28:10.001Z</time></trkpt><trkpt lat="30.84307578161749" lon="-4.977791592974216"><ele>715.0</ele><time>2026-03-23T11:28:11.001Z</time></trkpt><trkpt lat="30.842983163320003" lon="-4.977868129291306"><ele>715.5</ele><time>2026-03-23T11:28:12.001Z</time></trkpt><trkpt lat="30.84288881013648" lon="-4.977965931982166"><ele>716.0</ele><time>2026-03-23T11:28:13.001Z</time></trkpt><trkpt lat="30.842778439609965" lon="-4.978094732390411"><ele>716.0</ele><time>2026-03-23T11:28:14.001Z</time></trkpt><trkpt lat="30.84266581714815" lon="-4.978209752778376"><ele>716.0</ele><time>2026-03-23T11:28:15.001Z</time></trkpt><trkpt lat="30.84255144485802" lon="-4.978267392689273"><ele>716.0</ele><time>2026-03-23T11:28:16.001Z</time></trkpt><trkpt lat="30.84243689856802" lon="-4.978297202316445"><ele>716.0</ele><time>2026-03-23T11:28:17.002Z</time></trkpt><trkpt lat="30.84230491062287" lon="-4.97831087886714"><ele>716.0</ele><time>2026-03-23T11:28:18.002Z</time></trkpt><trkpt lat="30.84215179637505" lon="-4.978321667885627"><ele>716.0</ele><time>2026-03-23T11:28:19.002Z</time></trkpt><trkpt lat="30.84201096259315" lon="-4.978374241300343"><ele>716.0</ele><time>2026-03-23T11:28:20.002Z</time></trkpt><trkpt lat="30.841874707830613" lon="-4.978444497571971"><ele>716.0</ele><time>2026-03-23T11:28:21.002Z</time></trkpt><trkpt lat="30.841742804137848" lon="-4.978509884234167"><ele>716.0</ele><time>2026-03-23T11:28:22.002Z</time></trkpt><trkpt lat="30.841611868310327" lon="-4.978577099915378"><ele>716.0</ele><time>2026-03-23T11:28:23.002Z</time></trkpt><trkpt lat="30.841476029119637" lon="-4.978659456599925"><ele>716.0</ele><time>2026-03-23T11:28:24.002Z</time></trkpt><trkpt lat="30.8413440175966" lon="-4.978731158748863"><ele>716.0</ele><time>2026-03-23T11:28:25.002Z</time></trkpt><trkpt lat="30.841200408258622" lon="-4.9788037073647065"><ele>716.0</ele><time>2026-03-23T11:28:26.002Z</time></trkpt><trkpt lat="30.841061223435595" lon="-4.978872201799208"><ele>716.0</ele><time>2026-03-23T11:28:27.002Z</time></trkpt><trkpt lat="30.84090168768986" lon="-4.978942543170348"><ele>715.3333333333333</ele><time>2026-03-23T11:28:28.002Z</time></trkpt><trkpt lat="30.840748773464668" lon="-4.979014478818546"><ele>714.6666666666666</ele><time>2026-03-23T11:28:29.002Z</time></trkpt><trkpt lat="30.840589196103767" lon="-4.979082873761322"><ele>714.0</ele><time>2026-03-23T11:28:30.002Z</time></trkpt><trkpt lat="30.840413216706953" lon="-4.979140654385875"><ele>714.0</ele><time>2026-03-23T11:28:31.002Z</time></trkpt><trkpt lat="30.840206903347543" lon="-4.979204992427676"><ele>714.0</ele><time>2026-03-23T11:28:32.002Z</time></trkpt><trkpt lat="30.84002005136597" lon="-4.979254682730099"><ele>714.0</ele><time>2026-03-23T11:28:33.002Z</time></trkpt><trkpt lat="30.83985578682395" lon="-4.979295176842376"><ele>714.0</ele><time>2026-03-23T11:28:34.002Z</time></trkpt><trkpt lat="30.83968307666537" lon="-4.979331711393773"><ele>714.0</ele><time>2026-03-23T11:28:35.002Z</time></trkpt><trkpt lat="30.839504095991806" lon="-4.979353697371436"><ele>714.0</ele><time>2026-03-23T11:28:36.002Z</time></trkpt><trkpt lat="30.8393145412605" lon="-4.9793407699777585"><ele>713.6666666666666</ele><time>2026-03-23T11:28:37.002Z</time></trkpt><trkpt lat="30.839139841686624" lon="-4.979326982259654"><ele>713.3333333333333</ele><time>2026-03-23T11:28:38.002Z</time></trkpt><trkpt lat="30.83896192464137" lon="-4.979316219555027"><ele>713.0</ele><time>2026-03-23T11:28:39.002Z</time></trkpt><trkpt lat="30.838788797202767" lon="-4.979300494700295"><ele>713.0</ele><time>2026-03-23T11:28:40.002Z</time></trkpt><trkpt lat="30.83862081547214" lon="-4.979274164771811"><ele>713.0</ele><time>2026-03-23T11:28:41.002Z</time></trkpt><trkpt lat="30.838478161886037" lon="-4.9792359372159245"><ele>713.0</ele><time>2026-03-23T11:28:42.002Z</time></trkpt><trkpt lat="30.838332830149692" lon="-4.979218689978954"><ele>713.0</ele><time>2026-03-23T11:28:43Z</time></trkpt><trkpt lat="30.838182761817333" lon="-4.97922349440811"><ele>713.0</ele><time>2026-03-23T11:28:44Z</time></trkpt><trkpt lat="30.83804717567955" lon="-4.97924016844383"><ele>713.0</ele><time>2026-03-23T11:28:45Z</time></trkpt><trkpt lat="30.837942262462292" lon="-4.979242623954098"><ele>713.0</ele><time>2026-03-23T11:28:46Z</time></trkpt><trkpt lat="30.83784587758659" lon="-4.979227430552136"><ele>713.0</ele><time>2026-03-23T11:28:47Z</time></trkpt><trkpt lat="30.83778125843842" lon="-4.979200957389537"><ele>713.0</ele><time>2026-03-23T11:28:48Z</time></trkpt><trkpt lat="30.83771876443743" lon="-4.979153520313164"><ele>713.0</ele><time>2026-03-23T11:28:49Z</time></trkpt><trkpt lat="30.837632441379423" lon="-4.979073653254859"><ele>713.0</ele><time>2026-03-23T11:28:50Z</time></trkpt><trkpt lat="30.83753130796036" lon="-4.97900458187672"><ele>713.0</ele><time>2026-03-23T11:28:51Z</time></trkpt><trkpt lat="30.8374084569255" lon="-4.9789578138357005"><ele>713.3333333333333</ele><time>2026-03-23T11:28:52Z</time></trkpt><trkpt lat="30.837274912496042" lon="-4.978892094202909"><ele>713.6666666666666</ele><time>2026-03-23T11:28:53Z</time></trkpt><trkpt lat="30.837141154616617" lon="-4.978801118716244"><ele>714.0</ele><time>2026-03-23T11:28:54Z</time></trkpt><trkpt lat="30.837000995173916" lon="-4.978720528270313"><ele>714.0</ele><time>2026-03-23T11:28:55Z</time></trkpt><trkpt lat="30.836875002319488" lon="-4.978649278696402"><ele>714.0</ele><time>2026-03-23T11:28:56Z</time></trkpt><trkpt lat="30.836763064489062" lon="-4.978584956174741"><ele>714.0</ele><time>2026-03-23T11:28:57Z</time></trkpt><trkpt lat="30.83664519582649" lon="-4.978512390842924"><ele>714.0</ele><time>2026-03-23T11:28:58Z</time></trkpt><trkpt lat="30.836520329566515" lon="-4.978445057486746"><ele>714.25</ele><time>2026-03-23T11:28:59Z</time></trkpt><trkpt lat="30.83639678042402" lon="-4.978386191584153"><ele>714.5</ele><time>2026-03-23T11:29:00Z</time></trkpt><trkpt lat="30.83627312240105" lon="-4.9783258520473"><ele>714.75</ele><time>2026-03-23T11:29:01Z</time></trkpt><trkpt lat="30.83614985722533" lon="-4.978260619582863"><ele>715.0</ele><time>2026-03-23T11:29:02Z</time></trkpt><trkpt lat="30.83601870971451" lon="-4.978181436851927"><ele>714.6666666666667</ele><time>2026-03-23T11:29:03Z</time></trkpt><trkpt lat="30.83589129662983" lon="-4.978094328828514"><ele>714.3333333333334</ele><time>2026-03-23T11:29:04Z</time></trkpt><trkpt lat="30.835760401504945" lon="-4.97800031633069"><ele>714.0</ele><time>2026-03-23T11:29:05Z</time></trkpt><trkpt lat="30.835630497419057" lon="-4.977913622349624"><ele>714.0</ele><time>2026-03-23T11:29:06Z</time></trkpt><trkpt lat="30.83549893849641" lon="-4.977827992846686"><ele>714.0</ele><time>2026-03-23T11:29:07Z</time></trkpt><trkpt lat="30.835372433188716" lon="-4.977732619733736"><ele>714.0</ele><time>2026-03-23T11:29:08Z</time></trkpt><trkpt lat="30.835248945326693" lon="-4.977624500284789"><ele>714.0</ele><time>2026-03-23T11:29:09Z</time></trkpt><trkpt lat="30.83512022630966" lon="-4.977496849652141"><ele>714.0</ele><time>2026-03-23T11:29:10Z</time></trkpt><trkpt lat="30.834995384408426" lon="-4.977389957276114"><ele>714.0</ele><time>2026-03-23T11:29:11Z</time></trkpt><trkpt lat="30.83487938690283" lon="-4.977295539902476"><ele>714.0</ele><time>2026-03-23T11:29:12Z</time></trkpt><trkpt lat="30.83477020263841" lon="-4.97721305082512"><ele>714.0</ele><time>2026-03-23T11:29:13.001Z</time></trkpt><trkpt lat="30.834618492466063" lon="-4.977144462298935"><ele>714.0</ele><time>2026-03-23T11:29:14.001Z</time></trkpt><trkpt lat="30.834429618778508" lon="-4.9771449620729715"><ele>713.3333333333334</ele><time>2026-03-23T11:29:15.001Z</time></trkpt><trkpt lat="30.834245632755128" lon="-4.977155214922333"><ele>712.6666666666667</ele><time>2026-03-23T11:29:16.001Z</time></trkpt><trkpt lat="30.83423262006597" lon="-4.976889004675748"><ele>712.0</ele><time>2026-03-23T11:29:17.001Z</time></trkpt><trkpt lat="30.834122371536314" lon="-4.976777811704416"><ele>712.0</ele><time>2026-03-23T11:29:18.001Z</time></trkpt><trkpt lat="30.83400311544531" lon="-4.9766890703447775"><ele>712.0</ele><time>2026-03-23T11:29:19.001Z</time></trkpt><trkpt lat="30.833861567040284" lon="-4.976627817741027"><ele>712.0</ele><time>2026-03-23T11:29:20.001Z</time></trkpt><trkpt lat="30.833704948125874" lon="-4.976574281273438"><ele>712.0</ele><time>2026-03-23T11:29:21.001Z</time></trkpt><trkpt lat="30.83353612166372" lon="-4.976507680248817"><ele>712.0</ele><time>2026-03-23T11:29:22.001Z</time></trkpt><trkpt lat="30.833384657467406" lon="-4.976420794925699"><ele>712.0</ele><time>2026-03-23T11:29:23.001Z</time></trkpt><trkpt lat="30.833239229221512" lon="-4.976330641499156"><ele>712.0</ele><time>2026-03-23T11:29:24.001Z</time></trkpt><trkpt lat="30.833100358413606" lon="-4.976249269182638"><ele>712.0</ele><time>2026-03-23T11:29:25.001Z</time></trkpt><trkpt lat="30.83295560928079" lon="-4.9761779811531035"><ele>712.0</ele><time>2026-03-23T11:29:26.001Z</time></trkpt><trkpt lat="30.832803435692195" lon="-4.976109404701431"><ele>712.0</ele><time>2026-03-23T11:29:27.001Z</time></trkpt><trkpt lat="30.83263493668595" lon="-4.97605566696985"><ele>712.0</ele><time>2026-03-23T11:29:28.001Z</time></trkpt><trkpt lat="30.832445254003552" lon="-4.9760132597190365"><ele>712.0</ele><time>2026-03-23T11:29:29.001Z</time></trkpt><trkpt lat="30.832228598232504" lon="-4.975968212533722"><ele>712.0</ele><time>2026-03-23T11:29:30.001Z</time></trkpt><trkpt lat="30.832003679543757" lon="-4.975908246821014"><ele>712.0</ele><time>2026-03-23T11:29:31.001Z</time></trkpt><trkpt lat="30.831815226797733" lon="-4.9758418473672545"><ele>712.0</ele><time>2026-03-23T11:29:32.001Z</time></trkpt><trkpt lat="30.831638048329104" lon="-4.975765357555029"><ele>712.0</ele><time>2026-03-23T11:29:33.001Z</time></trkpt><trkpt lat="30.831444989860575" lon="-4.975678787537265"><ele>712.0</ele><time>2026-03-23T11:29:34.001Z</time></trkpt><trkpt lat="30.831262514131602" lon="-4.9755967598050255"><ele>712.0</ele><time>2026-03-23T11:29:35.001Z</time></trkpt><trkpt lat="30.83110562363828" lon="-4.975534480795502"><ele>711.6666666666667</ele><time>2026-03-23T11:29:36.001Z</time></trkpt><trkpt lat="30.830965346022907" lon="-4.975488528470516"><ele>711.3333333333334</ele><time>2026-03-23T11:29:37.001Z</time></trkpt><trkpt lat="30.83080944494218" lon="-4.975443204952582"><ele>711.0</ele><time>2026-03-23T11:29:38.001Z</time></trkpt><trkpt lat="30.830655534295875" lon="-4.975395032923011"><ele>711.0</ele><time>2026-03-23T11:29:39.001Z</time></trkpt><trkpt lat="30.83050108873724" lon="-4.975338666540054"><ele>711.0</ele><time>2026-03-23T11:29:40.001Z</time></trkpt><trkpt lat="30.8303477579222" lon="-4.975273035071399"><ele>711.0</ele><time>2026-03-23T11:29:41.001Z</time></trkpt><trkpt lat="30.830193189279807" lon="-4.975203126007639"><ele>710.6666666666666</ele><time>2026-03-23T11:29:42.001Z</time></trkpt><trkpt lat="30.830041798255664" lon="-4.975130550273291"><ele>710.3333333333333</ele><time>2026-03-23T11:29:43.001Z</time></trkpt><trkpt lat="30.82988836150523" lon="-4.975054368775176"><ele>710.0</ele><time>2026-03-23T11:29:44.001Z</time></trkpt><trkpt lat="30.82973333884796" lon="-4.974981956543204"><ele>710.0</ele><time>2026-03-23T11:29:45.001Z</time></trkpt><trkpt lat="30.829584079248487" lon="-4.974896229738677"><ele>710.0</ele><time>2026-03-23T11:29:46.001Z</time></trkpt><trkpt lat="30.829440698658175" lon="-4.974799402515123"><ele>710.0</ele><time>2026-03-23T11:29:47.001Z</time></trkpt><trkpt lat="30.82929724105164" lon="-4.974693781172634"><ele>710.0</ele><time>2026-03-23T11:29:48.001Z</time></trkpt><trkpt lat="30.82914529510373" lon="-4.974571882747393"><ele>710.0</ele><time>2026-03-23T11:29:49.001Z</time></trkpt><trkpt lat="30.82896618328516" lon="-4.974428219607179"><ele>710.0</ele><time>2026-03-23T11:29:50.001Z</time></trkpt><trkpt lat="30.82877269785694" lon="-4.974282555766743"><ele>710.0</ele><time>2026-03-23T11:29:51.001Z</time></trkpt><trkpt lat="30.82860390331961" lon="-4.974153909405857"><ele>710.0</ele><time>2026-03-23T11:29:52.001Z</time></trkpt><trkpt lat="30.82846191228496" lon="-4.97403016488132"><ele>710.0</ele><time>2026-03-23T11:29:53.001Z</time></trkpt><trkpt lat="30.828353275591276" lon="-4.973915126016055"><ele>710.0</ele><time>2026-03-23T11:29:54.001Z</time></trkpt><trkpt lat="30.828257423112213" lon="-4.973780478494586"><ele>710.0</ele><time>2026-03-23T11:29:55.001Z</time></trkpt><trkpt lat="30.82815716117186" lon="-4.973634803425259"><ele>710.0</ele><time>2026-03-23T11:29:56.001Z</time></trkpt><trkpt lat="30.82809268551295" lon="-4.973522744504219"><ele>710.0</ele><time>2026-03-23T11:29:57.001Z</time></trkpt><trkpt lat="30.828021012755542" lon="-4.973440843294791"><ele>710.0</ele><time>2026-03-23T11:29:58.001Z</time></trkpt><trkpt lat="30.827952325748793" lon="-4.973373430533072"><ele>710.0</ele><time>2026-03-23T11:29:59.001Z</time></trkpt><trkpt lat="30.82787630965597" lon="-4.9733183740591"><ele>710.0</ele><time>2026-03-23T11:30:00.001Z</time></trkpt><trkpt lat="30.827792840440075" lon="-4.973261192577999"><ele>710.0</ele><time>2026-03-23T11:30:01.001Z</time></trkpt><trkpt lat="30.827724464221507" lon="-4.973187837610716"><ele>710.0</ele><time>2026-03-23T11:30:02.001Z</time></trkpt><trkpt lat="30.827668839026693" lon="-4.97307247991783"><ele>709.0</ele><time>2026-03-23T11:30:03.001Z</time></trkpt><trkpt lat="30.827603413733645" lon="-4.972927618444085"><ele>708.0</ele><time>2026-03-23T11:30:04.001Z</time></trkpt><trkpt lat="30.82753493889506" lon="-4.9727690535212625"><ele>707.0</ele><time>2026-03-23T11:30:05.001Z</time></trkpt><trkpt lat="30.827450683025337" lon="-4.97260762621225"><ele>707.5</ele><time>2026-03-23T11:30:06.001Z</time></trkpt><trkpt lat="30.82735485654115" lon="-4.972459876807018"><ele>708.0</ele><time>2026-03-23T11:30:07.001Z</time></trkpt><trkpt lat="30.827252857899147" lon="-4.972319168500115"><ele>708.5</ele><time>2026-03-23T11:30:08.001Z</time></trkpt><trkpt lat="30.82717250756223" lon="-4.97220093916963"><ele>709.0</ele><time>2026-03-23T11:30:09.001Z</time></trkpt><trkpt lat="30.827105153602318" lon="-4.972104765285099"><ele>709.0</ele><time>2026-03-23T11:30:10.001Z</time></trkpt><trkpt lat="30.827038175484162" lon="-4.972012971570182"><ele>709.0</ele><time>2026-03-23T11:30:11.001Z</time></trkpt><trkpt lat="30.82696262014447" lon="-4.971910007972086"><ele>709.0</ele><time>2026-03-23T11:30:12.002Z</time></trkpt><trkpt lat="30.826875718432717" lon="-4.971804606624591"><ele>709.0</ele><time>2026-03-23T11:30:13.002Z</time></trkpt><trkpt lat="30.826795575206642" lon="-4.971716091454512"><ele>708.8000000000001</ele><time>2026-03-23T11:30:14.002Z</time></trkpt><trkpt lat="30.826723642454205" lon="-4.971643462322839"><ele>708.6</ele><time>2026-03-23T11:30:15.002Z</time></trkpt><trkpt lat="30.826638684830844" lon="-4.971565192810745"><ele>708.4</ele><time>2026-03-23T11:30:16.002Z</time></trkpt><trkpt lat="30.826547189215677" lon="-4.971501014227556"><ele>708.2</ele><time>2026-03-23T11:30:17.002Z</time></trkpt><trkpt lat="30.826452717411474" lon="-4.971446953065658"><ele>708.0</ele><time>2026-03-23T11:30:18.002Z</time></trkpt><trkpt lat="30.826352911615093" lon="-4.971389533150404"><ele>708.0</ele><time>2026-03-23T11:30:19.002Z</time></trkpt><trkpt lat="30.826262223266642" lon="-4.9713486748197235"><ele>708.0</ele><time>2026-03-23T11:30:20.002Z</time></trkpt><trkpt lat="30.826174828091503" lon="-4.971323449030163"><ele>708.0</ele><time>2026-03-23T11:30:21.002Z</time></trkpt><trkpt lat="30.826074812577346" lon="-4.97130748242137"><ele>708.0</ele><time>2026-03-23T11:30:22.002Z</time></trkpt><trkpt lat="30.825975172445258" lon="-4.971312245763927"><ele>708.0</ele><time>2026-03-23T11:30:23.002Z</time></trkpt><trkpt lat="30.825864804369495" lon="-4.971323995777925"><ele>708.0</ele><time>2026-03-23T11:30:24.002Z</time></trkpt><trkpt lat="30.82575300945855" lon="-4.971334735390421"><ele>708.0</ele><time>2026-03-23T11:30:25.002Z</time></trkpt><trkpt lat="30.82564562880918" lon="-4.97132517333928"><ele>708.0</ele><time>2026-03-23T11:30:26.002Z</time></trkpt><trkpt lat="30.8255254426498" lon="-4.971320212143357"><ele>708.0</ele><time>2026-03-23T11:30:27.002Z</time></trkpt><trkpt lat="30.82540459058999" lon="-4.9713278428449765"><ele>708.0</ele><time>2026-03-23T11:30:28.002Z</time></trkpt><trkpt lat="30.825276421547894" lon="-4.971343037971039"><ele>708.0</ele><time>2026-03-23T11:30:29.002Z</time></trkpt><trkpt lat="30.825153917888034" lon="-4.971352139404128"><ele>708.0</ele><time>2026-03-23T11:30:30.002Z</time></trkpt><trkpt lat="30.825026584495333" lon="-4.9713438641906835"><ele>708.0</ele><time>2026-03-23T11:30:31.002Z</time></trkpt><trkpt lat="30.824896736532846" lon="-4.971311488395801"><ele>707.3333333333334</ele><time>2026-03-23T11:30:32.002Z</time></trkpt><trkpt lat="30.82473775861743" lon="-4.97124830902902"><ele>706.6666666666667</ele><time>2026-03-23T11:30:33.002Z</time></trkpt><trkpt lat="30.824587637553478" lon="-4.971172192340235"><ele>706.0</ele><time>2026-03-23T11:30:34.002Z</time></trkpt><trkpt lat="30.82447218300914" lon="-4.971117255781673"><ele>706.0</ele><time>2026-03-23T11:30:35.002Z</time></trkpt><trkpt lat="30.824381172766305" lon="-4.971100939169925"><ele>706.0</ele><time>2026-03-23T11:30:36.002Z</time></trkpt><trkpt lat="30.82428397145708" lon="-4.971103837594898"><ele>706.0</ele><time>2026-03-23T11:30:37.002Z</time></trkpt><trkpt lat="30.824187811780835" lon="-4.971118514386809"><ele>706.0</ele><time>2026-03-23T11:30:38.002Z</time></trkpt><trkpt lat="30.824093190223454" lon="-4.971133295816735"><ele>706.0</ele><time>2026-03-23T11:30:39.002Z</time></trkpt><trkpt lat="30.82402141599392" lon="-4.971148760025574"><ele>706.4</ele><time>2026-03-23T11:30:40.002Z</time></trkpt><trkpt lat="30.82394095648791" lon="-4.971164009467819"><ele>706.8</ele><time>2026-03-23T11:30:41.002Z</time></trkpt><trkpt lat="30.823837421597535" lon="-4.971185657406409"><ele>707.1999999999999</ele><time>2026-03-23T11:30:42.002Z</time></trkpt><trkpt lat="30.823722828861204" lon="-4.971208965635748"><ele>707.5999999999999</ele><time>2026-03-23T11:30:43.002Z</time></trkpt><trkpt lat="30.823615290785003" lon="-4.971227417662871"><ele>708.0</ele><time>2026-03-23T11:30:44.002Z</time></trkpt><trkpt lat="30.823517762066732" lon="-4.971236799299129"><ele>707.8</ele><time>2026-03-23T11:30:45.002Z</time></trkpt><trkpt lat="30.823427253856714" lon="-4.9712482246884635"><ele>707.5999999999999</ele><time>2026-03-23T11:30:46.002Z</time></trkpt><trkpt lat="30.82331897966026" lon="-4.971258717179443"><ele>707.4000000000001</ele><time>2026-03-23T11:30:47.002Z</time></trkpt><trkpt lat="30.823188110026074" lon="-4.971254496074365"><ele>707.2</ele><time>2026-03-23T11:30:48.002Z</time></trkpt><trkpt lat="30.82307371457032" lon="-4.971236110158067"><ele>707.0</ele><time>2026-03-23T11:30:49.001Z</time></trkpt><trkpt lat="30.822967057591555" lon="-4.971214603536563"><ele>707.0</ele><time>2026-03-23T11:30:50.001Z</time></trkpt><trkpt lat="30.82285850918422" lon="-4.971187845017583"><ele>707.0</ele><time>2026-03-23T11:30:51.001Z</time></trkpt><trkpt lat="30.822724611837437" lon="-4.971142381155825"><ele>707.0</ele><time>2026-03-23T11:30:52.001Z</time></trkpt><trkpt lat="30.822580991221084" lon="-4.971071016380543"><ele>707.0</ele><time>2026-03-23T11:30:53.001Z</time></trkpt><trkpt lat="30.822437477623378" lon="-4.971006362757229"><ele>707.25</ele><time>2026-03-23T11:30:54.001Z</time></trkpt><trkpt lat="30.822300863120763" lon="-4.970942338713475"><ele>707.5</ele><time>2026-03-23T11:30:55.001Z</time></trkpt><trkpt lat="30.822173538533722" lon="-4.970875044318914"><ele>707.75</ele><time>2026-03-23T11:30:56.001Z</time></trkpt><trkpt lat="30.822057631278646" lon="-4.9708317550498355"><ele>708.0</ele><time>2026-03-23T11:30:57.001Z</time></trkpt><trkpt lat="30.821932717879253" lon="-4.970783185902532"><ele>707.5</ele><time>2026-03-23T11:30:58.001Z</time></trkpt><trkpt lat="30.82180955204581" lon="-4.970730687999627"><ele>707.0</ele><time>2026-03-23T11:30:59.001Z</time></trkpt><trkpt lat="30.821691061985014" lon="-4.970676094636411"><ele>706.5</ele><time>2026-03-23T11:31:00.001Z</time></trkpt><trkpt lat="30.82156189973002" lon="-4.970625618712938"><ele>706.0</ele><time>2026-03-23T11:31:01.001Z</time></trkpt><trkpt lat="30.821409744327415" lon="-4.970557000422951"><ele>706.0</ele><time>2026-03-23T11:31:02.001Z</time></trkpt><trkpt lat="30.821231065413546" lon="-4.970480956687994"><ele>706.0</ele><time>2026-03-23T11:31:03.001Z</time></trkpt><trkpt lat="30.821040062177822" lon="-4.97039599148831"><ele>706.0</ele><time>2026-03-23T11:31:04.001Z</time></trkpt><trkpt lat="30.820847371596855" lon="-4.970313254910502"><ele>706.0</ele><time>2026-03-23T11:31:05.001Z</time></trkpt><trkpt lat="30.820690276327287" lon="-4.970235387787729"><ele>706.0</ele><time>2026-03-23T11:31:06.001Z</time></trkpt><trkpt lat="30.820548482043897" lon="-4.970181687567259"><ele>706.0</ele><time>2026-03-23T11:31:07.001Z</time></trkpt><trkpt lat="30.820425017524872" lon="-4.970131423175232"><ele>706.0</ele><time>2026-03-23T11:31:08.001Z</time></trkpt><trkpt lat="30.820310322850098" lon="-4.97010149262307"><ele>706.0</ele><time>2026-03-23T11:31:09.001Z</time></trkpt><trkpt lat="30.820205801801144" lon="-4.970078311157642"><ele>706.0</ele><time>2026-03-23T11:31:10.001Z</time></trkpt><trkpt lat="30.820108385666668" lon="-4.970059419040717"><ele>706.0</ele><time>2026-03-23T11:31:11.001Z</time></trkpt><trkpt lat="30.820012262161026" lon="-4.970048558108967"><ele>706.0</ele><time>2026-03-23T11:31:12.001Z</time></trkpt><trkpt lat="30.81991101848243" lon="-4.970046339117557"><ele>706.0</ele><time>2026-03-23T11:31:13.001Z</time></trkpt><trkpt lat="30.819802720400766" lon="-4.970043103949162"><ele>706.0</ele><time>2026-03-23T11:31:14.001Z</time></trkpt><trkpt lat="30.81968761386501" lon="-4.970036551553471"><ele>706.0</ele><time>2026-03-23T11:31:15.001Z</time></trkpt><trkpt lat="30.819588428458385" lon="-4.9700345288303165"><ele>706.0</ele><time>2026-03-23T11:31:16.001Z</time></trkpt><trkpt lat="30.819511845897104" lon="-4.970033531374111"><ele>706.0</ele><time>2026-03-23T11:31:17.001Z</time></trkpt><trkpt lat="30.819390516181368" lon="-4.9700233974097054"><ele>706.0</ele><time>2026-03-23T11:31:19.001Z</time></trkpt><trkpt lat="30.81926366194044" lon="-4.970015094728975"><ele>706.0</ele><time>2026-03-23T11:31:21.001Z</time></trkpt><trkpt lat="30.819157857018784" lon="-4.970006703936163"><ele>706.0</ele><time>2026-03-23T11:31:22.001Z</time></trkpt><trkpt lat="30.81904045985911" lon="-4.9699871437080105"><ele>706.0</ele><time>2026-03-23T11:31:23.001Z</time></trkpt><trkpt lat="30.818911935923555" lon="-4.969960036806495"><ele>706.0</ele><time>2026-03-23T11:31:24.001Z</time></trkpt><trkpt lat="30.81877277370536" lon="-4.969924335300944"><ele>706.0</ele><time>2026-03-23T11:31:25.001Z</time></trkpt><trkpt lat="30.818624662429556" lon="-4.969875641416156"><ele>706.0</ele><time>2026-03-23T11:31:26.001Z</time></trkpt><trkpt lat="30.818470934972662" lon="-4.969818071071727"><ele>706.0</ele><time>2026-03-23T11:31:27.001Z</time></trkpt><trkpt lat="30.81831063838644" lon="-4.969773748697338"><ele>706.0</ele><time>2026-03-23T11:31:28.001Z</time></trkpt><trkpt lat="30.818177350024403" lon="-4.969742048187944"><ele>706.0</ele><time>2026-03-23T11:31:29.001Z</time></trkpt><trkpt lat="30.818052263836616" lon="-4.969720365920881"><ele>706.0</ele><time>2026-03-23T11:31:30.001Z</time></trkpt><trkpt lat="30.817929860087602" lon="-4.969700336604824"><ele>706.0</ele><time>2026-03-23T11:31:31.001Z</time></trkpt><trkpt lat="30.81780688558558" lon="-4.969668865563099"><ele>706.0</ele><time>2026-03-23T11:31:32.001Z</time></trkpt><trkpt lat="30.81766452473588" lon="-4.9696328258478815"><ele>706.0</ele><time>2026-03-23T11:31:33.001Z</time></trkpt><trkpt lat="30.817494330756713" lon="-4.969594789051015"><ele>706.0</ele><time>2026-03-23T11:31:34.001Z</time></trkpt><trkpt lat="30.81730579613677" lon="-4.969550629992155"><ele>706.3333333333334</ele><time>2026-03-23T11:31:35.001Z</time></trkpt><trkpt lat="30.817119644827596" lon="-4.969497052048801"><ele>706.6666666666666</ele><time>2026-03-23T11:31:36.001Z</time></trkpt><trkpt lat="30.81692124071855" lon="-4.969433549347481"><ele>707.0</ele><time>2026-03-23T11:31:37.001Z</time></trkpt><trkpt lat="30.816740944181475" lon="-4.969374301635916"><ele>707.6666666666666</ele><time>2026-03-23T11:31:38.001Z</time></trkpt><trkpt lat="30.816544154848412" lon="-4.969314681113762"><ele>708.3333333333334</ele><time>2026-03-23T11:31:39.001Z</time></trkpt><trkpt lat="30.816367810928345" lon="-4.969265729333669"><ele>709.0</ele><time>2026-03-23T11:31:40.001Z</time></trkpt><trkpt lat="30.816216547643265" lon="-4.969218037006319"><ele>708.3333333333334</ele><time>2026-03-23T11:31:41.001Z</time></trkpt><trkpt lat="30.816059099251614" lon="-4.969166758865102"><ele>707.6666666666666</ele><time>2026-03-23T11:31:42.001Z</time></trkpt><trkpt lat="30.815920723352523" lon="-4.969119690013145"><ele>707.0</ele><time>2026-03-23T11:31:43.001Z</time></trkpt><trkpt lat="30.815773624597856" lon="-4.969068696193854"><ele>707.0</ele><time>2026-03-23T11:31:44.001Z</time></trkpt><trkpt lat="30.815622507452858" lon="-4.96903018651166"><ele>707.0</ele><time>2026-03-23T11:31:45.001Z</time></trkpt><trkpt lat="30.81546697123217" lon="-4.968981824063234"><ele>707.0</ele><time>2026-03-23T11:31:46.001Z</time></trkpt><trkpt lat="30.81530987588598" lon="-4.968928540485255"><ele>707.0</ele><time>2026-03-23T11:31:47.001Z</time></trkpt><trkpt lat="30.815108975366282" lon="-4.9688685935801775"><ele>707.0</ele><time>2026-03-23T11:31:48.001Z</time></trkpt><trkpt lat="30.81489283565093" lon="-4.968828243027719"><ele>707.0</ele><time>2026-03-23T11:31:49.001Z</time></trkpt><trkpt lat="30.81467597878847" lon="-4.9687774751666325"><ele>707.0</ele><time>2026-03-23T11:31:50.001Z</time></trkpt><trkpt lat="30.81448651616895" lon="-4.9687332015113235"><ele>707.0</ele><time>2026-03-23T11:31:51.001Z</time></trkpt><trkpt lat="30.81432402684503" lon="-4.96868423172501"><ele>707.0</ele><time>2026-03-23T11:31:52.001Z</time></trkpt><trkpt lat="30.81418291605288" lon="-4.968641188171462"><ele>707.25</ele><time>2026-03-23T11:31:53.001Z</time></trkpt><trkpt lat="30.81406599268816" lon="-4.968598416734922"><ele>707.5</ele><time>2026-03-23T11:31:54.001Z</time></trkpt><trkpt lat="30.813970100633643" lon="-4.968553165220572"><ele>707.75</ele><time>2026-03-23T11:31:55.001Z</time></trkpt><trkpt lat="30.8138929700197" lon="-4.9684787089407445"><ele>708.0</ele><time>2026-03-23T11:31:56.001Z</time></trkpt><trkpt lat="30.813798953626236" lon="-4.96836291738646"><ele>707.6666666666666</ele><time>2026-03-23T11:31:57.001Z</time></trkpt><trkpt lat="30.81369232248464" lon="-4.968231409177112"><ele>707.3333333333333</ele><time>2026-03-23T11:31:58.001Z</time></trkpt><trkpt lat="30.813574046479374" lon="-4.9681008442760906"><ele>707.0</ele><time>2026-03-23T11:31:59.001Z</time></trkpt><trkpt lat="30.813451213213607" lon="-4.9679698179614356"><ele>707.0</ele><time>2026-03-23T11:32:00.001Z</time></trkpt><trkpt lat="30.813308255490483" lon="-4.967823688781125"><ele>707.0</ele><time>2026-03-23T11:32:01.001Z</time></trkpt><trkpt lat="30.813171489074342" lon="-4.9676728777919"><ele>707.0</ele><time>2026-03-23T11:32:02.001Z</time></trkpt><trkpt lat="30.8130194732071" lon="-4.967517931533684"><ele>707.3333333333333</ele><time>2026-03-23T11:32:03.001Z</time></trkpt><trkpt lat="30.812877264473638" lon="-4.967361436119288"><ele>707.6666666666666</ele><time>2026-03-23T11:32:04.001Z</time></trkpt><trkpt lat="30.812748565040188" lon="-4.967231488490251"><ele>708.0</ele><time>2026-03-23T11:32:05.001Z</time></trkpt><trkpt lat="30.812634785661565" lon="-4.967117941257339"><ele>707.0</ele><time>2026-03-23T11:32:06.001Z</time></trkpt><trkpt lat="30.812497554304564" lon="-4.9670167031270225"><ele>706.0</ele><time>2026-03-23T11:32:07.001Z</time></trkpt><trkpt lat="30.812358565056005" lon="-4.9668998794748935"><ele>705.0</ele><time>2026-03-23T11:32:08.001Z</time></trkpt><trkpt lat="30.812221920925076" lon="-4.966776881636564"><ele>705.0</ele><time>2026-03-23T11:32:09.001Z</time></trkpt><trkpt lat="30.812077693960198" lon="-4.966646132285658"><ele>705.0</ele><time>2026-03-23T11:32:10.001Z</time></trkpt><trkpt lat="30.811929832163717" lon="-4.966519426579795"><ele>705.0</ele><time>2026-03-23T11:32:11.001Z</time></trkpt><trkpt lat="30.811780860943344" lon="-4.966399422427257"><ele>705.3333333333334</ele><time>2026-03-23T11:32:12.001Z</time></trkpt><trkpt lat="30.811623357657545" lon="-4.966275248857016"><ele>705.6666666666667</ele><time>2026-03-23T11:32:13.002Z</time></trkpt><trkpt lat="30.811465388861055" lon="-4.966163469319969"><ele>706.0</ele><time>2026-03-23T11:32:14.002Z</time></trkpt><trkpt lat="30.811302879977646" lon="-4.966043064743829"><ele>706.0</ele><time>2026-03-23T11:32:15.002Z</time></trkpt><trkpt lat="30.811154394754208" lon="-4.965947448911409"><ele>706.0</ele><time>2026-03-23T11:32:16.002Z</time></trkpt><trkpt lat="30.811013490149012" lon="-4.965857907263919"><ele>706.0</ele><time>2026-03-23T11:32:17.002Z</time></trkpt><trkpt lat="30.810881456485582" lon="-4.965762855334355"><ele>706.3333333333334</ele><time>2026-03-23T11:32:18.002Z</time></trkpt><trkpt lat="30.810737152506732" lon="-4.965666665452792"><ele>706.6666666666666</ele><time>2026-03-23T11:32:19.002Z</time></trkpt><trkpt lat="30.810591447350998" lon="-4.9655717836579"><ele>707.0</ele><time>2026-03-23T11:32:20.002Z</time></trkpt><trkpt lat="30.810458067402923" lon="-4.965474025522937"><ele>707.0</ele><time>2026-03-23T11:32:21.002Z</time></trkpt><trkpt lat="30.810346792689693" lon="-4.965378643442916"><ele>707.0</ele><time>2026-03-23T11:32:22.002Z</time></trkpt><trkpt lat="30.810233610316992" lon="-4.965288366095319"><ele>707.0</ele><time>2026-03-23T11:32:23.002Z</time></trkpt><trkpt lat="30.81011743008376" lon="-4.965205188350885"><ele>707.0</ele><time>2026-03-23T11:32:24.002Z</time></trkpt><trkpt lat="30.810014648866236" lon="-4.965162023078499"><ele>707.0</ele><time>2026-03-23T11:32:25.002Z</time></trkpt><trkpt lat="30.809925194913724" lon="-4.965146167953835"><ele>707.0</ele><time>2026-03-23T11:32:26.002Z</time></trkpt><trkpt lat="30.809844711849145" lon="-4.965155237114612"><ele>707.0</ele><time>2026-03-23T11:32:27.002Z</time></trkpt><trkpt lat="30.809745107147602" lon="-4.965191290947711"><ele>707.0</ele><time>2026-03-23T11:32:28.002Z</time></trkpt><trkpt lat="30.80962380077889" lon="-4.965263480461284"><ele>707.0</ele><time>2026-03-23T11:32:29.002Z</time></trkpt><trkpt lat="30.80951126458171" lon="-4.96532975737008"><ele>707.0</ele><time>2026-03-23T11:32:30.002Z</time></trkpt><trkpt lat="30.809420459761146" lon="-4.965370237923381"><ele>707.0</ele><time>2026-03-23T11:32:31.002Z</time></trkpt><trkpt lat="30.80933183358887" lon="-4.965404846025885"><ele>707.0</ele><time>2026-03-23T11:32:32.002Z</time></trkpt><trkpt lat="30.8092380661357" lon="-4.9654344928786545"><ele>707.0</ele><time>2026-03-23T11:32:33.002Z</time></trkpt><trkpt lat="30.80913768246588" lon="-4.965463450100099"><ele>707.0</ele><time>2026-03-23T11:32:34.002Z</time></trkpt><trkpt lat="30.80903673432931" lon="-4.965491096118691"><ele>706.0</ele><time>2026-03-23T11:32:35.002Z</time></trkpt><trkpt lat="30.80893399015201" lon="-4.965526107697176"><ele>705.0</ele><time>2026-03-23T11:32:36.002Z</time></trkpt><trkpt lat="30.808816543057187" lon="-4.96557049111614"><ele>704.0</ele><time>2026-03-23T11:32:37.002Z</time></trkpt><trkpt lat="30.808693697493837" lon="-4.965613945116191"><ele>703.0</ele><time>2026-03-23T11:32:38.002Z</time></trkpt><trkpt lat="30.80855606628855" lon="-4.965645045368191"><ele>703.75</ele><time>2026-03-23T11:32:39.002Z</time></trkpt><trkpt lat="30.808412226666196" lon="-4.9656640451913985"><ele>704.5</ele><time>2026-03-23T11:32:40.002Z</time></trkpt><trkpt lat="30.80828550580798" lon="-4.9656776502213855"><ele>705.25</ele><time>2026-03-23T11:32:41.002Z</time></trkpt><trkpt lat="30.808158031078953" lon="-4.965695960666591"><ele>706.0</ele><time>2026-03-23T11:32:42.002Z</time></trkpt><trkpt lat="30.808031306792806" lon="-4.9657204874329945"><ele>706.0</ele><time>2026-03-23T11:32:43.002Z</time></trkpt><trkpt lat="30.80790699667144" lon="-4.965759424727024"><ele>706.0</ele><time>2026-03-23T11:32:44.002Z</time></trkpt><trkpt lat="30.80779315192389" lon="-4.965800354344074"><ele>706.0</ele><time>2026-03-23T11:32:45.002Z</time></trkpt><trkpt lat="30.807684190295273" lon="-4.965833407658534"><ele>706.0</ele><time>2026-03-23T11:32:46.002Z</time></trkpt><trkpt lat="30.807575982261806" lon="-4.965861180061289"><ele>705.8</ele><time>2026-03-23T11:32:47.002Z</time></trkpt><trkpt lat="30.80747942074316" lon="-4.965886628838336"><ele>705.5999999999999</ele><time>2026-03-23T11:32:48.002Z</time></trkpt><trkpt lat="30.807372789866157" lon="-4.965923089995677"><ele>705.4</ele><time>2026-03-23T11:32:49.002Z</time></trkpt><trkpt lat="30.807267857003282" lon="-4.965961817357666"><ele>705.2</ele><time>2026-03-23T11:32:50.002Z</time></trkpt><trkpt lat="30.80717862849528" lon="-4.96599410415302"><ele>705.0</ele><time>2026-03-23T11:32:51.002Z</time></trkpt><trkpt lat="30.807103222516897" lon="-4.966021708123605"><ele>705.0</ele><time>2026-03-23T11:32:52.002Z</time></trkpt><trkpt lat="30.80701892919204" lon="-4.966048632805046"><ele>705.0</ele><time>2026-03-23T11:32:53.002Z</time></trkpt><trkpt lat="30.806929740717266" lon="-4.966059251663513"><ele>705.0</ele><time>2026-03-23T11:32:54.002Z</time></trkpt><trkpt lat="30.806825947395623" lon="-4.966062397920193"><ele>705.0</ele><time>2026-03-23T11:32:55Z</time></trkpt><trkpt lat="30.80671359973205" lon="-4.966051172802333"><ele>705.0</ele><time>2026-03-23T11:32:56Z</time></trkpt><trkpt lat="30.806599593629386" lon="-4.9660122266904825"><ele>705.0</ele><time>2026-03-23T11:32:57Z</time></trkpt><trkpt lat="30.80648352489557" lon="-4.9659652615746825"><ele>705.0</ele><time>2026-03-23T11:32:58Z</time></trkpt><trkpt lat="30.80637971018538" lon="-4.965926646375594"><ele>705.0</ele><time>2026-03-23T11:32:59Z</time></trkpt><trkpt lat="30.806300418163133" lon="-4.965908049138697"><ele>705.0</ele><time>2026-03-23T11:33:00Z</time></trkpt><trkpt lat="30.806219488789846" lon="-4.965885274937584"><ele>705.0</ele><time>2026-03-23T11:33:01Z</time></trkpt><trkpt lat="30.80612750381543" lon="-4.965845669806237"><ele>705.2</ele><time>2026-03-23T11:33:02Z</time></trkpt><trkpt lat="30.806031633512504" lon="-4.965807882369756"><ele>705.4</ele><time>2026-03-23T11:33:03Z</time></trkpt><trkpt lat="30.80594563317739" lon="-4.965773554227552"><ele>705.5999999999999</ele><time>2026-03-23T11:33:04Z</time></trkpt><trkpt lat="30.80585152478327" lon="-4.965730944949044"><ele>705.8</ele><time>2026-03-23T11:33:05Z</time></trkpt><trkpt lat="30.80575435534348" lon="-4.965677043060785"><ele>706.0</ele><time>2026-03-23T11:33:06Z</time></trkpt><trkpt lat="30.805655956424065" lon="-4.965616099673123"><ele>706.0</ele><time>2026-03-23T11:33:07Z</time></trkpt><trkpt lat="30.80554185828058" lon="-4.965552166236648"><ele>706.0</ele><time>2026-03-23T11:33:08Z</time></trkpt><trkpt lat="30.805431959824126" lon="-4.965502418549082"><ele>706.0</ele><time>2026-03-23T11:33:09Z</time></trkpt><trkpt lat="30.805304912287493" lon="-4.965476234570297"><ele>706.0</ele><time>2026-03-23T11:33:10Z</time></trkpt><trkpt lat="30.805171936725216" lon="-4.9654335324046235"><ele>706.0</ele><time>2026-03-23T11:33:11Z</time></trkpt><trkpt lat="30.80503301879122" lon="-4.965391183239336"><ele>706.0</ele><time>2026-03-23T11:33:12Z</time></trkpt><trkpt lat="30.80491764557721" lon="-4.965335339998433"><ele>706.0</ele><time>2026-03-23T11:33:13Z</time></trkpt><trkpt lat="30.804810340706027" lon="-4.9652707951687605"><ele>706.0</ele><time>2026-03-23T11:33:14Z</time></trkpt><trkpt lat="30.804704053344324" lon="-4.96518626295755"><ele>706.0</ele><time>2026-03-23T11:33:15Z</time></trkpt><trkpt lat="30.80460761494797" lon="-4.965088930420726"><ele>706.0</ele><time>2026-03-23T11:33:16Z</time></trkpt><trkpt lat="30.80451755610697" lon="-4.964987592730072"><ele>706.0</ele><time>2026-03-23T11:33:17Z</time></trkpt><trkpt lat="30.804442236225356" lon="-4.9648848199146745"><ele>706.0</ele><time>2026-03-23T11:33:18Z</time></trkpt><trkpt lat="30.804382940484864" lon="-4.964782578265445"><ele>705.8</ele><time>2026-03-23T11:33:19Z</time></trkpt><trkpt lat="30.80434294734323" lon="-4.964689154071075"><ele>705.5999999999999</ele><time>2026-03-23T11:33:20Z</time></trkpt><trkpt lat="30.804310412723176" lon="-4.964591149542383"><ele>705.4</ele><time>2026-03-23T11:33:21Z</time></trkpt><trkpt lat="30.804278143103115" lon="-4.964490337683314"><ele>705.2</ele><time>2026-03-23T11:33:22Z</time></trkpt><trkpt lat="30.804227200697017" lon="-4.964385521690927"><ele>705.0</ele><time>2026-03-23T11:33:23Z</time></trkpt><trkpt lat="30.80415509628907" lon="-4.964276703888744"><ele>705.75</ele><time>2026-03-23T11:33:24Z</time></trkpt><trkpt lat="30.804069726156918" lon="-4.964168765283181"><ele>706.5</ele><time>2026-03-23T11:33:25Z</time></trkpt><trkpt lat="30.803983851764315" lon="-4.96405833076031"><ele>707.25</ele><time>2026-03-23T11:33:26Z</time></trkpt><trkpt lat="30.803904892803846" lon="-4.963938211384305"><ele>708.0</ele><time>2026-03-23T11:33:27Z</time></trkpt><trkpt lat="30.803822240386378" lon="-4.963818485170737"><ele>708.0</ele><time>2026-03-23T11:33:28Z</time></trkpt><trkpt lat="30.803744275569205" lon="-4.963694558044527"><ele>708.0</ele><time>2026-03-23T11:33:29Z</time></trkpt><trkpt lat="30.80366884653305" lon="-4.963579671269272"><ele>708.0</ele><time>2026-03-23T11:33:30.001Z</time></trkpt><trkpt lat="30.80359463437444" lon="-4.9634927998456275"><ele>708.0</ele><time>2026-03-23T11:33:31.001Z</time></trkpt><trkpt lat="30.803539336551243" lon="-4.9634061331363695"><ele>708.0</ele><time>2026-03-23T11:33:32.001Z</time></trkpt><trkpt lat="30.80348975341583" lon="-4.963340869131624"><ele>708.0</ele><time>2026-03-23T11:33:33.001Z</time></trkpt><trkpt lat="30.803443039609178" lon="-4.96326850871089"><ele>708.0</ele><time>2026-03-23T11:33:34.001Z</time></trkpt><trkpt lat="30.803384014116773" lon="-4.963180936887097"><ele>708.0</ele><time>2026-03-23T11:33:35.001Z</time></trkpt><trkpt lat="30.803318313052714" lon="-4.963083546883032"><ele>708.0</ele><time>2026-03-23T11:33:36.001Z</time></trkpt><trkpt lat="30.803253247421104" lon="-4.9629753476857585"><ele>708.0</ele><time>2026-03-23T11:33:37.001Z</time></trkpt><trkpt lat="30.803203233659797" lon="-4.962852671655881"><ele>708.0</ele><time>2026-03-23T11:33:38.001Z</time></trkpt><trkpt lat="30.803169719164345" lon="-4.962694116530448"><ele>708.0</ele><time>2026-03-23T11:33:39.001Z</time></trkpt><trkpt lat="30.80315027098006" lon="-4.962521168300134"><ele>708.0</ele><time>2026-03-23T11:33:40.001Z</time></trkpt><trkpt lat="30.80313235715394" lon="-4.962381451730709"><ele>707.5</ele><time>2026-03-23T11:33:41.001Z</time></trkpt><trkpt lat="30.803114501155545" lon="-4.96225525120523"><ele>707.0</ele><time>2026-03-23T11:33:42.001Z</time></trkpt><trkpt lat="30.803096497170035" lon="-4.962115815604385"><ele>706.5</ele><time>2026-03-23T11:33:43.001Z</time></trkpt><trkpt lat="30.803078459080602" lon="-4.961930422941166"><ele>706.0</ele><time>2026-03-23T11:33:44.001Z</time></trkpt><trkpt lat="30.803066169340234" lon="-4.961778804865388"><ele>705.5</ele><time>2026-03-23T11:33:45.001Z</time></trkpt><trkpt lat="30.803065154122315" lon="-4.961634876990931"><ele>705.0</ele><time>2026-03-23T11:33:46.001Z</time></trkpt><trkpt lat="30.803062122254577" lon="-4.961476937641025"><ele>704.5</ele><time>2026-03-23T11:33:47.001Z</time></trkpt><trkpt lat="30.803052564254507" lon="-4.961319785964674"><ele>704.0</ele><time>2026-03-23T11:33:48.001Z</time></trkpt><trkpt lat="30.803025205500848" lon="-4.961154225234294"><ele>704.0</ele><time>2026-03-23T11:33:49.001Z</time></trkpt><trkpt lat="30.80298694574352" lon="-4.960988700681855"><ele>704.0</ele><time>2026-03-23T11:33:50.001Z</time></trkpt><trkpt lat="30.80292855400358" lon="-4.960857334844575"><ele>704.0</ele><time>2026-03-23T11:33:51.001Z</time></trkpt><trkpt lat="30.80286646469787" lon="-4.960752004697749"><ele>704.0</ele><time>2026-03-23T11:33:52.001Z</time></trkpt><trkpt lat="30.802807234945885" lon="-4.960663346376443"><ele>704.25</ele><time>2026-03-23T11:33:53.001Z</time></trkpt><trkpt lat="30.802726048207486" lon="-4.960574466372326"><ele>704.5</ele><time>2026-03-23T11:33:54.001Z</time></trkpt><trkpt lat="30.80260405959252" lon="-4.9604798458837145"><ele>704.75</ele><time>2026-03-23T11:33:55.001Z</time></trkpt><trkpt lat="30.80245271972029" lon="-4.9603805813496455"><ele>705.0</ele><time>2026-03-23T11:33:56.001Z</time></trkpt><trkpt lat="30.80230682275911" lon="-4.960276021546798"><ele>705.5</ele><time>2026-03-23T11:33:57.001Z</time></trkpt><trkpt lat="30.802175327215643" lon="-4.96018053807334"><ele>706.0</ele><time>2026-03-23T11:33:58.001Z</time></trkpt><trkpt lat="30.80206442960948" lon="-4.960079274452927"><ele>706.5</ele><time>2026-03-23T11:33:59.001Z</time></trkpt><trkpt lat="30.801969126821856" lon="-4.95995979831965"><ele>707.0</ele><time>2026-03-23T11:34:00.001Z</time></trkpt><trkpt lat="30.80188486441451" lon="-4.959836351444574"><ele>707.0</ele><time>2026-03-23T11:34:01.001Z</time></trkpt><trkpt lat="30.80179108999217" lon="-4.95973162415103"><ele>707.0</ele><time>2026-03-23T11:34:02.001Z</time></trkpt><trkpt lat="30.801681381157874" lon="-4.959637546502442"><ele>707.0</ele><time>2026-03-23T11:34:03.001Z</time></trkpt><trkpt lat="30.80156217792529" lon="-4.959545471975895"><ele>707.0</ele><time>2026-03-23T11:34:04.001Z</time></trkpt><trkpt lat="30.801448107802916" lon="-4.9594572582584515"><ele>707.0</ele><time>2026-03-23T11:34:05.001Z</time></trkpt><trkpt lat="30.80135356387386" lon="-4.959356466277289"><ele>707.0</ele><time>2026-03-23T11:34:06.001Z</time></trkpt><trkpt lat="30.80126249091948" lon="-4.959246701131528"><ele>707.0</ele><time>2026-03-23T11:34:07.001Z</time></trkpt><trkpt lat="30.801164865367923" lon="-4.959134399608247"><ele>707.0</ele><time>2026-03-23T11:34:08.001Z</time></trkpt><trkpt lat="30.801058623587586" lon="-4.95903218679605"><ele>707.25</ele><time>2026-03-23T11:34:09.001Z</time></trkpt><trkpt lat="30.80094473910014" lon="-4.958926505693758"><ele>707.5</ele><time>2026-03-23T11:34:10.001Z</time></trkpt><trkpt lat="30.800827262624793" lon="-4.958824988187375"><ele>707.75</ele><time>2026-03-23T11:34:11.001Z</time></trkpt><trkpt lat="30.80070994901919" lon="-4.958721200981571"><ele>708.0</ele><time>2026-03-23T11:34:12.001Z</time></trkpt><trkpt lat="30.800592478994467" lon="-4.958612276986299"><ele>708.0</ele><time>2026-03-23T11:34:13.001Z</time></trkpt><trkpt lat="30.800475104335202" lon="-4.958504383211897"><ele>708.0</ele><time>2026-03-23T11:34:14.001Z</time></trkpt><trkpt lat="30.8003660891705" lon="-4.958396413933399"><ele>708.0</ele><time>2026-03-23T11:34:15.001Z</time></trkpt><trkpt lat="30.800261347051855" lon="-4.95828159662952"><ele>708.0</ele><time>2026-03-23T11:34:16.001Z</time></trkpt><trkpt lat="30.8001569413511" lon="-4.958166486798034"><ele>707.5</ele><time>2026-03-23T11:34:17.001Z</time></trkpt><trkpt lat="30.800053193128388" lon="-4.9580572047567655"><ele>707.0</ele><time>2026-03-23T11:34:18.001Z</time></trkpt><trkpt lat="30.799948525538593" lon="-4.957945199405954"><ele>706.5</ele><time>2026-03-23T11:34:19.001Z</time></trkpt><trkpt lat="30.79984617495493" lon="-4.957829905106216"><ele>706.0</ele><time>2026-03-23T11:34:20.001Z</time></trkpt><trkpt lat="30.79974525255523" lon="-4.957705234942977"><ele>706.0</ele><time>2026-03-23T11:34:21.001Z</time></trkpt><trkpt lat="30.799645881784105" lon="-4.957563244438387"><ele>706.0</ele><time>2026-03-23T11:34:22.001Z</time></trkpt><trkpt lat="30.79955028927002" lon="-4.957406216451812"><ele>706.0</ele><time>2026-03-23T11:34:23.001Z</time></trkpt><trkpt lat="30.799452716720683" lon="-4.957235749873105"><ele>706.0</ele><time>2026-03-23T11:34:24.001Z</time></trkpt><trkpt lat="30.7993516011921" lon="-4.957073793223613"><ele>706.0</ele><time>2026-03-23T11:34:25.001Z</time></trkpt><trkpt lat="30.799261129974248" lon="-4.956919272037499"><ele>706.0</ele><time>2026-03-23T11:34:26.001Z</time></trkpt><trkpt lat="30.799178228480095" lon="-4.956764112287851"><ele>706.5</ele><time>2026-03-23T11:34:27.001Z</time></trkpt><trkpt lat="30.79911962827386" lon="-4.956628622587013"><ele>707.0</ele><time>2026-03-23T11:34:28.001Z</time></trkpt><trkpt lat="30.799080509977955" lon="-4.956493157384037"><ele>707.5</ele><time>2026-03-23T11:34:29.001Z</time></trkpt><trkpt lat="30.799050107859152" lon="-4.956363184528766"><ele>708.0</ele><time>2026-03-23T11:34:30.001Z</time></trkpt><trkpt lat="30.79900312722054" lon="-4.956224637102734"><ele>708.0</ele><time>2026-03-23T11:34:31.001Z</time></trkpt><trkpt lat="30.798942502780214" lon="-4.956088096064594"><ele>708.0</ele><time>2026-03-23T11:34:32.001Z</time></trkpt><trkpt lat="30.798869951082345" lon="-4.9559580901012925"><ele>708.0</ele><time>2026-03-23T11:34:33.001Z</time></trkpt><trkpt lat="30.79879632365069" lon="-4.955825214836076"><ele>708.0</ele><time>2026-03-23T11:34:34.001Z</time></trkpt><trkpt lat="30.798707110019606" lon="-4.955705167156691"><ele>708.0</ele><time>2026-03-23T11:34:35.001Z</time></trkpt><trkpt lat="30.798620597929244" lon="-4.955599347248703"><ele>708.0</ele><time>2026-03-23T11:34:36.001Z</time></trkpt><trkpt lat="30.79855973455271" lon="-4.955509519246364"><ele>708.0</ele><time>2026-03-23T11:34:37.001Z</time></trkpt><trkpt lat="30.798526423166138" lon="-4.9554389412887"><ele>708.0</ele><time>2026-03-23T11:34:38.001Z</time></trkpt><trkpt lat="30.79849689854659" lon="-4.95537190787377"><ele>708.0</ele><time>2026-03-23T11:34:39.001Z</time></trkpt><trkpt lat="30.798396249443353" lon="-4.955287808338739"><ele>708.0</ele><time>2026-03-23T11:34:41.001Z</time></trkpt><trkpt lat="30.798330979528185" lon="-4.955263430078042"><ele>708.0</ele><time>2026-03-23T11:34:42.001Z</time></trkpt><trkpt lat="30.798259318319857" lon="-4.955265048491498"><ele>708.0</ele><time>2026-03-23T11:34:43.002Z</time></trkpt><trkpt lat="30.798174950772154" lon="-4.955280321937618"><ele>708.0</ele><time>2026-03-23T11:34:44.002Z</time></trkpt><trkpt lat="30.79808421180098" lon="-4.955320283322658"><ele>708.0</ele><time>2026-03-23T11:34:45.002Z</time></trkpt><trkpt lat="30.798009289432933" lon="-4.955363929531221"><ele>708.0</ele><time>2026-03-23T11:34:46.002Z</time></trkpt><trkpt lat="30.79789345844549" lon="-4.955377056176174"><ele>708.0</ele><time>2026-03-23T11:34:48.002Z</time></trkpt><trkpt lat="30.797823401463745" lon="-4.955388644146359"><ele>708.0</ele><time>2026-03-23T11:34:49.002Z</time></trkpt><trkpt lat="30.797729181988593" lon="-4.95540429085875"><ele>708.0</ele><time>2026-03-23T11:34:50.002Z</time></trkpt><trkpt lat="30.79763134315488" lon="-4.955410939868655"><ele>708.0</ele><time>2026-03-23T11:34:51.002Z</time></trkpt><trkpt lat="30.797546298764967" lon="-4.955411451606499"><ele>708.0</ele><time>2026-03-23T11:34:52.002Z</time></trkpt><trkpt lat="30.797478067069267" lon="-4.9554071197526115"><ele>708.0</ele><time>2026-03-23T11:34:53.002Z</time></trkpt><trkpt lat="30.797367540453656" lon="-4.9553921494468005"><ele>708.0</ele><time>2026-03-23T11:34:55.002Z</time></trkpt><trkpt lat="30.797246989185258" lon="-4.9553398337307515"><ele>708.0</ele><time>2026-03-23T11:34:57.002Z</time></trkpt><trkpt lat="30.797174648526646" lon="-4.955293601480464"><ele>708.0</ele><time>2026-03-23T11:34:58.002Z</time></trkpt><trkpt lat="30.797085236473933" lon="-4.9552181845667995"><ele>708.0</ele><time>2026-03-23T11:35:00.002Z</time></trkpt><trkpt lat="30.797034507416992" lon="-4.955170882204182"><ele>708.0</ele><time>2026-03-23T11:35:01Z</time></trkpt><trkpt lat="30.79698968721123" lon="-4.9551161097234635"><ele>708.0</ele><time>2026-03-23T11:35:02Z</time></trkpt><trkpt lat="30.796913115777496" lon="-4.955004506423918"><ele>708.0</ele><time>2026-03-23T11:35:04Z</time></trkpt><trkpt lat="30.79686098402857" lon="-4.954934885326411"><ele>708.0</ele><time>2026-03-23T11:35:05Z</time></trkpt><trkpt lat="30.796805058295853" lon="-4.954871752188237"><ele>708.0</ele><time>2026-03-23T11:35:06Z</time></trkpt><trkpt lat="30.796726816153985" lon="-4.954781966639921"><ele>708.0</ele><time>2026-03-23T11:35:08Z</time></trkpt><trkpt lat="30.79667743278187" lon="-4.954736509195179"><ele>708.0</ele><time>2026-03-23T11:35:09Z</time></trkpt><trkpt lat="30.796615966911787" lon="-4.954696129667164"><ele>708.0</ele><time>2026-03-23T11:35:10Z</time></trkpt><trkpt lat="30.796544675410747" lon="-4.954654654156188"><ele>708.0</ele><time>2026-03-23T11:35:11Z</time></trkpt><trkpt lat="30.796472200127084" lon="-4.9546227475795135"><ele>708.0</ele><time>2026-03-23T11:35:12Z</time></trkpt><trkpt lat="30.79639656932164" lon="-4.954599363128564"><ele>708.0</ele><time>2026-03-23T11:35:13Z</time></trkpt><trkpt lat="30.796267938524338" lon="-4.954581373956193"><ele>708.0</ele><time>2026-03-23T11:35:15Z</time></trkpt><trkpt lat="30.796201874148554" lon="-4.95456742849516"><ele>708.0</ele><time>2026-03-23T11:35:16Z</time></trkpt><trkpt lat="30.796125595682366" lon="-4.954551309060665"><ele>708.0</ele><time>2026-03-23T11:35:17Z</time></trkpt><trkpt lat="30.796045313180514" lon="-4.954541221440842"><ele>708.0</ele><time>2026-03-23T11:35:18Z</time></trkpt><trkpt lat="30.79597457260652" lon="-4.954533567220877"><ele>708.0</ele><time>2026-03-23T11:35:19Z</time></trkpt><trkpt lat="30.795861213532696" lon="-4.954519451042843"><ele>708.0</ele><time>2026-03-23T11:35:21Z</time></trkpt><trkpt lat="30.79574652222216" lon="-4.95451259181617"><ele>708.1666666666666</ele><time>2026-03-23T11:35:23Z</time></trkpt><trkpt lat="30.795655889107028" lon="-4.954481525652008"><ele>708.3333333333334</ele><time>2026-03-23T11:35:25Z</time></trkpt><trkpt lat="30.795572565329007" lon="-4.954446928263527"><ele>708.5</ele><time>2026-03-23T11:35:27Z</time></trkpt><trkpt lat="30.79551161672843" lon="-4.9544209407689115"><ele>708.6666666666667</ele><time>2026-03-23T11:35:28Z</time></trkpt><trkpt lat="30.795420004947424" lon="-4.9543670920849285"><ele>708.8333333333334</ele><time>2026-03-23T11:35:30Z</time></trkpt><trkpt lat="30.79535376739159" lon="-4.954291952348347"><ele>709.0</ele><time>2026-03-23T11:35:32Z</time></trkpt><trkpt lat="30.795290311127527" lon="-4.954193802076641"><ele>708.6</ele><time>2026-03-23T11:35:34Z</time></trkpt><trkpt lat="30.795252492949174" lon="-4.95407226555825"><ele>708.2</ele><time>2026-03-23T11:35:36Z</time></trkpt><trkpt lat="30.79524559172363" lon="-4.953968699083448"><ele>707.8000000000001</ele><time>2026-03-23T11:35:37.001Z</time></trkpt><trkpt lat="30.79523329956192" lon="-4.953859042569357"><ele>707.4000000000001</ele><time>2026-03-23T11:35:38.001Z</time></trkpt><trkpt lat="30.795219826401958" lon="-4.953754030973929"><ele>707.0</ele><time>2026-03-23T11:35:39.001Z</time></trkpt><trkpt lat="30.795207359753846" lon="-4.9536487190955825"><ele>707.0</ele><time>2026-03-23T11:35:40.001Z</time></trkpt><trkpt lat="30.795192641500872" lon="-4.9535324977579585"><ele>707.0</ele><time>2026-03-23T11:35:41.001Z</time></trkpt><trkpt lat="30.795176473030548" lon="-4.953425806453972"><ele>707.0</ele><time>2026-03-23T11:35:42.001Z</time></trkpt><trkpt lat="30.79516231619913" lon="-4.953317920050458"><ele>707.0</ele><time>2026-03-23T11:35:43.001Z</time></trkpt><trkpt lat="30.79514931350228" lon="-4.953204986017874"><ele>707.0</ele><time>2026-03-23T11:35:44.001Z</time></trkpt><trkpt lat="30.795129658966296" lon="-4.9530802814381705"><ele>707.0</ele><time>2026-03-23T11:35:45.001Z</time></trkpt><trkpt lat="30.79511247339431" lon="-4.952948587203657"><ele>707.0</ele><time>2026-03-23T11:35:46.001Z</time></trkpt><trkpt lat="30.79509234308976" lon="-4.952801855003703"><ele>707.0</ele><time>2026-03-23T11:35:47.001Z</time></trkpt><trkpt lat="30.795075176597948" lon="-4.952654938903714"><ele>707.0</ele><time>2026-03-23T11:35:48.001Z</time></trkpt><trkpt lat="30.795052018646416" lon="-4.952492566559216"><ele>707.0</ele><time>2026-03-23T11:35:49.001Z</time></trkpt><trkpt lat="30.79502583819774" lon="-4.9523243181815"><ele>707.0</ele><time>2026-03-23T11:35:50.001Z</time></trkpt><trkpt lat="30.794999245201698" lon="-4.952150033071847"><ele>707.0</ele><time>2026-03-23T11:35:51.001Z</time></trkpt><trkpt lat="30.794976228989917" lon="-4.951952596032789"><ele>707.0</ele><time>2026-03-23T11:35:52.001Z</time></trkpt><trkpt lat="30.79495468697269" lon="-4.951760522149206"><ele>707.0</ele><time>2026-03-23T11:35:53.001Z</time></trkpt><trkpt lat="30.794932491386206" lon="-4.951595134639852"><ele>707.0</ele><time>2026-03-23T11:35:54.001Z</time></trkpt><trkpt lat="30.794910334573512" lon="-4.951434648187245"><ele>706.75</ele><time>2026-03-23T11:35:55.001Z</time></trkpt><trkpt lat="30.794886465784803" lon="-4.9512708489158355"><ele>706.5</ele><time>2026-03-23T11:35:56.001Z</time></trkpt><trkpt lat="30.794864634321776" lon="-4.951095115745884"><ele>706.25</ele><time>2026-03-23T11:35:57.001Z</time></trkpt><trkpt lat="30.794839828888012" lon="-4.950921211461732"><ele>706.0</ele><time>2026-03-23T11:35:58.001Z</time></trkpt><trkpt lat="30.794816328654708" lon="-4.950749342497993"><ele>705.0</ele><time>2026-03-23T11:35:59.001Z</time></trkpt><trkpt lat="30.79479404899984" lon="-4.950580974096513"><ele>704.0</ele><time>2026-03-23T11:36:00.001Z</time></trkpt><trkpt lat="30.79477121508495" lon="-4.950406410517217"><ele>703.0</ele><time>2026-03-23T11:36:01.001Z</time></trkpt><trkpt lat="30.794753760265237" lon="-4.950227591920797"><ele>703.0</ele><time>2026-03-23T11:36:02.001Z</time></trkpt><trkpt lat="30.794742372721025" lon="-4.950058094039165"><ele>703.0</ele><time>2026-03-23T11:36:03.001Z</time></trkpt><trkpt lat="30.794733291768512" lon="-4.949893822286573"><ele>703.0</ele><time>2026-03-23T11:36:04.001Z</time></trkpt><trkpt lat="30.794720782854675" lon="-4.949729482025947"><ele>703.0</ele><time>2026-03-23T11:36:05.001Z</time></trkpt><trkpt lat="30.794705921927353" lon="-4.949555151590258"><ele>702.3333333333334</ele><time>2026-03-23T11:36:06.001Z</time></trkpt><trkpt lat="30.794691160125616" lon="-4.949376157684602"><ele>701.6666666666666</ele><time>2026-03-23T11:36:07.001Z</time></trkpt><trkpt lat="30.794676199759223" lon="-4.949198958457112"><ele>701.0</ele><time>2026-03-23T11:36:08.001Z</time></trkpt><trkpt lat="30.79466399946554" lon="-4.949011495953473"><ele>701.0</ele><time>2026-03-23T11:36:09.001Z</time></trkpt><trkpt lat="30.794654853927824" lon="-4.948822843979047"><ele>701.0</ele><time>2026-03-23T11:36:10.001Z</time></trkpt><trkpt lat="30.794643191098768" lon="-4.9486353301166055"><ele>701.0</ele><time>2026-03-23T11:36:11.001Z</time></trkpt><trkpt lat="30.794634778332927" lon="-4.948448071845511"><ele>701.3333333333333</ele><time>2026-03-23T11:36:12.001Z</time></trkpt><trkpt lat="30.794614491996548" lon="-4.948258166792729"><ele>701.6666666666666</ele><time>2026-03-23T11:36:13.001Z</time></trkpt><trkpt lat="30.79459888081245" lon="-4.948068204259699"><ele>702.0</ele><time>2026-03-23T11:36:14.001Z</time></trkpt><trkpt lat="30.794591282637587" lon="-4.947876562933208"><ele>702.0</ele><time>2026-03-23T11:36:15.001Z</time></trkpt><trkpt lat="30.794582576944247" lon="-4.947684559172235"><ele>702.0</ele><time>2026-03-23T11:36:16.001Z</time></trkpt><trkpt lat="30.794564118363933" lon="-4.947489329925108"><ele>702.0</ele><time>2026-03-23T11:36:17.001Z</time></trkpt><trkpt lat="30.79453950909406" lon="-4.94729947887124"><ele>702.0</ele><time>2026-03-23T11:36:18.001Z</time></trkpt><trkpt lat="30.79451497810111" lon="-4.947110796757676"><ele>702.0</ele><time>2026-03-23T11:36:19.001Z</time></trkpt><trkpt lat="30.794478278024368" lon="-4.946917464044473"><ele>702.0</ele><time>2026-03-23T11:36:20.001Z</time></trkpt><trkpt lat="30.794428068071173" lon="-4.946741312738364"><ele>701.0</ele><time>2026-03-23T11:36:21.001Z</time></trkpt><trkpt lat="30.794382244183705" lon="-4.9465501937559315"><ele>700.0</ele><time>2026-03-23T11:36:22.001Z</time></trkpt><trkpt lat="30.794346010969168" lon="-4.94635457034728"><ele>699.0</ele><time>2026-03-23T11:36:23.001Z</time></trkpt><trkpt lat="30.79430548062146" lon="-4.946160962110392"><ele>699.0</ele><time>2026-03-23T11:36:24.001Z</time></trkpt><trkpt lat="30.79425915625393" lon="-4.945994229978846"><ele>699.0</ele><time>2026-03-23T11:36:25.001Z</time></trkpt><trkpt lat="30.794202274021064" lon="-4.945830142205356"><ele>699.0</ele><time>2026-03-23T11:36:26.001Z</time></trkpt><trkpt lat="30.794130002233963" lon="-4.9456609501793665"><ele>698.6666666666666</ele><time>2026-03-23T11:36:27.001Z</time></trkpt><trkpt lat="30.794050890369867" lon="-4.945491574302478"><ele>698.3333333333333</ele><time>2026-03-23T11:36:28.001Z</time></trkpt><trkpt lat="30.793964123881867" lon="-4.945322614155524"><ele>698.0</ele><time>2026-03-23T11:36:29.001Z</time></trkpt><trkpt lat="30.793872348580198" lon="-4.945152973220314"><ele>698.3333333333333</ele><time>2026-03-23T11:36:30.001Z</time></trkpt><trkpt lat="30.793774963831652" lon="-4.94498262533713"><ele>698.6666666666666</ele><time>2026-03-23T11:36:31.001Z</time></trkpt><trkpt lat="30.79366731172389" lon="-4.944811391037746"><ele>699.0</ele><time>2026-03-23T11:36:32.001Z</time></trkpt><trkpt lat="30.793568615565817" lon="-4.9446495548484055"><ele>699.3333333333334</ele><time>2026-03-23T11:36:33.001Z</time></trkpt><trkpt lat="30.793472383568464" lon="-4.944501289309845"><ele>699.6666666666667</ele><time>2026-03-23T11:36:34.001Z</time></trkpt><trkpt lat="30.793375007193763" lon="-4.944349245842693"><ele>700.0</ele><time>2026-03-23T11:36:35.001Z</time></trkpt><trkpt lat="30.79327522921212" lon="-4.944201584045103"><ele>700.0</ele><time>2026-03-23T11:36:36.001Z</time></trkpt><trkpt lat="30.79317004384797" lon="-4.944050279690167"><ele>700.0</ele><time>2026-03-23T11:36:37.001Z</time></trkpt><trkpt lat="30.79306053053907" lon="-4.943893491118483"><ele>700.0</ele><time>2026-03-23T11:36:38.001Z</time></trkpt><trkpt lat="30.79295281877425" lon="-4.943736467310355"><ele>700.0</ele><time>2026-03-23T11:36:39.001Z</time></trkpt><trkpt lat="30.792855675529292" lon="-4.943593388856482"><ele>700.0</ele><time>2026-03-23T11:36:40.001Z</time></trkpt><trkpt lat="30.792748925377303" lon="-4.943451701392514"><ele>700.0</ele><time>2026-03-23T11:36:41.001Z</time></trkpt><trkpt lat="30.79264244759382" lon="-4.943296965904976"><ele>700.25</ele><time>2026-03-23T11:36:42.001Z</time></trkpt><trkpt lat="30.792542227732188" lon="-4.94317830678899"><ele>700.5</ele><time>2026-03-23T11:36:43.001Z</time></trkpt><trkpt lat="30.792441530955255" lon="-4.9430737186757"><ele>700.75</ele><time>2026-03-23T11:36:44.001Z</time></trkpt><trkpt lat="30.792336052769446" lon="-4.942979313464745"><ele>701.0</ele><time>2026-03-23T11:36:45.001Z</time></trkpt><trkpt lat="30.79221764349076" lon="-4.94289408133963"><ele>701.0</ele><time>2026-03-23T11:36:46.001Z</time></trkpt><trkpt lat="30.792085889300793" lon="-4.942813741675565"><ele>701.0</ele><time>2026-03-23T11:36:47.001Z</time></trkpt><trkpt lat="30.791940040895998" lon="-4.942725270850879"><ele>701.0</ele><time>2026-03-23T11:36:48.001Z</time></trkpt><trkpt lat="30.791780916765997" lon="-4.9426365292426375"><ele>701.6666666666666</ele><time>2026-03-23T11:36:49.001Z</time></trkpt><trkpt lat="30.79160577153618" lon="-4.942557779568469"><ele>702.3333333333334</ele><time>2026-03-23T11:36:50.001Z</time></trkpt><trkpt lat="30.791448599263333" lon="-4.9424942204557425"><ele>703.0</ele><time>2026-03-23T11:36:51.001Z</time></trkpt><trkpt lat="30.791301342726857" lon="-4.942446616380052"><ele>701.6666666666667</ele><time>2026-03-23T11:36:52.001Z</time></trkpt><trkpt lat="30.791137892743453" lon="-4.942409870110687"><ele>700.3333333333334</ele><time>2026-03-23T11:36:53.001Z</time></trkpt><trkpt lat="30.790994960990837" lon="-4.942372679045566"><ele>699.0</ele><time>2026-03-23T11:36:54.001Z</time></trkpt><trkpt lat="30.7908437347708" lon="-4.942337725065466"><ele>698.75</ele><time>2026-03-23T11:36:55.002Z</time></trkpt><trkpt lat="30.790697476817762" lon="-4.942308444312534"><ele>698.5</ele><time>2026-03-23T11:36:56.002Z</time></trkpt><trkpt lat="30.790552298487963" lon="-4.942293526473671"><ele>698.25</ele><time>2026-03-23T11:36:57.002Z</time></trkpt><trkpt lat="30.790406071267803" lon="-4.9423037429936265"><ele>698.0</ele><time>2026-03-23T11:36:58.002Z</time></trkpt><trkpt lat="30.79025497443268" lon="-4.942331095274962"><ele>698.0</ele><time>2026-03-23T11:36:59.002Z</time></trkpt><trkpt lat="30.790109568369243" lon="-4.942366465315168"><ele>698.0</ele><time>2026-03-23T11:37:00.002Z</time></trkpt><trkpt lat="30.789973445771913" lon="-4.9424107575172185"><ele>698.0</ele><time>2026-03-23T11:37:01.002Z</time></trkpt><trkpt lat="30.78983683692868" lon="-4.942467079807165"><ele>698.0</ele><time>2026-03-23T11:37:02.002Z</time></trkpt><trkpt lat="30.78968676552296" lon="-4.942537407825889"><ele>699.0</ele><time>2026-03-23T11:37:03.002Z</time></trkpt><trkpt lat="30.78952119128959" lon="-4.942613422557346"><ele>700.0</ele><time>2026-03-23T11:37:04.002Z</time></trkpt><trkpt lat="30.789371843498596" lon="-4.9426807056338395"><ele>701.0</ele><time>2026-03-23T11:37:05.002Z</time></trkpt><trkpt lat="30.789224242899866" lon="-4.942745402972941"><ele>701.0</ele><time>2026-03-23T11:37:06.002Z</time></trkpt><trkpt lat="30.78906580825008" lon="-4.94281170281249"><ele>701.0</ele><time>2026-03-23T11:37:07Z</time></trkpt><trkpt lat="30.7889013377735" lon="-4.942868296631645"><ele>701.0</ele><time>2026-03-23T11:37:08Z</time></trkpt><trkpt lat="30.78872724954353" lon="-4.942928023913664"><ele>701.0</ele><time>2026-03-23T11:37:09Z</time></trkpt><trkpt lat="30.788554051402205" lon="-4.942996451861752"><ele>701.0</ele><time>2026-03-23T11:37:10Z</time></trkpt><trkpt lat="30.788396151538603" lon="-4.943070164177272"><ele>701.0</ele><time>2026-03-23T11:37:11Z</time></trkpt><trkpt lat="30.788242297532754" lon="-4.943142795293354"><ele>701.0</ele><time>2026-03-23T11:37:12Z</time></trkpt><trkpt lat="30.78808801969654" lon="-4.943209067191163"><ele>701.0</ele><time>2026-03-23T11:37:13Z</time></trkpt><trkpt lat="30.7879354238372" lon="-4.943270194897768"><ele>701.0</ele><time>2026-03-23T11:37:14Z</time></trkpt><trkpt lat="30.787783972838607" lon="-4.943337075170707"><ele>701.0</ele><time>2026-03-23T11:37:15Z</time></trkpt><trkpt lat="30.787632794691415" lon="-4.943399054715941"><ele>701.0</ele><time>2026-03-23T11:37:16Z</time></trkpt><trkpt lat="30.787486253616535" lon="-4.943453100392465"><ele>701.0</ele><time>2026-03-23T11:37:17Z</time></trkpt><trkpt lat="30.787339294470083" lon="-4.943511483755376"><ele>701.0</ele><time>2026-03-23T11:37:18Z</time></trkpt><trkpt lat="30.78719367183567" lon="-4.9435684639398545"><ele>701.0</ele><time>2026-03-23T11:37:19Z</time></trkpt><trkpt lat="30.78704471346259" lon="-4.943633564992185"><ele>701.0</ele><time>2026-03-23T11:37:20Z</time></trkpt><trkpt lat="30.786905620212305" lon="-4.9436858493572"><ele>701.0</ele><time>2026-03-23T11:37:21Z</time></trkpt><trkpt lat="30.786762404826185" lon="-4.943740515114358"><ele>701.0</ele><time>2026-03-23T11:37:22Z</time></trkpt><trkpt lat="30.786615661870414" lon="-4.943802344131026"><ele>701.0</ele><time>2026-03-23T11:37:23Z</time></trkpt><trkpt lat="30.78647566410518" lon="-4.943862532834605"><ele>701.0</ele><time>2026-03-23T11:37:24Z</time></trkpt><trkpt lat="30.786324555589317" lon="-4.943932179059471"><ele>701.0</ele><time>2026-03-23T11:37:25Z</time></trkpt><trkpt lat="30.78614999124528" lon="-4.944003236350101"><ele>701.0</ele><time>2026-03-23T11:37:26Z</time></trkpt><trkpt lat="30.785965573042134" lon="-4.944079339146053"><ele>700.6666666666666</ele><time>2026-03-23T11:37:27Z</time></trkpt><trkpt lat="30.78578733623501" lon="-4.94416089601536"><ele>700.3333333333334</ele><time>2026-03-23T11:37:28Z</time></trkpt><trkpt lat="30.785597557927407" lon="-4.944240729761248"><ele>700.0</ele><time>2026-03-23T11:37:29Z</time></trkpt><trkpt lat="30.78540870301025" lon="-4.9443094312067295"><ele>700.0</ele><time>2026-03-23T11:37:30Z</time></trkpt><trkpt lat="30.78522497966296" lon="-4.9443766057725975"><ele>700.0</ele><time>2026-03-23T11:37:31Z</time></trkpt><trkpt lat="30.785048098717432" lon="-4.944447137403251"><ele>700.0</ele><time>2026-03-23T11:37:32Z</time></trkpt><trkpt lat="30.784890363872673" lon="-4.944520412258852"><ele>699.6666666666667</ele><time>2026-03-23T11:37:33Z</time></trkpt><trkpt lat="30.78473015335446" lon="-4.944590209045664"><ele>699.3333333333334</ele><time>2026-03-23T11:37:34Z</time></trkpt><trkpt lat="30.784565336309623" lon="-4.944651236896215"><ele>699.0</ele><time>2026-03-23T11:37:35Z</time></trkpt><trkpt lat="30.784395875032455" lon="-4.944711624358065"><ele>699.0</ele><time>2026-03-23T11:37:36Z</time></trkpt><trkpt lat="30.78423215553272" lon="-4.944775920621069"><ele>699.0</ele><time>2026-03-23T11:37:37Z</time></trkpt><trkpt lat="30.784067507470272" lon="-4.944849347471958"><ele>699.0</ele><time>2026-03-23T11:37:38Z</time></trkpt><trkpt lat="30.783891801106268" lon="-4.944923799572396"><ele>699.0</ele><time>2026-03-23T11:37:39Z</time></trkpt><trkpt lat="30.783698545556636" lon="-4.945010925336788"><ele>699.0</ele><time>2026-03-23T11:37:40Z</time></trkpt><trkpt lat="30.783522117277357" lon="-4.945077754999494"><ele>699.0</ele><time>2026-03-23T11:37:41Z</time></trkpt><trkpt lat="30.78335229049246" lon="-4.9451461876904315"><ele>699.0</ele><time>2026-03-23T11:37:42Z</time></trkpt><trkpt lat="30.783196393970655" lon="-4.945207214464471"><ele>699.0</ele><time>2026-03-23T11:37:43Z</time></trkpt><trkpt lat="30.783030472360654" lon="-4.945282278266574"><ele>699.0</ele><time>2026-03-23T11:37:44Z</time></trkpt><trkpt lat="30.782868097780966" lon="-4.945352459187504"><ele>699.0</ele><time>2026-03-23T11:37:45.001Z</time></trkpt><trkpt lat="30.78270733843094" lon="-4.9454229675910595"><ele>699.0</ele><time>2026-03-23T11:37:46.001Z</time></trkpt><trkpt lat="30.782533769597272" lon="-4.945491573113202"><ele>699.0</ele><time>2026-03-23T11:37:47.001Z</time></trkpt><trkpt lat="30.782342865146877" lon="-4.945534245661105"><ele>699.3333333333334</ele><time>2026-03-23T11:37:48.001Z</time></trkpt><trkpt lat="30.782215056336444" lon="-4.945660574140039"><ele>699.6666666666667</ele><time>2026-03-23T11:37:49.001Z</time></trkpt><trkpt lat="30.782081743589224" lon="-4.945739467151343"><ele>700.0</ele><time>2026-03-23T11:37:50.001Z</time></trkpt><trkpt lat="30.78196114452225" lon="-4.945808915957175"><ele>699.6666666666667</ele><time>2026-03-23T11:37:51.001Z</time></trkpt><trkpt lat="30.781830047469857" lon="-4.945868530519254"><ele>699.3333333333334</ele><time>2026-03-23T11:37:52.001Z</time></trkpt><trkpt lat="30.781687564813343" lon="-4.945940373800564"><ele>699.0</ele><time>2026-03-23T11:37:53.001Z</time></trkpt><trkpt lat="30.781525983399874" lon="-4.946023010200241"><ele>699.6666666666666</ele><time>2026-03-23T11:37:54.001Z</time></trkpt><trkpt lat="30.78134046322012" lon="-4.946122887358971"><ele>700.3333333333333</ele><time>2026-03-23T11:37:55.001Z</time></trkpt><trkpt lat="30.781160813419742" lon="-4.946215233040019"><ele>701.0</ele><time>2026-03-23T11:37:56.001Z</time></trkpt><trkpt lat="30.780981496117917" lon="-4.946309846522915"><ele>701.0</ele><time>2026-03-23T11:37:57.001Z</time></trkpt><trkpt lat="30.780814057223782" lon="-4.946398087259301"><ele>701.0</ele><time>2026-03-23T11:37:58.001Z</time></trkpt><trkpt lat="30.780656143443956" lon="-4.946478839565924"><ele>701.0</ele><time>2026-03-23T11:37:59.001Z</time></trkpt><trkpt lat="30.78049646430729" lon="-4.946567562708459"><ele>701.0</ele><time>2026-03-23T11:38:00.001Z</time></trkpt><trkpt lat="30.780317466792766" lon="-4.94666277259389"><ele>701.0</ele><time>2026-03-23T11:38:01.001Z</time></trkpt><trkpt lat="30.78014443535595" lon="-4.946747885039639"><ele>701.0</ele><time>2026-03-23T11:38:02.001Z</time></trkpt><trkpt lat="30.77997453800523" lon="-4.946829060455544"><ele>701.3333333333333</ele><time>2026-03-23T11:38:03.001Z</time></trkpt><trkpt lat="30.779804343040336" lon="-4.946916263117667"><ele>701.6666666666666</ele><time>2026-03-23T11:38:04.001Z</time></trkpt><trkpt lat="30.77960895989884" lon="-4.947015767203285"><ele>702.0</ele><time>2026-03-23T11:38:05.001Z</time></trkpt><trkpt lat="30.77941180826265" lon="-4.9471202862489045"><ele>702.0</ele><time>2026-03-23T11:38:06.001Z</time></trkpt><trkpt lat="30.77922305285463" lon="-4.947230326091824"><ele>702.0</ele><time>2026-03-23T11:38:07.001Z</time></trkpt><trkpt lat="30.779056584159235" lon="-4.94731729310468"><ele>702.0</ele><time>2026-03-23T11:38:08.001Z</time></trkpt><trkpt lat="30.778902037039078" lon="-4.947387011658387"><ele>702.0</ele><time>2026-03-23T11:38:09.001Z</time></trkpt><trkpt lat="30.77876435817679" lon="-4.947453348538102"><ele>702.0</ele><time>2026-03-23T11:38:10.001Z</time></trkpt><trkpt lat="30.77864350814379" lon="-4.947518681635377"><ele>702.0</ele><time>2026-03-23T11:38:11.001Z</time></trkpt><trkpt lat="30.77853280803303" lon="-4.9475886885928135"><ele>702.0</ele><time>2026-03-23T11:38:12.001Z</time></trkpt><trkpt lat="30.77840870867432" lon="-4.947654641133553"><ele>701.3333333333334</ele><time>2026-03-23T11:38:13.001Z</time></trkpt><trkpt lat="30.77825814174282" lon="-4.947728657872976"><ele>700.6666666666667</ele><time>2026-03-23T11:38:14.001Z</time></trkpt><trkpt lat="30.778093058348965" lon="-4.947809954094746"><ele>700.0</ele><time>2026-03-23T11:38:15.001Z</time></trkpt><trkpt lat="30.777908014781232" lon="-4.947899826057701"><ele>700.0</ele><time>2026-03-23T11:38:16.001Z</time></trkpt><trkpt lat="30.777720789486157" lon="-4.947992333178758"><ele>700.0</ele><time>2026-03-23T11:38:17.001Z</time></trkpt><trkpt lat="30.777544871805162" lon="-4.948089807118103"><ele>700.0</ele><time>2026-03-23T11:38:18.001Z</time></trkpt><trkpt lat="30.77736168096218" lon="-4.948180139138472"><ele>700.3333333333334</ele><time>2026-03-23T11:38:19.001Z</time></trkpt><trkpt lat="30.777179696420102" lon="-4.948269464270389"><ele>700.6666666666666</ele><time>2026-03-23T11:38:20.001Z</time></trkpt><trkpt lat="30.777014228542853" lon="-4.948357298185759"><ele>701.0</ele><time>2026-03-23T11:38:21.001Z</time></trkpt><trkpt lat="30.77686942792921" lon="-4.948434861636118"><ele>701.3333333333333</ele><time>2026-03-23T11:38:22.001Z</time></trkpt><trkpt lat="30.776730622326223" lon="-4.948510372881013"><ele>701.6666666666666</ele><time>2026-03-23T11:38:23.001Z</time></trkpt><trkpt lat="30.776598830137242" lon="-4.948575467438179"><ele>702.0</ele><time>2026-03-23T11:38:24.001Z</time></trkpt><trkpt lat="30.77645669983068" lon="-4.948642980068739"><ele>702.0</ele><time>2026-03-23T11:38:25.001Z</time></trkpt><trkpt lat="30.776318314777946" lon="-4.948714349418603"><ele>702.0</ele><time>2026-03-23T11:38:26.001Z</time></trkpt><trkpt lat="30.776170128384503" lon="-4.948797923646216"><ele>702.0</ele><time>2026-03-23T11:38:27.001Z</time></trkpt><trkpt lat="30.776005117373305" lon="-4.948888253803041"><ele>702.6666666666666</ele><time>2026-03-23T11:38:28.001Z</time></trkpt><trkpt lat="30.77583678120875" lon="-4.948983483946977"><ele>703.3333333333333</ele><time>2026-03-23T11:38:29.001Z</time></trkpt><trkpt lat="30.775648472476366" lon="-4.9490673611587335"><ele>704.0</ele><time>2026-03-23T11:38:30.001Z</time></trkpt><trkpt lat="30.775477854319096" lon="-4.949149175243534"><ele>704.0</ele><time>2026-03-23T11:38:31.001Z</time></trkpt><trkpt lat="30.77531319615523" lon="-4.949244378485244"><ele>704.0</ele><time>2026-03-23T11:38:32.001Z</time></trkpt><trkpt lat="30.775159692966117" lon="-4.949325836823077"><ele>704.0</ele><time>2026-03-23T11:38:33.001Z</time></trkpt><trkpt lat="30.77500550009791" lon="-4.949403625741398"><ele>704.3333333333333</ele><time>2026-03-23T11:38:34.001Z</time></trkpt><trkpt lat="30.774842715477092" lon="-4.949495433216973"><ele>704.6666666666666</ele><time>2026-03-23T11:38:35.001Z</time></trkpt><trkpt lat="30.774675307315338" lon="-4.949582512451819"><ele>705.0</ele><time>2026-03-23T11:38:36.001Z</time></trkpt><trkpt lat="30.77451011556336" lon="-4.9496648370600935"><ele>705.0</ele><time>2026-03-23T11:38:37.001Z</time></trkpt><trkpt lat="30.774340532619807" lon="-4.949748376001678"><ele>705.0</ele><time>2026-03-23T11:38:38.001Z</time></trkpt><trkpt lat="30.77416699733438" lon="-4.949838155408012"><ele>705.0</ele><time>2026-03-23T11:38:39.001Z</time></trkpt><trkpt lat="30.773997639200232" lon="-4.949924968455653"><ele>705.0</ele><time>2026-03-23T11:38:40.001Z</time></trkpt><trkpt lat="30.773829982737894" lon="-4.95000879993628"><ele>705.0</ele><time>2026-03-23T11:38:41.001Z</time></trkpt><trkpt lat="30.773646516426947" lon="-4.9501084205745665"><ele>705.0</ele><time>2026-03-23T11:38:42.001Z</time></trkpt><trkpt lat="30.773443689072955" lon="-4.950214960460741"><ele>705.6666666666666</ele><time>2026-03-23T11:38:43.001Z</time></trkpt><trkpt lat="30.77324181066928" lon="-4.950321684066254"><ele>706.3333333333333</ele><time>2026-03-23T11:38:44.001Z</time></trkpt><trkpt lat="30.773051372231222" lon="-4.950424874132521"><ele>707.0</ele><time>2026-03-23T11:38:45.001Z</time></trkpt><trkpt lat="30.772869567452673" lon="-4.950523030505492"><ele>706.6666666666666</ele><time>2026-03-23T11:38:46.001Z</time></trkpt><trkpt lat="30.77268886882181" lon="-4.950609050744148"><ele>706.3333333333334</ele><time>2026-03-23T11:38:47.001Z</time></trkpt><trkpt lat="30.772496629384595" lon="-4.950697287689998"><ele>706.0</ele><time>2026-03-23T11:38:48.001Z</time></trkpt><trkpt lat="30.77229969220511" lon="-4.950799243994874"><ele>706.3333333333334</ele><time>2026-03-23T11:38:49.001Z</time></trkpt><trkpt lat="30.772096444068854" lon="-4.950908800794495"><ele>706.6666666666666</ele><time>2026-03-23T11:38:50.001Z</time></trkpt><trkpt lat="30.771905089524136" lon="-4.951013840837666"><ele>707.0</ele><time>2026-03-23T11:38:51.001Z</time></trkpt><trkpt lat="30.771730979293388" lon="-4.9511125347592895"><ele>706.3333333333333</ele><time>2026-03-23T11:38:52.001Z</time></trkpt><trkpt lat="30.771543912576277" lon="-4.951210046504911"><ele>705.6666666666666</ele><time>2026-03-23T11:38:53.001Z</time></trkpt><trkpt lat="30.771343184056995" lon="-4.951320263158963"><ele>705.0</ele><time>2026-03-23T11:38:54.001Z</time></trkpt><trkpt lat="30.771142463702386" lon="-4.95142802011139"><ele>706.0</ele><time>2026-03-23T11:38:55.001Z</time></trkpt><trkpt lat="30.770970376816265" lon="-4.951508458440465"><ele>707.0</ele><time>2026-03-23T11:38:56.001Z</time></trkpt><trkpt lat="30.770822775927076" lon="-4.9515841184590945"><ele>708.0</ele><time>2026-03-23T11:38:57.001Z</time></trkpt><trkpt lat="30.770684223220094" lon="-4.95166125140383"><ele>708.0</ele><time>2026-03-23T11:38:58.001Z</time></trkpt><trkpt lat="30.770552235183693" lon="-4.951734503440914"><ele>708.0</ele><time>2026-03-23T11:38:59.001Z</time></trkpt><trkpt lat="30.770436726822037" lon="-4.951803712120498"><ele>708.0</ele><time>2026-03-23T11:39:00.001Z</time></trkpt><trkpt lat="30.77034107942953" lon="-4.951873182300386"><ele>708.0</ele><time>2026-03-23T11:39:01.001Z</time></trkpt><trkpt lat="30.770240363660914" lon="-4.9519319677372815"><ele>707.5</ele><time>2026-03-23T11:39:02.001Z</time></trkpt><trkpt lat="30.770138827479688" lon="-4.951965474583059"><ele>707.0</ele><time>2026-03-23T11:39:03.001Z</time></trkpt><trkpt lat="30.77000849611743" lon="-4.952001794140202"><ele>706.5</ele><time>2026-03-23T11:39:04.001Z</time></trkpt><trkpt lat="30.76987358381038" lon="-4.952046411906767"><ele>706.0</ele><time>2026-03-23T11:39:05.001Z</time></trkpt><trkpt lat="30.769747289517507" lon="-4.952108487712105"><ele>706.0</ele><time>2026-03-23T11:39:06.001Z</time></trkpt><trkpt lat="30.769632147186822" lon="-4.952186036160455"><ele>706.0</ele><time>2026-03-23T11:39:07.001Z</time></trkpt><trkpt lat="30.76953254628611" lon="-4.952259882528912"><ele>706.0</ele><time>2026-03-23T11:39:08.002Z</time></trkpt><trkpt lat="30.769413275275895" lon="-4.952336223570652"><ele>706.0</ele><time>2026-03-23T11:39:09.002Z</time></trkpt><trkpt lat="30.769290372368182" lon="-4.952402992351301"><ele>706.3333333333334</ele><time>2026-03-23T11:39:10.002Z</time></trkpt><trkpt lat="30.76914575165717" lon="-4.9524696095671015"><ele>706.6666666666666</ele><time>2026-03-23T11:39:11.002Z</time></trkpt><trkpt lat="30.768977288901432" lon="-4.952556256152301"><ele>707.0</ele><time>2026-03-23T11:39:12.002Z</time></trkpt><trkpt lat="30.768806854959873" lon="-4.952649647946512"><ele>707.0</ele><time>2026-03-23T11:39:13Z</time></trkpt><trkpt lat="30.768617439091518" lon="-4.952745366251003"><ele>707.0</ele><time>2026-03-23T11:39:14Z</time></trkpt><trkpt lat="30.76842528935284" lon="-4.952845312439243"><ele>707.0</ele><time>2026-03-23T11:39:15Z</time></trkpt><trkpt lat="30.768257613601616" lon="-4.952931879182558"><ele>706.75</ele><time>2026-03-23T11:39:16Z</time></trkpt><trkpt lat="30.76811318607516" lon="-4.953004220889619"><ele>706.5</ele><time>2026-03-23T11:39:17Z</time></trkpt><trkpt lat="30.767982697727714" lon="-4.953073424316126"><ele>706.25</ele><time>2026-03-23T11:39:18Z</time></trkpt><trkpt lat="30.767865671289023" lon="-4.95313501664026"><ele>706.0</ele><time>2026-03-23T11:39:19Z</time></trkpt><trkpt lat="30.767753819171663" lon="-4.953193359871666"><ele>706.0</ele><time>2026-03-23T11:39:20Z</time></trkpt><trkpt lat="30.76762798919" lon="-4.953258088924844"><ele>706.0</ele><time>2026-03-23T11:39:21Z</time></trkpt><trkpt lat="30.7674976888596" lon="-4.953322233162289"><ele>706.0</ele><time>2026-03-23T11:39:22Z</time></trkpt><trkpt lat="30.767362402920718" lon="-4.953392217511176"><ele>706.0</ele><time>2026-03-23T11:39:23Z</time></trkpt><trkpt lat="30.76722850583842" lon="-4.953465880784875"><ele>706.0</ele><time>2026-03-23T11:39:24Z</time></trkpt><trkpt lat="30.76711362768185" lon="-4.953527276925522"><ele>706.0</ele><time>2026-03-23T11:39:25Z</time></trkpt><trkpt lat="30.76700405413666" lon="-4.9535840527362"><ele>706.0</ele><time>2026-03-23T11:39:26Z</time></trkpt><trkpt lat="30.76688325013544" lon="-4.953646370408407"><ele>706.0</ele><time>2026-03-23T11:39:27Z</time></trkpt><trkpt lat="30.766754046218125" lon="-4.953714767343147"><ele>705.3333333333334</ele><time>2026-03-23T11:39:28Z</time></trkpt><trkpt lat="30.766620653162303" lon="-4.953782964013151"><ele>704.6666666666666</ele><time>2026-03-23T11:39:29Z</time></trkpt><trkpt lat="30.766479352212873" lon="-4.953861774665229"><ele>704.0</ele><time>2026-03-23T11:39:30Z</time></trkpt><trkpt lat="30.766330997482996" lon="-4.953942832079529"><ele>704.0</ele><time>2026-03-23T11:39:31Z</time></trkpt><trkpt lat="30.766171324666615" lon="-4.95401422573351"><ele>704.0</ele><time>2026-03-23T11:39:32Z</time></trkpt><trkpt lat="30.766017235201467" lon="-4.954086547050428"><ele>704.0</ele><time>2026-03-23T11:39:33Z</time></trkpt><trkpt lat="30.7658569390164" lon="-4.954173170698571"><ele>703.0</ele><time>2026-03-23T11:39:34Z</time></trkpt><trkpt lat="30.765691430392035" lon="-4.954263355856079"><ele>702.0</ele><time>2026-03-23T11:39:35Z</time></trkpt><trkpt lat="30.765526899470597" lon="-4.954352478911521"><ele>701.0</ele><time>2026-03-23T11:39:36Z</time></trkpt><trkpt lat="30.76536648638692" lon="-4.954439688928192"><ele>701.0</ele><time>2026-03-23T11:39:37Z</time></trkpt><trkpt lat="30.765204273001398" lon="-4.954526333286467"><ele>701.0</ele><time>2026-03-23T11:39:38Z</time></trkpt><trkpt lat="30.765043507964187" lon="-4.954612095905223"><ele>701.0</ele><time>2026-03-23T11:39:39Z</time></trkpt><trkpt lat="30.764881728460665" lon="-4.9546901897478195"><ele>701.3333333333333</ele><time>2026-03-23T11:39:40Z</time></trkpt><trkpt lat="30.76470762271003" lon="-4.954783375360217"><ele>701.6666666666666</ele><time>2026-03-23T11:39:41Z</time></trkpt><trkpt lat="30.76452668529591" lon="-4.9548691238284395"><ele>702.0</ele><time>2026-03-23T11:39:42Z</time></trkpt><trkpt lat="30.76435977709953" lon="-4.9549575577686635"><ele>702.0</ele><time>2026-03-23T11:39:43Z</time></trkpt><trkpt lat="30.764201835928276" lon="-4.955047857639674"><ele>702.0</ele><time>2026-03-23T11:39:44Z</time></trkpt><trkpt lat="30.76405182586444" lon="-4.955128853845489"><ele>702.0</ele><time>2026-03-23T11:39:45Z</time></trkpt><trkpt lat="30.76389763774248" lon="-4.955206320116944"><ele>702.0</ele><time>2026-03-23T11:39:46Z</time></trkpt><trkpt lat="30.763741347919233" lon="-4.955287948333416"><ele>702.0</ele><time>2026-03-23T11:39:47Z</time></trkpt><trkpt lat="30.763597676193758" lon="-4.955360397676212"><ele>702.0</ele><time>2026-03-23T11:39:48Z</time></trkpt><trkpt lat="30.763438806162657" lon="-4.955439899264727"><ele>701.6666666666666</ele><time>2026-03-23T11:39:49Z</time></trkpt><trkpt lat="30.76329108232382" lon="-4.955516320506143"><ele>701.3333333333333</ele><time>2026-03-23T11:39:50Z</time></trkpt><trkpt lat="30.763123622818334" lon="-4.955601672102283"><ele>701.0</ele><time>2026-03-23T11:39:51Z</time></trkpt><trkpt lat="30.762943247588368" lon="-4.95570333265177"><ele>701.0</ele><time>2026-03-23T11:39:52Z</time></trkpt><trkpt lat="30.7627576300979" lon="-4.955798182071804"><ele>701.0</ele><time>2026-03-23T11:39:53Z</time></trkpt><trkpt lat="30.762586070181182" lon="-4.955882823509043"><ele>701.0</ele><time>2026-03-23T11:39:54Z</time></trkpt><trkpt lat="30.7624135157585" lon="-4.955966330065492"><ele>701.0</ele><time>2026-03-23T11:39:55Z</time></trkpt><trkpt lat="30.76223641629912" lon="-4.9560650480785"><ele>701.0</ele><time>2026-03-23T11:39:56Z</time></trkpt><trkpt lat="30.76208312226834" lon="-4.956157728216763"><ele>701.0</ele><time>2026-03-23T11:39:57Z</time></trkpt><trkpt lat="30.761947591647935" lon="-4.956224767296119"><ele>701.25</ele><time>2026-03-23T11:39:58Z</time></trkpt><trkpt lat="30.761829224857195" lon="-4.956285068932652"><ele>701.5</ele><time>2026-03-23T11:39:59Z</time></trkpt><trkpt lat="30.76170849841144" lon="-4.956348626874743"><ele>701.75</ele><time>2026-03-23T11:40:00Z</time></trkpt><trkpt lat="30.761564641509846" lon="-4.956421979483818"><ele>702.0</ele><time>2026-03-23T11:40:01Z</time></trkpt><trkpt lat="30.761393594887437" lon="-4.956508150760186"><ele>702.0</ele><time>2026-03-23T11:40:02Z</time></trkpt><trkpt lat="30.761196676915823" lon="-4.9566025162042395"><ele>702.0</ele><time>2026-03-23T11:40:03Z</time></trkpt><trkpt lat="30.760985116967127" lon="-4.956710074422867"><ele>702.0</ele><time>2026-03-23T11:40:04Z</time></trkpt><trkpt lat="30.760773537125253" lon="-4.9568225359438705"><ele>701.3333333333334</ele><time>2026-03-23T11:40:05.001Z</time></trkpt><trkpt lat="30.76056397979662" lon="-4.956930840880877"><ele>700.6666666666667</ele><time>2026-03-23T11:40:06.001Z</time></trkpt><trkpt lat="30.76037673948077" lon="-4.957029329648878"><ele>700.0</ele><time>2026-03-23T11:40:07.001Z</time></trkpt><trkpt lat="30.760212262646515" lon="-4.957117878635594"><ele>699.3333333333334</ele><time>2026-03-23T11:40:08.001Z</time></trkpt><trkpt lat="30.760068361901165" lon="-4.957188721268656"><ele>698.6666666666666</ele><time>2026-03-23T11:40:09.001Z</time></trkpt><trkpt lat="30.759946231604534" lon="-4.9572579671855195"><ele>698.0</ele><time>2026-03-23T11:40:10.001Z</time></trkpt><trkpt lat="30.759802348902348" lon="-4.957342799265522"><ele>698.0</ele><time>2026-03-23T11:40:11.001Z</time></trkpt><trkpt lat="30.759624128227824" lon="-4.9574359918045685"><ele>698.0</ele><time>2026-03-23T11:40:12.001Z</time></trkpt><trkpt lat="30.759428636601935" lon="-4.957533029671191"><ele>698.0</ele><time>2026-03-23T11:40:13.001Z</time></trkpt><trkpt lat="30.759216185176893" lon="-4.957633689531528"><ele>697.5</ele><time>2026-03-23T11:40:14.001Z</time></trkpt><trkpt lat="30.758997783509688" lon="-4.957746268685403"><ele>697.0</ele><time>2026-03-23T11:40:15.001Z</time></trkpt><trkpt lat="30.75878488673448" lon="-4.957863786340652"><ele>697.0</ele><time>2026-03-23T11:40:16.001Z</time></trkpt><trkpt lat="30.75857608297178" lon="-4.957977482608889"><ele>697.0</ele><time>2026-03-23T11:40:17.001Z</time></trkpt><trkpt lat="30.758380471932767" lon="-4.95808299412744"><ele>697.0</ele><time>2026-03-23T11:40:18.001Z</time></trkpt><trkpt lat="30.75819571931561" lon="-4.958180400588121"><ele>697.3333333333334</ele><time>2026-03-23T11:40:19.001Z</time></trkpt><trkpt lat="30.758026078140944" lon="-4.95826393542376"><ele>697.6666666666666</ele><time>2026-03-23T11:40:20.001Z</time></trkpt><trkpt lat="30.75788225374988" lon="-4.958345519835421"><ele>698.0</ele><time>2026-03-23T11:40:21.001Z</time></trkpt><trkpt lat="30.757749946784184" lon="-4.9584254249088815"><ele>697.0</ele><time>2026-03-23T11:40:22.001Z</time></trkpt><trkpt lat="30.75761156242468" lon="-4.9584952564356435"><ele>696.0</ele><time>2026-03-23T11:40:23.001Z</time></trkpt><trkpt lat="30.757471350232084" lon="-4.958549691890473"><ele>695.0</ele><time>2026-03-23T11:40:24.001Z</time></trkpt><trkpt lat="30.75732450406914" lon="-4.958618003139624"><ele>695.0</ele><time>2026-03-23T11:40:25.001Z</time></trkpt><trkpt lat="30.75717506621797" lon="-4.958694843791905"><ele>695.0</ele><time>2026-03-23T11:40:26.001Z</time></trkpt><trkpt lat="30.757043573596526" lon="-4.958763013772962"><ele>695.0</ele><time>2026-03-23T11:40:27.001Z</time></trkpt><trkpt lat="30.756924356474816" lon="-4.958836766799466"><ele>695.0</ele><time>2026-03-23T11:40:28.001Z</time></trkpt><trkpt lat="30.756787813586595" lon="-4.958917639164339"><ele>694.6666666666666</ele><time>2026-03-23T11:40:29.001Z</time></trkpt><trkpt lat="30.756636660617964" lon="-4.958997074888613"><ele>694.3333333333334</ele><time>2026-03-23T11:40:30.001Z</time></trkpt><trkpt lat="30.756482387290053" lon="-4.959067355880549"><ele>694.0</ele><time>2026-03-23T11:40:31.001Z</time></trkpt><trkpt lat="30.756316285730584" lon="-4.959157387776013"><ele>694.0</ele><time>2026-03-23T11:40:32.001Z</time></trkpt><trkpt lat="30.756151040750193" lon="-4.959246814822629"><ele>694.0</ele><time>2026-03-23T11:40:33.001Z</time></trkpt><trkpt lat="30.75596118101626" lon="-4.959341657628154"><ele>694.0</ele><time>2026-03-23T11:40:34.001Z</time></trkpt><trkpt lat="30.755789553067537" lon="-4.959435446945427"><ele>694.0</ele><time>2026-03-23T11:40:35.001Z</time></trkpt><trkpt lat="30.755629997159886" lon="-4.959519366292931"><ele>694.0</ele><time>2026-03-23T11:40:36.001Z</time></trkpt><trkpt lat="30.755467176342975" lon="-4.95960950622311"><ele>694.0</ele><time>2026-03-23T11:40:37.001Z</time></trkpt><trkpt lat="30.755287586123867" lon="-4.959704661618045"><ele>693.0</ele><time>2026-03-23T11:40:38.001Z</time></trkpt><trkpt lat="30.755077125743263" lon="-4.959812161103847"><ele>692.0</ele><time>2026-03-23T11:40:39.001Z</time></trkpt><trkpt lat="30.754891892632994" lon="-4.9599104222916415"><ele>691.0</ele><time>2026-03-23T11:40:40.001Z</time></trkpt><trkpt lat="30.754738763062868" lon="-4.959984749102222"><ele>691.0</ele><time>2026-03-23T11:40:41.001Z</time></trkpt><trkpt lat="30.754572743953663" lon="-4.960069018521629"><ele>691.0</ele><time>2026-03-23T11:40:42.001Z</time></trkpt><trkpt lat="30.754374377200566" lon="-4.960164696863423"><ele>691.0</ele><time>2026-03-23T11:40:43.001Z</time></trkpt><trkpt lat="30.754157024157102" lon="-4.96026930259686"><ele>691.0</ele><time>2026-03-23T11:40:44.001Z</time></trkpt><trkpt lat="30.75392110949693" lon="-4.9603839201987245"><ele>691.0</ele><time>2026-03-23T11:40:45.001Z</time></trkpt><trkpt lat="30.753721482551498" lon="-4.960480361795228"><ele>691.0</ele><time>2026-03-23T11:40:46.001Z</time></trkpt><trkpt lat="30.75355993374995" lon="-4.960559375370574"><ele>691.0</ele><time>2026-03-23T11:40:47.001Z</time></trkpt><trkpt lat="30.75344267277278" lon="-4.960616772885764"><ele>691.0</ele><time>2026-03-23T11:40:48.001Z</time></trkpt><trkpt lat="30.753331528184162" lon="-4.960667981623631"><ele>691.0</ele><time>2026-03-23T11:40:49.001Z</time></trkpt><trkpt lat="30.75320468255349" lon="-4.960726338791338"><ele>691.5</ele><time>2026-03-23T11:40:50.001Z</time></trkpt><trkpt lat="30.753082607476657" lon="-4.9607873738303745"><ele>692.0</ele><time>2026-03-23T11:40:51.001Z</time></trkpt><trkpt lat="30.75295177350977" lon="-4.960853397250876"><ele>692.5</ele><time>2026-03-23T11:40:52.001Z</time></trkpt><trkpt lat="30.752822113140887" lon="-4.960932127986718"><ele>693.0</ele><time>2026-03-23T11:40:53.001Z</time></trkpt><trkpt lat="30.752696317847022" lon="-4.961013662212089"><ele>693.25</ele><time>2026-03-23T11:40:54.001Z</time></trkpt><trkpt lat="30.752571924101108" lon="-4.961088257658434"><ele>693.5</ele><time>2026-03-23T11:40:55.001Z</time></trkpt><trkpt lat="30.752461049551727" lon="-4.96115253238416"><ele>693.75</ele><time>2026-03-23T11:40:56.001Z</time></trkpt><trkpt lat="30.752348074560427" lon="-4.961219114037408"><ele>694.0</ele><time>2026-03-23T11:40:57.001Z</time></trkpt><trkpt lat="30.752220375591794" lon="-4.961288669162395"><ele>694.0</ele><time>2026-03-23T11:40:58.001Z</time></trkpt><trkpt lat="30.75207088419568" lon="-4.961366256904676"><ele>694.0</ele><time>2026-03-23T11:40:59.001Z</time></trkpt><trkpt lat="30.751945106782717" lon="-4.961434927254772"><ele>694.0</ele><time>2026-03-23T11:41:00.001Z</time></trkpt><trkpt lat="30.75182988205379" lon="-4.961498131304319"><ele>694.0</ele><time>2026-03-23T11:41:01.001Z</time></trkpt><trkpt lat="30.751695302735563" lon="-4.961564415406776"><ele>694.0</ele><time>2026-03-23T11:41:02.001Z</time></trkpt><trkpt lat="30.751551293813403" lon="-4.961637246540581"><ele>694.0</ele><time>2026-03-23T11:41:03.001Z</time></trkpt><trkpt lat="30.751399165507664" lon="-4.961706753365155"><ele>694.0</ele><time>2026-03-23T11:41:04.001Z</time></trkpt><trkpt lat="30.75127389277648" lon="-4.961797159661508"><ele>694.0</ele><time>2026-03-23T11:41:05.001Z</time></trkpt><trkpt lat="30.751159660418967" lon="-4.961893627582278"><ele>694.0</ele><time>2026-03-23T11:41:06.001Z</time></trkpt><trkpt lat="30.75102362823928" lon="-4.961955457033133"><ele>694.0</ele><time>2026-03-23T11:41:07.001Z</time></trkpt><trkpt lat="30.750868689939125" lon="-4.962006470578055"><ele>694.0</ele><time>2026-03-23T11:41:08.001Z</time></trkpt><trkpt lat="30.75071882137903" lon="-4.962092674445255"><ele>694.0</ele><time>2026-03-23T11:41:09.001Z</time></trkpt><trkpt lat="30.750543604161635" lon="-4.962179619667612"><ele>694.0</ele><time>2026-03-23T11:41:10.001Z</time></trkpt><trkpt lat="30.750352134621814" lon="-4.962282167704979"><ele>694.0</ele><time>2026-03-23T11:41:11.001Z</time></trkpt><trkpt lat="30.750182052266734" lon="-4.962367755178536"><ele>694.0</ele><time>2026-03-23T11:41:12.001Z</time></trkpt><trkpt lat="30.750026374173096" lon="-4.962448836829912"><ele>694.0</ele><time>2026-03-23T11:41:13.001Z</time></trkpt><trkpt lat="30.74985132254055" lon="-4.962540312728056"><ele>694.0</ele><time>2026-03-23T11:41:14.001Z</time></trkpt><trkpt lat="30.749686608340216" lon="-4.962634469513699"><ele>694.0</ele><time>2026-03-23T11:41:15.001Z</time></trkpt><trkpt lat="30.74953933498545" lon="-4.962709491025817"><ele>694.0</ele><time>2026-03-23T11:41:16.001Z</time></trkpt><trkpt lat="30.7493888093124" lon="-4.96278608494778"><ele>694.0</ele><time>2026-03-23T11:41:17.001Z</time></trkpt><trkpt lat="30.74923419872683" lon="-4.962868906953944"><ele>693.3333333333334</ele><time>2026-03-23T11:41:18.001Z</time></trkpt><trkpt lat="30.749058631468095" lon="-4.962959364212982"><ele>692.6666666666666</ele><time>2026-03-23T11:41:19Z</time></trkpt><trkpt lat="30.7488801065857" lon="-4.963055368430142"><ele>692.0</ele><time>2026-03-23T11:41:20Z</time></trkpt><trkpt lat="30.748706991457944" lon="-4.963133064666266"><ele>692.0</ele><time>2026-03-23T11:41:21Z</time></trkpt><trkpt lat="30.748535944793453" lon="-4.963215173874381"><ele>692.0</ele><time>2026-03-23T11:41:22Z</time></trkpt><trkpt lat="30.748347979593493" lon="-4.963322034247382"><ele>692.0</ele><time>2026-03-23T11:41:23Z</time></trkpt><trkpt lat="30.748143262089442" lon="-4.963429343179895"><ele>692.0</ele><time>2026-03-23T11:41:24Z</time></trkpt><trkpt lat="30.747923871147314" lon="-4.963546310612973"><ele>692.0</ele><time>2026-03-23T11:41:25Z</time></trkpt><trkpt lat="30.747735037086454" lon="-4.963647741853273"><ele>692.0</ele><time>2026-03-23T11:41:26Z</time></trkpt><trkpt lat="30.747577394065203" lon="-4.963728317445269"><ele>691.6666666666666</ele><time>2026-03-23T11:41:27Z</time></trkpt><trkpt lat="30.747411049785896" lon="-4.963813171966794"><ele>691.3333333333334</ele><time>2026-03-23T11:41:28Z</time></trkpt><trkpt lat="30.747231629229137" lon="-4.9639009314658225"><ele>691.0</ele><time>2026-03-23T11:41:29Z</time></trkpt><trkpt lat="30.747049233042027" lon="-4.963999213743925"><ele>691.3333333333334</ele><time>2026-03-23T11:41:30Z</time></trkpt><trkpt lat="30.74686749344775" lon="-4.96409858344003"><ele>691.6666666666666</ele><time>2026-03-23T11:41:31Z</time></trkpt><trkpt lat="30.74670328458036" lon="-4.964180952852296"><ele>692.0</ele><time>2026-03-23T11:41:32Z</time></trkpt><trkpt lat="30.746557373556968" lon="-4.964264658304165"><ele>692.0</ele><time>2026-03-23T11:41:33Z</time></trkpt><trkpt lat="30.746425880643283" lon="-4.964339802889855"><ele>692.0</ele><time>2026-03-23T11:41:34Z</time></trkpt><trkpt lat="30.746278658580472" lon="-4.964406972974239"><ele>692.0</ele><time>2026-03-23T11:41:35Z</time></trkpt><trkpt lat="30.74611841404163" lon="-4.96449264064242"><ele>691.6666666666666</ele><time>2026-03-23T11:41:36Z</time></trkpt><trkpt lat="30.745951397765936" lon="-4.964582949457016"><ele>691.3333333333334</ele><time>2026-03-23T11:41:37Z</time></trkpt><trkpt lat="30.745794903446594" lon="-4.964669809748692"><ele>691.0</ele><time>2026-03-23T11:41:38Z</time></trkpt><trkpt lat="30.74565272252167" lon="-4.964743907734865"><ele>691.0</ele><time>2026-03-23T11:41:39Z</time></trkpt><trkpt lat="30.745505680660248" lon="-4.964815650252305"><ele>691.0</ele><time>2026-03-23T11:41:40Z</time></trkpt><trkpt lat="30.745359970131464" lon="-4.964893478230266"><ele>691.0</ele><time>2026-03-23T11:41:41Z</time></trkpt><trkpt lat="30.7452065721117" lon="-4.964973153963872"><ele>691.3333333333334</ele><time>2026-03-23T11:41:42Z</time></trkpt><trkpt lat="30.745044077054807" lon="-4.965059031185679"><ele>691.6666666666666</ele><time>2026-03-23T11:41:43Z</time></trkpt><trkpt lat="30.744874688431608" lon="-4.965152656380809"><ele>692.0</ele><time>2026-03-23T11:41:44Z</time></trkpt><trkpt lat="30.744683832869757" lon="-4.96525263218505"><ele>692.0</ele><time>2026-03-23T11:41:45Z</time></trkpt><trkpt lat="30.744494699815423" lon="-4.96534289256575"><ele>692.0</ele><time>2026-03-23T11:41:46Z</time></trkpt><trkpt lat="30.744312348320033" lon="-4.965431572755977"><ele>692.0</ele><time>2026-03-23T11:41:47Z</time></trkpt><trkpt lat="30.744161077839387" lon="-4.965513352473164"><ele>691.6666666666666</ele><time>2026-03-23T11:41:48Z</time></trkpt><trkpt lat="30.74400131524934" lon="-4.965598354835777"><ele>691.3333333333334</ele><time>2026-03-23T11:41:49Z</time></trkpt><trkpt lat="30.743854468492447" lon="-4.965676260137992"><ele>691.0</ele><time>2026-03-23T11:41:50Z</time></trkpt><trkpt lat="30.74372042724497" lon="-4.965749314926903"><ele>691.0</ele><time>2026-03-23T11:41:51Z</time></trkpt><trkpt lat="30.743583525233255" lon="-4.965818607524491"><ele>691.0</ele><time>2026-03-23T11:41:52Z</time></trkpt><trkpt lat="30.743441856992295" lon="-4.965889927686433"><ele>691.0</ele><time>2026-03-23T11:41:53Z</time></trkpt><trkpt lat="30.74329195854164" lon="-4.965970183598735"><ele>690.6666666666667</ele><time>2026-03-23T11:41:54Z</time></trkpt><trkpt lat="30.74313287181416" lon="-4.966054444870139"><ele>690.3333333333334</ele><time>2026-03-23T11:41:55Z</time></trkpt><trkpt lat="30.742964809414786" lon="-4.9661430588188225"><ele>690.0</ele><time>2026-03-23T11:41:56Z</time></trkpt><trkpt lat="30.742814771380854" lon="-4.9662244982603285"><ele>689.6666666666666</ele><time>2026-03-23T11:41:57Z</time></trkpt><trkpt lat="30.74267996846171" lon="-4.966292230791867"><ele>689.3333333333333</ele><time>2026-03-23T11:41:58.001Z</time></trkpt><trkpt lat="30.742540065664322" lon="-4.966364245815975"><ele>689.0</ele><time>2026-03-23T11:41:59.001Z</time></trkpt><trkpt lat="30.742383964257048" lon="-4.966452990491357"><ele>689.0</ele><time>2026-03-23T11:42:00.001Z</time></trkpt><trkpt lat="30.742223141540173" lon="-4.96653840202336"><ele>689.0</ele><time>2026-03-23T11:42:01.001Z</time></trkpt><trkpt lat="30.742050462297986" lon="-4.966627623995594"><ele>689.0</ele><time>2026-03-23T11:42:02.001Z</time></trkpt><trkpt lat="30.74188570596546" lon="-4.966724777438789"><ele>689.0</ele><time>2026-03-23T11:42:03.001Z</time></trkpt><trkpt lat="30.74170334729472" lon="-4.9668293878040295"><ele>689.0</ele><time>2026-03-23T11:42:04.001Z</time></trkpt><trkpt lat="30.7415161663917" lon="-4.966905439592895"><ele>689.0</ele><time>2026-03-23T11:42:05.001Z</time></trkpt><trkpt lat="30.741351144643474" lon="-4.966985578791971"><ele>689.0</ele><time>2026-03-23T11:42:06.001Z</time></trkpt><trkpt lat="30.74121074115783" lon="-4.967063068594713"><ele>689.0</ele><time>2026-03-23T11:42:07.001Z</time></trkpt><trkpt lat="30.741084003210624" lon="-4.967125108544005"><ele>689.0</ele><time>2026-03-23T11:42:08.001Z</time></trkpt><trkpt lat="30.740961734983596" lon="-4.967189845874726"><ele>689.0</ele><time>2026-03-23T11:42:09.001Z</time></trkpt><trkpt lat="30.740843219431707" lon="-4.967256235505992"><ele>688.3333333333333</ele><time>2026-03-23T11:42:10.001Z</time></trkpt><trkpt lat="30.74070633315408" lon="-4.967330096687044"><ele>687.6666666666666</ele><time>2026-03-23T11:42:11.001Z</time></trkpt><trkpt lat="30.740546824967705" lon="-4.967420240858586"><ele>687.0</ele><time>2026-03-23T11:42:12.001Z</time></trkpt><trkpt lat="30.74037510120262" lon="-4.967504804188518"><ele>687.3333333333334</ele><time>2026-03-23T11:42:13.001Z</time></trkpt><trkpt lat="30.74020151468221" lon="-4.967594109775024"><ele>687.6666666666667</ele><time>2026-03-23T11:42:14.001Z</time></trkpt><trkpt lat="30.740041507122715" lon="-4.967679320316019"><ele>688.0</ele><time>2026-03-23T11:42:15.001Z</time></trkpt><trkpt lat="30.739885303151183" lon="-4.9677613880606435"><ele>688.0</ele><time>2026-03-23T11:42:16.001Z</time></trkpt><trkpt lat="30.7397327491503" lon="-4.96783501777165"><ele>688.0</ele><time>2026-03-23T11:42:17.001Z</time></trkpt><trkpt lat="30.73958329781898" lon="-4.967915367038837"><ele>688.0</ele><time>2026-03-23T11:42:18.001Z</time></trkpt><trkpt lat="30.739434521548453" lon="-4.967999155191768"><ele>687.3333333333334</ele><time>2026-03-23T11:42:19.001Z</time></trkpt><trkpt lat="30.739278859316194" lon="-4.96808292927758"><ele>686.6666666666666</ele><time>2026-03-23T11:42:20.001Z</time></trkpt><trkpt lat="30.73912605476337" lon="-4.968167092992583"><ele>686.0</ele><time>2026-03-23T11:42:21.001Z</time></trkpt><trkpt lat="30.73896788694632" lon="-4.968244752275301"><ele>686.0</ele><time>2026-03-23T11:42:22.001Z</time></trkpt><trkpt lat="30.73881455182626" lon="-4.9683226263050235"><ele>686.0</ele><time>2026-03-23T11:42:23.001Z</time></trkpt><trkpt lat="30.738660736446295" lon="-4.968409396966782"><ele>686.0</ele><time>2026-03-23T11:42:24.001Z</time></trkpt><trkpt lat="30.738504830447944" lon="-4.968492336224486"><ele>686.6666666666666</ele><time>2026-03-23T11:42:25.001Z</time></trkpt><trkpt lat="30.738355173370298" lon="-4.9685691841273165"><ele>687.3333333333334</ele><time>2026-03-23T11:42:26.001Z</time></trkpt><trkpt lat="30.73821524272912" lon="-4.9686413140725625"><ele>688.0</ele><time>2026-03-23T11:42:27.001Z</time></trkpt><trkpt lat="30.73808146126936" lon="-4.9687093809387886"><ele>688.0</ele><time>2026-03-23T11:42:28.001Z</time></trkpt><trkpt lat="30.737938530586515" lon="-4.968780341582997"><ele>688.0</ele><time>2026-03-23T11:42:29.001Z</time></trkpt><trkpt lat="30.73777881063027" lon="-4.968861847013269"><ele>688.0</ele><time>2026-03-23T11:42:30.001Z</time></trkpt><trkpt lat="30.737604962051062" lon="-4.968956266875276"><ele>688.0</ele><time>2026-03-23T11:42:31.001Z</time></trkpt><trkpt lat="30.737438153530604" lon="-4.969054160488832"><ele>688.0</ele><time>2026-03-23T11:42:32.001Z</time></trkpt><trkpt lat="30.737280055045762" lon="-4.969134983492412"><ele>688.0</ele><time>2026-03-23T11:42:33.001Z</time></trkpt><trkpt lat="30.73714293668126" lon="-4.9692096596804"><ele>688.0</ele><time>2026-03-23T11:42:34.001Z</time></trkpt><trkpt lat="30.73702503512975" lon="-4.96927242618562"><ele>688.0</ele><time>2026-03-23T11:42:35.001Z</time></trkpt><trkpt lat="30.736911408802435" lon="-4.969329089677273"><ele>688.0</ele><time>2026-03-23T11:42:36.001Z</time></trkpt><trkpt lat="30.73680961694838" lon="-4.969382679318553"><ele>688.0</ele><time>2026-03-23T11:42:37.001Z</time></trkpt><trkpt lat="30.736717440341007" lon="-4.969432141534186"><ele>686.75</ele><time>2026-03-23T11:42:38.001Z</time></trkpt><trkpt lat="30.73661932473079" lon="-4.969482002961608"><ele>685.5</ele><time>2026-03-23T11:42:39.001Z</time></trkpt><trkpt lat="30.736497459571407" lon="-4.969544325600172"><ele>684.25</ele><time>2026-03-23T11:42:40.001Z</time></trkpt><trkpt lat="30.736368335219794" lon="-4.96961021163026"><ele>683.0</ele><time>2026-03-23T11:42:41.001Z</time></trkpt><trkpt lat="30.73623291034686" lon="-4.969682830973774"><ele>683.0</ele><time>2026-03-23T11:42:42.001Z</time></trkpt><trkpt lat="30.736090099405228" lon="-4.969766074563627"><ele>683.0</ele><time>2026-03-23T11:42:43.001Z</time></trkpt><trkpt lat="30.73593554141214" lon="-4.969854481608884"><ele>683.0</ele><time>2026-03-23T11:42:44.001Z</time></trkpt><trkpt lat="30.73577845741781" lon="-4.969946794542078"><ele>683.6666666666666</ele><time>2026-03-23T11:42:45.001Z</time></trkpt><trkpt lat="30.735622356115282" lon="-4.97003750047165"><ele>684.3333333333334</ele><time>2026-03-23T11:42:46.001Z</time></trkpt><trkpt lat="30.7354573687381" lon="-4.970120931510788"><ele>685.0</ele><time>2026-03-23T11:42:47.001Z</time></trkpt><trkpt lat="30.735288648553325" lon="-4.970206359715229"><ele>684.6666666666667</ele><time>2026-03-23T11:42:48.001Z</time></trkpt><trkpt lat="30.735113396972434" lon="-4.9703068576497955"><ele>684.3333333333334</ele><time>2026-03-23T11:42:49.001Z</time></trkpt><trkpt lat="30.734934982362375" lon="-4.970407738187923"><ele>684.0</ele><time>2026-03-23T11:42:50.001Z</time></trkpt><trkpt lat="30.734751034770266" lon="-4.970509618827982"><ele>684.0</ele><time>2026-03-23T11:42:51.001Z</time></trkpt><trkpt lat="30.734597824910423" lon="-4.970584419705655"><ele>684.0</ele><time>2026-03-23T11:42:52.001Z</time></trkpt><trkpt lat="30.73443431248855" lon="-4.970668529551793"><ele>684.0</ele><time>2026-03-23T11:42:53.001Z</time></trkpt><trkpt lat="30.734271471381117" lon="-4.9707431110992095"><ele>684.0</ele><time>2026-03-23T11:42:54.001Z</time></trkpt><trkpt lat="30.734113040402402" lon="-4.970822054628555"><ele>684.0</ele><time>2026-03-23T11:42:55.001Z</time></trkpt><trkpt lat="30.73394180865416" lon="-4.970907588564422"><ele>684.0</ele><time>2026-03-23T11:42:56.001Z</time></trkpt><trkpt lat="30.73377426678636" lon="-4.9709924288393115"><ele>683.3333333333334</ele><time>2026-03-23T11:42:57.001Z</time></trkpt><trkpt lat="30.73361495377042" lon="-4.971076450911619"><ele>682.6666666666667</ele><time>2026-03-23T11:42:58.001Z</time></trkpt><trkpt lat="30.73344604449589" lon="-4.971162092627922"><ele>682.0</ele><time>2026-03-23T11:42:59.001Z</time></trkpt><trkpt lat="30.733292585027392" lon="-4.971239830817219"><ele>682.0</ele><time>2026-03-23T11:43:00.001Z</time></trkpt><trkpt lat="30.733138760430386" lon="-4.971318822655167"><ele>682.0</ele><time>2026-03-23T11:43:01.001Z</time></trkpt><trkpt lat="30.732977063499902" lon="-4.97140776225032"><ele>682.0</ele><time>2026-03-23T11:43:02.001Z</time></trkpt><trkpt lat="30.732814727624206" lon="-4.971497203216125"><ele>682.0</ele><time>2026-03-23T11:43:03.001Z</time></trkpt><trkpt lat="30.73263837387337" lon="-4.971587772797667"><ele>682.0</ele><time>2026-03-23T11:43:04.001Z</time></trkpt><trkpt lat="30.732475508111957" lon="-4.971674637760186"><ele>682.0</ele><time>2026-03-23T11:43:05.001Z</time></trkpt><trkpt lat="30.732306306891886" lon="-4.97176425269987"><ele>682.0</ele><time>2026-03-23T11:43:06.001Z</time></trkpt><trkpt lat="30.73213830888375" lon="-4.9718497463669316"><ele>682.0</ele><time>2026-03-23T11:43:07.001Z</time></trkpt><trkpt lat="30.731976038541408" lon="-4.971931256061699"><ele>682.0</ele><time>2026-03-23T11:43:08.001Z</time></trkpt><trkpt lat="30.731813441667594" lon="-4.972024393720522"><ele>682.0</ele><time>2026-03-23T11:43:09.001Z</time></trkpt><trkpt lat="30.731654640090113" lon="-4.972119658960726"><ele>682.0</ele><time>2026-03-23T11:43:10.001Z</time></trkpt><trkpt lat="30.731494245306852" lon="-4.972211120302519"><ele>682.0</ele><time>2026-03-23T11:43:11.001Z</time></trkpt><trkpt lat="30.731324037875556" lon="-4.972302149594359"><ele>682.0</ele><time>2026-03-23T11:43:12.001Z</time></trkpt><trkpt lat="30.731160030960293" lon="-4.9723830644762845"><ele>682.0</ele><time>2026-03-23T11:43:13.001Z</time></trkpt><trkpt lat="30.73099792387014" lon="-4.972465651685639"><ele>682.0</ele><time>2026-03-23T11:43:14.001Z</time></trkpt><trkpt lat="30.730837009887217" lon="-4.972540961429523"><ele>682.3333333333334</ele><time>2026-03-23T11:43:15.001Z</time></trkpt><trkpt lat="30.730676871112987" lon="-4.9726190589950185"><ele>682.6666666666666</ele><time>2026-03-23T11:43:16.001Z</time></trkpt><trkpt lat="30.730534529431146" lon="-4.972694043796124"><ele>683.0</ele><time>2026-03-23T11:43:17.001Z</time></trkpt><trkpt lat="30.730397457031373" lon="-4.972769541412782"><ele>683.0</ele><time>2026-03-23T11:43:18.001Z</time></trkpt><trkpt lat="30.73025521133455" lon="-4.972848804411393"><ele>683.0</ele><time>2026-03-23T11:43:19.001Z</time></trkpt><trkpt lat="30.730098410808665" lon="-4.972941122968068"><ele>683.0</ele><time>2026-03-23T11:43:20.001Z</time></trkpt><trkpt lat="30.7299248178582" lon="-4.973027820636835"><ele>682.3333333333333</ele><time>2026-03-23T11:43:21.001Z</time></trkpt><trkpt lat="30.729748064306452" lon="-4.973123779172785"><ele>681.6666666666666</ele><time>2026-03-23T11:43:22.001Z</time></trkpt><trkpt lat="30.729592996983268" lon="-4.973216201641974"><ele>681.0</ele><time>2026-03-23T11:43:23.001Z</time></trkpt><trkpt lat="30.72944962977744" lon="-4.973292332630967"><ele>680.5</ele><time>2026-03-23T11:43:24.001Z</time></trkpt><trkpt lat="30.729313770315272" lon="-4.973364246714175"><ele>680.0</ele><time>2026-03-23T11:43:25Z</time></trkpt><trkpt lat="30.729189822632865" lon="-4.973430777211096"><ele>679.5</ele><time>2026-03-23T11:43:26Z</time></trkpt><trkpt lat="30.729084076189242" lon="-4.973489089211433"><ele>679.0</ele><time>2026-03-23T11:43:27Z</time></trkpt><trkpt lat="30.72898191907429" lon="-4.973545144325549"><ele>679.0</ele><time>2026-03-23T11:43:28Z</time></trkpt><trkpt lat="30.728854665328" lon="-4.973614207451177"><ele>679.0</ele><time>2026-03-23T11:43:29Z</time></trkpt><trkpt lat="30.728712527914325" lon="-4.97369197004279"><ele>679.0</ele><time>2026-03-23T11:43:30Z</time></trkpt><trkpt lat="30.7285802179241" lon="-4.97375884622734"><ele>679.0</ele><time>2026-03-23T11:43:31Z</time></trkpt><trkpt lat="30.728456563183546" lon="-4.973823779092989"><ele>678.5</ele><time>2026-03-23T11:43:32Z</time></trkpt><trkpt lat="30.728334815754167" lon="-4.9738895002676795"><ele>678.0</ele><time>2026-03-23T11:43:33Z</time></trkpt><trkpt lat="30.728208317314255" lon="-4.9739601603469055"><ele>677.5</ele><time>2026-03-23T11:43:34Z</time></trkpt><trkpt lat="30.728092664278655" lon="-4.974020898001493"><ele>677.0</ele><time>2026-03-23T11:43:35Z</time></trkpt><trkpt lat="30.727974240961164" lon="-4.974075930101017"><ele>677.0</ele><time>2026-03-23T11:43:36Z</time></trkpt><trkpt lat="30.72785567408625" lon="-4.974136949500364"><ele>677.0</ele><time>2026-03-23T11:43:37Z</time></trkpt><trkpt lat="30.727728057735632" lon="-4.974213953505287"><ele>677.0</ele><time>2026-03-23T11:43:38Z</time></trkpt><trkpt lat="30.7276041189593" lon="-4.974288847505458"><ele>677.0</ele><time>2026-03-23T11:43:39Z</time></trkpt><trkpt lat="30.727494742547993" lon="-4.9743515117269785"><ele>677.75</ele><time>2026-03-23T11:43:40Z</time></trkpt><trkpt lat="30.727392361300346" lon="-4.974406808317259"><ele>678.5</ele><time>2026-03-23T11:43:41Z</time></trkpt><trkpt lat="30.727280086456553" lon="-4.974468028460803"><ele>679.25</ele><time>2026-03-23T11:43:42Z</time></trkpt><trkpt lat="30.727154836865815" lon="-4.974536236805724"><ele>680.0</ele><time>2026-03-23T11:43:43Z</time></trkpt><trkpt lat="30.72702229973613" lon="-4.974607151440821"><ele>680.25</ele><time>2026-03-23T11:43:44Z</time></trkpt><trkpt lat="30.726893646460272" lon="-4.974680754913693"><ele>680.5</ele><time>2026-03-23T11:43:45Z</time></trkpt><trkpt lat="30.726766849840885" lon="-4.9747583215105875"><ele>680.75</ele><time>2026-03-23T11:43:46Z</time></trkpt><trkpt lat="30.726631421269424" lon="-4.974842132875529"><ele>681.0</ele><time>2026-03-23T11:43:47Z</time></trkpt><trkpt lat="30.726492624842493" lon="-4.974935107122093"><ele>681.0</ele><time>2026-03-23T11:43:48Z</time></trkpt><trkpt lat="30.726361533603864" lon="-4.97497209719254"><ele>681.0</ele><time>2026-03-23T11:43:49Z</time></trkpt><trkpt lat="30.72624386869475" lon="-4.97502260906144"><ele>681.0</ele><time>2026-03-23T11:43:50Z</time></trkpt><trkpt lat="30.726126201060044" lon="-4.975078513871777"><ele>681.0</ele><time>2026-03-23T11:43:51Z</time></trkpt><trkpt lat="30.72601238729878" lon="-4.975144906805247"><ele>681.0</ele><time>2026-03-23T11:43:52Z</time></trkpt><trkpt lat="30.725896578600608" lon="-4.975213065677186"><ele>681.0</ele><time>2026-03-23T11:43:53Z</time></trkpt><trkpt lat="30.725771113422816" lon="-4.975277575194864"><ele>681.0</ele><time>2026-03-23T11:43:54Z</time></trkpt><trkpt lat="30.725634135372886" lon="-4.975343741568006"><ele>681.0</ele><time>2026-03-23T11:43:55Z</time></trkpt><trkpt lat="30.725491031362896" lon="-4.975412482375301"><ele>681.0</ele><time>2026-03-23T11:43:56Z</time></trkpt><trkpt lat="30.72534490690183" lon="-4.975477119686141"><ele>681.0</ele><time>2026-03-23T11:43:57Z</time></trkpt><trkpt lat="30.725197069854346" lon="-4.975550119366771"><ele>681.0</ele><time>2026-03-23T11:43:58Z</time></trkpt><trkpt lat="30.725073811222092" lon="-4.975648578324813"><ele>681.3333333333334</ele><time>2026-03-23T11:43:59Z</time></trkpt><trkpt lat="30.724906756378783" lon="-4.975677793151511"><ele>681.6666666666667</ele><time>2026-03-23T11:44:00Z</time></trkpt><trkpt lat="30.724747228570557" lon="-4.975749589417717"><ele>682.0</ele><time>2026-03-23T11:44:01Z</time></trkpt><trkpt lat="30.724596242954426" lon="-4.9758175821559805"><ele>682.0</ele><time>2026-03-23T11:44:02Z</time></trkpt><trkpt lat="30.724446507997005" lon="-4.97588474347572"><ele>682.0</ele><time>2026-03-23T11:44:03Z</time></trkpt><trkpt lat="30.72430118853582" lon="-4.975950956121757"><ele>682.0</ele><time>2026-03-23T11:44:04Z</time></trkpt><trkpt lat="30.72415088688893" lon="-4.976027572682923"><ele>682.0</ele><time>2026-03-23T11:44:05Z</time></trkpt><trkpt lat="30.7240060861219" lon="-4.976108802924236"><ele>682.0</ele><time>2026-03-23T11:44:06Z</time></trkpt><trkpt lat="30.7238611947171" lon="-4.97617901092711"><ele>682.0</ele><time>2026-03-23T11:44:07Z</time></trkpt><trkpt lat="30.72372505546315" lon="-4.9762497007065525"><ele>682.0</ele><time>2026-03-23T11:44:08Z</time></trkpt><trkpt lat="30.72358362338906" lon="-4.976320522419623"><ele>682.0</ele><time>2026-03-23T11:44:09Z</time></trkpt><trkpt lat="30.723427417441712" lon="-4.976406522038577"><ele>682.0</ele><time>2026-03-23T11:44:10Z</time></trkpt><trkpt lat="30.72326675922235" lon="-4.976495664478639"><ele>681.6666666666667</ele><time>2026-03-23T11:44:11Z</time></trkpt><trkpt lat="30.72310819237298" lon="-4.976604820305498"><ele>681.3333333333334</ele><time>2026-03-23T11:44:12Z</time></trkpt><trkpt lat="30.722960907864696" lon="-4.976703543605764"><ele>681.0</ele><time>2026-03-23T11:44:13Z</time></trkpt><trkpt lat="30.722836718707896" lon="-4.976795132215939"><ele>681.0</ele><time>2026-03-23T11:44:14Z</time></trkpt><trkpt lat="30.72273464595147" lon="-4.976874477862979"><ele>681.0</ele><time>2026-03-23T11:44:15Z</time></trkpt><trkpt lat="30.722632522610844" lon="-4.976956614441601"><ele>681.0</ele><time>2026-03-23T11:44:16Z</time></trkpt><trkpt lat="30.722511876018448" lon="-4.977042159963962"><ele>681.0</ele><time>2026-03-23T11:44:17Z</time></trkpt><trkpt lat="30.722382239346786" lon="-4.977127284828236"><ele>681.0</ele><time>2026-03-23T11:44:18.001Z</time></trkpt><trkpt lat="30.722235774407597" lon="-4.9772043741863214"><ele>681.0</ele><time>2026-03-23T11:44:19.001Z</time></trkpt><trkpt lat="30.722087053055517" lon="-4.977280000058443"><ele>681.0</ele><time>2026-03-23T11:44:20.001Z</time></trkpt><trkpt lat="30.72195017249548" lon="-4.97735397893311"><ele>681.0</ele><time>2026-03-23T11:44:21.001Z</time></trkpt><trkpt lat="30.72182676867389" lon="-4.97741632481615"><ele>681.0</ele><time>2026-03-23T11:44:22.001Z</time></trkpt><trkpt lat="30.72168866764927" lon="-4.977475860175798"><ele>681.0</ele><time>2026-03-23T11:44:23.001Z</time></trkpt><trkpt lat="30.721540599596672" lon="-4.977552698736457"><ele>681.0</ele><time>2026-03-23T11:44:24.001Z</time></trkpt><trkpt lat="30.721391105616686" lon="-4.9776468866394"><ele>681.0</ele><time>2026-03-23T11:44:25.001Z</time></trkpt><trkpt lat="30.721246369284014" lon="-4.977723723347612"><ele>681.0</ele><time>2026-03-23T11:44:26.001Z</time></trkpt><trkpt lat="30.72110412670801" lon="-4.977796731607423"><ele>681.0</ele><time>2026-03-23T11:44:27.001Z</time></trkpt><trkpt lat="30.720972387157648" lon="-4.977855133892337"><ele>680.3333333333334</ele><time>2026-03-23T11:44:28.001Z</time></trkpt><trkpt lat="30.720841474632987" lon="-4.977918545166856"><ele>679.6666666666667</ele><time>2026-03-23T11:44:29.001Z</time></trkpt><trkpt lat="30.720706700336358" lon="-4.977986442154244"><ele>679.0</ele><time>2026-03-23T11:44:30.001Z</time></trkpt><trkpt lat="30.72055881215798" lon="-4.978063617289924"><ele>679.0</ele><time>2026-03-23T11:44:31.001Z</time></trkpt><trkpt lat="30.72039439680152" lon="-4.978155219698358"><ele>679.0</ele><time>2026-03-23T11:44:32.001Z</time></trkpt><trkpt lat="30.720232115195014" lon="-4.9782524996683994"><ele>679.0</ele><time>2026-03-23T11:44:33.001Z</time></trkpt><trkpt lat="30.720062368159823" lon="-4.9783457303824745"><ele>679.0</ele><time>2026-03-23T11:44:34.001Z</time></trkpt><trkpt lat="30.719924760627517" lon="-4.97841888361263"><ele>679.0</ele><time>2026-03-23T11:44:35.001Z</time></trkpt><trkpt lat="30.719778625086832" lon="-4.978492936820122"><ele>679.0</ele><time>2026-03-23T11:44:36.001Z</time></trkpt><trkpt lat="30.719634701880967" lon="-4.978573056924356"><ele>679.0</ele><time>2026-03-23T11:44:37.001Z</time></trkpt><trkpt lat="30.71951135698871" lon="-4.9786374618699005"><ele>679.0</ele><time>2026-03-23T11:44:38.001Z</time></trkpt><trkpt lat="30.719392913725287" lon="-4.97870116899302"><ele>679.0</ele><time>2026-03-23T11:44:39.001Z</time></trkpt><trkpt lat="30.719280774758534" lon="-4.978766983774923"><ele>679.0</ele><time>2026-03-23T11:44:40.001Z</time></trkpt><trkpt lat="30.719166566663553" lon="-4.978828966807067"><ele>679.5</ele><time>2026-03-23T11:44:41.001Z</time></trkpt><trkpt lat="30.7190556845321" lon="-4.978885112502773"><ele>680.0</ele><time>2026-03-23T11:44:42.001Z</time></trkpt><trkpt lat="30.718932524560408" lon="-4.97895399661115"><ele>680.5</ele><time>2026-03-23T11:44:43.001Z</time></trkpt><trkpt lat="30.7188046181808" lon="-4.979023105892978"><ele>681.0</ele><time>2026-03-23T11:44:44.001Z</time></trkpt><trkpt lat="30.7186769374507" lon="-4.979091716119094"><ele>680.6666666666666</ele><time>2026-03-23T11:44:45.001Z</time></trkpt><trkpt lat="30.718543755194396" lon="-4.97916607079604"><ele>680.3333333333333</ele><time>2026-03-23T11:44:46.001Z</time></trkpt><trkpt lat="30.71840346190916" lon="-4.979254745936462"><ele>680.0</ele><time>2026-03-23T11:44:47.001Z</time></trkpt><trkpt lat="30.718226595827545" lon="-4.979344541390814"><ele>681.3333333333333</ele><time>2026-03-23T11:44:48.001Z</time></trkpt><trkpt lat="30.718059198685523" lon="-4.979442287504834"><ele>682.6666666666666</ele><time>2026-03-23T11:44:49.001Z</time></trkpt><trkpt lat="30.717890959113845" lon="-4.979528356369922"><ele>684.0</ele><time>2026-03-23T11:44:50.001Z</time></trkpt><trkpt lat="30.717738954853715" lon="-4.979619883032569"><ele>683.75</ele><time>2026-03-23T11:44:51.001Z</time></trkpt><trkpt lat="30.7176148441587" lon="-4.97968899525794"><ele>683.5</ele><time>2026-03-23T11:44:52.001Z</time></trkpt><trkpt lat="30.717506680759552" lon="-4.9797477423943874"><ele>683.25</ele><time>2026-03-23T11:44:53.001Z</time></trkpt><trkpt lat="30.717381444927582" lon="-4.97981781795579"><ele>683.0</ele><time>2026-03-23T11:44:54.001Z</time></trkpt><trkpt lat="30.71724828104877" lon="-4.979882617335151"><ele>683.0</ele><time>2026-03-23T11:44:55.001Z</time></trkpt><trkpt lat="30.71711020003904" lon="-4.97994430197622"><ele>683.0</ele><time>2026-03-23T11:44:56.001Z</time></trkpt><trkpt lat="30.71697472762175" lon="-4.9800158979933045"><ele>683.0</ele><time>2026-03-23T11:44:57.001Z</time></trkpt><trkpt lat="30.716849252735635" lon="-4.980091155633538"><ele>683.0</ele><time>2026-03-23T11:44:58.001Z</time></trkpt><trkpt lat="30.71673730694472" lon="-4.980157268643347"><ele>682.25</ele><time>2026-03-23T11:44:59.001Z</time></trkpt><trkpt lat="30.71663138956626" lon="-4.980221330478204"><ele>681.5</ele><time>2026-03-23T11:45:00.001Z</time></trkpt><trkpt lat="30.71651686104214" lon="-4.9802879846532635"><ele>680.75</ele><time>2026-03-23T11:45:01.001Z</time></trkpt><trkpt lat="30.71639532385979" lon="-4.980360952046433"><ele>680.0</ele><time>2026-03-23T11:45:02.001Z</time></trkpt><trkpt lat="30.716264745797112" lon="-4.980437996207488"><ele>680.0</ele><time>2026-03-23T11:45:03.001Z</time></trkpt><trkpt lat="30.716130885596197" lon="-4.980519193418573"><ele>680.0</ele><time>2026-03-23T11:45:04.001Z</time></trkpt><trkpt lat="30.7159996568515" lon="-4.980593524585681"><ele>680.0</ele><time>2026-03-23T11:45:05.001Z</time></trkpt><trkpt lat="30.71587679009893" lon="-4.980655227445669"><ele>680.0</ele><time>2026-03-23T11:45:06.001Z</time></trkpt><trkpt lat="30.71576219534259" lon="-4.980712814220497"><ele>679.75</ele><time>2026-03-23T11:45:07.001Z</time></trkpt><trkpt lat="30.71564812495683" lon="-4.9807740413136035"><ele>679.5</ele><time>2026-03-23T11:45:08.001Z</time></trkpt><trkpt lat="30.715537427664643" lon="-4.98083467029704"><ele>679.25</ele><time>2026-03-23T11:45:09.001Z</time></trkpt><trkpt lat="30.715437526917622" lon="-4.9809016802807635"><ele>679.0</ele><time>2026-03-23T11:45:10.001Z</time></trkpt><trkpt lat="30.715329018239007" lon="-4.980971921198679"><ele>680.0</ele><time>2026-03-23T11:45:11.001Z</time></trkpt><trkpt lat="30.715208786711447" lon="-4.981032871052492"><ele>681.0</ele><time>2026-03-23T11:45:12.001Z</time></trkpt><trkpt lat="30.715077093525174" lon="-4.981095280788756"><ele>682.0</ele><time>2026-03-23T11:45:13.001Z</time></trkpt><trkpt lat="30.714940712140923" lon="-4.98115692276975"><ele>683.0</ele><time>2026-03-23T11:45:14.001Z</time></trkpt><trkpt lat="30.714816234830124" lon="-4.9812226883636495"><ele>683.0</ele><time>2026-03-23T11:45:15.001Z</time></trkpt><trkpt lat="30.714693892749892" lon="-4.981287835801379"><ele>683.0</ele><time>2026-03-23T11:45:16.001Z</time></trkpt><trkpt lat="30.71456936546579" lon="-4.981350750827345"><ele>683.0</ele><time>2026-03-23T11:45:17.001Z</time></trkpt><trkpt lat="30.714446726446706" lon="-4.981413241770688"><ele>683.0</ele><time>2026-03-23T11:45:18.001Z</time></trkpt><trkpt lat="30.714315750650876" lon="-4.98148239339738"><ele>683.0</ele><time>2026-03-23T11:45:19.001Z</time></trkpt><trkpt lat="30.714153972409935" lon="-4.9815674021794445"><ele>683.0</ele><time>2026-03-23T11:45:20.001Z</time></trkpt><trkpt lat="30.713995865367696" lon="-4.981650368347881"><ele>683.0</ele><time>2026-03-23T11:45:21.001Z</time></trkpt><trkpt lat="30.713835802982462" lon="-4.981732246348582"><ele>683.0</ele><time>2026-03-23T11:45:22.001Z</time></trkpt><trkpt lat="30.713686364960296" lon="-4.981809143965407"><ele>683.0</ele><time>2026-03-23T11:45:23.001Z</time></trkpt><trkpt lat="30.713525609420376" lon="-4.981894153228487"><ele>683.0</ele><time>2026-03-23T11:45:24.001Z</time></trkpt><trkpt lat="30.713369244204603" lon="-4.9819766515331425"><ele>682.6666666666666</ele><time>2026-03-23T11:45:25.001Z</time></trkpt><trkpt lat="30.713221583633945" lon="-4.982056864511143"><ele>682.3333333333334</ele><time>2026-03-23T11:45:26.001Z</time></trkpt><trkpt lat="30.713077569510773" lon="-4.982138484927974"><ele>682.0</ele><time>2026-03-23T11:45:27.001Z</time></trkpt><trkpt lat="30.71293738446319" lon="-4.982216034741461"><ele>682.0</ele><time>2026-03-23T11:45:28.001Z</time></trkpt><trkpt lat="30.712809837286265" lon="-4.982286174887875"><ele>682.0</ele><time>2026-03-23T11:45:29.001Z</time></trkpt><trkpt lat="30.71268257185352" lon="-4.982357580059737"><ele>682.0</ele><time>2026-03-23T11:45:30.001Z</time></trkpt><trkpt lat="30.712552041229895" lon="-4.982429076813789"><ele>682.0</ele><time>2026-03-23T11:45:31Z</time></trkpt><trkpt lat="30.71242472901339" lon="-4.982494085212645"><ele>682.6666666666667</ele><time>2026-03-23T11:45:32Z</time></trkpt><trkpt lat="30.712292114331795" lon="-4.982555227885672"><ele>683.3333333333334</ele><time>2026-03-23T11:45:33Z</time></trkpt><trkpt lat="30.712146650027286" lon="-4.982620454013732"><ele>684.0</ele><time>2026-03-23T11:45:34Z</time></trkpt><trkpt lat="30.71200401533335" lon="-4.9826921485878115"><ele>683.3333333333334</ele><time>2026-03-23T11:45:35Z</time></trkpt><trkpt lat="30.7118672284528" lon="-4.982761161968098"><ele>682.6666666666667</ele><time>2026-03-23T11:45:36Z</time></trkpt><trkpt lat="30.711731186095836" lon="-4.982828073003119"><ele>682.0</ele><time>2026-03-23T11:45:37Z</time></trkpt><trkpt lat="30.71158801906815" lon="-4.98290136966184"><ele>682.0</ele><time>2026-03-23T11:45:38Z</time></trkpt><trkpt lat="30.711421874993373" lon="-4.982980143573335"><ele>682.0</ele><time>2026-03-23T11:45:39Z</time></trkpt><trkpt lat="30.711245340743538" lon="-4.983050385684451"><ele>682.0</ele><time>2026-03-23T11:45:40Z</time></trkpt><trkpt lat="30.711070283669798" lon="-4.983124687794666"><ele>681.6666666666667</ele><time>2026-03-23T11:45:41Z</time></trkpt><trkpt lat="30.710873901302623" lon="-4.983166941122406"><ele>681.3333333333334</ele><time>2026-03-23T11:45:42Z</time></trkpt><trkpt lat="30.71075441718221" lon="-4.9832921113084065"><ele>681.0</ele><time>2026-03-23T11:45:43Z</time></trkpt><trkpt lat="30.710594889279214" lon="-4.983374419538567"><ele>681.3333333333334</ele><time>2026-03-23T11:45:44Z</time></trkpt><trkpt lat="30.710442075049954" lon="-4.983456115866325"><ele>681.6666666666667</ele><time>2026-03-23T11:45:45Z</time></trkpt><trkpt lat="30.71028241342944" lon="-4.983541280153727"><ele>682.0</ele><time>2026-03-23T11:45:46Z</time></trkpt><trkpt lat="30.710113874698603" lon="-4.983627457749569"><ele>682.0</ele><time>2026-03-23T11:45:47Z</time></trkpt><trkpt lat="30.709949352961196" lon="-4.983716396701832"><ele>682.0</ele><time>2026-03-23T11:45:48Z</time></trkpt><trkpt lat="30.70978259673882" lon="-4.983809761413973"><ele>682.0</ele><time>2026-03-23T11:45:49Z</time></trkpt><trkpt lat="30.70960722508792" lon="-4.983906876788149"><ele>682.0</ele><time>2026-03-23T11:45:50Z</time></trkpt><trkpt lat="30.709414192118388" lon="-4.984008370763176"><ele>682.0</ele><time>2026-03-23T11:45:51Z</time></trkpt><trkpt lat="30.709219323103266" lon="-4.984112581744475"><ele>682.0</ele><time>2026-03-23T11:45:52Z</time></trkpt><trkpt lat="30.709028022200624" lon="-4.984215966235255"><ele>682.3333333333334</ele><time>2026-03-23T11:45:53Z</time></trkpt><trkpt lat="30.708866325159804" lon="-4.984300338658472"><ele>682.6666666666666</ele><time>2026-03-23T11:45:54Z</time></trkpt><trkpt lat="30.708720398881002" lon="-4.9843725518643085"><ele>683.0</ele><time>2026-03-23T11:45:55Z</time></trkpt><trkpt lat="30.708582476582933" lon="-4.984443452108615"><ele>682.6666666666666</ele><time>2026-03-23T11:45:56Z</time></trkpt><trkpt lat="30.708438285324743" lon="-4.9845161780050535"><ele>682.3333333333334</ele><time>2026-03-23T11:45:57Z</time></trkpt><trkpt lat="30.70827576444286" lon="-4.984600214263597"><ele>682.0</ele><time>2026-03-23T11:45:58Z</time></trkpt><trkpt lat="30.708095702290116" lon="-4.984694704550143"><ele>682.0</ele><time>2026-03-23T11:45:59Z</time></trkpt><trkpt lat="30.707903265216107" lon="-4.984801749492312"><ele>682.0</ele><time>2026-03-23T11:46:00Z</time></trkpt><trkpt lat="30.707696230763595" lon="-4.984913774840583"><ele>682.0</ele><time>2026-03-23T11:46:01Z</time></trkpt><trkpt lat="30.707483476110756" lon="-4.985030831732827"><ele>681.6666666666667</ele><time>2026-03-23T11:46:02Z</time></trkpt><trkpt lat="30.707280344573935" lon="-4.9851336067192475"><ele>681.3333333333334</ele><time>2026-03-23T11:46:03Z</time></trkpt><trkpt lat="30.707104130735615" lon="-4.985227086490682"><ele>681.0</ele><time>2026-03-23T11:46:04Z</time></trkpt><trkpt lat="30.706939172374735" lon="-4.985308309755157"><ele>681.3333333333334</ele><time>2026-03-23T11:46:05Z</time></trkpt><trkpt lat="30.70683785170335" lon="-4.9853880054796225"><ele>681.6666666666667</ele><time>2026-03-23T11:46:06Z</time></trkpt><trkpt lat="30.706661006971505" lon="-4.9854677096434425"><ele>682.0</ele><time>2026-03-23T11:46:07Z</time></trkpt><trkpt lat="30.70647618848669" lon="-4.985537108718109"><ele>682.0</ele><time>2026-03-23T11:46:08Z</time></trkpt><trkpt lat="30.706338430703518" lon="-4.985607910605133"><ele>682.0</ele><time>2026-03-23T11:46:09Z</time></trkpt><trkpt lat="30.706191762532967" lon="-4.98567110229426"><ele>682.0</ele><time>2026-03-23T11:46:10Z</time></trkpt><trkpt lat="30.70604170211055" lon="-4.985751933985306"><ele>682.0</ele><time>2026-03-23T11:46:11Z</time></trkpt><trkpt lat="30.705887134276836" lon="-4.985823688258078"><ele>682.0</ele><time>2026-03-23T11:46:12Z</time></trkpt><trkpt lat="30.705740297881697" lon="-4.985901895231438"><ele>682.0</ele><time>2026-03-23T11:46:13Z</time></trkpt><trkpt lat="30.705598714644985" lon="-4.985986812525131"><ele>682.0</ele><time>2026-03-23T11:46:14Z</time></trkpt><trkpt lat="30.70545628514907" lon="-4.9860626544698885"><ele>682.0</ele><time>2026-03-23T11:46:15Z</time></trkpt><trkpt lat="30.705300739864494" lon="-4.986131213665417"><ele>682.0</ele><time>2026-03-23T11:46:16Z</time></trkpt><trkpt lat="30.705130628989842" lon="-4.986212871878122"><ele>682.0</ele><time>2026-03-23T11:46:17Z</time></trkpt><trkpt lat="30.704944921376285" lon="-4.986304882599908"><ele>682.0</ele><time>2026-03-23T11:46:18Z</time></trkpt><trkpt lat="30.704755688326333" lon="-4.9863906946335375"><ele>682.0</ele><time>2026-03-23T11:46:19Z</time></trkpt><trkpt lat="30.70457730636313" lon="-4.986473305614137"><ele>682.0</ele><time>2026-03-23T11:46:20Z</time></trkpt><trkpt lat="30.70440702425925" lon="-4.986559089708588"><ele>682.0</ele><time>2026-03-23T11:46:21Z</time></trkpt><trkpt lat="30.70425059119717" lon="-4.986637226549853"><ele>682.0</ele><time>2026-03-23T11:46:22Z</time></trkpt><trkpt lat="30.704099736652925" lon="-4.986711250271045"><ele>682.0</ele><time>2026-03-23T11:46:23Z</time></trkpt><trkpt lat="30.703961426653155" lon="-4.98677427246603"><ele>682.0</ele><time>2026-03-23T11:46:24Z</time></trkpt><trkpt lat="30.703844018266093" lon="-4.986834813107925"><ele>682.0</ele><time>2026-03-23T11:46:25Z</time></trkpt><trkpt lat="30.70371572963946" lon="-4.986921206925285"><ele>682.0</ele><time>2026-03-23T11:46:26Z</time></trkpt><trkpt lat="30.703579880713132" lon="-4.987021987412119"><ele>682.3333333333334</ele><time>2026-03-23T11:46:27Z</time></trkpt><trkpt lat="30.70343756165468" lon="-4.987122478995408"><ele>682.6666666666666</ele><time>2026-03-23T11:46:28Z</time></trkpt><trkpt lat="30.703287081347973" lon="-4.9872136604579715"><ele>683.0</ele><time>2026-03-23T11:46:29Z</time></trkpt><trkpt lat="30.70313912250281" lon="-4.98728520285999"><ele>683.0</ele><time>2026-03-23T11:46:30Z</time></trkpt><trkpt lat="30.70298547184577" lon="-4.987338313755673"><ele>683.0</ele><time>2026-03-23T11:46:31Z</time></trkpt><trkpt lat="30.702827505635568" lon="-4.98738562827088"><ele>683.0</ele><time>2026-03-23T11:46:32Z</time></trkpt><trkpt lat="30.702675143899665" lon="-4.9874320704651005"><ele>683.25</ele><time>2026-03-23T11:46:33Z</time></trkpt><trkpt lat="30.70252880437445" lon="-4.987477009868533"><ele>683.5</ele><time>2026-03-23T11:46:34Z</time></trkpt><trkpt lat="30.7024042418854" lon="-4.987525512730937"><ele>683.75</ele><time>2026-03-23T11:46:35.001Z</time></trkpt><trkpt lat="30.702283641347954" lon="-4.987582256515491"><ele>684.0</ele><time>2026-03-23T11:46:36.001Z</time></trkpt><trkpt lat="30.702159481421333" lon="-4.987635032236694"><ele>684.0</ele><time>2026-03-23T11:46:37.001Z</time></trkpt><trkpt lat="30.70203474259126" lon="-4.987668910619771"><ele>684.0</ele><time>2026-03-23T11:46:38.001Z</time></trkpt><trkpt lat="30.70191955716098" lon="-4.98768454315093"><ele>684.0</ele><time>2026-03-23T11:46:39.001Z</time></trkpt><trkpt lat="30.70178550168388" lon="-4.987690483984744"><ele>684.0</ele><time>2026-03-23T11:46:40.001Z</time></trkpt><trkpt lat="30.701633992004904" lon="-4.9876872418812965"><ele>683.75</ele><time>2026-03-23T11:46:41.001Z</time></trkpt><trkpt lat="30.701483542315696" lon="-4.9876788056839"><ele>683.5</ele><time>2026-03-23T11:46:42.001Z</time></trkpt><trkpt lat="30.70134475808911" lon="-4.98766655713744"><ele>683.25</ele><time>2026-03-23T11:46:43.001Z</time></trkpt><trkpt lat="30.701196192922765" lon="-4.987654893076084"><ele>683.0</ele><time>2026-03-23T11:46:44.001Z</time></trkpt><trkpt lat="30.701074655924522" lon="-4.987657355601059"><ele>682.4</ele><time>2026-03-23T11:46:45.001Z</time></trkpt><trkpt lat="30.700980763243763" lon="-4.987665371691959"><ele>681.8</ele><time>2026-03-23T11:46:46.001Z</time></trkpt><trkpt lat="30.700907978579494" lon="-4.987683137234883"><ele>681.2</ele><time>2026-03-23T11:46:47.001Z</time></trkpt><trkpt lat="30.700790760315947" lon="-4.987743456362319"><ele>680.6</ele><time>2026-03-23T11:46:49.001Z</time></trkpt><trkpt lat="30.70072907149553" lon="-4.987781877903631"><ele>680.0</ele><time>2026-03-23T11:46:50.001Z</time></trkpt><trkpt lat="30.70064244392819" lon="-4.987812360318436"><ele>680.0</ele><time>2026-03-23T11:46:52.001Z</time></trkpt><trkpt lat="30.700536337968355" lon="-4.987836740149182"><ele>680.0</ele><time>2026-03-23T11:46:54.001Z</time></trkpt><trkpt lat="30.700464689273236" lon="-4.987847809035766"><ele>680.0</ele><time>2026-03-23T11:46:55.001Z</time></trkpt><trkpt lat="30.700392075916696" lon="-4.9878655102834095"><ele>680.0</ele><time>2026-03-23T11:46:56.001Z</time></trkpt><trkpt lat="30.700305033476862" lon="-4.987902657439064"><ele>680.0</ele><time>2026-03-23T11:46:57.001Z</time></trkpt><trkpt lat="30.700212347164015" lon="-4.987949437719509"><ele>680.0</ele><time>2026-03-23T11:46:58.001Z</time></trkpt><trkpt lat="30.700137226451172" lon="-4.98800773936927"><ele>679.75</ele><time>2026-03-23T11:46:59.001Z</time></trkpt><trkpt lat="30.700094690971135" lon="-4.988088783281514"><ele>679.5</ele><time>2026-03-23T11:47:00.001Z</time></trkpt><trkpt lat="30.700077610487075" lon="-4.988199020107896"><ele>679.25</ele><time>2026-03-23T11:47:01.001Z</time></trkpt><trkpt lat="30.700081941038494" lon="-4.9883477915784695"><ele>679.0</ele><time>2026-03-23T11:47:02.001Z</time></trkpt><trkpt lat="30.700096143904933" lon="-4.988524837881519"><ele>679.0</ele><time>2026-03-23T11:47:03.001Z</time></trkpt><trkpt lat="30.700100882224202" lon="-4.988701655131556"><ele>679.0</ele><time>2026-03-23T11:47:04.001Z</time></trkpt><trkpt lat="30.70000394803423" lon="-4.988864037042799"><ele>679.0</ele><time>2026-03-23T11:47:05.001Z</time></trkpt><trkpt lat="30.699950908260565" lon="-4.988984290717027"><ele>679.0</ele><time>2026-03-23T11:47:06.001Z</time></trkpt><trkpt lat="30.699892714024624" lon="-4.989064774060736"><ele>679.0</ele><time>2026-03-23T11:47:07.001Z</time></trkpt><trkpt lat="30.699795103271633" lon="-4.989136569519729"><ele>679.0</ele><time>2026-03-23T11:47:08.001Z</time></trkpt><trkpt lat="30.69967612152646" lon="-4.9892203885324005"><ele>679.0</ele><time>2026-03-23T11:47:09.001Z</time></trkpt><trkpt lat="30.699519968645127" lon="-4.989316619096847"><ele>679.0</ele><time>2026-03-23T11:47:10.001Z</time></trkpt><trkpt lat="30.69934274064944" lon="-4.989423926307816"><ele>680.0</ele><time>2026-03-23T11:47:11.001Z</time></trkpt><trkpt lat="30.699147421936356" lon="-4.989537059811817"><ele>681.0</ele><time>2026-03-23T11:47:12.001Z</time></trkpt><trkpt lat="30.69896060774939" lon="-4.989643998637475"><ele>682.0</ele><time>2026-03-23T11:47:13.001Z</time></trkpt><trkpt lat="30.698791319925846" lon="-4.989741338794614"><ele>682.0</ele><time>2026-03-23T11:47:14.001Z</time></trkpt><trkpt lat="30.698610559660654" lon="-4.989843236953818"><ele>682.0</ele><time>2026-03-23T11:47:15.001Z</time></trkpt><trkpt lat="30.6984282551126" lon="-4.9899547953653975"><ele>682.0</ele><time>2026-03-23T11:47:16.001Z</time></trkpt><trkpt lat="30.698256664421987" lon="-4.990058856919673"><ele>680.6666666666667</ele><time>2026-03-23T11:47:17.001Z</time></trkpt><trkpt lat="30.69810208472782" lon="-4.99014493693902"><ele>679.3333333333334</ele><time>2026-03-23T11:47:18.001Z</time></trkpt><trkpt lat="30.697946793991527" lon="-4.990223933141868"><ele>678.0</ele><time>2026-03-23T11:47:19.001Z</time></trkpt><trkpt lat="30.69779675245481" lon="-4.99031116986971"><ele>678.3333333333334</ele><time>2026-03-23T11:47:20.001Z</time></trkpt><trkpt lat="30.69764740097799" lon="-4.990412206330696"><ele>678.6666666666667</ele><time>2026-03-23T11:47:21.001Z</time></trkpt><trkpt lat="30.697490602413453" lon="-4.990515587852915"><ele>679.0</ele><time>2026-03-23T11:47:22.001Z</time></trkpt><trkpt lat="30.697327074575906" lon="-4.990622372507922"><ele>679.0</ele><time>2026-03-23T11:47:23.001Z</time></trkpt><trkpt lat="30.697147571830154" lon="-4.990723223254353"><ele>679.0</ele><time>2026-03-23T11:47:24.001Z</time></trkpt><trkpt lat="30.696946825523224" lon="-4.99083442215105"><ele>679.0</ele><time>2026-03-23T11:47:25.001Z</time></trkpt><trkpt lat="30.69674309174658" lon="-4.990955185754052"><ele>679.6666666666667</ele><time>2026-03-23T11:47:26.001Z</time></trkpt><trkpt lat="30.696563439527825" lon="-4.991066970880272"><ele>680.3333333333334</ele><time>2026-03-23T11:47:27.001Z</time></trkpt><trkpt lat="30.696395382774647" lon="-4.991181246574352"><ele>681.0</ele><time>2026-03-23T11:47:28.001Z</time></trkpt><trkpt lat="30.696219709872597" lon="-4.991294244401641"><ele>681.6666666666666</ele><time>2026-03-23T11:47:29.001Z</time></trkpt><trkpt lat="30.696036983515263" lon="-4.991411325892126"><ele>682.3333333333333</ele><time>2026-03-23T11:47:30.001Z</time></trkpt><trkpt lat="30.69587431158959" lon="-4.9915173579443755"><ele>683.0</ele><time>2026-03-23T11:47:31.001Z</time></trkpt><trkpt lat="30.695731672302475" lon="-4.991611714420228"><ele>683.0</ele><time>2026-03-23T11:47:32.001Z</time></trkpt><trkpt lat="30.695599163109375" lon="-4.99170028348037"><ele>683.0</ele><time>2026-03-23T11:47:33.001Z</time></trkpt><trkpt lat="30.695453525769125" lon="-4.991802406589645"><ele>683.0</ele><time>2026-03-23T11:47:34.001Z</time></trkpt><trkpt lat="30.695309017858236" lon="-4.99191266957864"><ele>683.3333333333333</ele><time>2026-03-23T11:47:35.001Z</time></trkpt><trkpt lat="30.69516720646864" lon="-4.992019280603844"><ele>683.6666666666666</ele><time>2026-03-23T11:47:36.001Z</time></trkpt><trkpt lat="30.69502435088128" lon="-4.992121890458252"><ele>684.0</ele><time>2026-03-23T11:47:37Z</time></trkpt><trkpt lat="30.694872937958483" lon="-4.992223337933695"><ele>684.0</ele><time>2026-03-23T11:47:38Z</time></trkpt><trkpt lat="30.694715117703065" lon="-4.992320834189935"><ele>684.0</ele><time>2026-03-23T11:47:39Z</time></trkpt><trkpt lat="30.694551651732294" lon="-4.992418953721392"><ele>684.0</ele><time>2026-03-23T11:47:40Z</time></trkpt><trkpt lat="30.694400189566416" lon="-4.992537531757492"><ele>683.6666666666666</ele><time>2026-03-23T11:47:41Z</time></trkpt><trkpt lat="30.694263003743785" lon="-4.992672167295221"><ele>683.3333333333333</ele><time>2026-03-23T11:47:42Z</time></trkpt><trkpt lat="30.694119613486095" lon="-4.992795632017845"><ele>683.0</ele><time>2026-03-23T11:47:43Z</time></trkpt><trkpt lat="30.693985727141012" lon="-4.992912723633584"><ele>683.0</ele><time>2026-03-23T11:47:44Z</time></trkpt><trkpt lat="30.693824892807047" lon="-4.993038625866367"><ele>683.0</ele><time>2026-03-23T11:47:45Z</time></trkpt><trkpt lat="30.6936735406836" lon="-4.99318464840611"><ele>683.0</ele><time>2026-03-23T11:47:46Z</time></trkpt><trkpt lat="30.69350400534875" lon="-4.993329467122633"><ele>683.0</ele><time>2026-03-23T11:47:47Z</time></trkpt><trkpt lat="30.693318701396702" lon="-4.993478574950111"><ele>683.0</ele><time>2026-03-23T11:47:48Z</time></trkpt><trkpt lat="30.69314736328657" lon="-4.993615978802361"><ele>683.0</ele><time>2026-03-23T11:47:49Z</time></trkpt><trkpt lat="30.693009794984338" lon="-4.993731649067892"><ele>683.0</ele><time>2026-03-23T11:47:50Z</time></trkpt><trkpt lat="30.69288877443849" lon="-4.99382508272211"><ele>683.0</ele><time>2026-03-23T11:47:51Z</time></trkpt><trkpt lat="30.692778591830056" lon="-4.993922977925249"><ele>683.0</ele><time>2026-03-23T11:47:52Z</time></trkpt><trkpt lat="30.69266975050172" lon="-4.994019553148445"><ele>683.0</ele><time>2026-03-23T11:47:53Z</time></trkpt><trkpt lat="30.69256368835978" lon="-4.994109169505256"><ele>683.0</ele><time>2026-03-23T11:47:54Z</time></trkpt><trkpt lat="30.692471263318815" lon="-4.994182872976102"><ele>683.0</ele><time>2026-03-23T11:47:55Z</time></trkpt><trkpt lat="30.692388792173244" lon="-4.99424165078946"><ele>683.0</ele><time>2026-03-23T11:47:56Z</time></trkpt><trkpt lat="30.692316141507817" lon="-4.994294845480109"><ele>683.0</ele><time>2026-03-23T11:47:57Z</time></trkpt><trkpt lat="30.692243150484554" lon="-4.994347323076272"><ele>683.0</ele><time>2026-03-23T11:47:58Z</time></trkpt><trkpt lat="30.69215553485956" lon="-4.994424562183473"><ele>683.0</ele><time>2026-03-23T11:47:59Z</time></trkpt><trkpt lat="30.69204301260757" lon="-4.994519347135256"><ele>683.0</ele><time>2026-03-23T11:48:00Z</time></trkpt><trkpt lat="30.691918405540765" lon="-4.994633074328885"><ele>683.0</ele><time>2026-03-23T11:48:01Z</time></trkpt><trkpt lat="30.691777308069145" lon="-4.994742106222864"><ele>683.0</ele><time>2026-03-23T11:48:02Z</time></trkpt><trkpt lat="30.691625143598056" lon="-4.994851577671144"><ele>683.0</ele><time>2026-03-23T11:48:03Z</time></trkpt><trkpt lat="30.691470591826164" lon="-4.9949740261588715"><ele>683.0</ele><time>2026-03-23T11:48:04Z</time></trkpt><trkpt lat="30.69130891138856" lon="-4.995112969404675"><ele>682.6666666666666</ele><time>2026-03-23T11:48:05Z</time></trkpt><trkpt lat="30.691152886766602" lon="-4.995249030260637"><ele>682.3333333333334</ele><time>2026-03-23T11:48:06Z</time></trkpt><trkpt lat="30.69099970453024" lon="-4.9953786307263774"><ele>682.0</ele><time>2026-03-23T11:48:07Z</time></trkpt><trkpt lat="30.690860001707083" lon="-4.995496263507121"><ele>682.0</ele><time>2026-03-23T11:48:08Z</time></trkpt><trkpt lat="30.69072881021136" lon="-4.995602345379258"><ele>682.0</ele><time>2026-03-23T11:48:09Z</time></trkpt><trkpt lat="30.690595792299096" lon="-4.9957112604888385"><ele>682.0</ele><time>2026-03-23T11:48:10Z</time></trkpt><trkpt lat="30.6904513952941" lon="-4.995837505662176"><ele>682.3333333333334</ele><time>2026-03-23T11:48:11Z</time></trkpt><trkpt lat="30.690301565141567" lon="-4.995960505645931"><ele>682.6666666666666</ele><time>2026-03-23T11:48:12Z</time></trkpt><trkpt lat="30.690166545790742" lon="-4.996071827174729"><ele>683.0</ele><time>2026-03-23T11:48:13Z</time></trkpt><trkpt lat="30.690058333876813" lon="-4.996157931380116"><ele>683.0</ele><time>2026-03-23T11:48:14Z</time></trkpt><trkpt lat="30.689978577482425" lon="-4.996226386813227"><ele>683.0</ele><time>2026-03-23T11:48:15Z</time></trkpt><trkpt lat="30.689917070544947" lon="-4.996275135289211"><ele>683.0</ele><time>2026-03-23T11:48:16Z</time></trkpt><trkpt lat="30.68982521763021" lon="-4.996346025371175"><ele>683.0</ele><time>2026-03-23T11:48:18Z</time></trkpt><trkpt lat="30.689731558535442" lon="-4.996427010172701"><ele>683.0</ele><time>2026-03-23T11:48:20Z</time></trkpt><trkpt lat="30.68964108603329" lon="-4.996510824504841"><ele>683.0</ele><time>2026-03-23T11:48:22Z</time></trkpt><trkpt lat="30.68954148956865" lon="-4.996610697075264"><ele>683.0</ele><time>2026-03-23T11:48:24Z</time></trkpt><trkpt lat="30.689478555412844" lon="-4.996664749892799"><ele>683.0</ele><time>2026-03-23T11:48:25Z</time></trkpt><trkpt lat="30.68940504900152" lon="-4.996728823352707"><ele>683.0</ele><time>2026-03-23T11:48:26Z</time></trkpt><trkpt lat="30.68930824683814" lon="-4.9968059397603835"><ele>683.0</ele><time>2026-03-23T11:48:27Z</time></trkpt><trkpt lat="30.68921384349394" lon="-4.996875611054328"><ele>682.75</ele><time>2026-03-23T11:48:28Z</time></trkpt><trkpt lat="30.689121622473788" lon="-4.996953343021161"><ele>682.5</ele><time>2026-03-23T11:48:29Z</time></trkpt><trkpt lat="30.689020711196854" lon="-4.997034748664705"><ele>682.25</ele><time>2026-03-23T11:48:30Z</time></trkpt><trkpt lat="30.68891726199793" lon="-4.997108752710428"><ele>682.0</ele><time>2026-03-23T11:48:31Z</time></trkpt><trkpt lat="30.688811610566546" lon="-4.9971963743937575"><ele>682.0</ele><time>2026-03-23T11:48:32.001Z</time></trkpt><trkpt lat="30.68869827926825" lon="-4.9972922815199095"><ele>682.0</ele><time>2026-03-23T11:48:33.001Z</time></trkpt><trkpt lat="30.688584120837465" lon="-4.997395227488788"><ele>682.0</ele><time>2026-03-23T11:48:34.001Z</time></trkpt><trkpt lat="30.688465736785663" lon="-4.997494342583837"><ele>682.0</ele><time>2026-03-23T11:48:35.001Z</time></trkpt><trkpt lat="30.68835180541263" lon="-4.99759140972582"><ele>682.25</ele><time>2026-03-23T11:48:36.001Z</time></trkpt><trkpt lat="30.688249589315024" lon="-4.997685550955887"><ele>682.5</ele><time>2026-03-23T11:48:37.001Z</time></trkpt><trkpt lat="30.68814227069138" lon="-4.997775573778314"><ele>682.75</ele><time>2026-03-23T11:48:38.001Z</time></trkpt><trkpt lat="30.68803548180367" lon="-4.9978662939131535"><ele>683.0</ele><time>2026-03-23T11:48:39.001Z</time></trkpt><trkpt lat="30.68792939301347" lon="-4.997956414556884"><ele>683.0</ele><time>2026-03-23T11:48:40.001Z</time></trkpt><trkpt lat="30.68782232841499" lon="-4.99804169524147"><ele>683.0</ele><time>2026-03-23T11:48:41.001Z</time></trkpt><trkpt lat="30.687717605227697" lon="-4.998125979015107"><ele>683.0</ele><time>2026-03-23T11:48:42.001Z</time></trkpt><trkpt lat="30.687634644772633" lon="-4.9982124165784345"><ele>683.0</ele><time>2026-03-23T11:48:43.001Z</time></trkpt><trkpt lat="30.687546650999753" lon="-4.998295580218916"><ele>682.75</ele><time>2026-03-23T11:48:44.001Z</time></trkpt><trkpt lat="30.68745149123337" lon="-4.998380895320696"><ele>682.5</ele><time>2026-03-23T11:48:45.001Z</time></trkpt><trkpt lat="30.68734024747285" lon="-4.998471230332608"><ele>682.25</ele><time>2026-03-23T11:48:46.001Z</time></trkpt><trkpt lat="30.68723663325701" lon="-4.998572064197042"><ele>682.0</ele><time>2026-03-23T11:48:47.001Z</time></trkpt><trkpt lat="30.687145962004916" lon="-4.998693626590112"><ele>682.0</ele><time>2026-03-23T11:48:48.001Z</time></trkpt><trkpt lat="30.687059844177302" lon="-4.998800436501337"><ele>682.0</ele><time>2026-03-23T11:48:49.001Z</time></trkpt><trkpt lat="30.686970792682807" lon="-4.998871911411699"><ele>682.0</ele><time>2026-03-23T11:48:50.001Z</time></trkpt><trkpt lat="30.686893688048038" lon="-4.998953217302553"><ele>682.0</ele><time>2026-03-23T11:48:51.001Z</time></trkpt><trkpt lat="30.68678125874533" lon="-4.9990557561402404"><ele>682.0</ele><time>2026-03-23T11:48:52.001Z</time></trkpt><trkpt lat="30.686648977735793" lon="-4.9991834436839"><ele>682.0</ele><time>2026-03-23T11:48:53.001Z</time></trkpt><trkpt lat="30.686499795793118" lon="-4.999334971268703"><ele>682.0</ele><time>2026-03-23T11:48:54.001Z</time></trkpt><trkpt lat="30.68635754370023" lon="-4.999480159218075"><ele>682.0</ele><time>2026-03-23T11:48:55.001Z</time></trkpt><trkpt lat="30.686239539989128" lon="-4.9995986403873065"><ele>682.0</ele><time>2026-03-23T11:48:56.001Z</time></trkpt><trkpt lat="30.686141206267973" lon="-4.999718549494209"><ele>682.0</ele><time>2026-03-23T11:48:57.001Z</time></trkpt><trkpt lat="30.68604966330628" lon="-4.999812836303258"><ele>682.0</ele><time>2026-03-23T11:48:58.001Z</time></trkpt><trkpt lat="30.68597206985584" lon="-4.999895220081585"><ele>682.4000000000001</ele><time>2026-03-23T11:48:59.001Z</time></trkpt><trkpt lat="30.68588628132838" lon="-4.999973034394339"><ele>682.8000000000001</ele><time>2026-03-23T11:49:00.001Z</time></trkpt><trkpt lat="30.68579254512928" lon="-5.0000537711919675"><ele>683.2</ele><time>2026-03-23T11:49:01.001Z</time></trkpt><trkpt lat="30.68569853970943" lon="-5.000105138364255"><ele>683.6</ele><time>2026-03-23T11:49:02.001Z</time></trkpt><trkpt lat="30.685589301468735" lon="-5.00013849752441"><ele>684.0</ele><time>2026-03-23T11:49:03.001Z</time></trkpt><trkpt lat="30.685463358631786" lon="-5.000169266908643"><ele>684.0</ele><time>2026-03-23T11:49:04.001Z</time></trkpt><trkpt lat="30.685364014561657" lon="-5.0001811408481736"><ele>684.0</ele><time>2026-03-23T11:49:05.001Z</time></trkpt><trkpt lat="30.68524188957999" lon="-5.000216531113194"><ele>684.0</ele><time>2026-03-23T11:49:07.001Z</time></trkpt><trkpt lat="30.685169279183523" lon="-5.00026354926191"><ele>684.0</ele><time>2026-03-23T11:49:08.001Z</time></trkpt><trkpt lat="30.68510050217134" lon="-5.0003238486128545"><ele>684.0</ele><time>2026-03-23T11:49:09.001Z</time></trkpt><trkpt lat="30.68501230459717" lon="-5.000390161194623"><ele>683.4000000000001</ele><time>2026-03-23T11:49:10.001Z</time></trkpt><trkpt lat="30.684913663057067" lon="-5.000453320730913"><ele>682.8</ele><time>2026-03-23T11:49:11.001Z</time></trkpt><trkpt lat="30.684844283115396" lon="-5.0005029726153"><ele>682.2</ele><time>2026-03-23T11:49:12.001Z</time></trkpt><trkpt lat="30.68477434337503" lon="-5.000563640984094"><ele>681.5999999999999</ele><time>2026-03-23T11:49:13.001Z</time></trkpt><trkpt lat="30.68469440716433" lon="-5.000633298128723"><ele>681.0</ele><time>2026-03-23T11:49:14.001Z</time></trkpt><trkpt lat="30.684615863546128" lon="-5.000688473353218"><ele>681.0</ele><time>2026-03-23T11:49:15.001Z</time></trkpt><trkpt lat="30.68453859184874" lon="-5.000746386748416"><ele>681.0</ele><time>2026-03-23T11:49:16.001Z</time></trkpt><trkpt lat="30.68445632897591" lon="-5.0008037983304385"><ele>681.0</ele><time>2026-03-23T11:49:17.001Z</time></trkpt><trkpt lat="30.684375515545977" lon="-5.000860656401774"><ele>681.0</ele><time>2026-03-23T11:49:18.001Z</time></trkpt><trkpt lat="30.68428286933099" lon="-5.000916742302541"><ele>681.0</ele><time>2026-03-23T11:49:19.001Z</time></trkpt><trkpt lat="30.684212150095796" lon="-5.000955413662866"><ele>681.3333333333334</ele><time>2026-03-23T11:49:20.001Z</time></trkpt><trkpt lat="30.684147244439473" lon="-5.0009925618827085"><ele>681.6666666666666</ele><time>2026-03-23T11:49:21.001Z</time></trkpt><trkpt lat="30.68406944138191" lon="-5.001022798428745"><ele>682.0</ele><time>2026-03-23T11:49:22.001Z</time></trkpt><trkpt lat="30.68398202443264" lon="-5.001052144801944"><ele>682.3333333333333</ele><time>2026-03-23T11:49:23.001Z</time></trkpt><trkpt lat="30.68389461002761" lon="-5.001085128753629"><ele>682.6666666666666</ele><time>2026-03-23T11:49:24.001Z</time></trkpt><trkpt lat="30.683811389068207" lon="-5.001116922577272"><ele>683.0</ele><time>2026-03-23T11:49:25.001Z</time></trkpt><trkpt lat="30.683732751419647" lon="-5.001150330019793"><ele>683.0</ele><time>2026-03-23T11:49:26.001Z</time></trkpt><trkpt lat="30.683672328839567" lon="-5.001178752800517"><ele>683.0</ele><time>2026-03-23T11:49:27.001Z</time></trkpt><trkpt lat="30.683612870640726" lon="-5.001207852379858"><ele>683.0</ele><time>2026-03-23T11:49:28.001Z</time></trkpt><trkpt lat="30.68354202784847" lon="-5.001259621266924"><ele>683.0</ele><time>2026-03-23T11:49:29.001Z</time></trkpt><trkpt lat="30.68347445473047" lon="-5.001302793163938"><ele>683.0</ele><time>2026-03-23T11:49:30.001Z</time></trkpt><trkpt lat="30.683417536292" lon="-5.001360430666568"><ele>683.0</ele><time>2026-03-23T11:49:31.001Z</time></trkpt><trkpt lat="30.683346678985167" lon="-5.001432722986248"><ele>683.0</ele><time>2026-03-23T11:49:32.001Z</time></trkpt><trkpt lat="30.68325367172255" lon="-5.001496521816385"><ele>683.0</ele><time>2026-03-23T11:49:33.001Z</time></trkpt><trkpt lat="30.6831403353518" lon="-5.001547532028653"><ele>683.0</ele><time>2026-03-23T11:49:34.001Z</time></trkpt><trkpt lat="30.683026780312176" lon="-5.0016095390578625"><ele>683.0</ele><time>2026-03-23T11:49:35.001Z</time></trkpt><trkpt lat="30.68290208540679" lon="-5.001712224715331"><ele>683.3333333333333</ele><time>2026-03-23T11:49:36.001Z</time></trkpt><trkpt lat="30.682773880711764" lon="-5.0018321652855775"><ele>683.6666666666666</ele><time>2026-03-23T11:49:37.001Z</time></trkpt><trkpt lat="30.68263799751795" lon="-5.001983242461113"><ele>684.0</ele><time>2026-03-23T11:49:38.001Z</time></trkpt><trkpt lat="30.682487476164436" lon="-5.002133843555969"><ele>684.0</ele><time>2026-03-23T11:49:39.001Z</time></trkpt><trkpt lat="30.682348302688705" lon="-5.002277448175991"><ele>684.0</ele><time>2026-03-23T11:49:40.001Z</time></trkpt><trkpt lat="30.68220669346403" lon="-5.002412210761548"><ele>684.0</ele><time>2026-03-23T11:49:41.001Z</time></trkpt><trkpt lat="30.682069521347408" lon="-5.0025599355637675"><ele>684.0</ele><time>2026-03-23T11:49:42.001Z</time></trkpt><trkpt lat="30.681933514798413" lon="-5.0026658409829"><ele>684.0</ele><time>2026-03-23T11:49:43Z</time></trkpt><trkpt lat="30.68180024206068" lon="-5.002786027049348"><ele>684.0</ele><time>2026-03-23T11:49:44Z</time></trkpt><trkpt lat="30.68165438121446" lon="-5.002913484624515"><ele>683.75</ele><time>2026-03-23T11:49:45Z</time></trkpt><trkpt lat="30.681531877943392" lon="-5.003029881113681"><ele>683.5</ele><time>2026-03-23T11:49:46Z</time></trkpt><trkpt lat="30.68143025673595" lon="-5.00312352804262"><ele>683.25</ele><time>2026-03-23T11:49:47Z</time></trkpt><trkpt lat="30.681333518361157" lon="-5.003203193178877"><ele>683.0</ele><time>2026-03-23T11:49:48Z</time></trkpt><trkpt lat="30.681244577871222" lon="-5.003279807143677"><ele>683.25</ele><time>2026-03-23T11:49:49Z</time></trkpt><trkpt lat="30.681164416375054" lon="-5.003363933220818"><ele>683.5</ele><time>2026-03-23T11:49:50Z</time></trkpt><trkpt lat="30.6810850161155" lon="-5.003458480502584"><ele>683.75</ele><time>2026-03-23T11:49:51Z</time></trkpt><trkpt lat="30.680993468836014" lon="-5.003549597707408"><ele>684.0</ele><time>2026-03-23T11:49:52Z</time></trkpt><trkpt lat="30.680893973168736" lon="-5.003631318021449"><ele>684.0</ele><time>2026-03-23T11:49:53Z</time></trkpt><trkpt lat="30.680799696767114" lon="-5.003719064343948"><ele>684.0</ele><time>2026-03-23T11:49:54Z</time></trkpt><trkpt lat="30.680723989322498" lon="-5.00379812774141"><ele>684.0</ele><time>2026-03-23T11:49:55Z</time></trkpt><trkpt lat="30.68066519973985" lon="-5.003860630404339"><ele>684.0</ele><time>2026-03-23T11:49:56Z</time></trkpt><trkpt lat="30.68060055362862" lon="-5.003921827826995"><ele>684.0</ele><time>2026-03-23T11:49:57Z</time></trkpt><trkpt lat="30.680542033469866" lon="-5.0039764111107194"><ele>683.9999999999999</ele><time>2026-03-23T11:49:58Z</time></trkpt><trkpt lat="30.680495153800255" lon="-5.004027315876247"><ele>684.0</ele><time>2026-03-23T11:49:59Z</time></trkpt><trkpt lat="30.680445673190153" lon="-5.004096417900848"><ele>684.0</ele><time>2026-03-23T11:50:00Z</time></trkpt><trkpt lat="30.680401028356414" lon="-5.00415328788411"><ele>684.0</ele><time>2026-03-23T11:50:01Z</time></trkpt><trkpt lat="30.680353439957543" lon="-5.004216351413263"><ele>684.0</ele><time>2026-03-23T11:50:02Z</time></trkpt><trkpt lat="30.680300139517453" lon="-5.004291834519266"><ele>683.9999999999999</ele><time>2026-03-23T11:50:03Z</time></trkpt><trkpt lat="30.680250016025315" lon="-5.0043651370897475"><ele>684.0</ele><time>2026-03-23T11:50:04Z</time></trkpt><trkpt lat="30.68019736172931" lon="-5.004439552654798"><ele>683.8000000000001</ele><time>2026-03-23T11:50:05Z</time></trkpt><trkpt lat="30.680129739862736" lon="-5.004512943540277"><ele>683.6</ele><time>2026-03-23T11:50:06Z</time></trkpt><trkpt lat="30.680050184727385" lon="-5.004595711022459"><ele>683.4</ele><time>2026-03-23T11:50:07Z</time></trkpt><trkpt lat="30.67996551708644" lon="-5.004689879598676"><ele>683.2</ele><time>2026-03-23T11:50:08Z</time></trkpt><trkpt lat="30.67986745031274" lon="-5.004789108759616"><ele>683.0</ele><time>2026-03-23T11:50:09Z</time></trkpt><trkpt lat="30.679783872603295" lon="-5.004883092936619"><ele>683.0</ele><time>2026-03-23T11:50:10Z</time></trkpt><trkpt lat="30.679691993733623" lon="-5.004981881782384"><ele>683.0</ele><time>2026-03-23T11:50:11Z</time></trkpt><trkpt lat="30.67958342877441" lon="-5.005098324514497"><ele>683.0</ele><time>2026-03-23T11:50:12Z</time></trkpt><trkpt lat="30.679461462131943" lon="-5.005218026385977"><ele>683.0</ele><time>2026-03-23T11:50:13Z</time></trkpt><trkpt lat="30.679368085778204" lon="-5.005312490017605"><ele>683.0</ele><time>2026-03-23T11:50:14Z</time></trkpt><trkpt lat="30.67928664868648" lon="-5.005397695606884"><ele>683.0</ele><time>2026-03-23T11:50:15Z</time></trkpt><trkpt lat="30.679200340150167" lon="-5.0054867657476745"><ele>683.0</ele><time>2026-03-23T11:50:16Z</time></trkpt><trkpt lat="30.679106258121582" lon="-5.005574670337943"><ele>683.0</ele><time>2026-03-23T11:50:17Z</time></trkpt><trkpt lat="30.679011058242136" lon="-5.005672352585752"><ele>683.0</ele><time>2026-03-23T11:50:18Z</time></trkpt><trkpt lat="30.678918321761078" lon="-5.005772735251428"><ele>683.0</ele><time>2026-03-23T11:50:19Z</time></trkpt><trkpt lat="30.678829569916086" lon="-5.005876717226078"><ele>683.0</ele><time>2026-03-23T11:50:20Z</time></trkpt><trkpt lat="30.67873401985467" lon="-5.005973008625593"><ele>683.0</ele><time>2026-03-23T11:50:21Z</time></trkpt><trkpt lat="30.678632156892498" lon="-5.006076776981743"><ele>683.0</ele><time>2026-03-23T11:50:22Z</time></trkpt><trkpt lat="30.678519221864956" lon="-5.006183177649817"><ele>683.0</ele><time>2026-03-23T11:50:23Z</time></trkpt><trkpt lat="30.678390867361042" lon="-5.006311583650164"><ele>683.0</ele><time>2026-03-23T11:50:24Z</time></trkpt><trkpt lat="30.678259208327386" lon="-5.006449490965251"><ele>683.0</ele><time>2026-03-23T11:50:25Z</time></trkpt><trkpt lat="30.678106861892562" lon="-5.006601553517027"><ele>683.0</ele><time>2026-03-23T11:50:26Z</time></trkpt><trkpt lat="30.677950204013236" lon="-5.006755040120233"><ele>683.0</ele><time>2026-03-23T11:50:27Z</time></trkpt><trkpt lat="30.67777734883455" lon="-5.006933216368854"><ele>683.3333333333333</ele><time>2026-03-23T11:50:28Z</time></trkpt><trkpt lat="30.67760679041354" lon="-5.007115254502416"><ele>683.6666666666666</ele><time>2026-03-23T11:50:29Z</time></trkpt><trkpt lat="30.677446172711278" lon="-5.007276925275066"><ele>684.0</ele><time>2026-03-23T11:50:30Z</time></trkpt><trkpt lat="30.67728861908039" lon="-5.00743820453854"><ele>684.0</ele><time>2026-03-23T11:50:31Z</time></trkpt><trkpt lat="30.677127204303194" lon="-5.007604942567816"><ele>684.0</ele><time>2026-03-23T11:50:32Z</time></trkpt><trkpt lat="30.67697448662848" lon="-5.007769026059425"><ele>684.0</ele><time>2026-03-23T11:50:33Z</time></trkpt><trkpt lat="30.676836654402962" lon="-5.0079079327922695"><ele>684.0</ele><time>2026-03-23T11:50:34Z</time></trkpt><trkpt lat="30.67671343633183" lon="-5.008034818060468"><ele>684.0</ele><time>2026-03-23T11:50:35Z</time></trkpt><trkpt lat="30.6765992002972" lon="-5.008151434860139"><ele>684.0</ele><time>2026-03-23T11:50:36Z</time></trkpt><trkpt lat="30.67647762446942" lon="-5.008277139205881"><ele>683.6666666666666</ele><time>2026-03-23T11:50:37Z</time></trkpt><trkpt lat="30.676344909774215" lon="-5.00841321177106"><ele>683.3333333333333</ele><time>2026-03-23T11:50:38Z</time></trkpt><trkpt lat="30.6762053944112" lon="-5.00855492150614"><ele>683.0</ele><time>2026-03-23T11:50:39Z</time></trkpt><trkpt lat="30.676059317810257" lon="-5.0086920179247345"><ele>683.0</ele><time>2026-03-23T11:50:40Z</time></trkpt><trkpt lat="30.67592444847786" lon="-5.008818181428211"><ele>683.0</ele><time>2026-03-23T11:50:41Z</time></trkpt><trkpt lat="30.675787146402282" lon="-5.008944054828435"><ele>683.0</ele><time>2026-03-23T11:50:42Z</time></trkpt><trkpt lat="30.67565864528889" lon="-5.0090517825366465"><ele>683.0</ele><time>2026-03-23T11:50:43Z</time></trkpt><trkpt lat="30.675539848545025" lon="-5.009140073818559"><ele>683.0</ele><time>2026-03-23T11:50:44Z</time></trkpt><trkpt lat="30.675413204338163" lon="-5.009232532575577"><ele>683.0</ele><time>2026-03-23T11:50:45.001Z</time></trkpt><trkpt lat="30.67528276265598" lon="-5.009327290223012"><ele>683.0</ele><time>2026-03-23T11:50:46.001Z</time></trkpt><trkpt lat="30.675147957915435" lon="-5.009417427965197"><ele>682.5</ele><time>2026-03-23T11:50:47.001Z</time></trkpt><trkpt lat="30.67502133799562" lon="-5.009499250560282"><ele>682.0</ele><time>2026-03-23T11:50:48.001Z</time></trkpt><trkpt lat="30.674903339356028" lon="-5.009576578057784"><ele>681.5</ele><time>2026-03-23T11:50:49.001Z</time></trkpt><trkpt lat="30.674778523017658" lon="-5.0096538517700635"><ele>681.0</ele><time>2026-03-23T11:50:50.001Z</time></trkpt><trkpt lat="30.674659922347868" lon="-5.0097134631778175"><ele>681.0</ele><time>2026-03-23T11:50:51.001Z</time></trkpt><trkpt lat="30.67453701269301" lon="-5.009775794858911"><ele>681.0</ele><time>2026-03-23T11:50:52.001Z</time></trkpt><trkpt lat="30.674412953482335" lon="-5.009847673379604"><ele>681.0</ele><time>2026-03-23T11:50:53.001Z</time></trkpt><trkpt lat="30.674279356251894" lon="-5.009915520719734"><ele>681.0</ele><time>2026-03-23T11:50:54.001Z</time></trkpt><trkpt lat="30.674132935473956" lon="-5.009968394423991"><ele>682.0</ele><time>2026-03-23T11:50:55.001Z</time></trkpt><trkpt lat="30.673979769032744" lon="-5.01002694786057"><ele>683.0</ele><time>2026-03-23T11:50:56.001Z</time></trkpt><trkpt lat="30.673827081384015" lon="-5.010096496263462"><ele>684.0</ele><time>2026-03-23T11:50:57.001Z</time></trkpt><trkpt lat="30.67368485855544" lon="-5.010166276040799"><ele>683.75</ele><time>2026-03-23T11:50:58.001Z</time></trkpt><trkpt lat="30.67357383421258" lon="-5.010229838578287"><ele>683.5</ele><time>2026-03-23T11:50:59.001Z</time></trkpt><trkpt lat="30.673500163525432" lon="-5.010325212149219"><ele>683.25</ele><time>2026-03-23T11:51:00.001Z</time></trkpt><trkpt lat="30.673436942772994" lon="-5.010456347609063"><ele>683.0</ele><time>2026-03-23T11:51:01.001Z</time></trkpt><trkpt lat="30.6733822386644" lon="-5.010622002096492"><ele>683.0</ele><time>2026-03-23T11:51:02.001Z</time></trkpt><trkpt lat="30.67333234935083" lon="-5.010796624383104"><ele>683.0</ele><time>2026-03-23T11:51:03.001Z</time></trkpt><trkpt lat="30.673280828216527" lon="-5.010977728157851"><ele>683.0</ele><time>2026-03-23T11:51:04.001Z</time></trkpt><trkpt lat="30.67323010359954" lon="-5.011155815526399"><ele>683.3333333333333</ele><time>2026-03-23T11:51:05.001Z</time></trkpt><trkpt lat="30.673176426676743" lon="-5.011348185801998"><ele>683.6666666666666</ele><time>2026-03-23T11:51:06.001Z</time></trkpt><trkpt lat="30.673133592427217" lon="-5.011535200153022"><ele>684.0</ele><time>2026-03-23T11:51:07.001Z</time></trkpt><trkpt lat="30.67309507864165" lon="-5.011721673487901"><ele>684.25</ele><time>2026-03-23T11:51:08.001Z</time></trkpt><trkpt lat="30.67306063750359" lon="-5.011897739993297"><ele>684.5</ele><time>2026-03-23T11:51:09.001Z</time></trkpt><trkpt lat="30.67301791587559" lon="-5.012055275734342"><ele>684.75</ele><time>2026-03-23T11:51:10.001Z</time></trkpt><trkpt lat="30.67298274878208" lon="-5.012203655763392"><ele>685.0</ele><time>2026-03-23T11:51:11.001Z</time></trkpt><trkpt lat="30.672941760995087" lon="-5.01232862020608"><ele>685.0</ele><time>2026-03-23T11:51:12.001Z</time></trkpt><trkpt lat="30.672897873160068" lon="-5.012424040895746"><ele>685.0</ele><time>2026-03-23T11:51:13.001Z</time></trkpt><trkpt lat="30.672841709358995" lon="-5.012495647591422"><ele>685.0</ele><time>2026-03-23T11:51:14.001Z</time></trkpt><trkpt lat="30.67278563667408" lon="-5.012539226731061"><ele>685.0</ele><time>2026-03-23T11:51:15.001Z</time></trkpt><trkpt lat="30.672682671201223" lon="-5.012585881348427"><ele>685.0</ele><time>2026-03-23T11:51:17.001Z</time></trkpt><trkpt lat="30.672559003935" lon="-5.0126021616624055"><ele>684.2</ele><time>2026-03-23T11:51:19.001Z</time></trkpt><trkpt lat="30.672476072342945" lon="-5.012614205948828"><ele>683.4</ele><time>2026-03-23T11:51:20.001Z</time></trkpt><trkpt lat="30.672401553159858" lon="-5.01267309136839"><ele>682.5999999999999</ele><time>2026-03-23T11:51:21.001Z</time></trkpt><trkpt lat="30.672284259324297" lon="-5.012657350184371"><ele>681.8</ele><time>2026-03-23T11:51:22.001Z</time></trkpt><trkpt lat="30.67218477335632" lon="-5.012670504131529"><ele>681.0</ele><time>2026-03-23T11:51:23.001Z</time></trkpt><trkpt lat="30.672091705477484" lon="-5.012661012766732"><ele>681.0</ele><time>2026-03-23T11:51:24.001Z</time></trkpt><trkpt lat="30.672010435329163" lon="-5.012691880632478"><ele>681.0</ele><time>2026-03-23T11:51:25.001Z</time></trkpt><trkpt lat="30.671923386114514" lon="-5.012761854510764"><ele>681.0</ele><time>2026-03-23T11:51:26.001Z</time></trkpt><trkpt lat="30.671822731249026" lon="-5.012792473254841"><ele>681.0</ele><time>2026-03-23T11:51:27.001Z</time></trkpt><trkpt lat="30.671713871630196" lon="-5.012828448030569"><ele>681.0</ele><time>2026-03-23T11:51:28.001Z</time></trkpt><trkpt lat="30.671602160406287" lon="-5.0128696289529815"><ele>681.0</ele><time>2026-03-23T11:51:29.001Z</time></trkpt><trkpt lat="30.671487130355786" lon="-5.01291988259707"><ele>681.0</ele><time>2026-03-23T11:51:30.001Z</time></trkpt><trkpt lat="30.67136373098766" lon="-5.012971093247837"><ele>681.0</ele><time>2026-03-23T11:51:31.001Z</time></trkpt><trkpt lat="30.671231408082544" lon="-5.013028780925409"><ele>681.0</ele><time>2026-03-23T11:51:32.001Z</time></trkpt><trkpt lat="30.671097790034338" lon="-5.01309355571012"><ele>681.0</ele><time>2026-03-23T11:51:33.001Z</time></trkpt><trkpt lat="30.670955279657495" lon="-5.013162126960371"><ele>681.0</ele><time>2026-03-23T11:51:34.001Z</time></trkpt><trkpt lat="30.670803923412013" lon="-5.013248017168134"><ele>681.0</ele><time>2026-03-23T11:51:35.001Z</time></trkpt><trkpt lat="30.670653511205934" lon="-5.013330164300441"><ele>681.25</ele><time>2026-03-23T11:51:36.001Z</time></trkpt><trkpt lat="30.670520004032188" lon="-5.013394042299591"><ele>681.5</ele><time>2026-03-23T11:51:37.001Z</time></trkpt><trkpt lat="30.670393855763752" lon="-5.013453788225594"><ele>681.75</ele><time>2026-03-23T11:51:38.001Z</time></trkpt><trkpt lat="30.67026531963854" lon="-5.013509472499158"><ele>682.0</ele><time>2026-03-23T11:51:39.001Z</time></trkpt><trkpt lat="30.67014271887304" lon="-5.013562409332192"><ele>681.6</ele><time>2026-03-23T11:51:40.001Z</time></trkpt><trkpt lat="30.67003245343571" lon="-5.013594622371205"><ele>681.2</ele><time>2026-03-23T11:51:41.001Z</time></trkpt><trkpt lat="30.669936190508484" lon="-5.013608576026388"><ele>680.8</ele><time>2026-03-23T11:51:42.001Z</time></trkpt><trkpt lat="30.6698570431115" lon="-5.013609614827804"><ele>680.4</ele><time>2026-03-23T11:51:43.001Z</time></trkpt><trkpt lat="30.66976876623555" lon="-5.013613274828905"><ele>680.0</ele><time>2026-03-23T11:51:44.001Z</time></trkpt><trkpt lat="30.66968425338252" lon="-5.013624999774436"><ele>680.0</ele><time>2026-03-23T11:51:45.001Z</time></trkpt><trkpt lat="30.66960106243294" lon="-5.013633619777442"><ele>680.0</ele><time>2026-03-23T11:51:46.001Z</time></trkpt><trkpt lat="30.669506897910637" lon="-5.013660974114869"><ele>680.0</ele><time>2026-03-23T11:51:47.001Z</time></trkpt><trkpt lat="30.669417878244634" lon="-5.013678688811803"><ele>680.0</ele><time>2026-03-23T11:51:48.001Z</time></trkpt><trkpt lat="30.66931366460171" lon="-5.0137028055472035"><ele>680.0</ele><time>2026-03-23T11:51:48.999Z</time></trkpt><trkpt lat="30.669218462628873" lon="-5.013725589782501"><ele>681.2</ele><time>2026-03-23T11:51:49.999Z</time></trkpt><trkpt lat="30.669129340022756" lon="-5.013750389818516"><ele>682.4</ele><time>2026-03-23T11:51:50.999Z</time></trkpt><trkpt lat="30.669039467676875" lon="-5.013786481576669"><ele>683.5999999999999</ele><time>2026-03-23T11:51:51.999Z</time></trkpt><trkpt lat="30.668962219127934" lon="-5.013850322030978"><ele>684.8</ele><time>2026-03-23T11:51:52.999Z</time></trkpt><trkpt lat="30.66887599983483" lon="-5.013947813165532"><ele>686.0</ele><time>2026-03-23T11:51:53.999Z</time></trkpt><trkpt lat="30.668774614955705" lon="-5.014078249802914"><ele>685.5</ele><time>2026-03-23T11:51:54.999Z</time></trkpt><trkpt lat="30.668661313700778" lon="-5.014211973503991"><ele>685.0</ele><time>2026-03-23T11:51:55.999Z</time></trkpt><trkpt lat="30.668559828622534" lon="-5.014340804312303"><ele>684.5</ele><time>2026-03-23T11:51:57Z</time></trkpt><trkpt lat="30.668471717377116" lon="-5.014455781744783"><ele>684.0</ele><time>2026-03-23T11:51:58Z</time></trkpt><trkpt lat="30.668390518721754" lon="-5.014566463232696"><ele>684.0</ele><time>2026-03-23T11:51:59Z</time></trkpt><trkpt lat="30.668313381478626" lon="-5.014679734283568"><ele>684.0</ele><time>2026-03-23T11:52:00Z</time></trkpt><trkpt lat="30.668230618216874" lon="-5.01480238014184"><ele>684.0</ele><time>2026-03-23T11:52:01Z</time></trkpt><trkpt lat="30.66815076196784" lon="-5.014920278238785"><ele>684.0</ele><time>2026-03-23T11:52:02Z</time></trkpt><trkpt lat="30.66806374206625" lon="-5.015005344316075"><ele>684.4000000000001</ele><time>2026-03-23T11:52:03Z</time></trkpt><trkpt lat="30.667970722600124" lon="-5.015081466987656"><ele>684.8</ele><time>2026-03-23T11:52:04Z</time></trkpt><trkpt lat="30.667878621902503" lon="-5.015147317033898"><ele>685.2</ele><time>2026-03-23T11:52:05Z</time></trkpt><trkpt lat="30.66778518568966" lon="-5.015199629910364"><ele>685.5999999999999</ele><time>2026-03-23T11:52:06Z</time></trkpt><trkpt lat="30.667691695846663" lon="-5.015236393131474"><ele>686.0</ele><time>2026-03-23T11:52:07Z</time></trkpt><trkpt lat="30.667600835015644" lon="-5.015273508788191"><ele>685.1999999999999</ele><time>2026-03-23T11:52:08Z</time></trkpt><trkpt lat="30.66750408889188" lon="-5.015310887074523"><ele>684.4</ele><time>2026-03-23T11:52:09Z</time></trkpt><trkpt lat="30.667406962412603" lon="-5.015339761000933"><ele>683.6</ele><time>2026-03-23T11:52:10Z</time></trkpt><trkpt lat="30.667296015401533" lon="-5.015364787008865"><ele>682.8</ele><time>2026-03-23T11:52:11Z</time></trkpt><trkpt lat="30.667174894576444" lon="-5.0153935773816585"><ele>682.0</ele><time>2026-03-23T11:52:12Z</time></trkpt><trkpt lat="30.667053757671287" lon="-5.015424289200089"><ele>682.0</ele><time>2026-03-23T11:52:13Z</time></trkpt><trkpt lat="30.66694819428975" lon="-5.015446148807509"><ele>682.0</ele><time>2026-03-23T11:52:14Z</time></trkpt><trkpt lat="30.66685152647042" lon="-5.0154568465813005"><ele>682.0</ele><time>2026-03-23T11:52:15Z</time></trkpt><trkpt lat="30.66674497781058" lon="-5.0154517813064405"><ele>682.0</ele><time>2026-03-23T11:52:16Z</time></trkpt><trkpt lat="30.66664099816501" lon="-5.015440505523221"><ele>682.0</ele><time>2026-03-23T11:52:17Z</time></trkpt><trkpt lat="30.66653671048308" lon="-5.015429763414259"><ele>682.0</ele><time>2026-03-23T11:52:18Z</time></trkpt><trkpt lat="30.66642461555947" lon="-5.015443486281658"><ele>682.0</ele><time>2026-03-23T11:52:19Z</time></trkpt><trkpt lat="30.666309111280643" lon="-5.015461992775173"><ele>682.0</ele><time>2026-03-23T11:52:20Z</time></trkpt><trkpt lat="30.66619683741334" lon="-5.015481295469086"><ele>682.0</ele><time>2026-03-23T11:52:21Z</time></trkpt><trkpt lat="30.666099496270505" lon="-5.015502738767061"><ele>682.0</ele><time>2026-03-23T11:52:22Z</time></trkpt><trkpt lat="30.666005832281098" lon="-5.015536720783992"><ele>682.0</ele><time>2026-03-23T11:52:23Z</time></trkpt><trkpt lat="30.66590526900462" lon="-5.015572924518174"><ele>682.0</ele><time>2026-03-23T11:52:24Z</time></trkpt><trkpt lat="30.665804897706437" lon="-5.015598633522839"><ele>682.0</ele><time>2026-03-23T11:52:25Z</time></trkpt><trkpt lat="30.665710022175823" lon="-5.015625616373677"><ele>682.0</ele><time>2026-03-23T11:52:26Z</time></trkpt><trkpt lat="30.6656203765769" lon="-5.015654377337443"><ele>682.0</ele><time>2026-03-23T11:52:27Z</time></trkpt><trkpt lat="30.665518984561594" lon="-5.0156986539548605"><ele>682.0</ele><time>2026-03-23T11:52:28Z</time></trkpt><trkpt lat="30.66542206616769" lon="-5.015741223146817"><ele>682.0</ele><time>2026-03-23T11:52:29Z</time></trkpt><trkpt lat="30.665348396127033" lon="-5.015788680414818"><ele>682.0</ele><time>2026-03-23T11:52:30Z</time></trkpt><trkpt lat="30.665270448041724" lon="-5.0158292701941685"><ele>682.0</ele><time>2026-03-23T11:52:31Z</time></trkpt><trkpt lat="30.665179485283566" lon="-5.015858589704976"><ele>682.0</ele><time>2026-03-23T11:52:32Z</time></trkpt><trkpt lat="30.665086573643727" lon="-5.015897774931046"><ele>682.2</ele><time>2026-03-23T11:52:33Z</time></trkpt><trkpt lat="30.664988552842612" lon="-5.015937536013088"><ele>682.4000000000001</ele><time>2026-03-23T11:52:34Z</time></trkpt><trkpt lat="30.664883709065663" lon="-5.015986429153952"><ele>682.5999999999999</ele><time>2026-03-23T11:52:35Z</time></trkpt><trkpt lat="30.664777962250053" lon="-5.016033823446488"><ele>682.8</ele><time>2026-03-23T11:52:36Z</time></trkpt><trkpt lat="30.664680440099676" lon="-5.016071739550307"><ele>683.0</ele><time>2026-03-23T11:52:37Z</time></trkpt><trkpt lat="30.66459195725052" lon="-5.016096915914623"><ele>683.0</ele><time>2026-03-23T11:52:38Z</time></trkpt><trkpt lat="30.66450088706299" lon="-5.0161139552887235"><ele>683.0</ele><time>2026-03-23T11:52:39Z</time></trkpt><trkpt lat="30.664422228672237" lon="-5.016131326831735"><ele>683.0</ele><time>2026-03-23T11:52:40Z</time></trkpt><trkpt lat="30.664346172014795" lon="-5.016148600759111"><ele>683.0</ele><time>2026-03-23T11:52:41Z</time></trkpt><trkpt lat="30.664259381750856" lon="-5.016164763378838"><ele>683.0</ele><time>2026-03-23T11:52:42Z</time></trkpt><trkpt lat="30.664179863909553" lon="-5.016169911637767"><ele>683.0</ele><time>2026-03-23T11:52:43Z</time></trkpt><trkpt lat="30.664079355256423" lon="-5.016153111118408"><ele>683.4</ele><time>2026-03-23T11:52:44Z</time></trkpt><trkpt lat="30.663970407525145" lon="-5.016107987213007"><ele>683.8</ele><time>2026-03-23T11:52:45Z</time></trkpt><trkpt lat="30.663881652320097" lon="-5.016060644036672"><ele>684.2</ele><time>2026-03-23T11:52:46Z</time></trkpt><trkpt lat="30.66381357974312" lon="-5.016033349076956"><ele>684.6</ele><time>2026-03-23T11:52:47Z</time></trkpt><trkpt lat="30.663710684715163" lon="-5.016018802179651"><ele>685.0</ele><time>2026-03-23T11:52:49Z</time></trkpt><trkpt lat="30.663645972976433" lon="-5.016029613426512"><ele>685.1666666666667</ele><time>2026-03-23T11:52:50Z</time></trkpt><trkpt lat="30.663580963513567" lon="-5.016057979778381"><ele>685.3333333333334</ele><time>2026-03-23T11:52:51Z</time></trkpt><trkpt lat="30.663515078592454" lon="-5.016110186442197"><ele>685.5</ele><time>2026-03-23T11:52:52Z</time></trkpt><trkpt lat="30.663446503879637" lon="-5.016186743704544"><ele>685.6666666666666</ele><time>2026-03-23T11:52:53Z</time></trkpt><trkpt lat="30.663369767409584" lon="-5.01627677588015"><ele>685.8333333333333</ele><time>2026-03-23T11:52:54Z</time></trkpt><trkpt lat="30.663299880241063" lon="-5.016347576888575"><ele>686.0</ele><time>2026-03-23T11:52:55Z</time></trkpt><trkpt lat="30.663240590361134" lon="-5.016415990242046"><ele>686.0</ele><time>2026-03-23T11:52:56Z</time></trkpt><trkpt lat="30.66318390722862" lon="-5.016492967390823"><ele>686.0</ele><time>2026-03-23T11:52:57Z</time></trkpt><trkpt lat="30.663129201898954" lon="-5.016580790196478"><ele>686.0</ele><time>2026-03-23T11:52:58Z</time></trkpt><trkpt lat="30.663071961996174" lon="-5.016674564744173"><ele>686.0</ele><time>2026-03-23T11:52:59Z</time></trkpt><trkpt lat="30.66301446442736" lon="-5.016764282411507"><ele>686.0</ele><time>2026-03-23T11:53:00Z</time></trkpt><trkpt lat="30.662954963580187" lon="-5.016833253726511"><ele>685.5999999999999</ele><time>2026-03-23T11:53:01Z</time></trkpt><trkpt lat="30.66288214525677" lon="-5.01691938756888"><ele>685.2</ele><time>2026-03-23T11:53:02Z</time></trkpt><trkpt lat="30.662810062920574" lon="-5.0170142787662595"><ele>684.8</ele><time>2026-03-23T11:53:03Z</time></trkpt><trkpt lat="30.662745118433147" lon="-5.017102647797046"><ele>684.4000000000001</ele><time>2026-03-23T11:53:04Z</time></trkpt><trkpt lat="30.662691244331654" lon="-5.0171911194301435"><ele>684.0</ele><time>2026-03-23T11:53:05Z</time></trkpt><trkpt lat="30.66265328918576" lon="-5.017285746842871"><ele>685.0</ele><time>2026-03-23T11:53:06.001Z</time></trkpt><trkpt lat="30.66262203606251" lon="-5.017399136671773"><ele>686.0</ele><time>2026-03-23T11:53:07.001Z</time></trkpt><trkpt lat="30.662601533921688" lon="-5.017536939442138"><ele>687.0</ele><time>2026-03-23T11:53:08.001Z</time></trkpt><trkpt lat="30.662586889891674" lon="-5.017689053478368"><ele>688.0</ele><time>2026-03-23T11:53:09.001Z</time></trkpt><trkpt lat="30.662578605069097" lon="-5.017840812441795"><ele>688.2</ele><time>2026-03-23T11:53:10.001Z</time></trkpt><trkpt lat="30.66257754494185" lon="-5.017982643935949"><ele>688.4</ele><time>2026-03-23T11:53:11.001Z</time></trkpt><trkpt lat="30.662588065184067" lon="-5.0181004307045205"><ele>688.6</ele><time>2026-03-23T11:53:12.001Z</time></trkpt><trkpt lat="30.662595072093946" lon="-5.018208405820427"><ele>688.8000000000001</ele><time>2026-03-23T11:53:13.001Z</time></trkpt><trkpt lat="30.66259732552029" lon="-5.018317015123327"><ele>689.0</ele><time>2026-03-23T11:53:14.001Z</time></trkpt><trkpt lat="30.662593756936747" lon="-5.018434058747549"><ele>688.6</ele><time>2026-03-23T11:53:15.001Z</time></trkpt><trkpt lat="30.66257813884063" lon="-5.0185494272095665"><ele>688.2</ele><time>2026-03-23T11:53:16.001Z</time></trkpt><trkpt lat="30.662556853441387" lon="-5.018665217500702"><ele>687.8000000000001</ele><time>2026-03-23T11:53:17.001Z</time></trkpt><trkpt lat="30.66251863883462" lon="-5.018779279967942"><ele>687.4000000000001</ele><time>2026-03-23T11:53:18.001Z</time></trkpt><trkpt lat="30.662480218245076" lon="-5.018908088436104"><ele>687.0</ele><time>2026-03-23T11:53:19.001Z</time></trkpt><trkpt lat="30.662438664215422" lon="-5.019043159656364"><ele>686.75</ele><time>2026-03-23T11:53:20.001Z</time></trkpt><trkpt lat="30.662402642533827" lon="-5.019181714252611"><ele>686.5</ele><time>2026-03-23T11:53:21.001Z</time></trkpt><trkpt lat="30.6623886348902" lon="-5.0193209727262795"><ele>686.25</ele><time>2026-03-23T11:53:22.001Z</time></trkpt><trkpt lat="30.662371386765855" lon="-5.019470474717055"><ele>686.0</ele><time>2026-03-23T11:53:23.001Z</time></trkpt><trkpt lat="30.662355093903148" lon="-5.0196188725687305"><ele>686.0</ele><time>2026-03-23T11:53:24.001Z</time></trkpt><trkpt lat="30.662334453337735" lon="-5.019763977180602"><ele>686.0</ele><time>2026-03-23T11:53:25.001Z</time></trkpt><trkpt lat="30.662302418859085" lon="-5.019907797572563"><ele>686.0</ele><time>2026-03-23T11:53:26.001Z</time></trkpt><trkpt lat="30.662253953350426" lon="-5.020045708144859"><ele>686.0</ele><time>2026-03-23T11:53:27.001Z</time></trkpt><trkpt lat="30.66220491967732" lon="-5.020188868447142"><ele>686.0</ele><time>2026-03-23T11:53:28.001Z</time></trkpt><trkpt lat="30.66216397557822" lon="-5.020328205848907"><ele>686.0</ele><time>2026-03-23T11:53:29.001Z</time></trkpt><trkpt lat="30.662132923779485" lon="-5.020469196613341"><ele>686.0</ele><time>2026-03-23T11:53:30.001Z</time></trkpt><trkpt lat="30.66213508736618" lon="-5.020603323863514"><ele>686.0</ele><time>2026-03-23T11:53:31.001Z</time></trkpt><trkpt lat="30.662156880789617" lon="-5.02073539438396"><ele>685.75</ele><time>2026-03-23T11:53:32.001Z</time></trkpt><trkpt lat="30.662183986101546" lon="-5.020862471949865"><ele>685.5</ele><time>2026-03-23T11:53:33.001Z</time></trkpt><trkpt lat="30.66220919203341" lon="-5.020991495430033"><ele>685.25</ele><time>2026-03-23T11:53:34.001Z</time></trkpt><trkpt lat="30.66223362913432" lon="-5.0211311856331005"><ele>685.0</ele><time>2026-03-23T11:53:35.001Z</time></trkpt><trkpt lat="30.662246391042235" lon="-5.021278887060667"><ele>685.0</ele><time>2026-03-23T11:53:36.001Z</time></trkpt><trkpt lat="30.662243055565725" lon="-5.021419865540087"><ele>685.0</ele><time>2026-03-23T11:53:37.001Z</time></trkpt><trkpt lat="30.662234565971893" lon="-5.021570942713407"><ele>685.0</ele><time>2026-03-23T11:53:38.001Z</time></trkpt><trkpt lat="30.662220150258474" lon="-5.021720715349347"><ele>685.0</ele><time>2026-03-23T11:53:39.001Z</time></trkpt><trkpt lat="30.662207135480696" lon="-5.021872018023678"><ele>685.0</ele><time>2026-03-23T11:53:40.001Z</time></trkpt><trkpt lat="30.662192157246782" lon="-5.022036716827586"><ele>685.0</ele><time>2026-03-23T11:53:41.001Z</time></trkpt><trkpt lat="30.662169703553946" lon="-5.02219781812847"><ele>685.0</ele><time>2026-03-23T11:53:42.001Z</time></trkpt><trkpt lat="30.662149994206686" lon="-5.022356565247094"><ele>685.0</ele><time>2026-03-23T11:53:43.001Z</time></trkpt><trkpt lat="30.662131053216633" lon="-5.022516127512936"><ele>685.0</ele><time>2026-03-23T11:53:44.001Z</time></trkpt><trkpt lat="30.66211334009317" lon="-5.022676506212003"><ele>685.0</ele><time>2026-03-23T11:53:45.001Z</time></trkpt><trkpt lat="30.662085013309344" lon="-5.022833510356822"><ele>685.0</ele><time>2026-03-23T11:53:46.001Z</time></trkpt><trkpt lat="30.662049346498787" lon="-5.023000282345496"><ele>685.0</ele><time>2026-03-23T11:53:47.001Z</time></trkpt><trkpt lat="30.662026835974164" lon="-5.02315227761889"><ele>685.0</ele><time>2026-03-23T11:53:48.001Z</time></trkpt><trkpt lat="30.66199944818373" lon="-5.023302732289398"><ele>685.0</ele><time>2026-03-23T11:53:49.001Z</time></trkpt><trkpt lat="30.661969451515844" lon="-5.023450733154486"><ele>685.0</ele><time>2026-03-23T11:53:50.001Z</time></trkpt><trkpt lat="30.66194335098253" lon="-5.0235874916682794"><ele>685.0</ele><time>2026-03-23T11:53:51.001Z</time></trkpt><trkpt lat="30.66190225651209" lon="-5.023718537537704"><ele>685.5</ele><time>2026-03-23T11:53:52.001Z</time></trkpt><trkpt lat="30.661844985754257" lon="-5.023849946017259"><ele>686.0</ele><time>2026-03-23T11:53:53.001Z</time></trkpt><trkpt lat="30.66178627204874" lon="-5.023980971413101"><ele>686.5</ele><time>2026-03-23T11:53:54.001Z</time></trkpt><trkpt lat="30.661723616284892" lon="-5.02410643759049"><ele>687.0</ele><time>2026-03-23T11:53:54.999Z</time></trkpt><trkpt lat="30.661645291266844" lon="-5.0242279049005285"><ele>687.0</ele><time>2026-03-23T11:53:55.999Z</time></trkpt><trkpt lat="30.661555553262268" lon="-5.024348417662688"><ele>687.0</ele><time>2026-03-23T11:53:56.999Z</time></trkpt><trkpt lat="30.661484101482134" lon="-5.024478888420499"><ele>687.0</ele><time>2026-03-23T11:53:57.999Z</time></trkpt><trkpt lat="30.661421215974894" lon="-5.024622914663886"><ele>687.0</ele><time>2026-03-23T11:53:58.999Z</time></trkpt><trkpt lat="30.661369520902138" lon="-5.0247850264714575"><ele>687.0</ele><time>2026-03-23T11:53:59.999Z</time></trkpt><trkpt lat="30.661332000657822" lon="-5.024948904630637"><ele>687.0</ele><time>2026-03-23T11:54:00.999Z</time></trkpt><trkpt lat="30.661304286352664" lon="-5.025114521967241"><ele>687.0</ele><time>2026-03-23T11:54:01.999Z</time></trkpt><trkpt lat="30.661274235537785" lon="-5.02528358628137"><ele>687.0</ele><time>2026-03-23T11:54:02.999Z</time></trkpt><trkpt lat="30.661228088595745" lon="-5.025430892454099"><ele>687.0</ele><time>2026-03-23T11:54:04Z</time></trkpt><trkpt lat="30.661166586173913" lon="-5.025570706717382"><ele>687.0</ele><time>2026-03-23T11:54:05Z</time></trkpt><trkpt lat="30.661113597701902" lon="-5.025712811735268"><ele>687.0</ele><time>2026-03-23T11:54:06Z</time></trkpt><trkpt lat="30.661078248920077" lon="-5.025856653897544"><ele>687.0</ele><time>2026-03-23T11:54:07Z</time></trkpt><trkpt lat="30.66103704040431" lon="-5.02599250220077"><ele>687.75</ele><time>2026-03-23T11:54:08Z</time></trkpt><trkpt lat="30.660991996441442" lon="-5.026119300522908"><ele>688.5</ele><time>2026-03-23T11:54:09Z</time></trkpt><trkpt lat="30.660943811306772" lon="-5.026224537286898"><ele>689.25</ele><time>2026-03-23T11:54:10Z</time></trkpt><trkpt lat="30.660902538341848" lon="-5.0263487245781855"><ele>690.0</ele><time>2026-03-23T11:54:11Z</time></trkpt><trkpt lat="30.660867570035837" lon="-5.026496595532117"><ele>689.5</ele><time>2026-03-23T11:54:12Z</time></trkpt><trkpt lat="30.660833640478685" lon="-5.026649435461574"><ele>689.0</ele><time>2026-03-23T11:54:13Z</time></trkpt><trkpt lat="30.66080270721808" lon="-5.026779683281798"><ele>688.5</ele><time>2026-03-23T11:54:14Z</time></trkpt><trkpt lat="30.660774286221592" lon="-5.026903805841108"><ele>688.0</ele><time>2026-03-23T11:54:15Z</time></trkpt><trkpt lat="30.66073988379743" lon="-5.027039675461991"><ele>688.0</ele><time>2026-03-23T11:54:16Z</time></trkpt><trkpt lat="30.660710142627728" lon="-5.027176362444798"><ele>688.0</ele><time>2026-03-23T11:54:17Z</time></trkpt><trkpt lat="30.660671096343716" lon="-5.027316461373281"><ele>688.0</ele><time>2026-03-23T11:54:18Z</time></trkpt><trkpt lat="30.66060608530474" lon="-5.027448649577282"><ele>688.0</ele><time>2026-03-23T11:54:19Z</time></trkpt><trkpt lat="30.66053906204717" lon="-5.0275856583211205"><ele>688.0</ele><time>2026-03-23T11:54:20Z</time></trkpt><trkpt lat="30.66049435864115" lon="-5.027742805464328"><ele>688.0</ele><time>2026-03-23T11:54:21Z</time></trkpt><trkpt lat="30.660453448353486" lon="-5.027918147255302"><ele>688.0</ele><time>2026-03-23T11:54:22Z</time></trkpt><trkpt lat="30.660404872272963" lon="-5.028069127280107"><ele>688.0</ele><time>2026-03-23T11:54:23Z</time></trkpt><trkpt lat="30.660394135867616" lon="-5.028255886868421"><ele>688.0</ele><time>2026-03-23T11:54:24Z</time></trkpt><trkpt lat="30.66043598451698" lon="-5.028495449768172"><ele>688.0</ele><time>2026-03-23T11:54:25Z</time></trkpt><trkpt lat="30.660412849109562" lon="-5.028658302539766"><ele>688.0</ele><time>2026-03-23T11:54:26Z</time></trkpt><trkpt lat="30.660390054469033" lon="-5.028808897144093"><ele>688.0</ele><time>2026-03-23T11:54:27Z</time></trkpt><trkpt lat="30.660350941958818" lon="-5.028938306736751"><ele>688.0</ele><time>2026-03-23T11:54:28Z</time></trkpt><trkpt lat="30.66030891907033" lon="-5.0290689342686985"><ele>688.0</ele><time>2026-03-23T11:54:29Z</time></trkpt><trkpt lat="30.660253404852764" lon="-5.029192615824905"><ele>688.0</ele><time>2026-03-23T11:54:30Z</time></trkpt><trkpt lat="30.660196886518165" lon="-5.029313194491594"><ele>687.75</ele><time>2026-03-23T11:54:31Z</time></trkpt><trkpt lat="30.6601525110118" lon="-5.0294401521741"><ele>687.5</ele><time>2026-03-23T11:54:32Z</time></trkpt><trkpt lat="30.66011682630069" lon="-5.02957048079841"><ele>687.25</ele><time>2026-03-23T11:54:33Z</time></trkpt><trkpt lat="30.66008243089837" lon="-5.029707748445349"><ele>687.0</ele><time>2026-03-23T11:54:34Z</time></trkpt><trkpt lat="30.660054315064468" lon="-5.029848384404671"><ele>687.75</ele><time>2026-03-23T11:54:35Z</time></trkpt><trkpt lat="30.66001625622094" lon="-5.029993444292985"><ele>688.5</ele><time>2026-03-23T11:54:36Z</time></trkpt><trkpt lat="30.659971857246617" lon="-5.030129738178488"><ele>689.25</ele><time>2026-03-23T11:54:37Z</time></trkpt><trkpt lat="30.65991916476588" lon="-5.03027477476462"><ele>690.0</ele><time>2026-03-23T11:54:38Z</time></trkpt><trkpt lat="30.659871249736582" lon="-5.030418093468301"><ele>690.0</ele><time>2026-03-23T11:54:39Z</time></trkpt><trkpt lat="30.65982852030398" lon="-5.030544655217227"><ele>690.0</ele><time>2026-03-23T11:54:40Z</time></trkpt><trkpt lat="30.65978170949617" lon="-5.030693099942858"><ele>690.0</ele><time>2026-03-23T11:54:41Z</time></trkpt><trkpt lat="30.65973050235308" lon="-5.030841578143068"><ele>690.0</ele><time>2026-03-23T11:54:42Z</time></trkpt><trkpt lat="30.6596745860808" lon="-5.030992812870051"><ele>690.25</ele><time>2026-03-23T11:54:43Z</time></trkpt><trkpt lat="30.659626320046804" lon="-5.031147042325251"><ele>690.5</ele><time>2026-03-23T11:54:44Z</time></trkpt><trkpt lat="30.65957940205901" lon="-5.0313037437240995"><ele>690.75</ele><time>2026-03-23T11:54:45Z</time></trkpt><trkpt lat="30.659530814683702" lon="-5.031466578734761"><ele>691.0</ele><time>2026-03-23T11:54:46Z</time></trkpt><trkpt lat="30.65948798517025" lon="-5.031635532458488"><ele>691.3333333333334</ele><time>2026-03-23T11:54:47Z</time></trkpt><trkpt lat="30.65944433575025" lon="-5.031811510537817"><ele>691.6666666666666</ele><time>2026-03-23T11:54:48Z</time></trkpt><trkpt lat="30.659398106593727" lon="-5.031980187199408"><ele>692.0</ele><time>2026-03-23T11:54:49Z</time></trkpt><trkpt lat="30.659349854669294" lon="-5.032148879921661"><ele>692.0</ele><time>2026-03-23T11:54:50Z</time></trkpt><trkpt lat="30.659295667288426" lon="-5.032317287975149"><ele>692.0</ele><time>2026-03-23T11:54:51Z</time></trkpt><trkpt lat="30.659236965069887" lon="-5.032483326919268"><ele>692.0</ele><time>2026-03-23T11:54:52Z</time></trkpt><trkpt lat="30.659154459234866" lon="-5.032646906673461"><ele>691.6666666666666</ele><time>2026-03-23T11:54:53Z</time></trkpt><trkpt lat="30.659082571158034" lon="-5.03280811653463"><ele>691.3333333333334</ele><time>2026-03-23T11:54:54Z</time></trkpt><trkpt lat="30.659008593623664" lon="-5.032987718448225"><ele>691.0</ele><time>2026-03-23T11:54:55Z</time></trkpt><trkpt lat="30.658928194126172" lon="-5.033176289702423"><ele>692.0</ele><time>2026-03-23T11:54:56Z</time></trkpt><trkpt lat="30.65884471577477" lon="-5.033370620092542"><ele>693.0</ele><time>2026-03-23T11:54:57Z</time></trkpt><trkpt lat="30.658780012913997" lon="-5.033556233785488"><ele>694.0</ele><time>2026-03-23T11:54:58Z</time></trkpt><trkpt lat="30.658704350995702" lon="-5.033729881895047"><ele>694.0</ele><time>2026-03-23T11:54:59Z</time></trkpt><trkpt lat="30.65865162268769" lon="-5.033917161459142"><ele>694.0</ele><time>2026-03-23T11:55:00Z</time></trkpt><trkpt lat="30.658604963586072" lon="-5.034075441578405"><ele>694.0</ele><time>2026-03-23T11:55:01Z</time></trkpt><trkpt lat="30.658567770829816" lon="-5.034228672932186"><ele>694.25</ele><time>2026-03-23T11:55:02Z</time></trkpt><trkpt lat="30.65852365058961" lon="-5.034394599196782"><ele>694.5</ele><time>2026-03-23T11:55:03Z</time></trkpt><trkpt lat="30.65847691654011" lon="-5.0345701861128695"><ele>694.75</ele><time>2026-03-23T11:55:04Z</time></trkpt><trkpt lat="30.65844824095188" lon="-5.034728417951338"><ele>695.0</ele><time>2026-03-23T11:55:05Z</time></trkpt><trkpt lat="30.658417623412273" lon="-5.034855573952577"><ele>695.0</ele><time>2026-03-23T11:55:06Z</time></trkpt><trkpt lat="30.6583775998442" lon="-5.034945088031391"><ele>695.0</ele><time>2026-03-23T11:55:07.001Z</time></trkpt><trkpt lat="30.6583095137171" lon="-5.035004873089507"><ele>695.0</ele><time>2026-03-23T11:55:08.001Z</time></trkpt><trkpt lat="30.658212322158693" lon="-5.035084204359667"><ele>695.0</ele><time>2026-03-23T11:55:09.001Z</time></trkpt><trkpt lat="30.658098854636023" lon="-5.03520492475166"><ele>695.0</ele><time>2026-03-23T11:55:10.001Z</time></trkpt><trkpt lat="30.658011242928712" lon="-5.035362836438566"><ele>694.3333333333333</ele><time>2026-03-23T11:55:11.001Z</time></trkpt><trkpt lat="30.657931531817745" lon="-5.0355176874237735"><ele>693.6666666666666</ele><time>2026-03-23T11:55:12.001Z</time></trkpt><trkpt lat="30.657859081586" lon="-5.035657217220442"><ele>693.0</ele><time>2026-03-23T11:55:13.001Z</time></trkpt><trkpt lat="30.657786676710572" lon="-5.035825064916867"><ele>692.75</ele><time>2026-03-23T11:55:14.001Z</time></trkpt><trkpt lat="30.657701826112934" lon="-5.035952377724046"><ele>692.5</ele><time>2026-03-23T11:55:15.001Z</time></trkpt><trkpt lat="30.657650906498482" lon="-5.0360935079983165"><ele>692.25</ele><time>2026-03-23T11:55:16.001Z</time></trkpt><trkpt lat="30.657607932437458" lon="-5.036259006631869"><ele>692.0</ele><time>2026-03-23T11:55:17.001Z</time></trkpt><trkpt lat="30.65755620254535" lon="-5.036441869168191"><ele>692.0</ele><time>2026-03-23T11:55:18.001Z</time></trkpt><trkpt lat="30.657522600134822" lon="-5.036611769353743"><ele>692.0</ele><time>2026-03-23T11:55:19.001Z</time></trkpt><trkpt lat="30.657495048639092" lon="-5.036764594136048"><ele>692.0</ele><time>2026-03-23T11:55:20.001Z</time></trkpt><trkpt lat="30.657448622270465" lon="-5.036913634469577"><ele>692.0</ele><time>2026-03-23T11:55:21.001Z</time></trkpt><trkpt lat="30.657373933979013" lon="-5.037075602069191"><ele>692.3333333333333</ele><time>2026-03-23T11:55:22.001Z</time></trkpt><trkpt lat="30.65730687930669" lon="-5.0372596829945815"><ele>692.6666666666666</ele><time>2026-03-23T11:55:23.001Z</time></trkpt><trkpt lat="30.65727792646155" lon="-5.037441200189714"><ele>693.0</ele><time>2026-03-23T11:55:24.001Z</time></trkpt><trkpt lat="30.657269199636048" lon="-5.037585943406571"><ele>693.25</ele><time>2026-03-23T11:55:25.001Z</time></trkpt><trkpt lat="30.657266695066696" lon="-5.037711834506698"><ele>693.5</ele><time>2026-03-23T11:55:26.001Z</time></trkpt><trkpt lat="30.657238147790512" lon="-5.0378494670781615"><ele>693.75</ele><time>2026-03-23T11:55:27.001Z</time></trkpt><trkpt lat="30.65719578354624" lon="-5.038002493133637"><ele>694.0</ele><time>2026-03-23T11:55:28.001Z</time></trkpt><trkpt lat="30.657147426899932" lon="-5.038165148738147"><ele>694.0</ele><time>2026-03-23T11:55:29.001Z</time></trkpt><trkpt lat="30.65710563359398" lon="-5.038289701071439"><ele>694.0</ele><time>2026-03-23T11:55:30.001Z</time></trkpt><trkpt lat="30.657056954166777" lon="-5.038403864607248"><ele>694.0</ele><time>2026-03-23T11:55:31.001Z</time></trkpt><trkpt lat="30.656999562568814" lon="-5.038551521151031"><ele>694.0</ele><time>2026-03-23T11:55:32.001Z</time></trkpt><trkpt lat="30.656949695957415" lon="-5.038717616480802"><ele>693.75</ele><time>2026-03-23T11:55:33.001Z</time></trkpt><trkpt lat="30.65691917271328" lon="-5.038885698542553"><ele>693.5</ele><time>2026-03-23T11:55:34.001Z</time></trkpt><trkpt lat="30.656880412093514" lon="-5.0390304646041315"><ele>693.25</ele><time>2026-03-23T11:55:35.001Z</time></trkpt><trkpt lat="30.65681518615033" lon="-5.039187444394631"><ele>693.0</ele><time>2026-03-23T11:55:36.001Z</time></trkpt><trkpt lat="30.656766600845053" lon="-5.039335648195583"><ele>693.0</ele><time>2026-03-23T11:55:37.001Z</time></trkpt><trkpt lat="30.65672240500278" lon="-5.039488221270486"><ele>693.0</ele><time>2026-03-23T11:55:38.001Z</time></trkpt><trkpt lat="30.656668974819674" lon="-5.03964034181185"><ele>693.0</ele><time>2026-03-23T11:55:39.001Z</time></trkpt><trkpt lat="30.6566063050534" lon="-5.039796192678453"><ele>693.0</ele><time>2026-03-23T11:55:40.001Z</time></trkpt><trkpt lat="30.656544269081948" lon="-5.0399497632264705"><ele>692.75</ele><time>2026-03-23T11:55:41.001Z</time></trkpt><trkpt lat="30.656483630347154" lon="-5.040099246431988"><ele>692.5</ele><time>2026-03-23T11:55:42.001Z</time></trkpt><trkpt lat="30.656433868340372" lon="-5.040254738050538"><ele>692.25</ele><time>2026-03-23T11:55:43.001Z</time></trkpt><trkpt lat="30.65638477460329" lon="-5.040407705386281"><ele>692.0</ele><time>2026-03-23T11:55:44.001Z</time></trkpt><trkpt lat="30.656325703647557" lon="-5.04056854477211"><ele>692.0</ele><time>2026-03-23T11:55:45.001Z</time></trkpt><trkpt lat="30.656261654997408" lon="-5.040729652399775"><ele>692.0</ele><time>2026-03-23T11:55:46.001Z</time></trkpt><trkpt lat="30.656204878165013" lon="-5.04088786830308"><ele>692.0</ele><time>2026-03-23T11:55:47.001Z</time></trkpt><trkpt lat="30.656160863973717" lon="-5.041035604521375"><ele>692.0</ele><time>2026-03-23T11:55:48.001Z</time></trkpt><trkpt lat="30.65612081984167" lon="-5.041176822867018"><ele>692.5</ele><time>2026-03-23T11:55:49.001Z</time></trkpt><trkpt lat="30.65607964667116" lon="-5.041323076816561"><ele>693.0</ele><time>2026-03-23T11:55:50.001Z</time></trkpt><trkpt lat="30.65602490621953" lon="-5.041457662732099"><ele>693.5</ele><time>2026-03-23T11:55:51.001Z</time></trkpt><trkpt lat="30.655953879068836" lon="-5.041598492496578"><ele>694.0</ele><time>2026-03-23T11:55:52.001Z</time></trkpt><trkpt lat="30.65588020020116" lon="-5.041738725817881"><ele>694.5</ele><time>2026-03-23T11:55:53.001Z</time></trkpt><trkpt lat="30.655820013831214" lon="-5.041890485471427"><ele>695.0</ele><time>2026-03-23T11:55:54.001Z</time></trkpt><trkpt lat="30.655774679900098" lon="-5.04203097534717"><ele>695.5</ele><time>2026-03-23T11:55:55.001Z</time></trkpt><trkpt lat="30.655730664797726" lon="-5.042159114866839"><ele>696.0</ele><time>2026-03-23T11:55:56.001Z</time></trkpt><trkpt lat="30.65567013183402" lon="-5.042294759411983"><ele>696.0</ele><time>2026-03-23T11:55:57.001Z</time></trkpt><trkpt lat="30.655604395823993" lon="-5.042409464940817"><ele>696.0</ele><time>2026-03-23T11:55:58.001Z</time></trkpt><trkpt lat="30.65554233658221" lon="-5.042506055742712"><ele>696.0</ele><time>2026-03-23T11:55:59.001Z</time></trkpt><trkpt lat="30.655485910930782" lon="-5.04258387405935"><ele>696.0</ele><time>2026-03-23T11:56:00.001Z</time></trkpt><trkpt lat="30.655433277127617" lon="-5.042673981432395"><ele>696.0</ele><time>2026-03-23T11:56:01Z</time></trkpt><trkpt lat="30.655383664949866" lon="-5.042777697068986"><ele>695.75</ele><time>2026-03-23T11:56:02Z</time></trkpt><trkpt lat="30.655339149998998" lon="-5.042887847818902"><ele>695.5</ele><time>2026-03-23T11:56:03Z</time></trkpt><trkpt lat="30.655282957882925" lon="-5.043008381526506"><ele>695.25</ele><time>2026-03-23T11:56:04Z</time></trkpt><trkpt lat="30.655222940957447" lon="-5.043120548286982"><ele>695.0</ele><time>2026-03-23T11:56:05Z</time></trkpt><trkpt lat="30.65516358970603" lon="-5.043236210581514"><ele>695.0</ele><time>2026-03-23T11:56:06Z</time></trkpt><trkpt lat="30.65510034364355" lon="-5.0433697957722785"><ele>695.0</ele><time>2026-03-23T11:56:07Z</time></trkpt><trkpt lat="30.65503865227443" lon="-5.043499241550919"><ele>695.0</ele><time>2026-03-23T11:56:08Z</time></trkpt><trkpt lat="30.654964732544908" lon="-5.043618480331032"><ele>695.0</ele><time>2026-03-23T11:56:09Z</time></trkpt><trkpt lat="30.65489148018036" lon="-5.043726568669058"><ele>695.0</ele><time>2026-03-23T11:56:10Z</time></trkpt><trkpt lat="30.654824501911786" lon="-5.043838753599845"><ele>695.0</ele><time>2026-03-23T11:56:11Z</time></trkpt><trkpt lat="30.654763633080623" lon="-5.043950719721131"><ele>695.0</ele><time>2026-03-23T11:56:12Z</time></trkpt><trkpt lat="30.654690477789888" lon="-5.044076563299368"><ele>695.0</ele><time>2026-03-23T11:56:13Z</time></trkpt><trkpt lat="30.65460321201405" lon="-5.044222328038699"><ele>695.3333333333333</ele><time>2026-03-23T11:56:14Z</time></trkpt><trkpt lat="30.654500284743754" lon="-5.044379202491168"><ele>695.6666666666666</ele><time>2026-03-23T11:56:15Z</time></trkpt><trkpt lat="30.654382022348944" lon="-5.0445305707486705"><ele>696.0</ele><time>2026-03-23T11:56:16Z</time></trkpt><trkpt lat="30.654262373394698" lon="-5.044699434036535"><ele>696.0</ele><time>2026-03-23T11:56:17Z</time></trkpt><trkpt lat="30.654138796533307" lon="-5.044885449027942"><ele>696.0</ele><time>2026-03-23T11:56:18Z</time></trkpt><trkpt lat="30.65400630040567" lon="-5.0450735355848675"><ele>696.0</ele><time>2026-03-23T11:56:19Z</time></trkpt><trkpt lat="30.65387424231081" lon="-5.045252743328472"><ele>696.6666666666666</ele><time>2026-03-23T11:56:20Z</time></trkpt><trkpt lat="30.6537614527278" lon="-5.045406496644975"><ele>697.3333333333333</ele><time>2026-03-23T11:56:21Z</time></trkpt><trkpt lat="30.65364726921216" lon="-5.045555994366242"><ele>698.0</ele><time>2026-03-23T11:56:22Z</time></trkpt><trkpt lat="30.653537135217466" lon="-5.045727268628848"><ele>698.3333333333333</ele><time>2026-03-23T11:56:23Z</time></trkpt><trkpt lat="30.653426041737838" lon="-5.04590226084685"><ele>698.6666666666666</ele><time>2026-03-23T11:56:24Z</time></trkpt><trkpt lat="30.65329606758904" lon="-5.046092139287454"><ele>699.0</ele><time>2026-03-23T11:56:25Z</time></trkpt><trkpt lat="30.65317068998313" lon="-5.04624709465693"><ele>699.0</ele><time>2026-03-23T11:56:26Z</time></trkpt><trkpt lat="30.65305848549564" lon="-5.046371793598075"><ele>699.0</ele><time>2026-03-23T11:56:27Z</time></trkpt><trkpt lat="30.652967191242183" lon="-5.046471995526782"><ele>699.0</ele><time>2026-03-23T11:56:28Z</time></trkpt><trkpt lat="30.652875799996135" lon="-5.0465783620102656"><ele>699.0</ele><time>2026-03-23T11:56:29Z</time></trkpt><trkpt lat="30.65277465620837" lon="-5.046693334228394"><ele>699.5</ele><time>2026-03-23T11:56:30Z</time></trkpt><trkpt lat="30.65268164173067" lon="-5.046816576111847"><ele>700.0</ele><time>2026-03-23T11:56:31Z</time></trkpt><trkpt lat="30.652586740057632" lon="-5.046943162869549"><ele>700.5</ele><time>2026-03-23T11:56:32Z</time></trkpt><trkpt lat="30.65249153291124" lon="-5.047067655846184"><ele>701.0</ele><time>2026-03-23T11:56:33Z</time></trkpt><trkpt lat="30.652397951525497" lon="-5.047191744921027"><ele>701.0</ele><time>2026-03-23T11:56:34Z</time></trkpt><trkpt lat="30.652300245795626" lon="-5.047305383917209"><ele>701.0</ele><time>2026-03-23T11:56:35Z</time></trkpt><trkpt lat="30.652200341317883" lon="-5.047411811786305"><ele>701.0</ele><time>2026-03-23T11:56:36Z</time></trkpt><trkpt lat="30.652090526997444" lon="-5.047511264949407"><ele>701.0</ele><time>2026-03-23T11:56:37Z</time></trkpt><trkpt lat="30.651997879139" lon="-5.047630615320039"><ele>700.75</ele><time>2026-03-23T11:56:38Z</time></trkpt><trkpt lat="30.651895721996148" lon="-5.047745230483438"><ele>700.5</ele><time>2026-03-23T11:56:39Z</time></trkpt><trkpt lat="30.651780752519294" lon="-5.0478555519442025"><ele>700.25</ele><time>2026-03-23T11:56:40Z</time></trkpt><trkpt lat="30.65166682149224" lon="-5.047967053061286"><ele>700.0</ele><time>2026-03-23T11:56:41Z</time></trkpt><trkpt lat="30.651549522885354" lon="-5.048087409278033"><ele>700.0</ele><time>2026-03-23T11:56:42Z</time></trkpt><trkpt lat="30.651437548813423" lon="-5.048205700196902"><ele>700.0</ele><time>2026-03-23T11:56:43Z</time></trkpt><trkpt lat="30.65132583960192" lon="-5.0483146695985655"><ele>700.0</ele><time>2026-03-23T11:56:44Z</time></trkpt><trkpt lat="30.651215738109567" lon="-5.04842275124614"><ele>700.0</ele><time>2026-03-23T11:56:45Z</time></trkpt><trkpt lat="30.651106740811507" lon="-5.048522401258197"><ele>699.5</ele><time>2026-03-23T11:56:46Z</time></trkpt><trkpt lat="30.650995957662108" lon="-5.048614965505915"><ele>699.0</ele><time>2026-03-23T11:56:47Z</time></trkpt><trkpt lat="30.650887240660325" lon="-5.048697210055544"><ele>698.5</ele><time>2026-03-23T11:56:48Z</time></trkpt><trkpt lat="30.650766752531105" lon="-5.0487862968438435"><ele>698.0</ele><time>2026-03-23T11:56:49Z</time></trkpt><trkpt lat="30.650639266156738" lon="-5.048888033382905"><ele>698.0</ele><time>2026-03-23T11:56:50Z</time></trkpt><trkpt lat="30.650505919921628" lon="-5.048988806226413"><ele>698.0</ele><time>2026-03-23T11:56:51Z</time></trkpt><trkpt lat="30.650353861576868" lon="-5.049104329827135"><ele>698.0</ele><time>2026-03-23T11:56:52Z</time></trkpt><trkpt lat="30.650171209581313" lon="-5.049246326820811"><ele>697.6666666666666</ele><time>2026-03-23T11:56:53Z</time></trkpt><trkpt lat="30.64998294097433" lon="-5.0493791452449575"><ele>697.3333333333334</ele><time>2026-03-23T11:56:54Z</time></trkpt><trkpt lat="30.649816355407296" lon="-5.0494997781657895"><ele>697.0</ele><time>2026-03-23T11:56:55.001Z</time></trkpt><trkpt lat="30.649611947360153" lon="-5.049641039337378"><ele>697.0</ele><time>2026-03-23T11:56:56.001Z</time></trkpt><trkpt lat="30.649414412861145" lon="-5.049779312993207"><ele>697.0</ele><time>2026-03-23T11:56:57.001Z</time></trkpt><trkpt lat="30.649246767073084" lon="-5.049902171158924"><ele>697.0</ele><time>2026-03-23T11:56:58.001Z</time></trkpt><trkpt lat="30.64909941401326" lon="-5.05000646896832"><ele>697.3333333333334</ele><time>2026-03-23T11:56:59.001Z</time></trkpt><trkpt lat="30.648952513159127" lon="-5.050110083505728"><ele>697.6666666666666</ele><time>2026-03-23T11:57:00.001Z</time></trkpt><trkpt lat="30.648808398249326" lon="-5.0502061526786735"><ele>698.0</ele><time>2026-03-23T11:57:01.001Z</time></trkpt><trkpt lat="30.648662444439392" lon="-5.0503063665521015"><ele>697.3333333333333</ele><time>2026-03-23T11:57:02.001Z</time></trkpt><trkpt lat="30.648515717646557" lon="-5.050411176225925"><ele>696.6666666666666</ele><time>2026-03-23T11:57:03.001Z</time></trkpt><trkpt lat="30.64837083476573" lon="-5.050510222205016"><ele>696.0</ele><time>2026-03-23T11:57:04.001Z</time></trkpt><trkpt lat="30.648213111324182" lon="-5.050625421423551"><ele>696.0</ele><time>2026-03-23T11:57:05.001Z</time></trkpt><trkpt lat="30.64804129425633" lon="-5.0507414301177205"><ele>696.0</ele><time>2026-03-23T11:57:06.001Z</time></trkpt><trkpt lat="30.64787852223523" lon="-5.050860764776694"><ele>696.0</ele><time>2026-03-23T11:57:07.001Z</time></trkpt><trkpt lat="30.64773074643707" lon="-5.050976203230128"><ele>696.0</ele><time>2026-03-23T11:57:08.001Z</time></trkpt><trkpt lat="30.6475811791375" lon="-5.0510853316739555"><ele>696.0</ele><time>2026-03-23T11:57:09.001Z</time></trkpt><trkpt lat="30.64741766898618" lon="-5.051186480201503"><ele>696.0</ele><time>2026-03-23T11:57:10.001Z</time></trkpt><trkpt lat="30.64725300931528" lon="-5.051288956661941"><ele>696.0</ele><time>2026-03-23T11:57:11.001Z</time></trkpt><trkpt lat="30.6470670267736" lon="-5.051395371375359"><ele>696.0</ele><time>2026-03-23T11:57:12.001Z</time></trkpt><trkpt lat="30.646872328277585" lon="-5.051507793903443"><ele>696.0</ele><time>2026-03-23T11:57:13.001Z</time></trkpt><trkpt lat="30.646677988599254" lon="-5.051621914320421"><ele>696.3333333333334</ele><time>2026-03-23T11:57:14.001Z</time></trkpt><trkpt lat="30.6464810882589" lon="-5.051737706115614"><ele>696.6666666666667</ele><time>2026-03-23T11:57:15.001Z</time></trkpt><trkpt lat="30.646310381338328" lon="-5.051821156263046"><ele>697.0</ele><time>2026-03-23T11:57:16.001Z</time></trkpt><trkpt lat="30.646161676643736" lon="-5.051911363426674"><ele>696.25</ele><time>2026-03-23T11:57:17.001Z</time></trkpt><trkpt lat="30.646019109912448" lon="-5.051997608299796"><ele>695.5</ele><time>2026-03-23T11:57:18.001Z</time></trkpt><trkpt lat="30.645893512986635" lon="-5.052072377283684"><ele>694.75</ele><time>2026-03-23T11:57:19.001Z</time></trkpt><trkpt lat="30.645774057868554" lon="-5.052139454054749"><ele>694.0</ele><time>2026-03-23T11:57:20.001Z</time></trkpt><trkpt lat="30.645654613474544" lon="-5.052205178383085"><ele>694.0</ele><time>2026-03-23T11:57:21.001Z</time></trkpt><trkpt lat="30.64552530550535" lon="-5.052270703450572"><ele>694.0</ele><time>2026-03-23T11:57:22.001Z</time></trkpt><trkpt lat="30.645377043170367" lon="-5.052351730624998"><ele>694.0</ele><time>2026-03-23T11:57:23.001Z</time></trkpt><trkpt lat="30.64522174511208" lon="-5.05243833510141"><ele>693.6666666666667</ele><time>2026-03-23T11:57:24.001Z</time></trkpt><trkpt lat="30.6450456429112" lon="-5.052541173681941"><ele>693.3333333333334</ele><time>2026-03-23T11:57:25.001Z</time></trkpt><trkpt lat="30.644857368968054" lon="-5.052656094263813"><ele>693.0</ele><time>2026-03-23T11:57:26.001Z</time></trkpt><trkpt lat="30.64467146879462" lon="-5.052762294942594"><ele>693.0</ele><time>2026-03-23T11:57:27.001Z</time></trkpt><trkpt lat="30.64448681107457" lon="-5.052869096955413"><ele>693.0</ele><time>2026-03-23T11:57:28.001Z</time></trkpt><trkpt lat="30.64431792402748" lon="-5.0529723327215645"><ele>693.0</ele><time>2026-03-23T11:57:29.001Z</time></trkpt><trkpt lat="30.64417716922521" lon="-5.0530588213589285"><ele>693.0</ele><time>2026-03-23T11:57:30.001Z</time></trkpt><trkpt lat="30.64404970044335" lon="-5.053141610527021"><ele>693.0</ele><time>2026-03-23T11:57:31.001Z</time></trkpt><trkpt lat="30.64395211050106" lon="-5.053212095909335"><ele>693.0</ele><time>2026-03-23T11:57:32.001Z</time></trkpt><trkpt lat="30.64385416968476" lon="-5.053279280086778"><ele>693.0</ele><time>2026-03-23T11:57:33.001Z</time></trkpt><trkpt lat="30.64375096205948" lon="-5.053345935610161"><ele>693.3333333333334</ele><time>2026-03-23T11:57:34.001Z</time></trkpt><trkpt lat="30.643628695728292" lon="-5.053415369023597"><ele>693.6666666666667</ele><time>2026-03-23T11:57:35.001Z</time></trkpt><trkpt lat="30.64348598748841" lon="-5.053490062657929"><ele>694.0</ele><time>2026-03-23T11:57:36.001Z</time></trkpt><trkpt lat="30.643331619968837" lon="-5.053566960421599"><ele>694.0</ele><time>2026-03-23T11:57:37.001Z</time></trkpt><trkpt lat="30.643170521425446" lon="-5.053644045279234"><ele>694.0</ele><time>2026-03-23T11:57:38.001Z</time></trkpt><trkpt lat="30.64301325658704" lon="-5.053721503668056"><ele>694.0</ele><time>2026-03-23T11:57:39.001Z</time></trkpt><trkpt lat="30.642861022730546" lon="-5.053809129936827"><ele>694.6666666666667</ele><time>2026-03-23T11:57:40.001Z</time></trkpt><trkpt lat="30.6427066683954" lon="-5.05389397716397"><ele>695.3333333333334</ele><time>2026-03-23T11:57:41.001Z</time></trkpt><trkpt lat="30.642550396727973" lon="-5.053974006465942"><ele>696.0</ele><time>2026-03-23T11:57:42.001Z</time></trkpt><trkpt lat="30.642379013021642" lon="-5.054059766821818"><ele>695.3333333333334</ele><time>2026-03-23T11:57:43.001Z</time></trkpt><trkpt lat="30.6422064255338" lon="-5.054159786840733"><ele>694.6666666666667</ele><time>2026-03-23T11:57:44.001Z</time></trkpt><trkpt lat="30.642043518195926" lon="-5.054288440091735"><ele>694.0</ele><time>2026-03-23T11:57:45.001Z</time></trkpt><trkpt lat="30.64185257489792" lon="-5.054385776234142"><ele>693.0</ele><time>2026-03-23T11:57:46.001Z</time></trkpt><trkpt lat="30.641653331355872" lon="-5.054424143581486"><ele>692.0</ele><time>2026-03-23T11:57:47.001Z</time></trkpt><trkpt lat="30.641465806972715" lon="-5.05449499081151"><ele>691.0</ele><time>2026-03-23T11:57:48.001Z</time></trkpt><trkpt lat="30.641293630340527" lon="-5.0545897101754855"><ele>692.3333333333334</ele><time>2026-03-23T11:57:49.001Z</time></trkpt><trkpt lat="30.641106993966588" lon="-5.054675965094295"><ele>693.6666666666666</ele><time>2026-03-23T11:57:50.001Z</time></trkpt><trkpt lat="30.640916705537048" lon="-5.054765964243895"><ele>695.0</ele><time>2026-03-23T11:57:51.001Z</time></trkpt><trkpt lat="30.640708438705214" lon="-5.054864623495656"><ele>695.0</ele><time>2026-03-23T11:57:52.001Z</time></trkpt><trkpt lat="30.640509050018018" lon="-5.054962897115735"><ele>695.0</ele><time>2026-03-23T11:57:53.001Z</time></trkpt><trkpt lat="30.64035032006914" lon="-5.055049573964109"><ele>695.0</ele><time>2026-03-23T11:57:54.001Z</time></trkpt><trkpt lat="30.640189241303347" lon="-5.055126994259472"><ele>694.6666666666666</ele><time>2026-03-23T11:57:55.001Z</time></trkpt><trkpt lat="30.640034971302473" lon="-5.055212202708398"><ele>694.3333333333334</ele><time>2026-03-23T11:57:56.001Z</time></trkpt><trkpt lat="30.639882282114577" lon="-5.055294147655548"><ele>694.0</ele><time>2026-03-23T11:57:57.001Z</time></trkpt><trkpt lat="30.6397311138587" lon="-5.055375890890498"><ele>694.0</ele><time>2026-03-23T11:57:58.001Z</time></trkpt><trkpt lat="30.63958350401169" lon="-5.055462775026858"><ele>694.0</ele><time>2026-03-23T11:57:59.001Z</time></trkpt><trkpt lat="30.63944727219085" lon="-5.055550563781498"><ele>694.0</ele><time>2026-03-23T11:58:00.001Z</time></trkpt><trkpt lat="30.639305889127016" lon="-5.055645584659626"><ele>694.0</ele><time>2026-03-23T11:58:01.001Z</time></trkpt><trkpt lat="30.639159026906295" lon="-5.05573889163331"><ele>694.0</ele><time>2026-03-23T11:58:02.001Z</time></trkpt><trkpt lat="30.63900492857028" lon="-5.055835525491282"><ele>694.0</ele><time>2026-03-23T11:58:03.001Z</time></trkpt><trkpt lat="30.638845901623327" lon="-5.05594735991289"><ele>694.3333333333334</ele><time>2026-03-23T11:58:04.001Z</time></trkpt><trkpt lat="30.63867164860422" lon="-5.056076166383574"><ele>694.6666666666666</ele><time>2026-03-23T11:58:05.001Z</time></trkpt><trkpt lat="30.638493511271893" lon="-5.056195392590746"><ele>695.0</ele><time>2026-03-23T11:58:06.001Z</time></trkpt><trkpt lat="30.638322949145614" lon="-5.056291871102222"><ele>695.3333333333333</ele><time>2026-03-23T11:58:07Z</time></trkpt><trkpt lat="30.638176978002726" lon="-5.056373996071398"><ele>695.6666666666666</ele><time>2026-03-23T11:58:08Z</time></trkpt><trkpt lat="30.63802434752168" lon="-5.056456893929365"><ele>696.0</ele><time>2026-03-23T11:58:09Z</time></trkpt><trkpt lat="30.637869825154148" lon="-5.0565475822589105"><ele>695.3333333333334</ele><time>2026-03-23T11:58:10Z</time></trkpt><trkpt lat="30.63770827214058" lon="-5.056639130103243"><ele>694.6666666666667</ele><time>2026-03-23T11:58:11Z</time></trkpt><trkpt lat="30.637538144076228" lon="-5.05672217286173"><ele>694.0</ele><time>2026-03-23T11:58:12Z</time></trkpt><trkpt lat="30.63738210046373" lon="-5.056796112596991"><ele>694.0</ele><time>2026-03-23T11:58:13Z</time></trkpt><trkpt lat="30.63723556196059" lon="-5.0568611142403705"><ele>694.0</ele><time>2026-03-23T11:58:14Z</time></trkpt><trkpt lat="30.637089006637403" lon="-5.056931708575694"><ele>694.0</ele><time>2026-03-23T11:58:15Z</time></trkpt><trkpt lat="30.63693477711449" lon="-5.0570146324735665"><ele>694.6666666666667</ele><time>2026-03-23T11:58:16Z</time></trkpt><trkpt lat="30.63678433216062" lon="-5.057098029932997"><ele>695.3333333333334</ele><time>2026-03-23T11:58:17Z</time></trkpt><trkpt lat="30.636634268061346" lon="-5.057190265249444"><ele>696.0</ele><time>2026-03-23T11:58:18Z</time></trkpt><trkpt lat="30.636486276426844" lon="-5.0572810645208675"><ele>696.0</ele><time>2026-03-23T11:58:19Z</time></trkpt><trkpt lat="30.636335669956015" lon="-5.057375257473917"><ele>696.0</ele><time>2026-03-23T11:58:20Z</time></trkpt><trkpt lat="30.636185237285968" lon="-5.057479368384581"><ele>696.0</ele><time>2026-03-23T11:58:21Z</time></trkpt><trkpt lat="30.6360332145259" lon="-5.05757954317369"><ele>695.3333333333334</ele><time>2026-03-23T11:58:22Z</time></trkpt><trkpt lat="30.635886955941658" lon="-5.057681427451941"><ele>694.6666666666667</ele><time>2026-03-23T11:58:23Z</time></trkpt><trkpt lat="30.635747379452066" lon="-5.0577953765559505"><ele>694.0</ele><time>2026-03-23T11:58:24Z</time></trkpt><trkpt lat="30.635610686595864" lon="-5.057909076449082"><ele>694.0</ele><time>2026-03-23T11:58:25Z</time></trkpt><trkpt lat="30.635473029272315" lon="-5.05801657326627"><ele>694.0</ele><time>2026-03-23T11:58:26Z</time></trkpt><trkpt lat="30.63533737715616" lon="-5.05812181174589"><ele>694.0</ele><time>2026-03-23T11:58:27Z</time></trkpt><trkpt lat="30.63520171912459" lon="-5.058225413502061"><ele>694.3333333333334</ele><time>2026-03-23T11:58:28Z</time></trkpt><trkpt lat="30.635061731383438" lon="-5.058337241854257"><ele>694.6666666666666</ele><time>2026-03-23T11:58:29Z</time></trkpt><trkpt lat="30.634919120309146" lon="-5.058438230926179"><ele>695.0</ele><time>2026-03-23T11:58:30Z</time></trkpt><trkpt lat="30.63477155466812" lon="-5.0585480061720975"><ele>695.0</ele><time>2026-03-23T11:58:31Z</time></trkpt><trkpt lat="30.63462571071304" lon="-5.058656877542624"><ele>695.0</ele><time>2026-03-23T11:58:32Z</time></trkpt><trkpt lat="30.634478667598014" lon="-5.05876699374885"><ele>695.0</ele><time>2026-03-23T11:58:33Z</time></trkpt><trkpt lat="30.634326174055673" lon="-5.0588781579362925"><ele>695.3333333333333</ele><time>2026-03-23T11:58:34Z</time></trkpt><trkpt lat="30.634173572080076" lon="-5.058996927773979"><ele>695.6666666666666</ele><time>2026-03-23T11:58:35Z</time></trkpt><trkpt lat="30.63402215730758" lon="-5.059114296019892"><ele>696.0</ele><time>2026-03-23T11:58:36Z</time></trkpt><trkpt lat="30.63387817123957" lon="-5.059225463482578"><ele>695.6666666666666</ele><time>2026-03-23T11:58:37Z</time></trkpt><trkpt lat="30.63373176643586" lon="-5.05933596223984"><ele>695.3333333333333</ele><time>2026-03-23T11:58:38Z</time></trkpt><trkpt lat="30.633577563430133" lon="-5.059448755085033"><ele>695.0</ele><time>2026-03-23T11:58:39Z</time></trkpt><trkpt lat="30.63344241943645" lon="-5.059550363634034"><ele>695.0</ele><time>2026-03-23T11:58:40Z</time></trkpt><trkpt lat="30.633304006043208" lon="-5.0596457622303195"><ele>695.0</ele><time>2026-03-23T11:58:41Z</time></trkpt><trkpt lat="30.633161685159983" lon="-5.0597346280065905"><ele>695.0</ele><time>2026-03-23T11:58:42Z</time></trkpt><trkpt lat="30.633011801555785" lon="-5.0598201947256225"><ele>695.0</ele><time>2026-03-23T11:58:43Z</time></trkpt><trkpt lat="30.632866009959532" lon="-5.059917498765718"><ele>695.0</ele><time>2026-03-23T11:58:44Z</time></trkpt><trkpt lat="30.63269876853796" lon="-5.060022012159877"><ele>695.0</ele><time>2026-03-23T11:58:45Z</time></trkpt><trkpt lat="30.632531289143028" lon="-5.060136014671384"><ele>694.6666666666666</ele><time>2026-03-23T11:58:46Z</time></trkpt><trkpt lat="30.63235866194727" lon="-5.060247469881384"><ele>694.3333333333334</ele><time>2026-03-23T11:58:47Z</time></trkpt><trkpt lat="30.632190702239793" lon="-5.060346371346063"><ele>694.0</ele><time>2026-03-23T11:58:48Z</time></trkpt><trkpt lat="30.63203504695285" lon="-5.060444083892796"><ele>694.0</ele><time>2026-03-23T11:58:49Z</time></trkpt><trkpt lat="30.631880971389688" lon="-5.06054579110011"><ele>694.0</ele><time>2026-03-23T11:58:50.001Z</time></trkpt><trkpt lat="30.631718553353675" lon="-5.060643657317764"><ele>694.0</ele><time>2026-03-23T11:58:51.001Z</time></trkpt><trkpt lat="30.631547338693178" lon="-5.060729222772443"><ele>694.0</ele><time>2026-03-23T11:58:52.001Z</time></trkpt><trkpt lat="30.63134428885708" lon="-5.060759780956427"><ele>694.0</ele><time>2026-03-23T11:58:53.001Z</time></trkpt><trkpt lat="30.631157164546593" lon="-5.060822419965547"><ele>694.0</ele><time>2026-03-23T11:58:54.001Z</time></trkpt><trkpt lat="30.630947832727987" lon="-5.06084838807379"><ele>694.5</ele><time>2026-03-23T11:58:55.001Z</time></trkpt><trkpt lat="30.63081651063954" lon="-5.061096556984824"><ele>695.0</ele><time>2026-03-23T11:58:56.001Z</time></trkpt><trkpt lat="30.630625835206555" lon="-5.061178941742068"><ele>695.0</ele><time>2026-03-23T11:58:57.001Z</time></trkpt><trkpt lat="30.630439979412188" lon="-5.061259260414048"><ele>695.0</ele><time>2026-03-23T11:58:58.001Z</time></trkpt><trkpt lat="30.630261321030055" lon="-5.061331189731836"><ele>695.0</ele><time>2026-03-23T11:58:59.001Z</time></trkpt><trkpt lat="30.630098104746157" lon="-5.061395469401169"><ele>694.6666666666666</ele><time>2026-03-23T11:59:00.001Z</time></trkpt><trkpt lat="30.629926135427212" lon="-5.061459351422015"><ele>694.3333333333334</ele><time>2026-03-23T11:59:01.001Z</time></trkpt><trkpt lat="30.629755808383212" lon="-5.061524849393104"><ele>694.0</ele><time>2026-03-23T11:59:02.001Z</time></trkpt><trkpt lat="30.629602795420844" lon="-5.061583293459937"><ele>694.0</ele><time>2026-03-23T11:59:03.001Z</time></trkpt><trkpt lat="30.629441918201074" lon="-5.061645700747308"><ele>694.0</ele><time>2026-03-23T11:59:04.001Z</time></trkpt><trkpt lat="30.629275552943163" lon="-5.0617135299463"><ele>694.0</ele><time>2026-03-23T11:59:05.001Z</time></trkpt><trkpt lat="30.62910698739437" lon="-5.061779633701339"><ele>694.0</ele><time>2026-03-23T11:59:06.001Z</time></trkpt><trkpt lat="30.62896153322658" lon="-5.061836432069228"><ele>694.0</ele><time>2026-03-23T11:59:07.001Z</time></trkpt><trkpt lat="30.62883603230824" lon="-5.061881119606328"><ele>694.0</ele><time>2026-03-23T11:59:08.001Z</time></trkpt><trkpt lat="30.628720679383278" lon="-5.061919876648039"><ele>694.0</ele><time>2026-03-23T11:59:09.001Z</time></trkpt><trkpt lat="30.628620657818576" lon="-5.06194404556518"><ele>693.75</ele><time>2026-03-23T11:59:10.001Z</time></trkpt><trkpt lat="30.628501715842955" lon="-5.061972641594935"><ele>693.5</ele><time>2026-03-23T11:59:11.001Z</time></trkpt><trkpt lat="30.628364771312057" lon="-5.062021270213616"><ele>693.25</ele><time>2026-03-23T11:59:12.001Z</time></trkpt><trkpt lat="30.62822875534243" lon="-5.06206992117974"><ele>693.0</ele><time>2026-03-23T11:59:13.001Z</time></trkpt><trkpt lat="30.628052611027105" lon="-5.061994577361146"><ele>693.0</ele><time>2026-03-23T11:59:14.001Z</time></trkpt><trkpt lat="30.627910078498317" lon="-5.062062012611148"><ele>693.0</ele><time>2026-03-23T11:59:15.001Z</time></trkpt><trkpt lat="30.627778639219418" lon="-5.062124136103544"><ele>693.0</ele><time>2026-03-23T11:59:16.001Z</time></trkpt><trkpt lat="30.627642469076765" lon="-5.062188411350615"><ele>693.0</ele><time>2026-03-23T11:59:17.001Z</time></trkpt><trkpt lat="30.627497646587308" lon="-5.062256913461197"><ele>693.3333333333334</ele><time>2026-03-23T11:59:18.001Z</time></trkpt><trkpt lat="30.627349845308053" lon="-5.062326859280489"><ele>693.6666666666667</ele><time>2026-03-23T11:59:19.001Z</time></trkpt><trkpt lat="30.62719320721417" lon="-5.062400948465429"><ele>694.0</ele><time>2026-03-23T11:59:20.001Z</time></trkpt><trkpt lat="30.62705618234191" lon="-5.0624515586481"><ele>694.0</ele><time>2026-03-23T11:59:21.001Z</time></trkpt><trkpt lat="30.626919681384855" lon="-5.062530651222954"><ele>694.0</ele><time>2026-03-23T11:59:22.001Z</time></trkpt><trkpt lat="30.6267598422788" lon="-5.06260524581293"><ele>694.0</ele><time>2026-03-23T11:59:23.001Z</time></trkpt><trkpt lat="30.626621723588038" lon="-5.0626703219630915"><ele>694.0</ele><time>2026-03-23T11:59:24.001Z</time></trkpt><trkpt lat="30.626486127246437" lon="-5.062734209719968"><ele>694.0</ele><time>2026-03-23T11:59:25.001Z</time></trkpt><trkpt lat="30.62635845003096" lon="-5.06281192941658"><ele>694.0</ele><time>2026-03-23T11:59:26.001Z</time></trkpt><trkpt lat="30.626224834207424" lon="-5.062864336627665"><ele>694.0</ele><time>2026-03-23T11:59:27.001Z</time></trkpt><trkpt lat="30.626086350863492" lon="-5.062905979838856"><ele>694.0</ele><time>2026-03-23T11:59:28.001Z</time></trkpt><trkpt lat="30.625945751208434" lon="-5.06298941504247"><ele>694.0</ele><time>2026-03-23T11:59:29.001Z</time></trkpt><trkpt lat="30.625793334488296" lon="-5.06306141293677"><ele>694.0</ele><time>2026-03-23T11:59:30.001Z</time></trkpt><trkpt lat="30.6256365502796" lon="-5.063135473931138"><ele>694.0</ele><time>2026-03-23T11:59:31.001Z</time></trkpt><trkpt lat="30.625506467107698" lon="-5.063196922219122"><ele>694.0</ele><time>2026-03-23T11:59:32.001Z</time></trkpt><trkpt lat="30.625379146071108" lon="-5.063257066024047"><ele>694.0</ele><time>2026-03-23T11:59:33.001Z</time></trkpt><trkpt lat="30.625257409471768" lon="-5.0633145719796"><ele>694.0</ele><time>2026-03-23T11:59:34.001Z</time></trkpt><trkpt lat="30.62510235192957" lon="-5.0633597752432316"><ele>694.0</ele><time>2026-03-23T11:59:35.001Z</time></trkpt><trkpt lat="30.624921488356453" lon="-5.063516095613082"><ele>694.0</ele><time>2026-03-23T11:59:36.001Z</time></trkpt><trkpt lat="30.624771308296598" lon="-5.063622751379509"><ele>694.0</ele><time>2026-03-23T11:59:37.001Z</time></trkpt><trkpt lat="30.624625306035117" lon="-5.063713510295122"><ele>694.0</ele><time>2026-03-23T11:59:38.001Z</time></trkpt><trkpt lat="30.624485389593033" lon="-5.063804564245082"><ele>694.0</ele><time>2026-03-23T11:59:39.001Z</time></trkpt><trkpt lat="30.624348328137835" lon="-5.063895487123278"><ele>694.0</ele><time>2026-03-23T11:59:40.001Z</time></trkpt><trkpt lat="30.624207272018037" lon="-5.063981652194044"><ele>694.0</ele><time>2026-03-23T11:59:41.001Z</time></trkpt><trkpt lat="30.62405614011586" lon="-5.064077751446917"><ele>694.0</ele><time>2026-03-23T11:59:42.001Z</time></trkpt><trkpt lat="30.623899509610222" lon="-5.064178912567875"><ele>694.0</ele><time>2026-03-23T11:59:43.001Z</time></trkpt><trkpt lat="30.62373416296935" lon="-5.06427389315709"><ele>693.6666666666667</ele><time>2026-03-23T11:59:44.001Z</time></trkpt><trkpt lat="30.623562821018695" lon="-5.064361755535247"><ele>693.3333333333334</ele><time>2026-03-23T11:59:45.001Z</time></trkpt><trkpt lat="30.623402610028716" lon="-5.064455414229513"><ele>693.0</ele><time>2026-03-23T11:59:46.001Z</time></trkpt><trkpt lat="30.623248589040532" lon="-5.064539877047576"><ele>693.0</ele><time>2026-03-23T11:59:47.001Z</time></trkpt><trkpt lat="30.623103690961635" lon="-5.06462942119067"><ele>693.0</ele><time>2026-03-23T11:59:48.001Z</time></trkpt><trkpt lat="30.622943529283535" lon="-5.064717321145993"><ele>693.0</ele><time>2026-03-23T11:59:49.001Z</time></trkpt><trkpt lat="30.622791872712604" lon="-5.064798046162284"><ele>693.0</ele><time>2026-03-23T11:59:50.001Z</time></trkpt><trkpt lat="30.622635052024197" lon="-5.064873624519618"><ele>693.0</ele><time>2026-03-23T11:59:51.001Z</time></trkpt><trkpt lat="30.622484152083224" lon="-5.0649486878631285"><ele>693.0</ele><time>2026-03-23T11:59:52.001Z</time></trkpt><trkpt lat="30.622319333562732" lon="-5.065031078145643"><ele>693.0</ele><time>2026-03-23T11:59:53.001Z</time></trkpt><trkpt lat="30.622165422623183" lon="-5.065107312466248"><ele>693.0</ele><time>2026-03-23T11:59:54.001Z</time></trkpt><trkpt lat="30.62200759104698" lon="-5.065180757560554"><ele>693.0</ele><time>2026-03-23T11:59:55.001Z</time></trkpt><trkpt lat="30.62186133885635" lon="-5.0652574939134745"><ele>693.25</ele><time>2026-03-23T11:59:56.001Z</time></trkpt><trkpt lat="30.621729623328424" lon="-5.065333406773981"><ele>693.5</ele><time>2026-03-23T11:59:57.001Z</time></trkpt><trkpt lat="30.621602481133998" lon="-5.0654074475584"><ele>693.75</ele><time>2026-03-23T11:59:58.001Z</time></trkpt><trkpt lat="30.62147766465007" lon="-5.065481661090545"><ele>694.0</ele><time>2026-03-23T11:59:59.001Z</time></trkpt><trkpt lat="30.62134710111348" lon="-5.065556869166287"><ele>694.0</ele><time>2026-03-23T12:00:00.001Z</time></trkpt><trkpt lat="30.62121802223625" lon="-5.065631263390031"><ele>694.0</ele><time>2026-03-23T12:00:01.001Z</time></trkpt><trkpt lat="30.621090834678583" lon="-5.065714938809693"><ele>694.0</ele><time>2026-03-23T12:00:02.001Z</time></trkpt><trkpt lat="30.620967805387465" lon="-5.065802132693567"><ele>694.0</ele><time>2026-03-23T12:00:03.001Z</time></trkpt><trkpt lat="30.620861945313845" lon="-5.065884764295945"><ele>693.75</ele><time>2026-03-23T12:00:04.001Z</time></trkpt><trkpt lat="30.620768600106956" lon="-5.065969497239817"><ele>693.5</ele><time>2026-03-23T12:00:05.001Z</time></trkpt><trkpt lat="30.62067008323204" lon="-5.066063947251128"><ele>693.25</ele><time>2026-03-23T12:00:06.001Z</time></trkpt><trkpt lat="30.620560707907096" lon="-5.066165635767536"><ele>693.0</ele><time>2026-03-23T12:00:07.001Z</time></trkpt><trkpt lat="30.62044452174982" lon="-5.0662743555869"><ele>693.0</ele><time>2026-03-23T12:00:08.001Z</time></trkpt><trkpt lat="30.620316652642614" lon="-5.0663795477380456"><ele>693.0</ele><time>2026-03-23T12:00:09.002Z</time></trkpt><trkpt lat="30.62018697319869" lon="-5.0664643733481824"><ele>693.0</ele><time>2026-03-23T12:00:10.002Z</time></trkpt><trkpt lat="30.62004717703328" lon="-5.066549180522143"><ele>693.0</ele><time>2026-03-23T12:00:11.002Z</time></trkpt><trkpt lat="30.619900293971877" lon="-5.066628416035133"><ele>693.0</ele><time>2026-03-23T12:00:12.002Z</time></trkpt><trkpt lat="30.619747537876414" lon="-5.066689057226549"><ele>693.0</ele><time>2026-03-23T12:00:13Z</time></trkpt><trkpt lat="30.619573559297468" lon="-5.06681245819787"><ele>693.6666666666666</ele><time>2026-03-23T12:00:14Z</time></trkpt><trkpt lat="30.619385548832728" lon="-5.066902792797572"><ele>694.3333333333333</ele><time>2026-03-23T12:00:15Z</time></trkpt><trkpt lat="30.619182456427687" lon="-5.067005809753996"><ele>695.0</ele><time>2026-03-23T12:00:16Z</time></trkpt><trkpt lat="30.618986030598833" lon="-5.067094714717763"><ele>695.0</ele><time>2026-03-23T12:00:17Z</time></trkpt><trkpt lat="30.618798690995398" lon="-5.06718328084189"><ele>695.0</ele><time>2026-03-23T12:00:18Z</time></trkpt><trkpt lat="30.61860685562704" lon="-5.067282847503428"><ele>695.0</ele><time>2026-03-23T12:00:19Z</time></trkpt><trkpt lat="30.618412741695394" lon="-5.067379552085435"><ele>694.6666666666666</ele><time>2026-03-23T12:00:20Z</time></trkpt><trkpt lat="30.618214103518135" lon="-5.067476937188953"><ele>694.3333333333334</ele><time>2026-03-23T12:00:21Z</time></trkpt><trkpt lat="30.618007279592312" lon="-5.067583655453511"><ele>694.0</ele><time>2026-03-23T12:00:22Z</time></trkpt><trkpt lat="30.617803919661945" lon="-5.067680187328323"><ele>694.0</ele><time>2026-03-23T12:00:23Z</time></trkpt><trkpt lat="30.61762630686768" lon="-5.067770733438083"><ele>694.0</ele><time>2026-03-23T12:00:24Z</time></trkpt><trkpt lat="30.61745089480113" lon="-5.067857276054407"><ele>694.0</ele><time>2026-03-23T12:00:25Z</time></trkpt><trkpt lat="30.617266559619118" lon="-5.067946114035841"><ele>694.0</ele><time>2026-03-23T12:00:26Z</time></trkpt><trkpt lat="30.61707800640487" lon="-5.0680332128197785"><ele>694.0</ele><time>2026-03-23T12:00:27Z</time></trkpt><trkpt lat="30.616874113648233" lon="-5.068135454806217"><ele>694.0</ele><time>2026-03-23T12:00:28Z</time></trkpt><trkpt lat="30.616680609751352" lon="-5.068223451000763"><ele>693.3333333333334</ele><time>2026-03-23T12:00:29Z</time></trkpt><trkpt lat="30.616497561154677" lon="-5.068307365978051"><ele>692.6666666666666</ele><time>2026-03-23T12:00:30Z</time></trkpt><trkpt lat="30.616324963189864" lon="-5.068384232265684"><ele>692.0</ele><time>2026-03-23T12:00:31Z</time></trkpt><trkpt lat="30.616160005283987" lon="-5.06845921545421"><ele>692.3333333333333</ele><time>2026-03-23T12:00:32Z</time></trkpt><trkpt lat="30.616009076139207" lon="-5.068536888973564"><ele>692.6666666666666</ele><time>2026-03-23T12:00:33Z</time></trkpt><trkpt lat="30.61586514658234" lon="-5.068606657426691"><ele>693.0</ele><time>2026-03-23T12:00:34Z</time></trkpt><trkpt lat="30.615723710684275" lon="-5.068676307317401"><ele>693.0</ele><time>2026-03-23T12:00:35Z</time></trkpt><trkpt lat="30.61558602314439" lon="-5.068733714546882"><ele>693.0</ele><time>2026-03-23T12:00:36Z</time></trkpt><trkpt lat="30.615439985803505" lon="-5.068801304404562"><ele>693.0</ele><time>2026-03-23T12:00:37Z</time></trkpt><trkpt lat="30.615302477527358" lon="-5.0688704319755145"><ele>693.0</ele><time>2026-03-23T12:00:38Z</time></trkpt><trkpt lat="30.615168372298918" lon="-5.068938016838977"><ele>693.0</ele><time>2026-03-23T12:00:39Z</time></trkpt><trkpt lat="30.61503334409664" lon="-5.069004810712742"><ele>693.0</ele><time>2026-03-23T12:00:40Z</time></trkpt><trkpt lat="30.614903617807713" lon="-5.0690683585504255"><ele>693.0</ele><time>2026-03-23T12:00:41Z</time></trkpt><trkpt lat="30.614773494269766" lon="-5.069128048510116"><ele>693.0</ele><time>2026-03-23T12:00:42Z</time></trkpt><trkpt lat="30.614635030412362" lon="-5.069186963133104"><ele>693.0</ele><time>2026-03-23T12:00:43Z</time></trkpt><trkpt lat="30.61448607064839" lon="-5.069251033950552"><ele>693.0</ele><time>2026-03-23T12:00:44Z</time></trkpt><trkpt lat="30.614339844039225" lon="-5.069321552312619"><ele>693.0</ele><time>2026-03-23T12:00:45Z</time></trkpt><trkpt lat="30.61418611138359" lon="-5.069394417736606"><ele>693.0</ele><time>2026-03-23T12:00:46Z</time></trkpt><trkpt lat="30.614044773056495" lon="-5.069461101553961"><ele>693.0</ele><time>2026-03-23T12:00:47Z</time></trkpt><trkpt lat="30.613894214628658" lon="-5.069529914141863"><ele>693.0</ele><time>2026-03-23T12:00:48Z</time></trkpt><trkpt lat="30.613736233681394" lon="-5.069597672763632"><ele>693.0</ele><time>2026-03-23T12:00:49Z</time></trkpt><trkpt lat="30.613569700884543" lon="-5.069666948688393"><ele>693.0</ele><time>2026-03-23T12:00:50Z</time></trkpt><trkpt lat="30.613392822697797" lon="-5.069743258978101"><ele>693.0</ele><time>2026-03-23T12:00:51Z</time></trkpt><trkpt lat="30.61322099178864" lon="-5.069826775982733"><ele>693.0</ele><time>2026-03-23T12:00:52Z</time></trkpt><trkpt lat="30.613055000344485" lon="-5.069902160333269"><ele>693.0</ele><time>2026-03-23T12:00:53.001Z</time></trkpt><trkpt lat="30.612904053952803" lon="-5.069962896096263"><ele>693.3333333333334</ele><time>2026-03-23T12:00:54.001Z</time></trkpt><trkpt lat="30.61276734825046" lon="-5.070026951392043"><ele>693.6666666666667</ele><time>2026-03-23T12:00:55.001Z</time></trkpt><trkpt lat="30.612621651855076" lon="-5.070098853384438"><ele>694.0</ele><time>2026-03-23T12:00:56.001Z</time></trkpt><trkpt lat="30.612461432902837" lon="-5.070179865051299"><ele>694.0</ele><time>2026-03-23T12:00:57.001Z</time></trkpt><trkpt lat="30.61232233429477" lon="-5.070251999384678"><ele>694.0</ele><time>2026-03-23T12:00:58.001Z</time></trkpt><trkpt lat="30.61219657562271" lon="-5.070329270250435"><ele>694.0</ele><time>2026-03-23T12:00:59.001Z</time></trkpt><trkpt lat="30.61208135121621" lon="-5.070417416194558"><ele>694.0</ele><time>2026-03-23T12:01:00.001Z</time></trkpt><trkpt lat="30.611964727082196" lon="-5.070538826752086"><ele>694.0</ele><time>2026-03-23T12:01:01.001Z</time></trkpt><trkpt lat="30.61184821489098" lon="-5.07067597534751"><ele>694.0</ele><time>2026-03-23T12:01:02.001Z</time></trkpt><trkpt lat="30.61173617531727" lon="-5.07081928454333"><ele>694.0</ele><time>2026-03-23T12:01:03.001Z</time></trkpt><trkpt lat="30.611631221928256" lon="-5.070995185533317"><ele>694.3333333333334</ele><time>2026-03-23T12:01:04.001Z</time></trkpt><trkpt lat="30.611534113651512" lon="-5.071174232473465"><ele>694.6666666666666</ele><time>2026-03-23T12:01:05.001Z</time></trkpt><trkpt lat="30.61144529257572" lon="-5.071356753534419"><ele>695.0</ele><time>2026-03-23T12:01:06.001Z</time></trkpt><trkpt lat="30.61136791382291" lon="-5.071539765759087"><ele>694.6666666666666</ele><time>2026-03-23T12:01:07.001Z</time></trkpt><trkpt lat="30.611281447348944" lon="-5.071712781956575"><ele>694.3333333333334</ele><time>2026-03-23T12:01:08.001Z</time></trkpt><trkpt lat="30.611246900965178" lon="-5.071887504371151"><ele>694.0</ele><time>2026-03-23T12:01:09.001Z</time></trkpt><trkpt lat="30.611192313697053" lon="-5.0720307651621015"><ele>694.2</ele><time>2026-03-23T12:01:10.001Z</time></trkpt><trkpt lat="30.61115517936556" lon="-5.07216367553832"><ele>694.4000000000001</ele><time>2026-03-23T12:01:11.001Z</time></trkpt><trkpt lat="30.611120977344232" lon="-5.072286178089166"><ele>694.6</ele><time>2026-03-23T12:01:12.001Z</time></trkpt><trkpt lat="30.611093212669147" lon="-5.072386070373818"><ele>694.8</ele><time>2026-03-23T12:01:13.001Z</time></trkpt><trkpt lat="30.611073017130696" lon="-5.072457880116831"><ele>695.0</ele><time>2026-03-23T12:01:14.001Z</time></trkpt><trkpt lat="30.61104407939912" lon="-5.072561150561371"><ele>695.0</ele><time>2026-03-23T12:01:16.001Z</time></trkpt><trkpt lat="30.6109896966903" lon="-5.072755987173796"><ele>695.0</ele><time>2026-03-23T12:01:32.001Z</time></trkpt><trkpt lat="30.610962754220523" lon="-5.072852138826895"><ele>695.0</ele><time>2026-03-23T12:01:33.001Z</time></trkpt><trkpt lat="30.6109240629717" lon="-5.072990219303137"><ele>695.0</ele><time>2026-03-23T12:01:34.001Z</time></trkpt><trkpt lat="30.610886294250065" lon="-5.073125007423135"><ele>695.0</ele><time>2026-03-23T12:01:35.001Z</time></trkpt><trkpt lat="30.61084581944826" lon="-5.073269452944297"><ele>695.0</ele><time>2026-03-23T12:01:36.001Z</time></trkpt><trkpt lat="30.610798914676153" lon="-5.0734368455599865"><ele>695.0</ele><time>2026-03-23T12:01:37.001Z</time></trkpt><trkpt lat="30.610746203422476" lon="-5.073624087394013"><ele>695.0</ele><time>2026-03-23T12:01:38.001Z</time></trkpt><trkpt lat="30.610688490343584" lon="-5.073830558342787"><ele>695.0</ele><time>2026-03-23T12:01:39.001Z</time></trkpt><trkpt lat="30.61063162064555" lon="-5.074034807848438"><ele>695.0</ele><time>2026-03-23T12:01:40.001Z</time></trkpt><trkpt lat="30.610574428896612" lon="-5.074237688162376"><ele>694.0</ele><time>2026-03-23T12:01:41.001Z</time></trkpt><trkpt lat="30.610520775961746" lon="-5.074428532948983"><ele>693.0</ele><time>2026-03-23T12:01:42.001Z</time></trkpt><trkpt lat="30.610470860561293" lon="-5.074607135182386"><ele>692.0</ele><time>2026-03-23T12:01:43.001Z</time></trkpt><trkpt lat="30.61041698471766" lon="-5.074800821412523"><ele>692.0</ele><time>2026-03-23T12:01:44.001Z</time></trkpt><trkpt lat="30.610363937523136" lon="-5.074991528597003"><ele>692.0</ele><time>2026-03-23T12:01:45.001Z</time></trkpt><trkpt lat="30.610313224853552" lon="-5.075172424182852"><ele>692.0</ele><time>2026-03-23T12:01:46.001Z</time></trkpt><trkpt lat="30.610270328158823" lon="-5.075325108986852"><ele>691.6666666666666</ele><time>2026-03-23T12:01:47.001Z</time></trkpt><trkpt lat="30.610229113483506" lon="-5.0754718067390625"><ele>691.3333333333334</ele><time>2026-03-23T12:01:48.001Z</time></trkpt><trkpt lat="30.610184573379744" lon="-5.0756310614333024"><ele>691.0</ele><time>2026-03-23T12:01:49.001Z</time></trkpt><trkpt lat="30.61012931813172" lon="-5.075828460046441"><ele>691.0</ele><time>2026-03-23T12:01:50.001Z</time></trkpt><trkpt lat="30.61007307202877" lon="-5.076029034399778"><ele>691.0</ele><time>2026-03-23T12:01:51.001Z</time></trkpt><trkpt lat="30.610016943522574" lon="-5.076229189624384"><ele>691.0</ele><time>2026-03-23T12:01:52.001Z</time></trkpt><trkpt lat="30.6099662599353" lon="-5.076409928025602"><ele>691.0</ele><time>2026-03-23T12:01:53.001Z</time></trkpt><trkpt lat="30.609921880321394" lon="-5.076568186518544"><ele>691.0</ele><time>2026-03-23T12:01:54.001Z</time></trkpt><trkpt lat="30.60989339382627" lon="-5.07672783891513"><ele>691.0</ele><time>2026-03-23T12:01:55.001Z</time></trkpt><trkpt lat="30.609840415994565" lon="-5.076887175198864"><ele>691.0</ele><time>2026-03-23T12:01:56.001Z</time></trkpt><trkpt lat="30.609782656958163" lon="-5.07705947772214"><ele>691.3333333333334</ele><time>2026-03-23T12:01:57.001Z</time></trkpt><trkpt lat="30.60971952998108" lon="-5.077240350800066"><ele>691.6666666666666</ele><time>2026-03-23T12:01:58.001Z</time></trkpt><trkpt lat="30.60967657049257" lon="-5.07744493657973"><ele>692.0</ele><time>2026-03-23T12:01:59.001Z</time></trkpt><trkpt lat="30.60961908429247" lon="-5.077639695476314"><ele>692.3333333333333</ele><time>2026-03-23T12:02:00.001Z</time></trkpt><trkpt lat="30.60955623514507" lon="-5.0778353067711235"><ele>692.6666666666666</ele><time>2026-03-23T12:02:01.001Z</time></trkpt><trkpt lat="30.60949065993821" lon="-5.078038236717511"><ele>693.0</ele><time>2026-03-23T12:02:02.001Z</time></trkpt><trkpt lat="30.609424377797936" lon="-5.078243440501637"><ele>693.3333333333334</ele><time>2026-03-23T12:02:03.001Z</time></trkpt><trkpt lat="30.609356646457815" lon="-5.078454254960434"><ele>693.6666666666667</ele><time>2026-03-23T12:02:04.001Z</time></trkpt><trkpt lat="30.609295616810684" lon="-5.078643211661125"><ele>694.0</ele><time>2026-03-23T12:02:05.001Z</time></trkpt><trkpt lat="30.609234412168643" lon="-5.078832710073345"><ele>694.0</ele><time>2026-03-23T12:02:06.001Z</time></trkpt><trkpt lat="30.60917645624325" lon="-5.079012149815859"><ele>694.0</ele><time>2026-03-23T12:02:07.001Z</time></trkpt><trkpt lat="30.609119717973723" lon="-5.079186698453826"><ele>694.0</ele><time>2026-03-23T12:02:08.001Z</time></trkpt><trkpt lat="30.609064375329933" lon="-5.079357750466336"><ele>694.6666666666667</ele><time>2026-03-23T12:02:09.001Z</time></trkpt><trkpt lat="30.60900970089856" lon="-5.0795264919099905"><ele>695.3333333333334</ele><time>2026-03-23T12:02:10.001Z</time></trkpt><trkpt lat="30.608953886951408" lon="-5.079701698079256"><ele>696.0</ele><time>2026-03-23T12:02:11.001Z</time></trkpt><trkpt lat="30.60887728580494" lon="-5.079887096588325"><ele>696.0</ele><time>2026-03-23T12:02:12.001Z</time></trkpt><trkpt lat="30.608820933821274" lon="-5.080072548861815"><ele>696.0</ele><time>2026-03-23T12:02:13.001Z</time></trkpt><trkpt lat="30.608766355115772" lon="-5.080267608065392"><ele>696.0</ele><time>2026-03-23T12:02:14.001Z</time></trkpt><trkpt lat="30.608713734321213" lon="-5.080468919341975"><ele>696.0</ele><time>2026-03-23T12:02:15.001Z</time></trkpt><trkpt lat="30.60866145136008" lon="-5.080699819875986"><ele>696.0</ele><time>2026-03-23T12:02:16.001Z</time></trkpt><trkpt lat="30.608642434784215" lon="-5.0809173743225315"><ele>696.0</ele><time>2026-03-23T12:02:17.001Z</time></trkpt><trkpt lat="30.608616694266527" lon="-5.081107655545461"><ele>695.5</ele><time>2026-03-23T12:02:18.001Z</time></trkpt><trkpt lat="30.60859492703721" lon="-5.0812691600101285"><ele>695.0</ele><time>2026-03-23T12:02:19Z</time></trkpt><trkpt lat="30.608576836683877" lon="-5.081403136701373"><ele>694.5</ele><time>2026-03-23T12:02:20Z</time></trkpt><trkpt lat="30.608557841664783" lon="-5.0815439906770274"><ele>694.0</ele><time>2026-03-23T12:02:21Z</time></trkpt><trkpt lat="30.608539179651874" lon="-5.081682831813529"><ele>693.6666666666667</ele><time>2026-03-23T12:02:22Z</time></trkpt><trkpt lat="30.608516400366067" lon="-5.081852445351035"><ele>693.3333333333334</ele><time>2026-03-23T12:02:23Z</time></trkpt><trkpt lat="30.608491858907737" lon="-5.082035342985932"><ele>693.0</ele><time>2026-03-23T12:02:24Z</time></trkpt><trkpt lat="30.608463756546094" lon="-5.082244778436328"><ele>693.3333333333334</ele><time>2026-03-23T12:02:25Z</time></trkpt><trkpt lat="30.60843460291616" lon="-5.082462048814911"><ele>693.6666666666667</ele><time>2026-03-23T12:02:26Z</time></trkpt><trkpt lat="30.608403837202555" lon="-5.082690998605444"><ele>694.0</ele><time>2026-03-23T12:02:27Z</time></trkpt><trkpt lat="30.608370705095272" lon="-5.082932985200074"><ele>694.0</ele><time>2026-03-23T12:02:28Z</time></trkpt><trkpt lat="30.608342145059616" lon="-5.083141258285946"><ele>694.0</ele><time>2026-03-23T12:02:29Z</time></trkpt><trkpt lat="30.608317185001344" lon="-5.083323110058556"><ele>694.0</ele><time>2026-03-23T12:02:30Z</time></trkpt><trkpt lat="30.608291807345303" lon="-5.083498340452497"><ele>694.0</ele><time>2026-03-23T12:02:31Z</time></trkpt><trkpt lat="30.60826564133374" lon="-5.0836732081883635"><ele>694.0</ele><time>2026-03-23T12:02:32Z</time></trkpt><trkpt lat="30.608239448683403" lon="-5.083848253948963"><ele>694.0</ele><time>2026-03-23T12:02:33Z</time></trkpt><trkpt lat="30.60821124167167" lon="-5.084036862662197"><ele>694.0</ele><time>2026-03-23T12:02:34Z</time></trkpt><trkpt lat="30.60818140166105" lon="-5.084236733722813"><ele>694.0</ele><time>2026-03-23T12:02:35Z</time></trkpt><trkpt lat="30.608153398601193" lon="-5.084424300697257"><ele>694.0</ele><time>2026-03-23T12:02:36Z</time></trkpt><trkpt lat="30.608127682566018" lon="-5.084595217676348"><ele>694.0</ele><time>2026-03-23T12:02:37Z</time></trkpt><trkpt lat="30.608106221024546" lon="-5.084737211875853"><ele>694.0</ele><time>2026-03-23T12:02:38Z</time></trkpt><trkpt lat="30.608089680986847" lon="-5.0848483771907755"><ele>694.0</ele><time>2026-03-23T12:02:39Z</time></trkpt><trkpt lat="30.60806876041758" lon="-5.084989155131575"><ele>694.0</ele><time>2026-03-23T12:02:40Z</time></trkpt><trkpt lat="30.608043926473695" lon="-5.085156266936499"><ele>694.0</ele><time>2026-03-23T12:02:41Z</time></trkpt><trkpt lat="30.608014818687288" lon="-5.085352138046789"><ele>694.0</ele><time>2026-03-23T12:02:42Z</time></trkpt><trkpt lat="30.60798168524642" lon="-5.085575098568156"><ele>694.0</ele><time>2026-03-23T12:02:43Z</time></trkpt><trkpt lat="30.607946028351947" lon="-5.085810332233227"><ele>694.0</ele><time>2026-03-23T12:02:44Z</time></trkpt><trkpt lat="30.607909232369774" lon="-5.08605847469462"><ele>694.0</ele><time>2026-03-23T12:02:45Z</time></trkpt><trkpt lat="30.607873093211115" lon="-5.086300692453431"><ele>694.0</ele><time>2026-03-23T12:02:46Z</time></trkpt><trkpt lat="30.607839634837013" lon="-5.086524238070795"><ele>694.0</ele><time>2026-03-23T12:02:47Z</time></trkpt><trkpt lat="30.607804728188608" lon="-5.086757285225297"><ele>694.0</ele><time>2026-03-23T12:02:48Z</time></trkpt><trkpt lat="30.60776740486014" lon="-5.087006136562598"><ele>694.0</ele><time>2026-03-23T12:02:49Z</time></trkpt><trkpt lat="30.60773160291031" lon="-5.08724484418098"><ele>694.0</ele><time>2026-03-23T12:02:50Z</time></trkpt><trkpt lat="30.607696230565782" lon="-5.087480687437225"><ele>694.0</ele><time>2026-03-23T12:02:51Z</time></trkpt><trkpt lat="30.60766252496349" lon="-5.087705417770741"><ele>694.0</ele><time>2026-03-23T12:02:52Z</time></trkpt><trkpt lat="30.60762938378514" lon="-5.087926789298195"><ele>694.0</ele><time>2026-03-23T12:02:53Z</time></trkpt><trkpt lat="30.607596176843572" lon="-5.088148977781874"><ele>694.0</ele><time>2026-03-23T12:02:54Z</time></trkpt><trkpt lat="30.607561781651334" lon="-5.088379116825213"><ele>694.0</ele><time>2026-03-23T12:02:55Z</time></trkpt><trkpt lat="30.60752613889486" lon="-5.088617603325157"><ele>694.0</ele><time>2026-03-23T12:02:56Z</time></trkpt><trkpt lat="30.607490131982857" lon="-5.088858526454169"><ele>694.0</ele><time>2026-03-23T12:02:57Z</time></trkpt><trkpt lat="30.60745430668356" lon="-5.089098234415689"><ele>694.0</ele><time>2026-03-23T12:02:58Z</time></trkpt><trkpt lat="30.60741578457366" lon="-5.089356577105392"><ele>694.0</ele><time>2026-03-23T12:02:59Z</time></trkpt><trkpt lat="30.607375796462748" lon="-5.08960155719016"><ele>694.0</ele><time>2026-03-23T12:03:00Z</time></trkpt><trkpt lat="30.607342838493125" lon="-5.089849317149256"><ele>694.0</ele><time>2026-03-23T12:03:01Z</time></trkpt><trkpt lat="30.60731026759347" lon="-5.0900667395335795"><ele>694.0</ele><time>2026-03-23T12:03:02Z</time></trkpt><trkpt lat="30.6072818023947" lon="-5.090256754893657"><ele>694.0</ele><time>2026-03-23T12:03:03Z</time></trkpt><trkpt lat="30.607233283793885" lon="-5.090580633763621"><ele>694.0</ele><time>2026-03-23T12:03:04Z</time></trkpt><trkpt lat="30.60720551623812" lon="-5.0908618248967805"><ele>694.3333333333334</ele><time>2026-03-23T12:03:05Z</time></trkpt><trkpt lat="30.607169220980992" lon="-5.091008275792172"><ele>694.6666666666666</ele><time>2026-03-23T12:03:06Z</time></trkpt><trkpt lat="30.607137364539835" lon="-5.091220928879483"><ele>695.0</ele><time>2026-03-23T12:03:07Z</time></trkpt><trkpt lat="30.607103652382754" lon="-5.091445969525912"><ele>695.3333333333333</ele><time>2026-03-23T12:03:08Z</time></trkpt><trkpt lat="30.60706897561902" lon="-5.09167744925342"><ele>695.6666666666666</ele><time>2026-03-23T12:03:09Z</time></trkpt><trkpt lat="30.60703417399528" lon="-5.091909762570532"><ele>696.0</ele><time>2026-03-23T12:03:10Z</time></trkpt><trkpt lat="30.606999128284894" lon="-5.092143705064338"><ele>696.0</ele><time>2026-03-23T12:03:11Z</time></trkpt><trkpt lat="30.60696450699221" lon="-5.0923748145265915"><ele>696.0</ele><time>2026-03-23T12:03:12Z</time></trkpt><trkpt lat="30.606928357495057" lon="-5.092616125215215"><ele>696.0</ele><time>2026-03-23T12:03:13Z</time></trkpt><trkpt lat="30.606892901985105" lon="-5.092852803331702"><ele>696.0</ele><time>2026-03-23T12:03:14Z</time></trkpt><trkpt lat="30.606861574478234" lon="-5.093061925725148"><ele>696.0</ele><time>2026-03-23T12:03:15Z</time></trkpt><trkpt lat="30.606832768813312" lon="-5.09325594755234"><ele>696.0</ele><time>2026-03-23T12:03:16Z</time></trkpt><trkpt lat="30.60680708857786" lon="-5.093430912445102"><ele>695.75</ele><time>2026-03-23T12:03:17Z</time></trkpt><trkpt lat="30.606780623388797" lon="-5.093604803762276"><ele>695.5</ele><time>2026-03-23T12:03:18Z</time></trkpt><trkpt lat="30.60675645135369" lon="-5.093763437623392"><ele>695.25</ele><time>2026-03-23T12:03:19.001Z</time></trkpt><trkpt lat="30.606731582580537" lon="-5.093927106083989"><ele>695.0</ele><time>2026-03-23T12:03:20.001Z</time></trkpt><trkpt lat="30.606705278592397" lon="-5.094100027010877"><ele>695.0</ele><time>2026-03-23T12:03:21.001Z</time></trkpt><trkpt lat="30.60667780541579" lon="-5.094280634097574"><ele>695.0</ele><time>2026-03-23T12:03:22.001Z</time></trkpt><trkpt lat="30.606649886053756" lon="-5.094464174413207"><ele>695.0</ele><time>2026-03-23T12:03:23.001Z</time></trkpt><trkpt lat="30.606621305218642" lon="-5.09464822888288"><ele>695.0</ele><time>2026-03-23T12:03:24.001Z</time></trkpt><trkpt lat="30.606592776582563" lon="-5.094832153502295"><ele>695.0</ele><time>2026-03-23T12:03:25.001Z</time></trkpt><trkpt lat="30.606564345392623" lon="-5.095019297334792"><ele>695.0</ele><time>2026-03-23T12:03:26.001Z</time></trkpt><trkpt lat="30.60653517488466" lon="-5.095210834530529"><ele>695.3333333333333</ele><time>2026-03-23T12:03:27.001Z</time></trkpt><trkpt lat="30.606505308199804" lon="-5.095405607391736"><ele>695.6666666666666</ele><time>2026-03-23T12:03:28.001Z</time></trkpt><trkpt lat="30.606472518205095" lon="-5.095619444375871"><ele>696.0</ele><time>2026-03-23T12:03:29.001Z</time></trkpt><trkpt lat="30.606437647596252" lon="-5.095847199264387"><ele>696.3333333333334</ele><time>2026-03-23T12:03:30.001Z</time></trkpt><trkpt lat="30.60640110447366" lon="-5.096087314736228"><ele>696.6666666666667</ele><time>2026-03-23T12:03:31.001Z</time></trkpt><trkpt lat="30.606364112382753" lon="-5.096330380152908"><ele>697.0</ele><time>2026-03-23T12:03:32.001Z</time></trkpt><trkpt lat="30.606326611491898" lon="-5.096578013271898"><ele>696.3333333333334</ele><time>2026-03-23T12:03:33.001Z</time></trkpt><trkpt lat="30.606305504696536" lon="-5.096829245865992"><ele>695.6666666666666</ele><time>2026-03-23T12:03:34.001Z</time></trkpt><trkpt lat="30.606259157375387" lon="-5.097081074730695"><ele>695.0</ele><time>2026-03-23T12:03:35.001Z</time></trkpt><trkpt lat="30.606217077021288" lon="-5.09733993090202"><ele>695.0</ele><time>2026-03-23T12:03:36.001Z</time></trkpt><trkpt lat="30.60617965925384" lon="-5.097590198803155"><ele>695.0</ele><time>2026-03-23T12:03:37.001Z</time></trkpt><trkpt lat="30.606135947019737" lon="-5.097836084499987"><ele>695.0</ele><time>2026-03-23T12:03:38.001Z</time></trkpt><trkpt lat="30.606096010998346" lon="-5.098063268421432"><ele>695.0</ele><time>2026-03-23T12:03:39.001Z</time></trkpt><trkpt lat="30.606069000382366" lon="-5.098275266492822"><ele>695.0</ele><time>2026-03-23T12:03:40.001Z</time></trkpt><trkpt lat="30.60604035404353" lon="-5.098491395644054"><ele>695.0</ele><time>2026-03-23T12:03:41.001Z</time></trkpt><trkpt lat="30.606005780403514" lon="-5.098703832120193"><ele>695.0</ele><time>2026-03-23T12:03:42.001Z</time></trkpt><trkpt lat="30.605970150471066" lon="-5.098916201291999"><ele>695.0</ele><time>2026-03-23T12:03:43.001Z</time></trkpt><trkpt lat="30.605934059892576" lon="-5.0991259541070795"><ele>695.0</ele><time>2026-03-23T12:03:44.001Z</time></trkpt><trkpt lat="30.605921523447186" lon="-5.099327002609619"><ele>696.0</ele><time>2026-03-23T12:03:45.001Z</time></trkpt><trkpt lat="30.605891616781665" lon="-5.099530349882434"><ele>697.0</ele><time>2026-03-23T12:03:46.001Z</time></trkpt><trkpt lat="30.605860828760452" lon="-5.099739191170121"><ele>698.0</ele><time>2026-03-23T12:03:47.001Z</time></trkpt><trkpt lat="30.605814621856382" lon="-5.099945289473889"><ele>698.0</ele><time>2026-03-23T12:03:48.001Z</time></trkpt><trkpt lat="30.605782767993613" lon="-5.100161053254996"><ele>698.0</ele><time>2026-03-23T12:03:49.001Z</time></trkpt><trkpt lat="30.605766859389888" lon="-5.100378303270436"><ele>698.0</ele><time>2026-03-23T12:03:50.001Z</time></trkpt><trkpt lat="30.60573567347484" lon="-5.1005951666289535"><ele>697.6666666666666</ele><time>2026-03-23T12:03:51.001Z</time></trkpt><trkpt lat="30.605721234231115" lon="-5.1007886158003215"><ele>697.3333333333334</ele><time>2026-03-23T12:03:52.001Z</time></trkpt><trkpt lat="30.60570605268864" lon="-5.100993659083304"><ele>697.0</ele><time>2026-03-23T12:03:53.001Z</time></trkpt><trkpt lat="30.60568994492311" lon="-5.101208077798583"><ele>697.0</ele><time>2026-03-23T12:03:54.001Z</time></trkpt><trkpt lat="30.605666452434253" lon="-5.1014294586646045"><ele>697.0</ele><time>2026-03-23T12:03:55.001Z</time></trkpt><trkpt lat="30.605655584972965" lon="-5.101655396593771"><ele>697.0</ele><time>2026-03-23T12:03:56.001Z</time></trkpt><trkpt lat="30.60563944522744" lon="-5.101867922289977"><ele>696.6666666666667</ele><time>2026-03-23T12:03:57.001Z</time></trkpt><trkpt lat="30.605622703100796" lon="-5.1020709576316925"><ele>696.3333333333334</ele><time>2026-03-23T12:03:58.001Z</time></trkpt><trkpt lat="30.605604338340438" lon="-5.1022568620926805"><ele>696.0</ele><time>2026-03-23T12:03:59.001Z</time></trkpt><trkpt lat="30.605600912145256" lon="-5.1024648806589425"><ele>696.6666666666666</ele><time>2026-03-23T12:04:00.001Z</time></trkpt><trkpt lat="30.605561940819968" lon="-5.102669372655008"><ele>697.3333333333333</ele><time>2026-03-23T12:04:01.001Z</time></trkpt><trkpt lat="30.605544875954486" lon="-5.102877184658027"><ele>698.0</ele><time>2026-03-23T12:04:02.001Z</time></trkpt><trkpt lat="30.605524730177873" lon="-5.103087349018373"><ele>698.0</ele><time>2026-03-23T12:04:03.001Z</time></trkpt><trkpt lat="30.605502826173794" lon="-5.103315855581286"><ele>698.0</ele><time>2026-03-23T12:04:04.001Z</time></trkpt><trkpt lat="30.605478846667772" lon="-5.103566014357717"><ele>698.0</ele><time>2026-03-23T12:04:05.001Z</time></trkpt><trkpt lat="30.60545395814151" lon="-5.103830591150399"><ele>698.0</ele><time>2026-03-23T12:04:06.001Z</time></trkpt><trkpt lat="30.60540768050911" lon="-5.104090515600288"><ele>698.0</ele><time>2026-03-23T12:04:07.001Z</time></trkpt><trkpt lat="30.605364693090817" lon="-5.104359799093066"><ele>697.5</ele><time>2026-03-23T12:04:08.001Z</time></trkpt><trkpt lat="30.605317771833192" lon="-5.104649251370624"><ele>697.0</ele><time>2026-03-23T12:04:09.001Z</time></trkpt><trkpt lat="30.605271925866017" lon="-5.104927791097526"><ele>696.5</ele><time>2026-03-23T12:04:10.001Z</time></trkpt><trkpt lat="30.605229019471277" lon="-5.105194204285129"><ele>696.0</ele><time>2026-03-23T12:04:11.001Z</time></trkpt><trkpt lat="30.60518654551375" lon="-5.105455979618909"><ele>696.0</ele><time>2026-03-23T12:04:12.001Z</time></trkpt><trkpt lat="30.605144211648685" lon="-5.10571835032348"><ele>696.0</ele><time>2026-03-23T12:04:13.001Z</time></trkpt><trkpt lat="30.605105085812912" lon="-5.105960838671193"><ele>696.0</ele><time>2026-03-23T12:04:14.001Z</time></trkpt><trkpt lat="30.605067724117013" lon="-5.10619134271955"><ele>696.3333333333334</ele><time>2026-03-23T12:04:15.001Z</time></trkpt><trkpt lat="30.605032545124274" lon="-5.106409092362363"><ele>696.6666666666667</ele><time>2026-03-23T12:04:16.001Z</time></trkpt><trkpt lat="30.604996475063132" lon="-5.106634601222687"><ele>697.0</ele><time>2026-03-23T12:04:17.001Z</time></trkpt><trkpt lat="30.6049590862007" lon="-5.106867131460689"><ele>697.3333333333334</ele><time>2026-03-23T12:04:18.001Z</time></trkpt><trkpt lat="30.60492220466754" lon="-5.107090473938237"><ele>697.6666666666666</ele><time>2026-03-23T12:04:19.001Z</time></trkpt><trkpt lat="30.604885771828016" lon="-5.107315096187077"><ele>698.0</ele><time>2026-03-23T12:04:20.001Z</time></trkpt><trkpt lat="30.604847582893843" lon="-5.107552529566938"><ele>698.0</ele><time>2026-03-23T12:04:21.001Z</time></trkpt><trkpt lat="30.604807877544605" lon="-5.107795277018069"><ele>698.0</ele><time>2026-03-23T12:04:22.001Z</time></trkpt><trkpt lat="30.604771016203625" lon="-5.108019387895637"><ele>698.0</ele><time>2026-03-23T12:04:23.001Z</time></trkpt><trkpt lat="30.60473715496995" lon="-5.108226962716165"><ele>698.3333333333333</ele><time>2026-03-23T12:04:24.001Z</time></trkpt><trkpt lat="30.604704277164807" lon="-5.108429552923752"><ele>698.6666666666666</ele><time>2026-03-23T12:04:25Z</time></trkpt><trkpt lat="30.60467172947173" lon="-5.108630533504567"><ele>699.0</ele><time>2026-03-23T12:04:26Z</time></trkpt><trkpt lat="30.604639143697604" lon="-5.108829449345133"><ele>699.0</ele><time>2026-03-23T12:04:27Z</time></trkpt><trkpt lat="30.60460530454364" lon="-5.109037319357965"><ele>699.0</ele><time>2026-03-23T12:04:28Z</time></trkpt><trkpt lat="30.604570545649864" lon="-5.1092525923647605"><ele>699.0</ele><time>2026-03-23T12:04:29Z</time></trkpt><trkpt lat="30.604530669245058" lon="-5.109498804409185"><ele>699.5</ele><time>2026-03-23T12:04:30Z</time></trkpt><trkpt lat="30.60445870219815" lon="-5.109744028233327"><ele>700.0</ele><time>2026-03-23T12:04:31Z</time></trkpt><trkpt lat="30.604379711542794" lon="-5.1100046154458"><ele>700.0</ele><time>2026-03-23T12:04:32Z</time></trkpt><trkpt lat="30.60429491027391" lon="-5.110269812402691"><ele>700.0</ele><time>2026-03-23T12:04:33Z</time></trkpt><trkpt lat="30.604202683726307" lon="-5.110549094606619"><ele>700.5</ele><time>2026-03-23T12:04:34Z</time></trkpt><trkpt lat="30.604118999234082" lon="-5.110806344586971"><ele>701.0</ele><time>2026-03-23T12:04:35Z</time></trkpt><trkpt lat="30.60339808361216" lon="-5.110979303111008"><ele>700.0</ele><time>2026-03-23T12:04:36Z</time></trkpt><trkpt lat="30.603312168092305" lon="-5.111247032696026"><ele>699.0</ele><time>2026-03-23T12:04:37Z</time></trkpt><trkpt lat="30.603229992711604" lon="-5.111479996979934"><ele>698.6666666666666</ele><time>2026-03-23T12:04:38Z</time></trkpt><trkpt lat="30.603151270186316" lon="-5.111695339808135"><ele>698.3333333333333</ele><time>2026-03-23T12:04:39Z</time></trkpt><trkpt lat="30.603074441142386" lon="-5.111904996492116"><ele>698.0</ele><time>2026-03-23T12:04:40Z</time></trkpt><trkpt lat="30.602994270992877" lon="-5.112125677008987"><ele>698.0</ele><time>2026-03-23T12:04:41Z</time></trkpt><trkpt lat="30.602911131456263" lon="-5.1123469337544325"><ele>698.0</ele><time>2026-03-23T12:04:42Z</time></trkpt><trkpt lat="30.60282946525519" lon="-5.112570657770779"><ele>698.0</ele><time>2026-03-23T12:04:43Z</time></trkpt><trkpt lat="30.602752986095297" lon="-5.112778876971006"><ele>698.6666666666666</ele><time>2026-03-23T12:04:44Z</time></trkpt><trkpt lat="30.602694348788756" lon="-5.112945174152536"><ele>699.3333333333334</ele><time>2026-03-23T12:04:45Z</time></trkpt><trkpt lat="30.602635536342245" lon="-5.1131110834299"><ele>700.0</ele><time>2026-03-23T12:04:46Z</time></trkpt><trkpt lat="30.60257470501053" lon="-5.113295243477025"><ele>700.0</ele><time>2026-03-23T12:04:47Z</time></trkpt><trkpt lat="30.602510763838858" lon="-5.113483033639281"><ele>700.0</ele><time>2026-03-23T12:04:48Z</time></trkpt><trkpt lat="30.602448478593733" lon="-5.113672285608277"><ele>700.0</ele><time>2026-03-23T12:04:49Z</time></trkpt><trkpt lat="30.602382439714276" lon="-5.113863073053041"><ele>700.0</ele><time>2026-03-23T12:04:50Z</time></trkpt><trkpt lat="30.60230788447121" lon="-5.114054331574439"><ele>700.0</ele><time>2026-03-23T12:04:51Z</time></trkpt><trkpt lat="30.602231924294117" lon="-5.114231310151245"><ele>700.0</ele><time>2026-03-23T12:04:52Z</time></trkpt><trkpt lat="30.60215290956458" lon="-5.114408037212112"><ele>699.6666666666667</ele><time>2026-03-23T12:04:53Z</time></trkpt><trkpt lat="30.602075890422356" lon="-5.114585321422205"><ele>699.3333333333334</ele><time>2026-03-23T12:04:54Z</time></trkpt><trkpt lat="30.602009973173033" lon="-5.114762850236709"><ele>699.0</ele><time>2026-03-23T12:04:55Z</time></trkpt><trkpt lat="30.601944446609508" lon="-5.11494356508856"><ele>699.0</ele><time>2026-03-23T12:04:56Z</time></trkpt><trkpt lat="30.60188334049193" lon="-5.11513977167328"><ele>699.0</ele><time>2026-03-23T12:04:57Z</time></trkpt><trkpt lat="30.601823057341004" lon="-5.11534013802796"><ele>699.0</ele><time>2026-03-23T12:04:58Z</time></trkpt><trkpt lat="30.601767726982946" lon="-5.1155283487499466"><ele>699.0</ele><time>2026-03-23T12:04:59Z</time></trkpt><trkpt lat="30.60171582353516" lon="-5.115696148793851"><ele>699.0</ele><time>2026-03-23T12:05:00Z</time></trkpt><trkpt lat="30.60167221992135" lon="-5.115833872960077"><ele>699.0</ele><time>2026-03-23T12:05:01Z</time></trkpt><trkpt lat="30.601620493398137" lon="-5.115975243491012"><ele>699.0</ele><time>2026-03-23T12:05:02Z</time></trkpt><trkpt lat="30.601566769342096" lon="-5.11612267861507"><ele>699.5</ele><time>2026-03-23T12:05:03Z</time></trkpt><trkpt lat="30.601528963421803" lon="-5.116275769145003"><ele>700.0</ele><time>2026-03-23T12:05:04Z</time></trkpt><trkpt lat="30.601512762952936" lon="-5.116431331821448"><ele>700.5</ele><time>2026-03-23T12:05:05Z</time></trkpt><trkpt lat="30.601504914105625" lon="-5.116602220366049"><ele>701.0</ele><time>2026-03-23T12:05:06Z</time></trkpt><trkpt lat="30.6014986356899" lon="-5.1167842030008135"><ele>701.0</ele><time>2026-03-23T12:05:07Z</time></trkpt><trkpt lat="30.601485281580693" lon="-5.116941717882267"><ele>701.0</ele><time>2026-03-23T12:05:08Z</time></trkpt><trkpt lat="30.601466885842925" lon="-5.1170950961252295"><ele>701.0</ele><time>2026-03-23T12:05:09Z</time></trkpt><trkpt lat="30.60144011786278" lon="-5.117242551451457"><ele>701.0</ele><time>2026-03-23T12:05:10Z</time></trkpt><trkpt lat="30.601406845996106" lon="-5.117405516200099"><ele>701.0</ele><time>2026-03-23T12:05:11Z</time></trkpt><trkpt lat="30.601362822994542" lon="-5.11757743693954"><ele>701.0</ele><time>2026-03-23T12:05:12Z</time></trkpt><trkpt lat="30.60131871778097" lon="-5.1177629449205195"><ele>701.0</ele><time>2026-03-23T12:05:13Z</time></trkpt><trkpt lat="30.601269305554442" lon="-5.117960378850334"><ele>701.0</ele><time>2026-03-23T12:05:14Z</time></trkpt><trkpt lat="30.60122042838078" lon="-5.118165457130992"><ele>701.0</ele><time>2026-03-23T12:05:15Z</time></trkpt><trkpt lat="30.601168970666688" lon="-5.118377008560548"><ele>701.0</ele><time>2026-03-23T12:05:16Z</time></trkpt><trkpt lat="30.601108294644106" lon="-5.118580654448872"><ele>701.25</ele><time>2026-03-23T12:05:17Z</time></trkpt><trkpt lat="30.60104499113665" lon="-5.11876888644452"><ele>701.5</ele><time>2026-03-23T12:05:18Z</time></trkpt><trkpt lat="30.600995713647936" lon="-5.118909389560452"><ele>701.75</ele><time>2026-03-23T12:05:19Z</time></trkpt><trkpt lat="30.600939727059487" lon="-5.119059785551866"><ele>702.0</ele><time>2026-03-23T12:05:20Z</time></trkpt><trkpt lat="30.60087554237763" lon="-5.1192230773113"><ele>702.0</ele><time>2026-03-23T12:05:21Z</time></trkpt><trkpt lat="30.600821507191835" lon="-5.119396729766465"><ele>702.0</ele><time>2026-03-23T12:05:22.001Z</time></trkpt><trkpt lat="30.600760782354516" lon="-5.119579126737014"><ele>702.0</ele><time>2026-03-23T12:05:23.001Z</time></trkpt><trkpt lat="30.600701479835212" lon="-5.119771441706087"><ele>701.6666666666666</ele><time>2026-03-23T12:05:24.001Z</time></trkpt><trkpt lat="30.60065374884446" lon="-5.119944464210815"><ele>701.3333333333333</ele><time>2026-03-23T12:05:25.001Z</time></trkpt><trkpt lat="30.60060750577285" lon="-5.120133594670514"><ele>701.0</ele><time>2026-03-23T12:05:26.001Z</time></trkpt><trkpt lat="30.600571680925142" lon="-5.120334899128138"><ele>701.0</ele><time>2026-03-23T12:05:27.001Z</time></trkpt><trkpt lat="30.600545793884613" lon="-5.120548236478644"><ele>701.0</ele><time>2026-03-23T12:05:28.001Z</time></trkpt><trkpt lat="30.60050687889379" lon="-5.120745796175749"><ele>701.0</ele><time>2026-03-23T12:05:29.001Z</time></trkpt><trkpt lat="30.600463958876535" lon="-5.1209324813663795"><ele>701.0</ele><time>2026-03-23T12:05:30.001Z</time></trkpt><trkpt lat="30.600404905030338" lon="-5.121116678596507"><ele>701.0</ele><time>2026-03-23T12:05:31.001Z</time></trkpt><trkpt lat="30.60033133941236" lon="-5.121294647844263"><ele>701.0</ele><time>2026-03-23T12:05:32.001Z</time></trkpt><trkpt lat="30.60024421762993" lon="-5.121457400285925"><ele>701.0</ele><time>2026-03-23T12:05:33.001Z</time></trkpt><trkpt lat="30.600128302747645" lon="-5.12163442290798"><ele>701.0</ele><time>2026-03-23T12:05:34.001Z</time></trkpt><trkpt lat="30.600018495759922" lon="-5.121810461028233"><ele>701.0</ele><time>2026-03-23T12:05:35.001Z</time></trkpt><trkpt lat="30.59992547936462" lon="-5.121983472400913"><ele>701.0</ele><time>2026-03-23T12:05:36.001Z</time></trkpt><trkpt lat="30.5998233691502" lon="-5.122156275368904"><ele>701.0</ele><time>2026-03-23T12:05:37.001Z</time></trkpt><trkpt lat="30.599724137466882" lon="-5.122328799097903"><ele>701.0</ele><time>2026-03-23T12:05:38.001Z</time></trkpt><trkpt lat="30.59962560497724" lon="-5.122502304217382"><ele>701.3333333333333</ele><time>2026-03-23T12:05:39.001Z</time></trkpt><trkpt lat="30.599542985185572" lon="-5.122679110488215"><ele>701.6666666666666</ele><time>2026-03-23T12:05:40.001Z</time></trkpt><trkpt lat="30.599476938651215" lon="-5.122865134975594"><ele>702.0</ele><time>2026-03-23T12:05:41.001Z</time></trkpt><trkpt lat="30.599422288235132" lon="-5.12305366490006"><ele>702.25</ele><time>2026-03-23T12:05:42.001Z</time></trkpt><trkpt lat="30.599360934871417" lon="-5.123230472425002"><ele>702.5</ele><time>2026-03-23T12:05:43.001Z</time></trkpt><trkpt lat="30.599305065822982" lon="-5.1233815217762"><ele>702.75</ele><time>2026-03-23T12:05:44.001Z</time></trkpt><trkpt lat="30.599269396844324" lon="-5.123516007042393"><ele>703.0</ele><time>2026-03-23T12:05:45.001Z</time></trkpt><trkpt lat="30.59926361072098" lon="-5.123645348269147"><ele>703.0</ele><time>2026-03-23T12:05:46.001Z</time></trkpt><trkpt lat="30.599269688482664" lon="-5.1238263050199135"><ele>703.0</ele><time>2026-03-23T12:05:47.001Z</time></trkpt><trkpt lat="30.5992664573484" lon="-5.1240026869553255"><ele>703.0</ele><time>2026-03-23T12:05:48.001Z</time></trkpt><trkpt lat="30.599229627600177" lon="-5.124181201635162"><ele>702.75</ele><time>2026-03-23T12:05:49.001Z</time></trkpt><trkpt lat="30.599177091508338" lon="-5.124350837603106"><ele>702.5</ele><time>2026-03-23T12:05:50.001Z</time></trkpt><trkpt lat="30.599122709294146" lon="-5.124496647975729"><ele>702.25</ele><time>2026-03-23T12:05:51.001Z</time></trkpt><trkpt lat="30.599076019972237" lon="-5.12465992193496"><ele>702.0</ele><time>2026-03-23T12:05:52.001Z</time></trkpt><trkpt lat="30.59904503244444" lon="-5.124832939811779"><ele>702.3333333333334</ele><time>2026-03-23T12:05:53.001Z</time></trkpt><trkpt lat="30.59902148574098" lon="-5.125017087386605"><ele>702.6666666666667</ele><time>2026-03-23T12:05:54.001Z</time></trkpt><trkpt lat="30.598997465473907" lon="-5.125207667722036"><ele>703.0</ele><time>2026-03-23T12:05:55.001Z</time></trkpt><trkpt lat="30.598978841501538" lon="-5.125399825654059"><ele>703.0</ele><time>2026-03-23T12:05:56.001Z</time></trkpt><trkpt lat="30.598955550820147" lon="-5.125593905933226"><ele>703.0</ele><time>2026-03-23T12:05:57.001Z</time></trkpt><trkpt lat="30.59891921867069" lon="-5.125794188745384"><ele>703.0</ele><time>2026-03-23T12:05:58.001Z</time></trkpt><trkpt lat="30.598868634013183" lon="-5.125985954091079"><ele>703.0</ele><time>2026-03-23T12:05:59.001Z</time></trkpt><trkpt lat="30.59879530446083" lon="-5.12617468226824"><ele>703.0</ele><time>2026-03-23T12:06:00.001Z</time></trkpt><trkpt lat="30.598715229492885" lon="-5.126368332803283"><ele>703.0</ele><time>2026-03-23T12:06:01.001Z</time></trkpt><trkpt lat="30.59865529318159" lon="-5.126571992193928"><ele>703.3333333333334</ele><time>2026-03-23T12:06:02.001Z</time></trkpt><trkpt lat="30.598611914525296" lon="-5.126780082226741"><ele>703.6666666666666</ele><time>2026-03-23T12:06:03.001Z</time></trkpt><trkpt lat="30.598575589244682" lon="-5.12699642089144"><ele>704.0</ele><time>2026-03-23T12:06:04.001Z</time></trkpt><trkpt lat="30.59854243096592" lon="-5.127194747941433"><ele>704.0</ele><time>2026-03-23T12:06:05.001Z</time></trkpt><trkpt lat="30.598512187735405" lon="-5.127379447987019"><ele>704.0</ele><time>2026-03-23T12:06:06.001Z</time></trkpt><trkpt lat="30.5984831882879" lon="-5.127548755721162"><ele>704.0</ele><time>2026-03-23T12:06:07.001Z</time></trkpt><trkpt lat="30.598449110136762" lon="-5.12772076954588"><ele>704.0</ele><time>2026-03-23T12:06:08.001Z</time></trkpt><trkpt lat="30.598412397556718" lon="-5.127893496260392"><ele>704.0</ele><time>2026-03-23T12:06:09.001Z</time></trkpt><trkpt lat="30.59837516708844" lon="-5.128065339745854"><ele>704.0</ele><time>2026-03-23T12:06:10.001Z</time></trkpt><trkpt lat="30.5983385818373" lon="-5.128259316546838"><ele>704.3333333333333</ele><time>2026-03-23T12:06:11.001Z</time></trkpt><trkpt lat="30.59830414810236" lon="-5.128460842220798"><ele>704.6666666666666</ele><time>2026-03-23T12:06:12.001Z</time></trkpt><trkpt lat="30.598254271574973" lon="-5.128632975070485"><ele>705.0</ele><time>2026-03-23T12:06:13.001Z</time></trkpt><trkpt lat="30.598188976590933" lon="-5.12880095656997"><ele>705.0</ele><time>2026-03-23T12:06:14.001Z</time></trkpt><trkpt lat="30.598116914088692" lon="-5.12894178377364"><ele>705.0</ele><time>2026-03-23T12:06:15.001Z</time></trkpt><trkpt lat="30.59803561217696" lon="-5.129088420841668"><ele>705.0</ele><time>2026-03-23T12:06:16.001Z</time></trkpt><trkpt lat="30.59796431844505" lon="-5.129234531769874"><ele>705.0</ele><time>2026-03-23T12:06:17.001Z</time></trkpt><trkpt lat="30.59790676532358" lon="-5.1293732770124345"><ele>705.0</ele><time>2026-03-23T12:06:18.001Z</time></trkpt><trkpt lat="30.597871715053675" lon="-5.129513579170914"><ele>705.0</ele><time>2026-03-23T12:06:19.001Z</time></trkpt><trkpt lat="30.59785268734208" lon="-5.129675640753057"><ele>705.0</ele><time>2026-03-23T12:06:20.001Z</time></trkpt><trkpt lat="30.597856064334415" lon="-5.129832245449909"><ele>705.0</ele><time>2026-03-23T12:06:21.001Z</time></trkpt><trkpt lat="30.597862801636477" lon="-5.130019552706301"><ele>704.3333333333334</ele><time>2026-03-23T12:06:22.001Z</time></trkpt><trkpt lat="30.597870987144997" lon="-5.130220135525447"><ele>703.6666666666667</ele><time>2026-03-23T12:06:23.001Z</time></trkpt><trkpt lat="30.597869545002048" lon="-5.130442666494617"><ele>703.0</ele><time>2026-03-23T12:06:24.001Z</time></trkpt><trkpt lat="30.597877263736518" lon="-5.13066801817757"><ele>703.6666666666667</ele><time>2026-03-23T12:06:25.001Z</time></trkpt><trkpt lat="30.59785861561091" lon="-5.130910718349096"><ele>704.3333333333334</ele><time>2026-03-23T12:06:26.001Z</time></trkpt><trkpt lat="30.59783421538212" lon="-5.131163915217213"><ele>705.0</ele><time>2026-03-23T12:06:27.001Z</time></trkpt><trkpt lat="30.597806293653147" lon="-5.1314119536730605"><ele>705.0</ele><time>2026-03-23T12:06:28.001Z</time></trkpt><trkpt lat="30.59777231604339" lon="-5.131652125441336"><ele>705.0</ele><time>2026-03-23T12:06:29.001Z</time></trkpt><trkpt lat="30.59773516363632" lon="-5.1318804560636995"><ele>705.0</ele><time>2026-03-23T12:06:30.001Z</time></trkpt><trkpt lat="30.597688221289406" lon="-5.132090867784873"><ele>705.0</ele><time>2026-03-23T12:06:31Z</time></trkpt><trkpt lat="30.597638670233916" lon="-5.132293383973634"><ele>705.0</ele><time>2026-03-23T12:06:32Z</time></trkpt><trkpt lat="30.597576634829473" lon="-5.132493695118228"><ele>705.0</ele><time>2026-03-23T12:06:33Z</time></trkpt><trkpt lat="30.597499454105243" lon="-5.132704881850086"><ele>704.3333333333334</ele><time>2026-03-23T12:06:34Z</time></trkpt><trkpt lat="30.597403016584394" lon="-5.132918901696782"><ele>703.6666666666667</ele><time>2026-03-23T12:06:35Z</time></trkpt><trkpt lat="30.597290356667962" lon="-5.133162447845429"><ele>703.0</ele><time>2026-03-23T12:06:36Z</time></trkpt><trkpt lat="30.597177906283385" lon="-5.13339691573392"><ele>702.3333333333334</ele><time>2026-03-23T12:06:37Z</time></trkpt><trkpt lat="30.597078283053907" lon="-5.1335976483613015"><ele>701.6666666666666</ele><time>2026-03-23T12:06:38Z</time></trkpt><trkpt lat="30.596986858899538" lon="-5.133784366019802"><ele>701.0</ele><time>2026-03-23T12:06:39Z</time></trkpt><trkpt lat="30.5969109635704" lon="-5.133938522838257"><ele>702.0</ele><time>2026-03-23T12:06:40Z</time></trkpt><trkpt lat="30.596841220921107" lon="-5.134092683166738"><ele>703.0</ele><time>2026-03-23T12:06:41Z</time></trkpt><trkpt lat="30.59678592136083" lon="-5.134247898761112"><ele>704.0</ele><time>2026-03-23T12:06:42Z</time></trkpt><trkpt lat="30.596742474009034" lon="-5.134426901851436"><ele>704.0</ele><time>2026-03-23T12:06:43Z</time></trkpt><trkpt lat="30.596717363873292" lon="-5.134621072107525"><ele>704.0</ele><time>2026-03-23T12:06:44Z</time></trkpt><trkpt lat="30.596685096511052" lon="-5.134824880558453"><ele>704.0</ele><time>2026-03-23T12:06:45Z</time></trkpt><trkpt lat="30.596647027173994" lon="-5.135044852353587"><ele>704.6666666666666</ele><time>2026-03-23T12:06:46Z</time></trkpt><trkpt lat="30.596618069346636" lon="-5.135287950436115"><ele>705.3333333333334</ele><time>2026-03-23T12:06:47Z</time></trkpt><trkpt lat="30.596589836815905" lon="-5.135544503236312"><ele>706.0</ele><time>2026-03-23T12:06:48Z</time></trkpt><trkpt lat="30.596559741031374" lon="-5.135791078555157"><ele>706.0</ele><time>2026-03-23T12:06:49Z</time></trkpt><trkpt lat="30.596526634970285" lon="-5.136032759896154"><ele>706.0</ele><time>2026-03-23T12:06:50Z</time></trkpt><trkpt lat="30.59649385376975" lon="-5.136294246967263"><ele>706.0</ele><time>2026-03-23T12:06:51Z</time></trkpt><trkpt lat="30.596459935556553" lon="-5.136562577827025"><ele>706.0</ele><time>2026-03-23T12:06:52Z</time></trkpt><trkpt lat="30.596430730733555" lon="-5.136825925732634"><ele>706.0</ele><time>2026-03-23T12:06:53Z</time></trkpt><trkpt lat="30.59640494462444" lon="-5.137076556210317"><ele>706.0</ele><time>2026-03-23T12:06:54Z</time></trkpt><trkpt lat="30.596371094094057" lon="-5.13730644181704"><ele>705.6666666666667</ele><time>2026-03-23T12:06:55Z</time></trkpt><trkpt lat="30.596332510953996" lon="-5.137528599745025"><ele>705.3333333333334</ele><time>2026-03-23T12:06:56Z</time></trkpt><trkpt lat="30.596292312351054" lon="-5.137752593578153"><ele>705.0</ele><time>2026-03-23T12:06:57Z</time></trkpt><trkpt lat="30.596249364645047" lon="-5.137981051193713"><ele>705.0</ele><time>2026-03-23T12:06:58Z</time></trkpt><trkpt lat="30.596213689162358" lon="-5.138209605768406"><ele>705.0</ele><time>2026-03-23T12:06:59Z</time></trkpt><trkpt lat="30.596175513912755" lon="-5.138436530315035"><ele>705.0</ele><time>2026-03-23T12:07:00Z</time></trkpt><trkpt lat="30.59613548822301" lon="-5.138673341608079"><ele>705.0</ele><time>2026-03-23T12:07:01Z</time></trkpt><trkpt lat="30.59609191449116" lon="-5.138902782915737"><ele>705.0</ele><time>2026-03-23T12:07:02Z</time></trkpt><trkpt lat="30.596048710616035" lon="-5.13914661093316"><ele>705.0</ele><time>2026-03-23T12:07:03Z</time></trkpt><trkpt lat="30.595992816581955" lon="-5.139403422643245"><ele>705.0</ele><time>2026-03-23T12:07:04Z</time></trkpt><trkpt lat="30.59593674826" lon="-5.139664686745375"><ele>705.0</ele><time>2026-03-23T12:07:05Z</time></trkpt><trkpt lat="30.595895222648988" lon="-5.139914664960702"><ele>705.5</ele><time>2026-03-23T12:07:06Z</time></trkpt><trkpt lat="30.59585374057732" lon="-5.140167969423845"><ele>706.0</ele><time>2026-03-23T12:07:07Z</time></trkpt><trkpt lat="30.595806969230733" lon="-5.140435036106728"><ele>706.0</ele><time>2026-03-23T12:07:08Z</time></trkpt><trkpt lat="30.59573829724226" lon="-5.140702786107797"><ele>706.0</ele><time>2026-03-23T12:07:09Z</time></trkpt><trkpt lat="30.59567193794901" lon="-5.1409787248277325"><ele>706.5</ele><time>2026-03-23T12:07:10Z</time></trkpt><trkpt lat="30.595610502840486" lon="-5.141257209972242"><ele>707.0</ele><time>2026-03-23T12:07:11Z</time></trkpt><trkpt lat="30.595562986933846" lon="-5.141512072329458"><ele>707.5</ele><time>2026-03-23T12:07:12Z</time></trkpt><trkpt lat="30.5955042812987" lon="-5.141772458248966"><ele>708.0</ele><time>2026-03-23T12:07:13Z</time></trkpt><trkpt lat="30.595459019973745" lon="-5.142046521735942"><ele>708.0</ele><time>2026-03-23T12:07:14Z</time></trkpt><trkpt lat="30.595416976929076" lon="-5.14232998470605"><ele>708.0</ele><time>2026-03-23T12:07:15Z</time></trkpt><trkpt lat="30.59536838609599" lon="-5.142616531614356"><ele>708.0</ele><time>2026-03-23T12:07:16Z</time></trkpt><trkpt lat="30.595333776347108" lon="-5.142894979404373"><ele>708.0</ele><time>2026-03-23T12:07:17Z</time></trkpt><trkpt lat="30.595305333628204" lon="-5.143145340868811"><ele>708.0</ele><time>2026-03-23T12:07:18Z</time></trkpt><trkpt lat="30.59527268626406" lon="-5.143365755466537"><ele>708.0</ele><time>2026-03-23T12:07:19Z</time></trkpt><trkpt lat="30.595231208058205" lon="-5.143591403325103"><ele>708.0</ele><time>2026-03-23T12:07:20Z</time></trkpt><trkpt lat="30.595185223042243" lon="-5.143830732618934"><ele>708.0</ele><time>2026-03-23T12:07:21.001Z</time></trkpt><trkpt lat="30.59513239641881" lon="-5.144080465825079"><ele>708.0</ele><time>2026-03-23T12:07:22.001Z</time></trkpt><trkpt lat="30.595083068272153" lon="-5.144314189281471"><ele>708.0</ele><time>2026-03-23T12:07:23.001Z</time></trkpt><trkpt lat="30.595032596118855" lon="-5.144533220127927"><ele>708.0</ele><time>2026-03-23T12:07:24.001Z</time></trkpt><trkpt lat="30.594981409130607" lon="-5.144729360425651"><ele>708.0</ele><time>2026-03-23T12:07:25.001Z</time></trkpt><trkpt lat="30.59493131729132" lon="-5.144903455425716"><ele>708.0</ele><time>2026-03-23T12:07:26.001Z</time></trkpt><trkpt lat="30.59488167148369" lon="-5.145060235630901"><ele>708.0</ele><time>2026-03-23T12:07:27.001Z</time></trkpt><trkpt lat="30.594830943778007" lon="-5.145233965510267"><ele>708.0</ele><time>2026-03-23T12:07:28.001Z</time></trkpt><trkpt lat="30.594775968013572" lon="-5.145418984834093"><ele>708.0</ele><time>2026-03-23T12:07:29.001Z</time></trkpt><trkpt lat="30.59470774158625" lon="-5.145623865592215"><ele>708.3333333333334</ele><time>2026-03-23T12:07:30.001Z</time></trkpt><trkpt lat="30.594636177249516" lon="-5.145835942295731"><ele>708.6666666666667</ele><time>2026-03-23T12:07:31.001Z</time></trkpt><trkpt lat="30.59455723774062" lon="-5.146059889931469"><ele>709.0</ele><time>2026-03-23T12:07:32.001Z</time></trkpt><trkpt lat="30.594472452587365" lon="-5.146303202460917"><ele>709.0</ele><time>2026-03-23T12:07:33.001Z</time></trkpt><trkpt lat="30.594383763755356" lon="-5.146519958756371"><ele>709.0</ele><time>2026-03-23T12:07:34.001Z</time></trkpt><trkpt lat="30.594308449904528" lon="-5.1467172649722075"><ele>709.0</ele><time>2026-03-23T12:07:35.001Z</time></trkpt><trkpt lat="30.59423432793224" lon="-5.1469246662428985"><ele>709.0</ele><time>2026-03-23T12:07:36.001Z</time></trkpt><trkpt lat="30.594178880517735" lon="-5.147134057094707"><ele>709.0</ele><time>2026-03-23T12:07:37.001Z</time></trkpt><trkpt lat="30.59412064808884" lon="-5.147366923266438"><ele>709.0</ele><time>2026-03-23T12:07:38.001Z</time></trkpt><trkpt lat="30.594052869262296" lon="-5.147609641147087"><ele>709.0</ele><time>2026-03-23T12:07:39.001Z</time></trkpt><trkpt lat="30.593984395042945" lon="-5.147875195767551"><ele>709.0</ele><time>2026-03-23T12:07:40.001Z</time></trkpt><trkpt lat="30.593917869547028" lon="-5.148145150219249"><ele>708.3333333333334</ele><time>2026-03-23T12:07:41.001Z</time></trkpt><trkpt lat="30.59385507328886" lon="-5.148391399836119"><ele>707.6666666666666</ele><time>2026-03-23T12:07:42.001Z</time></trkpt><trkpt lat="30.593790317214687" lon="-5.148618719575579"><ele>707.0</ele><time>2026-03-23T12:07:43.001Z</time></trkpt><trkpt lat="30.593727493721754" lon="-5.148852742902161"><ele>708.5</ele><time>2026-03-23T12:07:44.001Z</time></trkpt><trkpt lat="30.59365543540286" lon="-5.149104932746065"><ele>710.0</ele><time>2026-03-23T12:07:45.001Z</time></trkpt><trkpt lat="30.593584744019235" lon="-5.149370293028503"><ele>710.0</ele><time>2026-03-23T12:07:46.001Z</time></trkpt><trkpt lat="30.59352045243883" lon="-5.149614590043381"><ele>710.0</ele><time>2026-03-23T12:07:47.001Z</time></trkpt><trkpt lat="30.593467715283" lon="-5.149827697544538"><ele>710.0</ele><time>2026-03-23T12:07:48.001Z</time></trkpt><trkpt lat="30.593421276354455" lon="-5.150031300160605"><ele>710.0</ele><time>2026-03-23T12:07:49.001Z</time></trkpt><trkpt lat="30.59336592928036" lon="-5.150257463354594"><ele>710.0</ele><time>2026-03-23T12:07:50.001Z</time></trkpt><trkpt lat="30.593315215195023" lon="-5.150491378260217"><ele>710.0</ele><time>2026-03-23T12:07:51.001Z</time></trkpt><trkpt lat="30.593269093241243" lon="-5.1507095672931245"><ele>710.0</ele><time>2026-03-23T12:07:52.001Z</time></trkpt><trkpt lat="30.593225303403287" lon="-5.15090480846462"><ele>710.0</ele><time>2026-03-23T12:07:53.001Z</time></trkpt><trkpt lat="30.593182360571323" lon="-5.151075425690169"><ele>710.0</ele><time>2026-03-23T12:07:54.001Z</time></trkpt><trkpt lat="30.59313947731795" lon="-5.151234125864574"><ele>710.0</ele><time>2026-03-23T12:07:55.001Z</time></trkpt><trkpt lat="30.59310124741701" lon="-5.151413862719639"><ele>710.0</ele><time>2026-03-23T12:07:56.001Z</time></trkpt><trkpt lat="30.59307334938383" lon="-5.151615696611378"><ele>710.0</ele><time>2026-03-23T12:07:57.001Z</time></trkpt><trkpt lat="30.593047203866774" lon="-5.151817735825874"><ele>709.6666666666666</ele><time>2026-03-23T12:07:58.001Z</time></trkpt><trkpt lat="30.593016401490644" lon="-5.152021128414918"><ele>709.3333333333334</ele><time>2026-03-23T12:07:59.001Z</time></trkpt><trkpt lat="30.59298857665913" lon="-5.152223907199067"><ele>709.0</ele><time>2026-03-23T12:08:00.001Z</time></trkpt><trkpt lat="30.592963589379686" lon="-5.152421748221096"><ele>709.0</ele><time>2026-03-23T12:08:01.001Z</time></trkpt><trkpt lat="30.59293372241102" lon="-5.152628011653539"><ele>709.0</ele><time>2026-03-23T12:08:02.001Z</time></trkpt><trkpt lat="30.59289705360511" lon="-5.152829844883718"><ele>709.0</ele><time>2026-03-23T12:08:03.001Z</time></trkpt><trkpt lat="30.592862286200845" lon="-5.153028497326244"><ele>709.3333333333334</ele><time>2026-03-23T12:08:04.001Z</time></trkpt><trkpt lat="30.592830123578253" lon="-5.153220317290298"><ele>709.6666666666666</ele><time>2026-03-23T12:08:05.001Z</time></trkpt><trkpt lat="30.592794900909656" lon="-5.153400040688117"><ele>710.0</ele><time>2026-03-23T12:08:06.001Z</time></trkpt><trkpt lat="30.59275624791197" lon="-5.1535838623437185"><ele>710.0</ele><time>2026-03-23T12:08:07.001Z</time></trkpt><trkpt lat="30.592712091394304" lon="-5.15376548206935"><ele>710.0</ele><time>2026-03-23T12:08:08.001Z</time></trkpt><trkpt lat="30.592662799611297" lon="-5.153946563708608"><ele>710.0</ele><time>2026-03-23T12:08:09.001Z</time></trkpt><trkpt lat="30.592603240639722" lon="-5.154126098425084"><ele>710.3333333333333</ele><time>2026-03-23T12:08:10.001Z</time></trkpt><trkpt lat="30.592533731925098" lon="-5.1543104183084"><ele>710.6666666666666</ele><time>2026-03-23T12:08:11.001Z</time></trkpt><trkpt lat="30.592462178873532" lon="-5.154501278384725"><ele>711.0</ele><time>2026-03-23T12:08:12.001Z</time></trkpt><trkpt lat="30.592386571283228" lon="-5.154693783914662"><ele>711.0</ele><time>2026-03-23T12:08:13.001Z</time></trkpt><trkpt lat="30.592309187539893" lon="-5.154891264117929"><ele>711.0</ele><time>2026-03-23T12:08:14.001Z</time></trkpt><trkpt lat="30.592235858756997" lon="-5.1550799017487385"><ele>711.0</ele><time>2026-03-23T12:08:15.001Z</time></trkpt><trkpt lat="30.592164582783003" lon="-5.1552711461040515"><ele>711.0</ele><time>2026-03-23T12:08:16.001Z</time></trkpt><trkpt lat="30.592094693373703" lon="-5.155476105160175"><ele>711.0</ele><time>2026-03-23T12:08:17.001Z</time></trkpt><trkpt lat="30.59203066677137" lon="-5.155673470925577"><ele>711.0</ele><time>2026-03-23T12:08:18.001Z</time></trkpt><trkpt lat="30.59196501451445" lon="-5.155881529439707"><ele>710.6666666666666</ele><time>2026-03-23T12:08:19.001Z</time></trkpt><trkpt lat="30.59190926162677" lon="-5.156079647874753"><ele>710.3333333333333</ele><time>2026-03-23T12:08:20.001Z</time></trkpt><trkpt lat="30.591852503425123" lon="-5.156281129736458"><ele>710.0</ele><time>2026-03-23T12:08:21.001Z</time></trkpt><trkpt lat="30.591809034892368" lon="-5.156502479543829"><ele>710.6666666666666</ele><time>2026-03-23T12:08:22.001Z</time></trkpt><trkpt lat="30.591780918884165" lon="-5.156728124496054"><ele>711.3333333333334</ele><time>2026-03-23T12:08:23.001Z</time></trkpt><trkpt lat="30.59176284993468" lon="-5.156950495601273"><ele>712.0</ele><time>2026-03-23T12:08:24.001Z</time></trkpt><trkpt lat="30.591741636528596" lon="-5.157167319840029"><ele>712.0</ele><time>2026-03-23T12:08:25.001Z</time></trkpt><trkpt lat="30.591721930463148" lon="-5.1573696576573305"><ele>712.0</ele><time>2026-03-23T12:08:26.001Z</time></trkpt><trkpt lat="30.591697405993923" lon="-5.157556160081381"><ele>712.0</ele><time>2026-03-23T12:08:27.001Z</time></trkpt><trkpt lat="30.59165171088382" lon="-5.1577576978670345"><ele>712.0</ele><time>2026-03-23T12:08:28.001Z</time></trkpt><trkpt lat="30.59159805475886" lon="-5.15794773700726"><ele>712.0</ele><time>2026-03-23T12:08:29.001Z</time></trkpt><trkpt lat="30.591526231073065" lon="-5.158133135633826"><ele>712.0</ele><time>2026-03-23T12:08:30.001Z</time></trkpt><trkpt lat="30.59142672457696" lon="-5.158321093599313"><ele>711.3333333333334</ele><time>2026-03-23T12:08:31.001Z</time></trkpt><trkpt lat="30.591306132602487" lon="-5.158486253241194"><ele>710.6666666666666</ele><time>2026-03-23T12:08:32.001Z</time></trkpt><trkpt lat="30.59113695898609" lon="-5.158662607419514"><ele>710.0</ele><time>2026-03-23T12:08:33.001Z</time></trkpt><trkpt lat="30.59094650295644" lon="-5.158839962423381"><ele>710.0</ele><time>2026-03-23T12:08:34.001Z</time></trkpt><trkpt lat="30.59077002174031" lon="-5.1590207315099486"><ele>710.0</ele><time>2026-03-23T12:08:35.001Z</time></trkpt><trkpt lat="30.590617633874565" lon="-5.159199563522451"><ele>710.6666666666666</ele><time>2026-03-23T12:08:36.001Z</time></trkpt><trkpt lat="30.59047136853246" lon="-5.159389584055034"><ele>711.3333333333334</ele><time>2026-03-23T12:08:37Z</time></trkpt><trkpt lat="30.590330531197445" lon="-5.159573721269609"><ele>712.0</ele><time>2026-03-23T12:08:38Z</time></trkpt><trkpt lat="30.590222171139317" lon="-5.159739867662876"><ele>711.6666666666667</ele><time>2026-03-23T12:08:39Z</time></trkpt><trkpt lat="30.59012631625548" lon="-5.159904599792765"><ele>711.3333333333334</ele><time>2026-03-23T12:08:40Z</time></trkpt><trkpt lat="30.59003667360018" lon="-5.160071010496682"><ele>711.0</ele><time>2026-03-23T12:08:41Z</time></trkpt><trkpt lat="30.589946435921604" lon="-5.160261831263917"><ele>711.0</ele><time>2026-03-23T12:08:42Z</time></trkpt><trkpt lat="30.58985442241095" lon="-5.160466439906202"><ele>711.0</ele><time>2026-03-23T12:08:43Z</time></trkpt><trkpt lat="30.589782005080206" lon="-5.160646138482826"><ele>711.0</ele><time>2026-03-23T12:08:44Z</time></trkpt><trkpt lat="30.589722205802573" lon="-5.160794145019767"><ele>711.0</ele><time>2026-03-23T12:08:45Z</time></trkpt><trkpt lat="30.58965822679269" lon="-5.160937455694726"><ele>711.0</ele><time>2026-03-23T12:08:46Z</time></trkpt><trkpt lat="30.589606684931134" lon="-5.161061949585831"><ele>711.0</ele><time>2026-03-23T12:08:47Z</time></trkpt><trkpt lat="30.5895657805773" lon="-5.1611836471754975"><ele>711.0</ele><time>2026-03-23T12:08:48Z</time></trkpt><trkpt lat="30.58951748768483" lon="-5.161322356682349"><ele>711.0</ele><time>2026-03-23T12:08:49Z</time></trkpt><trkpt lat="30.589454276752832" lon="-5.161482232307431"><ele>711.0</ele><time>2026-03-23T12:08:50Z</time></trkpt><trkpt lat="30.589393188240987" lon="-5.161660448282632"><ele>711.0</ele><time>2026-03-23T12:08:51Z</time></trkpt><trkpt lat="30.589341662123612" lon="-5.161834949536521"><ele>711.3333333333334</ele><time>2026-03-23T12:08:52Z</time></trkpt><trkpt lat="30.589280777111586" lon="-5.16202022626219"><ele>711.6666666666667</ele><time>2026-03-23T12:08:53Z</time></trkpt><trkpt lat="30.589220598486236" lon="-5.16220643673321"><ele>712.0</ele><time>2026-03-23T12:08:54Z</time></trkpt><trkpt lat="30.589162752656115" lon="-5.162385239307535"><ele>712.6666666666667</ele><time>2026-03-23T12:08:55Z</time></trkpt><trkpt lat="30.58910749944972" lon="-5.162570958832944"><ele>713.3333333333334</ele><time>2026-03-23T12:08:56Z</time></trkpt><trkpt lat="30.589053152821258" lon="-5.162754944043058"><ele>714.0</ele><time>2026-03-23T12:08:57Z</time></trkpt><trkpt lat="30.589002312755554" lon="-5.162932878673523"><ele>714.0</ele><time>2026-03-23T12:08:58Z</time></trkpt><trkpt lat="30.588966532161212" lon="-5.163117833679203"><ele>714.0</ele><time>2026-03-23T12:08:59Z</time></trkpt><trkpt lat="30.588924143447073" lon="-5.163310240459549"><ele>714.0</ele><time>2026-03-23T12:09:00Z</time></trkpt><trkpt lat="30.588878598013487" lon="-5.16351849983823"><ele>714.0</ele><time>2026-03-23T12:09:01Z</time></trkpt><trkpt lat="30.588831834538514" lon="-5.163739722985132"><ele>714.0</ele><time>2026-03-23T12:09:02Z</time></trkpt><trkpt lat="30.58871401290542" lon="-5.163929995325397"><ele>714.0</ele><time>2026-03-23T12:09:03Z</time></trkpt><trkpt lat="30.588625100868132" lon="-5.164147228011291"><ele>714.3333333333334</ele><time>2026-03-23T12:09:04Z</time></trkpt><trkpt lat="30.588543960016644" lon="-5.164378838899093"><ele>714.6666666666667</ele><time>2026-03-23T12:09:05Z</time></trkpt><trkpt lat="30.588461181890615" lon="-5.164615019788335"><ele>715.0</ele><time>2026-03-23T12:09:06Z</time></trkpt><trkpt lat="30.588373608900085" lon="-5.164864381451042"><ele>714.0</ele><time>2026-03-23T12:09:07Z</time></trkpt><trkpt lat="30.588284855251494" lon="-5.165117104989304"><ele>713.0</ele><time>2026-03-23T12:09:08Z</time></trkpt><trkpt lat="30.588196677772117" lon="-5.165370323145764"><ele>713.0</ele><time>2026-03-23T12:09:09Z</time></trkpt><trkpt lat="30.58810278967055" lon="-5.165639354096637"><ele>713.0</ele><time>2026-03-23T12:09:10Z</time></trkpt><trkpt lat="30.58801823583098" lon="-5.165880172744794"><ele>713.6666666666666</ele><time>2026-03-23T12:09:11Z</time></trkpt><trkpt lat="30.58794211831364" lon="-5.166098454906265"><ele>714.3333333333334</ele><time>2026-03-23T12:09:12Z</time></trkpt><trkpt lat="30.587867281284225" lon="-5.166312824506917"><ele>715.0</ele><time>2026-03-23T12:09:13Z</time></trkpt><trkpt lat="30.58779319483818" lon="-5.16652467722885"><ele>715.3333333333334</ele><time>2026-03-23T12:09:14Z</time></trkpt><trkpt lat="30.587718676622043" lon="-5.166738807225392"><ele>715.6666666666666</ele><time>2026-03-23T12:09:15Z</time></trkpt><trkpt lat="30.58764585659044" lon="-5.166946706382883"><ele>716.0</ele><time>2026-03-23T12:09:16Z</time></trkpt><trkpt lat="30.5875738080111" lon="-5.167151470375001"><ele>716.0</ele><time>2026-03-23T12:09:17Z</time></trkpt><trkpt lat="30.58750320493832" lon="-5.167353436926858"><ele>716.0</ele><time>2026-03-23T12:09:18Z</time></trkpt><trkpt lat="30.587434351658413" lon="-5.167549852316286"><ele>716.0</ele><time>2026-03-23T12:09:19.001Z</time></trkpt><trkpt lat="30.587367284207804" lon="-5.1677414838114695"><ele>716.0</ele><time>2026-03-23T12:09:20.001Z</time></trkpt><trkpt lat="30.587301049880047" lon="-5.16793057676802"><ele>716.0</ele><time>2026-03-23T12:09:21.001Z</time></trkpt><trkpt lat="30.58723386701317" lon="-5.168122377744582"><ele>716.0</ele><time>2026-03-23T12:09:22.001Z</time></trkpt><trkpt lat="30.58716659564745" lon="-5.168314431367291"><ele>715.6666666666666</ele><time>2026-03-23T12:09:23.001Z</time></trkpt><trkpt lat="30.587099233177753" lon="-5.168506745110164"><ele>715.3333333333334</ele><time>2026-03-23T12:09:24.001Z</time></trkpt><trkpt lat="30.58702799618497" lon="-5.16871190312642"><ele>715.0</ele><time>2026-03-23T12:09:25.001Z</time></trkpt><trkpt lat="30.586953120999627" lon="-5.168925469736767"><ele>714.6666666666667</ele><time>2026-03-23T12:09:26.001Z</time></trkpt><trkpt lat="30.586873459861348" lon="-5.169152687429832"><ele>714.3333333333334</ele><time>2026-03-23T12:09:27.001Z</time></trkpt><trkpt lat="30.586790153896256" lon="-5.169391732469233"><ele>714.0</ele><time>2026-03-23T12:09:28.001Z</time></trkpt><trkpt lat="30.586704492581603" lon="-5.16963770174734"><ele>714.5</ele><time>2026-03-23T12:09:29.001Z</time></trkpt><trkpt lat="30.586614935712173" lon="-5.169892748902277"><ele>715.0</ele><time>2026-03-23T12:09:30.001Z</time></trkpt><trkpt lat="30.586533347982648" lon="-5.170125434218728"><ele>715.0</ele><time>2026-03-23T12:09:31.001Z</time></trkpt><trkpt lat="30.58645545433536" lon="-5.1703479495429745"><ele>715.0</ele><time>2026-03-23T12:09:32.001Z</time></trkpt><trkpt lat="30.586374287834712" lon="-5.170579743733475"><ele>715.0</ele><time>2026-03-23T12:09:33.001Z</time></trkpt><trkpt lat="30.58629313742347" lon="-5.170811491141275"><ele>715.0</ele><time>2026-03-23T12:09:34.001Z</time></trkpt><trkpt lat="30.586218087051723" lon="-5.17111314260229"><ele>715.0</ele><time>2026-03-23T12:09:35.001Z</time></trkpt><trkpt lat="30.586173656335333" lon="-5.17135573483142"><ele>715.3333333333334</ele><time>2026-03-23T12:09:36.001Z</time></trkpt><trkpt lat="30.586130856426827" lon="-5.171589422833046"><ele>715.6666666666666</ele><time>2026-03-23T12:09:37.001Z</time></trkpt><trkpt lat="30.586089880682366" lon="-5.17181315110397"><ele>716.0</ele><time>2026-03-23T12:09:38.001Z</time></trkpt><trkpt lat="30.58604965018504" lon="-5.172033307551824"><ele>716.0</ele><time>2026-03-23T12:09:39.001Z</time></trkpt><trkpt lat="30.58601054182928" lon="-5.172247359435763"><ele>716.0</ele><time>2026-03-23T12:09:40.001Z</time></trkpt><trkpt lat="30.58597554416052" lon="-5.172438014399444"><ele>716.0</ele><time>2026-03-23T12:09:41.001Z</time></trkpt><trkpt lat="30.585942439096517" lon="-5.172617330176033"><ele>716.6666666666666</ele><time>2026-03-23T12:09:42.001Z</time></trkpt><trkpt lat="30.58590784652753" lon="-5.1728052157344795"><ele>717.3333333333334</ele><time>2026-03-23T12:09:43.001Z</time></trkpt><trkpt lat="30.585886888710522" lon="-5.173006080114822"><ele>718.0</ele><time>2026-03-23T12:09:44.001Z</time></trkpt><trkpt lat="30.58582062103516" lon="-5.1731911076853825"><ele>718.0</ele><time>2026-03-23T12:09:45.001Z</time></trkpt><trkpt lat="30.5858008251531" lon="-5.17339022078345"><ele>718.0</ele><time>2026-03-23T12:09:46.001Z</time></trkpt><trkpt lat="30.58563751995451" lon="-5.173568281745281"><ele>718.0</ele><time>2026-03-23T12:09:47.001Z</time></trkpt><trkpt lat="30.585514804163893" lon="-5.1737715110534115"><ele>718.0</ele><time>2026-03-23T12:09:48.001Z</time></trkpt><trkpt lat="30.585400886261077" lon="-5.173946370722735"><ele>718.0</ele><time>2026-03-23T12:09:49.001Z</time></trkpt><trkpt lat="30.585305860437376" lon="-5.174102125550381"><ele>718.0</ele><time>2026-03-23T12:09:50.001Z</time></trkpt><trkpt lat="30.58521430467383" lon="-5.1742803025051405"><ele>717.6666666666667</ele><time>2026-03-23T12:09:51.001Z</time></trkpt><trkpt lat="30.585123684873594" lon="-5.174456315730629"><ele>717.3333333333334</ele><time>2026-03-23T12:09:52.001Z</time></trkpt><trkpt lat="30.585031476059523" lon="-5.174641046630007"><ele>717.0</ele><time>2026-03-23T12:09:53.001Z</time></trkpt><trkpt lat="30.584946644448195" lon="-5.174831204429348"><ele>716.6666666666666</ele><time>2026-03-23T12:09:54.001Z</time></trkpt><trkpt lat="30.58487433603327" lon="-5.175023883710212"><ele>716.3333333333333</ele><time>2026-03-23T12:09:55.001Z</time></trkpt><trkpt lat="30.58481741942417" lon="-5.17521303080898"><ele>716.0</ele><time>2026-03-23T12:09:56.001Z</time></trkpt><trkpt lat="30.584765750074446" lon="-5.175382473325095"><ele>716.0</ele><time>2026-03-23T12:09:57.001Z</time></trkpt><trkpt lat="30.584709121677633" lon="-5.175535850532352"><ele>716.0</ele><time>2026-03-23T12:09:58.001Z</time></trkpt><trkpt lat="30.58463600089925" lon="-5.1756954435498255"><ele>716.0</ele><time>2026-03-23T12:09:59.001Z</time></trkpt><trkpt lat="30.58455508180116" lon="-5.175862075864984"><ele>716.6666666666666</ele><time>2026-03-23T12:10:00.001Z</time></trkpt><trkpt lat="30.584474308286687" lon="-5.176047835850813"><ele>717.3333333333334</ele><time>2026-03-23T12:10:01.001Z</time></trkpt><trkpt lat="30.58440386995198" lon="-5.176236258662844"><ele>718.0</ele><time>2026-03-23T12:10:02.001Z</time></trkpt><trkpt lat="30.584348250558193" lon="-5.176429871994088"><ele>718.6666666666667</ele><time>2026-03-23T12:10:03.001Z</time></trkpt><trkpt lat="30.584281544296548" lon="-5.176634073228589"><ele>719.3333333333334</ele><time>2026-03-23T12:10:04.001Z</time></trkpt><trkpt lat="30.584200334837995" lon="-5.176829028784374"><ele>720.0</ele><time>2026-03-23T12:10:05.001Z</time></trkpt><trkpt lat="30.58411924163092" lon="-5.177028233636241"><ele>720.0</ele><time>2026-03-23T12:10:06.001Z</time></trkpt><trkpt lat="30.58405227868503" lon="-5.177219602699881"><ele>720.0</ele><time>2026-03-23T12:10:07.001Z</time></trkpt><trkpt lat="30.58399002397133" lon="-5.177421256390789"><ele>720.0</ele><time>2026-03-23T12:10:08.001Z</time></trkpt><trkpt lat="30.583934515416523" lon="-5.177628111208191"><ele>719.6666666666666</ele><time>2026-03-23T12:10:09.001Z</time></trkpt><trkpt lat="30.583875455501328" lon="-5.177837527746529"><ele>719.3333333333333</ele><time>2026-03-23T12:10:10.001Z</time></trkpt><trkpt lat="30.58383513420255" lon="-5.17804489329044"><ele>719.0</ele><time>2026-03-23T12:10:11.001Z</time></trkpt><trkpt lat="30.583787948905684" lon="-5.178239518517661"><ele>719.0</ele><time>2026-03-23T12:10:12.001Z</time></trkpt><trkpt lat="30.583724474482914" lon="-5.178421767338703"><ele>719.0</ele><time>2026-03-23T12:10:13.001Z</time></trkpt><trkpt lat="30.583643029748146" lon="-5.178608633647977"><ele>719.0</ele><time>2026-03-23T12:10:14.001Z</time></trkpt><trkpt lat="30.58356572832803" lon="-5.17879408299553"><ele>719.3333333333333</ele><time>2026-03-23T12:10:15.001Z</time></trkpt><trkpt lat="30.583473988463044" lon="-5.178997414219298"><ele>719.6666666666666</ele><time>2026-03-23T12:10:16.001Z</time></trkpt><trkpt lat="30.583397383257562" lon="-5.179192902127024"><ele>720.0</ele><time>2026-03-23T12:10:17.001Z</time></trkpt><trkpt lat="30.58331579605183" lon="-5.179381863307776"><ele>720.0</ele><time>2026-03-23T12:10:18.001Z</time></trkpt><trkpt lat="30.583241287833484" lon="-5.179566538673963"><ele>720.0</ele><time>2026-03-23T12:10:19.001Z</time></trkpt><trkpt lat="30.583170275583896" lon="-5.179755299879908"><ele>720.0</ele><time>2026-03-23T12:10:20.001Z</time></trkpt><trkpt lat="30.583096061821628" lon="-5.1799511601914885"><ele>720.0</ele><time>2026-03-23T12:10:21.001Z</time></trkpt><trkpt lat="30.58302293896791" lon="-5.180140677675949"><ele>720.0</ele><time>2026-03-23T12:10:22.001Z</time></trkpt><trkpt lat="30.582945056408896" lon="-5.1803243993947135"><ele>720.0</ele><time>2026-03-23T12:10:23.001Z</time></trkpt><trkpt lat="30.582860663886173" lon="-5.180511219330223"><ele>720.3333333333334</ele><time>2026-03-23T12:10:24.001Z</time></trkpt><trkpt lat="30.582785030109235" lon="-5.180703445963088"><ele>720.6666666666667</ele><time>2026-03-23T12:10:25.001Z</time></trkpt><trkpt lat="30.582715159415983" lon="-5.18089869621887"><ele>721.0</ele><time>2026-03-23T12:10:26.001Z</time></trkpt><trkpt lat="30.582658747973024" lon="-5.181096817857362"><ele>721.0</ele><time>2026-03-23T12:10:27.001Z</time></trkpt><trkpt lat="30.582601054562414" lon="-5.181265575923244"><ele>721.0</ele><time>2026-03-23T12:10:28.001Z</time></trkpt><trkpt lat="30.58255292899816" lon="-5.1814395044869155"><ele>721.0</ele><time>2026-03-23T12:10:29.001Z</time></trkpt><trkpt lat="30.58250170352532" lon="-5.181606525293757"><ele>721.3333333333334</ele><time>2026-03-23T12:10:30.001Z</time></trkpt><trkpt lat="30.582450985829908" lon="-5.181767662158317"><ele>721.6666666666666</ele><time>2026-03-23T12:10:31.001Z</time></trkpt><trkpt lat="30.582402542440814" lon="-5.1819410039905796"><ele>722.0</ele><time>2026-03-23T12:10:32.001Z</time></trkpt><trkpt lat="30.58234968549646" lon="-5.182105534330924"><ele>722.0</ele><time>2026-03-23T12:10:33.001Z</time></trkpt><trkpt lat="30.58229175399249" lon="-5.182273642139635"><ele>722.0</ele><time>2026-03-23T12:10:34.001Z</time></trkpt><trkpt lat="30.58223528626624" lon="-5.182441212147061"><ele>722.0</ele><time>2026-03-23T12:10:35.001Z</time></trkpt><trkpt lat="30.582172977542147" lon="-5.182612057858128"><ele>722.3333333333333</ele><time>2026-03-23T12:10:36.001Z</time></trkpt><trkpt lat="30.582105928088886" lon="-5.182782331433335"><ele>722.6666666666666</ele><time>2026-03-23T12:10:37.001Z</time></trkpt><trkpt lat="30.582021562005387" lon="-5.182961700102408"><ele>723.0</ele><time>2026-03-23T12:10:38.001Z</time></trkpt><trkpt lat="30.581925727454486" lon="-5.183155464883003"><ele>722.0</ele><time>2026-03-23T12:10:39.001Z</time></trkpt><trkpt lat="30.58181171249371" lon="-5.183368431508588"><ele>721.0</ele><time>2026-03-23T12:10:40.001Z</time></trkpt><trkpt lat="30.581704947363338" lon="-5.183582880734926"><ele>720.0</ele><time>2026-03-23T12:10:41.001Z</time></trkpt><trkpt lat="30.581588769301256" lon="-5.183803310703621"><ele>720.0</ele><time>2026-03-23T12:10:42.001Z</time></trkpt><trkpt lat="30.581480038977304" lon="-5.184012467223581"><ele>720.0</ele><time>2026-03-23T12:10:43.001Z</time></trkpt><trkpt lat="30.581385310912808" lon="-5.184213623175879"><ele>720.0</ele><time>2026-03-23T12:10:44.001Z</time></trkpt><trkpt lat="30.58129351392581" lon="-5.184404569731882"><ele>719.6666666666666</ele><time>2026-03-23T12:10:45.001Z</time></trkpt><trkpt lat="30.58121523052714" lon="-5.184571839455266"><ele>719.3333333333333</ele><time>2026-03-23T12:10:46.001Z</time></trkpt><trkpt lat="30.5811378829093" lon="-5.184733660591514"><ele>719.0</ele><time>2026-03-23T12:10:47.001Z</time></trkpt><trkpt lat="30.581067187596076" lon="-5.184912277285115"><ele>719.6666666666666</ele><time>2026-03-23T12:10:48.001Z</time></trkpt><trkpt lat="30.580994996002413" lon="-5.185105477660447"><ele>720.3333333333334</ele><time>2026-03-23T12:10:49.001Z</time></trkpt><trkpt lat="30.58092698401482" lon="-5.185315777448984"><ele>721.0</ele><time>2026-03-23T12:10:50.001Z</time></trkpt><trkpt lat="30.580867709503696" lon="-5.185536903186312"><ele>721.3333333333334</ele><time>2026-03-23T12:10:51.001Z</time></trkpt><trkpt lat="30.58080931095987" lon="-5.185749911091016"><ele>721.6666666666666</ele><time>2026-03-23T12:10:52.001Z</time></trkpt><trkpt lat="30.58075298239394" lon="-5.185961939200722"><ele>722.0</ele><time>2026-03-23T12:10:53.001Z</time></trkpt><trkpt lat="30.58070600100917" lon="-5.186185056178086"><ele>722.0</ele><time>2026-03-23T12:10:54.001Z</time></trkpt><trkpt lat="30.580671908278283" lon="-5.186412210024371"><ele>722.0</ele><time>2026-03-23T12:10:55Z</time></trkpt><trkpt lat="30.580645100303332" lon="-5.186664443087822"><ele>722.0</ele><time>2026-03-23T12:10:56Z</time></trkpt><trkpt lat="30.580601639079944" lon="-5.186911575864953"><ele>723.0</ele><time>2026-03-23T12:10:57Z</time></trkpt><trkpt lat="30.58063107376058" lon="-5.187194984558055"><ele>724.0</ele><time>2026-03-23T12:10:58Z</time></trkpt><trkpt lat="30.580551992299874" lon="-5.187424553876334"><ele>724.0</ele><time>2026-03-23T12:10:59Z</time></trkpt><trkpt lat="30.580477659747935" lon="-5.187640337571838"><ele>724.0</ele><time>2026-03-23T12:11:00Z</time></trkpt><trkpt lat="30.58039177266792" lon="-5.187853407080803"><ele>724.0</ele><time>2026-03-23T12:11:01Z</time></trkpt><trkpt lat="30.58032404621757" lon="-5.188074062815388"><ele>723.3333333333334</ele><time>2026-03-23T12:11:02Z</time></trkpt><trkpt lat="30.580262693800066" lon="-5.1882798085231085"><ele>722.6666666666666</ele><time>2026-03-23T12:11:03Z</time></trkpt><trkpt lat="30.580190820188896" lon="-5.188494344032324"><ele>722.0</ele><time>2026-03-23T12:11:04Z</time></trkpt><trkpt lat="30.580145137219045" lon="-5.188740863695437"><ele>722.0</ele><time>2026-03-23T12:11:05Z</time></trkpt><trkpt lat="30.580098532531544" lon="-5.188993517667089"><ele>722.0</ele><time>2026-03-23T12:11:06Z</time></trkpt><trkpt lat="30.580046747531387" lon="-5.189274146449205"><ele>722.3333333333333</ele><time>2026-03-23T12:11:07Z</time></trkpt><trkpt lat="30.57999641827936" lon="-5.189546886670201"><ele>722.6666666666666</ele><time>2026-03-23T12:11:08Z</time></trkpt><trkpt lat="30.5799527192312" lon="-5.189783697049983"><ele>723.0</ele><time>2026-03-23T12:11:09Z</time></trkpt><trkpt lat="30.579912203266378" lon="-5.1900032577758015"><ele>723.3333333333334</ele><time>2026-03-23T12:11:10Z</time></trkpt><trkpt lat="30.579873700751072" lon="-5.1902121127507925"><ele>723.6666666666667</ele><time>2026-03-23T12:11:11Z</time></trkpt><trkpt lat="30.579834693311913" lon="-5.190423085793347"><ele>724.0</ele><time>2026-03-23T12:11:12Z</time></trkpt><trkpt lat="30.579796421298695" lon="-5.1906299651058365"><ele>724.6666666666667</ele><time>2026-03-23T12:11:13Z</time></trkpt><trkpt lat="30.57975914300586" lon="-5.190831472638497"><ele>725.3333333333334</ele><time>2026-03-23T12:11:14Z</time></trkpt><trkpt lat="30.579722538259478" lon="-5.1910289797399525"><ele>726.0</ele><time>2026-03-23T12:11:15Z</time></trkpt><trkpt lat="30.579685559081845" lon="-5.1912274395083"><ele>726.0</ele><time>2026-03-23T12:11:16Z</time></trkpt><trkpt lat="30.579646070547938" lon="-5.191442492344482"><ele>726.0</ele><time>2026-03-23T12:11:17Z</time></trkpt><trkpt lat="30.579601424795456" lon="-5.191683926553382"><ele>726.0</ele><time>2026-03-23T12:11:18Z</time></trkpt><trkpt lat="30.579551797137807" lon="-5.191951008281522"><ele>726.0</ele><time>2026-03-23T12:11:19Z</time></trkpt><trkpt lat="30.579535109708097" lon="-5.192257615604968"><ele>726.0</ele><time>2026-03-23T12:11:20Z</time></trkpt><trkpt lat="30.579519796476095" lon="-5.1925484171828655"><ele>726.6666666666666</ele><time>2026-03-23T12:11:21Z</time></trkpt><trkpt lat="30.579505810022393" lon="-5.192806536387717"><ele>727.3333333333333</ele><time>2026-03-23T12:11:22Z</time></trkpt><trkpt lat="30.57949326296348" lon="-5.193021694683992"><ele>728.0</ele><time>2026-03-23T12:11:23Z</time></trkpt><trkpt lat="30.57943903923836" lon="-5.193233851137948"><ele>728.3333333333333</ele><time>2026-03-23T12:11:24Z</time></trkpt><trkpt lat="30.579398725904568" lon="-5.193436699749782"><ele>728.6666666666666</ele><time>2026-03-23T12:11:25Z</time></trkpt><trkpt lat="30.57935671238982" lon="-5.193643507210951"><ele>729.0</ele><time>2026-03-23T12:11:26Z</time></trkpt><trkpt lat="30.57931267662033" lon="-5.193860272673431"><ele>728.0</ele><time>2026-03-23T12:11:27.001Z</time></trkpt><trkpt lat="30.579264400997435" lon="-5.194098057899436"><ele>727.0</ele><time>2026-03-23T12:11:28.001Z</time></trkpt><trkpt lat="30.579213158680968" lon="-5.194353076037742"><ele>726.0</ele><time>2026-03-23T12:11:29.001Z</time></trkpt><trkpt lat="30.57916326363925" lon="-5.194601506070642"><ele>726.6666666666666</ele><time>2026-03-23T12:11:30.001Z</time></trkpt><trkpt lat="30.57912840159446" lon="-5.1948406853342375"><ele>727.3333333333333</ele><time>2026-03-23T12:11:31.001Z</time></trkpt><trkpt lat="30.57907328802512" lon="-5.195081133377938"><ele>728.0</ele><time>2026-03-23T12:11:32.001Z</time></trkpt><trkpt lat="30.579015926019046" lon="-5.19533378808235"><ele>728.5</ele><time>2026-03-23T12:11:33.001Z</time></trkpt><trkpt lat="30.57864083353289" lon="-5.195440105397532"><ele>729.0</ele><time>2026-03-23T12:11:34.001Z</time></trkpt><trkpt lat="30.578571548032055" lon="-5.195656187317535"><ele>729.3333333333334</ele><time>2026-03-23T12:11:35.001Z</time></trkpt><trkpt lat="30.578503197785086" lon="-5.195870509363642"><ele>729.6666666666667</ele><time>2026-03-23T12:11:36.001Z</time></trkpt><trkpt lat="30.57843550635773" lon="-5.196084751870256"><ele>730.0</ele><time>2026-03-23T12:11:37.001Z</time></trkpt><trkpt lat="30.578367797158375" lon="-5.196297977638177"><ele>730.0</ele><time>2026-03-23T12:11:38.001Z</time></trkpt><trkpt lat="30.578294120019812" lon="-5.196529309268004"><ele>730.0</ele><time>2026-03-23T12:11:39.001Z</time></trkpt><trkpt lat="30.57822232865021" lon="-5.19675466805244"><ele>730.0</ele><time>2026-03-23T12:11:40.001Z</time></trkpt><trkpt lat="30.578179003458796" lon="-5.196968919064017"><ele>729.0</ele><time>2026-03-23T12:11:41.001Z</time></trkpt><trkpt lat="30.57856941159388" lon="-5.197335969701958"><ele>729.0</ele><time>2026-03-23T12:11:42.001Z</time></trkpt><trkpt lat="30.578548877273057" lon="-5.19752001573574"><ele>729.0</ele><time>2026-03-23T12:11:43.001Z</time></trkpt><trkpt lat="30.57856119781584" lon="-5.19767727765856"><ele>729.0</ele><time>2026-03-23T12:11:44.001Z</time></trkpt><trkpt lat="30.578588828913954" lon="-5.197867259563296"><ele>729.0</ele><time>2026-03-23T12:11:45.001Z</time></trkpt><trkpt lat="30.578626171941206" lon="-5.198080738711766"><ele>729.0</ele><time>2026-03-23T12:11:46.001Z</time></trkpt><trkpt lat="30.578646767021667" lon="-5.198287593145366"><ele>729.0</ele><time>2026-03-23T12:11:47.001Z</time></trkpt><trkpt lat="30.578644911876438" lon="-5.19851051168145"><ele>728.6666666666666</ele><time>2026-03-23T12:11:48.001Z</time></trkpt><trkpt lat="30.57862823343713" lon="-5.1987305795476155"><ele>728.3333333333333</ele><time>2026-03-23T12:11:49.001Z</time></trkpt><trkpt lat="30.578594573955677" lon="-5.198962974362019"><ele>728.0</ele><time>2026-03-23T12:11:50.001Z</time></trkpt><trkpt lat="30.578538370939405" lon="-5.199207047035402"><ele>728.6666666666666</ele><time>2026-03-23T12:11:51.001Z</time></trkpt><trkpt lat="30.578478960495" lon="-5.199429795301789"><ele>729.3333333333334</ele><time>2026-03-23T12:11:52.001Z</time></trkpt><trkpt lat="30.57843264170379" lon="-5.199606807394029"><ele>730.0</ele><time>2026-03-23T12:11:53.001Z</time></trkpt><trkpt lat="30.578392935782553" lon="-5.199773194019849"><ele>730.3333333333334</ele><time>2026-03-23T12:11:54.001Z</time></trkpt><trkpt lat="30.57835556228638" lon="-5.199957993152259"><ele>730.6666666666666</ele><time>2026-03-23T12:11:55.001Z</time></trkpt><trkpt lat="30.578318548199963" lon="-5.200149976226024"><ele>731.0</ele><time>2026-03-23T12:11:56.001Z</time></trkpt><trkpt lat="30.57826802241657" lon="-5.2003328352710545"><ele>731.0</ele><time>2026-03-23T12:11:57.001Z</time></trkpt><trkpt lat="30.57821457114551" lon="-5.200518721942576"><ele>731.0</ele><time>2026-03-23T12:11:58.001Z</time></trkpt><trkpt lat="30.578159723461546" lon="-5.20068801496399"><ele>731.0</ele><time>2026-03-23T12:11:59.001Z</time></trkpt><trkpt lat="30.578109969329066" lon="-5.200843203831732"><ele>729.6666666666666</ele><time>2026-03-23T12:12:00.001Z</time></trkpt><trkpt lat="30.57807449862279" lon="-5.201016572919802"><ele>728.3333333333334</ele><time>2026-03-23T12:12:01.001Z</time></trkpt><trkpt lat="30.578058038927544" lon="-5.2012084361387325"><ele>727.0</ele><time>2026-03-23T12:12:02.001Z</time></trkpt><trkpt lat="30.578040481178476" lon="-5.201412826848798"><ele>728.0</ele><time>2026-03-23T12:12:03.001Z</time></trkpt><trkpt lat="30.578018811570097" lon="-5.201650283996278"><ele>729.0</ele><time>2026-03-23T12:12:04.001Z</time></trkpt><trkpt lat="30.577977659925452" lon="-5.2018765165382215"><ele>730.0</ele><time>2026-03-23T12:12:05.001Z</time></trkpt><trkpt lat="30.577919828366323" lon="-5.202107107939113"><ele>730.0</ele><time>2026-03-23T12:12:06.001Z</time></trkpt><trkpt lat="30.577863528803988" lon="-5.202352420210575"><ele>730.0</ele><time>2026-03-23T12:12:07.001Z</time></trkpt><trkpt lat="30.57781895962307" lon="-5.202604436085727"><ele>730.0</ele><time>2026-03-23T12:12:08.001Z</time></trkpt><trkpt lat="30.57778391224619" lon="-5.202853035528317"><ele>730.3333333333334</ele><time>2026-03-23T12:12:09.001Z</time></trkpt><trkpt lat="30.577754937639483" lon="-5.203082016992858"><ele>730.6666666666666</ele><time>2026-03-23T12:12:10.001Z</time></trkpt><trkpt lat="30.577735329217404" lon="-5.203290189461917"><ele>731.0</ele><time>2026-03-23T12:12:11.001Z</time></trkpt><trkpt lat="30.577717706509162" lon="-5.203486809411033"><ele>731.3333333333333</ele><time>2026-03-23T12:12:12.001Z</time></trkpt><trkpt lat="30.577697629304385" lon="-5.203693001941716"><ele>731.6666666666666</ele><time>2026-03-23T12:12:13.001Z</time></trkpt><trkpt lat="30.57767905769786" lon="-5.203889413385815"><ele>732.0</ele><time>2026-03-23T12:12:14.001Z</time></trkpt><trkpt lat="30.577658852146342" lon="-5.204082862503101"><ele>732.0</ele><time>2026-03-23T12:12:15.001Z</time></trkpt><trkpt lat="30.577645338610502" lon="-5.204277046715584"><ele>732.0</ele><time>2026-03-23T12:12:16.001Z</time></trkpt><trkpt lat="30.577628259727682" lon="-5.204476596359406"><ele>732.0</ele><time>2026-03-23T12:12:17.001Z</time></trkpt><trkpt lat="30.577603225448136" lon="-5.204661446530478"><ele>732.0</ele><time>2026-03-23T12:12:18.001Z</time></trkpt><trkpt lat="30.577568789925152" lon="-5.204836264529637"><ele>732.0</ele><time>2026-03-23T12:12:19.001Z</time></trkpt><trkpt lat="30.577529689048514" lon="-5.20501350878178"><ele>732.0</ele><time>2026-03-23T12:12:20.001Z</time></trkpt><trkpt lat="30.577488026136656" lon="-5.205193283406278"><ele>732.0</ele><time>2026-03-23T12:12:21.001Z</time></trkpt><trkpt lat="30.577446458181562" lon="-5.2053870889977745"><ele>732.0</ele><time>2026-03-23T12:12:22.001Z</time></trkpt><trkpt lat="30.577406584245896" lon="-5.205600429965878"><ele>732.0</ele><time>2026-03-23T12:12:23.001Z</time></trkpt><trkpt lat="30.577382461483083" lon="-5.205825618714988"><ele>732.6666666666666</ele><time>2026-03-23T12:12:24.001Z</time></trkpt><trkpt lat="30.577363123553027" lon="-5.206063301566876"><ele>733.3333333333333</ele><time>2026-03-23T12:12:25.001Z</time></trkpt><trkpt lat="30.57734172611479" lon="-5.20629207845279"><ele>734.0</ele><time>2026-03-23T12:12:26.001Z</time></trkpt><trkpt lat="30.577301473557043" lon="-5.206509656086273"><ele>734.0</ele><time>2026-03-23T12:12:27.001Z</time></trkpt><trkpt lat="30.577257600102783" lon="-5.206709026995617"><ele>734.0</ele><time>2026-03-23T12:12:28.001Z</time></trkpt><trkpt lat="30.577205500925604" lon="-5.206901177815682"><ele>734.0</ele><time>2026-03-23T12:12:29.001Z</time></trkpt><trkpt lat="30.577144432651696" lon="-5.2071012138811446"><ele>734.0</ele><time>2026-03-23T12:12:30.001Z</time></trkpt><trkpt lat="30.577089405512094" lon="-5.207310733578912"><ele>734.0</ele><time>2026-03-23T12:12:31.001Z</time></trkpt><trkpt lat="30.57704939202902" lon="-5.2075222531813345"><ele>734.0</ele><time>2026-03-23T12:12:32.001Z</time></trkpt><trkpt lat="30.57701275524148" lon="-5.20772684247845"><ele>734.0</ele><time>2026-03-23T12:12:33.001Z</time></trkpt><trkpt lat="30.57698960168557" lon="-5.207927959171542"><ele>734.0</ele><time>2026-03-23T12:12:34.001Z</time></trkpt><trkpt lat="30.5769695394375" lon="-5.208130903253114"><ele>734.0</ele><time>2026-03-23T12:12:35.001Z</time></trkpt><trkpt lat="30.576942241074875" lon="-5.208335235199148"><ele>733.6666666666666</ele><time>2026-03-23T12:12:36.001Z</time></trkpt><trkpt lat="30.576910995593437" lon="-5.2085307648275965"><ele>733.3333333333334</ele><time>2026-03-23T12:12:37.001Z</time></trkpt><trkpt lat="30.576869864059482" lon="-5.2087098685657685"><ele>733.0</ele><time>2026-03-23T12:12:38.001Z</time></trkpt><trkpt lat="30.576828020560004" lon="-5.20887634759743"><ele>733.0</ele><time>2026-03-23T12:12:39.001Z</time></trkpt><trkpt lat="30.57679177444052" lon="-5.209036461714411"><ele>733.0</ele><time>2026-03-23T12:12:40.001Z</time></trkpt><trkpt lat="30.576755071415835" lon="-5.2092055258843"><ele>733.0</ele><time>2026-03-23T12:12:41.001Z</time></trkpt><trkpt lat="30.576732974037807" lon="-5.2093730377052045"><ele>733.0</ele><time>2026-03-23T12:12:42.001Z</time></trkpt><trkpt lat="30.576717938600773" lon="-5.209535902889763"><ele>733.0</ele><time>2026-03-23T12:12:43.001Z</time></trkpt><trkpt lat="30.576708287102786" lon="-5.209700535362903"><ele>733.0</ele><time>2026-03-23T12:12:44.001Z</time></trkpt><trkpt lat="30.576704335524035" lon="-5.209857589869313"><ele>733.0</ele><time>2026-03-23T12:12:45.001Z</time></trkpt><trkpt lat="30.576694377665476" lon="-5.209999170151231"><ele>733.0</ele><time>2026-03-23T12:12:46.001Z</time></trkpt><trkpt lat="30.57667943539577" lon="-5.210142921893639"><ele>733.25</ele><time>2026-03-23T12:12:47.001Z</time></trkpt><trkpt lat="30.57666357266258" lon="-5.210284064226798"><ele>733.5</ele><time>2026-03-23T12:12:48.001Z</time></trkpt><trkpt lat="30.576652204622295" lon="-5.210425282050009"><ele>733.75</ele><time>2026-03-23T12:12:49.001Z</time></trkpt><trkpt lat="30.576644231205314" lon="-5.210563751984062"><ele>734.0</ele><time>2026-03-23T12:12:50.001Z</time></trkpt><trkpt lat="30.576634767072978" lon="-5.210713171432723"><ele>734.0</ele><time>2026-03-23T12:12:51.001Z</time></trkpt><trkpt lat="30.576624223878667" lon="-5.210861202005555"><ele>734.0</ele><time>2026-03-23T12:12:52.001Z</time></trkpt><trkpt lat="30.5766083777644" lon="-5.211018448670451"><ele>734.0</ele><time>2026-03-23T12:12:53.001Z</time></trkpt><trkpt lat="30.576595505969582" lon="-5.211190405085187"><ele>734.0</ele><time>2026-03-23T12:12:54.001Z</time></trkpt><trkpt lat="30.57658026305532" lon="-5.2113781922137274"><ele>734.6666666666666</ele><time>2026-03-23T12:12:55.001Z</time></trkpt><trkpt lat="30.57656237791139" lon="-5.211584534388743"><ele>735.3333333333334</ele><time>2026-03-23T12:12:56.001Z</time></trkpt><trkpt lat="30.57655014279071" lon="-5.211786270897526"><ele>736.0</ele><time>2026-03-23T12:12:57.001Z</time></trkpt><trkpt lat="30.576539070211474" lon="-5.211993358657938"><ele>736.0</ele><time>2026-03-23T12:12:58.001Z</time></trkpt><trkpt lat="30.576532490420586" lon="-5.21220175366601"><ele>736.0</ele><time>2026-03-23T12:12:59.001Z</time></trkpt><trkpt lat="30.576517448203568" lon="-5.2124139760936785"><ele>736.0</ele><time>2026-03-23T12:13:00.001Z</time></trkpt><trkpt lat="30.57649487890894" lon="-5.212632585508099"><ele>737.0</ele><time>2026-03-23T12:13:01.001Z</time></trkpt><trkpt lat="30.576480159825124" lon="-5.212842718806817"><ele>738.0</ele><time>2026-03-23T12:13:02Z</time></trkpt><trkpt lat="30.576463617273728" lon="-5.213048818221719"><ele>739.0</ele><time>2026-03-23T12:13:03Z</time></trkpt><trkpt lat="30.57644667035892" lon="-5.213244686453775"><ele>739.3333333333334</ele><time>2026-03-23T12:13:04Z</time></trkpt><trkpt lat="30.576424897022417" lon="-5.2134456711853545"><ele>739.6666666666666</ele><time>2026-03-23T12:13:05Z</time></trkpt><trkpt lat="30.576396958216424" lon="-5.213657137387838"><ele>740.0</ele><time>2026-03-23T12:13:06Z</time></trkpt><trkpt lat="30.5763648990272" lon="-5.2138706680677975"><ele>740.3333333333333</ele><time>2026-03-23T12:13:07Z</time></trkpt><trkpt lat="30.576335659721746" lon="-5.21407118130353"><ele>740.6666666666666</ele><time>2026-03-23T12:13:08Z</time></trkpt><trkpt lat="30.576312170861602" lon="-5.214267685583299"><ele>741.0</ele><time>2026-03-23T12:13:09Z</time></trkpt><trkpt lat="30.57629047143657" lon="-5.214450079133199"><ele>741.0</ele><time>2026-03-23T12:13:10Z</time></trkpt><trkpt lat="30.576263318145127" lon="-5.214628926400587"><ele>741.0</ele><time>2026-03-23T12:13:11Z</time></trkpt><trkpt lat="30.576240874654697" lon="-5.21481163554789"><ele>741.0</ele><time>2026-03-23T12:13:12Z</time></trkpt><trkpt lat="30.576223434396688" lon="-5.214993632511059"><ele>741.0</ele><time>2026-03-23T12:13:13Z</time></trkpt><trkpt lat="30.576213341361758" lon="-5.215182328728926"><ele>741.0</ele><time>2026-03-23T12:13:14Z</time></trkpt><trkpt lat="30.57620741711588" lon="-5.2153703486202465"><ele>741.0</ele><time>2026-03-23T12:13:15Z</time></trkpt><trkpt lat="30.576204744439117" lon="-5.215573215933737"><ele>740.3333333333334</ele><time>2026-03-23T12:13:16Z</time></trkpt><trkpt lat="30.576204812530037" lon="-5.215767414822201"><ele>739.6666666666667</ele><time>2026-03-23T12:13:17Z</time></trkpt><trkpt lat="30.576203226539153" lon="-5.215962086502937"><ele>739.0</ele><time>2026-03-23T12:13:18Z</time></trkpt><trkpt lat="30.576205855684353" lon="-5.216166124864124"><ele>739.0</ele><time>2026-03-23T12:13:19Z</time></trkpt><trkpt lat="30.576214235959274" lon="-5.2163723468110605"><ele>739.0</ele><time>2026-03-23T12:13:20Z</time></trkpt><trkpt lat="30.576231075630837" lon="-5.216573539884816"><ele>739.0</ele><time>2026-03-23T12:13:21Z</time></trkpt><trkpt lat="30.576238646953318" lon="-5.2167731342134"><ele>739.6666666666667</ele><time>2026-03-23T12:13:22.001Z</time></trkpt><trkpt lat="30.576238278159103" lon="-5.216968075212787"><ele>740.3333333333334</ele><time>2026-03-23T12:13:23.001Z</time></trkpt><trkpt lat="30.57623762932821" lon="-5.217164768660038"><ele>741.0</ele><time>2026-03-23T12:13:24.001Z</time></trkpt><trkpt lat="30.576245918006634" lon="-5.2173542489687925"><ele>741.6666666666666</ele><time>2026-03-23T12:13:25.001Z</time></trkpt><trkpt lat="30.576261272859792" lon="-5.2175463620994345"><ele>742.3333333333333</ele><time>2026-03-23T12:13:26.001Z</time></trkpt><trkpt lat="30.57628892210554" lon="-5.21773223856065"><ele>743.0</ele><time>2026-03-23T12:13:27.001Z</time></trkpt><trkpt lat="30.57632230044251" lon="-5.217918139681719"><ele>743.0</ele><time>2026-03-23T12:13:28.001Z</time></trkpt><trkpt lat="30.57633727085453" lon="-5.2180952196938275"><ele>743.0</ele><time>2026-03-23T12:13:29.001Z</time></trkpt><trkpt lat="30.576351650343394" lon="-5.218274313582709"><ele>743.0</ele><time>2026-03-23T12:13:30.001Z</time></trkpt><trkpt lat="30.57635214253389" lon="-5.218457332222268"><ele>743.3333333333333</ele><time>2026-03-23T12:13:31.001Z</time></trkpt><trkpt lat="30.576367121037322" lon="-5.2186614442595785"><ele>743.6666666666666</ele><time>2026-03-23T12:13:32.001Z</time></trkpt><trkpt lat="30.5763934365634" lon="-5.218864480667563"><ele>744.0</ele><time>2026-03-23T12:13:33.001Z</time></trkpt><trkpt lat="30.57641462972881" lon="-5.2190908199416475"><ele>743.3333333333334</ele><time>2026-03-23T12:13:34.001Z</time></trkpt><trkpt lat="30.576432082889806" lon="-5.219328561785326"><ele>742.6666666666667</ele><time>2026-03-23T12:13:35.001Z</time></trkpt><trkpt lat="30.57644292441566" lon="-5.219564802414992"><ele>742.0</ele><time>2026-03-23T12:13:36.001Z</time></trkpt><trkpt lat="30.57645549062719" lon="-5.219771353840266"><ele>742.3333333333334</ele><time>2026-03-23T12:13:37.001Z</time></trkpt><trkpt lat="30.576466546294" lon="-5.219960843923575"><ele>742.6666666666666</ele><time>2026-03-23T12:13:38.001Z</time></trkpt><trkpt lat="30.576473332928103" lon="-5.220137245172242"><ele>743.0</ele><time>2026-03-23T12:13:39.001Z</time></trkpt><trkpt lat="30.576381268381045" lon="-5.220326636500511"><ele>743.0</ele><time>2026-03-23T12:13:40.001Z</time></trkpt><trkpt lat="30.576399684060103" lon="-5.22047512712005"><ele>743.0</ele><time>2026-03-23T12:13:41.001Z</time></trkpt><trkpt lat="30.57641737533219" lon="-5.220617777289148"><ele>743.0</ele><time>2026-03-23T12:13:42.001Z</time></trkpt><trkpt lat="30.57643378206518" lon="-5.220750069438123"><ele>743.0</ele><time>2026-03-23T12:13:43.001Z</time></trkpt><trkpt lat="30.576450457588262" lon="-5.2208845285785825"><ele>743.2</ele><time>2026-03-23T12:13:44.001Z</time></trkpt><trkpt lat="30.576467904828245" lon="-5.221024456341279"><ele>743.4</ele><time>2026-03-23T12:13:45.001Z</time></trkpt><trkpt lat="30.576484898172843" lon="-5.2211591015374745"><ele>743.6</ele><time>2026-03-23T12:13:46.001Z</time></trkpt><trkpt lat="30.57651055247795" lon="-5.221280661048894"><ele>743.8000000000001</ele><time>2026-03-23T12:13:47.001Z</time></trkpt><trkpt lat="30.576514315697402" lon="-5.221392187152773"><ele>744.0</ele><time>2026-03-23T12:13:48.001Z</time></trkpt><trkpt lat="30.576523524991448" lon="-5.221496200942716"><ele>743.6666666666666</ele><time>2026-03-23T12:13:49.001Z</time></trkpt><trkpt lat="30.576533049321064" lon="-5.221597670930347"><ele>743.3333333333334</ele><time>2026-03-23T12:13:50.001Z</time></trkpt><trkpt lat="30.576541970493277" lon="-5.221692715055732"><ele>743.0</ele><time>2026-03-23T12:13:51.001Z</time></trkpt><trkpt lat="30.576550019918127" lon="-5.221778471640961"><ele>742.6666666666667</ele><time>2026-03-23T12:13:52.001Z</time></trkpt><trkpt lat="30.576557711659515" lon="-5.221856507570297"><ele>742.3333333333334</ele><time>2026-03-23T12:13:53.001Z</time></trkpt><trkpt lat="30.576555189990902" lon="-5.221949292566613"><ele>742.0</ele><time>2026-03-23T12:13:54.001Z</time></trkpt><trkpt lat="30.57656766258757" lon="-5.2220791123427635"><ele>742.0</ele><time>2026-03-23T12:13:56.001Z</time></trkpt><trkpt lat="30.576578587496545" lon="-5.222215470424839"><ele>742.0</ele><time>2026-03-23T12:13:58.001Z</time></trkpt><trkpt lat="30.576603328090453" lon="-5.222346404667564"><ele>742.0</ele><time>2026-03-23T12:14:00.001Z</time></trkpt><trkpt lat="30.576610515528078" lon="-5.222422977808153"><ele>742.0</ele><time>2026-03-23T12:14:01.001Z</time></trkpt><trkpt lat="30.57662174419551" lon="-5.222543417071891"><ele>742.0</ele><time>2026-03-23T12:14:03.001Z</time></trkpt><trkpt lat="30.576629779041507" lon="-5.2226299215156216"><ele>742.1666666666667</ele><time>2026-03-23T12:14:05.001Z</time></trkpt><trkpt lat="30.57663943187048" lon="-5.222728760085626"><ele>742.3333333333334</ele><time>2026-03-23T12:14:08.001Z</time></trkpt><trkpt lat="30.576649761934366" lon="-5.222834571523024"><ele>742.5</ele><time>2026-03-23T12:14:32.001Z</time></trkpt><trkpt lat="30.576641880160437" lon="-5.222919506810173"><ele>742.6666666666666</ele><time>2026-03-23T12:14:33.001Z</time></trkpt><trkpt lat="30.57665717341105" lon="-5.222995211783886"><ele>742.8333333333333</ele><time>2026-03-23T12:14:34.001Z</time></trkpt><trkpt lat="30.57668991957922" lon="-5.22313396999069"><ele>743.0</ele><time>2026-03-23T12:14:36.001Z</time></trkpt><trkpt lat="30.576730460921066" lon="-5.223211458982101"><ele>743.4</ele><time>2026-03-23T12:14:37.001Z</time></trkpt><trkpt lat="30.57672231626793" lon="-5.223319832486096"><ele>743.8</ele><time>2026-03-23T12:14:38.001Z</time></trkpt><trkpt lat="30.576731742930825" lon="-5.223444793664125"><ele>744.2</ele><time>2026-03-23T12:14:39.001Z</time></trkpt><trkpt lat="30.576751622516486" lon="-5.223565371384002"><ele>744.6</ele><time>2026-03-23T12:14:40.001Z</time></trkpt><trkpt lat="30.576781335705583" lon="-5.223686552738596"><ele>745.0</ele><time>2026-03-23T12:14:41.001Z</time></trkpt><trkpt lat="30.57681173465885" lon="-5.223812799909297"><ele>745.0</ele><time>2026-03-23T12:14:42.001Z</time></trkpt><trkpt lat="30.576841597109908" lon="-5.223937134962202"><ele>745.0</ele><time>2026-03-23T12:14:43.001Z</time></trkpt><trkpt lat="30.576844618845854" lon="-5.2240632173430575"><ele>745.0</ele><time>2026-03-23T12:14:44.001Z</time></trkpt><trkpt lat="30.57685674554657" lon="-5.2241885043278495"><ele>745.0</ele><time>2026-03-23T12:14:45.001Z</time></trkpt><trkpt lat="30.576869206499815" lon="-5.224315605962568"><ele>745.0</ele><time>2026-03-23T12:14:46.001Z</time></trkpt><trkpt lat="30.576879943540582" lon="-5.224425123927831"><ele>745.0</ele><time>2026-03-23T12:14:47.001Z</time></trkpt><trkpt lat="30.576891062295523" lon="-5.224520222764166"><ele>745.0</ele><time>2026-03-23T12:14:48.001Z</time></trkpt><trkpt lat="30.57687097893728" lon="-5.22460953460693"><ele>745.0</ele><time>2026-03-23T12:14:49.001Z</time></trkpt><trkpt lat="30.57688772089707" lon="-5.2246935122680584"><ele>745.0</ele><time>2026-03-23T12:14:50.001Z</time></trkpt><trkpt lat="30.576896020463717" lon="-5.224790748441272"><ele>745.0</ele><time>2026-03-23T12:14:51.001Z</time></trkpt><trkpt lat="30.57687558059121" lon="-5.224910500613427"><ele>745.0</ele><time>2026-03-23T12:14:52.001Z</time></trkpt><trkpt lat="30.57693974604572" lon="-5.225031194342627"><ele>745.0</ele><time>2026-03-23T12:14:53.001Z</time></trkpt><trkpt lat="30.57695297825639" lon="-5.225164870757478"><ele>745.0</ele><time>2026-03-23T12:14:54.001Z</time></trkpt><trkpt lat="30.576967514926324" lon="-5.225311725457599"><ele>745.0</ele><time>2026-03-23T12:14:55Z</time></trkpt><trkpt lat="30.57699103762404" lon="-5.22546583280631"><ele>745.0</ele><time>2026-03-23T12:14:56Z</time></trkpt><trkpt lat="30.577015881057672" lon="-5.225599250999065"><ele>745.6</ele><time>2026-03-23T12:14:57Z</time></trkpt><trkpt lat="30.577033445477248" lon="-5.225691559052865"><ele>746.2</ele><time>2026-03-23T12:14:58Z</time></trkpt><trkpt lat="30.577046022203763" lon="-5.225832681942317"><ele>746.8</ele><time>2026-03-23T12:15:00Z</time></trkpt><trkpt lat="30.5770746074714" lon="-5.225947388234877"><ele>747.4</ele><time>2026-03-23T12:15:01Z</time></trkpt><trkpt lat="30.57709840768626" lon="-5.22608255316521"><ele>748.0</ele><time>2026-03-23T12:15:02Z</time></trkpt><trkpt lat="30.57712573040035" lon="-5.226223430810172"><ele>748.0</ele><time>2026-03-23T12:15:03Z</time></trkpt><trkpt lat="30.57715398227609" lon="-5.2263689438143315"><ele>748.0</ele><time>2026-03-23T12:15:04Z</time></trkpt><trkpt lat="30.577182728903992" lon="-5.226507435699541"><ele>748.0</ele><time>2026-03-23T12:15:05Z</time></trkpt><trkpt lat="30.57720514875253" lon="-5.226649738486365"><ele>748.0</ele><time>2026-03-23T12:15:06Z</time></trkpt><trkpt lat="30.577229757975157" lon="-5.226785697613241"><ele>748.4</ele><time>2026-03-23T12:15:07Z</time></trkpt><trkpt lat="30.577242463581413" lon="-5.226909867379685"><ele>748.8</ele><time>2026-03-23T12:15:08Z</time></trkpt><trkpt lat="30.577265604955418" lon="-5.227044345944172"><ele>749.2</ele><time>2026-03-23T12:15:09Z</time></trkpt><trkpt lat="30.577254444854955" lon="-5.227172289848323"><ele>749.6</ele><time>2026-03-23T12:15:10Z</time></trkpt><trkpt lat="30.57727070767334" lon="-5.227288934933708"><ele>750.0</ele><time>2026-03-23T12:15:11Z</time></trkpt><trkpt lat="30.577257957514732" lon="-5.227410777553081"><ele>750.2</ele><time>2026-03-23T12:15:12Z</time></trkpt><trkpt lat="30.577267699793524" lon="-5.227542575703628"><ele>750.4</ele><time>2026-03-23T12:15:13Z</time></trkpt><trkpt lat="30.577270817757505" lon="-5.2276793109968605"><ele>750.5999999999999</ele><time>2026-03-23T12:15:14Z</time></trkpt><trkpt lat="30.57727906220916" lon="-5.227808000780375"><ele>750.8</ele><time>2026-03-23T12:15:15Z</time></trkpt><trkpt lat="30.577268531432534" lon="-5.227927071175406"><ele>751.0</ele><time>2026-03-23T12:15:16Z</time></trkpt><trkpt lat="30.577265998721725" lon="-5.228059676077375"><ele>751.0</ele><time>2026-03-23T12:15:17Z</time></trkpt><trkpt lat="30.577266283954557" lon="-5.228174782158552"><ele>751.0</ele><time>2026-03-23T12:15:18Z</time></trkpt><trkpt lat="30.577253669553684" lon="-5.228299055680628"><ele>751.0</ele><time>2026-03-23T12:15:19Z</time></trkpt><trkpt lat="30.577240962186856" lon="-5.228425915436178"><ele>751.0</ele><time>2026-03-23T12:15:20Z</time></trkpt><trkpt lat="30.577229172984783" lon="-5.228558352643185"><ele>751.0</ele><time>2026-03-23T12:15:21Z</time></trkpt><trkpt lat="30.577214317143373" lon="-5.22871780548841"><ele>751.0</ele><time>2026-03-23T12:15:22Z</time></trkpt><trkpt lat="30.577223715992563" lon="-5.228870703103506"><ele>751.0</ele><time>2026-03-23T12:15:23Z</time></trkpt><trkpt lat="30.577233145566385" lon="-5.229028798899896"><ele>751.0</ele><time>2026-03-23T12:15:24Z</time></trkpt><trkpt lat="30.577242580762718" lon="-5.229189554097405"><ele>751.0</ele><time>2026-03-23T12:15:25Z</time></trkpt><trkpt lat="30.577251233947337" lon="-5.229348346700195"><ele>750.75</ele><time>2026-03-23T12:15:26Z</time></trkpt><trkpt lat="30.577273628425342" lon="-5.2295082736130745"><ele>750.5</ele><time>2026-03-23T12:15:27Z</time></trkpt><trkpt lat="30.577299498288472" lon="-5.229653353865583"><ele>750.25</ele><time>2026-03-23T12:15:28Z</time></trkpt><trkpt lat="30.577324841347696" lon="-5.229797200377907"><ele>750.0</ele><time>2026-03-23T12:15:29Z</time></trkpt><trkpt lat="30.577348000717503" lon="-5.229928652624523"><ele>750.0</ele><time>2026-03-23T12:15:30Z</time></trkpt><trkpt lat="30.577387458187697" lon="-5.23007084282221"><ele>750.0</ele><time>2026-03-23T12:15:31Z</time></trkpt><trkpt lat="30.577406097016112" lon="-5.2302237254111095"><ele>750.0</ele><time>2026-03-23T12:15:32Z</time></trkpt><trkpt lat="30.57742804321502" lon="-5.230392512732457"><ele>750.0</ele><time>2026-03-23T12:15:33Z</time></trkpt><trkpt lat="30.577464813585415" lon="-5.230551644637957"><ele>750.6666666666666</ele><time>2026-03-23T12:15:34Z</time></trkpt><trkpt lat="30.577499193307506" lon="-5.230721885338079"><ele>751.3333333333333</ele><time>2026-03-23T12:15:35Z</time></trkpt><trkpt lat="30.57752217658683" lon="-5.230909097152235"><ele>752.0</ele><time>2026-03-23T12:15:36Z</time></trkpt><trkpt lat="30.57755494859375" lon="-5.2310931878493125"><ele>752.0</ele><time>2026-03-23T12:15:37Z</time></trkpt><trkpt lat="30.577566295792366" lon="-5.231263765466652"><ele>752.0</ele><time>2026-03-23T12:15:38Z</time></trkpt><trkpt lat="30.577573372807233" lon="-5.2314380911159075"><ele>752.0</ele><time>2026-03-23T12:15:39Z</time></trkpt><trkpt lat="30.577580506403237" lon="-5.231613810516556"><ele>752.0</ele><time>2026-03-23T12:15:40Z</time></trkpt><trkpt lat="30.57759591005232" lon="-5.231828689080031"><ele>752.0</ele><time>2026-03-23T12:15:41Z</time></trkpt><trkpt lat="30.577672406336394" lon="-5.232061917766295"><ele>752.0</ele><time>2026-03-23T12:15:42Z</time></trkpt><trkpt lat="30.577755088789747" lon="-5.232224524841039"><ele>752.0</ele><time>2026-03-23T12:15:43Z</time></trkpt><trkpt lat="30.577871083503307" lon="-5.232339942701244"><ele>752.0</ele><time>2026-03-23T12:15:44Z</time></trkpt><trkpt lat="30.577934863642344" lon="-5.232490973683219"><ele>752.0</ele><time>2026-03-23T12:15:45Z</time></trkpt><trkpt lat="30.577999033849856" lon="-5.232642930698059"><ele>752.0</ele><time>2026-03-23T12:15:46Z</time></trkpt><trkpt lat="30.57806521135031" lon="-5.2328043212044335"><ele>752.0</ele><time>2026-03-23T12:15:47Z</time></trkpt><trkpt lat="30.578112425126605" lon="-5.233008888310364"><ele>753.0</ele><time>2026-03-23T12:15:48Z</time></trkpt><trkpt lat="30.578178929129482" lon="-5.233226926990032"><ele>754.0</ele><time>2026-03-23T12:15:49Z</time></trkpt><trkpt lat="30.57825431989659" lon="-5.233420419310965"><ele>755.0</ele><time>2026-03-23T12:15:50Z</time></trkpt><trkpt lat="30.578327907595575" lon="-5.233603149017411"><ele>755.0</ele><time>2026-03-23T12:15:51Z</time></trkpt><trkpt lat="30.57837011603656" lon="-5.233767680424899"><ele>755.0</ele><time>2026-03-23T12:15:52Z</time></trkpt><trkpt lat="30.578374139200662" lon="-5.233944215112511"><ele>755.0</ele><time>2026-03-23T12:15:53Z</time></trkpt><trkpt lat="30.578381643644107" lon="-5.234114885250874"><ele>755.0</ele><time>2026-03-23T12:15:54Z</time></trkpt><trkpt lat="30.5783879819926" lon="-5.234289167036999"><ele>755.3333333333333</ele><time>2026-03-23T12:15:55Z</time></trkpt><trkpt lat="30.57839452121818" lon="-5.234465505774733"><ele>755.6666666666666</ele><time>2026-03-23T12:15:56Z</time></trkpt><trkpt lat="30.578402075136598" lon="-5.2346615810300605"><ele>756.0</ele><time>2026-03-23T12:15:57Z</time></trkpt><trkpt lat="30.578409748600848" lon="-5.23486075935949"><ele>756.3333333333334</ele><time>2026-03-23T12:15:58Z</time></trkpt><trkpt lat="30.578408443341793" lon="-5.235064245220621"><ele>756.6666666666667</ele><time>2026-03-23T12:15:59Z</time></trkpt><trkpt lat="30.578439404690595" lon="-5.23526560090112"><ele>757.0</ele><time>2026-03-23T12:16:00Z</time></trkpt><trkpt lat="30.578432842551823" lon="-5.235475386484606"><ele>756.6666666666667</ele><time>2026-03-23T12:16:01Z</time></trkpt><trkpt lat="30.578448795913378" lon="-5.235693980140991"><ele>756.3333333333334</ele><time>2026-03-23T12:16:02Z</time></trkpt><trkpt lat="30.578451214352814" lon="-5.235907660263451"><ele>756.0</ele><time>2026-03-23T12:16:03Z</time></trkpt><trkpt lat="30.578458371561968" lon="-5.236104138744153"><ele>756.0</ele><time>2026-03-23T12:16:04Z</time></trkpt><trkpt lat="30.578462620854324" lon="-5.236303592007925"><ele>756.0</ele><time>2026-03-23T12:16:05Z</time></trkpt><trkpt lat="30.57845676800952" lon="-5.236497427439977"><ele>756.0</ele><time>2026-03-23T12:16:06Z</time></trkpt><trkpt lat="30.578428660610616" lon="-5.236690436389916"><ele>756.3333333333334</ele><time>2026-03-23T12:16:07Z</time></trkpt><trkpt lat="30.578399177893925" lon="-5.2368800371802084"><ele>756.6666666666667</ele><time>2026-03-23T12:16:08Z</time></trkpt><trkpt lat="30.578365553553756" lon="-5.237106341019103"><ele>757.0</ele><time>2026-03-23T12:16:09Z</time></trkpt><trkpt lat="30.57834687676083" lon="-5.237342941337984"><ele>757.5</ele><time>2026-03-23T12:16:10Z</time></trkpt><trkpt lat="30.578325386126657" lon="-5.237610327351271"><ele>758.0</ele><time>2026-03-23T12:16:11Z</time></trkpt><trkpt lat="30.578298225243923" lon="-5.237873693910712"><ele>759.0</ele><time>2026-03-23T12:16:12Z</time></trkpt><trkpt lat="30.578242890154165" lon="-5.238149273512623"><ele>760.0</ele><time>2026-03-23T12:16:13Z</time></trkpt><trkpt lat="30.578219132739346" lon="-5.238449931377387"><ele>760.0</ele><time>2026-03-23T12:16:14Z</time></trkpt><trkpt lat="30.578207860111462" lon="-5.2387260851545365"><ele>760.0</ele><time>2026-03-23T12:16:15Z</time></trkpt><trkpt lat="30.578197459224754" lon="-5.238972655968361"><ele>760.0</ele><time>2026-03-23T12:16:16Z</time></trkpt><trkpt lat="30.57820254315527" lon="-5.2391943050025045"><ele>760.0</ele><time>2026-03-23T12:16:17Z</time></trkpt><trkpt lat="30.578203355297195" lon="-5.23940205103586"><ele>760.0</ele><time>2026-03-23T12:16:18Z</time></trkpt><trkpt lat="30.578189292778553" lon="-5.239606983753812"><ele>759.6666666666667</ele><time>2026-03-23T12:16:19Z</time></trkpt><trkpt lat="30.578175305215446" lon="-5.239812229343164"><ele>759.3333333333334</ele><time>2026-03-23T12:16:20Z</time></trkpt><trkpt lat="30.578161970380002" lon="-5.2400079324767095"><ele>759.0</ele><time>2026-03-23T12:16:21Z</time></trkpt><trkpt lat="30.578148742066073" lon="-5.240202072343552"><ele>759.0</ele><time>2026-03-23T12:16:22Z</time></trkpt><trkpt lat="30.578135921987133" lon="-5.240390397812471"><ele>759.0</ele><time>2026-03-23T12:16:23Z</time></trkpt><trkpt lat="30.578121081448394" lon="-5.240580740627105"><ele>759.0</ele><time>2026-03-23T12:16:24Z</time></trkpt><trkpt lat="30.578103977920954" lon="-5.240800105516548"><ele>759.0</ele><time>2026-03-23T12:16:25Z</time></trkpt><trkpt lat="30.578085228775528" lon="-5.2410405766373"><ele>759.0</ele><time>2026-03-23T12:16:26.001Z</time></trkpt><trkpt lat="30.578081464044654" lon="-5.241277768543561"><ele>759.0</ele><time>2026-03-23T12:16:27.001Z</time></trkpt><trkpt lat="30.57837712304827" lon="-5.241541184379226"><ele>759.5</ele><time>2026-03-23T12:16:28.001Z</time></trkpt><trkpt lat="30.57837872776631" lon="-5.2417998569581385"><ele>760.0</ele><time>2026-03-23T12:16:29.001Z</time></trkpt><trkpt lat="30.57837851939676" lon="-5.242079269465572"><ele>761.6666666666667</ele><time>2026-03-23T12:16:30.001Z</time></trkpt><trkpt lat="30.578373822280675" lon="-5.2423315891131095"><ele>763.3333333333334</ele><time>2026-03-23T12:16:31.001Z</time></trkpt><trkpt lat="30.5783738373304" lon="-5.242558577199193"><ele>765.0</ele><time>2026-03-23T12:16:32.001Z</time></trkpt><trkpt lat="30.578380202520123" lon="-5.24276842588003"><ele>765.0</ele><time>2026-03-23T12:16:33.001Z</time></trkpt><trkpt lat="30.578391885762805" lon="-5.2429772511405375"><ele>765.0</ele><time>2026-03-23T12:16:34.001Z</time></trkpt><trkpt lat="30.5784027707213" lon="-5.243181167725083"><ele>765.0</ele><time>2026-03-23T12:16:35.001Z</time></trkpt><trkpt lat="30.578402601946674" lon="-5.243366070978873"><ele>764.25</ele><time>2026-03-23T12:16:36.001Z</time></trkpt><trkpt lat="30.578396909455897" lon="-5.2435337897072785"><ele>763.5</ele><time>2026-03-23T12:16:37.001Z</time></trkpt><trkpt lat="30.578389663955214" lon="-5.24370838236251"><ele>762.75</ele><time>2026-03-23T12:16:38.001Z</time></trkpt><trkpt lat="30.578366123471003" lon="-5.243878776577416"><ele>762.0</ele><time>2026-03-23T12:16:39.001Z</time></trkpt><trkpt lat="30.57832304326691" lon="-5.244052665680854"><ele>761.3333333333334</ele><time>2026-03-23T12:16:40.001Z</time></trkpt><trkpt lat="30.5782562659483" lon="-5.244222262186196"><ele>760.6666666666667</ele><time>2026-03-23T12:16:41.001Z</time></trkpt><trkpt lat="30.57818501720486" lon="-5.244381303381056"><ele>760.0</ele><time>2026-03-23T12:16:42.001Z</time></trkpt><trkpt lat="30.578111927589504" lon="-5.244524036244257"><ele>760.0</ele><time>2026-03-23T12:16:43.001Z</time></trkpt><trkpt lat="30.57802858467965" lon="-5.244655792117327"><ele>760.0</ele><time>2026-03-23T12:16:44.001Z</time></trkpt><trkpt lat="30.577934946952677" lon="-5.244801180568558"><ele>760.0</ele><time>2026-03-23T12:16:45.001Z</time></trkpt><trkpt lat="30.577846518998893" lon="-5.244951920386856"><ele>761.0</ele><time>2026-03-23T12:16:46.001Z</time></trkpt><trkpt lat="30.577759880480155" lon="-5.2450943089064195"><ele>762.0</ele><time>2026-03-23T12:16:47.001Z</time></trkpt><trkpt lat="30.577649068244007" lon="-5.2452300604181925"><ele>763.0</ele><time>2026-03-23T12:16:48.001Z</time></trkpt><trkpt lat="30.577537542574326" lon="-5.245362036889023"><ele>763.0</ele><time>2026-03-23T12:16:49.001Z</time></trkpt><trkpt lat="30.57744298135725" lon="-5.245505318960644"><ele>763.0</ele><time>2026-03-23T12:16:50.001Z</time></trkpt><trkpt lat="30.577363965877147" lon="-5.245674209389527"><ele>763.0</ele><time>2026-03-23T12:16:51.001Z</time></trkpt><trkpt lat="30.577285402785524" lon="-5.245874990629894"><ele>762.6666666666667</ele><time>2026-03-23T12:16:52.001Z</time></trkpt><trkpt lat="30.57719080845986" lon="-5.246115395575467"><ele>762.3333333333334</ele><time>2026-03-23T12:16:53.001Z</time></trkpt><trkpt lat="30.57710989668579" lon="-5.246330548353915"><ele>762.0</ele><time>2026-03-23T12:16:54.001Z</time></trkpt><trkpt lat="30.577031887670813" lon="-5.246544140954579"><ele>762.3333333333334</ele><time>2026-03-23T12:16:55.001Z</time></trkpt><trkpt lat="30.576967402706348" lon="-5.2467477788951395"><ele>762.6666666666667</ele><time>2026-03-23T12:16:56.001Z</time></trkpt><trkpt lat="30.57690623624243" lon="-5.246936780511085"><ele>763.0</ele><time>2026-03-23T12:16:57.001Z</time></trkpt><trkpt lat="30.576846487802946" lon="-5.247105270822247"><ele>763.0</ele><time>2026-03-23T12:16:58.001Z</time></trkpt><trkpt lat="30.576793552113877" lon="-5.2472810861237935"><ele>763.0</ele><time>2026-03-23T12:16:59.001Z</time></trkpt><trkpt lat="30.576752967699175" lon="-5.247483709047213"><ele>763.0</ele><time>2026-03-23T12:17:00.001Z</time></trkpt><trkpt lat="30.576726837411236" lon="-5.247685675126471"><ele>763.3333333333334</ele><time>2026-03-23T12:17:01Z</time></trkpt><trkpt lat="30.57669363001625" lon="-5.247888534570419"><ele>763.6666666666666</ele><time>2026-03-23T12:17:02Z</time></trkpt><trkpt lat="30.576663109564333" lon="-5.248088069880831"><ele>764.0</ele><time>2026-03-23T12:17:03Z</time></trkpt><trkpt lat="30.576638864929404" lon="-5.24828469693916"><ele>764.3333333333333</ele><time>2026-03-23T12:17:04Z</time></trkpt><trkpt lat="30.576627614750727" lon="-5.248486156671767"><ele>764.6666666666666</ele><time>2026-03-23T12:17:05Z</time></trkpt><trkpt lat="30.576631496190608" lon="-5.248689841434605"><ele>765.0</ele><time>2026-03-23T12:17:06Z</time></trkpt><trkpt lat="30.576644670301206" lon="-5.248901118671373"><ele>766.0</ele><time>2026-03-23T12:17:07Z</time></trkpt><trkpt lat="30.5766623286025" lon="-5.2491476862664666"><ele>767.0</ele><time>2026-03-23T12:17:08Z</time></trkpt><trkpt lat="30.576677240123967" lon="-5.249404118838167"><ele>768.0</ele><time>2026-03-23T12:17:09Z</time></trkpt><trkpt lat="30.576686563696857" lon="-5.249670936921713"><ele>769.0</ele><time>2026-03-23T12:17:10Z</time></trkpt><trkpt lat="30.576697517001527" lon="-5.249935726993856"><ele>770.0</ele><time>2026-03-23T12:17:11Z</time></trkpt><trkpt lat="30.576708601197662" lon="-5.2502013573629345"><ele>770.0</ele><time>2026-03-23T12:17:12Z</time></trkpt><trkpt lat="30.576712895867505" lon="-5.2504817437269145"><ele>770.0</ele><time>2026-03-23T12:17:13Z</time></trkpt><trkpt lat="30.57671621631849" lon="-5.25072942664623"><ele>770.0</ele><time>2026-03-23T12:17:14Z</time></trkpt><trkpt lat="30.576723973111466" lon="-5.250954396567097"><ele>770.0</ele><time>2026-03-23T12:17:15Z</time></trkpt><trkpt lat="30.576729384672745" lon="-5.251172040072131"><ele>770.0</ele><time>2026-03-23T12:17:16Z</time></trkpt><trkpt lat="30.57673376083457" lon="-5.251382678918804"><ele>770.0</ele><time>2026-03-23T12:17:17Z</time></trkpt><trkpt lat="30.576739312826476" lon="-5.251588805550468"><ele>770.0</ele><time>2026-03-23T12:17:18Z</time></trkpt><trkpt lat="30.57674845071446" lon="-5.251797967709002"><ele>770.0</ele><time>2026-03-23T12:17:19Z</time></trkpt><trkpt lat="30.576753082877403" lon="-5.252008561482281"><ele>770.0</ele><time>2026-03-23T12:17:20Z</time></trkpt><trkpt lat="30.576758342519003" lon="-5.25221915372422"><ele>770.0</ele><time>2026-03-23T12:17:21Z</time></trkpt><trkpt lat="30.57676142242647" lon="-5.2524237028711145"><ele>770.0</ele><time>2026-03-23T12:17:22Z</time></trkpt><trkpt lat="30.57677355254562" lon="-5.252626637022759"><ele>771.0</ele><time>2026-03-23T12:17:23Z</time></trkpt><trkpt lat="30.576785492613887" lon="-5.252813585864179"><ele>772.0</ele><time>2026-03-23T12:17:24Z</time></trkpt><trkpt lat="30.57680808494525" lon="-5.252982992737228"><ele>773.0</ele><time>2026-03-23T12:17:25Z</time></trkpt><trkpt lat="30.57683287038244" lon="-5.253144082574559"><ele>773.0</ele><time>2026-03-23T12:17:26Z</time></trkpt><trkpt lat="30.576863379081768" lon="-5.253287088916602"><ele>773.0</ele><time>2026-03-23T12:17:27Z</time></trkpt><trkpt lat="30.57688347237029" lon="-5.253413137559876"><ele>773.0</ele><time>2026-03-23T12:17:28Z</time></trkpt><trkpt lat="30.57689588979094" lon="-5.253517469118453"><ele>773.0</ele><time>2026-03-23T12:17:29Z</time></trkpt><trkpt lat="30.57690537769452" lon="-5.253623611077005"><ele>773.0</ele><time>2026-03-23T12:17:30Z</time></trkpt><trkpt lat="30.576911478605172" lon="-5.253734836046178"><ele>773.0</ele><time>2026-03-23T12:17:31Z</time></trkpt><trkpt lat="30.576909669640404" lon="-5.2538496928017375"><ele>773.0</ele><time>2026-03-23T12:17:32Z</time></trkpt><trkpt lat="30.576895894885038" lon="-5.253959707872325"><ele>773.0</ele><time>2026-03-23T12:17:33Z</time></trkpt><trkpt lat="30.576870047936833" lon="-5.254075924533624"><ele>773.0</ele><time>2026-03-23T12:17:34Z</time></trkpt><trkpt lat="30.57683931905941" lon="-5.2542109227028595"><ele>773.0</ele><time>2026-03-23T12:17:35Z</time></trkpt><trkpt lat="30.576800731997103" lon="-5.2543618428945615"><ele>773.25</ele><time>2026-03-23T12:17:36Z</time></trkpt><trkpt lat="30.57676139244579" lon="-5.254515462484778"><ele>773.5</ele><time>2026-03-23T12:17:37Z</time></trkpt><trkpt lat="30.576720281060155" lon="-5.254675953662514"><ele>773.75</ele><time>2026-03-23T12:17:38Z</time></trkpt><trkpt lat="30.576682173427145" lon="-5.254839209380533"><ele>774.0</ele><time>2026-03-23T12:17:39Z</time></trkpt><trkpt lat="30.5766417747562" lon="-5.255003587612621"><ele>773.3333333333333</ele><time>2026-03-23T12:17:40Z</time></trkpt><trkpt lat="30.576595793640568" lon="-5.2551777538736895"><ele>772.6666666666666</ele><time>2026-03-23T12:17:41Z</time></trkpt><trkpt lat="30.57654185920515" lon="-5.255347992294302"><ele>772.0</ele><time>2026-03-23T12:17:42Z</time></trkpt><trkpt lat="30.576473469881876" lon="-5.255509602987405"><ele>772.3333333333333</ele><time>2026-03-23T12:17:43Z</time></trkpt><trkpt lat="30.576394475052847" lon="-5.255677563402283"><ele>772.6666666666667</ele><time>2026-03-23T12:17:44Z</time></trkpt><trkpt lat="30.576310100347666" lon="-5.255858613876514"><ele>773.0</ele><time>2026-03-23T12:17:45Z</time></trkpt><trkpt lat="30.576222725517297" lon="-5.256066190785953"><ele>774.5</ele><time>2026-03-23T12:17:46Z</time></trkpt><trkpt lat="30.576115322964146" lon="-5.256288123122959"><ele>776.0</ele><time>2026-03-23T12:17:47Z</time></trkpt><trkpt lat="30.576003129215998" lon="-5.256543152931869"><ele>776.0</ele><time>2026-03-23T12:17:48Z</time></trkpt><trkpt lat="30.575891966581153" lon="-5.256787088044979"><ele>776.0</ele><time>2026-03-23T12:17:49Z</time></trkpt><trkpt lat="30.575770433001374" lon="-5.257037169675992"><ele>776.0</ele><time>2026-03-23T12:17:50Z</time></trkpt><trkpt lat="30.575660117688713" lon="-5.257257750793183"><ele>776.0</ele><time>2026-03-23T12:17:51Z</time></trkpt><trkpt lat="30.575554663686354" lon="-5.257488731401109"><ele>776.0</ele><time>2026-03-23T12:17:52Z</time></trkpt><trkpt lat="30.575440874162915" lon="-5.25771441122633"><ele>777.6666666666667</ele><time>2026-03-23T12:17:53Z</time></trkpt><trkpt lat="30.575340880656093" lon="-5.257919091354613"><ele>779.3333333333333</ele><time>2026-03-23T12:17:54Z</time></trkpt><trkpt lat="30.57521138401439" lon="-5.258122466683342"><ele>781.0</ele><time>2026-03-23T12:17:55Z</time></trkpt><trkpt lat="30.575055232967433" lon="-5.258339016177125"><ele>782.0</ele><time>2026-03-23T12:17:56Z</time></trkpt><trkpt lat="30.574904613642907" lon="-5.258555887520197"><ele>783.0</ele><time>2026-03-23T12:17:57Z</time></trkpt><trkpt lat="30.57475816260043" lon="-5.2587555161190815"><ele>783.0</ele><time>2026-03-23T12:17:58Z</time></trkpt><trkpt lat="30.57460758751183" lon="-5.258917649766843"><ele>783.0</ele><time>2026-03-23T12:17:59Z</time></trkpt><trkpt lat="30.574498290762033" lon="-5.259092480230401"><ele>783.0</ele><time>2026-03-23T12:18:00Z</time></trkpt><trkpt lat="30.57439351114434" lon="-5.259302504211867"><ele>782.0</ele><time>2026-03-23T12:18:01Z</time></trkpt><trkpt lat="30.574284070897736" lon="-5.259497261061765"><ele>781.0</ele><time>2026-03-23T12:18:02Z</time></trkpt><trkpt lat="30.574167255668907" lon="-5.2596959317736705"><ele>780.0</ele><time>2026-03-23T12:18:03Z</time></trkpt><trkpt lat="30.57403374198329" lon="-5.259899858002285"><ele>780.0</ele><time>2026-03-23T12:18:04Z</time></trkpt><trkpt lat="30.573885113004184" lon="-5.2600929441034445"><ele>780.0</ele><time>2026-03-23T12:18:05Z</time></trkpt><trkpt lat="30.573740751719797" lon="-5.260283092834188"><ele>780.0</ele><time>2026-03-23T12:18:06Z</time></trkpt><trkpt lat="30.573598377666947" lon="-5.260487301598136"><ele>780.5</ele><time>2026-03-23T12:18:07Z</time></trkpt><trkpt lat="30.573437978336855" lon="-5.260692569546164"><ele>781.0</ele><time>2026-03-23T12:18:08Z</time></trkpt><trkpt lat="30.57328492954943" lon="-5.260904823713657"><ele>781.0</ele><time>2026-03-23T12:18:09Z</time></trkpt><trkpt lat="30.573122424934418" lon="-5.261114016549222"><ele>781.0</ele><time>2026-03-23T12:18:10Z</time></trkpt><trkpt lat="30.57296757895305" lon="-5.261307417001289"><ele>781.6666666666666</ele><time>2026-03-23T12:18:11Z</time></trkpt><trkpt lat="30.572830389561286" lon="-5.26148873137871"><ele>782.3333333333333</ele><time>2026-03-23T12:18:12Z</time></trkpt><trkpt lat="30.57271165151204" lon="-5.261653202515605"><ele>783.0</ele><time>2026-03-23T12:18:13Z</time></trkpt><trkpt lat="30.572601793830806" lon="-5.26182526964127"><ele>783.0</ele><time>2026-03-23T12:18:14Z</time></trkpt><trkpt lat="30.572511040780704" lon="-5.262030585016082"><ele>783.0</ele><time>2026-03-23T12:18:15Z</time></trkpt><trkpt lat="30.57242798336733" lon="-5.262266502626574"><ele>783.0</ele><time>2026-03-23T12:18:16Z</time></trkpt><trkpt lat="30.572344904325625" lon="-5.262505547703899"><ele>782.3333333333333</ele><time>2026-03-23T12:18:17Z</time></trkpt><trkpt lat="30.572269785518092" lon="-5.262724039703241"><ele>781.6666666666666</ele><time>2026-03-23T12:18:18Z</time></trkpt><trkpt lat="30.572193481492285" lon="-5.262933184330557"><ele>781.0</ele><time>2026-03-23T12:18:19Z</time></trkpt><trkpt lat="30.572112329847368" lon="-5.263164876698306"><ele>780.3333333333333</ele><time>2026-03-23T12:18:20Z</time></trkpt><trkpt lat="30.572027782222648" lon="-5.263399063714732"><ele>779.6666666666667</ele><time>2026-03-23T12:18:21Z</time></trkpt><trkpt lat="30.571935433179384" lon="-5.26364253444039"><ele>779.0</ele><time>2026-03-23T12:18:22Z</time></trkpt><trkpt lat="30.571816685198765" lon="-5.2638799883891405"><ele>779.5</ele><time>2026-03-23T12:18:23Z</time></trkpt><trkpt lat="30.571740419819843" lon="-5.264156091928488"><ele>780.0</ele><time>2026-03-23T12:18:24Z</time></trkpt><trkpt lat="30.57164979666369" lon="-5.264416669954927"><ele>780.0</ele><time>2026-03-23T12:18:25Z</time></trkpt><trkpt lat="30.57153601476119" lon="-5.2646625873060415"><ele>780.0</ele><time>2026-03-23T12:18:26Z</time></trkpt><trkpt lat="30.571428886855198" lon="-5.264913266995713"><ele>780.0</ele><time>2026-03-23T12:18:27Z</time></trkpt><trkpt lat="30.571314833477253" lon="-5.2651661616069205"><ele>780.0</ele><time>2026-03-23T12:18:28Z</time></trkpt><trkpt lat="30.571185946221377" lon="-5.265414160227262"><ele>781.3333333333333</ele><time>2026-03-23T12:18:29Z</time></trkpt><trkpt lat="30.57106304362934" lon="-5.265608980796673"><ele>782.6666666666666</ele><time>2026-03-23T12:18:30Z</time></trkpt><trkpt lat="30.57096129459746" lon="-5.26574141233041"><ele>784.0</ele><time>2026-03-23T12:18:31Z</time></trkpt><trkpt lat="30.57087429823173" lon="-5.265831152177482"><ele>784.2</ele><time>2026-03-23T12:18:32Z</time></trkpt><trkpt lat="30.57078196485355" lon="-5.265896917859495"><ele>784.4000000000001</ele><time>2026-03-23T12:18:33Z</time></trkpt><trkpt lat="30.570684245454775" lon="-5.265936939172101"><ele>784.6</ele><time>2026-03-23T12:18:34Z</time></trkpt><trkpt lat="30.57057589726565" lon="-5.265945563956706"><ele>784.8</ele><time>2026-03-23T12:18:35Z</time></trkpt><trkpt lat="30.57045462953585" lon="-5.265942802047496"><ele>785.0</ele><time>2026-03-23T12:18:36Z</time></trkpt><trkpt lat="30.57032189703493" lon="-5.265957081334555"><ele>785.3333333333334</ele><time>2026-03-23T12:18:37Z</time></trkpt><trkpt lat="30.57017056724527" lon="-5.266014644868886"><ele>785.6666666666667</ele><time>2026-03-23T12:18:38.001Z</time></trkpt><trkpt lat="30.570001686721763" lon="-5.266101171913748"><ele>786.0</ele><time>2026-03-23T12:18:39.001Z</time></trkpt><trkpt lat="30.56981777416614" lon="-5.266199022980464"><ele>786.0</ele><time>2026-03-23T12:18:40.001Z</time></trkpt><trkpt lat="30.56962832453227" lon="-5.266286471872193"><ele>786.0</ele><time>2026-03-23T12:18:41.001Z</time></trkpt><trkpt lat="30.56946036888001" lon="-5.266355983304718"><ele>786.0</ele><time>2026-03-23T12:18:42.001Z</time></trkpt><trkpt lat="30.569324194688807" lon="-5.266431395305639"><ele>786.25</ele><time>2026-03-23T12:18:43.001Z</time></trkpt><trkpt lat="30.56920512917749" lon="-5.266529881833524"><ele>786.5</ele><time>2026-03-23T12:18:44.001Z</time></trkpt><trkpt lat="30.56909921201739" lon="-5.26664840397989"><ele>786.75</ele><time>2026-03-23T12:18:45.001Z</time></trkpt><trkpt lat="30.569026204442803" lon="-5.266761122957927"><ele>787.0</ele><time>2026-03-23T12:18:46.001Z</time></trkpt><trkpt lat="30.56899612555727" lon="-5.266854978895304"><ele>787.0</ele><time>2026-03-23T12:18:47.001Z</time></trkpt><trkpt lat="30.568990240612123" lon="-5.266939644742949"><ele>787.0</ele><time>2026-03-23T12:18:48.001Z</time></trkpt><trkpt lat="30.568996367902216" lon="-5.267044485992334"><ele>787.0</ele><time>2026-03-23T12:18:49.001Z</time></trkpt><trkpt lat="30.56897902379683" lon="-5.267165739285209"><ele>787.0</ele><time>2026-03-23T12:18:50.001Z</time></trkpt><trkpt lat="30.56893209477164" lon="-5.267279427286061"><ele>787.0</ele><time>2026-03-23T12:18:51.001Z</time></trkpt><trkpt lat="30.568861435357526" lon="-5.267393419403852"><ele>786.75</ele><time>2026-03-23T12:18:52.001Z</time></trkpt><trkpt lat="30.568772661530982" lon="-5.267504498919966"><ele>786.5</ele><time>2026-03-23T12:18:53.001Z</time></trkpt><trkpt lat="30.568674903526126" lon="-5.267611547813441"><ele>786.25</ele><time>2026-03-23T12:18:54.001Z</time></trkpt><trkpt lat="30.568570371771674" lon="-5.267719095936227"><ele>786.0</ele><time>2026-03-23T12:18:55.001Z</time></trkpt><trkpt lat="30.568472806848476" lon="-5.267822277536373"><ele>786.0</ele><time>2026-03-23T12:18:56.001Z</time></trkpt><trkpt lat="30.56840269822737" lon="-5.267910355945771"><ele>786.0</ele><time>2026-03-23T12:18:57.001Z</time></trkpt><trkpt lat="30.56835081432984" lon="-5.26799055816214"><ele>786.0</ele><time>2026-03-23T12:18:58.001Z</time></trkpt><trkpt lat="30.568307928145806" lon="-5.2680673206952084"><ele>786.0</ele><time>2026-03-23T12:18:59.001Z</time></trkpt><trkpt lat="30.56827046933652" lon="-5.268148813535016"><ele>786.0</ele><time>2026-03-23T12:19:00.001Z</time></trkpt><trkpt lat="30.56822105460615" lon="-5.26824801426013"><ele>786.0</ele><time>2026-03-23T12:19:01.001Z</time></trkpt><trkpt lat="30.568141602775025" lon="-5.268347851300793"><ele>786.0</ele><time>2026-03-23T12:19:02.001Z</time></trkpt><trkpt lat="30.568045679541772" lon="-5.268451672370561"><ele>786.0</ele><time>2026-03-23T12:19:03.001Z</time></trkpt><trkpt lat="30.567943794449288" lon="-5.2685736731604935"><ele>786.0</ele><time>2026-03-23T12:19:04.001Z</time></trkpt><trkpt lat="30.567847304600658" lon="-5.268712133590608"><ele>786.0</ele><time>2026-03-23T12:19:05.001Z</time></trkpt><trkpt lat="30.567752278201226" lon="-5.2688682478072355"><ele>786.25</ele><time>2026-03-23T12:19:06.001Z</time></trkpt><trkpt lat="30.567651011159505" lon="-5.269010034672577"><ele>786.5</ele><time>2026-03-23T12:19:07Z</time></trkpt><trkpt lat="30.567542354380077" lon="-5.269108944136403"><ele>786.75</ele><time>2026-03-23T12:19:08Z</time></trkpt><trkpt lat="30.567413779306907" lon="-5.269180196866878"><ele>787.0</ele><time>2026-03-23T12:19:09Z</time></trkpt><trkpt lat="30.567261207680925" lon="-5.269231166982113"><ele>787.0</ele><time>2026-03-23T12:19:10Z</time></trkpt><trkpt lat="30.56708512821465" lon="-5.269273681293826"><ele>787.0</ele><time>2026-03-23T12:19:11Z</time></trkpt><trkpt lat="30.566907049430988" lon="-5.269320614639962"><ele>787.0</ele><time>2026-03-23T12:19:12Z</time></trkpt><trkpt lat="30.566733910430454" lon="-5.2693903211469495"><ele>788.0</ele><time>2026-03-23T12:19:13Z</time></trkpt><trkpt lat="30.566587473863194" lon="-5.26946004301167"><ele>789.0</ele><time>2026-03-23T12:19:14Z</time></trkpt><trkpt lat="30.566463487463867" lon="-5.269558687438049"><ele>790.0</ele><time>2026-03-23T12:19:15Z</time></trkpt><trkpt lat="30.566350603053817" lon="-5.269682330723592"><ele>789.6666666666666</ele><time>2026-03-23T12:19:16Z</time></trkpt><trkpt lat="30.566232818385313" lon="-5.269838706149378"><ele>789.3333333333333</ele><time>2026-03-23T12:19:17Z</time></trkpt><trkpt lat="30.56610798975395" lon="-5.270001340500538"><ele>789.0</ele><time>2026-03-23T12:19:18Z</time></trkpt><trkpt lat="30.565975659733343" lon="-5.270160061220288"><ele>789.0</ele><time>2026-03-23T12:19:19Z</time></trkpt><trkpt lat="30.56582253072792" lon="-5.270322201148601"><ele>789.0</ele><time>2026-03-23T12:19:20Z</time></trkpt><trkpt lat="30.565658397656247" lon="-5.270488284892171"><ele>789.0</ele><time>2026-03-23T12:19:21Z</time></trkpt><trkpt lat="30.565479564342166" lon="-5.270663498827542"><ele>789.3333333333333</ele><time>2026-03-23T12:19:22Z</time></trkpt><trkpt lat="30.56531042428374" lon="-5.27082923229497"><ele>789.6666666666666</ele><time>2026-03-23T12:19:23Z</time></trkpt><trkpt lat="30.565149375420802" lon="-5.270979645352282"><ele>790.0</ele><time>2026-03-23T12:19:24Z</time></trkpt><trkpt lat="30.564994428957736" lon="-5.271140933383395"><ele>790.0</ele><time>2026-03-23T12:19:25Z</time></trkpt><trkpt lat="30.564851689279624" lon="-5.271296238625324"><ele>790.0</ele><time>2026-03-23T12:19:26Z</time></trkpt><trkpt lat="30.564709128060844" lon="-5.271445226150766"><ele>790.0</ele><time>2026-03-23T12:19:27Z</time></trkpt><trkpt lat="30.564560591044362" lon="-5.27159935941285"><ele>790.6666666666666</ele><time>2026-03-23T12:19:28Z</time></trkpt><trkpt lat="30.56440353728535" lon="-5.271751958256723"><ele>791.3333333333333</ele><time>2026-03-23T12:19:29Z</time></trkpt><trkpt lat="30.564258731403235" lon="-5.271913610634585"><ele>792.0</ele><time>2026-03-23T12:19:30Z</time></trkpt><trkpt lat="30.564122473614084" lon="-5.272081719068957"><ele>792.0</ele><time>2026-03-23T12:19:31Z</time></trkpt><trkpt lat="30.563989869312206" lon="-5.272259125815826"><ele>792.0</ele><time>2026-03-23T12:19:32Z</time></trkpt><trkpt lat="30.563870679749183" lon="-5.27241448980689"><ele>792.0</ele><time>2026-03-23T12:19:33Z</time></trkpt><trkpt lat="30.563768029536693" lon="-5.272575485288783"><ele>791.6666666666667</ele><time>2026-03-23T12:19:34Z</time></trkpt><trkpt lat="30.56366837956215" lon="-5.272745369855351"><ele>791.3333333333334</ele><time>2026-03-23T12:19:35Z</time></trkpt><trkpt lat="30.563569297533025" lon="-5.272903767410797"><ele>791.0</ele><time>2026-03-23T12:19:36Z</time></trkpt><trkpt lat="30.56346935138533" lon="-5.273048168459192"><ele>790.6666666666667</ele><time>2026-03-23T12:19:37Z</time></trkpt><trkpt lat="30.56336411104361" lon="-5.273188378357627"><ele>790.3333333333333</ele><time>2026-03-23T12:19:38Z</time></trkpt><trkpt lat="30.563249975830917" lon="-5.273344204212663"><ele>790.0</ele><time>2026-03-23T12:19:39Z</time></trkpt><trkpt lat="30.56313256955947" lon="-5.273509169040844"><ele>790.0</ele><time>2026-03-23T12:19:40Z</time></trkpt><trkpt lat="30.563010853542796" lon="-5.273683463468321"><ele>790.0</ele><time>2026-03-23T12:19:41Z</time></trkpt><trkpt lat="30.56288971138475" lon="-5.273868246615845"><ele>790.0</ele><time>2026-03-23T12:19:42Z</time></trkpt><trkpt lat="30.562767752466478" lon="-5.274067210465027"><ele>790.3333333333333</ele><time>2026-03-23T12:19:43Z</time></trkpt><trkpt lat="30.562646857008964" lon="-5.274271778645469"><ele>790.6666666666667</ele><time>2026-03-23T12:19:44Z</time></trkpt><trkpt lat="30.562523081141457" lon="-5.274494769499545"><ele>791.0</ele><time>2026-03-23T12:19:45Z</time></trkpt><trkpt lat="30.56239456134242" lon="-5.27472669112317"><ele>792.5</ele><time>2026-03-23T12:19:46Z</time></trkpt><trkpt lat="30.56228433374128" lon="-5.274977916351355"><ele>794.0</ele><time>2026-03-23T12:19:47Z</time></trkpt><trkpt lat="30.562188923213284" lon="-5.275213169350651"><ele>794.0</ele><time>2026-03-23T12:19:48Z</time></trkpt><trkpt lat="30.562103913632246" lon="-5.275424120466774"><ele>794.0</ele><time>2026-03-23T12:19:49Z</time></trkpt><trkpt lat="30.56201786214493" lon="-5.275615682488615"><ele>794.0</ele><time>2026-03-23T12:19:50Z</time></trkpt><trkpt lat="30.561938551814578" lon="-5.275799732199633"><ele>794.0</ele><time>2026-03-23T12:19:51Z</time></trkpt><trkpt lat="30.561866685713355" lon="-5.275961048678628"><ele>794.0</ele><time>2026-03-23T12:19:52Z</time></trkpt><trkpt lat="30.56180086376968" lon="-5.276115654026987"><ele>794.0</ele><time>2026-03-23T12:19:53Z</time></trkpt><trkpt lat="30.561743403084098" lon="-5.276242706934705"><ele>794.0</ele><time>2026-03-23T12:19:54Z</time></trkpt><trkpt lat="30.561697182584425" lon="-5.276348827427195"><ele>794.0000000000001</ele><time>2026-03-23T12:19:55Z</time></trkpt><trkpt lat="30.561665662396795" lon="-5.27642489210537"><ele>794.0</ele><time>2026-03-23T12:19:56Z</time></trkpt><trkpt lat="30.561633798143795" lon="-5.276512162753834"><ele>794.0</ele><time>2026-03-23T12:19:58Z</time></trkpt><trkpt lat="30.56161329758653" lon="-5.276585397701719"><ele>794.0</ele><time>2026-03-23T12:29:34.001Z</time></trkpt><trkpt lat="30.561559141416723" lon="-5.276723217597957"><ele>794.0000000000001</ele><time>2026-03-23T12:29:37Z</time></trkpt><trkpt lat="30.561543207482224" lon="-5.276799755203205"><ele>794.0</ele><time>2026-03-23T12:29:38Z</time></trkpt><trkpt lat="30.561497315844555" lon="-5.276888106977095"><ele>793.75</ele><time>2026-03-23T12:29:39Z</time></trkpt><trkpt lat="30.561460172527806" lon="-5.2770033479541665"><ele>793.5</ele><time>2026-03-23T12:29:40Z</time></trkpt><trkpt lat="30.561419974841634" lon="-5.2771364966393115"><ele>793.25</ele><time>2026-03-23T12:29:41Z</time></trkpt><trkpt lat="30.561386324042605" lon="-5.277306772199938"><ele>793.0</ele><time>2026-03-23T12:29:42Z</time></trkpt><trkpt lat="30.561343318697666" lon="-5.277480009858509"><ele>793.0</ele><time>2026-03-23T12:29:43Z</time></trkpt><trkpt lat="30.56131203447421" lon="-5.277653886284494"><ele>793.0</ele><time>2026-03-23T12:29:44Z</time></trkpt><trkpt lat="30.561285881152447" lon="-5.277829269458701"><ele>793.0</ele><time>2026-03-23T12:29:45Z</time></trkpt><trkpt lat="30.561237206992732" lon="-5.277978016824467"><ele>793.0</ele><time>2026-03-23T12:29:46Z</time></trkpt><trkpt lat="30.56120888931234" lon="-5.278109612857747"><ele>793.4999999999999</ele><time>2026-03-23T12:29:47Z</time></trkpt><trkpt lat="30.561187843610455" lon="-5.278223613977706"><ele>794.0</ele><time>2026-03-23T12:29:48Z</time></trkpt><trkpt lat="30.56116936171414" lon="-5.278329022313007"><ele>794.5</ele><time>2026-03-23T12:29:49Z</time></trkpt><trkpt lat="30.561152830628377" lon="-5.278423304720946"><ele>795.0</ele><time>2026-03-23T12:29:50Z</time></trkpt><trkpt lat="30.56113549493637" lon="-5.278522176032716"><ele>795.4999999999999</ele><time>2026-03-23T12:29:51Z</time></trkpt><trkpt lat="30.561119706771077" lon="-5.278612331309334"><ele>796.0</ele><time>2026-03-23T12:29:52Z</time></trkpt><trkpt lat="30.561103754072303" lon="-5.278703977521661"><ele>795.9999999999999</ele><time>2026-03-23T12:29:53Z</time></trkpt><trkpt lat="30.561089473508883" lon="-5.278786017588691"><ele>796.0</ele><time>2026-03-23T12:29:54Z</time></trkpt><trkpt lat="30.5610754604691" lon="-5.278865790316209"><ele>796.0</ele><time>2026-03-23T12:29:55Z</time></trkpt><trkpt lat="30.56105110993927" lon="-5.278999718188317"><ele>796.0</ele><time>2026-03-23T12:29:57Z</time></trkpt><trkpt lat="30.561023000138142" lon="-5.279099709381831"><ele>795.9999999999999</ele><time>2026-03-23T12:29:59Z</time></trkpt><trkpt lat="30.560996775802423" lon="-5.279187136047715"><ele>796.0</ele><time>2026-03-23T12:30:01Z</time></trkpt><trkpt lat="30.560971134273547" lon="-5.279270832966045"><ele>796.0</ele><time>2026-03-23T12:30:03Z</time></trkpt><trkpt lat="30.560945772575774" lon="-5.279346377096829"><ele>796.0</ele><time>2026-03-23T12:30:06Z</time></trkpt><trkpt lat="30.560910922475603" lon="-5.279450183991759"><ele>796.0</ele><time>2026-03-23T12:30:14Z</time></trkpt><trkpt lat="30.56086320408526" lon="-5.279591298410387"><ele>796.0</ele><time>2026-03-23T12:30:16Z</time></trkpt><trkpt lat="30.560835010477845" lon="-5.279674407559785"><ele>796.0</ele><time>2026-03-23T12:30:17Z</time></trkpt><trkpt lat="30.56080806592855" lon="-5.27977140500246"><ele>796.1666666666666</ele><time>2026-03-23T12:30:18Z</time></trkpt><trkpt lat="30.56078312130298" lon="-5.279867339577361"><ele>796.3333333333333</ele><time>2026-03-23T12:30:19Z</time></trkpt><trkpt lat="30.560770845950934" lon="-5.27997360927743"><ele>796.5</ele><time>2026-03-23T12:30:20Z</time></trkpt><trkpt lat="30.5607624103962" lon="-5.280067096263431"><ele>796.6666666666667</ele><time>2026-03-23T12:30:21Z</time></trkpt><trkpt lat="30.560752934147285" lon="-5.280198196807609"><ele>796.8333333333334</ele><time>2026-03-23T12:30:23Z</time></trkpt><trkpt lat="30.560746949753533" lon="-5.28028098876147"><ele>797.0</ele><time>2026-03-23T12:30:25Z</time></trkpt><trkpt lat="30.560758735771774" lon="-5.280189731573013"><ele>797.0000000000001</ele><time>2026-03-23T12:30:44.001Z</time></trkpt><trkpt lat="30.560794147079648" lon="-5.280089799842265"><ele>797.0</ele><time>2026-03-23T12:30:46.001Z</time></trkpt><trkpt lat="30.56079548428401" lon="-5.279989355927609"><ele>797.0</ele><time>2026-03-23T12:30:48.001Z</time></trkpt><trkpt lat="30.56080314683295" lon="-5.279909455615992"><ele>797.0</ele><time>2026-03-23T12:30:50.001Z</time></trkpt><trkpt lat="30.560882819135074" lon="-5.279883374902102"><ele>797.0000000000001</ele><time>2026-03-23T12:30:53.001Z</time></trkpt><trkpt lat="30.560917035268517" lon="-5.27995119484083"><ele>797.0</ele><time>2026-03-23T12:30:56.001Z</time></trkpt><trkpt lat="30.560842957027877" lon="-5.280037844761456"><ele>797.0</ele><time>2026-03-23T12:30:58.001Z</time></trkpt><trkpt lat="30.560758006595492" lon="-5.280128021268726"><ele>797.0</ele><time>2026-03-23T12:31:01.001Z</time></trkpt><trkpt lat="30.560747527284303" lon="-5.28027299887215"><ele>797.0</ele><time>2026-03-23T12:31:03.001Z</time></trkpt><trkpt lat="30.560740877450108" lon="-5.280364141645098"><ele>797.0</ele><time>2026-03-23T12:31:04.001Z</time></trkpt><trkpt lat="30.560732557361728" lon="-5.280468194057164"><ele>797.0</ele><time>2026-03-23T12:31:05.001Z</time></trkpt><trkpt lat="30.560723531838015" lon="-5.280576986577175"><ele>797.0</ele><time>2026-03-23T12:31:06.001Z</time></trkpt><trkpt lat="30.560710255752216" lon="-5.2806818668059226"><ele>797.0</ele><time>2026-03-23T12:31:07.001Z</time></trkpt><trkpt lat="30.560694445889766" lon="-5.280796642572982"><ele>797.0</ele><time>2026-03-23T12:31:08.001Z</time></trkpt><trkpt lat="30.56066636274299" lon="-5.2809045667240175"><ele>797.0</ele><time>2026-03-23T12:31:09.001Z</time></trkpt><trkpt lat="30.560635912713504" lon="-5.281022207221898"><ele>797.0</ele><time>2026-03-23T12:31:10.001Z</time></trkpt><trkpt lat="30.560603719665565" lon="-5.2811455976441435"><ele>797.0</ele><time>2026-03-23T12:31:11.001Z</time></trkpt><trkpt lat="30.560571510622893" lon="-5.281263734645016"><ele>797.0</ele><time>2026-03-23T12:31:12.001Z</time></trkpt><trkpt lat="30.560542654010806" lon="-5.281368762068513"><ele>797.0</ele><time>2026-03-23T12:31:13.001Z</time></trkpt><trkpt lat="30.5605162850288" lon="-5.281470727081062"><ele>797.0</ele><time>2026-03-23T12:31:14.001Z</time></trkpt><trkpt lat="30.560493714058904" lon="-5.281568036615328"><ele>797.0</ele><time>2026-03-23T12:31:15.001Z</time></trkpt><trkpt lat="30.560475266130226" lon="-5.2816495578877"><ele>797.0</ele><time>2026-03-23T12:31:16.001Z</time></trkpt><trkpt lat="30.560462635438743" lon="-5.2817575745809835"><ele>797.0</ele><time>2026-03-23T12:31:17.001Z</time></trkpt><trkpt lat="30.560425002464175" lon="-5.281853160391842"><ele>797.0</ele><time>2026-03-23T12:31:18.001Z</time></trkpt><trkpt lat="30.560388103649547" lon="-5.281959423163505"><ele>797.0</ele><time>2026-03-23T12:31:19.001Z</time></trkpt><trkpt lat="30.56034319466392" lon="-5.282056037002863"><ele>797.0</ele><time>2026-03-23T12:31:20.001Z</time></trkpt><trkpt lat="30.560324797622346" lon="-5.2821644200773425"><ele>797.0</ele><time>2026-03-23T12:31:21.001Z</time></trkpt><trkpt lat="30.56027272490551" lon="-5.282261608710749"><ele>797.0</ele><time>2026-03-23T12:31:22.001Z</time></trkpt><trkpt lat="30.560243387596014" lon="-5.282372148067494"><ele>797.0</ele><time>2026-03-23T12:31:23.001Z</time></trkpt><trkpt lat="30.56018637595542" lon="-5.282482949570266"><ele>797.0</ele><time>2026-03-23T12:31:24.001Z</time></trkpt><trkpt lat="30.560140421366878" lon="-5.282589966178288"><ele>797.0</ele><time>2026-03-23T12:31:25.001Z</time></trkpt><trkpt lat="30.56009366488779" lon="-5.2826956171481125"><ele>797.2</ele><time>2026-03-23T12:31:26.001Z</time></trkpt><trkpt lat="30.560038640303638" lon="-5.282795977014327"><ele>797.4000000000001</ele><time>2026-03-23T12:31:27.001Z</time></trkpt><trkpt lat="30.56001109857689" lon="-5.28290660083987"><ele>797.5999999999999</ele><time>2026-03-23T12:31:28.001Z</time></trkpt><trkpt lat="30.559972898002293" lon="-5.283007653870499"><ele>797.8</ele><time>2026-03-23T12:31:29.001Z</time></trkpt><trkpt lat="30.559919830881324" lon="-5.283102491181606"><ele>798.0</ele><time>2026-03-23T12:31:30.001Z</time></trkpt><trkpt lat="30.55988614652084" lon="-5.283209580400584"><ele>798.0</ele><time>2026-03-23T12:31:31.001Z</time></trkpt><trkpt lat="30.559825467770708" lon="-5.283300796866572"><ele>798.0</ele><time>2026-03-23T12:31:32.001Z</time></trkpt><trkpt lat="30.55977161408421" lon="-5.283401134206629"><ele>798.0</ele><time>2026-03-23T12:31:33.001Z</time></trkpt><trkpt lat="30.55971954223297" lon="-5.2835148503315645"><ele>798.0</ele><time>2026-03-23T12:31:34.001Z</time></trkpt><trkpt lat="30.559654857289452" lon="-5.283632105760203"><ele>798.0</ele><time>2026-03-23T12:31:35.001Z</time></trkpt><trkpt lat="30.55961935756175" lon="-5.283765249706055"><ele>798.0</ele><time>2026-03-23T12:31:36.001Z</time></trkpt><trkpt lat="30.55955524699242" lon="-5.283890723602946"><ele>798.0</ele><time>2026-03-23T12:31:37.001Z</time></trkpt><trkpt lat="30.55952172770475" lon="-5.284028965074326"><ele>798.0</ele><time>2026-03-23T12:31:38.001Z</time></trkpt><trkpt lat="30.559478317462784" lon="-5.28416316615732"><ele>798.0</ele><time>2026-03-23T12:31:39.001Z</time></trkpt><trkpt lat="30.559435545423984" lon="-5.284292830604896"><ele>798.4</ele><time>2026-03-23T12:31:40.001Z</time></trkpt><trkpt lat="30.55939219248352" lon="-5.284422351563149"><ele>798.8</ele><time>2026-03-23T12:31:41.001Z</time></trkpt><trkpt lat="30.559351792576795" lon="-5.284534586873986"><ele>799.2</ele><time>2026-03-23T12:31:42.001Z</time></trkpt><trkpt lat="30.55931641067764" lon="-5.284632881694948"><ele>799.6</ele><time>2026-03-23T12:31:43Z</time></trkpt><trkpt lat="30.55928558163589" lon="-5.284718527951659"><ele>800.0</ele><time>2026-03-23T12:31:44Z</time></trkpt><trkpt lat="30.559256399786317" lon="-5.284799598297154"><ele>800.0000000000001</ele><time>2026-03-23T12:31:45Z</time></trkpt><trkpt lat="30.559229682626828" lon="-5.284873655229902"><ele>800.0</ele><time>2026-03-23T12:31:46Z</time></trkpt><trkpt lat="30.559205133858708" lon="-5.284941685215903"><ele>800.0</ele><time>2026-03-23T12:31:47Z</time></trkpt><trkpt lat="30.559168643239634" lon="-5.285039043372217"><ele>800.0</ele><time>2026-03-23T12:31:49Z</time></trkpt><trkpt lat="30.559137067361526" lon="-5.285120940805659"><ele>800.0000000000001</ele><time>2026-03-23T12:31:59Z</time></trkpt><trkpt lat="30.559108883964203" lon="-5.2851933443679195"><ele>800.0</ele><time>2026-03-23T12:32:00Z</time></trkpt><trkpt lat="30.559073188135187" lon="-5.28528504748229"><ele>800.0</ele><time>2026-03-23T12:32:01Z</time></trkpt><trkpt lat="30.559034101760638" lon="-5.28538546089649"><ele>800.0</ele><time>2026-03-23T12:32:02Z</time></trkpt><trkpt lat="30.55899092428305" lon="-5.285490001633946"><ele>800.0</ele><time>2026-03-23T12:32:03Z</time></trkpt><trkpt lat="30.55893681171951" lon="-5.285615660858298"><ele>800.0</ele><time>2026-03-23T12:32:04Z</time></trkpt><trkpt lat="30.55887460013803" lon="-5.285760127595559"><ele>800.6666666666667</ele><time>2026-03-23T12:32:05Z</time></trkpt><trkpt lat="30.558798131116895" lon="-5.285915426884259"><ele>801.3333333333333</ele><time>2026-03-23T12:32:06Z</time></trkpt><trkpt lat="30.55871909230072" lon="-5.286079548103445"><ele>802.0</ele><time>2026-03-23T12:32:07Z</time></trkpt><trkpt lat="30.558629288399707" lon="-5.286246146243033"><ele>802.6666666666666</ele><time>2026-03-23T12:32:08Z</time></trkpt><trkpt lat="30.5585253630429" lon="-5.286420276767443"><ele>803.3333333333333</ele><time>2026-03-23T12:32:09Z</time></trkpt><trkpt lat="30.55841100698969" lon="-5.286575698502993"><ele>804.0</ele><time>2026-03-23T12:32:10Z</time></trkpt><trkpt lat="30.558287065060547" lon="-5.2867165050546125"><ele>804.0</ele><time>2026-03-23T12:32:11Z</time></trkpt><trkpt lat="30.558173356499925" lon="-5.286874883691545"><ele>804.0</ele><time>2026-03-23T12:32:12Z</time></trkpt><trkpt lat="30.558072612882253" lon="-5.28704512109624"><ele>804.0</ele><time>2026-03-23T12:32:13Z</time></trkpt><trkpt lat="30.557991810574247" lon="-5.287210845019556"><ele>804.0</ele><time>2026-03-23T12:32:14Z</time></trkpt><trkpt lat="30.55791112443272" lon="-5.287385287900145"><ele>804.0</ele><time>2026-03-23T12:32:15Z</time></trkpt><trkpt lat="30.557842062454007" lon="-5.287550217022741"><ele>804.0</ele><time>2026-03-23T12:32:16Z</time></trkpt><trkpt lat="30.557765559592564" lon="-5.287703331827174"><ele>804.0</ele><time>2026-03-23T12:32:17Z</time></trkpt><trkpt lat="30.557680635192135" lon="-5.287843774418534"><ele>804.0</ele><time>2026-03-23T12:32:18Z</time></trkpt><trkpt lat="30.55758658614562" lon="-5.288011571537514"><ele>804.0</ele><time>2026-03-23T12:32:19Z</time></trkpt><trkpt lat="30.55750638400639" lon="-5.288176289301203"><ele>803.6666666666667</ele><time>2026-03-23T12:32:20Z</time></trkpt><trkpt lat="30.557429858331123" lon="-5.288339887661161"><ele>803.3333333333334</ele><time>2026-03-23T12:32:21Z</time></trkpt><trkpt lat="30.557355602164975" lon="-5.288504183052729"><ele>803.0</ele><time>2026-03-23T12:32:22Z</time></trkpt><trkpt lat="30.557271266887945" lon="-5.288664659820383"><ele>803.0</ele><time>2026-03-23T12:32:23Z</time></trkpt><trkpt lat="30.557182741741677" lon="-5.288813243870178"><ele>803.0</ele><time>2026-03-23T12:32:24Z</time></trkpt><trkpt lat="30.557090193449927" lon="-5.288959626677434"><ele>803.0</ele><time>2026-03-23T12:32:25Z</time></trkpt><trkpt lat="30.55699456508917" lon="-5.289105473808637"><ele>804.3333333333334</ele><time>2026-03-23T12:32:26Z</time></trkpt><trkpt lat="30.556886072697207" lon="-5.289248240045787"><ele>805.6666666666667</ele><time>2026-03-23T12:32:27Z</time></trkpt><trkpt lat="30.556763220896485" lon="-5.289381496304975"><ele>807.0</ele><time>2026-03-23T12:32:28Z</time></trkpt><trkpt lat="30.556675019084658" lon="-5.289559441401005"><ele>807.0</ele><time>2026-03-23T12:32:29Z</time></trkpt><trkpt lat="30.55659083687638" lon="-5.289720628842221"><ele>807.0</ele><time>2026-03-23T12:32:30Z</time></trkpt><trkpt lat="30.556485631000868" lon="-5.289870093072688"><ele>807.0</ele><time>2026-03-23T12:32:31Z</time></trkpt><trkpt lat="30.556376289840685" lon="-5.290027204193896"><ele>807.3333333333333</ele><time>2026-03-23T12:32:32Z</time></trkpt><trkpt lat="30.556276245650906" lon="-5.290183064692146"><ele>807.6666666666666</ele><time>2026-03-23T12:32:33Z</time></trkpt><trkpt lat="30.556174452619906" lon="-5.290341649686404"><ele>808.0</ele><time>2026-03-23T12:32:34.001Z</time></trkpt><trkpt lat="30.55607387584304" lon="-5.290498648316681"><ele>807.3333333333333</ele><time>2026-03-23T12:32:35.001Z</time></trkpt><trkpt lat="30.55598727886929" lon="-5.290663561180395"><ele>806.6666666666667</ele><time>2026-03-23T12:32:36.001Z</time></trkpt><trkpt lat="30.555867171062825" lon="-5.2908026075709955"><ele>806.0</ele><time>2026-03-23T12:32:37.001Z</time></trkpt><trkpt lat="30.55576273055788" lon="-5.290963676842465"><ele>806.0</ele><time>2026-03-23T12:32:38.001Z</time></trkpt><trkpt lat="30.555733643590155" lon="-5.291151168963249"><ele>806.0</ele><time>2026-03-23T12:32:39.001Z</time></trkpt><trkpt lat="30.55567932555274" lon="-5.291327710285899"><ele>806.0</ele><time>2026-03-23T12:32:40.001Z</time></trkpt><trkpt lat="30.555627173382685" lon="-5.2915063361190295"><ele>806.0</ele><time>2026-03-23T12:32:41.001Z</time></trkpt><trkpt lat="30.555545900795572" lon="-5.291668772718488"><ele>806.0</ele><time>2026-03-23T12:32:42.001Z</time></trkpt><trkpt lat="30.55549066680688" lon="-5.29184195287745"><ele>806.0</ele><time>2026-03-23T12:32:43.001Z</time></trkpt><trkpt lat="30.55545787850688" lon="-5.292028218180076"><ele>806.0</ele><time>2026-03-23T12:32:44.001Z</time></trkpt><trkpt lat="30.555433304841088" lon="-5.292198158586682"><ele>806.0</ele><time>2026-03-23T12:32:45.001Z</time></trkpt><trkpt lat="30.55540812717632" lon="-5.292368275202449"><ele>806.0</ele><time>2026-03-23T12:32:46.001Z</time></trkpt><trkpt lat="30.5553670789614" lon="-5.292527189223134"><ele>806.0</ele><time>2026-03-23T12:32:47.001Z</time></trkpt><trkpt lat="30.55530760337475" lon="-5.292690409746478"><ele>806.6666666666667</ele><time>2026-03-23T12:32:48.001Z</time></trkpt><trkpt lat="30.555275990262203" lon="-5.292877199126104"><ele>807.3333333333333</ele><time>2026-03-23T12:32:49.001Z</time></trkpt><trkpt lat="30.555248376874992" lon="-5.293047727336419"><ele>808.0</ele><time>2026-03-23T12:32:50.001Z</time></trkpt><trkpt lat="30.555194595710635" lon="-5.293204647781134"><ele>808.6666666666666</ele><time>2026-03-23T12:32:51.001Z</time></trkpt><trkpt lat="30.55512745387781" lon="-5.2933620146003495"><ele>809.3333333333333</ele><time>2026-03-23T12:32:52.001Z</time></trkpt><trkpt lat="30.55506246484409" lon="-5.29353123708547"><ele>810.0</ele><time>2026-03-23T12:32:53.001Z</time></trkpt><trkpt lat="30.555003958489475" lon="-5.293698241165247"><ele>810.0</ele><time>2026-03-23T12:32:54.001Z</time></trkpt><trkpt lat="30.554945928643033" lon="-5.293863884986608"><ele>810.0</ele><time>2026-03-23T12:32:55.001Z</time></trkpt><trkpt lat="30.55488767722496" lon="-5.2940309861126265"><ele>810.0</ele><time>2026-03-23T12:32:56.001Z</time></trkpt><trkpt lat="30.554828488249683" lon="-5.294203106647082"><ele>810.0</ele><time>2026-03-23T12:32:57.001Z</time></trkpt><trkpt lat="30.554769240951593" lon="-5.2943753968172365"><ele>810.0</ele><time>2026-03-23T12:32:58.001Z</time></trkpt><trkpt lat="30.554710884637657" lon="-5.294545096070037"><ele>810.0</ele><time>2026-03-23T12:32:59.001Z</time></trkpt><trkpt lat="30.5546668415325" lon="-5.2947234825535565"><ele>810.0</ele><time>2026-03-23T12:33:00.001Z</time></trkpt><trkpt lat="30.55460025955025" lon="-5.294893087251187"><ele>810.0</ele><time>2026-03-23T12:33:01.001Z</time></trkpt><trkpt lat="30.554539484762007" lon="-5.2950730229418195"><ele>810.0</ele><time>2026-03-23T12:33:02.001Z</time></trkpt><trkpt lat="30.554482526099243" lon="-5.29524998364053"><ele>810.0</ele><time>2026-03-23T12:33:03.001Z</time></trkpt><trkpt lat="30.55442242692871" lon="-5.295419888424515"><ele>810.0</ele><time>2026-03-23T12:33:04.001Z</time></trkpt><trkpt lat="30.554333093953883" lon="-5.295557457834051"><ele>810.0</ele><time>2026-03-23T12:33:05.001Z</time></trkpt><trkpt lat="30.554226604954398" lon="-5.295671346902529"><ele>810.0</ele><time>2026-03-23T12:33:06.001Z</time></trkpt><trkpt lat="30.554121293272473" lon="-5.295803436133471"><ele>810.0</ele><time>2026-03-23T12:33:07.001Z</time></trkpt><trkpt lat="30.554043612398758" lon="-5.295967388918566"><ele>810.0</ele><time>2026-03-23T12:33:08.001Z</time></trkpt><trkpt lat="30.553978214955098" lon="-5.296136863397446"><ele>810.0</ele><time>2026-03-23T12:33:09.001Z</time></trkpt><trkpt lat="30.553911827571767" lon="-5.296296018003277"><ele>810.0</ele><time>2026-03-23T12:33:10.001Z</time></trkpt><trkpt lat="30.553847954231863" lon="-5.296463848009192"><ele>810.0</ele><time>2026-03-23T12:33:11.001Z</time></trkpt><trkpt lat="30.553789642692124" lon="-5.296628396622438"><ele>811.3333333333333</ele><time>2026-03-23T12:33:12.001Z</time></trkpt><trkpt lat="30.553699520794176" lon="-5.296768326175101"><ele>812.6666666666666</ele><time>2026-03-23T12:33:13.001Z</time></trkpt><trkpt lat="30.553611246477743" lon="-5.296921466720926"><ele>814.0</ele><time>2026-03-23T12:33:14.001Z</time></trkpt><trkpt lat="30.55352289899906" lon="-5.297092174331142"><ele>814.6666666666666</ele><time>2026-03-23T12:33:15.001Z</time></trkpt><trkpt lat="30.553454078552097" lon="-5.297261926916665"><ele>815.3333333333333</ele><time>2026-03-23T12:33:16.001Z</time></trkpt><trkpt lat="30.55340495435017" lon="-5.2974408983893975"><ele>816.0</ele><time>2026-03-23T12:33:17.001Z</time></trkpt><trkpt lat="30.553336802661853" lon="-5.297612452360869"><ele>816.0</ele><time>2026-03-23T12:33:18.001Z</time></trkpt><trkpt lat="30.55329070005407" lon="-5.2977941158583555"><ele>816.0</ele><time>2026-03-23T12:33:19.001Z</time></trkpt><trkpt lat="30.553249527675195" lon="-5.297972474285904"><ele>816.0</ele><time>2026-03-23T12:33:20.001Z</time></trkpt><trkpt lat="30.55320745597226" lon="-5.298154728539767"><ele>814.6666666666667</ele><time>2026-03-23T12:33:21.001Z</time></trkpt><trkpt lat="30.55316183804812" lon="-5.298326991650123"><ele>813.3333333333334</ele><time>2026-03-23T12:33:22.001Z</time></trkpt><trkpt lat="30.55311251497875" lon="-5.298508842707734"><ele>812.0</ele><time>2026-03-23T12:33:23.001Z</time></trkpt><trkpt lat="30.55305932402721" lon="-5.29867527750217"><ele>812.0</ele><time>2026-03-23T12:33:24.001Z</time></trkpt><trkpt lat="30.55299726312258" lon="-5.298842687682572"><ele>812.0</ele><time>2026-03-23T12:33:25.001Z</time></trkpt><trkpt lat="30.552938716814158" lon="-5.299016488444542"><ele>812.0</ele><time>2026-03-23T12:33:26.001Z</time></trkpt><trkpt lat="30.55289091009401" lon="-5.299203182338819"><ele>813.3333333333334</ele><time>2026-03-23T12:33:27.001Z</time></trkpt><trkpt lat="30.552853236605692" lon="-5.299383182939145"><ele>814.6666666666667</ele><time>2026-03-23T12:33:28.001Z</time></trkpt><trkpt lat="30.552813349304195" lon="-5.29956846467475"><ele>816.0</ele><time>2026-03-23T12:33:29.001Z</time></trkpt><trkpt lat="30.552764309727532" lon="-5.2997436530839"><ele>814.3333333333333</ele><time>2026-03-23T12:33:30.001Z</time></trkpt><trkpt lat="30.55271889492055" lon="-5.29992291881272"><ele>812.6666666666666</ele><time>2026-03-23T12:33:31.001Z</time></trkpt><trkpt lat="30.55263978848435" lon="-5.300091055211971"><ele>811.0</ele><time>2026-03-23T12:33:32.001Z</time></trkpt><trkpt lat="30.5525854529922" lon="-5.300272857720153"><ele>811.0</ele><time>2026-03-23T12:33:33.001Z</time></trkpt><trkpt lat="30.55252629327381" lon="-5.300440939812214"><ele>811.0</ele><time>2026-03-23T12:33:34.001Z</time></trkpt><trkpt lat="30.552466366537974" lon="-5.300610232711434"><ele>811.0</ele><time>2026-03-23T12:33:35.001Z</time></trkpt><trkpt lat="30.55239809742963" lon="-5.30078871981472"><ele>810.6666666666666</ele><time>2026-03-23T12:33:36.001Z</time></trkpt><trkpt lat="30.552325126242565" lon="-5.300958187397042"><ele>810.3333333333333</ele><time>2026-03-23T12:33:37.001Z</time></trkpt><trkpt lat="30.552241319670703" lon="-5.301119479581544"><ele>810.0</ele><time>2026-03-23T12:33:38.001Z</time></trkpt><trkpt lat="30.552160757726465" lon="-5.301291621712147"><ele>811.0</ele><time>2026-03-23T12:33:39.001Z</time></trkpt><trkpt lat="30.552085655416615" lon="-5.301451088197053"><ele>812.0</ele><time>2026-03-23T12:33:40.001Z</time></trkpt><trkpt lat="30.552011402344053" lon="-5.301608118631427"><ele>813.0</ele><time>2026-03-23T12:33:41.001Z</time></trkpt><trkpt lat="30.55193309970108" lon="-5.301780395959609"><ele>813.6666666666667</ele><time>2026-03-23T12:33:42.001Z</time></trkpt><trkpt lat="30.55186196010886" lon="-5.301941024833763"><ele>814.3333333333334</ele><time>2026-03-23T12:33:43.001Z</time></trkpt><trkpt lat="30.55174102273139" lon="-5.302067525146328"><ele>815.0</ele><time>2026-03-23T12:33:44.001Z</time></trkpt><trkpt lat="30.551639684085494" lon="-5.302205736650891"><ele>816.0</ele><time>2026-03-23T12:33:45.001Z</time></trkpt><trkpt lat="30.551543790883397" lon="-5.302367907730578"><ele>817.0</ele><time>2026-03-23T12:33:46.001Z</time></trkpt><trkpt lat="30.551490852952483" lon="-5.302560579840458"><ele>818.0</ele><time>2026-03-23T12:33:47.001Z</time></trkpt><trkpt lat="30.551452699644663" lon="-5.302741372944314"><ele>810.0</ele><time>2026-03-23T12:33:48.001Z</time></trkpt><trkpt lat="30.553911827571767" lon="-5.296296018003277"><ele>810.3333333333333</ele><time>2026-03-23T12:33:10.001Z</time></trkpt><trkpt lat="30.553847954231863" lon="-5.296463848009192"><ele>810.6666666666666</ele><time>2026-03-23T12:33:11.001Z</time></trkpt><trkpt lat="30.553789642692124" lon="-5.296628396622438"><ele>811.0</ele><time>2026-03-23T12:33:12.001Z</time></trkpt><trkpt lat="30.553699520794176" lon="-5.296768326175101"><ele>812.0</ele><time>2026-03-23T12:33:13.001Z</time></trkpt><trkpt lat="30.553611246477743" lon="-5.296921466720926"><ele>813.0</ele><time>2026-03-23T12:33:14.001Z</time></trkpt><trkpt lat="30.55352289899906" lon="-5.297092174331142"><ele>814.0</ele><time>2026-03-23T12:33:15.001Z</time></trkpt><trkpt lat="30.553454078552097" lon="-5.297261926916665"><ele>814.6666666666666</ele><time>2026-03-23T12:33:16.001Z</time></trkpt><trkpt lat="30.55340495435017" lon="-5.2974408983893975"><ele>815.3333333333333</ele><time>2026-03-23T12:33:17.001Z</time></trkpt><trkpt lat="30.553336802661853" lon="-5.297612452360869"><ele>816.0</ele><time>2026-03-23T12:33:18.001Z</time></trkpt><trkpt lat="30.55329070005407" lon="-5.2977941158583555"><ele>816.0</ele><time>2026-03-23T12:33:19.001Z</time></trkpt><trkpt lat="30.553249527675195" lon="-5.297972474285904"><ele>816.0</ele><time>2026-03-23T12:33:20.001Z</time></trkpt><trkpt lat="30.55320745597226" lon="-5.298154728539767"><ele>816.0</ele><time>2026-03-23T12:33:21.001Z</time></trkpt><trkpt lat="30.55316183804812" lon="-5.298326991650123"><ele>814.6666666666667</ele><time>2026-03-23T12:33:22.001Z</time></trkpt><trkpt lat="30.55311251497875" lon="-5.298508842707734"><ele>813.3333333333334</ele><time>2026-03-23T12:33:23.001Z</time></trkpt><trkpt lat="30.55305932402721" lon="-5.29867527750217"><ele>812.0</ele><time>2026-03-23T12:33:24.001Z</time></trkpt><trkpt lat="30.55299726312258" lon="-5.298842687682572"><ele>811.3333333333334</ele><time>2026-03-23T12:33:25.001Z</time></trkpt><trkpt lat="30.552938716814158" lon="-5.299016488444542"><ele>810.6666666666667</ele><time>2026-03-23T12:33:26.001Z</time></trkpt><trkpt lat="30.55289091009401" lon="-5.299203182338819"><ele>810.0</ele><time>2026-03-23T12:33:27.001Z</time></trkpt><trkpt lat="30.552853236605692" lon="-5.299383182939145"><ele>810.3333333333333</ele><time>2026-03-23T12:33:28.001Z</time></trkpt><trkpt lat="30.552813349304195" lon="-5.29956846467475"><ele>810.6666666666666</ele><time>2026-03-23T12:33:29.001Z</time></trkpt><trkpt lat="30.552764309727532" lon="-5.2997436530839"><ele>811.0</ele><time>2026-03-23T12:33:30.001Z</time></trkpt><trkpt lat="30.55271889492055" lon="-5.29992291881272"><ele>811.0</ele><time>2026-03-23T12:33:31.001Z</time></trkpt><trkpt lat="30.55263978848435" lon="-5.300091055211971"><ele>811.0</ele><time>2026-03-23T12:33:32.001Z</time></trkpt><trkpt lat="30.5525854529922" lon="-5.300272857720153"><ele>811.0</ele><time>2026-03-23T12:33:33.001Z</time></trkpt><trkpt lat="30.55252629327381" lon="-5.300440939812214"><ele>810.6666666666666</ele><time>2026-03-23T12:33:34.001Z</time></trkpt><trkpt lat="30.552466366537974" lon="-5.300610232711434"><ele>810.3333333333333</ele><time>2026-03-23T12:33:35.001Z</time></trkpt><trkpt lat="30.55239809742963" lon="-5.30078871981472"><ele>810.0</ele><time>2026-03-23T12:33:36.001Z</time></trkpt><trkpt lat="30.552325126242565" lon="-5.300958187397042"><ele>810.0</ele><time>2026-03-23T12:33:37.001Z</time></trkpt><trkpt lat="30.552241319670703" lon="-5.301119479581544"><ele>810.0</ele><time>2026-03-23T12:33:38.001Z</time></trkpt><trkpt lat="30.552160757726465" lon="-5.301291621712147"><ele>810.0</ele><time>2026-03-23T12:33:39.001Z</time></trkpt><trkpt lat="30.552085655416615" lon="-5.301451088197053"><ele>811.6666666666667</ele><time>2026-03-23T12:33:40.001Z</time></trkpt><trkpt lat="30.552011402344053" lon="-5.301608118631427"><ele>813.3333333333334</ele><time>2026-03-23T12:33:41.001Z</time></trkpt><trkpt lat="30.55193309970108" lon="-5.301780395959609"><ele>815.0</ele><time>2026-03-23T12:33:42.001Z</time></trkpt><trkpt lat="30.55186196010886" lon="-5.301941024833763"><ele>815.0</ele><time>2026-03-23T12:33:43.001Z</time></trkpt><trkpt lat="30.55174102273139" lon="-5.302067525146328"><ele>815.0</ele><time>2026-03-23T12:33:44.001Z</time></trkpt><trkpt lat="30.551639684085494" lon="-5.302205736650891"><ele>815.0</ele><time>2026-03-23T12:33:45.001Z</time></trkpt><trkpt lat="30.551543790883397" lon="-5.302367907730578"><ele>816.0</ele><time>2026-03-23T12:33:46.001Z</time></trkpt><trkpt lat="30.551490852952483" lon="-5.302560579840458"><ele>817.0</ele><time>2026-03-23T12:33:47.001Z</time></trkpt><trkpt lat="30.551452699644663" lon="-5.302741372944314"><ele>818.0</ele><time>2026-03-23T12:33:48.001Z</time></trkpt><trkpt lat="30.55141388679762" lon="-5.3029062530738855"><ele>818.0</ele><time>2026-03-23T12:33:49.001Z</time></trkpt><trkpt lat="30.551360117358985" lon="-5.30307305076565"><ele>818.0</ele><time>2026-03-23T12:33:50.001Z</time></trkpt><trkpt lat="30.551277354610537" lon="-5.303239868201327"><ele>818.0</ele><time>2026-03-23T12:33:51.001Z</time></trkpt><trkpt lat="30.551199942798952" lon="-5.303403147099189"><ele>818.0</ele><time>2026-03-23T12:33:52.001Z</time></trkpt><trkpt lat="30.55113457589211" lon="-5.303574159843046"><ele>818.0</ele><time>2026-03-23T12:33:53.001Z</time></trkpt><trkpt lat="30.551072558596122" lon="-5.303743712044102"><ele>818.0</ele><time>2026-03-23T12:33:54.001Z</time></trkpt><trkpt lat="30.551003631664177" lon="-5.303910979851794"><ele>818.3333333333334</ele><time>2026-03-23T12:33:55.001Z</time></trkpt><trkpt lat="30.55099677250732" lon="-5.304124409255785"><ele>818.6666666666667</ele><time>2026-03-23T12:33:56.001Z</time></trkpt><trkpt lat="30.5509303321773" lon="-5.304288616464189"><ele>819.0</ele><time>2026-03-23T12:33:57.001Z</time></trkpt><trkpt lat="30.550784868386717" lon="-5.30442629531718"><ele>819.0</ele><time>2026-03-23T12:33:58.001Z</time></trkpt><trkpt lat="30.550661758923084" lon="-5.304550213978884"><ele>819.0</ele><time>2026-03-23T12:33:59.001Z</time></trkpt><trkpt lat="30.550563969851282" lon="-5.3047187810665735"><ele>819.0</ele><time>2026-03-23T12:34:00.001Z</time></trkpt><trkpt lat="30.5504630231272" lon="-5.304891545044048"><ele>819.3333333333333</ele><time>2026-03-23T12:34:01.001Z</time></trkpt><trkpt lat="30.550349154184154" lon="-5.305095586512779"><ele>819.6666666666666</ele><time>2026-03-23T12:34:02.001Z</time></trkpt><trkpt lat="30.55024001121795" lon="-5.305300770018935"><ele>820.0</ele><time>2026-03-23T12:34:03.001Z</time></trkpt><trkpt lat="30.550139203722953" lon="-5.305514811730668"><ele>819.6666666666666</ele><time>2026-03-23T12:34:04.001Z</time></trkpt><trkpt lat="30.550048989127394" lon="-5.305703626852232"><ele>819.3333333333333</ele><time>2026-03-23T12:34:05.001Z</time></trkpt><trkpt lat="30.549976648404627" lon="-5.305871265134434"><ele>819.0</ele><time>2026-03-23T12:34:06.001Z</time></trkpt><trkpt lat="30.549896326973347" lon="-5.306015241862009"><ele>819.0</ele><time>2026-03-23T12:34:07.001Z</time></trkpt><trkpt lat="30.54981988922679" lon="-5.306183380690999"><ele>819.0</ele><time>2026-03-23T12:34:08.001Z</time></trkpt><trkpt lat="30.54972115442785" lon="-5.306363104596456"><ele>819.0</ele><time>2026-03-23T12:34:09.001Z</time></trkpt><trkpt lat="30.54962724271344" lon="-5.306558688428851"><ele>816.3333333333333</ele><time>2026-03-23T12:34:10.001Z</time></trkpt><trkpt lat="30.5495333863688" lon="-5.306754678933571"><ele>813.6666666666666</ele><time>2026-03-23T12:34:11.001Z</time></trkpt><trkpt lat="30.54944118233118" lon="-5.306956581155537"><ele>811.0</ele><time>2026-03-23T12:34:12.001Z</time></trkpt><trkpt lat="30.549348612754432" lon="-5.307155892439624"><ele>813.3333333333333</ele><time>2026-03-23T12:34:13.001Z</time></trkpt><trkpt lat="30.54925982576045" lon="-5.30734120193037"><ele>815.6666666666667</ele><time>2026-03-23T12:34:14.001Z</time></trkpt><trkpt lat="30.549176905500584" lon="-5.307532466717813"><ele>818.0</ele><time>2026-03-23T12:34:15.001Z</time></trkpt><trkpt lat="30.54909688892674" lon="-5.3077293769281715"><ele>818.0</ele><time>2026-03-23T12:34:16.001Z</time></trkpt><trkpt lat="30.549018749276698" lon="-5.307928114716293"><ele>818.0</ele><time>2026-03-23T12:34:17.001Z</time></trkpt><trkpt lat="30.548940806013153" lon="-5.308124294914045"><ele>818.0</ele><time>2026-03-23T12:34:18.001Z</time></trkpt><trkpt lat="30.548868455607128" lon="-5.308310685668414"><ele>818.0</ele><time>2026-03-23T12:34:19.001Z</time></trkpt><trkpt lat="30.54879916785322" lon="-5.308494378571114"><ele>818.0</ele><time>2026-03-23T12:34:20.001Z</time></trkpt><trkpt lat="30.548733465462877" lon="-5.30868239318261"><ele>818.0</ele><time>2026-03-23T12:34:21.001Z</time></trkpt><trkpt lat="30.54867547031221" lon="-5.308873807945741"><ele>818.3333333333334</ele><time>2026-03-23T12:34:22.001Z</time></trkpt><trkpt lat="30.548618993381798" lon="-5.309058387667216"><ele>818.6666666666667</ele><time>2026-03-23T12:34:23.001Z</time></trkpt><trkpt lat="30.54855008065469" lon="-5.30925520049626"><ele>819.0</ele><time>2026-03-23T12:34:24.001Z</time></trkpt><trkpt lat="30.548478878388487" lon="-5.309450847380049"><ele>819.0</ele><time>2026-03-23T12:34:25.001Z</time></trkpt><trkpt lat="30.54840527951497" lon="-5.3096315555682105"><ele>819.0</ele><time>2026-03-23T12:34:26.001Z</time></trkpt><trkpt lat="30.548332445773276" lon="-5.3097806254044"><ele>819.0</ele><time>2026-03-23T12:34:27.001Z</time></trkpt><trkpt lat="30.54826024520418" lon="-5.309941457752478"><ele>819.0</ele><time>2026-03-23T12:34:28.001Z</time></trkpt><trkpt lat="30.54818990890261" lon="-5.310117162058225"><ele>819.0</ele><time>2026-03-23T12:34:29.001Z</time></trkpt><trkpt lat="30.548135108472994" lon="-5.310297471054193"><ele>819.0</ele><time>2026-03-23T12:34:30.001Z</time></trkpt><trkpt lat="30.548091352186233" lon="-5.310468060436224"><ele>819.3333333333333</ele><time>2026-03-23T12:34:31.001Z</time></trkpt><trkpt lat="30.548043308219842" lon="-5.31064400812692"><ele>819.6666666666666</ele><time>2026-03-23T12:34:32.001Z</time></trkpt><trkpt lat="30.54798192546636" lon="-5.3108282088793946"><ele>820.0</ele><time>2026-03-23T12:34:33.001Z</time></trkpt><trkpt lat="30.547911931625062" lon="-5.3110212438843885"><ele>820.3333333333333</ele><time>2026-03-23T12:34:34.001Z</time></trkpt><trkpt lat="30.547843395585716" lon="-5.311226966094654"><ele>820.6666666666667</ele><time>2026-03-23T12:34:35.001Z</time></trkpt><trkpt lat="30.547770968158154" lon="-5.311438983544226"><ele>821.0</ele><time>2026-03-23T12:34:36.001Z</time></trkpt><trkpt lat="30.547696212677778" lon="-5.311649951513984"><ele>821.0</ele><time>2026-03-23T12:34:37.001Z</time></trkpt><trkpt lat="30.547618052292158" lon="-5.3118541789495035"><ele>821.0</ele><time>2026-03-23T12:34:38.001Z</time></trkpt><trkpt lat="30.54753460655725" lon="-5.312060337989683"><ele>821.0</ele><time>2026-03-23T12:34:39.001Z</time></trkpt><trkpt lat="30.547451602334043" lon="-5.312262894372175"><ele>821.0</ele><time>2026-03-23T12:34:40.001Z</time></trkpt><trkpt lat="30.54737330127492" lon="-5.3124604011387175"><ele>821.0</ele><time>2026-03-23T12:34:41.001Z</time></trkpt><trkpt lat="30.54729956465861" lon="-5.312661738842272"><ele>821.0</ele><time>2026-03-23T12:34:42.001Z</time></trkpt><trkpt lat="30.547228163989846" lon="-5.312862704702255"><ele>821.0</ele><time>2026-03-23T12:34:43.001Z</time></trkpt><trkpt lat="30.54716891586876" lon="-5.313053440208013"><ele>821.0</ele><time>2026-03-23T12:34:44.001Z</time></trkpt><trkpt lat="30.547115898572738" lon="-5.313240646392861"><ele>821.0</ele><time>2026-03-23T12:34:45.001Z</time></trkpt><trkpt lat="30.547067601805253" lon="-5.313444329977689"><ele>821.3333333333334</ele><time>2026-03-23T12:34:46.001Z</time></trkpt><trkpt lat="30.547027848834592" lon="-5.313668825447144"><ele>821.6666666666667</ele><time>2026-03-23T12:34:47.001Z</time></trkpt><trkpt lat="30.54699692732994" lon="-5.313897645561691"><ele>822.0</ele><time>2026-03-23T12:34:48.001Z</time></trkpt><trkpt lat="30.546963421873656" lon="-5.314112399387097"><ele>822.0</ele><time>2026-03-23T12:34:49.001Z</time></trkpt><trkpt lat="30.546923390602327" lon="-5.314318357162145"><ele>822.0</ele><time>2026-03-23T12:34:50.001Z</time></trkpt><trkpt lat="30.54688195593516" lon="-5.314543411271313"><ele>822.0</ele><time>2026-03-23T12:34:51.001Z</time></trkpt><trkpt lat="30.546840962362527" lon="-5.314778271210487"><ele>821.3333333333333</ele><time>2026-03-23T12:34:52.001Z</time></trkpt><trkpt lat="30.54679905101771" lon="-5.315004496110368"><ele>820.6666666666666</ele><time>2026-03-23T12:34:53.001Z</time></trkpt><trkpt lat="30.54674935005785" lon="-5.315226205912338"><ele>820.0</ele><time>2026-03-23T12:34:54.001Z</time></trkpt><trkpt lat="30.546699761217916" lon="-5.315447717569456"><ele>820.3333333333333</ele><time>2026-03-23T12:34:55.001Z</time></trkpt><trkpt lat="30.546650060371274" lon="-5.315673329712235"><ele>820.6666666666667</ele><time>2026-03-23T12:34:56.001Z</time></trkpt><trkpt lat="30.546599024672958" lon="-5.315898347760355"><ele>821.0</ele><time>2026-03-23T12:34:57.001Z</time></trkpt><trkpt lat="30.54654969809622" lon="-5.31612877318062"><ele>821.0</ele><time>2026-03-23T12:34:58.001Z</time></trkpt><trkpt lat="30.546509939073434" lon="-5.316361187699598"><ele>821.0</ele><time>2026-03-23T12:34:59.001Z</time></trkpt><trkpt lat="30.546474616624316" lon="-5.316587790357156"><ele>821.0</ele><time>2026-03-23T12:35:00.001Z</time></trkpt><trkpt lat="30.54643489165814" lon="-5.31682207307615"><ele>821.0</ele><time>2026-03-23T12:35:01.001Z</time></trkpt><trkpt lat="30.546395637981036" lon="-5.317084635537542"><ele>821.0</ele><time>2026-03-23T12:35:02.001Z</time></trkpt><trkpt lat="30.546351847354213" lon="-5.317368633271776"><ele>821.0</ele><time>2026-03-23T12:35:03.001Z</time></trkpt><trkpt lat="30.546320390564418" lon="-5.317666197389197"><ele>821.0</ele><time>2026-03-23T12:35:04.001Z</time></trkpt><trkpt lat="30.546311738876575" lon="-5.317936607834117"><ele>823.0</ele><time>2026-03-23T12:35:05.001Z</time></trkpt><trkpt lat="30.54630888687423" lon="-5.318194068338483"><ele>825.0</ele><time>2026-03-23T12:35:06.001Z</time></trkpt><trkpt lat="30.546298175963987" lon="-5.318476323789597"><ele>825.0</ele><time>2026-03-23T12:35:07.001Z</time></trkpt><trkpt lat="30.54628771233247" lon="-5.318755836572467"><ele>825.0</ele><time>2026-03-23T12:35:08.001Z</time></trkpt><trkpt lat="30.54627422561125" lon="-5.3190278018863015"><ele>823.5</ele><time>2026-03-23T12:35:09.001Z</time></trkpt><trkpt lat="30.546250117280717" lon="-5.3193212745150396"><ele>822.0</ele><time>2026-03-23T12:35:10.001Z</time></trkpt><trkpt lat="30.54622604801068" lon="-5.319604578628668"><ele>822.6666666666667</ele><time>2026-03-23T12:35:11.001Z</time></trkpt><trkpt lat="30.546204968836623" lon="-5.31986409007111"><ele>823.3333333333334</ele><time>2026-03-23T12:35:12.001Z</time></trkpt><trkpt lat="30.5461876920218" lon="-5.32009748797588"><ele>824.0</ele><time>2026-03-23T12:35:13.001Z</time></trkpt><trkpt lat="30.54617013588872" lon="-5.320317463960301"><ele>824.0</ele><time>2026-03-23T12:35:14.001Z</time></trkpt><trkpt lat="30.546143810067054" lon="-5.320536437634137"><ele>824.0</ele><time>2026-03-23T12:35:15.001Z</time></trkpt><trkpt lat="30.546107591886777" lon="-5.3207586282726735"><ele>824.0</ele><time>2026-03-23T12:35:16.001Z</time></trkpt><trkpt lat="30.546055436905718" lon="-5.3209788653335135"><ele>823.6666666666667</ele><time>2026-03-23T12:35:17.001Z</time></trkpt><trkpt lat="30.545999742988517" lon="-5.321197080723267"><ele>823.3333333333333</ele><time>2026-03-23T12:35:18.001Z</time></trkpt><trkpt lat="30.54593915905998" lon="-5.321425226109205"><ele>823.0</ele><time>2026-03-23T12:35:19.001Z</time></trkpt><trkpt lat="30.545870845943362" lon="-5.321680750411329"><ele>822.5</ele><time>2026-03-23T12:35:20.001Z</time></trkpt><trkpt lat="30.545798018111615" lon="-5.321963417864884"><ele>822.0</ele><time>2026-03-23T12:35:21.001Z</time></trkpt><trkpt lat="30.545728170704212" lon="-5.322243382703202"><ele>821.0</ele><time>2026-03-23T12:35:22.001Z</time></trkpt><trkpt lat="30.54566754013778" lon="-5.322503230251274"><ele>820.0</ele><time>2026-03-23T12:35:23.001Z</time></trkpt><trkpt lat="30.545613529575796" lon="-5.322754014811512"><ele>820.0</ele><time>2026-03-23T12:35:24.001Z</time></trkpt><trkpt lat="30.545554006796856" lon="-5.322993221136269"><ele>820.0</ele><time>2026-03-23T12:35:25.001Z</time></trkpt><trkpt lat="30.54549173087173" lon="-5.323236687574327"><ele>820.0</ele><time>2026-03-23T12:35:26.001Z</time></trkpt><trkpt lat="30.545438727751087" lon="-5.3234954321808665"><ele>820.0</ele><time>2026-03-23T12:35:27.001Z</time></trkpt><trkpt lat="30.54539451493458" lon="-5.3237774033178455"><ele>820.0</ele><time>2026-03-23T12:35:28.001Z</time></trkpt><trkpt lat="30.545351877830914" lon="-5.324071004087667"><ele>821.5</ele><time>2026-03-23T12:35:29.001Z</time></trkpt><trkpt lat="30.545309001029104" lon="-5.324360666081183"><ele>823.0</ele><time>2026-03-23T12:35:30.001Z</time></trkpt><trkpt lat="30.54527185456522" lon="-5.3246154902590686"><ele>822.0</ele><time>2026-03-23T12:35:31.001Z</time></trkpt><trkpt lat="30.54523439386663" lon="-5.324859886410579"><ele>821.0</ele><time>2026-03-23T12:35:32.001Z</time></trkpt><trkpt lat="30.54520357094346" lon="-5.325098191652342"><ele>820.0</ele><time>2026-03-23T12:35:33.001Z</time></trkpt><trkpt lat="30.54517313344526" lon="-5.325326816606734"><ele>820.0</ele><time>2026-03-23T12:35:34.001Z</time></trkpt><trkpt lat="30.545141861675646" lon="-5.325546622942098"><ele>820.0</ele><time>2026-03-23T12:35:35.001Z</time></trkpt><trkpt lat="30.54510880795138" lon="-5.325748900734762"><ele>820.0</ele><time>2026-03-23T12:35:36.001Z</time></trkpt><trkpt lat="30.545094337325143" lon="-5.325970251626468"><ele>821.0</ele><time>2026-03-23T12:35:37.001Z</time></trkpt><trkpt lat="30.545089714788386" lon="-5.3262242643015005"><ele>822.0</ele><time>2026-03-23T12:35:38.001Z</time></trkpt><trkpt lat="30.54509541525798" lon="-5.326504954072165"><ele>822.0</ele><time>2026-03-23T12:35:39.001Z</time></trkpt><trkpt lat="30.545114561267535" lon="-5.326809093837225"><ele>822.0</ele><time>2026-03-23T12:35:40.001Z</time></trkpt><trkpt lat="30.545124938739566" lon="-5.327107136577549"><ele>821.5</ele><time>2026-03-23T12:35:41.001Z</time></trkpt><trkpt lat="30.545136548462615" lon="-5.3274111679389025"><ele>821.0</ele><time>2026-03-23T12:35:42.001Z</time></trkpt><trkpt lat="30.545155288932655" lon="-5.327683650558313"><ele>821.0</ele><time>2026-03-23T12:35:43.001Z</time></trkpt><trkpt lat="30.545181833752753" lon="-5.327928363697538"><ele>821.0</ele><time>2026-03-23T12:35:44.001Z</time></trkpt><trkpt lat="30.545207694646635" lon="-5.328161611783313"><ele>821.0</ele><time>2026-03-23T12:35:45.001Z</time></trkpt><trkpt lat="30.54522538817154" lon="-5.32838722738758"><ele>821.6666666666667</ele><time>2026-03-23T12:35:46.001Z</time></trkpt><trkpt lat="30.54523543535701" lon="-5.32858734335876"><ele>822.3333333333333</ele><time>2026-03-23T12:35:47.001Z</time></trkpt><trkpt lat="30.54524330305118" lon="-5.3287863968282325"><ele>823.0</ele><time>2026-03-23T12:35:48.002Z</time></trkpt><trkpt lat="30.54525195546125" lon="-5.328987615455265"><ele>823.0</ele><time>2026-03-23T12:35:49.002Z</time></trkpt><trkpt lat="30.545260242262405" lon="-5.32919118146715"><ele>823.0</ele><time>2026-03-23T12:35:50.002Z</time></trkpt><trkpt lat="30.54526971078965" lon="-5.32939282618689"><ele>823.0</ele><time>2026-03-23T12:35:51.002Z</time></trkpt><trkpt lat="30.545280219871927" lon="-5.329595917659844"><ele>822.6666666666666</ele><time>2026-03-23T12:35:52.002Z</time></trkpt><trkpt lat="30.545279792644536" lon="-5.329802454469462"><ele>822.3333333333333</ele><time>2026-03-23T12:35:53.002Z</time></trkpt><trkpt lat="30.54527207716463" lon="-5.330007977241266"><ele>822.0</ele><time>2026-03-23T12:35:54.002Z</time></trkpt><trkpt lat="30.545261169339287" lon="-5.330213631212868"><ele>822.0</ele><time>2026-03-23T12:35:55.001Z</time></trkpt><trkpt lat="30.54524471758394" lon="-5.330426150015862"><ele>822.0</ele><time>2026-03-23T12:35:56.001Z</time></trkpt><trkpt lat="30.545220112260992" lon="-5.33065195470755"><ele>822.0</ele><time>2026-03-23T12:35:57.001Z</time></trkpt><trkpt lat="30.545193160766203" lon="-5.33089786608594"><ele>823.5</ele><time>2026-03-23T12:35:58.001Z</time></trkpt><trkpt lat="30.545160662871663" lon="-5.331164306207492"><ele>825.0</ele><time>2026-03-23T12:35:59.001Z</time></trkpt><trkpt lat="30.54512523858467" lon="-5.331448041401363"><ele>827.0</ele><time>2026-03-23T12:36:00.001Z</time></trkpt><trkpt lat="30.54509892646897" lon="-5.331735289777086"><ele>829.0</ele><time>2026-03-23T12:36:01.001Z</time></trkpt><trkpt lat="30.545083741403886" lon="-5.332002978646038"><ele>828.0</ele><time>2026-03-23T12:36:02.001Z</time></trkpt><trkpt lat="30.545076912082752" lon="-5.332245600520636"><ele>827.0</ele><time>2026-03-23T12:36:03.001Z</time></trkpt><trkpt lat="30.545203910662075" lon="-5.332498343672826"><ele>827.0</ele><time>2026-03-23T12:36:04.001Z</time></trkpt><trkpt lat="30.545151197562944" lon="-5.33273098962304"><ele>827.0</ele><time>2026-03-23T12:36:05.001Z</time></trkpt><trkpt lat="30.545095391303352" lon="-5.332942743925674"><ele>827.0</ele><time>2026-03-23T12:36:06.001Z</time></trkpt><trkpt lat="30.545036111709383" lon="-5.333142823167215"><ele>827.6666666666667</ele><time>2026-03-23T12:36:07.001Z</time></trkpt><trkpt lat="30.54503857541257" lon="-5.333345832254832"><ele>828.3333333333333</ele><time>2026-03-23T12:36:08.001Z</time></trkpt><trkpt lat="30.545040874596292" lon="-5.333531798922331"><ele>829.0</ele><time>2026-03-23T12:36:09.001Z</time></trkpt><trkpt lat="30.545042821780587" lon="-5.333685397603092"><ele>829.0</ele><time>2026-03-23T12:36:10.001Z</time></trkpt><trkpt lat="30.545016738917127" lon="-5.333822370866429"><ele>829.0</ele><time>2026-03-23T12:36:11.001Z</time></trkpt><trkpt lat="30.545023917332944" lon="-5.333947946158411"><ele>829.0</ele><time>2026-03-23T12:36:12.001Z</time></trkpt><trkpt lat="30.54503210420447" lon="-5.334065231599255"><ele>829.0</ele><time>2026-03-23T12:36:13.001Z</time></trkpt><trkpt lat="30.54503693042891" lon="-5.33416519258585"><ele>829.0</ele><time>2026-03-23T12:36:14.001Z</time></trkpt><trkpt lat="30.545042332058703" lon="-5.334254245355429"><ele>829.4000000000001</ele><time>2026-03-23T12:36:15.001Z</time></trkpt><trkpt lat="30.545067532721987" lon="-5.3343213412033315"><ele>829.8</ele><time>2026-03-23T12:36:16.001Z</time></trkpt><trkpt lat="30.545090916638646" lon="-5.334390336004785"><ele>830.2</ele><time>2026-03-23T12:36:17.001Z</time></trkpt><trkpt lat="30.545152131490386" lon="-5.334457327720873"><ele>830.5999999999999</ele><time>2026-03-23T12:36:19.001Z</time></trkpt><trkpt lat="30.545205656861114" lon="-5.334518325531071"><ele>831.0</ele><time>2026-03-23T12:36:21.001Z</time></trkpt><trkpt lat="30.545142529887123" lon="-5.334694820588462"><ele>832.5</ele><time>2026-03-23T12:36:25.001Z</time></trkpt><trkpt lat="30.545062889380723" lon="-5.3347865730666"><ele>834.0</ele><time>2026-03-23T12:36:26.001Z</time></trkpt><trkpt lat="30.54498371225769" lon="-5.334893613000952"><ele>835.5</ele><time>2026-03-23T12:36:27.001Z</time></trkpt><trkpt lat="30.544907403597286" lon="-5.335005780794915"><ele>837.0</ele><time>2026-03-23T12:36:28.001Z</time></trkpt><trkpt lat="30.544829049900564" lon="-5.335117827140786"><ele>837.0</ele><time>2026-03-23T12:36:29.001Z</time></trkpt><trkpt lat="30.544743972148012" lon="-5.335237568912027"><ele>837.0</ele><time>2026-03-23T12:36:30.001Z</time></trkpt><trkpt lat="30.544654730700017" lon="-5.335365869824105"><ele>837.0</ele><time>2026-03-23T12:36:31.001Z</time></trkpt><trkpt lat="30.54455976939747" lon="-5.335502227916752"><ele>837.0</ele><time>2026-03-23T12:36:32.001Z</time></trkpt><trkpt lat="30.544460152782026" lon="-5.335644418052879"><ele>836.6666666666667</ele><time>2026-03-23T12:36:33.001Z</time></trkpt><trkpt lat="30.544357633725227" lon="-5.335790193782407"><ele>836.3333333333334</ele><time>2026-03-23T12:36:34.001Z</time></trkpt><trkpt lat="30.54424865782275" lon="-5.335945551502354"><ele>836.0</ele><time>2026-03-23T12:36:35.001Z</time></trkpt><trkpt lat="30.544133466905276" lon="-5.336105775648702"><ele>836.0</ele><time>2026-03-23T12:36:36.001Z</time></trkpt><trkpt lat="30.544015893247746" lon="-5.336266802801833"><ele>836.0</ele><time>2026-03-23T12:36:37.001Z</time></trkpt><trkpt lat="30.54390388707147" lon="-5.3364255687567566"><ele>836.0</ele><time>2026-03-23T12:36:38.001Z</time></trkpt><trkpt lat="30.543806028792787" lon="-5.3365634445671795"><ele>836.0</ele><time>2026-03-23T12:36:39.001Z</time></trkpt><trkpt lat="30.543717736201653" lon="-5.336694410851304"><ele>836.0</ele><time>2026-03-23T12:36:40.001Z</time></trkpt><trkpt lat="30.543629629992484" lon="-5.3368271711041"><ele>836.0</ele><time>2026-03-23T12:36:41.001Z</time></trkpt><trkpt lat="30.54353910964087" lon="-5.336956999430366"><ele>836.0</ele><time>2026-03-23T12:36:42.001Z</time></trkpt><trkpt lat="30.543448867717235" lon="-5.337083274446751"><ele>834.75</ele><time>2026-03-23T12:36:43.001Z</time></trkpt><trkpt lat="30.54335715841816" lon="-5.337206559951541"><ele>833.5</ele><time>2026-03-23T12:36:44.001Z</time></trkpt><trkpt lat="30.543264813887763" lon="-5.337329479999731"><ele>832.25</ele><time>2026-03-23T12:36:45.001Z</time></trkpt><trkpt lat="30.54317548683127" lon="-5.337451274274987"><ele>831.0</ele><time>2026-03-23T12:36:46.001Z</time></trkpt><trkpt lat="30.543091274439323" lon="-5.337572286774475"><ele>831.0</ele><time>2026-03-23T12:36:47.001Z</time></trkpt><trkpt lat="30.543008730369696" lon="-5.33769543990251"><ele>831.0</ele><time>2026-03-23T12:36:48.001Z</time></trkpt><trkpt lat="30.54292636800182" lon="-5.337819850998563"><ele>831.0</ele><time>2026-03-23T12:36:49.001Z</time></trkpt><trkpt lat="30.542844495691693" lon="-5.337937832313823"><ele>831.0</ele><time>2026-03-23T12:36:50.001Z</time></trkpt><trkpt lat="30.542760679982255" lon="-5.338054501941015"><ele>830.75</ele><time>2026-03-23T12:36:51.001Z</time></trkpt><trkpt lat="30.542674745234905" lon="-5.338172505330764"><ele>830.5</ele><time>2026-03-23T12:36:52.001Z</time></trkpt><trkpt lat="30.54259027653118" lon="-5.33828824186119"><ele>830.25</ele><time>2026-03-23T12:36:53.001Z</time></trkpt><trkpt lat="30.542508808508547" lon="-5.338405005837063"><ele>830.0</ele><time>2026-03-23T12:36:54.001Z</time></trkpt><trkpt lat="30.54242099593816" lon="-5.338526910130564"><ele>830.0</ele><time>2026-03-23T12:36:55.001Z</time></trkpt><trkpt lat="30.542324594274543" lon="-5.338663418853277"><ele>830.0</ele><time>2026-03-23T12:36:56.001Z</time></trkpt><trkpt lat="30.542224137225222" lon="-5.3388053158286946"><ele>830.0</ele><time>2026-03-23T12:36:57.001Z</time></trkpt><trkpt lat="30.542120436760193" lon="-5.338951251176302"><ele>830.0</ele><time>2026-03-23T12:36:58.001Z</time></trkpt><trkpt lat="30.542015650444647" lon="-5.339106715332311"><ele>830.0</ele><time>2026-03-23T12:36:59.001Z</time></trkpt><trkpt lat="30.541911719210066" lon="-5.339264245447746"><ele>830.0</ele><time>2026-03-23T12:37:00.001Z</time></trkpt><trkpt lat="30.541800088037025" lon="-5.339420980496877"><ele>830.0</ele><time>2026-03-23T12:37:01.001Z</time></trkpt><trkpt lat="30.541683987140587" lon="-5.339577395547393"><ele>830.0</ele><time>2026-03-23T12:37:02.001Z</time></trkpt><trkpt lat="30.541569354962913" lon="-5.339738123731134"><ele>830.0</ele><time>2026-03-23T12:37:03.001Z</time></trkpt><trkpt lat="30.54145446956804" lon="-5.3399003157963945"><ele>829.6666666666667</ele><time>2026-03-23T12:37:04.001Z</time></trkpt><trkpt lat="30.54133505407443" lon="-5.3400662040443025"><ele>829.3333333333333</ele><time>2026-03-23T12:37:05.001Z</time></trkpt><trkpt lat="30.541218278975578" lon="-5.340229521473278"><ele>829.0</ele><time>2026-03-23T12:37:06.001Z</time></trkpt><trkpt lat="30.54110205261037" lon="-5.340399246531915"><ele>828.0</ele><time>2026-03-23T12:37:07.001Z</time></trkpt><trkpt lat="30.540982218463345" lon="-5.340569435448134"><ele>827.0</ele><time>2026-03-23T12:37:08.001Z</time></trkpt><trkpt lat="30.540859175697012" lon="-5.340737359502582"><ele>826.0</ele><time>2026-03-23T12:37:09.001Z</time></trkpt><trkpt lat="30.540734191582153" lon="-5.3409076977682055"><ele>826.0</ele><time>2026-03-23T12:37:10.001Z</time></trkpt><trkpt lat="30.54060554935872" lon="-5.341082791314246"><ele>826.0</ele><time>2026-03-23T12:37:11.001Z</time></trkpt><trkpt lat="30.540476764815658" lon="-5.341256826215469"><ele>826.0</ele><time>2026-03-23T12:37:12.001Z</time></trkpt><trkpt lat="30.54034610784225" lon="-5.341428704710352"><ele>825.6666666666666</ele><time>2026-03-23T12:37:13.001Z</time></trkpt><trkpt lat="30.54020766136244" lon="-5.341604809472791"><ele>825.3333333333333</ele><time>2026-03-23T12:37:14.001Z</time></trkpt><trkpt lat="30.5400681693407" lon="-5.341782073324001"><ele>825.0</ele><time>2026-03-23T12:37:15.001Z</time></trkpt><trkpt lat="30.53992628390001" lon="-5.34195960488416"><ele>825.0</ele><time>2026-03-23T12:37:16.001Z</time></trkpt><trkpt lat="30.539783710536426" lon="-5.3421437108413174"><ele>825.0</ele><time>2026-03-23T12:37:17.001Z</time></trkpt><trkpt lat="30.53963642610745" lon="-5.342327381496658"><ele>825.0</ele><time>2026-03-23T12:37:18.001Z</time></trkpt><trkpt lat="30.53948508738146" lon="-5.34251085019461"><ele>825.0</ele><time>2026-03-23T12:37:19.001Z</time></trkpt><trkpt lat="30.539331689548458" lon="-5.342688510180796"><ele>825.0</ele><time>2026-03-23T12:37:20.001Z</time></trkpt><trkpt lat="30.539175238941038" lon="-5.34286842589141"><ele>825.0</ele><time>2026-03-23T12:37:21.001Z</time></trkpt><trkpt lat="30.53902065704262" lon="-5.3430506718055035"><ele>825.0</ele><time>2026-03-23T12:37:22.001Z</time></trkpt><trkpt lat="30.53886549077998" lon="-5.343233943413188"><ele>825.0</ele><time>2026-03-23T12:37:23.001Z</time></trkpt><trkpt lat="30.53871686351572" lon="-5.343407519887423"><ele>825.0</ele><time>2026-03-23T12:37:24.001Z</time></trkpt><trkpt lat="30.538573490584085" lon="-5.343574135306379"><ele>824.6666666666667</ele><time>2026-03-23T12:37:25.001Z</time></trkpt><trkpt lat="30.538425774650754" lon="-5.343743252381231"><ele>824.3333333333334</ele><time>2026-03-23T12:37:26.001Z</time></trkpt><trkpt lat="30.538279196155237" lon="-5.34390810537633"><ele>824.0</ele><time>2026-03-23T12:37:27.001Z</time></trkpt><trkpt lat="30.538140331827062" lon="-5.344064075688451"><ele>823.3333333333334</ele><time>2026-03-23T12:37:28.001Z</time></trkpt><trkpt lat="30.53800355282462" lon="-5.344218070023111"><ele>822.6666666666667</ele><time>2026-03-23T12:37:29.001Z</time></trkpt><trkpt lat="30.53786723452427" lon="-5.344372656985138"><ele>822.0</ele><time>2026-03-23T12:37:30.001Z</time></trkpt><trkpt lat="30.537735098112705" lon="-5.3445237144683535"><ele>821.3333333333333</ele><time>2026-03-23T12:37:31.001Z</time></trkpt><trkpt lat="30.537608063122704" lon="-5.344668505497536"><ele>820.6666666666666</ele><time>2026-03-23T12:37:32.001Z</time></trkpt><trkpt lat="30.53748815667467" lon="-5.344804709817542"><ele>820.0</ele><time>2026-03-23T12:37:33.001Z</time></trkpt><trkpt lat="30.53736711685203" lon="-5.344942206179269"><ele>820.6666666666666</ele><time>2026-03-23T12:37:34.001Z</time></trkpt><trkpt lat="30.53724360466534" lon="-5.3450817873768"><ele>821.3333333333333</ele><time>2026-03-23T12:37:35.001Z</time></trkpt><trkpt lat="30.537117949997043" lon="-5.345221900186238"><ele>822.0</ele><time>2026-03-23T12:37:36.001Z</time></trkpt><trkpt lat="30.536993811949603" lon="-5.345365997840711"><ele>822.0</ele><time>2026-03-23T12:37:37.001Z</time></trkpt><trkpt lat="30.536865581426817" lon="-5.345510440063248"><ele>822.0</ele><time>2026-03-23T12:37:38.001Z</time></trkpt><trkpt lat="30.536732364827998" lon="-5.345658827418497"><ele>822.0</ele><time>2026-03-23T12:37:39.001Z</time></trkpt><trkpt lat="30.536595453302816" lon="-5.345810414242223"><ele>821.0</ele><time>2026-03-23T12:37:40.001Z</time></trkpt><trkpt lat="30.536457638378355" lon="-5.345964601895268"><ele>820.0</ele><time>2026-03-23T12:37:41.001Z</time></trkpt><trkpt lat="30.536317895372797" lon="-5.346122491419172"><ele>819.0</ele><time>2026-03-23T12:37:42.001Z</time></trkpt><trkpt lat="30.53617666239729" lon="-5.346281072393732"><ele>820.0</ele><time>2026-03-23T12:37:43.001Z</time></trkpt><trkpt lat="30.5360360820304" lon="-5.346440462705793"><ele>821.0</ele><time>2026-03-23T12:37:44.001Z</time></trkpt><trkpt lat="30.535896608363714" lon="-5.346603322767823"><ele>822.0</ele><time>2026-03-23T12:37:45.001Z</time></trkpt><trkpt lat="30.535757458970505" lon="-5.346765908235595"><ele>822.0</ele><time>2026-03-23T12:37:46.001Z</time></trkpt><trkpt lat="30.53561811991632" lon="-5.346923770478889"><ele>822.0</ele><time>2026-03-23T12:37:47.001Z</time></trkpt><trkpt lat="30.535477327894082" lon="-5.347084187253299"><ele>822.0</ele><time>2026-03-23T12:37:48.001Z</time></trkpt><trkpt lat="30.535334862846145" lon="-5.34724934079753"><ele>821.3333333333333</ele><time>2026-03-23T12:37:49.001Z</time></trkpt><trkpt lat="30.53518944878074" lon="-5.347413789024479"><ele>820.6666666666666</ele><time>2026-03-23T12:37:50.001Z</time></trkpt><trkpt lat="30.535041701141264" lon="-5.347579427261467"><ele>820.0</ele><time>2026-03-23T12:37:51.001Z</time></trkpt><trkpt lat="30.53489391780846" lon="-5.347745883885009"><ele>820.0</ele><time>2026-03-23T12:37:52.001Z</time></trkpt><trkpt lat="30.534745581234237" lon="-5.347913537884253"><ele>820.0</ele><time>2026-03-23T12:37:53.001Z</time></trkpt><trkpt lat="30.53459708712955" lon="-5.348081363341159"><ele>820.0</ele><time>2026-03-23T12:37:54.001Z</time></trkpt><trkpt lat="30.534446628983314" lon="-5.348252801766565"><ele>822.0</ele><time>2026-03-23T12:37:55.001Z</time></trkpt><trkpt lat="30.534297683261904" lon="-5.348427326517705"><ele>824.0</ele><time>2026-03-23T12:37:56.001Z</time></trkpt><trkpt lat="30.53414817210281" lon="-5.348595496413623"><ele>826.0</ele><time>2026-03-23T12:37:57.001Z</time></trkpt><trkpt lat="30.534000445281237" lon="-5.34877056783716"><ele>823.6666666666666</ele><time>2026-03-23T12:37:58.001Z</time></trkpt><trkpt lat="30.533855604991853" lon="-5.348944303960411"><ele>821.3333333333333</ele><time>2026-03-23T12:37:59.001Z</time></trkpt><trkpt lat="30.533712268829966" lon="-5.349114046185821"><ele>819.0</ele><time>2026-03-23T12:38:00.001Z</time></trkpt><trkpt lat="30.533567961521282" lon="-5.349285691789395"><ele>819.0</ele><time>2026-03-23T12:38:01.001Z</time></trkpt><trkpt lat="30.533420860143842" lon="-5.349458724439778"><ele>819.0</ele><time>2026-03-23T12:38:02.001Z</time></trkpt><trkpt lat="30.533273858130574" lon="-5.34963542389627"><ele>819.0</ele><time>2026-03-23T12:38:03.001Z</time></trkpt><trkpt lat="30.533123567303107" lon="-5.3498150112861795"><ele>817.6666666666667</ele><time>2026-03-23T12:38:04.001Z</time></trkpt><trkpt lat="30.53297772495154" lon="-5.349997824547228"><ele>816.3333333333334</ele><time>2026-03-23T12:38:05.001Z</time></trkpt><trkpt lat="30.532830525329633" lon="-5.350185321889029"><ele>815.0</ele><time>2026-03-23T12:38:06.001Z</time></trkpt><trkpt lat="30.53268524031168" lon="-5.3503754398964025"><ele>814.3333333333334</ele><time>2026-03-23T12:38:07.001Z</time></trkpt><trkpt lat="30.532542296022605" lon="-5.350559921454519"><ele>813.6666666666667</ele><time>2026-03-23T12:38:08.001Z</time></trkpt><trkpt lat="30.532402308310367" lon="-5.350738469204744"><ele>813.0</ele><time>2026-03-23T12:38:09.001Z</time></trkpt><trkpt lat="30.532267775569" lon="-5.35091250747855"><ele>813.0</ele><time>2026-03-23T12:38:10.001Z</time></trkpt><trkpt lat="30.53213441476927" lon="-5.351088182245993"><ele>813.0</ele><time>2026-03-23T12:38:11.001Z</time></trkpt><trkpt lat="30.532001604652333" lon="-5.3512609250772964"><ele>813.0</ele><time>2026-03-23T12:38:12.001Z</time></trkpt><trkpt lat="30.531870348151205" lon="-5.351434149351313"><ele>814.6666666666667</ele><time>2026-03-23T12:38:13.001Z</time></trkpt><trkpt lat="30.531739576654115" lon="-5.351610012221895"><ele>816.3333333333334</ele><time>2026-03-23T12:38:14.001Z</time></trkpt><trkpt lat="30.531609832015487" lon="-5.351789636326208"><ele>818.0</ele><time>2026-03-23T12:38:15.001Z</time></trkpt><trkpt lat="30.53148025087767" lon="-5.351968663832746"><ele>818.0</ele><time>2026-03-23T12:38:16.001Z</time></trkpt><trkpt lat="30.53134928639694" lon="-5.35214681962949"><ele>818.0</ele><time>2026-03-23T12:38:17.001Z</time></trkpt><trkpt lat="30.531223328897074" lon="-5.352325866144558"><ele>818.0</ele><time>2026-03-23T12:38:18.001Z</time></trkpt><trkpt lat="30.531110026214463" lon="-5.352486913409369"><ele>820.3333333333334</ele><time>2026-03-23T12:38:19.001Z</time></trkpt><trkpt lat="30.530998267684748" lon="-5.352644643981647"><ele>822.6666666666667</ele><time>2026-03-23T12:38:20.001Z</time></trkpt><trkpt lat="30.53088277394145" lon="-5.3528038833986935"><ele>825.0</ele><time>2026-03-23T12:38:21.001Z</time></trkpt><trkpt lat="30.530764848914817" lon="-5.352969143720897"><ele>823.6666666666667</ele><time>2026-03-23T12:38:22.001Z</time></trkpt><trkpt lat="30.530646809183356" lon="-5.353139307577555"><ele>822.3333333333334</ele><time>2026-03-23T12:38:23.001Z</time></trkpt><trkpt lat="30.530529343104348" lon="-5.353314673442268"><ele>821.0</ele><time>2026-03-23T12:38:24.001Z</time></trkpt><trkpt lat="30.530408258843043" lon="-5.353495827793659"><ele>821.0</ele><time>2026-03-23T12:38:25.001Z</time></trkpt><trkpt lat="30.530283224792434" lon="-5.353685378801201"><ele>821.0</ele><time>2026-03-23T12:38:26.001Z</time></trkpt><trkpt lat="30.53015408543676" lon="-5.353881341155794"><ele>821.0</ele><time>2026-03-23T12:38:27.001Z</time></trkpt><trkpt lat="30.530026191247646" lon="-5.354076094200722"><ele>821.0</ele><time>2026-03-23T12:38:28.001Z</time></trkpt><trkpt lat="30.529896461532356" lon="-5.3542739463953195"><ele>821.0</ele><time>2026-03-23T12:38:29.001Z</time></trkpt><trkpt lat="30.529769123425112" lon="-5.35447148809661"><ele>821.0</ele><time>2026-03-23T12:38:30.001Z</time></trkpt><trkpt lat="30.529644714661934" lon="-5.354663350743105"><ele>820.0</ele><time>2026-03-23T12:38:31.001Z</time></trkpt><trkpt lat="30.529520662637324" lon="-5.354853825373517"><ele>819.0</ele><time>2026-03-23T12:38:32.001Z</time></trkpt><trkpt lat="30.52939507557904" lon="-5.355045906263942"><ele>818.0</ele><time>2026-03-23T12:38:33.001Z</time></trkpt><trkpt lat="30.529272269958273" lon="-5.355239103173322"><ele>818.0</ele><time>2026-03-23T12:38:34.001Z</time></trkpt><trkpt lat="30.52914926980343" lon="-5.355432775106921"><ele>818.0</ele><time>2026-03-23T12:38:35.001Z</time></trkpt><trkpt lat="30.529024130226933" lon="-5.355626987633084"><ele>818.0</ele><time>2026-03-23T12:38:36.001Z</time></trkpt><trkpt lat="30.528897105824235" lon="-5.3558205269956884"><ele>817.6666666666667</ele><time>2026-03-23T12:38:37.001Z</time></trkpt><trkpt lat="30.52877000958609" lon="-5.356013768814983"><ele>817.3333333333333</ele><time>2026-03-23T12:38:38.001Z</time></trkpt><trkpt lat="30.52864435176682" lon="-5.356212916277275"><ele>817.0</ele><time>2026-03-23T12:38:39.001Z</time></trkpt><trkpt lat="30.528523410078314" lon="-5.356403957544256"><ele>816.0</ele><time>2026-03-23T12:38:40.001Z</time></trkpt><trkpt lat="30.528414413935977" lon="-5.3565732824665"><ele>815.0</ele><time>2026-03-23T12:38:41.001Z</time></trkpt><trkpt lat="30.528306170283866" lon="-5.3567428316259775"><ele>814.0</ele><time>2026-03-23T12:38:42.001Z</time></trkpt><trkpt lat="30.52819343380682" lon="-5.35691845199223"><ele>814.0</ele><time>2026-03-23T12:38:43.001Z</time></trkpt><trkpt lat="30.52808218717579" lon="-5.357093413184478"><ele>814.0</ele><time>2026-03-23T12:38:44.001Z</time></trkpt><trkpt lat="30.527994440738308" lon="-5.35722906546598"><ele>814.0</ele><time>2026-03-23T12:38:45.001Z</time></trkpt><trkpt lat="30.527917634864206" lon="-5.357352632954211"><ele>813.75</ele><time>2026-03-23T12:38:46.001Z</time></trkpt><trkpt lat="30.527841914157776" lon="-5.357478423842692"><ele>813.5</ele><time>2026-03-23T12:38:47.001Z</time></trkpt><trkpt lat="30.527756300437304" lon="-5.35761283132694"><ele>813.25</ele><time>2026-03-23T12:38:48.001Z</time></trkpt><trkpt lat="30.527660459748652" lon="-5.3577581248899175"><ele>813.0</ele><time>2026-03-23T12:38:49.001Z</time></trkpt><trkpt lat="30.527556847164302" lon="-5.357917156670848"><ele>814.3333333333333</ele><time>2026-03-23T12:38:50.001Z</time></trkpt><trkpt lat="30.527453356629014" lon="-5.358080184447369"><ele>815.6666666666666</ele><time>2026-03-23T12:38:51.001Z</time></trkpt><trkpt lat="30.527341788999014" lon="-5.358252599931419"><ele>817.0</ele><time>2026-03-23T12:38:52.001Z</time></trkpt><trkpt lat="30.52722738965042" lon="-5.358429909160195"><ele>817.0</ele><time>2026-03-23T12:38:53.001Z</time></trkpt><trkpt lat="30.527112031237298" lon="-5.3586089459979345"><ele>817.0</ele><time>2026-03-23T12:38:54.001Z</time></trkpt><trkpt lat="30.526993205826194" lon="-5.35878787026145"><ele>817.0</ele><time>2026-03-23T12:38:55.001Z</time></trkpt><trkpt lat="30.526872983512227" lon="-5.358966567786676"><ele>816.6666666666666</ele><time>2026-03-23T12:38:56.001Z</time></trkpt><trkpt lat="30.5267562741956" lon="-5.359143224366333"><ele>816.3333333333333</ele><time>2026-03-23T12:38:57.001Z</time></trkpt><trkpt lat="30.526650016831063" lon="-5.359311027464043"><ele>816.0</ele><time>2026-03-23T12:38:58.001Z</time></trkpt><trkpt lat="30.52654709901002" lon="-5.359475540890336"><ele>816.0</ele><time>2026-03-23T12:38:59.001Z</time></trkpt><trkpt lat="30.52643990267688" lon="-5.3596445109419015"><ele>816.0</ele><time>2026-03-23T12:39:00.001Z</time></trkpt><trkpt lat="30.52633060338686" lon="-5.3598194615539"><ele>816.0</ele><time>2026-03-23T12:39:01.001Z</time></trkpt><trkpt lat="30.52621458973373" lon="-5.359997521286736"><ele>815.6666666666667</ele><time>2026-03-23T12:39:02.001Z</time></trkpt><trkpt lat="30.526097680922994" lon="-5.360177303996446"><ele>815.3333333333334</ele><time>2026-03-23T12:39:03.001Z</time></trkpt><trkpt lat="30.525976562460492" lon="-5.360361051734763"><ele>815.0</ele><time>2026-03-23T12:39:04.001Z</time></trkpt><trkpt lat="30.525853978604246" lon="-5.360549796735873"><ele>815.6666666666667</ele><time>2026-03-23T12:39:05.001Z</time></trkpt><trkpt lat="30.52573148317093" lon="-5.360744836321068"><ele>816.3333333333333</ele><time>2026-03-23T12:39:06.001Z</time></trkpt><trkpt lat="30.525609067372283" lon="-5.360942885637924"><ele>817.0</ele><time>2026-03-23T12:39:07.001Z</time></trkpt><trkpt lat="30.525483629164984" lon="-5.361140776846641"><ele>816.6666666666666</ele><time>2026-03-23T12:39:08.001Z</time></trkpt><trkpt lat="30.525360559582474" lon="-5.361331182393579"><ele>816.3333333333333</ele><time>2026-03-23T12:39:09.001Z</time></trkpt><trkpt lat="30.525235327578866" lon="-5.361522368060317"><ele>816.0</ele><time>2026-03-23T12:39:10.001Z</time></trkpt><trkpt lat="30.52511343145004" lon="-5.361716721683913"><ele>816.0</ele><time>2026-03-23T12:39:11.001Z</time></trkpt><trkpt lat="30.524993503482168" lon="-5.361913741614785"><ele>816.0</ele><time>2026-03-23T12:39:12.001Z</time></trkpt><trkpt lat="30.524866076673625" lon="-5.362108061568505"><ele>816.0</ele><time>2026-03-23T12:39:13.001Z</time></trkpt><trkpt lat="30.52473789964315" lon="-5.3623048221341625"><ele>817.0</ele><time>2026-03-23T12:39:14.001Z</time></trkpt><trkpt lat="30.52460839067634" lon="-5.362503772046682"><ele>818.0</ele><time>2026-03-23T12:39:15.001Z</time></trkpt><trkpt lat="30.52447776092362" lon="-5.36270299225572"><ele>819.0</ele><time>2026-03-23T12:39:16.001Z</time></trkpt><trkpt lat="30.52434803455664" lon="-5.362902045397509"><ele>819.3333333333333</ele><time>2026-03-23T12:39:17.001Z</time></trkpt><trkpt lat="30.52421759418102" lon="-5.363100452222406"><ele>819.6666666666666</ele><time>2026-03-23T12:39:18.001Z</time></trkpt><trkpt lat="30.52409047713847" lon="-5.363300366103563"><ele>820.0</ele><time>2026-03-23T12:39:19.001Z</time></trkpt><trkpt lat="30.52396493213022" lon="-5.3634983245323635"><ele>820.0</ele><time>2026-03-23T12:39:20.001Z</time></trkpt><trkpt lat="30.523841281180626" lon="-5.363692238002893"><ele>820.0</ele><time>2026-03-23T12:39:21.001Z</time></trkpt><trkpt lat="30.523715615324058" lon="-5.363886826277858"><ele>820.0</ele><time>2026-03-23T12:39:22.001Z</time></trkpt><trkpt lat="30.523593721091732" lon="-5.364079314237848"><ele>819.0</ele><time>2026-03-23T12:39:23.001Z</time></trkpt><trkpt lat="30.523468074151104" lon="-5.364270511392304"><ele>818.0</ele><time>2026-03-23T12:39:24.001Z</time></trkpt><trkpt lat="30.523342731963446" lon="-5.364465664979745"><ele>817.0</ele><time>2026-03-23T12:39:25.001Z</time></trkpt><trkpt lat="30.523217451287092" lon="-5.364655718889926"><ele>816.6666666666666</ele><time>2026-03-23T12:39:26.001Z</time></trkpt><trkpt lat="30.523091054554236" lon="-5.364846421156659"><ele>816.3333333333333</ele><time>2026-03-23T12:39:27.001Z</time></trkpt><trkpt lat="30.522966927598407" lon="-5.365038805501774"><ele>816.0</ele><time>2026-03-23T12:39:28.001Z</time></trkpt><trkpt lat="30.522841126681172" lon="-5.365233110032132"><ele>816.0</ele><time>2026-03-23T12:39:29.001Z</time></trkpt><trkpt lat="30.52271701004048" lon="-5.365425989759841"><ele>816.0</ele><time>2026-03-23T12:39:30.001Z</time></trkpt><trkpt lat="30.52259120313907" lon="-5.365619674059396"><ele>816.0</ele><time>2026-03-23T12:39:31.001Z</time></trkpt><trkpt lat="30.522465651668803" lon="-5.3658153670548"><ele>816.0</ele><time>2026-03-23T12:39:32.001Z</time></trkpt><trkpt lat="30.522343649003176" lon="-5.36600953659385"><ele>816.0</ele><time>2026-03-23T12:39:33.001Z</time></trkpt><trkpt lat="30.52222162854763" lon="-5.366204506841434"><ele>816.0</ele><time>2026-03-23T12:39:34.001Z</time></trkpt><trkpt lat="30.522100363427835" lon="-5.366399790962986"><ele>815.3333333333333</ele><time>2026-03-23T12:39:35.001Z</time></trkpt><trkpt lat="30.521978601343644" lon="-5.366595739198718"><ele>814.6666666666666</ele><time>2026-03-23T12:39:36.001Z</time></trkpt><trkpt lat="30.521852481455994" lon="-5.366791415894174"><ele>814.0</ele><time>2026-03-23T12:39:37.001Z</time></trkpt><trkpt lat="30.521727952087634" lon="-5.366985956248086"><ele>814.0</ele><time>2026-03-23T12:39:38.001Z</time></trkpt><trkpt lat="30.52160126841548" lon="-5.367182576357039"><ele>814.0</ele><time>2026-03-23T12:39:39.001Z</time></trkpt><trkpt lat="30.521478771655435" lon="-5.367384224643819"><ele>814.0</ele><time>2026-03-23T12:39:40.001Z</time></trkpt><trkpt lat="30.52136109678055" lon="-5.367588813540025"><ele>814.6666666666666</ele><time>2026-03-23T12:39:41.001Z</time></trkpt><trkpt lat="30.52124335881113" lon="-5.367791797262024"><ele>815.3333333333333</ele><time>2026-03-23T12:39:42.001Z</time></trkpt><trkpt lat="30.52113021764415" lon="-5.367980755466485"><ele>816.0</ele><time>2026-03-23T12:39:43.001Z</time></trkpt><trkpt lat="30.5210196500857" lon="-5.368162883555331"><ele>816.3333333333333</ele><time>2026-03-23T12:39:44.001Z</time></trkpt><trkpt lat="30.52090876516906" lon="-5.368346401254701"><ele>816.6666666666666</ele><time>2026-03-23T12:39:45.001Z</time></trkpt><trkpt lat="30.520797710349765" lon="-5.368532107424342"><ele>817.0</ele><time>2026-03-23T12:39:46.001Z</time></trkpt><trkpt lat="30.520688538834005" lon="-5.368715586696446"><ele>817.0</ele><time>2026-03-23T12:39:47.001Z</time></trkpt><trkpt lat="30.52057919843366" lon="-5.368900869606336"><ele>817.0</ele><time>2026-03-23T12:39:48.001Z</time></trkpt><trkpt lat="30.520467551948013" lon="-5.369089669754822"><ele>817.0</ele><time>2026-03-23T12:39:49.001Z</time></trkpt><trkpt lat="30.520357056172912" lon="-5.369279553378392"><ele>817.0</ele><time>2026-03-23T12:39:50.001Z</time></trkpt><trkpt lat="30.52024617946289" lon="-5.36947195912879"><ele>817.0</ele><time>2026-03-23T12:39:51.001Z</time></trkpt><trkpt lat="30.52013488780997" lon="-5.3696612645927"><ele>817.0</ele><time>2026-03-23T12:39:52.001Z</time></trkpt><trkpt lat="30.52001924340332" lon="-5.369851261050328"><ele>817.0</ele><time>2026-03-23T12:39:53.001Z</time></trkpt><trkpt lat="30.519908738195944" lon="-5.370042322879315"><ele>817.0</ele><time>2026-03-23T12:39:54.001Z</time></trkpt><trkpt lat="30.519801093539996" lon="-5.370235702091717"><ele>817.0</ele><time>2026-03-23T12:39:55.001Z</time></trkpt><trkpt lat="30.519693012396953" lon="-5.3704292606261"><ele>816.3333333333333</ele><time>2026-03-23T12:39:56.001Z</time></trkpt><trkpt lat="30.519588560303518" lon="-5.370626737560716"><ele>815.6666666666667</ele><time>2026-03-23T12:39:57.001Z</time></trkpt><trkpt lat="30.519481223062034" lon="-5.370821492625059"><ele>815.0</ele><time>2026-03-23T12:39:58.001Z</time></trkpt><trkpt lat="30.519374075542096" lon="-5.3710144865883604"><ele>814.6666666666667</ele><time>2026-03-23T12:39:59.001Z</time></trkpt><trkpt lat="30.519266645336238" lon="-5.371203569156754"><ele>814.3333333333333</ele><time>2026-03-23T12:40:00.001Z</time></trkpt><trkpt lat="30.519155861791024" lon="-5.371387879909141"><ele>814.0</ele><time>2026-03-23T12:40:01.001Z</time></trkpt><trkpt lat="30.519047868996285" lon="-5.371574158160545"><ele>814.0</ele><time>2026-03-23T12:40:02.001Z</time></trkpt><trkpt lat="30.518947758014576" lon="-5.371754713096743"><ele>814.0</ele><time>2026-03-23T12:40:03.001Z</time></trkpt><trkpt lat="30.518850003276306" lon="-5.371931580253137"><ele>814.0</ele><time>2026-03-23T12:40:04.001Z</time></trkpt><trkpt lat="30.51875180760595" lon="-5.3721081961879715"><ele>812.3333333333333</ele><time>2026-03-23T12:40:05.001Z</time></trkpt><trkpt lat="30.518658239878555" lon="-5.372277532735533"><ele>810.6666666666667</ele><time>2026-03-23T12:40:06.001Z</time></trkpt><trkpt lat="30.5185677309976" lon="-5.372442113829113"><ele>809.0</ele><time>2026-03-23T12:40:07.001Z</time></trkpt><trkpt lat="30.518477594348898" lon="-5.37260284408837"><ele>809.0</ele><time>2026-03-23T12:40:08.001Z</time></trkpt><trkpt lat="30.5183889349619" lon="-5.372763602232698"><ele>809.0</ele><time>2026-03-23T12:40:09.001Z</time></trkpt><trkpt lat="30.518301098140917" lon="-5.372924635680091"><ele>809.0</ele><time>2026-03-23T12:40:10.001Z</time></trkpt><trkpt lat="30.518215542128917" lon="-5.373088993257526"><ele>810.0</ele><time>2026-03-23T12:40:11.001Z</time></trkpt><trkpt lat="30.51813148026941" lon="-5.373253249525631"><ele>811.0</ele><time>2026-03-23T12:40:12.001Z</time></trkpt><trkpt lat="30.51804518670821" lon="-5.373415964521351"><ele>812.0</ele><time>2026-03-23T12:40:13.001Z</time></trkpt><trkpt lat="30.51795878903023" lon="-5.373579516577614"><ele>811.6666666666667</ele><time>2026-03-23T12:40:14.001Z</time></trkpt><trkpt lat="30.517874147457672" lon="-5.373744221729544"><ele>811.3333333333333</ele><time>2026-03-23T12:40:15.001Z</time></trkpt><trkpt lat="30.51779128324998" lon="-5.373910544553387"><ele>811.0</ele><time>2026-03-23T12:40:16.001Z</time></trkpt><trkpt lat="30.51770172354117" lon="-5.374083161032445"><ele>812.0</ele><time>2026-03-23T12:40:17.001Z</time></trkpt><trkpt lat="30.517613804591633" lon="-5.37425508434866"><ele>813.0</ele><time>2026-03-23T12:40:18.001Z</time></trkpt><trkpt lat="30.517522228674085" lon="-5.374430235155839"><ele>814.0</ele><time>2026-03-23T12:40:19.001Z</time></trkpt><trkpt lat="30.5174308918362" lon="-5.37460274752593"><ele>813.0</ele><time>2026-03-23T12:40:20.001Z</time></trkpt><trkpt lat="30.51733958093361" lon="-5.374775693923546"><ele>812.0</ele><time>2026-03-23T12:40:21.001Z</time></trkpt><trkpt lat="30.517248897201288" lon="-5.374950193715441"><ele>811.0</ele><time>2026-03-23T12:40:22.001Z</time></trkpt><trkpt lat="30.517158487850086" lon="-5.375124411258983"><ele>811.0</ele><time>2026-03-23T12:40:23.001Z</time></trkpt><trkpt lat="30.51706599535421" lon="-5.37529658322197"><ele>811.0</ele><time>2026-03-23T12:40:24.001Z</time></trkpt><trkpt lat="30.51697524181853" lon="-5.375472809286056"><ele>811.0</ele><time>2026-03-23T12:40:25.001Z</time></trkpt><trkpt lat="30.516887472393083" lon="-5.375646613198662"><ele>812.0</ele><time>2026-03-23T12:40:26.001Z</time></trkpt><trkpt lat="30.516797047177462" lon="-5.375823042219352"><ele>813.0</ele><time>2026-03-23T12:40:27.001Z</time></trkpt><trkpt lat="30.51670252754721" lon="-5.376000005786101"><ele>814.0</ele><time>2026-03-23T12:40:28.001Z</time></trkpt><trkpt lat="30.51660772983879" lon="-5.376175835479837"><ele>814.0</ele><time>2026-03-23T12:40:29.001Z</time></trkpt><trkpt lat="30.516513724512826" lon="-5.3763555014988995"><ele>814.0</ele><time>2026-03-23T12:40:30.001Z</time></trkpt><trkpt lat="30.516417996994942" lon="-5.376544696525444"><ele>814.0</ele><time>2026-03-23T12:40:31.001Z</time></trkpt><trkpt lat="30.516315040804162" lon="-5.376738031528202"><ele>814.0</ele><time>2026-03-23T12:40:32.001Z</time></trkpt><trkpt lat="30.516212030517664" lon="-5.376930754650603"><ele>814.0</ele><time>2026-03-23T12:40:33.001Z</time></trkpt><trkpt lat="30.51610790601159" lon="-5.377123827968731"><ele>814.0</ele><time>2026-03-23T12:40:34.001Z</time></trkpt><trkpt lat="30.51600560437034" lon="-5.377321770340394"><ele>814.0</ele><time>2026-03-23T12:40:35.001Z</time></trkpt><trkpt lat="30.515903299798627" lon="-5.377521753599112"><ele>814.0</ele><time>2026-03-23T12:40:36.001Z</time></trkpt><trkpt lat="30.51579744132651" lon="-5.37772234746236"><ele>814.0</ele><time>2026-03-23T12:40:37.001Z</time></trkpt><trkpt lat="30.515692550408218" lon="-5.377924488396504"><ele>814.6666666666666</ele><time>2026-03-23T12:40:38.001Z</time></trkpt><trkpt lat="30.515587036482827" lon="-5.3781258103292044"><ele>815.3333333333333</ele><time>2026-03-23T12:40:39.001Z</time></trkpt><trkpt lat="30.515479644353224" lon="-5.378329917378153"><ele>816.0</ele><time>2026-03-23T12:40:40.001Z</time></trkpt><trkpt lat="30.515372495986732" lon="-5.378532094852241"><ele>816.0</ele><time>2026-03-23T12:40:41.001Z</time></trkpt><trkpt lat="30.51526461711205" lon="-5.378733303128965"><ele>816.0</ele><time>2026-03-23T12:40:42.001Z</time></trkpt><trkpt lat="30.51515663425202" lon="-5.378939044308333"><ele>816.0</ele><time>2026-03-23T12:40:43.001Z</time></trkpt><trkpt lat="30.515050860679093" lon="-5.379144180379743"><ele>816.0</ele><time>2026-03-23T12:40:44.001Z</time></trkpt><trkpt lat="30.51494464934489" lon="-5.379347947166971"><ele>816.0</ele><time>2026-03-23T12:40:45.001Z</time></trkpt><trkpt lat="30.51483496431373" lon="-5.379551012373904"><ele>816.0</ele><time>2026-03-23T12:40:46.001Z</time></trkpt><trkpt lat="30.514728318771212" lon="-5.379756031526033"><ele>816.0</ele><time>2026-03-23T12:40:47.001Z</time></trkpt><trkpt lat="30.514621510489796" lon="-5.379965215098976"><ele>816.0</ele><time>2026-03-23T12:40:48.001Z</time></trkpt><trkpt lat="30.514513532651193" lon="-5.380169257795274"><ele>816.0</ele><time>2026-03-23T12:40:49.001Z</time></trkpt><trkpt lat="30.5144053462535" lon="-5.38037548684714"><ele>815.0</ele><time>2026-03-23T12:40:50.001Z</time></trkpt><trkpt lat="30.514293758119834" lon="-5.380588073859988"><ele>814.0</ele><time>2026-03-23T12:40:51.001Z</time></trkpt><trkpt lat="30.514178762939185" lon="-5.380805588657306"><ele>813.0</ele><time>2026-03-23T12:40:52.001Z</time></trkpt><trkpt lat="30.514056347489802" lon="-5.381036490869656"><ele>813.0</ele><time>2026-03-23T12:40:53.001Z</time></trkpt><trkpt lat="30.513929873840237" lon="-5.381271584389771"><ele>813.0</ele><time>2026-03-23T12:40:54.001Z</time></trkpt><trkpt lat="30.513802468368343" lon="-5.381504911306254"><ele>813.6666666666667</ele><time>2026-03-23T12:40:55.001Z</time></trkpt><trkpt lat="30.51368621782715" lon="-5.381727062993157"><ele>814.3333333333334</ele><time>2026-03-23T12:40:56.001Z</time></trkpt><trkpt lat="30.513575961186174" lon="-5.3819440169362025"><ele>815.0</ele><time>2026-03-23T12:40:57.001Z</time></trkpt><trkpt lat="30.513465914757166" lon="-5.382162377299637"><ele>814.3333333333334</ele><time>2026-03-23T12:40:58.001Z</time></trkpt><trkpt lat="30.513347696050246" lon="-5.382381027998798"><ele>813.6666666666667</ele><time>2026-03-23T12:40:59.001Z</time></trkpt><trkpt lat="30.513228323449244" lon="-5.382600314863386"><ele>813.0</ele><time>2026-03-23T12:41:00.001Z</time></trkpt><trkpt lat="30.51311083386876" lon="-5.3828217334294814"><ele>813.0</ele><time>2026-03-23T12:41:01.001Z</time></trkpt><trkpt lat="30.512994884256578" lon="-5.383044867470808"><ele>813.0</ele><time>2026-03-23T12:41:02.001Z</time></trkpt><trkpt lat="30.512874140964545" lon="-5.383274470491329"><ele>812.0</ele><time>2026-03-23T12:41:03.001Z</time></trkpt><trkpt lat="30.51274773903422" lon="-5.383506534051301"><ele>811.0</ele><time>2026-03-23T12:41:04.001Z</time></trkpt><trkpt lat="30.512572671897917" lon="-5.383732686005631"><ele>813.0</ele><time>2026-03-23T12:41:05.001Z</time></trkpt><trkpt lat="30.512422465240782" lon="-5.383954965170703"><ele>815.0</ele><time>2026-03-23T12:41:06.001Z</time></trkpt><trkpt lat="30.512250965321602" lon="-5.384174956665538"><ele>815.0</ele><time>2026-03-23T12:41:07.001Z</time></trkpt><trkpt lat="30.512258964450957" lon="-5.384450013156883"><ele>815.0</ele><time>2026-03-23T12:41:08.001Z</time></trkpt><trkpt lat="30.51212941520798" lon="-5.384691107748526"><ele>818.0</ele><time>2026-03-23T12:41:09.001Z</time></trkpt><trkpt lat="30.51199066565611" lon="-5.3849306216237665"><ele>821.0</ele><time>2026-03-23T12:41:10.001Z</time></trkpt><trkpt lat="30.51184553372036" lon="-5.385171538140136"><ele>821.0</ele><time>2026-03-23T12:41:11.001Z</time></trkpt><trkpt lat="30.511680132704143" lon="-5.385402379495362"><ele>821.0</ele><time>2026-03-23T12:41:12.001Z</time></trkpt><trkpt lat="30.51153587926676" lon="-5.385653737087305"><ele>820.0</ele><time>2026-03-23T12:41:13.001Z</time></trkpt><trkpt lat="30.511375725485703" lon="-5.385889456275804"><ele>819.0</ele><time>2026-03-23T12:41:14.001Z</time></trkpt><trkpt lat="30.511216326419206" lon="-5.386119961186632"><ele>821.0</ele><time>2026-03-23T12:41:15.001Z</time></trkpt><trkpt lat="30.51104136347309" lon="-5.386326404601463"><ele>823.0</ele><time>2026-03-23T12:41:16.001Z</time></trkpt><trkpt lat="30.51087957566403" lon="-5.386540211840558"><ele>823.5</ele><time>2026-03-23T12:41:17.001Z</time></trkpt><trkpt lat="30.510730117494763" lon="-5.38675640653684"><ele>824.0</ele><time>2026-03-23T12:41:18.001Z</time></trkpt><trkpt lat="30.510578245486673" lon="-5.386939983897012"><ele>824.0</ele><time>2026-03-23T12:41:19.001Z</time></trkpt><trkpt lat="30.51042293600003" lon="-5.387117943104446"><ele>824.0</ele><time>2026-03-23T12:41:20.001Z</time></trkpt><trkpt lat="30.510267393573354" lon="-5.387299571041039"><ele>824.0</ele><time>2026-03-23T12:41:21.001Z</time></trkpt><trkpt lat="30.510101743569834" lon="-5.3874798711940235"><ele>822.0</ele><time>2026-03-23T12:41:22.001Z</time></trkpt><trkpt lat="30.509932213429895" lon="-5.387661744820612"><ele>820.0</ele><time>2026-03-23T12:41:23.001Z</time></trkpt><trkpt lat="30.509762421118925" lon="-5.38784199844323"><ele>819.0</ele><time>2026-03-23T12:41:24.001Z</time></trkpt><trkpt lat="30.50958794707677" lon="-5.3880193611366405"><ele>818.0</ele><time>2026-03-23T12:41:25.001Z</time></trkpt><trkpt lat="30.50941113905481" lon="-5.388195636038949"><ele>820.0</ele><time>2026-03-23T12:41:26.001Z</time></trkpt><trkpt lat="30.50923515223641" lon="-5.388373086025104"><ele>822.0</ele><time>2026-03-23T12:41:27.001Z</time></trkpt><trkpt lat="30.509067054456636" lon="-5.388548437319844"><ele>822.0</ele><time>2026-03-23T12:41:28.001Z</time></trkpt><trkpt lat="30.508899643214026" lon="-5.388722005983903"><ele>822.0</ele><time>2026-03-23T12:41:29.001Z</time></trkpt><trkpt lat="30.508736682865898" lon="-5.388892323352281"><ele>822.0</ele><time>2026-03-23T12:41:30.001Z</time></trkpt><trkpt lat="30.50857678045196" lon="-5.389060882555107"><ele>822.3333333333333</ele><time>2026-03-23T12:41:31.001Z</time></trkpt><trkpt lat="30.508417763798743" lon="-5.389228125569371"><ele>822.6666666666666</ele><time>2026-03-23T12:41:32.001Z</time></trkpt><trkpt lat="30.50826022694803" lon="-5.38939688744381"><ele>823.0</ele><time>2026-03-23T12:41:33.001Z</time></trkpt><trkpt lat="30.508092510264877" lon="-5.3895621129112365"><ele>822.6666666666666</ele><time>2026-03-23T12:41:34.001Z</time></trkpt><trkpt lat="30.507928580416706" lon="-5.38972765334044"><ele>822.3333333333333</ele><time>2026-03-23T12:41:35.001Z</time></trkpt><trkpt lat="30.50776924033962" lon="-5.389891678151023"><ele>822.0</ele><time>2026-03-23T12:41:36.001Z</time></trkpt><trkpt lat="30.5076085399864" lon="-5.390051063910084"><ele>821.3333333333333</ele><time>2026-03-23T12:41:37.001Z</time></trkpt><trkpt lat="30.507453998927353" lon="-5.390214941166991"><ele>820.6666666666666</ele><time>2026-03-23T12:41:38.001Z</time></trkpt><trkpt lat="30.507304758659107" lon="-5.390380675409098"><ele>820.0</ele><time>2026-03-23T12:41:39.001Z</time></trkpt><trkpt lat="30.50715199841601" lon="-5.390546295946216"><ele>820.6666666666666</ele><time>2026-03-23T12:41:40.001Z</time></trkpt><trkpt lat="30.50699041757207" lon="-5.3907119312795855"><ele>821.3333333333333</ele><time>2026-03-23T12:41:41.001Z</time></trkpt><trkpt lat="30.50683042491106" lon="-5.3908779555212165"><ele>822.0</ele><time>2026-03-23T12:41:42.001Z</time></trkpt><trkpt lat="30.50667380255684" lon="-5.391045007406619"><ele>822.0</ele><time>2026-03-23T12:41:43.001Z</time></trkpt><trkpt lat="30.506515437405206" lon="-5.39121324576839"><ele>822.0</ele><time>2026-03-23T12:41:44.001Z</time></trkpt><trkpt lat="30.50635295014446" lon="-5.391380103203231"><ele>822.0</ele><time>2026-03-23T12:41:45.001Z</time></trkpt><trkpt lat="30.506189255437533" lon="-5.391549608664961"><ele>823.5</ele><time>2026-03-23T12:41:46.001Z</time></trkpt><trkpt lat="30.506021937705643" lon="-5.391725293788613"><ele>825.0</ele><time>2026-03-23T12:41:47.001Z</time></trkpt><trkpt lat="30.505850316659306" lon="-5.391907980782475"><ele>825.0</ele><time>2026-03-23T12:41:48.001Z</time></trkpt><trkpt lat="30.505678081762525" lon="-5.3920934260329805"><ele>825.0</ele><time>2026-03-23T12:41:49.001Z</time></trkpt><trkpt lat="30.505506249469917" lon="-5.3922690686425945"><ele>823.6666666666667</ele><time>2026-03-23T12:41:50.001Z</time></trkpt><trkpt lat="30.50533645269053" lon="-5.392443959709701"><ele>822.3333333333334</ele><time>2026-03-23T12:41:51.001Z</time></trkpt><trkpt lat="30.505176552718517" lon="-5.3926135575856255"><ele>821.0</ele><time>2026-03-23T12:41:52.001Z</time></trkpt><trkpt lat="30.505021050592344" lon="-5.392781568803008"><ele>821.0</ele><time>2026-03-23T12:41:53.001Z</time></trkpt><trkpt lat="30.50486626796877" lon="-5.392947403702172"><ele>821.0</ele><time>2026-03-23T12:41:54.001Z</time></trkpt><trkpt lat="30.504712191829473" lon="-5.393105172274332"><ele>821.0</ele><time>2026-03-23T12:41:55.001Z</time></trkpt><trkpt lat="30.504551310580336" lon="-5.393270505151095"><ele>821.3333333333334</ele><time>2026-03-23T12:41:56.001Z</time></trkpt><trkpt lat="30.504389463382015" lon="-5.39344370573012"><ele>821.6666666666667</ele><time>2026-03-23T12:41:57.001Z</time></trkpt><trkpt lat="30.504226119204624" lon="-5.393618548987129"><ele>822.0</ele><time>2026-03-23T12:41:58.001Z</time></trkpt><trkpt lat="30.50406065085681" lon="-5.393796105942543"><ele>822.3333333333333</ele><time>2026-03-23T12:41:59.001Z</time></trkpt><trkpt lat="30.503897454379334" lon="-5.393973971838414"><ele>822.6666666666666</ele><time>2026-03-23T12:42:00.001Z</time></trkpt><trkpt lat="30.503734259676214" lon="-5.394152718284881"><ele>823.0</ele><time>2026-03-23T12:42:01.001Z</time></trkpt><trkpt lat="30.50357399078334" lon="-5.394334575513098"><ele>823.0</ele><time>2026-03-23T12:42:02.001Z</time></trkpt><trkpt lat="30.503414081142235" lon="-5.3945140150993725"><ele>823.0</ele><time>2026-03-23T12:42:03.001Z</time></trkpt><trkpt lat="30.503255013135767" lon="-5.394692930769622"><ele>823.0</ele><time>2026-03-23T12:42:04.001Z</time></trkpt><trkpt lat="30.503107534795348" lon="-5.394858767561209"><ele>823.0</ele><time>2026-03-23T12:42:05.001Z</time></trkpt><trkpt lat="30.502975743664102" lon="-5.395019891272572"><ele>823.0</ele><time>2026-03-23T12:42:06.001Z</time></trkpt><trkpt lat="30.5028414184739" lon="-5.395178762425676"><ele>823.0</ele><time>2026-03-23T12:42:07.001Z</time></trkpt><trkpt lat="30.502710143202485" lon="-5.395337369346732"><ele>824.0</ele><time>2026-03-23T12:42:08.001Z</time></trkpt><trkpt lat="30.50258461286327" lon="-5.395494405376389"><ele>825.0</ele><time>2026-03-23T12:42:09.001Z</time></trkpt><trkpt lat="30.502454051665186" lon="-5.39564988492071"><ele>826.0</ele><time>2026-03-23T12:42:10.001Z</time></trkpt><trkpt lat="30.502321640846034" lon="-5.395810520375814"><ele>826.0</ele><time>2026-03-23T12:42:11.001Z</time></trkpt><trkpt lat="30.502183447118718" lon="-5.3959767156629015"><ele>826.0</ele><time>2026-03-23T12:42:12.001Z</time></trkpt><trkpt lat="30.50204603309681" lon="-5.396145829402152"><ele>826.0</ele><time>2026-03-23T12:42:13.001Z</time></trkpt><trkpt lat="30.501912535681203" lon="-5.396313390102196"><ele>826.0</ele><time>2026-03-23T12:42:14.001Z</time></trkpt><trkpt lat="30.50177913823484" lon="-5.396477353242126"><ele>826.0</ele><time>2026-03-23T12:42:15.001Z</time></trkpt><trkpt lat="30.501645363033862" lon="-5.396638788158055"><ele>826.0</ele><time>2026-03-23T12:42:16.001Z</time></trkpt><trkpt lat="30.50151286592775" lon="-5.3968051796371235"><ele>826.0</ele><time>2026-03-23T12:42:17.001Z</time></trkpt><trkpt lat="30.501383835563505" lon="-5.396972142789427"><ele>826.0</ele><time>2026-03-23T12:42:18.001Z</time></trkpt><trkpt lat="30.501255282986353" lon="-5.397140990580791"><ele>826.0</ele><time>2026-03-23T12:42:19.001Z</time></trkpt><trkpt lat="30.501123839813186" lon="-5.397307830140858"><ele>826.3333333333333</ele><time>2026-03-23T12:42:20.001Z</time></trkpt><trkpt lat="30.500991364114103" lon="-5.397478765289176"><ele>826.6666666666667</ele><time>2026-03-23T12:42:21.001Z</time></trkpt><trkpt lat="30.50085950126357" lon="-5.3976582746289425"><ele>827.0</ele><time>2026-03-23T12:42:22.001Z</time></trkpt><trkpt lat="30.500727509912174" lon="-5.397842384991977"><ele>827.3333333333334</ele><time>2026-03-23T12:42:23.001Z</time></trkpt><trkpt lat="30.50059235290322" lon="-5.398026622858421"><ele>827.6666666666667</ele><time>2026-03-23T12:42:24.001Z</time></trkpt><trkpt lat="30.50045791246813" lon="-5.398215407870753"><ele>828.0</ele><time>2026-03-23T12:42:25Z</time></trkpt><trkpt lat="30.50032458797144" lon="-5.398404990799392"><ele>827.6666666666667</ele><time>2026-03-23T12:42:26Z</time></trkpt><trkpt lat="30.500191581304435" lon="-5.398598683299012"><ele>827.3333333333334</ele><time>2026-03-23T12:42:27Z</time></trkpt><trkpt lat="30.50005276996169" lon="-5.398790512223919"><ele>827.0</ele><time>2026-03-23T12:42:28Z</time></trkpt><trkpt lat="30.499913405107986" lon="-5.398975878318593"><ele>827.0</ele><time>2026-03-23T12:42:29Z</time></trkpt><trkpt lat="30.49977745821049" lon="-5.399165147698906"><ele>827.0</ele><time>2026-03-23T12:42:30Z</time></trkpt><trkpt lat="30.49963862598186" lon="-5.399356958932553"><ele>827.0</ele><time>2026-03-23T12:42:31Z</time></trkpt><trkpt lat="30.499503666889282" lon="-5.39954872337167"><ele>827.0</ele><time>2026-03-23T12:42:32Z</time></trkpt><trkpt lat="30.499376531748215" lon="-5.39972402350387"><ele>827.0</ele><time>2026-03-23T12:42:33Z</time></trkpt><trkpt lat="30.499257087799702" lon="-5.399878599797844"><ele>827.0</ele><time>2026-03-23T12:42:34Z</time></trkpt><trkpt lat="30.49913997661688" lon="-5.400033552720975"><ele>827.0</ele><time>2026-03-23T12:42:35Z</time></trkpt><trkpt lat="30.499028152038786" lon="-5.400208304301375"><ele>827.0</ele><time>2026-03-23T12:42:36Z</time></trkpt><trkpt lat="30.498919208423864" lon="-5.4003862561567555"><ele>827.0</ele><time>2026-03-23T12:42:37Z</time></trkpt><trkpt lat="30.498801959577893" lon="-5.400554021127247"><ele>828.0</ele><time>2026-03-23T12:42:38Z</time></trkpt><trkpt lat="30.49867324756403" lon="-5.4007192440310385"><ele>829.0</ele><time>2026-03-23T12:42:39Z</time></trkpt><trkpt lat="30.498545805504754" lon="-5.400898654094758"><ele>830.0</ele><time>2026-03-23T12:42:40Z</time></trkpt><trkpt lat="30.49841757180512" lon="-5.401082633518831"><ele>830.0</ele><time>2026-03-23T12:42:41Z</time></trkpt><trkpt lat="30.498287359956198" lon="-5.401261656879448"><ele>830.0</ele><time>2026-03-23T12:42:42Z</time></trkpt><trkpt lat="30.49815606847024" lon="-5.401442738837977"><ele>830.0</ele><time>2026-03-23T12:42:43Z</time></trkpt><trkpt lat="30.49802632963367" lon="-5.401624044278254"><ele>829.0</ele><time>2026-03-23T12:42:44Z</time></trkpt><trkpt lat="30.497896304655086" lon="-5.401806719238368"><ele>828.0</ele><time>2026-03-23T12:42:45Z</time></trkpt><trkpt lat="30.497766650727144" lon="-5.40198820303437"><ele>827.0</ele><time>2026-03-23T12:42:46Z</time></trkpt><trkpt lat="30.497639324855236" lon="-5.402169312900623"><ele>827.0</ele><time>2026-03-23T12:42:47Z</time></trkpt><trkpt lat="30.497512470635723" lon="-5.402349304437622"><ele>827.0</ele><time>2026-03-23T12:42:48Z</time></trkpt><trkpt lat="30.497384180056613" lon="-5.402527363189336"><ele>827.0</ele><time>2026-03-23T12:42:49Z</time></trkpt><trkpt lat="30.49725678831445" lon="-5.402702514374839"><ele>827.0</ele><time>2026-03-23T12:42:50Z</time></trkpt><trkpt lat="30.497130378346753" lon="-5.4028782235355335"><ele>827.0</ele><time>2026-03-23T12:42:51Z</time></trkpt><trkpt lat="30.497005320715246" lon="-5.4030531758969"><ele>827.0</ele><time>2026-03-23T12:42:52Z</time></trkpt><trkpt lat="30.496881159293814" lon="-5.403229923407576"><ele>826.3333333333334</ele><time>2026-03-23T12:42:53Z</time></trkpt><trkpt lat="30.496758880171765" lon="-5.403406636239322"><ele>825.6666666666667</ele><time>2026-03-23T12:42:54Z</time></trkpt><trkpt lat="30.496638151832137" lon="-5.403585054234543"><ele>825.0</ele><time>2026-03-23T12:42:55Z</time></trkpt><trkpt lat="30.496519077135975" lon="-5.403760793797863"><ele>825.3333333333333</ele><time>2026-03-23T12:42:56Z</time></trkpt><trkpt lat="30.496398839780827" lon="-5.4039388859084125"><ele>825.6666666666666</ele><time>2026-03-23T12:42:57Z</time></trkpt><trkpt lat="30.496278810704187" lon="-5.40411425933007"><ele>826.0</ele><time>2026-03-23T12:42:58Z</time></trkpt><trkpt lat="30.496157435291064" lon="-5.404285650480509"><ele>826.3333333333333</ele><time>2026-03-23T12:42:59Z</time></trkpt><trkpt lat="30.496038441989242" lon="-5.404459332818994"><ele>826.6666666666667</ele><time>2026-03-23T12:43:00Z</time></trkpt><trkpt lat="30.49592110206098" lon="-5.4046370913927975"><ele>827.0</ele><time>2026-03-23T12:43:01Z</time></trkpt><trkpt lat="30.495805276702935" lon="-5.404816601376273"><ele>827.0</ele><time>2026-03-23T12:43:02Z</time></trkpt><trkpt lat="30.495686788250616" lon="-5.404997242165109"><ele>827.0</ele><time>2026-03-23T12:43:03Z</time></trkpt><trkpt lat="30.495565718380657" lon="-5.405174913360152"><ele>827.0</ele><time>2026-03-23T12:43:04Z</time></trkpt><trkpt lat="30.495445177493306" lon="-5.405349495236096"><ele>828.3333333333334</ele><time>2026-03-23T12:43:05Z</time></trkpt><trkpt lat="30.49532764805782" lon="-5.405524431172003"><ele>829.6666666666667</ele><time>2026-03-23T12:43:06Z</time></trkpt><trkpt lat="30.495212820313153" lon="-5.405696889009901"><ele>831.0</ele><time>2026-03-23T12:43:07Z</time></trkpt><trkpt lat="30.49509774858879" lon="-5.405869843287559"><ele>831.0</ele><time>2026-03-23T12:43:08Z</time></trkpt><trkpt lat="30.494982882754954" lon="-5.406039676070171"><ele>831.0</ele><time>2026-03-23T12:43:09Z</time></trkpt><trkpt lat="30.494873352574853" lon="-5.406215437444808"><ele>831.0</ele><time>2026-03-23T12:43:10Z</time></trkpt><trkpt lat="30.49476434793579" lon="-5.406394975965641"><ele>830.6666666666667</ele><time>2026-03-23T12:43:11Z</time></trkpt><trkpt lat="30.494652475282326" lon="-5.406574359260033"><ele>830.3333333333334</ele><time>2026-03-23T12:43:12Z</time></trkpt><trkpt lat="30.494538526813056" lon="-5.406755251758025"><ele>830.0</ele><time>2026-03-23T12:43:13Z</time></trkpt><trkpt lat="30.49442392523646" lon="-5.406929883298144"><ele>830.0</ele><time>2026-03-23T12:43:14Z</time></trkpt><trkpt lat="30.49430813400822" lon="-5.407112030788295"><ele>830.0</ele><time>2026-03-23T12:43:15Z</time></trkpt><trkpt lat="30.494191818198626" lon="-5.407290932423796"><ele>830.0</ele><time>2026-03-23T12:43:16Z</time></trkpt><trkpt lat="30.494077264089725" lon="-5.407473435449347"><ele>830.0</ele><time>2026-03-23T12:43:17Z</time></trkpt><trkpt lat="30.493964920550052" lon="-5.407657866130621"><ele>830.0</ele><time>2026-03-23T12:43:18Z</time></trkpt><trkpt lat="30.493853191739216" lon="-5.40784365609054"><ele>830.0</ele><time>2026-03-23T12:43:19Z</time></trkpt><trkpt lat="30.49373801615471" lon="-5.408031863031758"><ele>832.0</ele><time>2026-03-23T12:43:20Z</time></trkpt><trkpt lat="30.493625593338265" lon="-5.408216815712239"><ele>834.0</ele><time>2026-03-23T12:43:21Z</time></trkpt><trkpt lat="30.493516113666608" lon="-5.408404125241424"><ele>836.0</ele><time>2026-03-23T12:43:22Z</time></trkpt><trkpt lat="30.493408461824085" lon="-5.408593409194516"><ele>836.0</ele><time>2026-03-23T12:43:23Z</time></trkpt><trkpt lat="30.493299325721804" lon="-5.40878229639321"><ele>836.0</ele><time>2026-03-23T12:43:24Z</time></trkpt><trkpt lat="30.493185232593785" lon="-5.40897225234964"><ele>836.0</ele><time>2026-03-23T12:43:25Z</time></trkpt><trkpt lat="30.493070204019205" lon="-5.409160611568646"><ele>836.3333333333334</ele><time>2026-03-23T12:43:26Z</time></trkpt><trkpt lat="30.492957305696837" lon="-5.4093489071284235"><ele>836.6666666666667</ele><time>2026-03-23T12:43:27Z</time></trkpt><trkpt lat="30.492846107727015" lon="-5.409541081542395"><ele>837.0</ele><time>2026-03-23T12:43:28Z</time></trkpt><trkpt lat="30.492735537970844" lon="-5.409735511838515"><ele>837.0</ele><time>2026-03-23T12:43:29Z</time></trkpt><trkpt lat="30.49262269036114" lon="-5.409929072194426"><ele>837.0</ele><time>2026-03-23T12:43:30Z</time></trkpt><trkpt lat="30.49251037695095" lon="-5.410123376654782"><ele>837.0</ele><time>2026-03-23T12:43:31Z</time></trkpt><trkpt lat="30.49239867935864" lon="-5.410323620694596"><ele>837.0</ele><time>2026-03-23T12:43:32Z</time></trkpt><trkpt lat="30.492285838269613" lon="-5.410530191367688"><ele>837.0</ele><time>2026-03-23T12:43:33Z</time></trkpt><trkpt lat="30.492170717130723" lon="-5.410737313403053"><ele>837.0</ele><time>2026-03-23T12:43:34Z</time></trkpt><trkpt lat="30.49205465809997" lon="-5.4109422280561255"><ele>837.6666666666667</ele><time>2026-03-23T12:43:35Z</time></trkpt><trkpt lat="30.491936509188474" lon="-5.411148689168229"><ele>838.3333333333334</ele><time>2026-03-23T12:43:36Z</time></trkpt><trkpt lat="30.491813933268137" lon="-5.411353792765857"><ele>839.0</ele><time>2026-03-23T12:43:37Z</time></trkpt><trkpt lat="30.491690751630625" lon="-5.411559991727458"><ele>839.0</ele><time>2026-03-23T12:43:38Z</time></trkpt><trkpt lat="30.491571044998683" lon="-5.411770020904759"><ele>839.0</ele><time>2026-03-23T12:43:39Z</time></trkpt><trkpt lat="30.49145484073871" lon="-5.4119845432574865"><ele>839.0</ele><time>2026-03-23T12:43:40Z</time></trkpt><trkpt lat="30.491338583593894" lon="-5.412198441347395"><ele>840.6666666666667</ele><time>2026-03-23T12:43:41Z</time></trkpt><trkpt lat="30.49121999555051" lon="-5.412409243230503"><ele>842.3333333333333</ele><time>2026-03-23T12:43:42Z</time></trkpt><trkpt lat="30.491098761749495" lon="-5.412616774923707"><ele>844.0</ele><time>2026-03-23T12:43:43Z</time></trkpt><trkpt lat="30.49097889387965" lon="-5.412824036294793"><ele>841.0</ele><time>2026-03-23T12:43:44Z</time></trkpt><trkpt lat="30.490864221669547" lon="-5.413031048323173"><ele>838.0</ele><time>2026-03-23T12:43:45Z</time></trkpt><trkpt lat="30.490749325123065" lon="-5.4132372076817665"><ele>835.0</ele><time>2026-03-23T12:43:46Z</time></trkpt><trkpt lat="30.490634788991034" lon="-5.413445225975821"><ele>835.0</ele><time>2026-03-23T12:43:47Z</time></trkpt><trkpt lat="30.490522761179566" lon="-5.413655240195731"><ele>835.0</ele><time>2026-03-23T12:43:48Z</time></trkpt><trkpt lat="30.490407213761472" lon="-5.413864599649338"><ele>835.0</ele><time>2026-03-23T12:43:49Z</time></trkpt><trkpt lat="30.490289815479397" lon="-5.414069103309622"><ele>835.0</ele><time>2026-03-23T12:43:50.001Z</time></trkpt><trkpt lat="30.49016940738449" lon="-5.414270807366754"><ele>835.0</ele><time>2026-03-23T12:43:51.001Z</time></trkpt><trkpt lat="30.490051863097076" lon="-5.414473301935183"><ele>835.0</ele><time>2026-03-23T12:43:52.001Z</time></trkpt><trkpt lat="30.489937641009103" lon="-5.414676224127431"><ele>835.0</ele><time>2026-03-23T12:43:53.001Z</time></trkpt><trkpt lat="30.489825930069454" lon="-5.414880761513443"><ele>835.0</ele><time>2026-03-23T12:43:54.001Z</time></trkpt><trkpt lat="30.489712490336764" lon="-5.415085442550407"><ele>835.0</ele><time>2026-03-23T12:43:55.001Z</time></trkpt><trkpt lat="30.489595072557485" lon="-5.41528781314081"><ele>836.0</ele><time>2026-03-23T12:43:56.001Z</time></trkpt><trkpt lat="30.48948022273185" lon="-5.41548895588139"><ele>837.0</ele><time>2026-03-23T12:43:57.001Z</time></trkpt><trkpt lat="30.489366517700983" lon="-5.415686611972274"><ele>838.0</ele><time>2026-03-23T12:43:58.001Z</time></trkpt><trkpt lat="30.48925290653157" lon="-5.415881397754034"><ele>838.0</ele><time>2026-03-23T12:43:59.001Z</time></trkpt><trkpt lat="30.489138544016956" lon="-5.416080701108715"><ele>838.0</ele><time>2026-03-23T12:44:00.001Z</time></trkpt><trkpt lat="30.48902776522845" lon="-5.416281466139759"><ele>838.0</ele><time>2026-03-23T12:44:01.001Z</time></trkpt><trkpt lat="30.4889202362426" lon="-5.416481761760143"><ele>837.3333333333333</ele><time>2026-03-23T12:44:02.001Z</time></trkpt><trkpt lat="30.48880831124083" lon="-5.416680736661331"><ele>836.6666666666667</ele><time>2026-03-23T12:44:03.001Z</time></trkpt><trkpt lat="30.488695752934742" lon="-5.416881428984006"><ele>836.0</ele><time>2026-03-23T12:44:04.001Z</time></trkpt><trkpt lat="30.48858026459508" lon="-5.41708156442157"><ele>836.3333333333334</ele><time>2026-03-23T12:44:05.001Z</time></trkpt><trkpt lat="30.48846584961793" lon="-5.417280146193528"><ele>836.6666666666667</ele><time>2026-03-23T12:44:06.001Z</time></trkpt><trkpt lat="30.488352103295636" lon="-5.417481831679268"><ele>837.0</ele><time>2026-03-23T12:44:07.001Z</time></trkpt><trkpt lat="30.488240015023514" lon="-5.417687441800736"><ele>837.0</ele><time>2026-03-23T12:44:08.001Z</time></trkpt><trkpt lat="30.488124655841958" lon="-5.417891799590031"><ele>837.0</ele><time>2026-03-23T12:44:09.001Z</time></trkpt><trkpt lat="30.488006768741176" lon="-5.418098690046162"><ele>837.0</ele><time>2026-03-23T12:44:10.001Z</time></trkpt><trkpt lat="30.48789199920858" lon="-5.418305175897783"><ele>838.0</ele><time>2026-03-23T12:44:11.001Z</time></trkpt><trkpt lat="30.48777729365082" lon="-5.418514443243031"><ele>839.0</ele><time>2026-03-23T12:44:12.001Z</time></trkpt><trkpt lat="30.48766845102829" lon="-5.418727123344041"><ele>840.0</ele><time>2026-03-23T12:44:13.001Z</time></trkpt><trkpt lat="30.487559707251215" lon="-5.418943720609392"><ele>840.0</ele><time>2026-03-23T12:44:14.001Z</time></trkpt><trkpt lat="30.487453800273922" lon="-5.419163878583357"><ele>840.0</ele><time>2026-03-23T12:44:15.001Z</time></trkpt><trkpt lat="30.48734744866444" lon="-5.4193882755993705"><ele>840.0</ele><time>2026-03-23T12:44:16.001Z</time></trkpt><trkpt lat="30.48724454005336" lon="-5.4196142725632495"><ele>840.6666666666667</ele><time>2026-03-23T12:44:17.001Z</time></trkpt><trkpt lat="30.48714314248986" lon="-5.419844626698011"><ele>841.3333333333334</ele><time>2026-03-23T12:44:18.001Z</time></trkpt><trkpt lat="30.48704449560435" lon="-5.420075680198775"><ele>842.0</ele><time>2026-03-23T12:44:19Z</time></trkpt><trkpt lat="30.486948566861628" lon="-5.420305649065418"><ele>843.3333333333334</ele><time>2026-03-23T12:44:20Z</time></trkpt><trkpt lat="30.48685754729928" lon="-5.4205332304378535"><ele>844.6666666666667</ele><time>2026-03-23T12:44:21Z</time></trkpt><trkpt lat="30.486767512092886" lon="-5.420760187389206"><ele>846.0</ele><time>2026-03-23T12:44:22Z</time></trkpt><trkpt lat="30.486680984538577" lon="-5.420992517062074"><ele>846.0</ele><time>2026-03-23T12:44:23Z</time></trkpt><trkpt lat="30.48659554518904" lon="-5.421223256351701"><ele>846.0</ele><time>2026-03-23T12:44:24Z</time></trkpt><trkpt lat="30.48651195227033" lon="-5.421455177304087"><ele>846.0</ele><time>2026-03-23T12:44:25Z</time></trkpt><trkpt lat="30.486427003803662" lon="-5.421689982658211"><ele>846.3333333333333</ele><time>2026-03-23T12:44:26Z</time></trkpt><trkpt lat="30.486347818779937" lon="-5.421923306131035"><ele>846.6666666666666</ele><time>2026-03-23T12:44:27Z</time></trkpt><trkpt lat="30.486273607813306" lon="-5.422159174267876"><ele>847.0</ele><time>2026-03-23T12:44:28Z</time></trkpt><trkpt lat="30.48620345764489" lon="-5.422398462826958"><ele>847.0</ele><time>2026-03-23T12:44:29Z</time></trkpt><trkpt lat="30.486135769186703" lon="-5.42263770833413"><ele>847.0</ele><time>2026-03-23T12:44:30Z</time></trkpt><trkpt lat="30.486067544544454" lon="-5.422872663371472"><ele>847.0</ele><time>2026-03-23T12:44:31Z</time></trkpt><trkpt lat="30.48600312190964" lon="-5.4231049203207995"><ele>846.6666666666666</ele><time>2026-03-23T12:44:32Z</time></trkpt><trkpt lat="30.48594246402103" lon="-5.423338734050039"><ele>846.3333333333333</ele><time>2026-03-23T12:44:33Z</time></trkpt><trkpt lat="30.485885831519152" lon="-5.423570394917452"><ele>846.0</ele><time>2026-03-23T12:44:34Z</time></trkpt><trkpt lat="30.48582795495487" lon="-5.423802187012123"><ele>845.6666666666667</ele><time>2026-03-23T12:44:35Z</time></trkpt><trkpt lat="30.48577219641259" lon="-5.424033157644864"><ele>845.3333333333334</ele><time>2026-03-23T12:44:36Z</time></trkpt><trkpt lat="30.485720310594807" lon="-5.424266411581152"><ele>845.0</ele><time>2026-03-23T12:44:37Z</time></trkpt><trkpt lat="30.485672724600633" lon="-5.424504311467169"><ele>845.3333333333334</ele><time>2026-03-23T12:44:38Z</time></trkpt><trkpt lat="30.48562779465147" lon="-5.424738902340574"><ele>845.6666666666667</ele><time>2026-03-23T12:44:39Z</time></trkpt><trkpt lat="30.48558280689386" lon="-5.424972309835199"><ele>846.0</ele><time>2026-03-23T12:44:40Z</time></trkpt><trkpt lat="30.48553942310739" lon="-5.425201683765696"><ele>846.0</ele><time>2026-03-23T12:44:41Z</time></trkpt><trkpt lat="30.48550112372742" lon="-5.425426571187096"><ele>846.0</ele><time>2026-03-23T12:44:42Z</time></trkpt><trkpt lat="30.485465915277228" lon="-5.425650247511621"><ele>846.0</ele><time>2026-03-23T12:44:43Z</time></trkpt><trkpt lat="30.485433820830817" lon="-5.425873734943519"><ele>846.6666666666667</ele><time>2026-03-23T12:44:44Z</time></trkpt><trkpt lat="30.48540850773642" lon="-5.426096054674237"><ele>847.3333333333334</ele><time>2026-03-23T12:44:45Z</time></trkpt><trkpt lat="30.485383310976545" lon="-5.426321232891313"><ele>848.0</ele><time>2026-03-23T12:44:46Z</time></trkpt><trkpt lat="30.485353142264515" lon="-5.426544165648749"><ele>848.0</ele><time>2026-03-23T12:44:47Z</time></trkpt><trkpt lat="30.48532356339663" lon="-5.426764827232534"><ele>848.0</ele><time>2026-03-23T12:44:48Z</time></trkpt><trkpt lat="30.48529840423733" lon="-5.426985727672522"><ele>848.0</ele><time>2026-03-23T12:44:49Z</time></trkpt><trkpt lat="30.485276328831326" lon="-5.427212810683055"><ele>847.3333333333334</ele><time>2026-03-23T12:44:50Z</time></trkpt><trkpt lat="30.485249865646775" lon="-5.427441696862863"><ele>846.6666666666667</ele><time>2026-03-23T12:44:51Z</time></trkpt><trkpt lat="30.4852206684648" lon="-5.427665479093094"><ele>846.0</ele><time>2026-03-23T12:44:52Z</time></trkpt><trkpt lat="30.485193598531907" lon="-5.427893256643624"><ele>845.6666666666667</ele><time>2026-03-23T12:44:53Z</time></trkpt><trkpt lat="30.485169747658286" lon="-5.428121852638755"><ele>845.3333333333334</ele><time>2026-03-23T12:44:54Z</time></trkpt><trkpt lat="30.485146865568005" lon="-5.4283482967672265"><ele>845.0</ele><time>2026-03-23T12:44:55Z</time></trkpt><trkpt lat="30.485120173031415" lon="-5.428581064304982"><ele>845.6666666666667</ele><time>2026-03-23T12:44:56Z</time></trkpt><trkpt lat="30.48509300676161" lon="-5.428819865919875"><ele>846.3333333333333</ele><time>2026-03-23T12:44:57Z</time></trkpt><trkpt lat="30.48506775951493" lon="-5.429059703235282"><ele>847.0</ele><time>2026-03-23T12:44:58Z</time></trkpt><trkpt lat="30.485036084599876" lon="-5.429302639960417"><ele>847.0</ele><time>2026-03-23T12:44:59Z</time></trkpt><trkpt lat="30.485007773282092" lon="-5.429546420247643"><ele>847.0</ele><time>2026-03-23T12:45:00Z</time></trkpt><trkpt lat="30.48498269510685" lon="-5.4297860167070775"><ele>847.0</ele><time>2026-03-23T12:45:01Z</time></trkpt><trkpt lat="30.484956638920064" lon="-5.430031428748302"><ele>848.0</ele><time>2026-03-23T12:45:02Z</time></trkpt><trkpt lat="30.484929388811288" lon="-5.430280005603029"><ele>849.0</ele><time>2026-03-23T12:45:03Z</time></trkpt><trkpt lat="30.484900852276215" lon="-5.430533899162297"><ele>850.0</ele><time>2026-03-23T12:45:04Z</time></trkpt><trkpt lat="30.484871440213563" lon="-5.4307925895457085"><ele>850.0</ele><time>2026-03-23T12:45:05Z</time></trkpt><trkpt lat="30.484843592583577" lon="-5.4310516819417565"><ele>850.0</ele><time>2026-03-23T12:45:06Z</time></trkpt><trkpt lat="30.484815404117125" lon="-5.43129788234911"><ele>850.0</ele><time>2026-03-23T12:45:07Z</time></trkpt><trkpt lat="30.484785634482222" lon="-5.431524169829519"><ele>851.3333333333333</ele><time>2026-03-23T12:45:08Z</time></trkpt><trkpt lat="30.484758479626542" lon="-5.431741968903178"><ele>852.6666666666667</ele><time>2026-03-23T12:45:09Z</time></trkpt><trkpt lat="30.484733168298938" lon="-5.43196282471009"><ele>854.0</ele><time>2026-03-23T12:45:10Z</time></trkpt><trkpt lat="30.484709390021585" lon="-5.432193858288838"><ele>855.0</ele><time>2026-03-23T12:45:11Z</time></trkpt><trkpt lat="30.484687131149673" lon="-5.432420355694279"><ele>856.0</ele><time>2026-03-23T12:45:12Z</time></trkpt><trkpt lat="30.484663059018892" lon="-5.432652789299975"><ele>857.0</ele><time>2026-03-23T12:45:13Z</time></trkpt><trkpt lat="30.48463382805026" lon="-5.432889469584367"><ele>856.6666666666667</ele><time>2026-03-23T12:45:14Z</time></trkpt><trkpt lat="30.484604476450862" lon="-5.433131070213387"><ele>856.3333333333333</ele><time>2026-03-23T12:45:15Z</time></trkpt><trkpt lat="30.484576357690123" lon="-5.433376590071357"><ele>856.0</ele><time>2026-03-23T12:45:16Z</time></trkpt><trkpt lat="30.484550230718234" lon="-5.43362177961864"><ele>855.3333333333333</ele><time>2026-03-23T12:45:17Z</time></trkpt><trkpt lat="30.484523513530842" lon="-5.433864768171161"><ele>854.6666666666667</ele><time>2026-03-23T12:45:18Z</time></trkpt><trkpt lat="30.484493543373258" lon="-5.434098112358656"><ele>854.0</ele><time>2026-03-23T12:45:19Z</time></trkpt><trkpt lat="30.484467663104926" lon="-5.4343274662475345"><ele>854.0</ele><time>2026-03-23T12:45:20Z</time></trkpt><trkpt lat="30.484443027608098" lon="-5.43455682898898"><ele>854.0</ele><time>2026-03-23T12:45:21Z</time></trkpt><trkpt lat="30.484419885570414" lon="-5.43479421063842"><ele>854.0</ele><time>2026-03-23T12:45:22Z</time></trkpt><trkpt lat="30.484394522934004" lon="-5.43503644055042"><ele>854.0</ele><time>2026-03-23T12:45:23Z</time></trkpt><trkpt lat="30.484367118236907" lon="-5.435276974327477"><ele>854.0</ele><time>2026-03-23T12:45:24Z</time></trkpt><trkpt lat="30.484338612832925" lon="-5.435514306292739"><ele>854.0</ele><time>2026-03-23T12:45:25Z</time></trkpt><trkpt lat="30.48431030108313" lon="-5.435749473891167"><ele>854.0</ele><time>2026-03-23T12:45:26Z</time></trkpt><trkpt lat="30.484284771288554" lon="-5.435986554817322"><ele>854.0</ele><time>2026-03-23T12:45:27Z</time></trkpt><trkpt lat="30.484256373281415" lon="-5.436221506710184"><ele>854.0</ele><time>2026-03-23T12:45:28Z</time></trkpt><trkpt lat="30.484225937361455" lon="-5.4364572011337495"><ele>853.3333333333334</ele><time>2026-03-23T12:45:29Z</time></trkpt><trkpt lat="30.484191991613695" lon="-5.436691935601945"><ele>852.6666666666667</ele><time>2026-03-23T12:45:30Z</time></trkpt><trkpt lat="30.484155325298676" lon="-5.436925119156427"><ele>852.0</ele><time>2026-03-23T12:45:31Z</time></trkpt><trkpt lat="30.48411583997026" lon="-5.437156674909555"><ele>852.0</ele><time>2026-03-23T12:45:32Z</time></trkpt><trkpt lat="30.484075925554304" lon="-5.437389821180979"><ele>852.0</ele><time>2026-03-23T12:45:33Z</time></trkpt><trkpt lat="30.484034102139095" lon="-5.437621445937236"><ele>852.0</ele><time>2026-03-23T12:45:34Z</time></trkpt><trkpt lat="30.483985511643407" lon="-5.437852920556582"><ele>852.3333333333333</ele><time>2026-03-23T12:45:35Z</time></trkpt><trkpt lat="30.48393263610205" lon="-5.438087484551596"><ele>852.6666666666666</ele><time>2026-03-23T12:45:36Z</time></trkpt><trkpt lat="30.483879780194155" lon="-5.43832245011483"><ele>853.0</ele><time>2026-03-23T12:45:37Z</time></trkpt><trkpt lat="30.483823744122905" lon="-5.43855820263098"><ele>853.0</ele><time>2026-03-23T12:45:38Z</time></trkpt><trkpt lat="30.483765314539735" lon="-5.438795261783356"><ele>853.0</ele><time>2026-03-23T12:45:39Z</time></trkpt><trkpt lat="30.483704801309592" lon="-5.439032357860915"><ele>853.0</ele><time>2026-03-23T12:45:40Z</time></trkpt><trkpt lat="30.48363950565522" lon="-5.439269517095895"><ele>853.6666666666666</ele><time>2026-03-23T12:45:41Z</time></trkpt><trkpt lat="30.483574096749518" lon="-5.439502466918741"><ele>854.3333333333333</ele><time>2026-03-23T12:45:42Z</time></trkpt><trkpt lat="30.483508117594564" lon="-5.439730433504185"><ele>855.0</ele><time>2026-03-23T12:45:43Z</time></trkpt><trkpt lat="30.48344347344105" lon="-5.439954716408329"><ele>855.0</ele><time>2026-03-23T12:45:44Z</time></trkpt><trkpt lat="30.483378430659442" lon="-5.440176131399809"><ele>855.0</ele><time>2026-03-23T12:45:45Z</time></trkpt><trkpt lat="30.48330908301633" lon="-5.440392082805273"><ele>855.0</ele><time>2026-03-23T12:45:46Z</time></trkpt><trkpt lat="30.48323393380956" lon="-5.440607958558248"><ele>854.6666666666667</ele><time>2026-03-23T12:45:47Z</time></trkpt><trkpt lat="30.483156550838373" lon="-5.44082909309619"><ele>854.3333333333334</ele><time>2026-03-23T12:45:48Z</time></trkpt><trkpt lat="30.48307890340896" lon="-5.441054728471068"><ele>854.0</ele><time>2026-03-23T12:45:49Z</time></trkpt><trkpt lat="30.48299750057853" lon="-5.441281765622043"><ele>855.0</ele><time>2026-03-23T12:45:50Z</time></trkpt><trkpt lat="30.48291161070418" lon="-5.441507741446858"><ele>856.0</ele><time>2026-03-23T12:45:51Z</time></trkpt><trkpt lat="30.482825204214187" lon="-5.441728326139952"><ele>857.0</ele><time>2026-03-23T12:45:52Z</time></trkpt><trkpt lat="30.482736566806125" lon="-5.441944660602037"><ele>857.0</ele><time>2026-03-23T12:45:53Z</time></trkpt><trkpt lat="30.48264914663342" lon="-5.4421604356593205"><ele>857.0</ele><time>2026-03-23T12:45:54Z</time></trkpt><trkpt lat="30.482562818678836" lon="-5.442372034491407"><ele>857.0</ele><time>2026-03-23T12:45:55Z</time></trkpt><trkpt lat="30.48246984186379" lon="-5.442579216157445"><ele>857.0</ele><time>2026-03-23T12:45:56Z</time></trkpt><trkpt lat="30.482373603439058" lon="-5.442784841579916"><ele>857.0</ele><time>2026-03-23T12:45:57Z</time></trkpt><trkpt lat="30.48227794814452" lon="-5.442991255255515"><ele>857.0</ele><time>2026-03-23T12:45:58Z</time></trkpt><trkpt lat="30.482180734486676" lon="-5.443197148256349"><ele>857.3333333333334</ele><time>2026-03-23T12:45:59Z</time></trkpt><trkpt lat="30.482080820471175" lon="-5.443400435779095"><ele>857.6666666666667</ele><time>2026-03-23T12:46:00Z</time></trkpt><trkpt lat="30.481977499438297" lon="-5.4436026414034755"><ele>858.0</ele><time>2026-03-23T12:46:01Z</time></trkpt><trkpt lat="30.481868540254705" lon="-5.443808482062668"><ele>858.0</ele><time>2026-03-23T12:46:02Z</time></trkpt><trkpt lat="30.481758483703977" lon="-5.444017778903064"><ele>858.0</ele><time>2026-03-23T12:46:03Z</time></trkpt><trkpt lat="30.481642503979362" lon="-5.444225813549673"><ele>858.0</ele><time>2026-03-23T12:46:04Z</time></trkpt><trkpt lat="30.48152369550369" lon="-5.444436990630244"><ele>858.6666666666667</ele><time>2026-03-23T12:46:05Z</time></trkpt><trkpt lat="30.481406547537492" lon="-5.444646115220675"><ele>859.3333333333334</ele><time>2026-03-23T12:46:06Z</time></trkpt><trkpt lat="30.481292030314293" lon="-5.444857664886356"><ele>860.0</ele><time>2026-03-23T12:46:07Z</time></trkpt><trkpt lat="30.48117734676145" lon="-5.44506932788993"><ele>860.0</ele><time>2026-03-23T12:46:08Z</time></trkpt><trkpt lat="30.481064866992085" lon="-5.445281949620718"><ele>860.0</ele><time>2026-03-23T12:46:09Z</time></trkpt><trkpt lat="30.480949000356773" lon="-5.445494885493646"><ele>860.0</ele><time>2026-03-23T12:46:10Z</time></trkpt><trkpt lat="30.48082970809918" lon="-5.44570458193581"><ele>860.0</ele><time>2026-03-23T12:46:11Z</time></trkpt><trkpt lat="30.480711582536923" lon="-5.445913524663307"><ele>860.0</ele><time>2026-03-23T12:46:12Z</time></trkpt><trkpt lat="30.480593379481263" lon="-5.446118770683487"><ele>860.0</ele><time>2026-03-23T12:46:13Z</time></trkpt><trkpt lat="30.480480157450213" lon="-5.4463211101957"><ele>860.3333333333334</ele><time>2026-03-23T12:46:14Z</time></trkpt><trkpt lat="30.480370697402005" lon="-5.446520741869385"><ele>860.6666666666667</ele><time>2026-03-23T12:46:15Z</time></trkpt><trkpt lat="30.480261700722615" lon="-5.446720333638053"><ele>861.0</ele><time>2026-03-23T12:46:16Z</time></trkpt><trkpt lat="30.48015092917556" lon="-5.446918934456723"><ele>861.0</ele><time>2026-03-23T12:46:17Z</time></trkpt><trkpt lat="30.480038820476707" lon="-5.447121065934672"><ele>861.0</ele><time>2026-03-23T12:46:18Z</time></trkpt><trkpt lat="30.479926756080435" lon="-5.447330941391724"><ele>861.0</ele><time>2026-03-23T12:46:19Z</time></trkpt><trkpt lat="30.479808186876845" lon="-5.447539269908588"><ele>860.6666666666667</ele><time>2026-03-23T12:46:20Z</time></trkpt><trkpt lat="30.47968799544311" lon="-5.447746753722774"><ele>860.3333333333334</ele><time>2026-03-23T12:46:21Z</time></trkpt><trkpt lat="30.479569634340443" lon="-5.44795331704461"><ele>860.0</ele><time>2026-03-23T12:46:22Z</time></trkpt><trkpt lat="30.47945540511564" lon="-5.448164451457686"><ele>860.0</ele><time>2026-03-23T12:46:23Z</time></trkpt><trkpt lat="30.47934185244758" lon="-5.448374907043029"><ele>860.0</ele><time>2026-03-23T12:46:24Z</time></trkpt><trkpt lat="30.47922776857414" lon="-5.448583395109705"><ele>860.0</ele><time>2026-03-23T12:46:25Z</time></trkpt><trkpt lat="30.47910985315793" lon="-5.448793474761088"><ele>860.0</ele><time>2026-03-23T12:46:26Z</time></trkpt><trkpt lat="30.478992377990732" lon="-5.4490040863390234"><ele>860.0</ele><time>2026-03-23T12:46:27Z</time></trkpt><trkpt lat="30.478873787459033" lon="-5.449219149704024"><ele>860.0</ele><time>2026-03-23T12:46:28Z</time></trkpt><trkpt lat="30.478757243442328" lon="-5.449437068491625"><ele>860.5</ele><time>2026-03-23T12:46:29Z</time></trkpt><trkpt lat="30.478638476279638" lon="-5.449659368349242"><ele>861.0</ele><time>2026-03-23T12:46:30Z</time></trkpt><trkpt lat="30.478517097762555" lon="-5.449883723824247"><ele>861.0</ele><time>2026-03-23T12:46:31Z</time></trkpt><trkpt lat="30.47839217301489" lon="-5.450106475162172"><ele>861.0</ele><time>2026-03-23T12:46:32Z</time></trkpt><trkpt lat="30.478268629980107" lon="-5.45032562414168"><ele>861.0</ele><time>2026-03-23T12:46:33Z</time></trkpt><trkpt lat="30.47814931579675" lon="-5.450544378919247"><ele>861.0</ele><time>2026-03-23T12:46:34Z</time></trkpt><trkpt lat="30.478033057218784" lon="-5.450760586626736"><ele>861.0</ele><time>2026-03-23T12:46:35Z</time></trkpt><trkpt lat="30.47791502478152" lon="-5.4509770394756245"><ele>860.6666666666667</ele><time>2026-03-23T12:46:36Z</time></trkpt><trkpt lat="30.47779387122086" lon="-5.451186661851703"><ele>860.3333333333334</ele><time>2026-03-23T12:46:37Z</time></trkpt><trkpt lat="30.477673770498708" lon="-5.451390428935689"><ele>860.0</ele><time>2026-03-23T12:46:38Z</time></trkpt><trkpt lat="30.477561333748522" lon="-5.451592821181961"><ele>860.0</ele><time>2026-03-23T12:46:39Z</time></trkpt><trkpt lat="30.47745296107674" lon="-5.4517960800552325"><ele>860.0</ele><time>2026-03-23T12:46:40Z</time></trkpt><trkpt lat="30.477347127854824" lon="-5.451999196473583"><ele>860.0</ele><time>2026-03-23T12:46:41Z</time></trkpt><trkpt lat="30.477240807491405" lon="-5.452200981706844"><ele>860.0</ele><time>2026-03-23T12:46:42Z</time></trkpt><trkpt lat="30.477128044155556" lon="-5.452397765044148"><ele>860.0</ele><time>2026-03-23T12:46:43Z</time></trkpt><trkpt lat="30.477011709022072" lon="-5.4525954878943415"><ele>860.0</ele><time>2026-03-23T12:46:44Z</time></trkpt><trkpt lat="30.476896317124535" lon="-5.452797227128435"><ele>861.6666666666667</ele><time>2026-03-23T12:46:45Z</time></trkpt><trkpt lat="30.476781413611366" lon="-5.45300281886878"><ele>863.3333333333333</ele><time>2026-03-23T12:46:46Z</time></trkpt><trkpt lat="30.47667042059512" lon="-5.4532155180716"><ele>865.0</ele><time>2026-03-23T12:46:47Z</time></trkpt><trkpt lat="30.476557567008552" lon="-5.453432527140585"><ele>865.0</ele><time>2026-03-23T12:46:48Z</time></trkpt><trkpt lat="30.47644593021989" lon="-5.453638502089577"><ele>865.0</ele><time>2026-03-23T12:46:49Z</time></trkpt><trkpt lat="30.476331238933454" lon="-5.453839883617061"><ele>865.0</ele><time>2026-03-23T12:46:50Z</time></trkpt><trkpt lat="30.476217495897323" lon="-5.454040162898332"><ele>865.0</ele><time>2026-03-23T12:46:51Z</time></trkpt><trkpt lat="30.476106278630358" lon="-5.454241627127161"><ele>865.0</ele><time>2026-03-23T12:46:52Z</time></trkpt><trkpt lat="30.475996434435245" lon="-5.4544436476883185"><ele>865.0</ele><time>2026-03-23T12:46:53Z</time></trkpt><trkpt lat="30.47588998779126" lon="-5.454643275654163"><ele>865.0</ele><time>2026-03-23T12:46:54Z</time></trkpt><trkpt lat="30.475786640624356" lon="-5.454842488818636"><ele>865.0</ele><time>2026-03-23T12:46:55Z</time></trkpt><trkpt lat="30.475686305053575" lon="-5.455040068902181"><ele>865.0</ele><time>2026-03-23T12:46:56Z</time></trkpt><trkpt lat="30.475583869462135" lon="-5.455236751383945"><ele>865.0</ele><time>2026-03-23T12:46:57Z</time></trkpt><trkpt lat="30.475484262399533" lon="-5.455424748190124"><ele>865.0</ele><time>2026-03-23T12:46:58Z</time></trkpt><trkpt lat="30.475395934878176" lon="-5.45559889339377"><ele>865.0</ele><time>2026-03-23T12:46:59Z</time></trkpt><trkpt lat="30.47530834687035" lon="-5.455774464193556"><ele>864.6666666666666</ele><time>2026-03-23T12:47:00Z</time></trkpt><trkpt lat="30.47522311434155" lon="-5.4559538526040425"><ele>864.3333333333333</ele><time>2026-03-23T12:47:01Z</time></trkpt><trkpt lat="30.47514205467977" lon="-5.456117719934497"><ele>864.0</ele><time>2026-03-23T12:47:02Z</time></trkpt><trkpt lat="30.475071762831533" lon="-5.456248766867625"><ele>864.5</ele><time>2026-03-23T12:47:03Z</time></trkpt><trkpt lat="30.475008711076413" lon="-5.456369247854344"><ele>865.0</ele><time>2026-03-23T12:47:04Z</time></trkpt><trkpt lat="30.474940173413884" lon="-5.456500532748894"><ele>865.5</ele><time>2026-03-23T12:47:05Z</time></trkpt><trkpt lat="30.474867279772297" lon="-5.4566438645407835"><ele>866.0</ele><time>2026-03-23T12:47:06Z</time></trkpt><trkpt lat="30.474793645469767" lon="-5.456793358218917"><ele>866.0</ele><time>2026-03-23T12:47:07Z</time></trkpt><trkpt lat="30.474724312590656" lon="-5.456951445664169"><ele>866.0</ele><time>2026-03-23T12:47:08Z</time></trkpt><trkpt lat="30.47465544277865" lon="-5.457116800259247"><ele>866.0</ele><time>2026-03-23T12:47:09Z</time></trkpt><trkpt lat="30.474579191312454" lon="-5.4572844450419415"><ele>867.0</ele><time>2026-03-23T12:47:10Z</time></trkpt><trkpt lat="30.4744954407688" lon="-5.457458014169185"><ele>868.0</ele><time>2026-03-23T12:47:11Z</time></trkpt><trkpt lat="30.47441242828739" lon="-5.4576364958309425"><ele>869.0</ele><time>2026-03-23T12:47:12Z</time></trkpt><trkpt lat="30.474335534243657" lon="-5.457803606016291"><ele>869.5</ele><time>2026-03-23T12:47:13Z</time></trkpt><trkpt lat="30.47426076352967" lon="-5.457966995250972"><ele>870.0</ele><time>2026-03-23T12:47:14Z</time></trkpt><trkpt lat="30.474191260120417" lon="-5.4581196137540475"><ele>870.5</ele><time>2026-03-23T12:47:15Z</time></trkpt><trkpt lat="30.474126318765805" lon="-5.458264882158925"><ele>871.0</ele><time>2026-03-23T12:47:16Z</time></trkpt><trkpt lat="30.47405820566442" lon="-5.45841679352654"><ele>871.0</ele><time>2026-03-23T12:47:17Z</time></trkpt><trkpt lat="30.473985884842143" lon="-5.458571109850187"><ele>871.0</ele><time>2026-03-23T12:47:18Z</time></trkpt><trkpt lat="30.473909903290092" lon="-5.458733518126035"><ele>871.0</ele><time>2026-03-23T12:47:19Z</time></trkpt><trkpt lat="30.473830582368326" lon="-5.458905499009133"><ele>870.3333333333333</ele><time>2026-03-23T12:47:20Z</time></trkpt><trkpt lat="30.473752925597278" lon="-5.459082913840708"><ele>869.6666666666667</ele><time>2026-03-23T12:47:21Z</time></trkpt><trkpt lat="30.473680054638873" lon="-5.459265135588099"><ele>869.0</ele><time>2026-03-23T12:47:22Z</time></trkpt><trkpt lat="30.473609501400453" lon="-5.459445219712659"><ele>869.0</ele><time>2026-03-23T12:47:23Z</time></trkpt><trkpt lat="30.473542937707116" lon="-5.459612018647475"><ele>869.0</ele><time>2026-03-23T12:47:24Z</time></trkpt><trkpt lat="30.473473336096674" lon="-5.459774190546648"><ele>869.0</ele><time>2026-03-23T12:47:25Z</time></trkpt><trkpt lat="30.473405389259135" lon="-5.459935103855714"><ele>870.0</ele><time>2026-03-23T12:47:26Z</time></trkpt><trkpt lat="30.47333759387875" lon="-5.460093713979359"><ele>871.0</ele><time>2026-03-23T12:47:27Z</time></trkpt><trkpt lat="30.47327420194824" lon="-5.460248665459172"><ele>872.0</ele><time>2026-03-23T12:47:28Z</time></trkpt><trkpt lat="30.473209722936762" lon="-5.460409491932325"><ele>872.75</ele><time>2026-03-23T12:47:29Z</time></trkpt><trkpt lat="30.473148452355023" lon="-5.460568085006988"><ele>873.5</ele><time>2026-03-23T12:47:30Z</time></trkpt><trkpt lat="30.47308848108835" lon="-5.460727065438909"><ele>874.25</ele><time>2026-03-23T12:47:31Z</time></trkpt><trkpt lat="30.47303160248946" lon="-5.460872685999775"><ele>875.0</ele><time>2026-03-23T12:47:32Z</time></trkpt><trkpt lat="30.472976378113753" lon="-5.461009708196518"><ele>874.75</ele><time>2026-03-23T12:47:33Z</time></trkpt><trkpt lat="30.472922601776144" lon="-5.461150627023908"><ele>874.5</ele><time>2026-03-23T12:47:34Z</time></trkpt><trkpt lat="30.472869439449113" lon="-5.461298693027194"><ele>874.25</ele><time>2026-03-23T12:47:35Z</time></trkpt><trkpt lat="30.472815296011152" lon="-5.461456128628498"><ele>874.0</ele><time>2026-03-23T12:47:36Z</time></trkpt><trkpt lat="30.472757084249984" lon="-5.4616222399783"><ele>874.0</ele><time>2026-03-23T12:47:37Z</time></trkpt><trkpt lat="30.47269373980803" lon="-5.461790646127064"><ele>874.0</ele><time>2026-03-23T12:47:38Z</time></trkpt><trkpt lat="30.472628964901055" lon="-5.461959425086348"><ele>874.0</ele><time>2026-03-23T12:47:39Z</time></trkpt><trkpt lat="30.472565581594182" lon="-5.4621298641883635"><ele>873.3333333333333</ele><time>2026-03-23T12:47:40Z</time></trkpt><trkpt lat="30.472508339592505" lon="-5.462289565044911"><ele>872.6666666666667</ele><time>2026-03-23T12:47:41Z</time></trkpt><trkpt lat="30.472453868875785" lon="-5.46244658424866"><ele>872.0</ele><time>2026-03-23T12:47:42Z</time></trkpt><trkpt lat="30.4723979105949" lon="-5.462615673205434"><ele>872.0</ele><time>2026-03-23T12:47:43Z</time></trkpt><trkpt lat="30.472337079780782" lon="-5.462798246398393"><ele>872.0</ele><time>2026-03-23T12:47:44Z</time></trkpt><trkpt lat="30.472274392799914" lon="-5.462983926339485"><ele>872.0</ele><time>2026-03-23T12:47:45Z</time></trkpt><trkpt lat="30.472205875970467" lon="-5.4631765629792195"><ele>872.0</ele><time>2026-03-23T12:47:46Z</time></trkpt><trkpt lat="30.472137928887054" lon="-5.463374677594581"><ele>872.0</ele><time>2026-03-23T12:47:47Z</time></trkpt><trkpt lat="30.472074811475284" lon="-5.4635653092664"><ele>872.0</ele><time>2026-03-23T12:47:48Z</time></trkpt><trkpt lat="30.472012893296604" lon="-5.463748830661306"><ele>872.6666666666667</ele><time>2026-03-23T12:47:49Z</time></trkpt><trkpt lat="30.471954425407283" lon="-5.463927454878797"><ele>873.3333333333333</ele><time>2026-03-23T12:47:50Z</time></trkpt><trkpt lat="30.47190129495644" lon="-5.464101299189176"><ele>874.0</ele><time>2026-03-23T12:47:51Z</time></trkpt><trkpt lat="30.471851027911775" lon="-5.4642725914377905"><ele>874.0</ele><time>2026-03-23T12:47:52Z</time></trkpt><trkpt lat="30.471801093160582" lon="-5.464445183724373"><ele>874.0</ele><time>2026-03-23T12:47:53Z</time></trkpt><trkpt lat="30.47174845609072" lon="-5.464623830512066"><ele>874.0</ele><time>2026-03-23T12:47:54Z</time></trkpt><trkpt lat="30.47169379028515" lon="-5.4648024132323565"><ele>873.6666666666666</ele><time>2026-03-23T12:47:55Z</time></trkpt><trkpt lat="30.471635210304008" lon="-5.464981414296364"><ele>873.3333333333333</ele><time>2026-03-23T12:47:56Z</time></trkpt><trkpt lat="30.47157642317087" lon="-5.465162905190561"><ele>873.0</ele><time>2026-03-23T12:47:57Z</time></trkpt><trkpt lat="30.471515837916545" lon="-5.4653539787388645"><ele>874.0</ele><time>2026-03-23T12:47:58Z</time></trkpt><trkpt lat="30.47145326357885" lon="-5.465557810032624"><ele>875.0</ele><time>2026-03-23T12:47:59Z</time></trkpt><trkpt lat="30.471387305752987" lon="-5.465763772693264"><ele>876.0</ele><time>2026-03-23T12:48:00Z</time></trkpt><trkpt lat="30.471316933725255" lon="-5.4659804003391255"><ele>875.6666666666667</ele><time>2026-03-23T12:48:01Z</time></trkpt><trkpt lat="30.471247457451447" lon="-5.466207253611145"><ele>875.3333333333334</ele><time>2026-03-23T12:48:02Z</time></trkpt><trkpt lat="30.471178541414485" lon="-5.46643051900371"><ele>875.0</ele><time>2026-03-23T12:48:03Z</time></trkpt><trkpt lat="30.471105689404297" lon="-5.466649270593505"><ele>875.0</ele><time>2026-03-23T12:48:04Z</time></trkpt><trkpt lat="30.471034515020264" lon="-5.466865867486939"><ele>875.0</ele><time>2026-03-23T12:48:05Z</time></trkpt><trkpt lat="30.47096527500398" lon="-5.4670815854682795"><ele>875.0</ele><time>2026-03-23T12:48:06Z</time></trkpt><trkpt lat="30.470896198962485" lon="-5.46729409690395"><ele>874.6666666666667</ele><time>2026-03-23T12:48:07Z</time></trkpt><trkpt lat="30.470822332200363" lon="-5.467510409851086"><ele>874.3333333333333</ele><time>2026-03-23T12:48:08Z</time></trkpt><trkpt lat="30.470748496105788" lon="-5.467730327474263"><ele>874.0</ele><time>2026-03-23T12:48:09Z</time></trkpt><trkpt lat="30.470673262765878" lon="-5.467951033202859"><ele>874.6666666666666</ele><time>2026-03-23T12:48:10Z</time></trkpt><trkpt lat="30.470598739542154" lon="-5.4681771331135804"><ele>875.3333333333333</ele><time>2026-03-23T12:48:11Z</time></trkpt><trkpt lat="30.470514546890847" lon="-5.468419507992301"><ele>876.0</ele><time>2026-03-23T12:48:12Z</time></trkpt><trkpt lat="30.470427557391844" lon="-5.468668021932686"><ele>876.5</ele><time>2026-03-23T12:48:13Z</time></trkpt><trkpt lat="30.47034467722447" lon="-5.46891742602063"><ele>877.0</ele><time>2026-03-23T12:48:14Z</time></trkpt><trkpt lat="30.470261093639277" lon="-5.46917327865982"><ele>877.0</ele><time>2026-03-23T12:48:15Z</time></trkpt><trkpt lat="30.470173462532117" lon="-5.469445187760711"><ele>877.0</ele><time>2026-03-23T12:48:16Z</time></trkpt><trkpt lat="30.47009046191711" lon="-5.46970029459789"><ele>877.0</ele><time>2026-03-23T12:48:17Z</time></trkpt><trkpt lat="30.47000760225286" lon="-5.469940980052163"><ele>877.0</ele><time>2026-03-23T12:48:18Z</time></trkpt><trkpt lat="30.469916297831883" lon="-5.470172537960674"><ele>877.0</ele><time>2026-03-23T12:48:19Z</time></trkpt><trkpt lat="30.469834915733326" lon="-5.470386826266914"><ele>877.0</ele><time>2026-03-23T12:48:20Z</time></trkpt><trkpt lat="30.469760515801728" lon="-5.4706024717093396"><ele>877.0</ele><time>2026-03-23T12:48:21Z</time></trkpt><trkpt lat="30.469676269822614" lon="-5.470822410074447"><ele>877.0</ele><time>2026-03-23T12:48:22Z</time></trkpt><trkpt lat="30.46959278323289" lon="-5.471044798345437"><ele>877.3333333333333</ele><time>2026-03-23T12:48:23Z</time></trkpt><trkpt lat="30.46950623203701" lon="-5.471273298468025"><ele>877.6666666666667</ele><time>2026-03-23T12:48:24Z</time></trkpt><trkpt lat="30.46941660464031" lon="-5.471508144300287"><ele>878.0</ele><time>2026-03-23T12:48:25Z</time></trkpt><trkpt lat="30.469323589728674" lon="-5.471746877011268"><ele>878.3333333333334</ele><time>2026-03-23T12:48:26Z</time></trkpt><trkpt lat="30.469232466807192" lon="-5.471984931588211"><ele>878.6666666666667</ele><time>2026-03-23T12:48:27Z</time></trkpt><trkpt lat="30.469146414278395" lon="-5.472215528330804"><ele>879.0</ele><time>2026-03-23T12:48:28Z</time></trkpt><trkpt lat="30.46905892897501" lon="-5.472439438418496"><ele>879.6666666666667</ele><time>2026-03-23T12:48:29Z</time></trkpt><trkpt lat="30.468971130856495" lon="-5.472658047434469"><ele>880.3333333333334</ele><time>2026-03-23T12:48:30Z</time></trkpt><trkpt lat="30.468880329153865" lon="-5.4728723735808815"><ele>881.0</ele><time>2026-03-23T12:48:30.999Z</time></trkpt><trkpt lat="30.468788900657636" lon="-5.473086436146354"><ele>881.0</ele><time>2026-03-23T12:48:31.999Z</time></trkpt><trkpt lat="30.468699475813278" lon="-5.473302743962977"><ele>881.0</ele><time>2026-03-23T12:48:32.999Z</time></trkpt><trkpt lat="30.468612858014072" lon="-5.473519129394686"><ele>881.0</ele><time>2026-03-23T12:48:33.999Z</time></trkpt><trkpt lat="30.468527520709664" lon="-5.47373517289012"><ele>882.0</ele><time>2026-03-23T12:48:34.999Z</time></trkpt><trkpt lat="30.46844297092535" lon="-5.4739534569422315"><ele>883.0</ele><time>2026-03-23T12:48:35.999Z</time></trkpt><trkpt lat="30.468361902797504" lon="-5.4741714561594605"><ele>884.0</ele><time>2026-03-23T12:48:36.999Z</time></trkpt><trkpt lat="30.46827724051747" lon="-5.474393094535375"><ele>883.6666666666667</ele><time>2026-03-23T12:48:37.999Z</time></trkpt><trkpt lat="30.468186366431166" lon="-5.474609479098592"><ele>883.3333333333333</ele><time>2026-03-23T12:48:38.999Z</time></trkpt><trkpt lat="30.468092479222417" lon="-5.474818547826043"><ele>883.0</ele><time>2026-03-23T12:48:39.999Z</time></trkpt><trkpt lat="30.468002073307886" lon="-5.475031779265859"><ele>883.0</ele><time>2026-03-23T12:48:40.999Z</time></trkpt><trkpt lat="30.467918218382952" lon="-5.475243749879922"><ele>883.0</ele><time>2026-03-23T12:48:41.999Z</time></trkpt><trkpt lat="30.4678352470566" lon="-5.4754577673251195"><ele>883.0</ele><time>2026-03-23T12:48:42.999Z</time></trkpt><trkpt lat="30.46775016498639" lon="-5.475672339778495"><ele>883.0</ele><time>2026-03-23T12:48:43.999Z</time></trkpt><trkpt lat="30.46766656203854" lon="-5.475887161210618"><ele>883.0</ele><time>2026-03-23T12:48:44.999Z</time></trkpt><trkpt lat="30.467581868469306" lon="-5.476102827889441"><ele>883.0</ele><time>2026-03-23T12:48:45.999Z</time></trkpt><trkpt lat="30.46749377626466" lon="-5.476314655324011"><ele>883.3333333333333</ele><time>2026-03-23T12:48:46.999Z</time></trkpt><trkpt lat="30.467405191176418" lon="-5.476522548014962"><ele>883.6666666666667</ele><time>2026-03-23T12:48:47.999Z</time></trkpt><trkpt lat="30.467318719613754" lon="-5.476731905042334"><ele>884.0</ele><time>2026-03-23T12:48:48.999Z</time></trkpt><trkpt lat="30.467234626949804" lon="-5.476946279510086"><ele>884.3333333333334</ele><time>2026-03-23T12:48:49.999Z</time></trkpt><trkpt lat="30.467148891234903" lon="-5.47716297341468"><ele>884.6666666666667</ele><time>2026-03-23T12:48:50.999Z</time></trkpt><trkpt lat="30.467062245344973" lon="-5.477378822037531"><ele>885.0</ele><time>2026-03-23T12:48:51.999Z</time></trkpt><trkpt lat="30.466972665053017" lon="-5.477598049841335"><ele>885.6666666666667</ele><time>2026-03-23T12:48:52.999Z</time></trkpt><trkpt lat="30.46688184814417" lon="-5.477817906718969"><ele>886.3333333333334</ele><time>2026-03-23T12:48:53.999Z</time></trkpt><trkpt lat="30.466791380243176" lon="-5.478037725858539"><ele>887.0</ele><time>2026-03-23T12:48:54.999Z</time></trkpt><trkpt lat="30.466699388084184" lon="-5.47825718582332"><ele>887.0</ele><time>2026-03-23T12:48:55.999Z</time></trkpt><trkpt lat="30.466608573066647" lon="-5.478477376505625"><ele>887.0</ele><time>2026-03-23T12:48:56.999Z</time></trkpt><trkpt lat="30.4665166096532" lon="-5.478694337673254"><ele>887.0</ele><time>2026-03-23T12:48:57.999Z</time></trkpt><trkpt lat="30.466422488743223" lon="-5.478910099323972"><ele>887.0</ele><time>2026-03-23T12:48:59Z</time></trkpt><trkpt lat="30.466330763504846" lon="-5.479128662391171"><ele>887.0</ele><time>2026-03-23T12:49:00Z</time></trkpt><trkpt lat="30.466242721990227" lon="-5.4793504025106445"><ele>887.0</ele><time>2026-03-23T12:49:01Z</time></trkpt><trkpt lat="30.46615451026218" lon="-5.479573969709125"><ele>887.6666666666667</ele><time>2026-03-23T12:49:02Z</time></trkpt><trkpt lat="30.466070589026256" lon="-5.479796656537937"><ele>888.3333333333333</ele><time>2026-03-23T12:49:03Z</time></trkpt><trkpt lat="30.465980289767437" lon="-5.480016939856393"><ele>889.0</ele><time>2026-03-23T12:49:04Z</time></trkpt><trkpt lat="30.465887844396306" lon="-5.480239260349682"><ele>889.6666666666666</ele><time>2026-03-23T12:49:05Z</time></trkpt><trkpt lat="30.465796144924195" lon="-5.48046221418517"><ele>890.3333333333333</ele><time>2026-03-23T12:49:06Z</time></trkpt><trkpt lat="30.46570502683811" lon="-5.4806839417649975"><ele>891.0</ele><time>2026-03-23T12:49:07Z</time></trkpt><trkpt lat="30.465612197049392" lon="-5.480906554732493"><ele>891.0</ele><time>2026-03-23T12:49:08Z</time></trkpt><trkpt lat="30.46551904545186" lon="-5.481126919499971"><ele>891.0</ele><time>2026-03-23T12:49:09Z</time></trkpt><trkpt lat="30.46542826252696" lon="-5.481347818735292"><ele>891.0</ele><time>2026-03-23T12:49:10Z</time></trkpt><trkpt lat="30.465343030233342" lon="-5.48156814847008"><ele>890.3333333333333</ele><time>2026-03-23T12:49:11Z</time></trkpt><trkpt lat="30.4652560920159" lon="-5.481786037565254"><ele>889.6666666666666</ele><time>2026-03-23T12:49:12Z</time></trkpt><trkpt lat="30.465169306869374" lon="-5.4820052911754065"><ele>889.0</ele><time>2026-03-23T12:49:13Z</time></trkpt><trkpt lat="30.4650823769338" lon="-5.482222635887768"><ele>889.0</ele><time>2026-03-23T12:49:14Z</time></trkpt><trkpt lat="30.464995333244676" lon="-5.482434842743977"><ele>889.0</ele><time>2026-03-23T12:49:15Z</time></trkpt><trkpt lat="30.46490962006803" lon="-5.482647656193586"><ele>889.0</ele><time>2026-03-23T12:49:16Z</time></trkpt><trkpt lat="30.46482589791006" lon="-5.482860532294154"><ele>889.3333333333333</ele><time>2026-03-23T12:49:17Z</time></trkpt><trkpt lat="30.464741988729315" lon="-5.483074056495695"><ele>889.6666666666667</ele><time>2026-03-23T12:49:18Z</time></trkpt><trkpt lat="30.464658446522517" lon="-5.483283292375539"><ele>890.0</ele><time>2026-03-23T12:49:19Z</time></trkpt><trkpt lat="30.464576859761046" lon="-5.483496030307699"><ele>890.0</ele><time>2026-03-23T12:49:20Z</time></trkpt><trkpt lat="30.46449922035764" lon="-5.48370878680934"><ele>890.0</ele><time>2026-03-23T12:49:21Z</time></trkpt><trkpt lat="30.46442194590866" lon="-5.483922243762362"><ele>890.0</ele><time>2026-03-23T12:49:22Z</time></trkpt><trkpt lat="30.4643475362499" lon="-5.484138073464267"><ele>890.0</ele><time>2026-03-23T12:49:23Z</time></trkpt><trkpt lat="30.4642810502072" lon="-5.484354974623973"><ele>890.0</ele><time>2026-03-23T12:49:24Z</time></trkpt><trkpt lat="30.464216976943444" lon="-5.484575441747811"><ele>890.0</ele><time>2026-03-23T12:49:25Z</time></trkpt><trkpt lat="30.464151322101614" lon="-5.484796475008853"><ele>890.6666666666667</ele><time>2026-03-23T12:49:26Z</time></trkpt><trkpt lat="30.46408608323046" lon="-5.485018657744864"><ele>891.3333333333333</ele><time>2026-03-23T12:49:27Z</time></trkpt><trkpt lat="30.4640213408161" lon="-5.485246820536848"><ele>892.0</ele><time>2026-03-23T12:49:28Z</time></trkpt><trkpt lat="30.46396291726201" lon="-5.485475393250277"><ele>892.6666666666666</ele><time>2026-03-23T12:49:29Z</time></trkpt><trkpt lat="30.463910161501573" lon="-5.485709979261351"><ele>893.3333333333333</ele><time>2026-03-23T12:49:30Z</time></trkpt><trkpt lat="30.463864601195283" lon="-5.485941621829297"><ele>894.0</ele><time>2026-03-23T12:49:31Z</time></trkpt><trkpt lat="30.463820184530213" lon="-5.486175115842479"><ele>894.0</ele><time>2026-03-23T12:49:32Z</time></trkpt><trkpt lat="30.46377451715479" lon="-5.486408189922332"><ele>894.0</ele><time>2026-03-23T12:49:33Z</time></trkpt><trkpt lat="30.46373108272031" lon="-5.486642278987365"><ele>894.0</ele><time>2026-03-23T12:49:34Z</time></trkpt><trkpt lat="30.463691443636048" lon="-5.486874863143349"><ele>894.0</ele><time>2026-03-23T12:49:35Z</time></trkpt><trkpt lat="30.463659189867062" lon="-5.487106598891138"><ele>894.0</ele><time>2026-03-23T12:49:36Z</time></trkpt><trkpt lat="30.46363079925643" lon="-5.487337947062819"><ele>894.0</ele><time>2026-03-23T12:49:37Z</time></trkpt><trkpt lat="30.46360450660416" lon="-5.487569711568459"><ele>894.0</ele><time>2026-03-23T12:49:38Z</time></trkpt><trkpt lat="30.463580425023327" lon="-5.4877942911354305"><ele>894.0</ele><time>2026-03-23T12:49:39Z</time></trkpt><trkpt lat="30.46355730761865" lon="-5.488017573042872"><ele>894.0</ele><time>2026-03-23T12:49:40Z</time></trkpt><trkpt lat="30.46353745103413" lon="-5.488242730769997"><ele>894.6666666666667</ele><time>2026-03-23T12:49:41Z</time></trkpt><trkpt lat="30.463520466069685" lon="-5.488465851133342"><ele>895.3333333333334</ele><time>2026-03-23T12:49:42Z</time></trkpt><trkpt lat="30.46350816991697" lon="-5.48869470535033"><ele>896.0</ele><time>2026-03-23T12:49:43Z</time></trkpt><trkpt lat="30.463497599530353" lon="-5.488927039646632"><ele>896.3333333333334</ele><time>2026-03-23T12:49:44Z</time></trkpt><trkpt lat="30.46348772810643" lon="-5.489165538510733"><ele>896.6666666666667</ele><time>2026-03-23T12:49:45Z</time></trkpt><trkpt lat="30.463479326850088" lon="-5.489401983538275"><ele>897.0</ele><time>2026-03-23T12:49:46Z</time></trkpt><trkpt lat="30.463472990681076" lon="-5.489637406366586"><ele>897.0</ele><time>2026-03-23T12:49:47Z</time></trkpt><trkpt lat="30.463471610684905" lon="-5.489874555420028"><ele>897.0</ele><time>2026-03-23T12:49:48Z</time></trkpt><trkpt lat="30.463478516078382" lon="-5.490110757685195"><ele>897.0</ele><time>2026-03-23T12:49:49Z</time></trkpt><trkpt lat="30.46348858074096" lon="-5.49034498768821"><ele>897.3333333333333</ele><time>2026-03-23T12:49:50Z</time></trkpt><trkpt lat="30.46349936790953" lon="-5.490578531017694"><ele>897.6666666666666</ele><time>2026-03-23T12:49:51Z</time></trkpt><trkpt lat="30.46351020990912" lon="-5.4908099227118825"><ele>898.0</ele><time>2026-03-23T12:49:52Z</time></trkpt><trkpt lat="30.463526767886016" lon="-5.491038082338009"><ele>898.6666666666666</ele><time>2026-03-23T12:49:53Z</time></trkpt><trkpt lat="30.46354141958443" lon="-5.491265934527557"><ele>899.3333333333333</ele><time>2026-03-23T12:49:54Z</time></trkpt><trkpt lat="30.463551301045815" lon="-5.491496786917914"><ele>900.0</ele><time>2026-03-23T12:49:55Z</time></trkpt><trkpt lat="30.46356284556506" lon="-5.491729176492667"><ele>900.0</ele><time>2026-03-23T12:49:56Z</time></trkpt><trkpt lat="30.463576085878756" lon="-5.491965659067065"><ele>900.0</ele><time>2026-03-23T12:49:57Z</time></trkpt><trkpt lat="30.463588556282367" lon="-5.492205383899417"><ele>900.0</ele><time>2026-03-23T12:49:58Z</time></trkpt><trkpt lat="30.463603600389877" lon="-5.492445569504153"><ele>899.6666666666667</ele><time>2026-03-23T12:49:59Z</time></trkpt><trkpt lat="30.46362011671814" lon="-5.492685692289692"><ele>899.3333333333334</ele><time>2026-03-23T12:50:00Z</time></trkpt><trkpt lat="30.4636321014287" lon="-5.492929267285389"><ele>899.0</ele><time>2026-03-23T12:50:01Z</time></trkpt><trkpt lat="30.46364457258843" lon="-5.493171945016213"><ele>899.0</ele><time>2026-03-23T12:50:02Z</time></trkpt><trkpt lat="30.463660196605684" lon="-5.493403453530021"><ele>899.0</ele><time>2026-03-23T12:50:03Z</time></trkpt><trkpt lat="30.46367877717744" lon="-5.4936270246971235"><ele>899.0</ele><time>2026-03-23T12:50:04Z</time></trkpt><trkpt lat="30.463697481590195" lon="-5.4938479721617215"><ele>900.0</ele><time>2026-03-23T12:50:05Z</time></trkpt><trkpt lat="30.463715417889787" lon="-5.494072903994846"><ele>901.0</ele><time>2026-03-23T12:50:06Z</time></trkpt><trkpt lat="30.463730551762847" lon="-5.494292287420349"><ele>902.0</ele><time>2026-03-23T12:50:07Z</time></trkpt><trkpt lat="30.46374438918979" lon="-5.494507609804541"><ele>902.3333333333334</ele><time>2026-03-23T12:50:08Z</time></trkpt><trkpt lat="30.46375696216382" lon="-5.494717517296094"><ele>902.6666666666667</ele><time>2026-03-23T12:50:09Z</time></trkpt><trkpt lat="30.463768026864816" lon="-5.494922630492825"><ele>903.0</ele><time>2026-03-23T12:50:10Z</time></trkpt><trkpt lat="30.463780251427146" lon="-5.495137355807339"><ele>903.0</ele><time>2026-03-23T12:50:11Z</time></trkpt><trkpt lat="30.46379707093265" lon="-5.495349180166582"><ele>903.0</ele><time>2026-03-23T12:50:12Z</time></trkpt><trkpt lat="30.463811219272028" lon="-5.495571270447472"><ele>903.0</ele><time>2026-03-23T12:50:13Z</time></trkpt><trkpt lat="30.463822818298876" lon="-5.495800411078222"><ele>903.0</ele><time>2026-03-23T12:50:14Z</time></trkpt><trkpt lat="30.463834616321222" lon="-5.496034588709695"><ele>903.0</ele><time>2026-03-23T12:50:15Z</time></trkpt><trkpt lat="30.463846862026447" lon="-5.496272121619259"><ele>903.0</ele><time>2026-03-23T12:50:16Z</time></trkpt><trkpt lat="30.46386078600333" lon="-5.496518327536469"><ele>903.3333333333333</ele><time>2026-03-23T12:50:17Z</time></trkpt><trkpt lat="30.463877390761773" lon="-5.496770457020327"><ele>903.6666666666666</ele><time>2026-03-23T12:50:18Z</time></trkpt><trkpt lat="30.463894585546807" lon="-5.497027754417269"><ele>904.0</ele><time>2026-03-23T12:50:19Z</time></trkpt><trkpt lat="30.46391101160793" lon="-5.497290407365785"><ele>904.0</ele><time>2026-03-23T12:50:20Z</time></trkpt><trkpt lat="30.46392675730775" lon="-5.497553571071455"><ele>904.0</ele><time>2026-03-23T12:50:21Z</time></trkpt><trkpt lat="30.46394411569725" lon="-5.497816004048876"><ele>904.6666666666666</ele><time>2026-03-23T12:50:22Z</time></trkpt><trkpt lat="30.4639587700408" lon="-5.498075586660158"><ele>905.3333333333333</ele><time>2026-03-23T12:50:23Z</time></trkpt><trkpt lat="30.463978005946764" lon="-5.4983302968615915"><ele>906.0</ele><time>2026-03-23T12:50:24Z</time></trkpt><trkpt lat="30.463995081732364" lon="-5.498580074079807"><ele>906.6666666666667</ele><time>2026-03-23T12:50:25Z</time></trkpt><trkpt lat="30.464010544876455" lon="-5.4988233122679135"><ele>907.3333333333334</ele><time>2026-03-23T12:50:26Z</time></trkpt><trkpt lat="30.464027406236" lon="-5.49905814589581"><ele>908.0</ele><time>2026-03-23T12:50:27Z</time></trkpt><trkpt lat="30.464038561462065" lon="-5.49928853320854"><ele>908.0</ele><time>2026-03-23T12:50:28Z</time></trkpt><trkpt lat="30.46404758503882" lon="-5.499519468749849"><ele>908.0</ele><time>2026-03-23T12:50:29Z</time></trkpt><trkpt lat="30.464060874816774" lon="-5.49974819440671"><ele>908.0</ele><time>2026-03-23T12:50:30Z</time></trkpt><trkpt lat="30.464076548019825" lon="-5.499980803077558"><ele>907.6666666666667</ele><time>2026-03-23T12:50:31Z</time></trkpt><trkpt lat="30.464092029707007" lon="-5.5002126531746285"><ele>907.3333333333333</ele><time>2026-03-23T12:50:32Z</time></trkpt><trkpt lat="30.464109464246352" lon="-5.500441335991948"><ele>907.0</ele><time>2026-03-23T12:50:33Z</time></trkpt><trkpt lat="30.46412827873887" lon="-5.500674772203787"><ele>908.0</ele><time>2026-03-23T12:50:34Z</time></trkpt><trkpt lat="30.464145946588566" lon="-5.500907935587313"><ele>909.0</ele><time>2026-03-23T12:50:35Z</time></trkpt><trkpt lat="30.46415840032559" lon="-5.501136414156539"><ele>910.0</ele><time>2026-03-23T12:50:36Z</time></trkpt><trkpt lat="30.464164512195453" lon="-5.501354285540182"><ele>910.3333333333333</ele><time>2026-03-23T12:50:36.999Z</time></trkpt><trkpt lat="30.46417512578732" lon="-5.501568219373123"><ele>910.6666666666667</ele><time>2026-03-23T12:50:37.999Z</time></trkpt><trkpt lat="30.464184928714936" lon="-5.501790008417357"><ele>911.0</ele><time>2026-03-23T12:50:38.999Z</time></trkpt><trkpt lat="30.464196969947004" lon="-5.502023505644134"><ele>912.0</ele><time>2026-03-23T12:50:39.999Z</time></trkpt><trkpt lat="30.464209947813625" lon="-5.502265934373541"><ele>913.0</ele><time>2026-03-23T12:50:40.999Z</time></trkpt><trkpt lat="30.464226801796794" lon="-5.502515111924657"><ele>914.0</ele><time>2026-03-23T12:50:41.999Z</time></trkpt><trkpt lat="30.464239086636713" lon="-5.502769108841711"><ele>914.3333333333334</ele><time>2026-03-23T12:50:42.999Z</time></trkpt><trkpt lat="30.46424822493579" lon="-5.503024641408283"><ele>914.6666666666667</ele><time>2026-03-23T12:50:43.999Z</time></trkpt><trkpt lat="30.464255420589975" lon="-5.503279258192351"><ele>915.0</ele><time>2026-03-23T12:50:44.999Z</time></trkpt><trkpt lat="30.464263003933517" lon="-5.50353140557212"><ele>914.3333333333333</ele><time>2026-03-23T12:50:45.999Z</time></trkpt><trkpt lat="30.46427108218596" lon="-5.503779601870832"><ele>913.6666666666666</ele><time>2026-03-23T12:50:46.999Z</time></trkpt><trkpt lat="30.46427501261791" lon="-5.504026742295769"><ele>913.0</ele><time>2026-03-23T12:50:47.999Z</time></trkpt><trkpt lat="30.464276132098824" lon="-5.504270940989183"><ele>913.0</ele><time>2026-03-23T12:50:48.999Z</time></trkpt><trkpt lat="30.464276228106538" lon="-5.504509537078059"><ele>913.0</ele><time>2026-03-23T12:50:49.999Z</time></trkpt><trkpt lat="30.464274756061116" lon="-5.504749684257962"><ele>913.0</ele><time>2026-03-23T12:50:50.999Z</time></trkpt><trkpt lat="30.464272141870534" lon="-5.504988592764394"><ele>914.0</ele><time>2026-03-23T12:50:51.999Z</time></trkpt><trkpt lat="30.464267971758495" lon="-5.505226350136902"><ele>915.0</ele><time>2026-03-23T12:50:52.999Z</time></trkpt><trkpt lat="30.46426102153425" lon="-5.5054630767399795"><ele>916.0</ele><time>2026-03-23T12:50:53.999Z</time></trkpt><trkpt lat="30.464247905697924" lon="-5.50570225201495"><ele>916.0</ele><time>2026-03-23T12:50:55Z</time></trkpt><trkpt lat="30.46423481979145" lon="-5.505940564777353"><ele>916.0</ele><time>2026-03-23T12:50:56Z</time></trkpt><trkpt lat="30.464223498167698" lon="-5.506182630936102"><ele>916.0</ele><time>2026-03-23T12:50:57Z</time></trkpt><trkpt lat="30.46420727186835" lon="-5.506423305670469"><ele>915.6666666666666</ele><time>2026-03-23T12:50:58Z</time></trkpt><trkpt lat="30.464190715978663" lon="-5.506665336272786"><ele>915.3333333333333</ele><time>2026-03-23T12:50:59Z</time></trkpt><trkpt lat="30.464172553142387" lon="-5.506908237747188"><ele>915.0</ele><time>2026-03-23T12:51:00Z</time></trkpt><trkpt lat="30.464154756930114" lon="-5.50715057079318"><ele>915.6666666666667</ele><time>2026-03-23T12:51:01Z</time></trkpt><trkpt lat="30.464135839444786" lon="-5.507393748201208"><ele>916.3333333333334</ele><time>2026-03-23T12:51:02Z</time></trkpt><trkpt lat="30.464111182455607" lon="-5.5076374249282525"><ele>917.0</ele><time>2026-03-23T12:51:03Z</time></trkpt><trkpt lat="30.464086425278772" lon="-5.507881183305614"><ele>917.6666666666667</ele><time>2026-03-23T12:51:04Z</time></trkpt><trkpt lat="30.464059486630834" lon="-5.508124125319975"><ele>918.3333333333333</ele><time>2026-03-23T12:51:05Z</time></trkpt><trkpt lat="30.464030742410063" lon="-5.5083672945661855"><ele>919.0</ele><time>2026-03-23T12:51:06Z</time></trkpt><trkpt lat="30.46399629598823" lon="-5.50860979937371"><ele>919.0</ele><time>2026-03-23T12:51:07Z</time></trkpt><trkpt lat="30.463963665360833" lon="-5.508853101481645"><ele>919.0</ele><time>2026-03-23T12:51:08Z</time></trkpt><trkpt lat="30.463931349432304" lon="-5.5090996494752416"><ele>919.0</ele><time>2026-03-23T12:51:09Z</time></trkpt><trkpt lat="30.46389822721314" lon="-5.5093482296887615"><ele>919.6666666666666</ele><time>2026-03-23T12:51:10Z</time></trkpt><trkpt lat="30.463869584114626" lon="-5.509596250183095"><ele>920.3333333333333</ele><time>2026-03-23T12:51:11Z</time></trkpt><trkpt lat="30.46383905797727" lon="-5.509845648138316"><ele>921.0</ele><time>2026-03-23T12:51:12Z</time></trkpt><trkpt lat="30.463799802656705" lon="-5.510093907054712"><ele>920.6666666666667</ele><time>2026-03-23T12:51:13Z</time></trkpt><trkpt lat="30.463755396464514" lon="-5.510339235173085"><ele>920.3333333333334</ele><time>2026-03-23T12:51:14Z</time></trkpt><trkpt lat="30.46370674115135" lon="-5.51058398159912"><ele>920.0</ele><time>2026-03-23T12:51:15Z</time></trkpt><trkpt lat="30.46365792502866" lon="-5.510828335872894"><ele>919.6666666666667</ele><time>2026-03-23T12:51:16Z</time></trkpt><trkpt lat="30.463608213844797" lon="-5.511069756763117"><ele>919.3333333333333</ele><time>2026-03-23T12:51:17Z</time></trkpt><trkpt lat="30.463558781657692" lon="-5.511310703051611"><ele>919.0</ele><time>2026-03-23T12:51:18Z</time></trkpt><trkpt lat="30.463510139824262" lon="-5.511552230429439"><ele>919.0</ele><time>2026-03-23T12:51:19Z</time></trkpt><trkpt lat="30.463460403123186" lon="-5.511793279973531"><ele>919.0</ele><time>2026-03-23T12:51:20Z</time></trkpt><trkpt lat="30.4634052788924" lon="-5.512030439592117"><ele>919.0</ele><time>2026-03-23T12:51:21Z</time></trkpt><trkpt lat="30.463349749286515" lon="-5.5122688006515705"><ele>919.6666666666666</ele><time>2026-03-23T12:51:22Z</time></trkpt><trkpt lat="30.463293217295274" lon="-5.512506093751505"><ele>920.3333333333333</ele><time>2026-03-23T12:51:23Z</time></trkpt><trkpt lat="30.46323755156444" lon="-5.51274034363317"><ele>921.0</ele><time>2026-03-23T12:51:24Z</time></trkpt><trkpt lat="30.4631786857827" lon="-5.512976865358367"><ele>921.3333333333333</ele><time>2026-03-23T12:51:25Z</time></trkpt><trkpt lat="30.463117045176844" lon="-5.513214775689024"><ele>921.6666666666666</ele><time>2026-03-23T12:51:26Z</time></trkpt><trkpt lat="30.46305652379623" lon="-5.5134463761326105"><ele>922.0</ele><time>2026-03-23T12:51:27Z</time></trkpt><trkpt lat="30.46299610071238" lon="-5.513677389212376"><ele>922.6666666666666</ele><time>2026-03-23T12:51:28Z</time></trkpt><trkpt lat="30.46292870273908" lon="-5.513903683593103"><ele>923.3333333333333</ele><time>2026-03-23T12:51:29Z</time></trkpt><trkpt lat="30.46286163359731" lon="-5.5141303463929345"><ele>924.0</ele><time>2026-03-23T12:51:30Z</time></trkpt><trkpt lat="30.46279523227331" lon="-5.5143556223579555"><ele>924.3333333333333</ele><time>2026-03-23T12:51:31Z</time></trkpt><trkpt lat="30.4627301531881" lon="-5.514585158626923"><ele>924.6666666666666</ele><time>2026-03-23T12:51:32Z</time></trkpt><trkpt lat="30.46266244578672" lon="-5.51481295518164"><ele>925.0</ele><time>2026-03-23T12:51:33Z</time></trkpt><trkpt lat="30.46259094210464" lon="-5.515037659601979"><ele>925.0</ele><time>2026-03-23T12:51:34Z</time></trkpt><trkpt lat="30.462519043862972" lon="-5.515258787682875"><ele>925.0</ele><time>2026-03-23T12:51:35Z</time></trkpt><trkpt lat="30.46245051371844" lon="-5.515483345788733"><ele>925.0</ele><time>2026-03-23T12:51:36Z</time></trkpt><trkpt lat="30.4623875059461" lon="-5.515712238571221"><ele>925.3333333333333</ele><time>2026-03-23T12:51:37Z</time></trkpt><trkpt lat="30.462322250616122" lon="-5.51593850913983"><ele>925.6666666666667</ele><time>2026-03-23T12:51:38Z</time></trkpt><trkpt lat="30.4622530286221" lon="-5.516163449778937"><ele>926.0</ele><time>2026-03-23T12:51:39Z</time></trkpt><trkpt lat="30.4621832681283" lon="-5.516386312984485"><ele>926.3333333333334</ele><time>2026-03-23T12:51:40Z</time></trkpt><trkpt lat="30.46211440209078" lon="-5.5166016130297075"><ele>926.6666666666667</ele><time>2026-03-23T12:51:41Z</time></trkpt><trkpt lat="30.4620479823521" lon="-5.516814040340757"><ele>927.0</ele><time>2026-03-23T12:51:42Z</time></trkpt><trkpt lat="30.461982338842983" lon="-5.5170306018644135"><ele>927.3333333333333</ele><time>2026-03-23T12:51:43Z</time></trkpt><trkpt lat="30.46191779837845" lon="-5.517248305095639"><ele>927.6666666666666</ele><time>2026-03-23T12:51:44Z</time></trkpt><trkpt lat="30.461853216187805" lon="-5.5174688199333755"><ele>928.0</ele><time>2026-03-23T12:51:45Z</time></trkpt><trkpt lat="30.46178820291478" lon="-5.517691263612811"><ele>928.3333333333333</ele><time>2026-03-23T12:51:46Z</time></trkpt><trkpt lat="30.461721650504803" lon="-5.517917389204063"><ele>928.6666666666667</ele><time>2026-03-23T12:51:47Z</time></trkpt><trkpt lat="30.461653108829484" lon="-5.518144173596096"><ele>929.0</ele><time>2026-03-23T12:51:48Z</time></trkpt><trkpt lat="30.461583478937765" lon="-5.518367665425726"><ele>929.0</ele><time>2026-03-23T12:51:49Z</time></trkpt><trkpt lat="30.46151535351409" lon="-5.5185912782004"><ele>929.0</ele><time>2026-03-23T12:51:50Z</time></trkpt><trkpt lat="30.46144821849489" lon="-5.518814944871865"><ele>929.0</ele><time>2026-03-23T12:51:51Z</time></trkpt><trkpt lat="30.461382213536254" lon="-5.519032390481917"><ele>929.3333333333334</ele><time>2026-03-23T12:51:52Z</time></trkpt><trkpt lat="30.46131434215397" lon="-5.519248385339691"><ele>929.6666666666667</ele><time>2026-03-23T12:51:53Z</time></trkpt><trkpt lat="30.461244996430203" lon="-5.519466900759105"><ele>930.0</ele><time>2026-03-23T12:51:54Z</time></trkpt><trkpt lat="30.46117502726959" lon="-5.519683789269093"><ele>930.3333333333333</ele><time>2026-03-23T12:51:55Z</time></trkpt><trkpt lat="30.461109590130416" lon="-5.519897827692586"><ele>930.6666666666666</ele><time>2026-03-23T12:51:56Z</time></trkpt><trkpt lat="30.461046825404956" lon="-5.520114371288249"><ele>931.0</ele><time>2026-03-23T12:51:57Z</time></trkpt><trkpt lat="30.460985327753388" lon="-5.5203312835892975"><ele>930.3333333333333</ele><time>2026-03-23T12:51:58Z</time></trkpt><trkpt lat="30.46092507591183" lon="-5.52054684644926"><ele>929.6666666666667</ele><time>2026-03-23T12:51:59Z</time></trkpt><trkpt lat="30.460859873245646" lon="-5.520762863399541"><ele>929.0</ele><time>2026-03-23T12:52:00Z</time></trkpt><trkpt lat="30.460790647918383" lon="-5.5209802483857535"><ele>929.0</ele><time>2026-03-23T12:52:01Z</time></trkpt><trkpt lat="30.460722096584814" lon="-5.5212027666115775"><ele>929.0</ele><time>2026-03-23T12:52:02Z</time></trkpt><trkpt lat="30.460655695186745" lon="-5.521428278614909"><ele>929.0</ele><time>2026-03-23T12:52:03Z</time></trkpt><trkpt lat="30.46058486272245" lon="-5.521652836098957"><ele>929.0</ele><time>2026-03-23T12:52:04Z</time></trkpt><trkpt lat="30.460511751971932" lon="-5.5218775172527685"><ele>929.0</ele><time>2026-03-23T12:52:05Z</time></trkpt><trkpt lat="30.46043941751794" lon="-5.522104137180098"><ele>929.0</ele><time>2026-03-23T12:52:06Z</time></trkpt><trkpt lat="30.460371545753144" lon="-5.522326193517271"><ele>929.0</ele><time>2026-03-23T12:52:07Z</time></trkpt><trkpt lat="30.46030629676569" lon="-5.522546492759403"><ele>929.0</ele><time>2026-03-23T12:52:08Z</time></trkpt><trkpt lat="30.460240447793343" lon="-5.522766609649483"><ele>929.0</ele><time>2026-03-23T12:52:09Z</time></trkpt><trkpt lat="30.46017596122409" lon="-5.522984132359214"><ele>929.6666666666667</ele><time>2026-03-23T12:52:10Z</time></trkpt><trkpt lat="30.46010971722846" lon="-5.523202319272706"><ele>930.3333333333333</ele><time>2026-03-23T12:52:11Z</time></trkpt><trkpt lat="30.460042611710207" lon="-5.523422069445655"><ele>931.0</ele><time>2026-03-23T12:52:12Z</time></trkpt><trkpt lat="30.459977197556675" lon="-5.523641358825084"><ele>931.6666666666666</ele><time>2026-03-23T12:52:13Z</time></trkpt><trkpt lat="30.459912936418817" lon="-5.52385907017409"><ele>932.3333333333333</ele><time>2026-03-23T12:52:14Z</time></trkpt><trkpt lat="30.45984993413963" lon="-5.524075929179167"><ele>933.0</ele><time>2026-03-23T12:52:15Z</time></trkpt><trkpt lat="30.459786912417243" lon="-5.524294093750475"><ele>933.0</ele><time>2026-03-23T12:52:16Z</time></trkpt><trkpt lat="30.459721075097118" lon="-5.5245111135587734"><ele>933.0</ele><time>2026-03-23T12:52:17Z</time></trkpt><trkpt lat="30.45965029370547" lon="-5.524728034287387"><ele>933.0</ele><time>2026-03-23T12:52:18Z</time></trkpt><trkpt lat="30.45958110919774" lon="-5.524940847859658"><ele>932.0</ele><time>2026-03-23T12:52:19Z</time></trkpt><trkpt lat="30.459517349884646" lon="-5.525154504762722"><ele>931.0</ele><time>2026-03-23T12:52:20Z</time></trkpt><trkpt lat="30.459453129036973" lon="-5.525369204507834"><ele>930.0</ele><time>2026-03-23T12:52:21Z</time></trkpt><trkpt lat="30.459388621546623" lon="-5.525583290294734"><ele>930.0</ele><time>2026-03-23T12:52:22.001Z</time></trkpt><trkpt lat="30.459324951823536" lon="-5.525797238932188"><ele>930.0</ele><time>2026-03-23T12:52:23.001Z</time></trkpt><trkpt lat="30.45926111846077" lon="-5.526007482350608"><ele>930.0</ele><time>2026-03-23T12:52:24.001Z</time></trkpt><trkpt lat="30.459196666423832" lon="-5.5262196480181425"><ele>931.0</ele><time>2026-03-23T12:52:25.001Z</time></trkpt><trkpt lat="30.459130640998893" lon="-5.526433623797644"><ele>932.0</ele><time>2026-03-23T12:52:26.001Z</time></trkpt><trkpt lat="30.459065894083228" lon="-5.526649868375463"><ele>933.0</ele><time>2026-03-23T12:52:27.001Z</time></trkpt><trkpt lat="30.45900285139639" lon="-5.526863547158935"><ele>932.6666666666667</ele><time>2026-03-23T12:52:28.001Z</time></trkpt><trkpt lat="30.45893970244413" lon="-5.527078919093853"><ele>932.3333333333334</ele><time>2026-03-23T12:52:29.001Z</time></trkpt><trkpt lat="30.458877141681153" lon="-5.527294412790869"><ele>932.0</ele><time>2026-03-23T12:52:30.001Z</time></trkpt><trkpt lat="30.4588139702539" lon="-5.527509681228186"><ele>932.0</ele><time>2026-03-23T12:52:31.001Z</time></trkpt><trkpt lat="30.458750710295913" lon="-5.527723815030276"><ele>932.0</ele><time>2026-03-23T12:52:32.001Z</time></trkpt><trkpt lat="30.458686113209417" lon="-5.527936400624996"><ele>932.0</ele><time>2026-03-23T12:52:33.001Z</time></trkpt><trkpt lat="30.45862099746389" lon="-5.528146168412653"><ele>932.0</ele><time>2026-03-23T12:52:34.001Z</time></trkpt><trkpt lat="30.458556002332227" lon="-5.52835738097547"><ele>932.0</ele><time>2026-03-23T12:52:35.001Z</time></trkpt><trkpt lat="30.4584938852253" lon="-5.528567743100263"><ele>932.0</ele><time>2026-03-23T12:52:36.001Z</time></trkpt><trkpt lat="30.45842982709311" lon="-5.528778423028843"><ele>932.3333333333334</ele><time>2026-03-23T12:52:37.001Z</time></trkpt><trkpt lat="30.45836663125424" lon="-5.528984233513824"><ele>932.6666666666667</ele><time>2026-03-23T12:52:38.001Z</time></trkpt><trkpt lat="30.458301504411857" lon="-5.529191183927267"><ele>933.0</ele><time>2026-03-23T12:52:39.001Z</time></trkpt><trkpt lat="30.458238225870144" lon="-5.529401654872907"><ele>933.3333333333333</ele><time>2026-03-23T12:52:40.001Z</time></trkpt><trkpt lat="30.458177084616825" lon="-5.529610918105379"><ele>933.6666666666666</ele><time>2026-03-23T12:52:41.001Z</time></trkpt><trkpt lat="30.45811241007322" lon="-5.529822400243246"><ele>934.0</ele><time>2026-03-23T12:52:42.001Z</time></trkpt><trkpt lat="30.458046515820282" lon="-5.530036630594581"><ele>934.0</ele><time>2026-03-23T12:52:43Z</time></trkpt><trkpt lat="30.457983387665987" lon="-5.530249422042741"><ele>934.0</ele><time>2026-03-23T12:52:44Z</time></trkpt><trkpt lat="30.457916487134458" lon="-5.530465149806909"><ele>934.0</ele><time>2026-03-23T12:52:45Z</time></trkpt><trkpt lat="30.45784920964549" lon="-5.530678303188848"><ele>934.6666666666666</ele><time>2026-03-23T12:52:46Z</time></trkpt><trkpt lat="30.4577794260449" lon="-5.530893163749142"><ele>935.3333333333333</ele><time>2026-03-23T12:52:47Z</time></trkpt><trkpt lat="30.457703659866528" lon="-5.53111384274882"><ele>936.0</ele><time>2026-03-23T12:52:48Z</time></trkpt><trkpt lat="30.45762987474858" lon="-5.531334282436087"><ele>936.3333333333333</ele><time>2026-03-23T12:52:49Z</time></trkpt><trkpt lat="30.45755287557957" lon="-5.531557012327484"><ele>936.6666666666666</ele><time>2026-03-23T12:52:50Z</time></trkpt><trkpt lat="30.457475414732027" lon="-5.5317800298567725"><ele>937.0</ele><time>2026-03-23T12:52:51Z</time></trkpt><trkpt lat="30.457394074363062" lon="-5.5320000867369545"><ele>937.0</ele><time>2026-03-23T12:52:52Z</time></trkpt><trkpt lat="30.457313314624166" lon="-5.532221106748424"><ele>937.0</ele><time>2026-03-23T12:52:53Z</time></trkpt><trkpt lat="30.45723152904533" lon="-5.532441159445637"><ele>937.0</ele><time>2026-03-23T12:52:54Z</time></trkpt><trkpt lat="30.457149607182597" lon="-5.53265738621119"><ele>937.3333333333333</ele><time>2026-03-23T12:52:55Z</time></trkpt><trkpt lat="30.45706764463918" lon="-5.532873385919303"><ele>937.6666666666667</ele><time>2026-03-23T12:52:56Z</time></trkpt><trkpt lat="30.45698479034695" lon="-5.533085243632096"><ele>938.0</ele><time>2026-03-23T12:52:57Z</time></trkpt><trkpt lat="30.456898946909128" lon="-5.533300904572266"><ele>938.0</ele><time>2026-03-23T12:52:58Z</time></trkpt><trkpt lat="30.456818159420795" lon="-5.533515443253427"><ele>938.0</ele><time>2026-03-23T12:52:59Z</time></trkpt><trkpt lat="30.45673430598788" lon="-5.5337269407595056"><ele>938.0</ele><time>2026-03-23T12:53:00Z</time></trkpt><trkpt lat="30.4566475728161" lon="-5.533937266369461"><ele>938.6666666666667</ele><time>2026-03-23T12:53:01Z</time></trkpt><trkpt lat="30.456561646126225" lon="-5.534150411745817"><ele>939.3333333333333</ele><time>2026-03-23T12:53:02Z</time></trkpt><trkpt lat="30.456477305775003" lon="-5.534363210906895"><ele>940.0</ele><time>2026-03-23T12:53:03Z</time></trkpt><trkpt lat="30.456389766145303" lon="-5.534574982710654"><ele>940.0</ele><time>2026-03-23T12:53:04Z</time></trkpt><trkpt lat="30.456300041280254" lon="-5.534786104487355"><ele>940.0</ele><time>2026-03-23T12:53:05Z</time></trkpt><trkpt lat="30.456209080601386" lon="-5.534996493467391"><ele>940.0</ele><time>2026-03-23T12:53:06Z</time></trkpt><trkpt lat="30.456120622211788" lon="-5.535209652066425"><ele>939.6666666666666</ele><time>2026-03-23T12:53:07Z</time></trkpt><trkpt lat="30.456025580144544" lon="-5.5354166437985475"><ele>939.3333333333333</ele><time>2026-03-23T12:53:08Z</time></trkpt><trkpt lat="30.45592269104869" lon="-5.535617731475654"><ele>939.0</ele><time>2026-03-23T12:53:09Z</time></trkpt><trkpt lat="30.45582279548399" lon="-5.535825242268884"><ele>939.0</ele><time>2026-03-23T12:53:10Z</time></trkpt><trkpt lat="30.455724444218156" lon="-5.536036580382189"><ele>939.0</ele><time>2026-03-23T12:53:11Z</time></trkpt><trkpt lat="30.455622503729998" lon="-5.536249822933352"><ele>939.0</ele><time>2026-03-23T12:53:12Z</time></trkpt><trkpt lat="30.45551991800765" lon="-5.536466184169822"><ele>939.0</ele><time>2026-03-23T12:53:13Z</time></trkpt><trkpt lat="30.455415628977608" lon="-5.536680904455077"><ele>939.0</ele><time>2026-03-23T12:53:14Z</time></trkpt><trkpt lat="30.45531295654817" lon="-5.536895618311926"><ele>939.0</ele><time>2026-03-23T12:53:15Z</time></trkpt><trkpt lat="30.455204781095013" lon="-5.537106422982019"><ele>939.3333333333333</ele><time>2026-03-23T12:53:16Z</time></trkpt><trkpt lat="30.455096810016656" lon="-5.537316147149459"><ele>939.6666666666666</ele><time>2026-03-23T12:53:17Z</time></trkpt><trkpt lat="30.45498608353949" lon="-5.537524564728288"><ele>940.0</ele><time>2026-03-23T12:53:18Z</time></trkpt><trkpt lat="30.454877416927552" lon="-5.537732413947684"><ele>940.0</ele><time>2026-03-23T12:53:19Z</time></trkpt><trkpt lat="30.45476853862026" lon="-5.5379398738113395"><ele>940.0</ele><time>2026-03-23T12:53:20Z</time></trkpt><trkpt lat="30.45465584129983" lon="-5.538149397500543"><ele>940.0</ele><time>2026-03-23T12:53:21Z</time></trkpt><trkpt lat="30.45454221905058" lon="-5.538360950452071"><ele>939.6666666666666</ele><time>2026-03-23T12:53:22Z</time></trkpt><trkpt lat="30.45442668708913" lon="-5.538576991363676"><ele>939.3333333333333</ele><time>2026-03-23T12:53:23Z</time></trkpt><trkpt lat="30.454307386295334" lon="-5.538792082902117"><ele>939.0</ele><time>2026-03-23T12:53:24Z</time></trkpt><trkpt lat="30.454184398553195" lon="-5.539008131847715"><ele>940.0</ele><time>2026-03-23T12:53:25Z</time></trkpt><trkpt lat="30.45405697029956" lon="-5.53922848690493"><ele>941.0</ele><time>2026-03-23T12:53:26Z</time></trkpt><trkpt lat="30.453927796124308" lon="-5.53945310569666"><ele>942.0</ele><time>2026-03-23T12:53:27Z</time></trkpt><trkpt lat="30.453791117114807" lon="-5.539672002177552"><ele>943.0</ele><time>2026-03-23T12:53:28Z</time></trkpt><trkpt lat="30.453623498243548" lon="-5.539872616179485"><ele>940.5</ele><time>2026-03-23T12:53:29Z</time></trkpt><trkpt lat="30.453441035119315" lon="-5.540060804936529"><ele>938.0</ele><time>2026-03-23T12:53:30Z</time></trkpt><trkpt lat="30.453399234836578" lon="-5.540334585740689"><ele>939.5</ele><time>2026-03-23T12:53:31Z</time></trkpt><trkpt lat="30.453260736294418" lon="-5.540554823895787"><ele>941.0</ele><time>2026-03-23T12:53:32Z</time></trkpt><trkpt lat="30.4531197530274" lon="-5.540772468010921"><ele>941.0</ele><time>2026-03-23T12:53:33Z</time></trkpt><trkpt lat="30.452980154920255" lon="-5.540981364914557"><ele>941.0</ele><time>2026-03-23T12:53:34Z</time></trkpt><trkpt lat="30.452843909011474" lon="-5.54118926437634"><ele>941.6666666666667</ele><time>2026-03-23T12:53:35Z</time></trkpt><trkpt lat="30.452708269745287" lon="-5.541391811713868"><ele>942.3333333333333</ele><time>2026-03-23T12:53:36Z</time></trkpt><trkpt lat="30.452568935375698" lon="-5.541595602854153"><ele>943.0</ele><time>2026-03-23T12:53:37Z</time></trkpt><trkpt lat="30.452428272417258" lon="-5.541793776384267"><ele>943.0</ele><time>2026-03-23T12:53:38Z</time></trkpt><trkpt lat="30.45228876823863" lon="-5.541996581016168"><ele>943.0</ele><time>2026-03-23T12:53:39Z</time></trkpt><trkpt lat="30.45215055671515" lon="-5.542197075986719"><ele>943.0</ele><time>2026-03-23T12:53:40Z</time></trkpt><trkpt lat="30.452018321531888" lon="-5.542396768898418"><ele>943.0</ele><time>2026-03-23T12:53:41Z</time></trkpt><trkpt lat="30.45188485020916" lon="-5.54259571524932"><ele>943.0</ele><time>2026-03-23T12:53:42Z</time></trkpt><trkpt lat="30.451750772590312" lon="-5.542790494877156"><ele>943.0</ele><time>2026-03-23T12:53:43Z</time></trkpt><trkpt lat="30.451616084517774" lon="-5.5429806356868925"><ele>943.0</ele><time>2026-03-23T12:53:44Z</time></trkpt><trkpt lat="30.451485998339287" lon="-5.54316833759786"><ele>943.0</ele><time>2026-03-23T12:53:45Z</time></trkpt><trkpt lat="30.451361048933066" lon="-5.543352918496618"><ele>943.0</ele><time>2026-03-23T12:53:46Z</time></trkpt><trkpt lat="30.451239177662377" lon="-5.543525067007327"><ele>943.0</ele><time>2026-03-23T12:53:47Z</time></trkpt><trkpt lat="30.451118868157376" lon="-5.543694790476175"><ele>943.0</ele><time>2026-03-23T12:53:48Z</time></trkpt><trkpt lat="30.45099829597716" lon="-5.5438612119399355"><ele>943.0</ele><time>2026-03-23T12:53:49Z</time></trkpt><trkpt lat="30.450880474815232" lon="-5.544026023878484"><ele>945.0</ele><time>2026-03-23T12:53:50Z</time></trkpt><trkpt lat="30.450758405448187" lon="-5.5441962467155825"><ele>947.0</ele><time>2026-03-23T12:53:51Z</time></trkpt><trkpt lat="30.450631540433665" lon="-5.544367042695995"><ele>949.0</ele><time>2026-03-23T12:53:52Z</time></trkpt><trkpt lat="30.450503682988554" lon="-5.544545827457012"><ele>949.3333333333333</ele><time>2026-03-23T12:53:53Z</time></trkpt><trkpt lat="30.450374263504735" lon="-5.544729200560381"><ele>949.6666666666667</ele><time>2026-03-23T12:53:54Z</time></trkpt><trkpt lat="30.45024569970968" lon="-5.544915009748888"><ele>950.0</ele><time>2026-03-23T12:53:55Z</time></trkpt><trkpt lat="30.450116730124904" lon="-5.545105335404408"><ele>950.0</ele><time>2026-03-23T12:53:56Z</time></trkpt><trkpt lat="30.4499845234336" lon="-5.5452952263693245"><ele>950.0</ele><time>2026-03-23T12:53:57Z</time></trkpt><trkpt lat="30.44984768636185" lon="-5.545486660547431"><ele>950.0</ele><time>2026-03-23T12:53:58Z</time></trkpt><trkpt lat="30.449710455232886" lon="-5.545679607464898"><ele>950.0</ele><time>2026-03-23T12:53:59Z</time></trkpt><trkpt lat="30.449574761096848" lon="-5.5458735435443876"><ele>950.0</ele><time>2026-03-23T12:54:00Z</time></trkpt><trkpt lat="30.449437850592382" lon="-5.54606677163202"><ele>950.0</ele><time>2026-03-23T12:54:01Z</time></trkpt><trkpt lat="30.449301111572947" lon="-5.546261653282604"><ele>950.0</ele><time>2026-03-23T12:54:02Z</time></trkpt><trkpt lat="30.449164867234998" lon="-5.546456091218301"><ele>950.0</ele><time>2026-03-23T12:54:03Z</time></trkpt><trkpt lat="30.44903050999976" lon="-5.546649599287434"><ele>950.0</ele><time>2026-03-23T12:54:04Z</time></trkpt><trkpt lat="30.448896485947802" lon="-5.546839948251493"><ele>950.0</ele><time>2026-03-23T12:54:05Z</time></trkpt><trkpt lat="30.448762991377162" lon="-5.547027270823983"><ele>950.0</ele><time>2026-03-23T12:54:06Z</time></trkpt><trkpt lat="30.448636125513094" lon="-5.547211620754643"><ele>950.0</ele><time>2026-03-23T12:54:07Z</time></trkpt><trkpt lat="30.448511256074408" lon="-5.547393432738707"><ele>951.0</ele><time>2026-03-23T12:54:08.001Z</time></trkpt><trkpt lat="30.448386643466012" lon="-5.547571968204418"><ele>952.0</ele><time>2026-03-23T12:54:09.001Z</time></trkpt><trkpt lat="30.448263577105685" lon="-5.54775025772121"><ele>953.0</ele><time>2026-03-23T12:54:10.001Z</time></trkpt><trkpt lat="30.448137612167876" lon="-5.547928353274721"><ele>953.3333333333334</ele><time>2026-03-23T12:54:11.001Z</time></trkpt><trkpt lat="30.44801154656337" lon="-5.548108628171251"><ele>953.6666666666667</ele><time>2026-03-23T12:54:12.001Z</time></trkpt><trkpt lat="30.447880315388907" lon="-5.548290197522481"><ele>954.0</ele><time>2026-03-23T12:54:13.001Z</time></trkpt><trkpt lat="30.44774879615561" lon="-5.548469345533241"><ele>954.3333333333333</ele><time>2026-03-23T12:54:14.001Z</time></trkpt><trkpt lat="30.447615544833862" lon="-5.548653130761209"><ele>954.6666666666666</ele><time>2026-03-23T12:54:15.001Z</time></trkpt><trkpt lat="30.447483075432356" lon="-5.548834923877443"><ele>955.0</ele><time>2026-03-23T12:54:16.001Z</time></trkpt><trkpt lat="30.447351090844318" lon="-5.549024049230544"><ele>955.0</ele><time>2026-03-23T12:54:17.001Z</time></trkpt><trkpt lat="30.44722147384371" lon="-5.549214206985693"><ele>955.0</ele><time>2026-03-23T12:54:18.001Z</time></trkpt><trkpt lat="30.447088634424244" lon="-5.549412299945109"><ele>955.0</ele><time>2026-03-23T12:54:19.001Z</time></trkpt><trkpt lat="30.446949433600114" lon="-5.549607748799189"><ele>955.0</ele><time>2026-03-23T12:54:20.001Z</time></trkpt><trkpt lat="30.44680886329526" lon="-5.549802770039732"><ele>955.0</ele><time>2026-03-23T12:54:21.001Z</time></trkpt><trkpt lat="30.446666251120313" lon="-5.550000306250035"><ele>955.0</ele><time>2026-03-23T12:54:22.001Z</time></trkpt><trkpt lat="30.446523952852516" lon="-5.550200771910225"><ele>955.3333333333333</ele><time>2026-03-23T12:54:23.001Z</time></trkpt><trkpt lat="30.446382936204095" lon="-5.550401816993762"><ele>955.6666666666667</ele><time>2026-03-23T12:54:24.001Z</time></trkpt><trkpt lat="30.44624052129327" lon="-5.550602124441628"><ele>956.0</ele><time>2026-03-23T12:54:25.001Z</time></trkpt><trkpt lat="30.446100017739276" lon="-5.550800283465382"><ele>956.0</ele><time>2026-03-23T12:54:26.001Z</time></trkpt><trkpt lat="30.445963696292157" lon="-5.550991122352689"><ele>956.0</ele><time>2026-03-23T12:54:27.001Z</time></trkpt><trkpt lat="30.44583368730819" lon="-5.551175437237793"><ele>956.0</ele><time>2026-03-23T12:54:28.001Z</time></trkpt><trkpt lat="30.445703603650504" lon="-5.55135770395245"><ele>956.3333333333334</ele><time>2026-03-23T12:54:29.001Z</time></trkpt><trkpt lat="30.445575656211393" lon="-5.551542037298271"><ele>956.6666666666667</ele><time>2026-03-23T12:54:30.001Z</time></trkpt><trkpt lat="30.445446763069867" lon="-5.55173009334908"><ele>957.0</ele><time>2026-03-23T12:54:31.001Z</time></trkpt><trkpt lat="30.44531990177929" lon="-5.55191444519577"><ele>958.3333333333333</ele><time>2026-03-23T12:54:32.001Z</time></trkpt><trkpt lat="30.445195114734" lon="-5.552089425929079"><ele>959.6666666666666</ele><time>2026-03-23T12:54:33.001Z</time></trkpt><trkpt lat="30.445068427114396" lon="-5.552262895663599"><ele>961.0</ele><time>2026-03-23T12:54:34.001Z</time></trkpt><trkpt lat="30.44494061430193" lon="-5.552441745805103"><ele>961.0</ele><time>2026-03-23T12:54:35.001Z</time></trkpt><trkpt lat="30.444817306952892" lon="-5.552621016947946"><ele>961.0</ele><time>2026-03-23T12:54:36.001Z</time></trkpt><trkpt lat="30.444700223726272" lon="-5.552797013209215"><ele>961.0</ele><time>2026-03-23T12:54:37.001Z</time></trkpt><trkpt lat="30.444580189921716" lon="-5.552971018215387"><ele>960.3333333333333</ele><time>2026-03-23T12:54:38.001Z</time></trkpt><trkpt lat="30.444451213320452" lon="-5.55314667307723"><ele>959.6666666666667</ele><time>2026-03-23T12:54:39.001Z</time></trkpt><trkpt lat="30.444322646041257" lon="-5.553318399925765"><ele>959.0</ele><time>2026-03-23T12:54:40.001Z</time></trkpt><trkpt lat="30.444198336031086" lon="-5.553491417555885"><ele>959.0</ele><time>2026-03-23T12:54:41.001Z</time></trkpt><trkpt lat="30.444075687917287" lon="-5.553670662854074"><ele>959.0</ele><time>2026-03-23T12:54:42.001Z</time></trkpt><trkpt lat="30.4439544132448" lon="-5.553850353414397"><ele>959.0</ele><time>2026-03-23T12:54:43.001Z</time></trkpt><trkpt lat="30.44383379515366" lon="-5.554027071853505"><ele>959.3333333333334</ele><time>2026-03-23T12:54:44.001Z</time></trkpt><trkpt lat="30.44370885511521" lon="-5.554203787702276"><ele>959.6666666666667</ele><time>2026-03-23T12:54:45.001Z</time></trkpt><trkpt lat="30.44357972551563" lon="-5.5543854124955505"><ele>960.0</ele><time>2026-03-23T12:54:46.001Z</time></trkpt><trkpt lat="30.44345178112469" lon="-5.55456925690033"><ele>960.0</ele><time>2026-03-23T12:54:47.001Z</time></trkpt><trkpt lat="30.443325566563345" lon="-5.5547564464548245"><ele>960.0</ele><time>2026-03-23T12:54:48.001Z</time></trkpt><trkpt lat="30.443196376340378" lon="-5.554941674878337"><ele>960.0</ele><time>2026-03-23T12:54:49Z</time></trkpt><trkpt lat="30.443063058407198" lon="-5.555124250775554"><ele>959.6666666666667</ele><time>2026-03-23T12:54:50Z</time></trkpt><trkpt lat="30.442925297424473" lon="-5.555310169385313"><ele>959.3333333333334</ele><time>2026-03-23T12:54:51Z</time></trkpt><trkpt lat="30.442788568839212" lon="-5.555503243038315"><ele>959.0</ele><time>2026-03-23T12:54:52Z</time></trkpt><trkpt lat="30.442655028759713" lon="-5.555695095908498"><ele>959.6666666666667</ele><time>2026-03-23T12:54:53Z</time></trkpt><trkpt lat="30.442518565587115" lon="-5.555891321285677"><ele>960.3333333333333</ele><time>2026-03-23T12:54:54Z</time></trkpt><trkpt lat="30.442381337780024" lon="-5.556088067434889"><ele>961.0</ele><time>2026-03-23T12:54:55Z</time></trkpt><trkpt lat="30.442242253161503" lon="-5.556287754585589"><ele>960.0</ele><time>2026-03-23T12:54:56Z</time></trkpt><trkpt lat="30.442102398882877" lon="-5.556489063495829"><ele>959.0</ele><time>2026-03-23T12:54:57Z</time></trkpt><trkpt lat="30.441962978269405" lon="-5.556686878250168"><ele>958.0</ele><time>2026-03-23T12:54:58Z</time></trkpt><trkpt lat="30.441825683739665" lon="-5.556873828954885"><ele>959.0</ele><time>2026-03-23T12:54:59Z</time></trkpt><trkpt lat="30.441691845539637" lon="-5.557060240153674"><ele>960.0</ele><time>2026-03-23T12:55:00Z</time></trkpt><trkpt lat="30.441559834943952" lon="-5.55724465909332"><ele>961.0</ele><time>2026-03-23T12:55:01Z</time></trkpt><trkpt lat="30.44142979455015" lon="-5.557428334412396"><ele>961.0</ele><time>2026-03-23T12:55:02Z</time></trkpt><trkpt lat="30.44129967633922" lon="-5.55761070810712"><ele>961.0</ele><time>2026-03-23T12:55:03Z</time></trkpt><trkpt lat="30.441170640281786" lon="-5.55779934131104"><ele>961.0</ele><time>2026-03-23T12:55:04Z</time></trkpt><trkpt lat="30.44104076701856" lon="-5.557986066148611"><ele>960.6666666666666</ele><time>2026-03-23T12:55:05Z</time></trkpt><trkpt lat="30.440908483288553" lon="-5.558173058191267"><ele>960.3333333333333</ele><time>2026-03-23T12:55:06Z</time></trkpt><trkpt lat="30.44077193102643" lon="-5.558354715898837"><ele>960.0</ele><time>2026-03-23T12:55:07Z</time></trkpt><trkpt lat="30.440639572223862" lon="-5.55853840117412"><ele>960.3333333333333</ele><time>2026-03-23T12:55:08Z</time></trkpt><trkpt lat="30.440517886899574" lon="-5.5587236644375935"><ele>960.6666666666666</ele><time>2026-03-23T12:55:09Z</time></trkpt><trkpt lat="30.44039677604127" lon="-5.558913708715741"><ele>961.0</ele><time>2026-03-23T12:55:10Z</time></trkpt><trkpt lat="30.440256613509256" lon="-5.559083986370913"><ele>961.0</ele><time>2026-03-23T12:55:11Z</time></trkpt><trkpt lat="30.44013375614956" lon="-5.559276059405817"><ele>961.0</ele><time>2026-03-23T12:55:12Z</time></trkpt><trkpt lat="30.440001013606405" lon="-5.559459869429301"><ele>961.0</ele><time>2026-03-23T12:55:13Z</time></trkpt><trkpt lat="30.439871558313197" lon="-5.55964831383496"><ele>960.6666666666666</ele><time>2026-03-23T12:55:14Z</time></trkpt><trkpt lat="30.4397400047805" lon="-5.559839245148352"><ele>960.3333333333333</ele><time>2026-03-23T12:55:15Z</time></trkpt><trkpt lat="30.4396050617028" lon="-5.5600284033574185"><ele>960.0</ele><time>2026-03-23T12:55:16Z</time></trkpt><trkpt lat="30.439468917463717" lon="-5.560219339045032"><ele>961.0</ele><time>2026-03-23T12:55:17Z</time></trkpt><trkpt lat="30.4393342274827" lon="-5.560409298122376"><ele>962.0</ele><time>2026-03-23T12:55:18Z</time></trkpt><trkpt lat="30.439200675144843" lon="-5.560602215045853"><ele>963.0</ele><time>2026-03-23T12:55:19Z</time></trkpt><trkpt lat="30.439055619853143" lon="-5.5607791090265195"><ele>963.0</ele><time>2026-03-23T12:55:20Z</time></trkpt><trkpt lat="30.43893382879892" lon="-5.560980511443941"><ele>963.0</ele><time>2026-03-23T12:55:21Z</time></trkpt><trkpt lat="30.43880020825675" lon="-5.561168454928978"><ele>963.0</ele><time>2026-03-23T12:55:22Z</time></trkpt><trkpt lat="30.438668041627828" lon="-5.561356419165317"><ele>962.0</ele><time>2026-03-23T12:55:23Z</time></trkpt><trkpt lat="30.438536370233475" lon="-5.561542403632097"><ele>961.0</ele><time>2026-03-23T12:55:24Z</time></trkpt><trkpt lat="30.43840780896417" lon="-5.561722508780042"><ele>960.0</ele><time>2026-03-23T12:55:25Z</time></trkpt><trkpt lat="30.43827988786098" lon="-5.561902785506609"><ele>960.0</ele><time>2026-03-23T12:55:26Z</time></trkpt><trkpt lat="30.438154210277958" lon="-5.562084222800805"><ele>960.0</ele><time>2026-03-23T12:55:27Z</time></trkpt><trkpt lat="30.438027212960463" lon="-5.562264311832582"><ele>960.0</ele><time>2026-03-23T12:55:28Z</time></trkpt><trkpt lat="30.437885801922235" lon="-5.562434767692708"><ele>959.3333333333333</ele><time>2026-03-23T12:55:29Z</time></trkpt><trkpt lat="30.437755355012634" lon="-5.562619822009176"><ele>958.6666666666666</ele><time>2026-03-23T12:55:30Z</time></trkpt><trkpt lat="30.43763628606108" lon="-5.562815277301433"><ele>958.0</ele><time>2026-03-23T12:55:31Z</time></trkpt><trkpt lat="30.43750236972709" lon="-5.563002412653199"><ele>958.0</ele><time>2026-03-23T12:55:32Z</time></trkpt><trkpt lat="30.437368977508047" lon="-5.563194350693817"><ele>958.0</ele><time>2026-03-23T12:55:33Z</time></trkpt><trkpt lat="30.437232869543237" lon="-5.5633891884249165"><ele>958.0</ele><time>2026-03-23T12:55:34Z</time></trkpt><trkpt lat="30.43708212792518" lon="-5.563570699349089"><ele>958.6666666666666</ele><time>2026-03-23T12:55:35Z</time></trkpt><trkpt lat="30.436943616737594" lon="-5.563764553940489"><ele>959.3333333333333</ele><time>2026-03-23T12:55:36Z</time></trkpt><trkpt lat="30.436805467828087" lon="-5.563957901501808"><ele>960.0</ele><time>2026-03-23T12:55:37Z</time></trkpt><trkpt lat="30.436680660947058" lon="-5.564163468558717"><ele>960.0</ele><time>2026-03-23T12:55:38Z</time></trkpt><trkpt lat="30.43654422267788" lon="-5.564358099660057"><ele>960.0</ele><time>2026-03-23T12:55:39Z</time></trkpt><trkpt lat="30.43640728979327" lon="-5.564552592048164"><ele>960.0</ele><time>2026-03-23T12:55:40Z</time></trkpt><trkpt lat="30.436266013190888" lon="-5.564747108541014"><ele>958.6666666666667</ele><time>2026-03-23T12:55:41Z</time></trkpt><trkpt lat="30.436128593778022" lon="-5.564939550547131"><ele>957.3333333333334</ele><time>2026-03-23T12:55:42Z</time></trkpt><trkpt lat="30.435996748530712" lon="-5.565122148891715"><ele>956.0</ele><time>2026-03-23T12:55:43Z</time></trkpt><trkpt lat="30.43587617608686" lon="-5.565297015117828"><ele>956.3333333333334</ele><time>2026-03-23T12:55:44Z</time></trkpt><trkpt lat="30.435751543593124" lon="-5.5654744390937205"><ele>956.6666666666667</ele><time>2026-03-23T12:55:45Z</time></trkpt><trkpt lat="30.435628202424258" lon="-5.565652172755699"><ele>957.0</ele><time>2026-03-23T12:55:46Z</time></trkpt><trkpt lat="30.43550177408771" lon="-5.565831582523246"><ele>956.3333333333333</ele><time>2026-03-23T12:55:47Z</time></trkpt><trkpt lat="30.435377357898187" lon="-5.5660085174798875"><ele>955.6666666666666</ele><time>2026-03-23T12:55:48Z</time></trkpt><trkpt lat="30.43525458919161" lon="-5.566188208171134"><ele>955.0</ele><time>2026-03-23T12:55:49Z</time></trkpt><trkpt lat="30.43512706300784" lon="-5.5663700782440975"><ele>954.6666666666666</ele><time>2026-03-23T12:55:50Z</time></trkpt><trkpt lat="30.434998375184758" lon="-5.566552162021294"><ele>954.3333333333333</ele><time>2026-03-23T12:55:51.001Z</time></trkpt><trkpt lat="30.43486673399902" lon="-5.56673562169092"><ele>954.0</ele><time>2026-03-23T12:55:52.001Z</time></trkpt><trkpt lat="30.434732242651023" lon="-5.566928235902129"><ele>953.0</ele><time>2026-03-23T12:55:53.001Z</time></trkpt><trkpt lat="30.434593690350603" lon="-5.5671226890704215"><ele>952.0</ele><time>2026-03-23T12:55:54.001Z</time></trkpt><trkpt lat="30.43445597047504" lon="-5.567316018484321"><ele>951.0</ele><time>2026-03-23T12:55:55.001Z</time></trkpt><trkpt lat="30.43431941684958" lon="-5.5675116084860745"><ele>951.0</ele><time>2026-03-23T12:55:56.001Z</time></trkpt><trkpt lat="30.434182686831043" lon="-5.5677055916838905"><ele>951.0</ele><time>2026-03-23T12:55:57.001Z</time></trkpt><trkpt lat="30.434047159878507" lon="-5.567895934718765"><ele>951.0</ele><time>2026-03-23T12:55:58.001Z</time></trkpt><trkpt lat="30.433915430374295" lon="-5.568085686207668"><ele>949.6666666666667</ele><time>2026-03-23T12:55:59.001Z</time></trkpt><trkpt lat="30.433788191396193" lon="-5.5682674653319175"><ele>948.3333333333334</ele><time>2026-03-23T12:56:00.001Z</time></trkpt><trkpt lat="30.433664211249216" lon="-5.568449970258387"><ele>947.0</ele><time>2026-03-23T12:56:01.001Z</time></trkpt><trkpt lat="30.43353703539976" lon="-5.568629846142777"><ele>946.3333333333334</ele><time>2026-03-23T12:56:02.001Z</time></trkpt><trkpt lat="30.433408280925317" lon="-5.568805749287063"><ele>945.6666666666667</ele><time>2026-03-23T12:56:03.001Z</time></trkpt><trkpt lat="30.43327978924814" lon="-5.568984021370825"><ele>945.0</ele><time>2026-03-23T12:56:04.001Z</time></trkpt><trkpt lat="30.43314970208782" lon="-5.569166511374877"><ele>945.0</ele><time>2026-03-23T12:56:05.001Z</time></trkpt><trkpt lat="30.43302072144747" lon="-5.569354534405246"><ele>945.0</ele><time>2026-03-23T12:56:06.001Z</time></trkpt><trkpt lat="30.43289260159242" lon="-5.569546659751465"><ele>945.0</ele><time>2026-03-23T12:56:07.001Z</time></trkpt><trkpt lat="30.43276257711644" lon="-5.56973808323994"><ele>945.0</ele><time>2026-03-23T12:56:08.001Z</time></trkpt><trkpt lat="30.43262445964944" lon="-5.56992521554188"><ele>945.0</ele><time>2026-03-23T12:56:09.001Z</time></trkpt><trkpt lat="30.43248595099667" lon="-5.570111291193782"><ele>945.0</ele><time>2026-03-23T12:56:10.001Z</time></trkpt><trkpt lat="30.432354045688196" lon="-5.570296692092931"><ele>944.6666666666667</ele><time>2026-03-23T12:56:11.001Z</time></trkpt><trkpt lat="30.432225809139588" lon="-5.570479926234071"><ele>944.3333333333334</ele><time>2026-03-23T12:56:12.001Z</time></trkpt><trkpt lat="30.43210038136568" lon="-5.570657618158991"><ele>944.0</ele><time>2026-03-23T12:56:13.001Z</time></trkpt><trkpt lat="30.43198277982016" lon="-5.570826732356207"><ele>944.0</ele><time>2026-03-23T12:56:14.001Z</time></trkpt><trkpt lat="30.431862050397854" lon="-5.570999356506506"><ele>944.0</ele><time>2026-03-23T12:56:15.001Z</time></trkpt><trkpt lat="30.43174195563053" lon="-5.571171913745765"><ele>944.0</ele><time>2026-03-23T12:56:16.001Z</time></trkpt><trkpt lat="30.43162121885236" lon="-5.571348683214666"><ele>944.0</ele><time>2026-03-23T12:56:17.001Z</time></trkpt><trkpt lat="30.431498512910753" lon="-5.571526169142053"><ele>944.0</ele><time>2026-03-23T12:56:18.001Z</time></trkpt><trkpt lat="30.431373962413335" lon="-5.571698317378055"><ele>944.0</ele><time>2026-03-23T12:56:19.001Z</time></trkpt><trkpt lat="30.431249535616686" lon="-5.571867930412121"><ele>944.3333333333334</ele><time>2026-03-23T12:56:20.001Z</time></trkpt><trkpt lat="30.4311280518154" lon="-5.5720365504262395"><ele>944.6666666666667</ele><time>2026-03-23T12:56:21.001Z</time></trkpt><trkpt lat="30.431004567794908" lon="-5.572207652728755"><ele>945.0</ele><time>2026-03-23T12:56:22.001Z</time></trkpt><trkpt lat="30.43088370891795" lon="-5.5723823906162995"><ele>945.0</ele><time>2026-03-23T12:56:23.001Z</time></trkpt><trkpt lat="30.43076131893718" lon="-5.572563486358842"><ele>945.0</ele><time>2026-03-23T12:56:24.001Z</time></trkpt><trkpt lat="30.43063621736277" lon="-5.572745762959845"><ele>945.0</ele><time>2026-03-23T12:56:25.001Z</time></trkpt><trkpt lat="30.43051220936882" lon="-5.572921716408196"><ele>944.6666666666667</ele><time>2026-03-23T12:56:26.001Z</time></trkpt><trkpt lat="30.430387932291445" lon="-5.5730949436503385"><ele>944.3333333333334</ele><time>2026-03-23T12:56:27.001Z</time></trkpt><trkpt lat="30.43026441404185" lon="-5.573269454358834"><ele>944.0</ele><time>2026-03-23T12:56:28.001Z</time></trkpt><trkpt lat="30.43013805170668" lon="-5.573446736701934"><ele>944.0</ele><time>2026-03-23T12:56:29.001Z</time></trkpt><trkpt lat="30.43001429288956" lon="-5.57362326504407"><ele>944.0</ele><time>2026-03-23T12:56:30.001Z</time></trkpt><trkpt lat="30.429890422236873" lon="-5.573800859761814"><ele>944.0</ele><time>2026-03-23T12:56:31.001Z</time></trkpt><trkpt lat="30.429763604679145" lon="-5.57397950054124"><ele>943.3333333333334</ele><time>2026-03-23T12:56:32.001Z</time></trkpt><trkpt lat="30.42963631971327" lon="-5.574157027231522"><ele>942.6666666666667</ele><time>2026-03-23T12:56:33.001Z</time></trkpt><trkpt lat="30.429507876209044" lon="-5.574334124601698"><ele>942.0</ele><time>2026-03-23T12:56:34.001Z</time></trkpt><trkpt lat="30.42937730007612" lon="-5.574515653090395"><ele>942.0</ele><time>2026-03-23T12:56:35.001Z</time></trkpt><trkpt lat="30.429251380957716" lon="-5.574703638360563"><ele>942.0</ele><time>2026-03-23T12:56:36.001Z</time></trkpt><trkpt lat="30.429126475506774" lon="-5.574895447810296"><ele>942.0</ele><time>2026-03-23T12:56:37.001Z</time></trkpt><trkpt lat="30.429000248855044" lon="-5.575083474122645"><ele>942.0</ele><time>2026-03-23T12:56:38.001Z</time></trkpt><trkpt lat="30.42887651465884" lon="-5.575270608786701"><ele>942.0</ele><time>2026-03-23T12:56:39.001Z</time></trkpt><trkpt lat="30.428753437644474" lon="-5.575457928619692"><ele>942.0</ele><time>2026-03-23T12:56:40.001Z</time></trkpt><trkpt lat="30.428635399015928" lon="-5.575652103888028"><ele>943.0</ele><time>2026-03-23T12:56:41.001Z</time></trkpt><trkpt lat="30.428523273005577" lon="-5.575854040330534"><ele>944.0</ele><time>2026-03-23T12:56:42.001Z</time></trkpt><trkpt lat="30.428413957089525" lon="-5.57606134266437"><ele>945.0</ele><time>2026-03-23T12:56:43.001Z</time></trkpt><trkpt lat="30.42829760928653" lon="-5.576269467732344"><ele>945.3333333333333</ele><time>2026-03-23T12:56:44.001Z</time></trkpt><trkpt lat="30.428181568442113" lon="-5.576482205533437"><ele>945.6666666666666</ele><time>2026-03-23T12:56:45.001Z</time></trkpt><trkpt lat="30.428064246622565" lon="-5.576694003795804"><ele>946.0</ele><time>2026-03-23T12:56:46.001Z</time></trkpt><trkpt lat="30.427951603311694" lon="-5.576902770677268"><ele>945.3333333333333</ele><time>2026-03-23T12:56:47.001Z</time></trkpt><trkpt lat="30.42783553052891" lon="-5.577115538170056"><ele>944.6666666666667</ele><time>2026-03-23T12:56:48.001Z</time></trkpt><trkpt lat="30.427721269005225" lon="-5.57734205375075"><ele>944.0</ele><time>2026-03-23T12:56:49.001Z</time></trkpt><trkpt lat="30.42761018196602" lon="-5.577572957002734"><ele>944.0</ele><time>2026-03-23T12:56:50.001Z</time></trkpt><trkpt lat="30.427503898352285" lon="-5.577811432188283"><ele>944.0</ele><time>2026-03-23T12:56:51.001Z</time></trkpt><trkpt lat="30.42740432075165" lon="-5.578049210801306"><ele>943.5</ele><time>2026-03-23T12:56:52.001Z</time></trkpt><trkpt lat="30.42729797501835" lon="-5.578279583833015"><ele>943.0</ele><time>2026-03-23T12:56:53.001Z</time></trkpt><trkpt lat="30.427183006285166" lon="-5.578523724517805"><ele>940.5</ele><time>2026-03-23T12:56:54.001Z</time></trkpt><trkpt lat="30.427088070113452" lon="-5.578774549413761"><ele>938.0</ele><time>2026-03-23T12:56:55.001Z</time></trkpt><trkpt lat="30.42698711480353" lon="-5.579032413271117"><ele>938.0</ele><time>2026-03-23T12:56:56.001Z</time></trkpt><trkpt lat="30.426884695050624" lon="-5.579299656671728"><ele>938.0</ele><time>2026-03-23T12:56:57.001Z</time></trkpt><trkpt lat="30.42677994376336" lon="-5.579575421402735"><ele>938.0</ele><time>2026-03-23T12:56:58.001Z</time></trkpt><trkpt lat="30.426679096434853" lon="-5.579861259576447"><ele>938.0</ele><time>2026-03-23T12:56:59.001Z</time></trkpt><trkpt lat="30.42658137973699" lon="-5.580149987503125"><ele>937.0</ele><time>2026-03-23T12:57:00.001Z</time></trkpt><trkpt lat="30.426487572860427" lon="-5.580435104314757"><ele>936.0</ele><time>2026-03-23T12:57:01.001Z</time></trkpt><trkpt lat="30.42640749007958" lon="-5.580694676139562"><ele>936.0</ele><time>2026-03-23T12:57:02.001Z</time></trkpt><trkpt lat="30.426331384695334" lon="-5.580938093595696"><ele>936.0</ele><time>2026-03-23T12:57:03.001Z</time></trkpt><trkpt lat="30.426256853179012" lon="-5.581173711499384"><ele>936.0</ele><time>2026-03-23T12:57:04.001Z</time></trkpt><trkpt lat="30.42618864645835" lon="-5.581403844007539"><ele>935.3333333333333</ele><time>2026-03-23T12:57:05.001Z</time></trkpt><trkpt lat="30.42611849075892" lon="-5.58163872662207"><ele>934.6666666666666</ele><time>2026-03-23T12:57:06.001Z</time></trkpt><trkpt lat="30.426047005543072" lon="-5.581873360510639"><ele>934.0</ele><time>2026-03-23T12:57:07.001Z</time></trkpt><trkpt lat="30.425975679875226" lon="-5.582110419256767"><ele>934.0</ele><time>2026-03-23T12:57:08.001Z</time></trkpt><trkpt lat="30.425899661477064" lon="-5.582350009659248"><ele>934.0</ele><time>2026-03-23T12:57:09.001Z</time></trkpt><trkpt lat="30.42582662354934" lon="-5.582584281743508"><ele>934.0</ele><time>2026-03-23T12:57:10.001Z</time></trkpt><trkpt lat="30.425754873133982" lon="-5.582814738969862"><ele>934.3333333333333</ele><time>2026-03-23T12:57:11Z</time></trkpt><trkpt lat="30.42568255795305" lon="-5.5830447513158"><ele>934.6666666666667</ele><time>2026-03-23T12:57:12Z</time></trkpt><trkpt lat="30.425607057850282" lon="-5.583275823191238"><ele>935.0</ele><time>2026-03-23T12:57:13Z</time></trkpt><trkpt lat="30.425535572844105" lon="-5.583504484285242"><ele>934.3333333333334</ele><time>2026-03-23T12:57:14Z</time></trkpt><trkpt lat="30.425465244012592" lon="-5.583734632710015"><ele>933.6666666666667</ele><time>2026-03-23T12:57:15Z</time></trkpt><trkpt lat="30.425397797331588" lon="-5.583967597439036"><ele>933.0</ele><time>2026-03-23T12:57:16Z</time></trkpt><trkpt lat="30.425327571411106" lon="-5.584198809441168"><ele>933.0</ele><time>2026-03-23T12:57:17Z</time></trkpt><trkpt lat="30.425257778798922" lon="-5.584420260027383"><ele>933.0</ele><time>2026-03-23T12:57:18Z</time></trkpt><trkpt lat="30.425185750271936" lon="-5.584642682849298"><ele>933.0</ele><time>2026-03-23T12:57:19Z</time></trkpt><trkpt lat="30.4251160657249" lon="-5.584866423614604"><ele>933.0</ele><time>2026-03-23T12:57:20Z</time></trkpt><trkpt lat="30.425045961494945" lon="-5.585088958564943"><ele>933.0</ele><time>2026-03-23T12:57:21Z</time></trkpt><trkpt lat="30.424976046518047" lon="-5.585309803257552"><ele>933.0</ele><time>2026-03-23T12:57:22Z</time></trkpt><trkpt lat="30.42490728903263" lon="-5.5855321304557695"><ele>933.0</ele><time>2026-03-23T12:57:23Z</time></trkpt><trkpt lat="30.42483769020657" lon="-5.585755406253876"><ele>933.0</ele><time>2026-03-23T12:57:24Z</time></trkpt><trkpt lat="30.42476706413054" lon="-5.585981955912001"><ele>933.0</ele><time>2026-03-23T12:57:25Z</time></trkpt><trkpt lat="30.42469566848512" lon="-5.586212113295733"><ele>932.0</ele><time>2026-03-23T12:57:26Z</time></trkpt><trkpt lat="30.424624772953212" lon="-5.586442743305164"><ele>931.0</ele><time>2026-03-23T12:57:27Z</time></trkpt><trkpt lat="30.424548818299662" lon="-5.586673623651532"><ele>930.0</ele><time>2026-03-23T12:57:28Z</time></trkpt><trkpt lat="30.42447541735905" lon="-5.5869065654570695"><ele>930.0</ele><time>2026-03-23T12:57:29Z</time></trkpt><trkpt lat="30.42439953963869" lon="-5.5871430865080605"><ele>930.0</ele><time>2026-03-23T12:57:30Z</time></trkpt><trkpt lat="30.424326858191275" lon="-5.587379077630847"><ele>930.0</ele><time>2026-03-23T12:57:31Z</time></trkpt><trkpt lat="30.424255109503218" lon="-5.587618579691107"><ele>929.6666666666667</ele><time>2026-03-23T12:57:32Z</time></trkpt><trkpt lat="30.424182284975505" lon="-5.587858812113164"><ele>929.3333333333334</ele><time>2026-03-23T12:57:33Z</time></trkpt><trkpt lat="30.424107047116422" lon="-5.588100080062651"><ele>929.0</ele><time>2026-03-23T12:57:34Z</time></trkpt><trkpt lat="30.424031045036884" lon="-5.588342255224654"><ele>929.0</ele><time>2026-03-23T12:57:35Z</time></trkpt><trkpt lat="30.423954552240495" lon="-5.58858489631687"><ele>929.0</ele><time>2026-03-23T12:57:36Z</time></trkpt><trkpt lat="30.423879067067464" lon="-5.588827915979141"><ele>929.0</ele><time>2026-03-23T12:57:37.001Z</time></trkpt><trkpt lat="30.423803788840445" lon="-5.589068439369481"><ele>928.3333333333334</ele><time>2026-03-23T12:57:38.001Z</time></trkpt><trkpt lat="30.423729060711892" lon="-5.589307977328407"><ele>927.6666666666667</ele><time>2026-03-23T12:57:39.001Z</time></trkpt><trkpt lat="30.423655519885095" lon="-5.589548274539628"><ele>927.0</ele><time>2026-03-23T12:57:40.001Z</time></trkpt><trkpt lat="30.42358435977217" lon="-5.589777525291958"><ele>926.6666666666667</ele><time>2026-03-23T12:57:41.001Z</time></trkpt><trkpt lat="30.42351613329237" lon="-5.589986538170069"><ele>926.3333333333334</ele><time>2026-03-23T12:57:42.001Z</time></trkpt><trkpt lat="30.423452432706622" lon="-5.590194571253041"><ele>926.0</ele><time>2026-03-23T12:57:43.001Z</time></trkpt><trkpt lat="30.423387633535093" lon="-5.590402504960211"><ele>925.3333333333334</ele><time>2026-03-23T12:57:44.001Z</time></trkpt><trkpt lat="30.423321908114268" lon="-5.59061890259442"><ele>924.6666666666667</ele><time>2026-03-23T12:57:45.001Z</time></trkpt><trkpt lat="30.423257708938966" lon="-5.590833916584603"><ele>924.0</ele><time>2026-03-23T12:57:46.001Z</time></trkpt><trkpt lat="30.423192184766314" lon="-5.5910521377410936"><ele>925.0</ele><time>2026-03-23T12:57:47.001Z</time></trkpt><trkpt lat="30.423125760738753" lon="-5.591271679873054"><ele>926.0</ele><time>2026-03-23T12:57:48.001Z</time></trkpt><trkpt lat="30.42305942656961" lon="-5.591490531717221"><ele>927.0</ele><time>2026-03-23T12:57:49.001Z</time></trkpt><trkpt lat="30.422994706787904" lon="-5.591702220354217"><ele>927.0</ele><time>2026-03-23T12:57:50.001Z</time></trkpt><trkpt lat="30.42293450543334" lon="-5.5919187965524"><ele>927.0</ele><time>2026-03-23T12:57:51.001Z</time></trkpt><trkpt lat="30.422880750191446" lon="-5.592132376140965"><ele>927.0</ele><time>2026-03-23T12:57:52.001Z</time></trkpt><trkpt lat="30.422834234626148" lon="-5.592353906043674"><ele>927.0</ele><time>2026-03-23T12:57:53.001Z</time></trkpt><trkpt lat="30.422795584162014" lon="-5.592579351596511"><ele>927.0</ele><time>2026-03-23T12:57:54.001Z</time></trkpt><trkpt lat="30.422762445981807" lon="-5.592809706179004"><ele>927.0</ele><time>2026-03-23T12:57:55.001Z</time></trkpt><trkpt lat="30.422733942446165" lon="-5.593042007931585"><ele>926.3333333333333</ele><time>2026-03-23T12:57:56.001Z</time></trkpt><trkpt lat="30.422706564506" lon="-5.593275519289768"><ele>925.6666666666666</ele><time>2026-03-23T12:57:57.001Z</time></trkpt><trkpt lat="30.422684367867063" lon="-5.593515645769535"><ele>925.0</ele><time>2026-03-23T12:57:58.001Z</time></trkpt><trkpt lat="30.42267391946086" lon="-5.593760269030414"><ele>923.6666666666666</ele><time>2026-03-23T12:57:59.001Z</time></trkpt><trkpt lat="30.422671671268393" lon="-5.5940057796017"><ele>922.3333333333333</ele><time>2026-03-23T12:58:00.001Z</time></trkpt><trkpt lat="30.422677549456733" lon="-5.5942555833570315"><ele>921.0</ele><time>2026-03-23T12:58:01.001Z</time></trkpt><trkpt lat="30.422683116232584" lon="-5.594506274740398"><ele>921.0</ele><time>2026-03-23T12:58:02.001Z</time></trkpt><trkpt lat="30.42269142309558" lon="-5.594755375423825"><ele>921.0</ele><time>2026-03-23T12:58:03.001Z</time></trkpt><trkpt lat="30.422705597657917" lon="-5.595004637619331"><ele>921.0</ele><time>2026-03-23T12:58:04.001Z</time></trkpt><trkpt lat="30.422721834758153" lon="-5.595256647160456"><ele>922.0</ele><time>2026-03-23T12:58:05.001Z</time></trkpt><trkpt lat="30.42273345139989" lon="-5.595510469622084"><ele>923.0</ele><time>2026-03-23T12:58:06.001Z</time></trkpt><trkpt lat="30.422738747444512" lon="-5.595771610903219"><ele>924.0</ele><time>2026-03-23T12:58:07.001Z</time></trkpt><trkpt lat="30.422745236638516" lon="-5.596027389223227"><ele>923.6666666666667</ele><time>2026-03-23T12:58:08.001Z</time></trkpt><trkpt lat="30.422755329022188" lon="-5.596285606570571"><ele>923.3333333333334</ele><time>2026-03-23T12:58:09.001Z</time></trkpt><trkpt lat="30.422766462473202" lon="-5.596545787660522"><ele>923.0</ele><time>2026-03-23T12:58:10.001Z</time></trkpt><trkpt lat="30.422774780060355" lon="-5.596800413453766"><ele>919.3333333333334</ele><time>2026-03-23T12:58:11.001Z</time></trkpt><trkpt lat="30.42278567376063" lon="-5.597053036822013"><ele>915.6666666666667</ele><time>2026-03-23T12:58:12.001Z</time></trkpt><trkpt lat="30.422797248746413" lon="-5.597304322280625"><ele>912.0</ele><time>2026-03-23T12:58:13.001Z</time></trkpt><trkpt lat="30.422807123055257" lon="-5.597559247927388"><ele>912.0</ele><time>2026-03-23T12:58:14.001Z</time></trkpt><trkpt lat="30.42281346744782" lon="-5.597818149970379"><ele>912.0</ele><time>2026-03-23T12:58:15.001Z</time></trkpt><trkpt lat="30.42281337473722" lon="-5.5980761395474214"><ele>912.0</ele><time>2026-03-23T12:58:16.001Z</time></trkpt><trkpt lat="30.422806466474423" lon="-5.59833740814756"><ele>910.6666666666667</ele><time>2026-03-23T12:58:17.001Z</time></trkpt><trkpt lat="30.422791358462554" lon="-5.598596949909892"><ele>909.3333333333334</ele><time>2026-03-23T12:58:18.001Z</time></trkpt><trkpt lat="30.422771598129216" lon="-5.598853753289122"><ele>908.0</ele><time>2026-03-23T12:58:19.001Z</time></trkpt><trkpt lat="30.42274545846919" lon="-5.599111906273691"><ele>908.0</ele><time>2026-03-23T12:58:20.001Z</time></trkpt><trkpt lat="30.42270949354987" lon="-5.599364386590793"><ele>908.0</ele><time>2026-03-23T12:58:21.001Z</time></trkpt><trkpt lat="30.422663469393168" lon="-5.599615951330167"><ele>908.0</ele><time>2026-03-23T12:58:22.001Z</time></trkpt><trkpt lat="30.422615329025422" lon="-5.599864347344526"><ele>909.6666666666667</ele><time>2026-03-23T12:58:23.001Z</time></trkpt><trkpt lat="30.422567045615345" lon="-5.600113103577839"><ele>911.3333333333333</ele><time>2026-03-23T12:58:24.001Z</time></trkpt><trkpt lat="30.42251533427528" lon="-5.6003634094456105"><ele>913.0</ele><time>2026-03-23T12:58:25.001Z</time></trkpt><trkpt lat="30.422463299278018" lon="-5.600608436740939"><ele>913.0</ele><time>2026-03-23T12:58:26.001Z</time></trkpt><trkpt lat="30.42241354065802" lon="-5.600858732824899"><ele>913.0</ele><time>2026-03-23T12:58:27.001Z</time></trkpt><trkpt lat="30.422365903025888" lon="-5.60110684433794"><ele>913.0</ele><time>2026-03-23T12:58:28.001Z</time></trkpt><trkpt lat="30.422322809313314" lon="-5.601357453180473"><ele>910.0</ele><time>2026-03-23T12:58:29.001Z</time></trkpt><trkpt lat="30.422281391332888" lon="-5.601609350519819"><ele>907.0</ele><time>2026-03-23T12:58:30.001Z</time></trkpt><trkpt lat="30.422241593535436" lon="-5.60186652246218"><ele>904.0</ele><time>2026-03-23T12:58:31.001Z</time></trkpt><trkpt lat="30.422206780635207" lon="-5.602125778181027"><ele>903.5</ele><time>2026-03-23T12:58:32.001Z</time></trkpt><trkpt lat="30.422183699934628" lon="-5.602385411143999"><ele>903.0</ele><time>2026-03-23T12:58:33.001Z</time></trkpt><trkpt lat="30.422165344999087" lon="-5.602645863265687"><ele>899.0</ele><time>2026-03-23T12:58:34.001Z</time></trkpt><trkpt lat="30.422146678257416" lon="-5.602910846638238"><ele>895.0</ele><time>2026-03-23T12:58:35.001Z</time></trkpt><trkpt lat="30.42212483703929" lon="-5.603173424648532"><ele>895.0</ele><time>2026-03-23T12:58:36.001Z</time></trkpt><trkpt lat="30.422101357732835" lon="-5.603430293232978"><ele>895.0</ele><time>2026-03-23T12:58:37.001Z</time></trkpt><trkpt lat="30.42207999373581" lon="-5.603685193105821"><ele>895.0</ele><time>2026-03-23T12:58:38.001Z</time></trkpt><trkpt lat="30.422059421066123" lon="-5.603939865472463"><ele>894.6666666666666</ele><time>2026-03-23T12:58:39.001Z</time></trkpt><trkpt lat="30.422040467294604" lon="-5.604190411175628"><ele>894.3333333333333</ele><time>2026-03-23T12:58:40.001Z</time></trkpt><trkpt lat="30.42202397340505" lon="-5.604436022094619"><ele>894.0</ele><time>2026-03-23T12:58:41.001Z</time></trkpt><trkpt lat="30.42200977246533" lon="-5.604680885528295"><ele>894.0</ele><time>2026-03-23T12:58:42.001Z</time></trkpt><trkpt lat="30.421996028710225" lon="-5.604918830956845"><ele>894.0</ele><time>2026-03-23T12:58:43.001Z</time></trkpt><trkpt lat="30.421984154107925" lon="-5.605155227520775"><ele>894.0</ele><time>2026-03-23T12:58:44.001Z</time></trkpt><trkpt lat="30.421970446056694" lon="-5.605391909428282"><ele>894.0</ele><time>2026-03-23T12:58:45.001Z</time></trkpt><trkpt lat="30.421958388197744" lon="-5.605630836062714"><ele>894.0</ele><time>2026-03-23T12:58:46.001Z</time></trkpt><trkpt lat="30.421948101687214" lon="-5.605870149514273"><ele>894.0</ele><time>2026-03-23T12:58:47.001Z</time></trkpt><trkpt lat="30.421938152089627" lon="-5.606112634581016"><ele>895.3333333333333</ele><time>2026-03-23T12:58:48.001Z</time></trkpt><trkpt lat="30.421931714053684" lon="-5.606357500469632"><ele>896.6666666666666</ele><time>2026-03-23T12:58:49.001Z</time></trkpt><trkpt lat="30.421922397185966" lon="-5.606604173843237"><ele>898.0</ele><time>2026-03-23T12:58:50.001Z</time></trkpt><trkpt lat="30.42191760993337" lon="-5.606852522199449"><ele>897.6666666666666</ele><time>2026-03-23T12:58:51.001Z</time></trkpt><trkpt lat="30.421913440613146" lon="-5.607100803721139"><ele>897.3333333333333</ele><time>2026-03-23T12:58:52.001Z</time></trkpt><trkpt lat="30.421908553612575" lon="-5.6073516121018185"><ele>897.0</ele><time>2026-03-23T12:58:53.001Z</time></trkpt><trkpt lat="30.421901669103907" lon="-5.607607353181633"><ele>895.6666666666667</ele><time>2026-03-23T12:58:54.001Z</time></trkpt><trkpt lat="30.421898370456272" lon="-5.607865799230343"><ele>894.3333333333334</ele><time>2026-03-23T12:58:55.001Z</time></trkpt><trkpt lat="30.42189679261281" lon="-5.608124331931032"><ele>893.0</ele><time>2026-03-23T12:58:56.001Z</time></trkpt><trkpt lat="30.421892424402095" lon="-5.608382254566798"><ele>893.0</ele><time>2026-03-23T12:58:57.001Z</time></trkpt><trkpt lat="30.421887235980225" lon="-5.608639657185148"><ele>893.0</ele><time>2026-03-23T12:58:58.001Z</time></trkpt><trkpt lat="30.42188952959306" lon="-5.608890121285364"><ele>893.0</ele><time>2026-03-23T12:58:59.001Z</time></trkpt><trkpt lat="30.421897299528474" lon="-5.609133798064471"><ele>892.0</ele><time>2026-03-23T12:59:00.001Z</time></trkpt><trkpt lat="30.421902978156023" lon="-5.609377108537374"><ele>891.0</ele><time>2026-03-23T12:59:01.001Z</time></trkpt><trkpt lat="30.421905250828303" lon="-5.609623227289387"><ele>890.0</ele><time>2026-03-23T12:59:02.001Z</time></trkpt><trkpt lat="30.421908025794437" lon="-5.609868786744599"><ele>889.6666666666667</ele><time>2026-03-23T12:59:03.001Z</time></trkpt><trkpt lat="30.421905975681646" lon="-5.610115589756256"><ele>889.3333333333333</ele><time>2026-03-23T12:59:04.001Z</time></trkpt><trkpt lat="30.421903565194214" lon="-5.610363366330655"><ele>889.0</ele><time>2026-03-23T12:59:05.001Z</time></trkpt><trkpt lat="30.421907277619887" lon="-5.610606850287204"><ele>887.3333333333333</ele><time>2026-03-23T12:59:06.001Z</time></trkpt><trkpt lat="30.421910240570284" lon="-5.610854942839815"><ele>885.6666666666667</ele><time>2026-03-23T12:59:07.001Z</time></trkpt><trkpt lat="30.42191292801191" lon="-5.611102851281758"><ele>884.0</ele><time>2026-03-23T12:59:08.001Z</time></trkpt><trkpt lat="30.42191663882259" lon="-5.611353058106056"><ele>883.6666666666667</ele><time>2026-03-23T12:59:09.001Z</time></trkpt><trkpt lat="30.421923332001747" lon="-5.611603804977531"><ele>883.3333333333333</ele><time>2026-03-23T12:59:10.001Z</time></trkpt><trkpt lat="30.421929701404476" lon="-5.611854118853748"><ele>883.0</ele><time>2026-03-23T12:59:11.001Z</time></trkpt><trkpt lat="30.42193233222766" lon="-5.612102602308526"><ele>881.3333333333333</ele><time>2026-03-23T12:59:12.001Z</time></trkpt><trkpt lat="30.421934044699704" lon="-5.612352150821362"><ele>879.6666666666667</ele><time>2026-03-23T12:59:13.001Z</time></trkpt><trkpt lat="30.421936899433536" lon="-5.612603946702507"><ele>878.0</ele><time>2026-03-23T12:59:14.001Z</time></trkpt><trkpt lat="30.42193597070053" lon="-5.612855709133061"><ele>877.0</ele><time>2026-03-23T12:59:15.001Z</time></trkpt><trkpt lat="30.42193678521623" lon="-5.61310755314274"><ele>876.0</ele><time>2026-03-23T12:59:16.001Z</time></trkpt><trkpt lat="30.42193859980406" lon="-5.613362888101894"><ele>875.0</ele><time>2026-03-23T12:59:17.001Z</time></trkpt><trkpt lat="30.42194305218863" lon="-5.613616857318192"><ele>874.0</ele><time>2026-03-23T12:59:18.001Z</time></trkpt><trkpt lat="30.421951622166745" lon="-5.613870761825168"><ele>873.0</ele><time>2026-03-23T12:59:19.001Z</time></trkpt><trkpt lat="30.421958181257263" lon="-5.614123741548604"><ele>872.0</ele><time>2026-03-23T12:59:20.001Z</time></trkpt><trkpt lat="30.421961477573507" lon="-5.614378390533819"><ele>871.6666666666667</ele><time>2026-03-23T12:59:21.001Z</time></trkpt><trkpt lat="30.421960004336253" lon="-5.614629740304445"><ele>871.3333333333333</ele><time>2026-03-23T12:59:22.001Z</time></trkpt><trkpt lat="30.421960915015994" lon="-5.614882284659632"><ele>871.0</ele><time>2026-03-23T12:59:23.001Z</time></trkpt><trkpt lat="30.421964496873724" lon="-5.6151379929538745"><ele>870.3333333333333</ele><time>2026-03-23T12:59:24.001Z</time></trkpt><trkpt lat="30.421968290021404" lon="-5.615395971945113"><ele>869.6666666666667</ele><time>2026-03-23T12:59:25.001Z</time></trkpt><trkpt lat="30.421969707269312" lon="-5.61565877850349"><ele>869.0</ele><time>2026-03-23T12:59:26.001Z</time></trkpt><trkpt lat="30.421971895907063" lon="-5.615922383328269"><ele>867.5</ele><time>2026-03-23T12:59:27.001Z</time></trkpt><trkpt lat="30.421974586366353" lon="-5.616186868356434"><ele>866.0</ele><time>2026-03-23T12:59:28.001Z</time></trkpt><trkpt lat="30.42197837066466" lon="-5.616455695818028"><ele>866.0</ele><time>2026-03-23T12:59:29.001Z</time></trkpt><trkpt lat="30.42196793563358" lon="-5.616725441292303"><ele>866.0</ele><time>2026-03-23T12:59:30.001Z</time></trkpt><trkpt lat="30.421915435526444" lon="-5.617039963685475"><ele>866.0</ele><time>2026-03-23T12:59:31.001Z</time></trkpt><trkpt lat="30.42197051276966" lon="-5.6172641162356065"><ele>866.0</ele><time>2026-03-23T12:59:32.001Z</time></trkpt><trkpt lat="30.42197675341651" lon="-5.617529850466204"><ele>866.0</ele><time>2026-03-23T12:59:33.001Z</time></trkpt><trkpt lat="30.421982632405804" lon="-5.617793400615596"><ele>864.0</ele><time>2026-03-23T12:59:34.001Z</time></trkpt><trkpt lat="30.42198950242259" lon="-5.618057556194733"><ele>862.0</ele><time>2026-03-23T12:59:35.001Z</time></trkpt><trkpt lat="30.421990765350195" lon="-5.618319259073645"><ele>862.0</ele><time>2026-03-23T12:59:36.001Z</time></trkpt><trkpt lat="30.421989235026196" lon="-5.618579489302142"><ele>862.0</ele><time>2026-03-23T12:59:37.001Z</time></trkpt><trkpt lat="30.421989593575297" lon="-5.6188394676692965"><ele>862.0</ele><time>2026-03-23T12:59:38.001Z</time></trkpt><trkpt lat="30.421993922069774" lon="-5.619098629074268"><ele>861.6666666666666</ele><time>2026-03-23T12:59:39.001Z</time></trkpt><trkpt lat="30.421995857631625" lon="-5.619355251798071"><ele>861.3333333333333</ele><time>2026-03-23T12:59:40.001Z</time></trkpt><trkpt lat="30.421994854796317" lon="-5.619613836387014"><ele>861.0</ele><time>2026-03-23T12:59:41.001Z</time></trkpt><trkpt lat="30.421994754173266" lon="-5.619873643342959"><ele>859.6666666666667</ele><time>2026-03-23T12:59:42.001Z</time></trkpt><trkpt lat="30.421997599658635" lon="-5.620133252705318"><ele>858.3333333333334</ele><time>2026-03-23T12:59:43.001Z</time></trkpt><trkpt lat="30.42200096687133" lon="-5.620393771857921"><ele>857.0</ele><time>2026-03-23T12:59:44.001Z</time></trkpt><trkpt lat="30.42200280631591" lon="-5.620656540278432"><ele>856.0</ele><time>2026-03-23T12:59:45.001Z</time></trkpt><trkpt lat="30.422006736740393" lon="-5.620923859343371"><ele>855.0</ele><time>2026-03-23T12:59:46.001Z</time></trkpt><trkpt lat="30.422013559702727" lon="-5.62119022507418"><ele>854.5</ele><time>2026-03-23T12:59:47.001Z</time></trkpt><trkpt lat="30.422018729328183" lon="-5.621460051781277"><ele>854.0</ele><time>2026-03-23T12:59:48.001Z</time></trkpt><trkpt lat="30.42202602068842" lon="-5.621729290347527"><ele>853.0</ele><time>2026-03-23T12:59:49.001Z</time></trkpt><trkpt lat="30.422030598225387" lon="-5.621999689380992"><ele>852.0</ele><time>2026-03-23T12:59:50.001Z</time></trkpt><trkpt lat="30.42203601551336" lon="-5.6222693558568"><ele>852.0</ele><time>2026-03-23T12:59:51.001Z</time></trkpt><trkpt lat="30.42203870384167" lon="-5.622536832604092"><ele>852.0</ele><time>2026-03-23T12:59:52.001Z</time></trkpt><trkpt lat="30.422045704138306" lon="-5.622805496907601"><ele>851.5</ele><time>2026-03-23T12:59:53.001Z</time></trkpt><trkpt lat="30.422047093006555" lon="-5.623074673699302"><ele>851.0</ele><time>2026-03-23T12:59:54.001Z</time></trkpt><trkpt lat="30.422038599279325" lon="-5.623337223555824"><ele>851.0</ele><time>2026-03-23T12:59:55.001Z</time></trkpt><trkpt lat="30.42201349380453" lon="-5.623596521873407"><ele>851.0</ele><time>2026-03-23T12:59:56.001Z</time></trkpt><trkpt lat="30.421997713681943" lon="-5.623856525985664"><ele>850.0</ele><time>2026-03-23T12:59:57.001Z</time></trkpt><trkpt lat="30.421979523198523" lon="-5.6241125402700165"><ele>849.0</ele><time>2026-03-23T12:59:58.001Z</time></trkpt><trkpt lat="30.42196212218841" lon="-5.62435747912714"><ele>848.0</ele><time>2026-03-23T12:59:59.001Z</time></trkpt><trkpt lat="30.421951732674746" lon="-5.624602715333078"><ele>847.3333333333334</ele><time>2026-03-23T13:00:00.001Z</time></trkpt><trkpt lat="30.421905204806166" lon="-5.62484180759556"><ele>846.6666666666667</ele><time>2026-03-23T13:00:01.001Z</time></trkpt><trkpt lat="30.421867896165548" lon="-5.625083030632929"><ele>846.0</ele><time>2026-03-23T13:00:02.001Z</time></trkpt><trkpt lat="30.421830967956954" lon="-5.625331704484175"><ele>846.0</ele><time>2026-03-23T13:00:03.001Z</time></trkpt><trkpt lat="30.421788269041297" lon="-5.625579345416773"><ele>846.0</ele><time>2026-03-23T13:00:04.001Z</time></trkpt><trkpt lat="30.421742180325193" lon="-5.6258315902324245"><ele>846.0</ele><time>2026-03-23T13:00:05.001Z</time></trkpt><trkpt lat="30.421696752508705" lon="-5.626075577360144"><ele>845.0</ele><time>2026-03-23T13:00:06.001Z</time></trkpt><trkpt lat="30.421651947586287" lon="-5.626320706011453"><ele>844.0</ele><time>2026-03-23T13:00:07.001Z</time></trkpt><trkpt lat="30.42158892397409" lon="-5.626564085887736"><ele>843.0</ele><time>2026-03-23T13:00:08.001Z</time></trkpt><trkpt lat="30.421525995920028" lon="-5.626807669905581"><ele>842.6666666666667</ele><time>2026-03-23T13:00:09.001Z</time></trkpt><trkpt lat="30.421463664550295" lon="-5.627047972788193"><ele>842.3333333333334</ele><time>2026-03-23T13:00:10.001Z</time></trkpt><trkpt lat="30.421395856699597" lon="-5.627281463959828"><ele>842.0</ele><time>2026-03-23T13:00:11.001Z</time></trkpt><trkpt lat="30.421318151385183" lon="-5.6275110853628645"><ele>843.0</ele><time>2026-03-23T13:00:12.001Z</time></trkpt><trkpt lat="30.421239855441684" lon="-5.627743354865417"><ele>844.0</ele><time>2026-03-23T13:00:13.001Z</time></trkpt><trkpt lat="30.42115691922682" lon="-5.627965666909338"><ele>845.0</ele><time>2026-03-23T13:00:14.001Z</time></trkpt><trkpt lat="30.421068359821284" lon="-5.628191663638179"><ele>845.0</ele><time>2026-03-23T13:00:15.001Z</time></trkpt><trkpt lat="30.42098107532268" lon="-5.628419484710976"><ele>845.0</ele><time>2026-03-23T13:00:16.001Z</time></trkpt><trkpt lat="30.4209302480827" lon="-5.628661594993359"><ele>845.0</ele><time>2026-03-23T13:00:17.001Z</time></trkpt><trkpt lat="30.42084720616715" lon="-5.628888008503212"><ele>843.0</ele><time>2026-03-23T13:00:18.001Z</time></trkpt><trkpt lat="30.420756325405332" lon="-5.6291151802448995"><ele>841.0</ele><time>2026-03-23T13:00:19.001Z</time></trkpt><trkpt lat="30.420653024008985" lon="-5.62933587898287"><ele>839.0</ele><time>2026-03-23T13:00:20.001Z</time></trkpt><trkpt lat="30.420542562877007" lon="-5.629551956952225"><ele>838.0</ele><time>2026-03-23T13:00:21.001Z</time></trkpt><trkpt lat="30.420417094118744" lon="-5.629752759525534"><ele>837.0</ele><time>2026-03-23T13:00:22.001Z</time></trkpt><trkpt lat="30.42031983979017" lon="-5.629973077814525"><ele>836.0</ele><time>2026-03-23T13:00:23.001Z</time></trkpt><trkpt lat="30.420206756799637" lon="-5.630183332429346"><ele>836.0</ele><time>2026-03-23T13:00:24.001Z</time></trkpt><trkpt lat="30.420093576857713" lon="-5.630389219087463"><ele>836.0</ele><time>2026-03-23T13:00:25.001Z</time></trkpt><trkpt lat="30.419977673211537" lon="-5.630593868194696"><ele>836.0</ele><time>2026-03-23T13:00:26.001Z</time></trkpt><trkpt lat="30.41984230043311" lon="-5.6307794186108495"><ele>836.0</ele><time>2026-03-23T13:00:27.001Z</time></trkpt><trkpt lat="30.41971722265144" lon="-5.630977707117789"><ele>836.0</ele><time>2026-03-23T13:00:28.001Z</time></trkpt><trkpt lat="30.41959716061391" lon="-5.63116757366595"><ele>836.0</ele><time>2026-03-23T13:00:29.001Z</time></trkpt><trkpt lat="30.419474926050597" lon="-5.631360491818039"><ele>835.0</ele><time>2026-03-23T13:00:30.001Z</time></trkpt><trkpt lat="30.419353418371976" lon="-5.631552262763755"><ele>834.0</ele><time>2026-03-23T13:00:31.001Z</time></trkpt><trkpt lat="30.419230384456633" lon="-5.631746040018672"><ele>833.0</ele><time>2026-03-23T13:00:32.001Z</time></trkpt><trkpt lat="30.419106090653166" lon="-5.631940833167598"><ele>832.6666666666667</ele><time>2026-03-23T13:00:33.001Z</time></trkpt><trkpt lat="30.418979069626722" lon="-5.632140212115561"><ele>832.3333333333333</ele><time>2026-03-23T13:00:34.001Z</time></trkpt><trkpt lat="30.41885347455954" lon="-5.632341897573444"><ele>832.0</ele><time>2026-03-23T13:00:35.001Z</time></trkpt><trkpt lat="30.418730517736396" lon="-5.632539451536617"><ele>831.6666666666666</ele><time>2026-03-23T13:00:36.001Z</time></trkpt><trkpt lat="30.418621094746673" lon="-5.632744404813429"><ele>831.3333333333333</ele><time>2026-03-23T13:00:37.001Z</time></trkpt><trkpt lat="30.4184970952861" lon="-5.63293579425773"><ele>831.0</ele><time>2026-03-23T13:00:38.001Z</time></trkpt><trkpt lat="30.41837484661073" lon="-5.63312794166715"><ele>830.3333333333333</ele><time>2026-03-23T13:00:39.001Z</time></trkpt><trkpt lat="30.418251723207305" lon="-5.633314958548227"><ele>829.6666666666666</ele><time>2026-03-23T13:00:40.001Z</time></trkpt><trkpt lat="30.418130471092788" lon="-5.633500500764935"><ele>829.0</ele><time>2026-03-23T13:00:41.001Z</time></trkpt><trkpt lat="30.418013222757185" lon="-5.63368801067441"><ele>829.3333333333333</ele><time>2026-03-23T13:00:42.001Z</time></trkpt><trkpt lat="30.417877012876403" lon="-5.633867357761319"><ele>829.6666666666667</ele><time>2026-03-23T13:00:43.001Z</time></trkpt><trkpt lat="30.417751955020076" lon="-5.634056196173395"><ele>830.0</ele><time>2026-03-23T13:00:44.001Z</time></trkpt><trkpt lat="30.41762650302923" lon="-5.634251078962172"><ele>830.0</ele><time>2026-03-23T13:00:45.001Z</time></trkpt><trkpt lat="30.41750519818444" lon="-5.634452275460595"><ele>830.0</ele><time>2026-03-23T13:00:46.001Z</time></trkpt><trkpt lat="30.417391382687015" lon="-5.634662102019982"><ele>830.0</ele><time>2026-03-23T13:00:47.001Z</time></trkpt><trkpt lat="30.417269717070205" lon="-5.634859227246742"><ele>827.3333333333334</ele><time>2026-03-23T13:00:48.001Z</time></trkpt><trkpt lat="30.41714747503492" lon="-5.635056049218518"><ele>824.6666666666667</ele><time>2026-03-23T13:00:49.001Z</time></trkpt><trkpt lat="30.41703024891796" lon="-5.635251089225388"><ele>822.0</ele><time>2026-03-23T13:00:50.001Z</time></trkpt><trkpt lat="30.416912260722007" lon="-5.635443728924284"><ele>822.0</ele><time>2026-03-23T13:00:51.001Z</time></trkpt><trkpt lat="30.41679052936143" lon="-5.635644352870079"><ele>822.0</ele><time>2026-03-23T13:00:52.001Z</time></trkpt><trkpt lat="30.4166698691256" lon="-5.6358480791394605"><ele>822.0</ele><time>2026-03-23T13:00:53.001Z</time></trkpt><trkpt lat="30.416547535730782" lon="-5.636049590971084"><ele>821.6666666666667</ele><time>2026-03-23T13:00:54.001Z</time></trkpt><trkpt lat="30.416421896950055" lon="-5.636259708039365"><ele>821.3333333333334</ele><time>2026-03-23T13:00:55.001Z</time></trkpt><trkpt lat="30.416297368212604" lon="-5.636469586615372"><ele>821.0</ele><time>2026-03-23T13:00:56.001Z</time></trkpt><trkpt lat="30.416171570225043" lon="-5.636680896940813"><ele>820.0</ele><time>2026-03-23T13:00:57.001Z</time></trkpt><trkpt lat="30.41604371439538" lon="-5.636893848077767"><ele>819.0</ele><time>2026-03-23T13:00:58.001Z</time></trkpt><trkpt lat="30.41592176910092" lon="-5.637115751054817"><ele>819.0</ele><time>2026-03-23T13:00:59.001Z</time></trkpt><trkpt lat="30.415798879041244" lon="-5.637338470917647"><ele>819.0</ele><time>2026-03-23T13:01:00.001Z</time></trkpt><trkpt lat="30.421936899433536" lon="-5.612603946702507"><ele>837.6666666666667</ele><time>2026-03-23T12:59:14.001Z</time></trkpt><trkpt lat="30.42193597070053" lon="-5.612855709133061"><ele>856.3333333333334</ele><time>2026-03-23T12:59:15.001Z</time></trkpt><trkpt lat="30.42193678521623" lon="-5.61310755314274"><ele>875.0</ele><time>2026-03-23T12:59:16.001Z</time></trkpt><trkpt lat="30.42193859980406" lon="-5.613362888101894"><ele>875.0</ele><time>2026-03-23T12:59:17.001Z</time></trkpt><trkpt lat="30.42194305218863" lon="-5.613616857318192"><ele>875.0</ele><time>2026-03-23T12:59:18.001Z</time></trkpt><trkpt lat="30.421951622166745" lon="-5.613870761825168"><ele>875.0</ele><time>2026-03-23T12:59:19.001Z</time></trkpt><trkpt lat="30.421958181257263" lon="-5.614123741548604"><ele>874.0</ele><time>2026-03-23T12:59:20.001Z</time></trkpt><trkpt lat="30.421961477573507" lon="-5.614378390533819"><ele>873.0</ele><time>2026-03-23T12:59:21.001Z</time></trkpt><trkpt lat="30.421960004336253" lon="-5.614629740304445"><ele>872.0</ele><time>2026-03-23T12:59:22.001Z</time></trkpt><trkpt lat="30.421960915015994" lon="-5.614882284659632"><ele>871.6666666666667</ele><time>2026-03-23T12:59:23.001Z</time></trkpt><trkpt lat="30.421964496873724" lon="-5.6151379929538745"><ele>871.3333333333333</ele><time>2026-03-23T12:59:24.001Z</time></trkpt><trkpt lat="30.421968290021404" lon="-5.615395971945113"><ele>871.0</ele><time>2026-03-23T12:59:25.001Z</time></trkpt><trkpt lat="30.421969707269312" lon="-5.61565877850349"><ele>870.0</ele><time>2026-03-23T12:59:26.001Z</time></trkpt><trkpt lat="30.421971895907063" lon="-5.615922383328269"><ele>869.0</ele><time>2026-03-23T12:59:27.001Z</time></trkpt><trkpt lat="30.421974586366353" lon="-5.616186868356434"><ele>867.5</ele><time>2026-03-23T12:59:28.001Z</time></trkpt><trkpt lat="30.42197837066466" lon="-5.616455695818028"><ele>866.0</ele><time>2026-03-23T12:59:29.001Z</time></trkpt><trkpt lat="30.42196793563358" lon="-5.616725441292303"><ele>866.0</ele><time>2026-03-23T12:59:30.001Z</time></trkpt><trkpt lat="30.421915435526444" lon="-5.617039963685475"><ele>866.0</ele><time>2026-03-23T12:59:31.001Z</time></trkpt><trkpt lat="30.42197051276966" lon="-5.6172641162356065"><ele>866.0</ele><time>2026-03-23T12:59:32.001Z</time></trkpt><trkpt lat="30.42197675341651" lon="-5.617529850466204"><ele>866.0</ele><time>2026-03-23T12:59:33.001Z</time></trkpt><trkpt lat="30.421982632405804" lon="-5.617793400615596"><ele>864.0</ele><time>2026-03-23T12:59:34.001Z</time></trkpt><trkpt lat="30.42198950242259" lon="-5.618057556194733"><ele>862.0</ele><time>2026-03-23T12:59:35.001Z</time></trkpt><trkpt lat="30.421990765350195" lon="-5.618319259073645"><ele>862.0</ele><time>2026-03-23T12:59:36.001Z</time></trkpt><trkpt lat="30.421989235026196" lon="-5.618579489302142"><ele>862.0</ele><time>2026-03-23T12:59:37.001Z</time></trkpt><trkpt lat="30.421989593575297" lon="-5.6188394676692965"><ele>862.0</ele><time>2026-03-23T12:59:38.001Z</time></trkpt><trkpt lat="30.421993922069774" lon="-5.619098629074268"><ele>861.6666666666666</ele><time>2026-03-23T12:59:39.001Z</time></trkpt><trkpt lat="30.421995857631625" lon="-5.619355251798071"><ele>861.3333333333333</ele><time>2026-03-23T12:59:40.001Z</time></trkpt><trkpt lat="30.421994854796317" lon="-5.619613836387014"><ele>861.0</ele><time>2026-03-23T12:59:41.001Z</time></trkpt><trkpt lat="30.421994754173266" lon="-5.619873643342959"><ele>859.6666666666667</ele><time>2026-03-23T12:59:42.001Z</time></trkpt><trkpt lat="30.421997599658635" lon="-5.620133252705318"><ele>858.3333333333334</ele><time>2026-03-23T12:59:43.001Z</time></trkpt><trkpt lat="30.42200096687133" lon="-5.620393771857921"><ele>857.0</ele><time>2026-03-23T12:59:44.001Z</time></trkpt><trkpt lat="30.42200280631591" lon="-5.620656540278432"><ele>856.0</ele><time>2026-03-23T12:59:45.001Z</time></trkpt><trkpt lat="30.422006736740393" lon="-5.620923859343371"><ele>855.0</ele><time>2026-03-23T12:59:46.001Z</time></trkpt><trkpt lat="30.422013559702727" lon="-5.62119022507418"><ele>854.5</ele><time>2026-03-23T12:59:47.001Z</time></trkpt><trkpt lat="30.422018729328183" lon="-5.621460051781277"><ele>854.0</ele><time>2026-03-23T12:59:48.001Z</time></trkpt><trkpt lat="30.42202602068842" lon="-5.621729290347527"><ele>853.0</ele><time>2026-03-23T12:59:49.001Z</time></trkpt><trkpt lat="30.422030598225387" lon="-5.621999689380992"><ele>852.0</ele><time>2026-03-23T12:59:50.001Z</time></trkpt><trkpt lat="30.42203601551336" lon="-5.6222693558568"><ele>852.0</ele><time>2026-03-23T12:59:51.001Z</time></trkpt><trkpt lat="30.42203870384167" lon="-5.622536832604092"><ele>852.0</ele><time>2026-03-23T12:59:52.001Z</time></trkpt><trkpt lat="30.422045704138306" lon="-5.622805496907601"><ele>851.5</ele><time>2026-03-23T12:59:53.001Z</time></trkpt><trkpt lat="30.422047093006555" lon="-5.623074673699302"><ele>851.0</ele><time>2026-03-23T12:59:54.001Z</time></trkpt><trkpt lat="30.422038599279325" lon="-5.623337223555824"><ele>851.0</ele><time>2026-03-23T12:59:55.001Z</time></trkpt><trkpt lat="30.42201349380453" lon="-5.623596521873407"><ele>851.0</ele><time>2026-03-23T12:59:56.001Z</time></trkpt><trkpt lat="30.421997713681943" lon="-5.623856525985664"><ele>850.0</ele><time>2026-03-23T12:59:57.001Z</time></trkpt><trkpt lat="30.421979523198523" lon="-5.6241125402700165"><ele>849.0</ele><time>2026-03-23T12:59:58.001Z</time></trkpt><trkpt lat="30.42196212218841" lon="-5.62435747912714"><ele>848.0</ele><time>2026-03-23T12:59:59.001Z</time></trkpt><trkpt lat="30.421951732674746" lon="-5.624602715333078"><ele>847.3333333333334</ele><time>2026-03-23T13:00:00.001Z</time></trkpt><trkpt lat="30.421905204806166" lon="-5.62484180759556"><ele>846.6666666666667</ele><time>2026-03-23T13:00:01.001Z</time></trkpt><trkpt lat="30.421867896165548" lon="-5.625083030632929"><ele>846.0</ele><time>2026-03-23T13:00:02.001Z</time></trkpt><trkpt lat="30.421830967956954" lon="-5.625331704484175"><ele>846.0</ele><time>2026-03-23T13:00:03.001Z</time></trkpt><trkpt lat="30.421788269041297" lon="-5.625579345416773"><ele>846.0</ele><time>2026-03-23T13:00:04.001Z</time></trkpt><trkpt lat="30.421742180325193" lon="-5.6258315902324245"><ele>846.0</ele><time>2026-03-23T13:00:05.001Z</time></trkpt><trkpt lat="30.421696752508705" lon="-5.626075577360144"><ele>845.0</ele><time>2026-03-23T13:00:06.001Z</time></trkpt><trkpt lat="30.421651947586287" lon="-5.626320706011453"><ele>844.0</ele><time>2026-03-23T13:00:07.001Z</time></trkpt><trkpt lat="30.42158892397409" lon="-5.626564085887736"><ele>843.0</ele><time>2026-03-23T13:00:08.001Z</time></trkpt><trkpt lat="30.421525995920028" lon="-5.626807669905581"><ele>842.6666666666667</ele><time>2026-03-23T13:00:09.001Z</time></trkpt><trkpt lat="30.421463664550295" lon="-5.627047972788193"><ele>842.3333333333334</ele><time>2026-03-23T13:00:10.001Z</time></trkpt><trkpt lat="30.421395856699597" lon="-5.627281463959828"><ele>842.0</ele><time>2026-03-23T13:00:11.001Z</time></trkpt><trkpt lat="30.421318151385183" lon="-5.6275110853628645"><ele>843.0</ele><time>2026-03-23T13:00:12.001Z</time></trkpt><trkpt lat="30.421239855441684" lon="-5.627743354865417"><ele>844.0</ele><time>2026-03-23T13:00:13.001Z</time></trkpt><trkpt lat="30.42115691922682" lon="-5.627965666909338"><ele>845.0</ele><time>2026-03-23T13:00:14.001Z</time></trkpt><trkpt lat="30.421068359821284" lon="-5.628191663638179"><ele>845.0</ele><time>2026-03-23T13:00:15.001Z</time></trkpt><trkpt lat="30.42098107532268" lon="-5.628419484710976"><ele>845.0</ele><time>2026-03-23T13:00:16.001Z</time></trkpt><trkpt lat="30.4209302480827" lon="-5.628661594993359"><ele>845.0</ele><time>2026-03-23T13:00:17.001Z</time></trkpt><trkpt lat="30.42084720616715" lon="-5.628888008503212"><ele>843.0</ele><time>2026-03-23T13:00:18.001Z</time></trkpt><trkpt lat="30.420756325405332" lon="-5.6291151802448995"><ele>841.0</ele><time>2026-03-23T13:00:19.001Z</time></trkpt><trkpt lat="30.420653024008985" lon="-5.62933587898287"><ele>839.0</ele><time>2026-03-23T13:00:20.001Z</time></trkpt><trkpt lat="30.420542562877007" lon="-5.629551956952225"><ele>838.0</ele><time>2026-03-23T13:00:21.001Z</time></trkpt><trkpt lat="30.420417094118744" lon="-5.629752759525534"><ele>837.0</ele><time>2026-03-23T13:00:22.001Z</time></trkpt><trkpt lat="30.42031983979017" lon="-5.629973077814525"><ele>836.0</ele><time>2026-03-23T13:00:23.001Z</time></trkpt><trkpt lat="30.420206756799637" lon="-5.630183332429346"><ele>836.0</ele><time>2026-03-23T13:00:24.001Z</time></trkpt><trkpt lat="30.420093576857713" lon="-5.630389219087463"><ele>836.0</ele><time>2026-03-23T13:00:25.001Z</time></trkpt><trkpt lat="30.419977673211537" lon="-5.630593868194696"><ele>836.0</ele><time>2026-03-23T13:00:26.001Z</time></trkpt><trkpt lat="30.41984230043311" lon="-5.6307794186108495"><ele>836.0</ele><time>2026-03-23T13:00:27.001Z</time></trkpt><trkpt lat="30.41971722265144" lon="-5.630977707117789"><ele>836.0</ele><time>2026-03-23T13:00:28.001Z</time></trkpt><trkpt lat="30.41959716061391" lon="-5.63116757366595"><ele>836.0</ele><time>2026-03-23T13:00:29.001Z</time></trkpt><trkpt lat="30.419474926050597" lon="-5.631360491818039"><ele>835.0</ele><time>2026-03-23T13:00:30.001Z</time></trkpt><trkpt lat="30.419353418371976" lon="-5.631552262763755"><ele>834.0</ele><time>2026-03-23T13:00:31.001Z</time></trkpt><trkpt lat="30.419230384456633" lon="-5.631746040018672"><ele>833.0</ele><time>2026-03-23T13:00:32.001Z</time></trkpt><trkpt lat="30.419106090653166" lon="-5.631940833167598"><ele>832.6666666666667</ele><time>2026-03-23T13:00:33.001Z</time></trkpt><trkpt lat="30.418979069626722" lon="-5.632140212115561"><ele>832.3333333333333</ele><time>2026-03-23T13:00:34.001Z</time></trkpt><trkpt lat="30.41885347455954" lon="-5.632341897573444"><ele>832.0</ele><time>2026-03-23T13:00:35.001Z</time></trkpt><trkpt lat="30.418730517736396" lon="-5.632539451536617"><ele>831.6666666666666</ele><time>2026-03-23T13:00:36.001Z</time></trkpt><trkpt lat="30.418621094746673" lon="-5.632744404813429"><ele>831.3333333333333</ele><time>2026-03-23T13:00:37.001Z</time></trkpt><trkpt lat="30.4184970952861" lon="-5.63293579425773"><ele>831.0</ele><time>2026-03-23T13:00:38.001Z</time></trkpt><trkpt lat="30.41837484661073" lon="-5.63312794166715"><ele>830.3333333333333</ele><time>2026-03-23T13:00:39.001Z</time></trkpt><trkpt lat="30.418251723207305" lon="-5.633314958548227"><ele>829.6666666666666</ele><time>2026-03-23T13:00:40.001Z</time></trkpt><trkpt lat="30.418130471092788" lon="-5.633500500764935"><ele>829.0</ele><time>2026-03-23T13:00:41.001Z</time></trkpt><trkpt lat="30.418013222757185" lon="-5.63368801067441"><ele>829.3333333333333</ele><time>2026-03-23T13:00:42.001Z</time></trkpt><trkpt lat="30.417877012876403" lon="-5.633867357761319"><ele>829.6666666666667</ele><time>2026-03-23T13:00:43.001Z</time></trkpt><trkpt lat="30.417751955020076" lon="-5.634056196173395"><ele>830.0</ele><time>2026-03-23T13:00:44.001Z</time></trkpt><trkpt lat="30.41762650302923" lon="-5.634251078962172"><ele>830.0</ele><time>2026-03-23T13:00:45.001Z</time></trkpt><trkpt lat="30.41750519818444" lon="-5.634452275460595"><ele>830.0</ele><time>2026-03-23T13:00:46.001Z</time></trkpt><trkpt lat="30.417391382687015" lon="-5.634662102019982"><ele>830.0</ele><time>2026-03-23T13:00:47.001Z</time></trkpt><trkpt lat="30.417269717070205" lon="-5.634859227246742"><ele>827.3333333333334</ele><time>2026-03-23T13:00:48.001Z</time></trkpt><trkpt lat="30.41714747503492" lon="-5.635056049218518"><ele>824.6666666666667</ele><time>2026-03-23T13:00:49.001Z</time></trkpt><trkpt lat="30.41703024891796" lon="-5.635251089225388"><ele>822.0</ele><time>2026-03-23T13:00:50.001Z</time></trkpt><trkpt lat="30.416912260722007" lon="-5.635443728924284"><ele>822.0</ele><time>2026-03-23T13:00:51.001Z</time></trkpt><trkpt lat="30.41679052936143" lon="-5.635644352870079"><ele>822.0</ele><time>2026-03-23T13:00:52.001Z</time></trkpt><trkpt lat="30.4166698691256" lon="-5.6358480791394605"><ele>822.0</ele><time>2026-03-23T13:00:53.001Z</time></trkpt><trkpt lat="30.416547535730782" lon="-5.636049590971084"><ele>821.6666666666667</ele><time>2026-03-23T13:00:54.001Z</time></trkpt><trkpt lat="30.416421896950055" lon="-5.636259708039365"><ele>821.3333333333334</ele><time>2026-03-23T13:00:55.001Z</time></trkpt><trkpt lat="30.416297368212604" lon="-5.636469586615372"><ele>821.0</ele><time>2026-03-23T13:00:56.001Z</time></trkpt><trkpt lat="30.416171570225043" lon="-5.636680896940813"><ele>820.0</ele><time>2026-03-23T13:00:57.001Z</time></trkpt><trkpt lat="30.41604371439538" lon="-5.636893848077767"><ele>819.0</ele><time>2026-03-23T13:00:58.001Z</time></trkpt><trkpt lat="30.41592176910092" lon="-5.637115751054817"><ele>819.0</ele><time>2026-03-23T13:00:59.001Z</time></trkpt><trkpt lat="30.415798879041244" lon="-5.637338470917647"><ele>819.0</ele><time>2026-03-23T13:01:00.001Z</time></trkpt><trkpt lat="30.41567676858453" lon="-5.637555529209031"><ele>819.0</ele><time>2026-03-23T13:01:01.001Z</time></trkpt><trkpt lat="30.41555235298241" lon="-5.63777466643552"><ele>819.0</ele><time>2026-03-23T13:01:02.001Z</time></trkpt><trkpt lat="30.41543251881201" lon="-5.637997410316375"><ele>818.5</ele><time>2026-03-23T13:01:03.001Z</time></trkpt><trkpt lat="30.415313810058457" lon="-5.638221580959283"><ele>818.0</ele><time>2026-03-23T13:01:04.001Z</time></trkpt><trkpt lat="30.41519481406502" lon="-5.638444055675223"><ele>817.3333333333334</ele><time>2026-03-23T13:01:05.001Z</time></trkpt><trkpt lat="30.415074737301456" lon="-5.638661380006674"><ele>816.6666666666667</ele><time>2026-03-23T13:01:06.001Z</time></trkpt><trkpt lat="30.414955994758422" lon="-5.6388795634496"><ele>816.0</ele><time>2026-03-23T13:01:07.001Z</time></trkpt><trkpt lat="30.41483967702994" lon="-5.639100151596561"><ele>816.0</ele><time>2026-03-23T13:01:08.001Z</time></trkpt><trkpt lat="30.41472604733278" lon="-5.639323813206318"><ele>816.0</ele><time>2026-03-23T13:01:09.001Z</time></trkpt><trkpt lat="30.4146121783501" lon="-5.639548615382061"><ele>816.0</ele><time>2026-03-23T13:01:10.001Z</time></trkpt><trkpt lat="30.41449935135992" lon="-5.639774965153407"><ele>816.0</ele><time>2026-03-23T13:01:11.001Z</time></trkpt><trkpt lat="30.414389495313124" lon="-5.640002298782095"><ele>816.0</ele><time>2026-03-23T13:01:12.001Z</time></trkpt><trkpt lat="30.414279026874887" lon="-5.640230108736817"><ele>815.6666666666667</ele><time>2026-03-23T13:01:13.001Z</time></trkpt><trkpt lat="30.414167446455394" lon="-5.64045670119598"><ele>815.3333333333334</ele><time>2026-03-23T13:01:14.001Z</time></trkpt><trkpt lat="30.4140531645569" lon="-5.640679933343862"><ele>815.0</ele><time>2026-03-23T13:01:15.001Z</time></trkpt><trkpt lat="30.413939416690276" lon="-5.640903839393599"><ele>815.0</ele><time>2026-03-23T13:01:16.001Z</time></trkpt><trkpt lat="30.41382462273819" lon="-5.6411225972225765"><ele>815.0</ele><time>2026-03-23T13:01:17.001Z</time></trkpt><trkpt lat="30.413713450719513" lon="-5.641346138568734"><ele>815.0</ele><time>2026-03-23T13:01:18.001Z</time></trkpt><trkpt lat="30.41360346775243" lon="-5.641570776802087"><ele>814.0</ele><time>2026-03-23T13:01:19.001Z</time></trkpt><trkpt lat="30.413497140455434" lon="-5.641796793634101"><ele>813.0</ele><time>2026-03-23T13:01:20.001Z</time></trkpt><trkpt lat="30.413386859399463" lon="-5.642024446153113"><ele>812.0</ele><time>2026-03-23T13:01:21.001Z</time></trkpt><trkpt lat="30.413272845980348" lon="-5.642248603934581"><ele>811.6666666666667</ele><time>2026-03-23T13:01:22.001Z</time></trkpt><trkpt lat="30.413159924272392" lon="-5.642471854950003"><ele>811.3333333333333</ele><time>2026-03-23T13:01:23.001Z</time></trkpt><trkpt lat="30.413050746034045" lon="-5.6426997411035975"><ele>811.0</ele><time>2026-03-23T13:01:24.001Z</time></trkpt><trkpt lat="30.41294119022054" lon="-5.642923987564583"><ele>810.0</ele><time>2026-03-23T13:01:25.001Z</time></trkpt><trkpt lat="30.412825925857817" lon="-5.643150164724626"><ele>809.0</ele><time>2026-03-23T13:01:26.001Z</time></trkpt><trkpt lat="30.412709457600755" lon="-5.6433745946871365"><ele>809.0</ele><time>2026-03-23T13:01:27.001Z</time></trkpt><trkpt lat="30.412592708397316" lon="-5.643598190862771"><ele>809.0</ele><time>2026-03-23T13:01:28.001Z</time></trkpt><trkpt lat="30.412479509668593" lon="-5.643825020128658"><ele>809.0</ele><time>2026-03-23T13:01:29.001Z</time></trkpt><trkpt lat="30.41236692739067" lon="-5.644049330453643"><ele>809.0</ele><time>2026-03-23T13:01:30.001Z</time></trkpt><trkpt lat="30.412262052589178" lon="-5.644275785118714"><ele>809.0</ele><time>2026-03-23T13:01:31.001Z</time></trkpt><trkpt lat="30.4121580953814" lon="-5.644489202190568"><ele>808.6666666666667</ele><time>2026-03-23T13:01:32.001Z</time></trkpt><trkpt lat="30.412053928915928" lon="-5.644699945661659"><ele>808.3333333333333</ele><time>2026-03-23T13:01:33.001Z</time></trkpt><trkpt lat="30.411953469727294" lon="-5.644906869967626"><ele>808.0</ele><time>2026-03-23T13:01:34.001Z</time></trkpt><trkpt lat="30.41184704576566" lon="-5.645110795845085"><ele>807.6666666666666</ele><time>2026-03-23T13:01:35.001Z</time></trkpt><trkpt lat="30.411741105368545" lon="-5.645314429275575"><ele>807.3333333333333</ele><time>2026-03-23T13:01:36.001Z</time></trkpt><trkpt lat="30.41163854579079" lon="-5.645520674207835"><ele>807.0</ele><time>2026-03-23T13:01:37.001Z</time></trkpt><trkpt lat="30.411535451745294" lon="-5.645731741246552"><ele>807.0</ele><time>2026-03-23T13:01:38.001Z</time></trkpt><trkpt lat="30.411428651738422" lon="-5.645946585233501"><ele>807.0</ele><time>2026-03-23T13:01:39.001Z</time></trkpt><trkpt lat="30.4113233304503" lon="-5.646169104287445"><ele>807.0</ele><time>2026-03-23T13:01:40.001Z</time></trkpt><trkpt lat="30.411217141238726" lon="-5.646396441530302"><ele>805.5</ele><time>2026-03-23T13:01:41Z</time></trkpt><trkpt lat="30.411100502138407" lon="-5.646623322199398"><ele>804.0</ele><time>2026-03-23T13:01:42Z</time></trkpt><trkpt lat="30.41098217260512" lon="-5.6468543533554865"><ele>804.5</ele><time>2026-03-23T13:01:43Z</time></trkpt><trkpt lat="30.41086443636558" lon="-5.647084689069995"><ele>805.0</ele><time>2026-03-23T13:01:44Z</time></trkpt><trkpt lat="30.410749449732826" lon="-5.64731899287075"><ele>805.0</ele><time>2026-03-23T13:01:45Z</time></trkpt><trkpt lat="30.410630483806038" lon="-5.6475487190741855"><ele>805.0</ele><time>2026-03-23T13:01:46Z</time></trkpt><trkpt lat="30.4105110549833" lon="-5.647777514551808"><ele>804.5</ele><time>2026-03-23T13:01:47.001Z</time></trkpt><trkpt lat="30.410389660532733" lon="-5.648006613638413"><ele>804.0</ele><time>2026-03-23T13:01:48.001Z</time></trkpt><trkpt lat="30.410268876300815" lon="-5.648236825102676"><ele>804.0</ele><time>2026-03-23T13:01:49.001Z</time></trkpt><trkpt lat="30.410139708573812" lon="-5.648461103629446"><ele>804.0</ele><time>2026-03-23T13:01:50.001Z</time></trkpt><trkpt lat="30.410010827415245" lon="-5.648687124103717"><ele>802.5</ele><time>2026-03-23T13:01:51.001Z</time></trkpt><trkpt lat="30.409896485051128" lon="-5.648921433437736"><ele>801.0</ele><time>2026-03-23T13:01:52.001Z</time></trkpt><trkpt lat="30.409831873198588" lon="-5.649167133193847"><ele>801.0</ele><time>2026-03-23T13:01:53.001Z</time></trkpt><trkpt lat="30.40972371750613" lon="-5.649389248718809"><ele>801.0</ele><time>2026-03-23T13:01:54.001Z</time></trkpt><trkpt lat="30.40951690474638" lon="-5.649569445680672"><ele>799.5</ele><time>2026-03-23T13:01:55.001Z</time></trkpt><trkpt lat="30.409377150236924" lon="-5.649776394476515"><ele>798.0</ele><time>2026-03-23T13:01:56.001Z</time></trkpt><trkpt lat="30.40924898481343" lon="-5.649989191102779"><ele>798.0</ele><time>2026-03-23T13:01:57.001Z</time></trkpt><trkpt lat="30.40911851822205" lon="-5.650199065845636"><ele>798.0</ele><time>2026-03-23T13:01:58.001Z</time></trkpt><trkpt lat="30.408987429023774" lon="-5.6504045832926835"><ele>798.0</ele><time>2026-03-23T13:01:59.001Z</time></trkpt><trkpt lat="30.40885524906633" lon="-5.650610343347684"><ele>798.0</ele><time>2026-03-23T13:02:00.001Z</time></trkpt><trkpt lat="30.40872410315504" lon="-5.650819413876565"><ele>798.0</ele><time>2026-03-23T13:02:01.001Z</time></trkpt><trkpt lat="30.40857650264021" lon="-5.651018273670751"><ele>798.0</ele><time>2026-03-23T13:02:02.001Z</time></trkpt><trkpt lat="30.408438293579593" lon="-5.65122607882583"><ele>798.0</ele><time>2026-03-23T13:02:03.001Z</time></trkpt><trkpt lat="30.408299174779327" lon="-5.651429965676292"><ele>798.0</ele><time>2026-03-23T13:02:04.001Z</time></trkpt><trkpt lat="30.408161881366205" lon="-5.651631636359454"><ele>798.0</ele><time>2026-03-23T13:02:05.001Z</time></trkpt><trkpt lat="30.408023849975564" lon="-5.651833676184272"><ele>797.6666666666667</ele><time>2026-03-23T13:02:06.001Z</time></trkpt><trkpt lat="30.40788592735059" lon="-5.652035637718671"><ele>797.3333333333334</ele><time>2026-03-23T13:02:07.001Z</time></trkpt><trkpt lat="30.40774780787767" lon="-5.65223476211308"><ele>797.0</ele><time>2026-03-23T13:02:08.001Z</time></trkpt><trkpt lat="30.40761551891479" lon="-5.652425383628273"><ele>797.0</ele><time>2026-03-23T13:02:09.001Z</time></trkpt><trkpt lat="30.407496238323027" lon="-5.652623876026617"><ele>797.0</ele><time>2026-03-23T13:02:10.001Z</time></trkpt><trkpt lat="30.407365883439162" lon="-5.652804955900046"><ele>797.0</ele><time>2026-03-23T13:02:11.001Z</time></trkpt><trkpt lat="30.407237024088058" lon="-5.652986461716532"><ele>796.3333333333334</ele><time>2026-03-23T13:02:12.001Z</time></trkpt><trkpt lat="30.40710623958285" lon="-5.653168895890621"><ele>795.6666666666667</ele><time>2026-03-23T13:02:13.001Z</time></trkpt><trkpt lat="30.40697484560628" lon="-5.653348384527477"><ele>795.0</ele><time>2026-03-23T13:02:14.001Z</time></trkpt><trkpt lat="30.40684315191957" lon="-5.653532725430949"><ele>794.6666666666667</ele><time>2026-03-23T13:02:15.001Z</time></trkpt><trkpt lat="30.406716456993028" lon="-5.653722840181525"><ele>794.3333333333334</ele><time>2026-03-23T13:02:16.001Z</time></trkpt><trkpt lat="30.406587790084796" lon="-5.653912499351741"><ele>794.0</ele><time>2026-03-23T13:02:17.001Z</time></trkpt><trkpt lat="30.406454422603534" lon="-5.654098005635485"><ele>793.6666666666667</ele><time>2026-03-23T13:02:18.001Z</time></trkpt><trkpt lat="30.40631673256906" lon="-5.654283738027041"><ele>793.3333333333333</ele><time>2026-03-23T13:02:19.001Z</time></trkpt><trkpt lat="30.406182871090383" lon="-5.654465997646757"><ele>793.0</ele><time>2026-03-23T13:02:20.001Z</time></trkpt><trkpt lat="30.406051187353373" lon="-5.6546531533480335"><ele>792.6666666666666</ele><time>2026-03-23T13:02:21.001Z</time></trkpt><trkpt lat="30.40591479093042" lon="-5.654842091210672"><ele>792.3333333333333</ele><time>2026-03-23T13:02:22.001Z</time></trkpt><trkpt lat="30.40577978678998" lon="-5.655032921400959"><ele>792.0</ele><time>2026-03-23T13:02:23.001Z</time></trkpt><trkpt lat="30.405644712595567" lon="-5.6552219703417"><ele>791.6666666666667</ele><time>2026-03-23T13:02:24.001Z</time></trkpt><trkpt lat="30.40551207959576" lon="-5.655414117339207"><ele>791.3333333333334</ele><time>2026-03-23T13:02:25.001Z</time></trkpt><trkpt lat="30.40537945430589" lon="-5.655613670925962"><ele>791.0</ele><time>2026-03-23T13:02:26.001Z</time></trkpt><trkpt lat="30.405244051756004" lon="-5.6558146781547585"><ele>790.0</ele><time>2026-03-23T13:02:27.001Z</time></trkpt><trkpt lat="30.405102247686706" lon="-5.656012511616421"><ele>789.0</ele><time>2026-03-23T13:02:28.001Z</time></trkpt><trkpt lat="30.40495956823373" lon="-5.656205770725253"><ele>788.0</ele><time>2026-03-23T13:02:29.001Z</time></trkpt><trkpt lat="30.40481725228066" lon="-5.656403305718105"><ele>788.0</ele><time>2026-03-23T13:02:30.001Z</time></trkpt><trkpt lat="30.404674208901916" lon="-5.656601298411536"><ele>788.0</ele><time>2026-03-23T13:02:31.001Z</time></trkpt><trkpt lat="30.40453311401544" lon="-5.6568039944347746"><ele>788.0</ele><time>2026-03-23T13:02:32.001Z</time></trkpt><trkpt lat="30.40438929106616" lon="-5.65701119301514"><ele>789.0</ele><time>2026-03-23T13:02:33.001Z</time></trkpt><trkpt lat="30.404243058014035" lon="-5.6572122635262945"><ele>790.0</ele><time>2026-03-23T13:02:34.001Z</time></trkpt><trkpt lat="30.404096700129426" lon="-5.657412406406443"><ele>790.0</ele><time>2026-03-23T13:02:35.001Z</time></trkpt><trkpt lat="30.40395103718152" lon="-5.657616117561263"><ele>790.0</ele><time>2026-03-23T13:02:36.001Z</time></trkpt><trkpt lat="30.403806493859843" lon="-5.657818422763248"><ele>788.5</ele><time>2026-03-23T13:02:37.001Z</time></trkpt><trkpt lat="30.403663029673034" lon="-5.658023390478389"><ele>787.0</ele><time>2026-03-23T13:02:38.001Z</time></trkpt><trkpt lat="30.403520003176705" lon="-5.658228310186604"><ele>787.0</ele><time>2026-03-23T13:02:39.001Z</time></trkpt><trkpt lat="30.403375228996303" lon="-5.658430654361109"><ele>787.0</ele><time>2026-03-23T13:02:40.001Z</time></trkpt><trkpt lat="30.403233479544813" lon="-5.658630853806617"><ele>787.3333333333333</ele><time>2026-03-23T13:02:41.001Z</time></trkpt><trkpt lat="30.403094396516185" lon="-5.65883106902399"><ele>787.6666666666667</ele><time>2026-03-23T13:02:42.001Z</time></trkpt><trkpt lat="30.402957019545365" lon="-5.659025550019814"><ele>788.0</ele><time>2026-03-23T13:02:43.001Z</time></trkpt><trkpt lat="30.402824871544194" lon="-5.659218930855494"><ele>788.0</ele><time>2026-03-23T13:02:44.001Z</time></trkpt><trkpt lat="30.40269423730608" lon="-5.659407130230903"><ele>788.0</ele><time>2026-03-23T13:02:45.001Z</time></trkpt><trkpt lat="30.402559465975454" lon="-5.659595756523867"><ele>788.0</ele><time>2026-03-23T13:02:46.001Z</time></trkpt><trkpt lat="30.402426624797524" lon="-5.659784479513272"><ele>787.3333333333334</ele><time>2026-03-23T13:02:47.001Z</time></trkpt><trkpt lat="30.40227747741743" lon="-5.659965858088008"><ele>786.6666666666667</ele><time>2026-03-23T13:02:48.001Z</time></trkpt><trkpt lat="30.402137035909114" lon="-5.660162430039825"><ele>786.0</ele><time>2026-03-23T13:02:49.001Z</time></trkpt><trkpt lat="30.40199567546214" lon="-5.66036255392951"><ele>785.0</ele><time>2026-03-23T13:02:50.001Z</time></trkpt><trkpt lat="30.401860265456218" lon="-5.660580400809888"><ele>784.0</ele><time>2026-03-23T13:02:51.001Z</time></trkpt><trkpt lat="30.401710487815564" lon="-5.660792682498599"><ele>784.0</ele><time>2026-03-23T13:02:52.001Z</time></trkpt><trkpt lat="30.401559370652375" lon="-5.661010952743182"><ele>784.0</ele><time>2026-03-23T13:02:53.001Z</time></trkpt><trkpt lat="30.401408184636008" lon="-5.661220169096111"><ele>783.5</ele><time>2026-03-23T13:02:54.001Z</time></trkpt><trkpt lat="30.40125648795006" lon="-5.661420654199724"><ele>783.0</ele><time>2026-03-23T13:02:55.001Z</time></trkpt><trkpt lat="30.40110986433594" lon="-5.661627934479083"><ele>783.0</ele><time>2026-03-23T13:02:56.001Z</time></trkpt><trkpt lat="30.400963261170936" lon="-5.661834515618074"><ele>783.0</ele><time>2026-03-23T13:02:57.001Z</time></trkpt><trkpt lat="30.400820873153787" lon="-5.662036969656273"><ele>783.0</ele><time>2026-03-23T13:02:58.001Z</time></trkpt><trkpt lat="30.400678714009445" lon="-5.662232859263589"><ele>783.0</ele><time>2026-03-23T13:02:59.001Z</time></trkpt><trkpt lat="30.400537995788564" lon="-5.66242947087163"><ele>783.0</ele><time>2026-03-23T13:03:00.001Z</time></trkpt><trkpt lat="30.400400449633185" lon="-5.662628816744969"><ele>782.3333333333333</ele><time>2026-03-23T13:03:01.001Z</time></trkpt><trkpt lat="30.400266310899426" lon="-5.662828648493927"><ele>781.6666666666666</ele><time>2026-03-23T13:03:02.001Z</time></trkpt><trkpt lat="30.40013088415203" lon="-5.663023926243717"><ele>781.0</ele><time>2026-03-23T13:03:03.001Z</time></trkpt><trkpt lat="30.39999613440677" lon="-5.663216120847829"><ele>781.0</ele><time>2026-03-23T13:03:04.001Z</time></trkpt><trkpt lat="30.399859750234263" lon="-5.6634056304895"><ele>781.0</ele><time>2026-03-23T13:03:05.001Z</time></trkpt><trkpt lat="30.399724582659196" lon="-5.663590572831784"><ele>781.0</ele><time>2026-03-23T13:03:06.001Z</time></trkpt><trkpt lat="30.39958978564394" lon="-5.6637729640959344"><ele>780.0</ele><time>2026-03-23T13:03:07.001Z</time></trkpt><trkpt lat="30.399455538296838" lon="-5.663961038776515"><ele>779.0</ele><time>2026-03-23T13:03:08.001Z</time></trkpt><trkpt lat="30.399324650946205" lon="-5.6641511833046865"><ele>778.0</ele><time>2026-03-23T13:03:09.001Z</time></trkpt><trkpt lat="30.39919443965981" lon="-5.664342163587969"><ele>778.3333333333333</ele><time>2026-03-23T13:03:10.001Z</time></trkpt><trkpt lat="30.399059521415534" lon="-5.6645314521696735"><ele>778.6666666666667</ele><time>2026-03-23T13:03:11.001Z</time></trkpt><trkpt lat="30.398921280667157" lon="-5.664717819993482"><ele>779.0</ele><time>2026-03-23T13:03:12.001Z</time></trkpt><trkpt lat="30.398787337807455" lon="-5.6649100171483395"><ele>778.3333333333334</ele><time>2026-03-23T13:03:13Z</time></trkpt><trkpt lat="30.39865214963617" lon="-5.6651045112787"><ele>777.6666666666667</ele><time>2026-03-23T13:03:14Z</time></trkpt><trkpt lat="30.398513860653985" lon="-5.665300829644349"><ele>777.0</ele><time>2026-03-23T13:03:15Z</time></trkpt><trkpt lat="30.39837597127731" lon="-5.665494561289811"><ele>776.6666666666667</ele><time>2026-03-23T13:03:16Z</time></trkpt><trkpt lat="30.39823528451049" lon="-5.665687556066815"><ele>776.3333333333334</ele><time>2026-03-23T13:03:17Z</time></trkpt><trkpt lat="30.398095055416544" lon="-5.6658825897706855"><ele>776.0</ele><time>2026-03-23T13:03:18Z</time></trkpt><trkpt lat="30.39795828226259" lon="-5.666080158035088"><ele>776.3333333333334</ele><time>2026-03-23T13:03:19Z</time></trkpt><trkpt lat="30.397819621111715" lon="-5.666274839445785"><ele>776.6666666666667</ele><time>2026-03-23T13:03:20Z</time></trkpt><trkpt lat="30.397684106207315" lon="-5.666472610757899"><ele>777.0</ele><time>2026-03-23T13:03:21Z</time></trkpt><trkpt lat="30.397548079430713" lon="-5.666669344867257"><ele>777.0</ele><time>2026-03-23T13:03:22Z</time></trkpt><trkpt lat="30.397409907458083" lon="-5.666864308951381"><ele>777.0</ele><time>2026-03-23T13:03:23Z</time></trkpt><trkpt lat="30.397270864423987" lon="-5.667054131449355"><ele>777.0</ele><time>2026-03-23T13:03:24Z</time></trkpt><trkpt lat="30.397126800241395" lon="-5.66724697955854"><ele>776.6666666666667</ele><time>2026-03-23T13:03:25Z</time></trkpt><trkpt lat="30.39699119853925" lon="-5.667437080332444"><ele>776.3333333333334</ele><time>2026-03-23T13:03:26Z</time></trkpt><trkpt lat="30.396857912749475" lon="-5.667633901789187"><ele>776.0</ele><time>2026-03-23T13:03:27Z</time></trkpt><trkpt lat="30.396727602720013" lon="-5.667830429834583"><ele>776.0</ele><time>2026-03-23T13:03:28Z</time></trkpt><trkpt lat="30.396590510612846" lon="-5.668027764190465"><ele>776.0</ele><time>2026-03-23T13:03:29Z</time></trkpt><trkpt lat="30.39644754403507" lon="-5.6682217351106035"><ele>776.0</ele><time>2026-03-23T13:03:30Z</time></trkpt><trkpt lat="30.396309085965733" lon="-5.668413354521724"><ele>776.0</ele><time>2026-03-23T13:03:31Z</time></trkpt><trkpt lat="30.396170836993242" lon="-5.668604525522132"><ele>776.0</ele><time>2026-03-23T13:03:32Z</time></trkpt><trkpt lat="30.3960331477368" lon="-5.6687937783094595"><ele>776.0</ele><time>2026-03-23T13:03:33Z</time></trkpt><trkpt lat="30.3959069973569" lon="-5.668978596717733"><ele>776.0</ele><time>2026-03-23T13:03:34Z</time></trkpt><trkpt lat="30.395782382584468" lon="-5.669159177414125"><ele>776.0</ele><time>2026-03-23T13:03:35Z</time></trkpt><trkpt lat="30.395659313455244" lon="-5.669337166577773"><ele>776.0</ele><time>2026-03-23T13:03:36Z</time></trkpt><trkpt lat="30.39553489582283" lon="-5.669515093623433"><ele>774.0</ele><time>2026-03-23T13:03:37Z</time></trkpt><trkpt lat="30.395409089050524" lon="-5.669694731942772"><ele>772.0</ele><time>2026-03-23T13:03:38Z</time></trkpt><trkpt lat="30.39528449874214" lon="-5.669872170051928"><ele>770.0</ele><time>2026-03-23T13:03:39Z</time></trkpt><trkpt lat="30.395159564968406" lon="-5.670049981810723"><ele>770.0</ele><time>2026-03-23T13:03:40Z</time></trkpt><trkpt lat="30.39503237708588" lon="-5.670222845572735"><ele>770.0</ele><time>2026-03-23T13:03:41Z</time></trkpt><trkpt lat="30.394903598511263" lon="-5.670400891641667"><ele>770.0</ele><time>2026-03-23T13:03:42Z</time></trkpt><trkpt lat="30.394776682750237" lon="-5.670583278448396"><ele>770.6666666666667</ele><time>2026-03-23T13:03:43Z</time></trkpt><trkpt lat="30.394652061912407" lon="-5.670770062648837"><ele>771.3333333333333</ele><time>2026-03-23T13:03:44Z</time></trkpt><trkpt lat="30.394523029183492" lon="-5.67096651127814"><ele>772.0</ele><time>2026-03-23T13:03:45Z</time></trkpt><trkpt lat="30.394392911454258" lon="-5.671164637868702"><ele>772.0</ele><time>2026-03-23T13:03:46Z</time></trkpt><trkpt lat="30.394267634511646" lon="-5.671364888505603"><ele>772.0</ele><time>2026-03-23T13:03:47Z</time></trkpt><trkpt lat="30.394143155299037" lon="-5.6715637514462625"><ele>772.0</ele><time>2026-03-23T13:03:48Z</time></trkpt><trkpt lat="30.394016883164543" lon="-5.671764234540935"><ele>771.6666666666666</ele><time>2026-03-23T13:03:49Z</time></trkpt><trkpt lat="30.393892837974217" lon="-5.671963008244436"><ele>771.3333333333333</ele><time>2026-03-23T13:03:50Z</time></trkpt><trkpt lat="30.393770751278918" lon="-5.6721704846472205"><ele>771.0</ele><time>2026-03-23T13:03:51Z</time></trkpt><trkpt lat="30.393648968914036" lon="-5.6723799015890375"><ele>770.6666666666667</ele><time>2026-03-23T13:03:52Z</time></trkpt><trkpt lat="30.39352568117161" lon="-5.672594260259262"><ele>770.3333333333334</ele><time>2026-03-23T13:03:53Z</time></trkpt><trkpt lat="30.393407111022093" lon="-5.672806974509826"><ele>770.0</ele><time>2026-03-23T13:03:54Z</time></trkpt><trkpt lat="30.39328722041643" lon="-5.673023435174594"><ele>770.0</ele><time>2026-03-23T13:03:55Z</time></trkpt><trkpt lat="30.393168150263627" lon="-5.673238896315372"><ele>770.0</ele><time>2026-03-23T13:03:56Z</time></trkpt><trkpt lat="30.39305452288765" lon="-5.6734541227910205"><ele>770.0</ele><time>2026-03-23T13:03:57Z</time></trkpt><trkpt lat="30.39294119955391" lon="-5.673673323156045"><ele>768.6666666666667</ele><time>2026-03-23T13:03:58Z</time></trkpt><trkpt lat="30.392829491896936" lon="-5.673897306282592"><ele>767.3333333333334</ele><time>2026-03-23T13:03:59Z</time></trkpt><trkpt lat="30.392718035283714" lon="-5.674116884700035"><ele>766.0</ele><time>2026-03-23T13:04:00Z</time></trkpt><trkpt lat="30.39260860078035" lon="-5.6743338088939295"><ele>766.6666666666667</ele><time>2026-03-23T13:04:01Z</time></trkpt><trkpt lat="30.392501736529045" lon="-5.6745543473345075"><ele>767.3333333333334</ele><time>2026-03-23T13:04:02Z</time></trkpt><trkpt lat="30.39239483084658" lon="-5.674780147916255"><ele>768.0</ele><time>2026-03-23T13:04:03Z</time></trkpt><trkpt lat="30.39228858534981" lon="-5.6750032217418465"><ele>768.0</ele><time>2026-03-23T13:04:04Z</time></trkpt><trkpt lat="30.392181766010758" lon="-5.675229488825513"><ele>768.0</ele><time>2026-03-23T13:04:05Z</time></trkpt><trkpt lat="30.39207636074932" lon="-5.6754605156465345"><ele>768.0</ele><time>2026-03-23T13:04:06Z</time></trkpt><trkpt lat="30.39197254230681" lon="-5.675695375131115"><ele>767.5</ele><time>2026-03-23T13:04:07Z</time></trkpt><trkpt lat="30.391869477812055" lon="-5.675933625167652"><ele>767.0</ele><time>2026-03-23T13:04:08Z</time></trkpt><trkpt lat="30.39176425263539" lon="-5.676176342557601"><ele>768.0</ele><time>2026-03-23T13:04:09Z</time></trkpt><trkpt lat="30.39165431306217" lon="-5.676417924654741"><ele>769.0</ele><time>2026-03-23T13:04:10Z</time></trkpt><trkpt lat="30.39153042518775" lon="-5.676650112958177"><ele>769.0</ele><time>2026-03-23T13:04:11Z</time></trkpt><trkpt lat="30.39146718969465" lon="-5.676921949269702"><ele>769.0</ele><time>2026-03-23T13:04:12Z</time></trkpt><trkpt lat="30.391357812912705" lon="-5.677166561261208"><ele>769.6666666666666</ele><time>2026-03-23T13:04:13Z</time></trkpt><trkpt lat="30.3912625875685" lon="-5.677403801502613"><ele>770.3333333333333</ele><time>2026-03-23T13:04:14Z</time></trkpt><trkpt lat="30.39119027493395" lon="-5.67764586492828"><ele>771.0</ele><time>2026-03-23T13:04:15Z</time></trkpt><trkpt lat="30.39110257540708" lon="-5.677882259987231"><ele>771.0</ele><time>2026-03-23T13:04:16Z</time></trkpt><trkpt lat="30.39101461202387" lon="-5.678118441351927"><ele>771.0</ele><time>2026-03-23T13:04:17Z</time></trkpt><trkpt lat="30.390926449456373" lon="-5.678352985996487"><ele>771.0</ele><time>2026-03-23T13:04:18Z</time></trkpt><trkpt lat="30.390838141886185" lon="-5.678591267194591"><ele>771.3333333333333</ele><time>2026-03-23T13:04:19Z</time></trkpt><trkpt lat="30.390750340166825" lon="-5.67882773003418"><ele>771.6666666666666</ele><time>2026-03-23T13:04:20Z</time></trkpt><trkpt lat="30.390662899177148" lon="-5.679064318961285"><ele>772.0</ele><time>2026-03-23T13:04:21Z</time></trkpt><trkpt lat="30.39057527950361" lon="-5.679299973050522"><ele>771.5</ele><time>2026-03-23T13:04:22Z</time></trkpt><trkpt lat="30.39048443946393" lon="-5.679536728643343"><ele>771.0</ele><time>2026-03-23T13:04:23Z</time></trkpt><trkpt lat="30.39039510833752" lon="-5.679777572678768"><ele>771.0</ele><time>2026-03-23T13:04:24Z</time></trkpt><trkpt lat="30.390304842417258" lon="-5.680012179091141"><ele>771.0</ele><time>2026-03-23T13:04:25Z</time></trkpt><trkpt lat="30.390225995297293" lon="-5.68023883480121"><ele>771.0</ele><time>2026-03-23T13:04:26Z</time></trkpt><trkpt lat="30.39012863445886" lon="-5.6804624740290715"><ele>771.6666666666667</ele><time>2026-03-23T13:04:27Z</time></trkpt><trkpt lat="30.39006221759705" lon="-5.680700864604673"><ele>772.3333333333334</ele><time>2026-03-23T13:04:28Z</time></trkpt><trkpt lat="30.389976978910504" lon="-5.680926529838526"><ele>773.0</ele><time>2026-03-23T13:04:29Z</time></trkpt><trkpt lat="30.38988970594837" lon="-5.6811564291927805"><ele>774.5</ele><time>2026-03-23T13:04:30Z</time></trkpt><trkpt lat="30.389799754989916" lon="-5.681398165941748"><ele>776.0</ele><time>2026-03-23T13:04:31Z</time></trkpt><trkpt lat="30.389710430617026" lon="-5.681638870019469"><ele>776.0</ele><time>2026-03-23T13:04:32Z</time></trkpt><trkpt lat="30.389619512505213" lon="-5.68187644523643"><ele>776.0</ele><time>2026-03-23T13:04:33Z</time></trkpt><trkpt lat="30.389531318355555" lon="-5.68211596803754"><ele>776.0</ele><time>2026-03-23T13:04:34Z</time></trkpt><trkpt lat="30.389440801288526" lon="-5.682362107813852"><ele>776.0</ele><time>2026-03-23T13:04:35Z</time></trkpt><trkpt lat="30.389351141790186" lon="-5.682605454146335"><ele>776.0</ele><time>2026-03-23T13:04:36Z</time></trkpt><trkpt lat="30.38925920169977" lon="-5.682847401983772"><ele>775.0</ele><time>2026-03-23T13:04:37Z</time></trkpt><trkpt lat="30.389165919548628" lon="-5.683090703863321"><ele>774.0</ele><time>2026-03-23T13:04:38Z</time></trkpt><trkpt lat="30.389077112726955" lon="-5.683333751006752"><ele>774.0</ele><time>2026-03-23T13:04:39Z</time></trkpt><trkpt lat="30.38898976969845" lon="-5.683576409307651"><ele>774.0</ele><time>2026-03-23T13:04:40Z</time></trkpt><trkpt lat="30.388903867889283" lon="-5.683823378958281"><ele>776.0</ele><time>2026-03-23T13:04:41Z</time></trkpt><trkpt lat="30.388818084526086" lon="-5.684066399043861"><ele>778.0</ele><time>2026-03-23T13:04:42Z</time></trkpt><trkpt lat="30.388729105816584" lon="-5.684307726030618"><ele>777.6666666666666</ele><time>2026-03-23T13:04:43Z</time></trkpt><trkpt lat="30.388640078020753" lon="-5.684547742665546"><ele>777.3333333333333</ele><time>2026-03-23T13:04:44Z</time></trkpt><trkpt lat="30.388556801523478" lon="-5.684785771739442"><ele>777.0</ele><time>2026-03-23T13:04:45Z</time></trkpt><trkpt lat="30.388473250620162" lon="-5.685022284763921"><ele>777.0</ele><time>2026-03-23T13:04:46Z</time></trkpt><trkpt lat="30.388393521841355" lon="-5.685261210990132"><ele>777.0</ele><time>2026-03-23T13:04:47Z</time></trkpt><trkpt lat="30.38831535413137" lon="-5.685500091026467"><ele>777.0</ele><time>2026-03-23T13:04:48Z</time></trkpt><trkpt lat="30.388236979026658" lon="-5.685741232515879"><ele>776.6666666666667</ele><time>2026-03-23T13:04:49Z</time></trkpt><trkpt lat="30.388155910147756" lon="-5.6859835432703045"><ele>776.3333333333334</ele><time>2026-03-23T13:04:50Z</time></trkpt><trkpt lat="30.388073924182233" lon="-5.686221765235231"><ele>776.0</ele><time>2026-03-23T13:04:51Z</time></trkpt><trkpt lat="30.387992856317425" lon="-5.6864587973171625"><ele>777.0</ele><time>2026-03-23T13:04:52Z</time></trkpt><trkpt lat="30.38792046004408" lon="-5.686703449256287"><ele>778.0</ele><time>2026-03-23T13:04:53Z</time></trkpt><trkpt lat="30.387849295310918" lon="-5.686950500898005"><ele>779.0</ele><time>2026-03-23T13:04:54Z</time></trkpt><trkpt lat="30.387779252290557" lon="-5.687195681098117"><ele>779.0</ele><time>2026-03-23T13:04:55Z</time></trkpt><trkpt lat="30.387713176234733" lon="-5.687433709362437"><ele>779.0</ele><time>2026-03-23T13:04:56Z</time></trkpt><trkpt lat="30.387645157483014" lon="-5.68766903187615"><ele>779.0</ele><time>2026-03-23T13:04:57Z</time></trkpt><trkpt lat="30.38758043866645" lon="-5.6879020322776"><ele>778.6666666666667</ele><time>2026-03-23T13:04:58Z</time></trkpt><trkpt lat="30.38752336238552" lon="-5.688131170379265"><ele>778.3333333333333</ele><time>2026-03-23T13:04:59Z</time></trkpt><trkpt lat="30.387460724330555" lon="-5.688360231225809"><ele>778.0</ele><time>2026-03-23T13:05:00Z</time></trkpt><trkpt lat="30.387398358798286" lon="-5.6885892240489335"><ele>777.6666666666666</ele><time>2026-03-23T13:05:01Z</time></trkpt><trkpt lat="30.38733932402336" lon="-5.6888220828750296"><ele>777.3333333333333</ele><time>2026-03-23T13:05:02Z</time></trkpt><trkpt lat="30.387281237087223" lon="-5.689059142093709"><ele>777.0</ele><time>2026-03-23T13:05:03Z</time></trkpt><trkpt lat="30.387226614724355" lon="-5.68929869715369"><ele>777.0</ele><time>2026-03-23T13:05:04Z</time></trkpt><trkpt lat="30.38717329077548" lon="-5.689542105179993"><ele>777.0</ele><time>2026-03-23T13:05:05Z</time></trkpt><trkpt lat="30.387115946934856" lon="-5.689788450564807"><ele>777.0</ele><time>2026-03-23T13:05:06Z</time></trkpt><trkpt lat="30.38705777978737" lon="-5.690035413751146"><ele>776.6666666666667</ele><time>2026-03-23T13:05:07Z</time></trkpt><trkpt lat="30.387003285674318" lon="-5.690285688383858"><ele>776.3333333333334</ele><time>2026-03-23T13:05:08Z</time></trkpt><trkpt lat="30.38695140199582" lon="-5.6905400737625484"><ele>776.0</ele><time>2026-03-23T13:05:09Z</time></trkpt><trkpt lat="30.3869001152379" lon="-5.690793073493814"><ele>776.0</ele><time>2026-03-23T13:05:10Z</time></trkpt><trkpt lat="30.386845249647582" lon="-5.691046325126313"><ele>776.0</ele><time>2026-03-23T13:05:11Z</time></trkpt><trkpt lat="30.38679418654012" lon="-5.691300408567184"><ele>776.0</ele><time>2026-03-23T13:05:12Z</time></trkpt><trkpt lat="30.38674399153221" lon="-5.691557377591433"><ele>776.0</ele><time>2026-03-23T13:05:13Z</time></trkpt><trkpt lat="30.386695408114843" lon="-5.691809799525333"><ele>775.6666666666667</ele><time>2026-03-23T13:05:14Z</time></trkpt><trkpt lat="30.386647834132244" lon="-5.692054848665569"><ele>775.3333333333333</ele><time>2026-03-23T13:05:15Z</time></trkpt><trkpt lat="30.38659522422426" lon="-5.692305494820407"><ele>775.0</ele><time>2026-03-23T13:05:16Z</time></trkpt><trkpt lat="30.386546533832256" lon="-5.692552121102442"><ele>775.0</ele><time>2026-03-23T13:05:17Z</time></trkpt><trkpt lat="30.386498479000938" lon="-5.692795427541428"><ele>775.0</ele><time>2026-03-23T13:05:18Z</time></trkpt><trkpt lat="30.386453350604903" lon="-5.693038202342445"><ele>775.0</ele><time>2026-03-23T13:05:19Z</time></trkpt><trkpt lat="30.386408466273235" lon="-5.693274140479574"><ele>775.0</ele><time>2026-03-23T13:05:20Z</time></trkpt><trkpt lat="30.38636522657588" lon="-5.693507096321285"><ele>775.0</ele><time>2026-03-23T13:05:21Z</time></trkpt><trkpt lat="30.386316421272006" lon="-5.69374145380241"><ele>775.0</ele><time>2026-03-23T13:05:22Z</time></trkpt><trkpt lat="30.386270197051463" lon="-5.693971924246088"><ele>775.0</ele><time>2026-03-23T13:05:23Z</time></trkpt><trkpt lat="30.386221496663993" lon="-5.694206542811961"><ele>775.0</ele><time>2026-03-23T13:05:24Z</time></trkpt><trkpt lat="30.386179128298625" lon="-5.694438533665196"><ele>775.0</ele><time>2026-03-23T13:05:25Z</time></trkpt><trkpt lat="30.386133604964655" lon="-5.694670905841798"><ele>774.3333333333333</ele><time>2026-03-23T13:05:26Z</time></trkpt><trkpt lat="30.386090317703935" lon="-5.694901877052656"><ele>773.6666666666667</ele><time>2026-03-23T13:05:27Z</time></trkpt><trkpt lat="30.386046642577977" lon="-5.695131866202513"><ele>773.0</ele><time>2026-03-23T13:05:28Z</time></trkpt><trkpt lat="30.38600093478694" lon="-5.695361164493365"><ele>773.0</ele><time>2026-03-23T13:05:29Z</time></trkpt><trkpt lat="30.385956696601113" lon="-5.695591540569498"><ele>773.0</ele><time>2026-03-23T13:05:30Z</time></trkpt><trkpt lat="30.38591252091401" lon="-5.69582386597014"><ele>773.0</ele><time>2026-03-23T13:05:31Z</time></trkpt><trkpt lat="30.385867556611306" lon="-5.6960556186629425"><ele>773.0</ele><time>2026-03-23T13:05:32Z</time></trkpt><trkpt lat="30.385825820245568" lon="-5.696286304432216"><ele>773.0</ele><time>2026-03-23T13:05:33Z</time></trkpt><trkpt lat="30.385778888266795" lon="-5.696526899150446"><ele>773.0</ele><time>2026-03-23T13:05:34Z</time></trkpt><trkpt lat="30.385730412818038" lon="-5.696765888226287"><ele>774.0</ele><time>2026-03-23T13:05:35Z</time></trkpt><trkpt lat="30.38568223466184" lon="-5.697005219770391"><ele>775.0</ele><time>2026-03-23T13:05:36Z</time></trkpt><trkpt lat="30.38563506237218" lon="-5.697243186113893"><ele>776.0</ele><time>2026-03-23T13:05:37Z</time></trkpt><trkpt lat="30.38559368286494" lon="-5.69747677551687"><ele>776.0</ele><time>2026-03-23T13:05:38Z</time></trkpt><trkpt lat="30.385548798961686" lon="-5.697707018346421"><ele>776.0</ele><time>2026-03-23T13:05:39Z</time></trkpt><trkpt lat="30.385500682683404" lon="-5.697936609407748"><ele>776.0</ele><time>2026-03-23T13:05:40Z</time></trkpt><trkpt lat="30.385454446712945" lon="-5.6981649763999265"><ele>776.0</ele><time>2026-03-23T13:05:41Z</time></trkpt><trkpt lat="30.385411064751935" lon="-5.698392531237539"><ele>776.0</ele><time>2026-03-23T13:05:42Z</time></trkpt><trkpt lat="30.38536963670392" lon="-5.698617189807773"><ele>776.0</ele><time>2026-03-23T13:05:43Z</time></trkpt><trkpt lat="30.385321619179706" lon="-5.698848159334828"><ele>776.0</ele><time>2026-03-23T13:05:44Z</time></trkpt><trkpt lat="30.385273244317823" lon="-5.699077658567271"><ele>776.0</ele><time>2026-03-23T13:05:45Z</time></trkpt><trkpt lat="30.385226739942187" lon="-5.699310219802008"><ele>776.0</ele><time>2026-03-23T13:05:46Z</time></trkpt><trkpt lat="30.38518339821318" lon="-5.6995453821833255"><ele>775.0</ele><time>2026-03-23T13:05:47Z</time></trkpt><trkpt lat="30.3851428106178" lon="-5.6997762317645035"><ele>774.0</ele><time>2026-03-23T13:05:48Z</time></trkpt><trkpt lat="30.385097088949912" lon="-5.700030617782027"><ele>773.0</ele><time>2026-03-23T13:05:49Z</time></trkpt><trkpt lat="30.385044513936087" lon="-5.700256318250677"><ele>773.0</ele><time>2026-03-23T13:05:50Z</time></trkpt><trkpt lat="30.38499537944399" lon="-5.70048988527869"><ele>773.0</ele><time>2026-03-23T13:05:51Z</time></trkpt><trkpt lat="30.38495054011812" lon="-5.700722408565838"><ele>773.0</ele><time>2026-03-23T13:05:52Z</time></trkpt><trkpt lat="30.38490853759782" lon="-5.700956100792296"><ele>774.0</ele><time>2026-03-23T13:05:53Z</time></trkpt><trkpt lat="30.384866683500277" lon="-5.701187045356576"><ele>775.0</ele><time>2026-03-23T13:05:54Z</time></trkpt><trkpt lat="30.384824203875148" lon="-5.701417324485006"><ele>776.0</ele><time>2026-03-23T13:05:55Z</time></trkpt><trkpt lat="30.384764594782528" lon="-5.701645367590152"><ele>776.0</ele><time>2026-03-23T13:05:56Z</time></trkpt><trkpt lat="30.38473422565247" lon="-5.701873262739719"><ele>776.0</ele><time>2026-03-23T13:05:57Z</time></trkpt><trkpt lat="30.384687212502" lon="-5.702098739507322"><ele>776.0</ele><time>2026-03-23T13:05:58Z</time></trkpt><trkpt lat="30.38464245978028" lon="-5.702324840753311"><ele>776.0</ele><time>2026-03-23T13:05:59Z</time></trkpt><trkpt lat="30.38458027728176" lon="-5.702549151379477"><ele>776.0</ele><time>2026-03-23T13:06:00Z</time></trkpt><trkpt lat="30.38453430541887" lon="-5.702777400489642"><ele>776.0</ele><time>2026-03-23T13:06:01Z</time></trkpt><trkpt lat="30.38450326284554" lon="-5.703009146139315"><ele>775.6666666666667</ele><time>2026-03-23T13:06:02Z</time></trkpt><trkpt lat="30.38445854945554" lon="-5.703232578540161"><ele>775.3333333333333</ele><time>2026-03-23T13:06:03Z</time></trkpt><trkpt lat="30.384409753653426" lon="-5.703464112166889"><ele>775.0</ele><time>2026-03-23T13:06:04Z</time></trkpt><trkpt lat="30.384367106416395" lon="-5.703691377784183"><ele>774.6666666666666</ele><time>2026-03-23T13:06:05Z</time></trkpt><trkpt lat="30.384324691476007" lon="-5.703918762869783"><ele>774.3333333333333</ele><time>2026-03-23T13:06:06Z</time></trkpt><trkpt lat="30.384285470454383" lon="-5.704132054031611"><ele>774.0</ele><time>2026-03-23T13:06:07Z</time></trkpt><trkpt lat="30.384240359223316" lon="-5.704359585307375"><ele>774.0</ele><time>2026-03-23T13:06:08Z</time></trkpt><trkpt lat="30.384193575202413" lon="-5.704592996401878"><ele>774.0</ele><time>2026-03-23T13:06:09Z</time></trkpt><trkpt lat="30.38414359448883" lon="-5.704820332701087"><ele>774.0</ele><time>2026-03-23T13:06:10Z</time></trkpt><trkpt lat="30.384099964808353" lon="-5.705038422450766"><ele>773.3333333333333</ele><time>2026-03-23T13:06:11Z</time></trkpt><trkpt lat="30.38406042990696" lon="-5.705260071931873"><ele>772.6666666666666</ele><time>2026-03-23T13:06:12Z</time></trkpt><trkpt lat="30.384017654095917" lon="-5.705486513041226"><ele>772.0</ele><time>2026-03-23T13:06:13Z</time></trkpt><trkpt lat="30.383975221063142" lon="-5.705709354090018"><ele>772.0</ele><time>2026-03-23T13:06:14Z</time></trkpt><trkpt lat="30.38393137850678" lon="-5.7059349256940886"><ele>772.0</ele><time>2026-03-23T13:06:15Z</time></trkpt><trkpt lat="30.383882956804833" lon="-5.706164709157623"><ele>772.0</ele><time>2026-03-23T13:06:16Z</time></trkpt><trkpt lat="30.383833248320386" lon="-5.706396014327839"><ele>772.0</ele><time>2026-03-23T13:06:17Z</time></trkpt><trkpt lat="30.383787551600125" lon="-5.706626624866013"><ele>772.0</ele><time>2026-03-23T13:06:18Z</time></trkpt><trkpt lat="30.38374466617987" lon="-5.7068620104468595"><ele>772.0</ele><time>2026-03-23T13:06:19Z</time></trkpt><trkpt lat="30.383699349289202" lon="-5.707097826029937"><ele>771.6666666666666</ele><time>2026-03-23T13:06:20Z</time></trkpt><trkpt lat="30.383651595317584" lon="-5.707335417474843"><ele>771.3333333333333</ele><time>2026-03-23T13:06:21Z</time></trkpt><trkpt lat="30.38360767465602" lon="-5.707571243468144"><ele>771.0</ele><time>2026-03-23T13:06:22Z</time></trkpt><trkpt lat="30.38355984654382" lon="-5.707809474372574"><ele>770.3333333333333</ele><time>2026-03-23T13:06:23Z</time></trkpt><trkpt lat="30.38351053161952" lon="-5.708049949837715"><ele>769.6666666666666</ele><time>2026-03-23T13:06:24Z</time></trkpt><trkpt lat="30.383461400520993" lon="-5.7082949700771675"><ele>769.0</ele><time>2026-03-23T13:06:25Z</time></trkpt><trkpt lat="30.383412655298617" lon="-5.708541247570601"><ele>768.6666666666666</ele><time>2026-03-23T13:06:26Z</time></trkpt><trkpt lat="30.383362992490802" lon="-5.708790957331614"><ele>768.3333333333333</ele><time>2026-03-23T13:06:27Z</time></trkpt><trkpt lat="30.383314402947487" lon="-5.709039975844859"><ele>768.0</ele><time>2026-03-23T13:06:28Z</time></trkpt><trkpt lat="30.383265724302554" lon="-5.709296273512951"><ele>769.0</ele><time>2026-03-23T13:06:29Z</time></trkpt><trkpt lat="30.383217673609884" lon="-5.70955495604728"><ele>770.0</ele><time>2026-03-23T13:06:30Z</time></trkpt><trkpt lat="30.38316764233365" lon="-5.709815782113189"><ele>770.0</ele><time>2026-03-23T13:06:31Z</time></trkpt><trkpt lat="30.383122756890785" lon="-5.7100792158734"><ele>770.0</ele><time>2026-03-23T13:06:32Z</time></trkpt><trkpt lat="30.38313463336509" lon="-5.7103405872739375"><ele>770.5</ele><time>2026-03-23T13:06:33Z</time></trkpt><trkpt lat="30.383002603675596" lon="-5.710596383733621"><ele>771.0</ele><time>2026-03-23T13:06:34Z</time></trkpt><trkpt lat="30.38295140480971" lon="-5.710854990083718"><ele>770.0</ele><time>2026-03-23T13:06:35Z</time></trkpt><trkpt lat="30.3828998444486" lon="-5.711117476622655"><ele>769.0</ele><time>2026-03-23T13:06:36Z</time></trkpt><trkpt lat="30.382851104378567" lon="-5.711373945294845"><ele>769.0</ele><time>2026-03-23T13:06:37Z</time></trkpt><trkpt lat="30.382803096042817" lon="-5.711631504973386"><ele>769.0</ele><time>2026-03-23T13:06:38Z</time></trkpt><trkpt lat="30.382750978461498" lon="-5.711888638543379"><ele>768.0</ele><time>2026-03-23T13:06:39Z</time></trkpt><trkpt lat="30.38269943938156" lon="-5.712143736479249"><ele>767.0</ele><time>2026-03-23T13:06:40Z</time></trkpt><trkpt lat="30.382649532095897" lon="-5.712401776362145"><ele>767.0</ele><time>2026-03-23T13:06:41Z</time></trkpt><trkpt lat="30.382602368047245" lon="-5.712659757431272"><ele>767.0</ele><time>2026-03-23T13:06:42Z</time></trkpt><trkpt lat="30.38255167784257" lon="-5.712915819262699"><ele>765.5</ele><time>2026-03-23T13:06:43Z</time></trkpt><trkpt lat="30.38249829290927" lon="-5.713175572413615"><ele>764.0</ele><time>2026-03-23T13:06:44Z</time></trkpt><trkpt lat="30.3824481958559" lon="-5.713433663259117"><ele>763.0</ele><time>2026-03-23T13:06:45Z</time></trkpt><trkpt lat="30.382394137394627" lon="-5.7136907396312715"><ele>762.0</ele><time>2026-03-23T13:06:46Z</time></trkpt><trkpt lat="30.382344027518254" lon="-5.7139514725875795"><ele>762.0</ele><time>2026-03-23T13:06:47Z</time></trkpt><trkpt lat="30.382294744857667" lon="-5.714217097543252"><ele>762.0</ele><time>2026-03-23T13:06:48Z</time></trkpt><trkpt lat="30.382236327060113" lon="-5.7144836973444395"><ele>764.5</ele><time>2026-03-23T13:06:49Z</time></trkpt><trkpt lat="30.382184910977568" lon="-5.714753090541619"><ele>767.0</ele><time>2026-03-23T13:06:50Z</time></trkpt><trkpt lat="30.382136162535573" lon="-5.715022718794917"><ele>767.0</ele><time>2026-03-23T13:06:51Z</time></trkpt><trkpt lat="30.382083517193003" lon="-5.715293006663347"><ele>767.0</ele><time>2026-03-23T13:06:52Z</time></trkpt><trkpt lat="30.38203412133383" lon="-5.71556609966698"><ele>767.0</ele><time>2026-03-23T13:06:53Z</time></trkpt><trkpt lat="30.381978529091572" lon="-5.71584048249904"><ele>767.0</ele><time>2026-03-23T13:06:54Z</time></trkpt><trkpt lat="30.38192034277318" lon="-5.716113628102171"><ele>767.0</ele><time>2026-03-23T13:06:55Z</time></trkpt><trkpt lat="30.381867869145395" lon="-5.716386239360143"><ele>767.0</ele><time>2026-03-23T13:06:56Z</time></trkpt><trkpt lat="30.381813684491313" lon="-5.71665929184434"><ele>767.0</ele><time>2026-03-23T13:06:57Z</time></trkpt><trkpt lat="30.381761369658182" lon="-5.716932494641033"><ele>767.0</ele><time>2026-03-23T13:06:58Z</time></trkpt><trkpt lat="30.381709877813737" lon="-5.717204844652535"><ele>767.0</ele><time>2026-03-23T13:06:59Z</time></trkpt><trkpt lat="30.38165245300284" lon="-5.717480610025739"><ele>767.0</ele><time>2026-03-23T13:07:00Z</time></trkpt><trkpt lat="30.381600431172707" lon="-5.717749745387507"><ele>766.5</ele><time>2026-03-23T13:07:01Z</time></trkpt><trkpt lat="30.381549204563072" lon="-5.718019409436651"><ele>766.0</ele><time>2026-03-23T13:07:02Z</time></trkpt><trkpt lat="30.381496253994573" lon="-5.718285883825505"><ele>766.0</ele><time>2026-03-23T13:07:03Z</time></trkpt><trkpt lat="30.381444464201266" lon="-5.718551220837641"><ele>766.0</ele><time>2026-03-23T13:07:04Z</time></trkpt><trkpt lat="30.381388850427072" lon="-5.718815805213334"><ele>768.5</ele><time>2026-03-23T13:07:05Z</time></trkpt><trkpt lat="30.38133687730798" lon="-5.719077606177228"><ele>771.0</ele><time>2026-03-23T13:07:06Z</time></trkpt><trkpt lat="30.38129128426774" lon="-5.719334581304767"><ele>770.5</ele><time>2026-03-23T13:07:07Z</time></trkpt><trkpt lat="30.381242222357628" lon="-5.719591497233311"><ele>770.0</ele><time>2026-03-23T13:07:08Z</time></trkpt><trkpt lat="30.381189448839926" lon="-5.719846555143453"><ele>770.0</ele><time>2026-03-23T13:07:09Z</time></trkpt><trkpt lat="30.381138740068508" lon="-5.720094790431216"><ele>770.0</ele><time>2026-03-23T13:07:10Z</time></trkpt><trkpt lat="30.38109140569066" lon="-5.72032103710637"><ele>770.0</ele><time>2026-03-23T13:07:11Z</time></trkpt><trkpt lat="30.381048592382555" lon="-5.720543050512128"><ele>769.6666666666667</ele><time>2026-03-23T13:07:12Z</time></trkpt><trkpt lat="30.381008952902704" lon="-5.720763555604839"><ele>769.3333333333333</ele><time>2026-03-23T13:07:13Z</time></trkpt><trkpt lat="30.380960506198278" lon="-5.7209941330947345"><ele>769.0</ele><time>2026-03-23T13:07:14Z</time></trkpt><trkpt lat="30.380914349811874" lon="-5.721226276032049"><ele>768.6666666666666</ele><time>2026-03-23T13:07:15Z</time></trkpt><trkpt lat="30.380867011637584" lon="-5.721462060742977"><ele>768.3333333333333</ele><time>2026-03-23T13:07:16Z</time></trkpt><trkpt lat="30.380820552679044" lon="-5.721703081909911"><ele>768.0</ele><time>2026-03-23T13:07:17Z</time></trkpt><trkpt lat="30.380773328909203" lon="-5.721944878709758"><ele>768.0</ele><time>2026-03-23T13:07:18Z</time></trkpt><trkpt lat="30.38072438654259" lon="-5.722184962552142"><ele>768.0</ele><time>2026-03-23T13:07:19Z</time></trkpt><trkpt lat="30.380678816706855" lon="-5.722419627765257"><ele>768.0</ele><time>2026-03-23T13:07:20Z</time></trkpt><trkpt lat="30.38063397165985" lon="-5.72265538726667"><ele>767.6666666666666</ele><time>2026-03-23T13:07:21Z</time></trkpt><trkpt lat="30.38058772977756" lon="-5.722893689114143"><ele>767.3333333333333</ele><time>2026-03-23T13:07:22Z</time></trkpt><trkpt lat="30.3805413153964" lon="-5.7231334917178645"><ele>767.0</ele><time>2026-03-23T13:07:23Z</time></trkpt><trkpt lat="30.38049458058504" lon="-5.723369870381865"><ele>768.0</ele><time>2026-03-23T13:07:24Z</time></trkpt><trkpt lat="30.380451090185776" lon="-5.723608377047888"><ele>769.0</ele><time>2026-03-23T13:07:25Z</time></trkpt><trkpt lat="30.380401514734974" lon="-5.72384733045426"><ele>770.0</ele><time>2026-03-23T13:07:26Z</time></trkpt><trkpt lat="30.38035762545505" lon="-5.7240822966426155"><ele>770.0</ele><time>2026-03-23T13:07:27Z</time></trkpt><trkpt lat="30.38031168449972" lon="-5.724308547144174"><ele>770.0</ele><time>2026-03-23T13:07:28Z</time></trkpt><trkpt lat="30.38027077910173" lon="-5.724517887281123"><ele>770.0</ele><time>2026-03-23T13:07:29Z</time></trkpt><trkpt lat="30.38022627103349" lon="-5.724731556359478"><ele>769.6666666666667</ele><time>2026-03-23T13:07:30Z</time></trkpt><trkpt lat="30.380185274354055" lon="-5.7249506226191444"><ele>769.3333333333333</ele><time>2026-03-23T13:07:31Z</time></trkpt><trkpt lat="30.380141627315798" lon="-5.725176007942271"><ele>769.0</ele><time>2026-03-23T13:07:32Z</time></trkpt><trkpt lat="30.38008918378446" lon="-5.725407450658295"><ele>768.0</ele><time>2026-03-23T13:07:33Z</time></trkpt><trkpt lat="30.380042628213968" lon="-5.725645021480999"><ele>767.0</ele><time>2026-03-23T13:07:34Z</time></trkpt><trkpt lat="30.3799936515868" lon="-5.725891865234675"><ele>766.0</ele><time>2026-03-23T13:07:35Z</time></trkpt><trkpt lat="30.3799450240031" lon="-5.726145310861736"><ele>766.0</ele><time>2026-03-23T13:07:36Z</time></trkpt><trkpt lat="30.379896049418704" lon="-5.726402899044383"><ele>766.0</ele><time>2026-03-23T13:07:37Z</time></trkpt><trkpt lat="30.37984558705786" lon="-5.7266606146846675"><ele>766.0</ele><time>2026-03-23T13:07:38Z</time></trkpt><trkpt lat="30.379796292544874" lon="-5.726928576544816"><ele>766.0</ele><time>2026-03-23T13:07:39Z</time></trkpt><trkpt lat="30.379740461030092" lon="-5.727197116114303"><ele>766.0</ele><time>2026-03-23T13:07:40Z</time></trkpt><trkpt lat="30.379688253841824" lon="-5.727465050631222"><ele>766.0</ele><time>2026-03-23T13:07:41Z</time></trkpt><trkpt lat="30.379636127715585" lon="-5.727731914616456"><ele>765.5</ele><time>2026-03-23T13:07:42Z</time></trkpt><trkpt lat="30.37958503171424" lon="-5.727997289460322"><ele>765.0</ele><time>2026-03-23T13:07:43Z</time></trkpt><trkpt lat="30.37953601230098" lon="-5.728264935727402"><ele>765.0</ele><time>2026-03-23T13:07:44Z</time></trkpt><trkpt lat="30.379482967265638" lon="-5.728530647901295"><ele>765.0</ele><time>2026-03-23T13:07:45Z</time></trkpt><trkpt lat="30.379424651190767" lon="-5.728785173619298"><ele>764.6666666666666</ele><time>2026-03-23T13:07:46Z</time></trkpt><trkpt lat="30.379378238779733" lon="-5.729021463665421"><ele>764.3333333333333</ele><time>2026-03-23T13:07:47Z</time></trkpt><trkpt lat="30.37933203850396" lon="-5.729257397637674"><ele>764.0</ele><time>2026-03-23T13:07:48Z</time></trkpt><trkpt lat="30.37927017950051" lon="-5.729586925116735"><ele>764.0</ele><time>2026-03-23T13:07:49Z</time></trkpt><trkpt lat="30.379215759825964" lon="-5.729850286064879"><ele>764.0</ele><time>2026-03-23T13:07:50Z</time></trkpt><trkpt lat="30.379164043363925" lon="-5.730110126066971"><ele>763.6666666666666</ele><time>2026-03-23T13:07:51Z</time></trkpt><trkpt lat="30.37911571738578" lon="-5.730361641542257"><ele>763.3333333333334</ele><time>2026-03-23T13:07:52Z</time></trkpt><trkpt lat="30.3790620439777" lon="-5.730607488948576"><ele>763.0</ele><time>2026-03-23T13:07:53Z</time></trkpt><trkpt lat="30.379016720907256" lon="-5.730853368234884"><ele>763.0</ele><time>2026-03-23T13:07:54Z</time></trkpt><trkpt lat="30.37897191913784" lon="-5.731096608616511"><ele>763.0</ele><time>2026-03-23T13:07:55Z</time></trkpt><trkpt lat="30.37892666646523" lon="-5.73133963770682"><ele>763.0</ele><time>2026-03-23T13:07:56Z</time></trkpt><trkpt lat="30.37888030014115" lon="-5.731581390136208"><ele>763.0</ele><time>2026-03-23T13:07:57Z</time></trkpt><trkpt lat="30.378834817092102" lon="-5.73182272186514"><ele>763.0</ele><time>2026-03-23T13:07:58Z</time></trkpt><trkpt lat="30.378786890463147" lon="-5.732063618067045"><ele>763.0</ele><time>2026-03-23T13:07:59Z</time></trkpt><trkpt lat="30.37873310192005" lon="-5.732304413081278"><ele>762.0</ele><time>2026-03-23T13:08:00Z</time></trkpt><trkpt lat="30.37868601315408" lon="-5.732539412926225"><ele>761.0</ele><time>2026-03-23T13:08:01Z</time></trkpt><trkpt lat="30.37864195243895" lon="-5.732774838372988"><ele>760.0</ele><time>2026-03-23T13:08:02Z</time></trkpt><trkpt lat="30.37859519199997" lon="-5.733011105192709"><ele>760.0</ele><time>2026-03-23T13:08:03Z</time></trkpt><trkpt lat="30.37854894759229" lon="-5.733245414284385"><ele>760.0</ele><time>2026-03-23T13:08:04Z</time></trkpt><trkpt lat="30.37850136793328" lon="-5.733481824522795"><ele>760.0</ele><time>2026-03-23T13:08:05Z</time></trkpt><trkpt lat="30.378448804620216" lon="-5.733719436282172"><ele>759.6666666666667</ele><time>2026-03-23T13:08:06Z</time></trkpt><trkpt lat="30.378395041997962" lon="-5.7339605051157765"><ele>759.3333333333334</ele><time>2026-03-23T13:08:07Z</time></trkpt><trkpt lat="30.3783382697658" lon="-5.734200582692619"><ele>759.0</ele><time>2026-03-23T13:08:08Z</time></trkpt><trkpt lat="30.37826827709015" lon="-5.73444295697618"><ele>758.5</ele><time>2026-03-23T13:08:09Z</time></trkpt><trkpt lat="30.3781960383248" lon="-5.73468735771341"><ele>758.0</ele><time>2026-03-23T13:08:10Z</time></trkpt><trkpt lat="30.378121036595456" lon="-5.73493836536956"><ele>758.0</ele><time>2026-03-23T13:08:11Z</time></trkpt><trkpt lat="30.378040021009273" lon="-5.735191500544474"><ele>758.0</ele><time>2026-03-23T13:08:12Z</time></trkpt><trkpt lat="30.37795677277216" lon="-5.735451810111873"><ele>758.0</ele><time>2026-03-23T13:08:13Z</time></trkpt><trkpt lat="30.37786686170306" lon="-5.735771513036253"><ele>758.0</ele><time>2026-03-23T13:08:14Z</time></trkpt><trkpt lat="30.377770087572493" lon="-5.736132302456882"><ele>757.0</ele><time>2026-03-23T13:08:15Z</time></trkpt><trkpt lat="30.377698008883456" lon="-5.736192111940178"><ele>756.0</ele><time>2026-03-23T13:08:16Z</time></trkpt><trkpt lat="30.37760359812586" lon="-5.736429480637513"><ele>755.0</ele><time>2026-03-23T13:08:17Z</time></trkpt><trkpt lat="30.377500465993716" lon="-5.736658835344148"><ele>755.6666666666666</ele><time>2026-03-23T13:08:18Z</time></trkpt><trkpt lat="30.37740128278153" lon="-5.736890537187966"><ele>756.3333333333334</ele><time>2026-03-23T13:08:19Z</time></trkpt><trkpt lat="30.37729723666261" lon="-5.737119898122191"><ele>757.0</ele><time>2026-03-23T13:08:20Z</time></trkpt><trkpt lat="30.37719066743318" lon="-5.73734484492833"><ele>757.0</ele><time>2026-03-23T13:08:21Z</time></trkpt><trkpt lat="30.377076434318223" lon="-5.737566850895914"><ele>757.0</ele><time>2026-03-23T13:08:22Z</time></trkpt><trkpt lat="30.37695783521891" lon="-5.737790641522511"><ele>756.0</ele><time>2026-03-23T13:08:23Z</time></trkpt><trkpt lat="30.376833926722668" lon="-5.738008760154906"><ele>755.0</ele><time>2026-03-23T13:08:24Z</time></trkpt><trkpt lat="30.376704037026798" lon="-5.73822091006478"><ele>755.0</ele><time>2026-03-23T13:08:25Z</time></trkpt><trkpt lat="30.376581291394714" lon="-5.73842956682836"><ele>755.0</ele><time>2026-03-23T13:08:26Z</time></trkpt><trkpt lat="30.376457083951312" lon="-5.738634514730823"><ele>755.0</ele><time>2026-03-23T13:08:27Z</time></trkpt><trkpt lat="30.376329480657585" lon="-5.738837220869596"><ele>755.3333333333333</ele><time>2026-03-23T13:08:28Z</time></trkpt><trkpt lat="30.376198551634868" lon="-5.73902792325519"><ele>755.6666666666666</ele><time>2026-03-23T13:08:29Z</time></trkpt><trkpt lat="30.376067012640963" lon="-5.739216337296047"><ele>756.0</ele><time>2026-03-23T13:08:30Z</time></trkpt><trkpt lat="30.375929181727024" lon="-5.73940266485672"><ele>755.3333333333334</ele><time>2026-03-23T13:08:31Z</time></trkpt><trkpt lat="30.37578741127094" lon="-5.739584662157949"><ele>754.6666666666667</ele><time>2026-03-23T13:08:32Z</time></trkpt><trkpt lat="30.37563791970545" lon="-5.739767905921561"><ele>754.0</ele><time>2026-03-23T13:08:33Z</time></trkpt><trkpt lat="30.37548732200279" lon="-5.739952509993017"><ele>754.3333333333334</ele><time>2026-03-23T13:08:34Z</time></trkpt><trkpt lat="30.375333131917145" lon="-5.740137156197558"><ele>754.6666666666666</ele><time>2026-03-23T13:08:35Z</time></trkpt><trkpt lat="30.375183114231707" lon="-5.740320716245009"><ele>755.0</ele><time>2026-03-23T13:08:36Z</time></trkpt><trkpt lat="30.37502927605316" lon="-5.740502680863725"><ele>755.0</ele><time>2026-03-23T13:08:37Z</time></trkpt><trkpt lat="30.374864664884615" lon="-5.740690683306123"><ele>755.0</ele><time>2026-03-23T13:08:38Z</time></trkpt><trkpt lat="30.37470473010109" lon="-5.740859147906063"><ele>755.0</ele><time>2026-03-23T13:08:39Z</time></trkpt><trkpt lat="30.374541726685912" lon="-5.741022233617072"><ele>755.6666666666666</ele><time>2026-03-23T13:08:40Z</time></trkpt><trkpt lat="30.374378130297252" lon="-5.74119044631769"><ele>756.3333333333334</ele><time>2026-03-23T13:08:41Z</time></trkpt><trkpt lat="30.374214605615972" lon="-5.741364256931132"><ele>757.0</ele><time>2026-03-23T13:08:42Z</time></trkpt><trkpt lat="30.374049783469086" lon="-5.741543418018928"><ele>757.0</ele><time>2026-03-23T13:08:43Z</time></trkpt><trkpt lat="30.37388471668268" lon="-5.74171956777976"><ele>757.0</ele><time>2026-03-23T13:08:44Z</time></trkpt><trkpt lat="30.373718346666344" lon="-5.741887505166945"><ele>757.0</ele><time>2026-03-23T13:08:45Z</time></trkpt><trkpt lat="30.37355439239472" lon="-5.742052312413645"><ele>756.0</ele><time>2026-03-23T13:08:46Z</time></trkpt><trkpt lat="30.37340247736842" lon="-5.742215627688264"><ele>755.0</ele><time>2026-03-23T13:08:47Z</time></trkpt><trkpt lat="30.37325454593067" lon="-5.742373379680106"><ele>754.0</ele><time>2026-03-23T13:08:48Z</time></trkpt><trkpt lat="30.373112795248396" lon="-5.74252124677125"><ele>754.3333333333334</ele><time>2026-03-23T13:08:49Z</time></trkpt><trkpt lat="30.372972185815406" lon="-5.74267013624123"><ele>754.6666666666666</ele><time>2026-03-23T13:08:50Z</time></trkpt><trkpt lat="30.372830183240275" lon="-5.742817347679926"><ele>755.0</ele><time>2026-03-23T13:08:51Z</time></trkpt><trkpt lat="30.37269034446366" lon="-5.742960235739138"><ele>753.6666666666666</ele><time>2026-03-23T13:08:52Z</time></trkpt><trkpt lat="30.37255502217488" lon="-5.743103603823025"><ele>752.3333333333334</ele><time>2026-03-23T13:08:53Z</time></trkpt><trkpt lat="30.372414305846988" lon="-5.743247921912369"><ele>751.0</ele><time>2026-03-23T13:08:54Z</time></trkpt><trkpt lat="30.372272448609404" lon="-5.7433930908734965"><ele>751.6666666666667</ele><time>2026-03-23T13:08:55Z</time></trkpt><trkpt lat="30.372128329687563" lon="-5.743541302054469"><ele>752.3333333333334</ele><time>2026-03-23T13:08:56Z</time></trkpt><trkpt lat="30.371982765972156" lon="-5.743694476535126"><ele>753.0</ele><time>2026-03-23T13:08:57Z</time></trkpt><trkpt lat="30.371834592948343" lon="-5.743847592245181"><ele>753.0</ele><time>2026-03-23T13:08:58Z</time></trkpt><trkpt lat="30.371683348753084" lon="-5.744002036385057"><ele>753.0</ele><time>2026-03-23T13:08:59Z</time></trkpt><trkpt lat="30.371533032371318" lon="-5.7441582566658695"><ele>753.0</ele><time>2026-03-23T13:09:00Z</time></trkpt><trkpt lat="30.37138354677963" lon="-5.744318526223624"><ele>752.0</ele><time>2026-03-23T13:09:01Z</time></trkpt><trkpt lat="30.371229412003633" lon="-5.744475985203126"><ele>751.0</ele><time>2026-03-23T13:09:02Z</time></trkpt><trkpt lat="30.371074400474797" lon="-5.744640078518052"><ele>750.0</ele><time>2026-03-23T13:09:03Z</time></trkpt><trkpt lat="30.37092214042699" lon="-5.744801921114258"><ele>750.0</ele><time>2026-03-23T13:09:04Z</time></trkpt><trkpt lat="30.370769052269413" lon="-5.744964983565573"><ele>750.0</ele><time>2026-03-23T13:09:05Z</time></trkpt><trkpt lat="30.37061546722844" lon="-5.745124568596233"><ele>750.0</ele><time>2026-03-23T13:09:06Z</time></trkpt><trkpt lat="30.37046616632153" lon="-5.745284817378505"><ele>750.0</ele><time>2026-03-23T13:09:07Z</time></trkpt><trkpt lat="30.370314329368462" lon="-5.745445007956639"><ele>750.0</ele><time>2026-03-23T13:09:08Z</time></trkpt><trkpt lat="30.37016110999121" lon="-5.745600889645082"><ele>750.0</ele><time>2026-03-23T13:09:09Z</time></trkpt><trkpt lat="30.370008473373474" lon="-5.745756815956152"><ele>750.0</ele><time>2026-03-23T13:09:10Z</time></trkpt><trkpt lat="30.369850926959383" lon="-5.745916657279955"><ele>750.0</ele><time>2026-03-23T13:09:11Z</time></trkpt><trkpt lat="30.369692403103407" lon="-5.746077521274534"><ele>750.0</ele><time>2026-03-23T13:09:12Z</time></trkpt><trkpt lat="30.369537141119018" lon="-5.746241594536411"><ele>750.0</ele><time>2026-03-23T13:09:13Z</time></trkpt><trkpt lat="30.369379408140844" lon="-5.746407629054104"><ele>750.0</ele><time>2026-03-23T13:09:14Z</time></trkpt><trkpt lat="30.36921907010025" lon="-5.746571155167846"><ele>750.0</ele><time>2026-03-23T13:09:15Z</time></trkpt><trkpt lat="30.369058497160196" lon="-5.746735302691206"><ele>749.6666666666666</ele><time>2026-03-23T13:09:16Z</time></trkpt><trkpt lat="30.36889924588347" lon="-5.7468996927949005"><ele>749.3333333333333</ele><time>2026-03-23T13:09:17Z</time></trkpt><trkpt lat="30.36874174025826" lon="-5.747066443165969"><ele>749.0</ele><time>2026-03-23T13:09:18Z</time></trkpt><trkpt lat="30.36858244604105" lon="-5.7472307292033475"><ele>750.3333333333333</ele><time>2026-03-23T13:09:19Z</time></trkpt><trkpt lat="30.368422832778474" lon="-5.747393673370045"><ele>751.6666666666666</ele><time>2026-03-23T13:09:20Z</time></trkpt><trkpt lat="30.36826190665463" lon="-5.747559334919848"><ele>753.0</ele><time>2026-03-23T13:09:21Z</time></trkpt><trkpt lat="30.36810012959598" lon="-5.747727976084314"><ele>752.3333333333334</ele><time>2026-03-23T13:09:22Z</time></trkpt><trkpt lat="30.367937214264675" lon="-5.747899376017959"><ele>751.6666666666667</ele><time>2026-03-23T13:09:23Z</time></trkpt><trkpt lat="30.367774240127357" lon="-5.748071058882637"><ele>751.0</ele><time>2026-03-23T13:09:24Z</time></trkpt><trkpt lat="30.367610157709382" lon="-5.7482469174469575"><ele>751.0</ele><time>2026-03-23T13:09:25Z</time></trkpt><trkpt lat="30.36744353495385" lon="-5.748422451375921"><ele>751.0</ele><time>2026-03-23T13:09:26Z</time></trkpt><trkpt lat="30.367278709330016" lon="-5.748593319850242"><ele>751.0</ele><time>2026-03-23T13:09:27Z</time></trkpt><trkpt lat="30.3671116080308" lon="-5.748768057013889"><ele>751.0</ele><time>2026-03-23T13:09:28Z</time></trkpt><trkpt lat="30.366943740387278" lon="-5.748945670320364"><ele>751.0</ele><time>2026-03-23T13:09:29Z</time></trkpt><trkpt lat="30.366775009670803" lon="-5.749116710158201"><ele>751.0</ele><time>2026-03-23T13:09:30Z</time></trkpt><trkpt lat="30.366602206202103" lon="-5.749292575236445"><ele>751.0</ele><time>2026-03-23T13:09:31Z</time></trkpt><trkpt lat="30.366435907948812" lon="-5.749468453568271"><ele>750.5</ele><time>2026-03-23T13:09:32Z</time></trkpt><trkpt lat="30.366270522528833" lon="-5.749648535020832"><ele>750.0</ele><time>2026-03-23T13:09:33Z</time></trkpt><trkpt lat="30.36610321276458" lon="-5.749827229181958"><ele>750.0</ele><time>2026-03-23T13:09:34Z</time></trkpt><trkpt lat="30.36593124903607" lon="-5.750014905313484"><ele>750.0</ele><time>2026-03-23T13:09:35Z</time></trkpt><trkpt lat="30.365745628668776" lon="-5.750196162063378"><ele>749.5</ele><time>2026-03-23T13:09:36Z</time></trkpt><trkpt lat="30.365570683528812" lon="-5.7503738860383375"><ele>749.0</ele><time>2026-03-23T13:09:37Z</time></trkpt><trkpt lat="30.36540630606022" lon="-5.75054628529057"><ele>749.0</ele><time>2026-03-23T13:09:38Z</time></trkpt><trkpt lat="30.36524553689953" lon="-5.750735776357632"><ele>749.0</ele><time>2026-03-23T13:09:39Z</time></trkpt><trkpt lat="30.3650890961513" lon="-5.750914401803697"><ele>749.0</ele><time>2026-03-23T13:09:40Z</time></trkpt><trkpt lat="30.364928679194445" lon="-5.751090766133909"><ele>749.0</ele><time>2026-03-23T13:09:41Z</time></trkpt><trkpt lat="30.36476993181389" lon="-5.751275143684943"><ele>749.0</ele><time>2026-03-23T13:09:42Z</time></trkpt><trkpt lat="30.364607203720347" lon="-5.751463650032482"><ele>748.0</ele><time>2026-03-23T13:09:43Z</time></trkpt><trkpt lat="30.364444186270415" lon="-5.751654938199001"><ele>747.0</ele><time>2026-03-23T13:09:44Z</time></trkpt><trkpt lat="30.36427526210288" lon="-5.751845145929818"><ele>746.5</ele><time>2026-03-23T13:09:45Z</time></trkpt><trkpt lat="30.364108940995234" lon="-5.75203074254428"><ele>746.0</ele><time>2026-03-23T13:09:46Z</time></trkpt><trkpt lat="30.36394750417548" lon="-5.752229615755087"><ele>746.0</ele><time>2026-03-23T13:09:47Z</time></trkpt><trkpt lat="30.36379023425621" lon="-5.752411163897613"><ele>746.0</ele><time>2026-03-23T13:09:48Z</time></trkpt><trkpt lat="30.36363391478963" lon="-5.752607045762892"><ele>746.5</ele><time>2026-03-23T13:09:49Z</time></trkpt><trkpt lat="30.363477369600442" lon="-5.752798399917451"><ele>747.0</ele><time>2026-03-23T13:09:50Z</time></trkpt><trkpt lat="30.363324582177928" lon="-5.752989848716216"><ele>747.0</ele><time>2026-03-23T13:09:51Z</time></trkpt><trkpt lat="30.363181707268854" lon="-5.753171880556128"><ele>747.0</ele><time>2026-03-23T13:09:52Z</time></trkpt><trkpt lat="30.363047306768387" lon="-5.753341948860421"><ele>747.0</ele><time>2026-03-23T13:09:53Z</time></trkpt><trkpt lat="30.362911899325237" lon="-5.753516584254264"><ele>746.6666666666666</ele><time>2026-03-23T13:09:54Z</time></trkpt><trkpt lat="30.36278645546905" lon="-5.753688466103713"><ele>746.3333333333333</ele><time>2026-03-23T13:09:55Z</time></trkpt><trkpt lat="30.362656049125626" lon="-5.753853422900749"><ele>746.0</ele><time>2026-03-23T13:09:56Z</time></trkpt><trkpt lat="30.362520337064673" lon="-5.754026465018895"><ele>746.0</ele><time>2026-03-23T13:09:57Z</time></trkpt><trkpt lat="30.362385835521536" lon="-5.754202198195952"><ele>746.0</ele><time>2026-03-23T13:09:58Z</time></trkpt><trkpt lat="30.3622504557775" lon="-5.75438679811874"><ele>746.0</ele><time>2026-03-23T13:09:59Z</time></trkpt><trkpt lat="30.36211171654095" lon="-5.754573976773053"><ele>745.6666666666666</ele><time>2026-03-23T13:10:00Z</time></trkpt><trkpt lat="30.361971961035795" lon="-5.754762068004009"><ele>745.3333333333334</ele><time>2026-03-23T13:10:01Z</time></trkpt><trkpt lat="30.361835281789293" lon="-5.754950304449702"><ele>745.0</ele><time>2026-03-23T13:10:02Z</time></trkpt><trkpt lat="30.36169736804293" lon="-5.755139816134406"><ele>745.0</ele><time>2026-03-23T13:10:03Z</time></trkpt><trkpt lat="30.361560560973167" lon="-5.755321094647509"><ele>745.0</ele><time>2026-03-23T13:10:04Z</time></trkpt><trkpt lat="30.361424502118922" lon="-5.75550691457174"><ele>745.0</ele><time>2026-03-23T13:10:05Z</time></trkpt><trkpt lat="30.361295522010153" lon="-5.75568600708663"><ele>745.3333333333334</ele><time>2026-03-23T13:10:06Z</time></trkpt><trkpt lat="30.36116693975655" lon="-5.755861234936545"><ele>745.6666666666666</ele><time>2026-03-23T13:10:07Z</time></trkpt><trkpt lat="30.36103718605214" lon="-5.756035491318712"><ele>746.0</ele><time>2026-03-23T13:10:08Z</time></trkpt><trkpt lat="30.360905914969653" lon="-5.756214609353508"><ele>746.0</ele><time>2026-03-23T13:10:09Z</time></trkpt><trkpt lat="30.360776312403424" lon="-5.756396504465363"><ele>746.0</ele><time>2026-03-23T13:10:10Z</time></trkpt><trkpt lat="30.360642313253692" lon="-5.7565829864571025"><ele>746.0</ele><time>2026-03-23T13:10:11Z</time></trkpt><trkpt lat="30.360502103784313" lon="-5.756775748033416"><ele>745.0</ele><time>2026-03-23T13:10:12Z</time></trkpt><trkpt lat="30.360353872761607" lon="-5.756970921264567"><ele>744.0</ele><time>2026-03-23T13:10:13Z</time></trkpt><trkpt lat="30.360216851874124" lon="-5.757152026140189"><ele>743.0</ele><time>2026-03-23T13:10:14Z</time></trkpt><trkpt lat="30.360080950055256" lon="-5.7573369607467475"><ele>743.0</ele><time>2026-03-23T13:10:15Z</time></trkpt><trkpt lat="30.35994759404399" lon="-5.757521938508905"><ele>743.0</ele><time>2026-03-23T13:10:16Z</time></trkpt><trkpt lat="30.359815844019426" lon="-5.75770264380191"><ele>743.0</ele><time>2026-03-23T13:10:17Z</time></trkpt><trkpt lat="30.35968814426579" lon="-5.757875660688967"><ele>742.3333333333333</ele><time>2026-03-23T13:10:18Z</time></trkpt><trkpt lat="30.35956088077217" lon="-5.758046901562008"><ele>741.6666666666666</ele><time>2026-03-23T13:10:19Z</time></trkpt><trkpt lat="30.359430453523476" lon="-5.758222212221177"><ele>741.0</ele><time>2026-03-23T13:10:20Z</time></trkpt><trkpt lat="30.35929636571886" lon="-5.758404476631767"><ele>742.0</ele><time>2026-03-23T13:10:21Z</time></trkpt><trkpt lat="30.359156818594265" lon="-5.75859312446156"><ele>743.0</ele><time>2026-03-23T13:10:22Z</time></trkpt><trkpt lat="30.35901769818161" lon="-5.758787989271708"><ele>744.0</ele><time>2026-03-23T13:10:23Z</time></trkpt><trkpt lat="30.35887384235535" lon="-5.758980827262003"><ele>744.0</ele><time>2026-03-23T13:10:24Z</time></trkpt><trkpt lat="30.35872923079229" lon="-5.7591762629248"><ele>744.0</ele><time>2026-03-23T13:10:25Z</time></trkpt><trkpt lat="30.358586296247594" lon="-5.759370758648107"><ele>744.0</ele><time>2026-03-23T13:10:26Z</time></trkpt><trkpt lat="30.358441657821288" lon="-5.759568479447998"><ele>744.0</ele><time>2026-03-23T13:10:27Z</time></trkpt><trkpt lat="30.358298263076406" lon="-5.759766739082859"><ele>744.0</ele><time>2026-03-23T13:10:28Z</time></trkpt><trkpt lat="30.358155187201763" lon="-5.759966172140365"><ele>744.0</ele><time>2026-03-23T13:10:29Z</time></trkpt><trkpt lat="30.35801101375453" lon="-5.760162103417608"><ele>743.6666666666666</ele><time>2026-03-23T13:10:30Z</time></trkpt><trkpt lat="30.357866963777873" lon="-5.7603552658349795"><ele>743.3333333333333</ele><time>2026-03-23T13:10:31Z</time></trkpt><trkpt lat="30.357719118461198" lon="-5.760546716290928"><ele>743.0</ele><time>2026-03-23T13:10:32Z</time></trkpt><trkpt lat="30.357573304731282" lon="-5.760738919509924"><ele>743.0</ele><time>2026-03-23T13:10:33Z</time></trkpt><trkpt lat="30.35742743618036" lon="-5.760934276157777"><ele>743.0</ele><time>2026-03-23T13:10:34Z</time></trkpt><trkpt lat="30.357283838475382" lon="-5.761131077317586"><ele>743.0</ele><time>2026-03-23T13:10:35Z</time></trkpt><trkpt lat="30.357139645774172" lon="-5.761332211037084"><ele>742.5</ele><time>2026-03-23T13:10:36Z</time></trkpt><trkpt lat="30.35699514436882" lon="-5.761532392273448"><ele>742.0</ele><time>2026-03-23T13:10:37Z</time></trkpt><trkpt lat="30.356850425204527" lon="-5.761734058491952"><ele>742.5</ele><time>2026-03-23T13:10:38Z</time></trkpt><trkpt lat="30.356704126801855" lon="-5.761934008078326"><ele>743.0</ele><time>2026-03-23T13:10:39Z</time></trkpt><trkpt lat="30.356558543115362" lon="-5.76213239388791"><ele>743.0</ele><time>2026-03-23T13:10:40Z</time></trkpt><trkpt lat="30.356414480638396" lon="-5.762334586647064"><ele>743.0</ele><time>2026-03-23T13:10:41Z</time></trkpt><trkpt lat="30.356270498348923" lon="-5.7625313099793445"><ele>743.0</ele><time>2026-03-23T13:10:42Z</time></trkpt><trkpt lat="30.356125060397343" lon="-5.762729468775061"><ele>743.3333333333333</ele><time>2026-03-23T13:10:43Z</time></trkpt><trkpt lat="30.3559799331168" lon="-5.762927812809057"><ele>743.6666666666666</ele><time>2026-03-23T13:10:44Z</time></trkpt><trkpt lat="30.35583298841077" lon="-5.763125374683493"><ele>744.0</ele><time>2026-03-23T13:10:45Z</time></trkpt><trkpt lat="30.355687498331267" lon="-5.763317988365905"><ele>744.0</ele><time>2026-03-23T13:10:46Z</time></trkpt><trkpt lat="30.355541591862412" lon="-5.763513912597335"><ele>744.0</ele><time>2026-03-23T13:10:47Z</time></trkpt><trkpt lat="30.355397363491022" lon="-5.763708877124441"><ele>744.0</ele><time>2026-03-23T13:10:48Z</time></trkpt><trkpt lat="30.355252038260506" lon="-5.76390544585038"><ele>743.0</ele><time>2026-03-23T13:10:49Z</time></trkpt><trkpt lat="30.355106651348855" lon="-5.7641070122159705"><ele>742.0</ele><time>2026-03-23T13:10:50Z</time></trkpt><trkpt lat="30.354961641160042" lon="-5.76430563280802"><ele>741.6666666666667</ele><time>2026-03-23T13:10:51Z</time></trkpt><trkpt lat="30.354817899342695" lon="-5.764506235611665"><ele>741.3333333333334</ele><time>2026-03-23T13:10:52Z</time></trkpt><trkpt lat="30.354675152528213" lon="-5.7647038604817755"><ele>741.0</ele><time>2026-03-23T13:10:53Z</time></trkpt><trkpt lat="30.35453113055001" lon="-5.764901244830887"><ele>741.0</ele><time>2026-03-23T13:10:54Z</time></trkpt><trkpt lat="30.35439020859978" lon="-5.765098136079964"><ele>741.0</ele><time>2026-03-23T13:10:55Z</time></trkpt><trkpt lat="30.354251377645195" lon="-5.765295301136771"><ele>741.0</ele><time>2026-03-23T13:10:56Z</time></trkpt><trkpt lat="30.35411190373055" lon="-5.765493810558892"><ele>741.0</ele><time>2026-03-23T13:10:57Z</time></trkpt><trkpt lat="30.3539738022943" lon="-5.765690395951894"><ele>741.0</ele><time>2026-03-23T13:10:58Z</time></trkpt><trkpt lat="30.35383460794415" lon="-5.765890857793441"><ele>741.0</ele><time>2026-03-23T13:10:59Z</time></trkpt><trkpt lat="30.35370072812213" lon="-5.76609159014868"><ele>742.3333333333334</ele><time>2026-03-23T13:11:00Z</time></trkpt><trkpt lat="30.353563280041623" lon="-5.766293451192541"><ele>743.6666666666667</ele><time>2026-03-23T13:11:01Z</time></trkpt><trkpt lat="30.353424287982577" lon="-5.7664908401324135"><ele>745.0</ele><time>2026-03-23T13:11:02Z</time></trkpt><trkpt lat="30.353288790677528" lon="-5.766689197045081"><ele>745.0</ele><time>2026-03-23T13:11:03Z</time></trkpt><trkpt lat="30.35315997545525" lon="-5.766890348270598"><ele>745.0</ele><time>2026-03-23T13:11:04Z</time></trkpt><trkpt lat="30.353031219224626" lon="-5.767096513806513"><ele>745.0</ele><time>2026-03-23T13:11:05Z</time></trkpt><trkpt lat="30.352900350990105" lon="-5.767297780480574"><ele>745.0</ele><time>2026-03-23T13:11:06Z</time></trkpt><trkpt lat="30.352768003276772" lon="-5.7675001713884395"><ele>745.0</ele><time>2026-03-23T13:11:07Z</time></trkpt><trkpt lat="30.35263784818583" lon="-5.767702822227065"><ele>745.0</ele><time>2026-03-23T13:11:08Z</time></trkpt><trkpt lat="30.35251061542473" lon="-5.7679069873229665"><ele>744.3333333333334</ele><time>2026-03-23T13:11:09Z</time></trkpt><trkpt lat="30.352384389893775" lon="-5.768113168456991"><ele>743.6666666666666</ele><time>2026-03-23T13:11:10Z</time></trkpt><trkpt lat="30.352257904924656" lon="-5.768317288574234"><ele>743.0</ele><time>2026-03-23T13:11:11Z</time></trkpt><trkpt lat="30.352134263655525" lon="-5.768522303748794"><ele>742.6666666666666</ele><time>2026-03-23T13:11:12Z</time></trkpt><trkpt lat="30.35201179302371" lon="-5.768729112428753"><ele>742.3333333333334</ele><time>2026-03-23T13:11:13Z</time></trkpt><trkpt lat="30.35189135052498" lon="-5.7689363515567855"><ele>742.0</ele><time>2026-03-23T13:11:14Z</time></trkpt><trkpt lat="30.351771104170858" lon="-5.769138408172452"><ele>742.0</ele><time>2026-03-23T13:11:15Z</time></trkpt><trkpt lat="30.351658677263814" lon="-5.769331493241887"><ele>742.0</ele><time>2026-03-23T13:11:16Z</time></trkpt><trkpt lat="30.351550650313435" lon="-5.769512301364975"><ele>742.0</ele><time>2026-03-23T13:11:17Z</time></trkpt><trkpt lat="30.35144289331332" lon="-5.769700486436838"><ele>742.6666666666667</ele><time>2026-03-23T13:11:18Z</time></trkpt><trkpt lat="30.351330800556784" lon="-5.769901073567808"><ele>743.3333333333334</ele><time>2026-03-23T13:11:19Z</time></trkpt><trkpt lat="30.35121470347521" lon="-5.770106165169168"><ele>744.0</ele><time>2026-03-23T13:11:20Z</time></trkpt><trkpt lat="30.351096329705957" lon="-5.770316874535798"><ele>744.0</ele><time>2026-03-23T13:11:21Z</time></trkpt><trkpt lat="30.35098032475487" lon="-5.770526627056636"><ele>744.0</ele><time>2026-03-23T13:11:22Z</time></trkpt><trkpt lat="30.350866588143145" lon="-5.770736374007029"><ele>744.0</ele><time>2026-03-23T13:11:23Z</time></trkpt><trkpt lat="30.350751329925654" lon="-5.770944927086975"><ele>744.0</ele><time>2026-03-23T13:11:24Z</time></trkpt><trkpt lat="30.35064124873567" lon="-5.771151634201274"><ele>744.0</ele><time>2026-03-23T13:11:25Z</time></trkpt><trkpt lat="30.350533481191732" lon="-5.771360906470002"><ele>744.0</ele><time>2026-03-23T13:11:26Z</time></trkpt><trkpt lat="30.35042891614426" lon="-5.771572015858402"><ele>744.0</ele><time>2026-03-23T13:11:27Z</time></trkpt><trkpt lat="30.350323462295123" lon="-5.7717829787729045"><ele>744.0</ele><time>2026-03-23T13:11:28Z</time></trkpt><trkpt lat="30.35021511164937" lon="-5.7719962956172886"><ele>744.0</ele><time>2026-03-23T13:11:29Z</time></trkpt><trkpt lat="30.350104521816895" lon="-5.772202567915988"><ele>743.3333333333334</ele><time>2026-03-23T13:11:30Z</time></trkpt><trkpt lat="30.34999376127244" lon="-5.772415856396985"><ele>742.6666666666667</ele><time>2026-03-23T13:11:31Z</time></trkpt><trkpt lat="30.34988755551582" lon="-5.77263443792971"><ele>742.0</ele><time>2026-03-23T13:11:32Z</time></trkpt><trkpt lat="30.349782580127485" lon="-5.77284985968569"><ele>742.0</ele><time>2026-03-23T13:11:33Z</time></trkpt><trkpt lat="30.34967371311079" lon="-5.773065669763742"><ele>742.0</ele><time>2026-03-23T13:11:34Z</time></trkpt><trkpt lat="30.349567550101398" lon="-5.773285558738854"><ele>742.0</ele><time>2026-03-23T13:11:35Z</time></trkpt><trkpt lat="30.349461957521306" lon="-5.773508613605038"><ele>741.6666666666667</ele><time>2026-03-23T13:11:36Z</time></trkpt><trkpt lat="30.34935706790692" lon="-5.7737387347568045"><ele>741.3333333333334</ele><time>2026-03-23T13:11:37Z</time></trkpt><trkpt lat="30.349260326794653" lon="-5.773971456223181"><ele>741.0</ele><time>2026-03-23T13:11:38Z</time></trkpt><trkpt lat="30.349169949100588" lon="-5.774205677635952"><ele>741.0</ele><time>2026-03-23T13:11:39Z</time></trkpt><trkpt lat="30.349083857573" lon="-5.774438030632029"><ele>741.0</ele><time>2026-03-23T13:11:40Z</time></trkpt><trkpt lat="30.348998758856602" lon="-5.774670049730895"><ele>741.0</ele><time>2026-03-23T13:11:41Z</time></trkpt><trkpt lat="30.348913335325488" lon="-5.774897159505923"><ele>740.6666666666666</ele><time>2026-03-23T13:11:42Z</time></trkpt><trkpt lat="30.348828100708886" lon="-5.775128157964158"><ele>740.3333333333333</ele><time>2026-03-23T13:11:43Z</time></trkpt><trkpt lat="30.348745369428553" lon="-5.7753579129596515"><ele>740.0</ele><time>2026-03-23T13:11:44Z</time></trkpt><trkpt lat="30.348665919806308" lon="-5.775572328665864"><ele>740.0</ele><time>2026-03-23T13:11:45Z</time></trkpt><trkpt lat="30.34858800903302" lon="-5.775779604495966"><ele>740.0</ele><time>2026-03-23T13:11:46Z</time></trkpt><trkpt lat="30.348509883454177" lon="-5.775990830364661"><ele>740.0</ele><time>2026-03-23T13:11:47Z</time></trkpt><trkpt lat="30.348431143128973" lon="-5.776210804437338"><ele>740.0</ele><time>2026-03-23T13:11:48Z</time></trkpt><trkpt lat="30.348351732160516" lon="-5.776434102167139"><ele>740.0</ele><time>2026-03-23T13:11:49Z</time></trkpt><trkpt lat="30.348271504101433" lon="-5.776656033268303"><ele>740.0</ele><time>2026-03-23T13:11:50Z</time></trkpt><trkpt lat="30.34818768600857" lon="-5.776878615867644"><ele>740.0</ele><time>2026-03-23T13:11:51Z</time></trkpt><trkpt lat="30.348106441388904" lon="-5.777102204371607"><ele>740.0</ele><time>2026-03-23T13:11:52Z</time></trkpt><trkpt lat="30.348028457002876" lon="-5.777326190393989"><ele>740.0</ele><time>2026-03-23T13:11:53Z</time></trkpt><trkpt lat="30.347962158538657" lon="-5.777532237021448"><ele>740.0</ele><time>2026-03-23T13:11:54Z</time></trkpt><trkpt lat="30.347907737495007" lon="-5.777718709108758"><ele>740.0</ele><time>2026-03-23T13:11:55Z</time></trkpt><trkpt lat="30.347855638218995" lon="-5.777908862344649"><ele>740.0</ele><time>2026-03-23T13:11:56Z</time></trkpt><trkpt lat="30.34780902744917" lon="-5.778102492325466"><ele>740.0</ele><time>2026-03-23T13:11:57Z</time></trkpt><trkpt lat="30.34776787087771" lon="-5.778308320330528"><ele>740.0</ele><time>2026-03-23T13:11:58Z</time></trkpt><trkpt lat="30.347729920510936" lon="-5.7785258408066245"><ele>740.0</ele><time>2026-03-23T13:11:59Z</time></trkpt><trkpt lat="30.34769423149214" lon="-5.778749963849706"><ele>740.0</ele><time>2026-03-23T13:12:00Z</time></trkpt><trkpt lat="30.347651453606225" lon="-5.778972919644992"><ele>740.0</ele><time>2026-03-23T13:12:01Z</time></trkpt><trkpt lat="30.347607689100133" lon="-5.779198499555207"><ele>740.0</ele><time>2026-03-23T13:12:02Z</time></trkpt><trkpt lat="30.347559214593065" lon="-5.77942990721271"><ele>739.6666666666666</ele><time>2026-03-23T13:12:03Z</time></trkpt><trkpt lat="30.34750807684878" lon="-5.7796621424789905"><ele>739.3333333333334</ele><time>2026-03-23T13:12:04Z</time></trkpt><trkpt lat="30.347462526087234" lon="-5.779895193613757"><ele>739.0</ele><time>2026-03-23T13:12:05Z</time></trkpt><trkpt lat="30.347415750430354" lon="-5.780131471582148"><ele>738.6666666666667</ele><time>2026-03-23T13:12:06Z</time></trkpt><trkpt lat="30.347370079067193" lon="-5.780370501927612"><ele>738.3333333333334</ele><time>2026-03-23T13:12:07Z</time></trkpt><trkpt lat="30.34732209420309" lon="-5.7806102298225674"><ele>738.0</ele><time>2026-03-23T13:12:08Z</time></trkpt><trkpt lat="30.34727168487791" lon="-5.78085035997075"><ele>737.6666666666666</ele><time>2026-03-23T13:12:09Z</time></trkpt><trkpt lat="30.347223271043323" lon="-5.781083754425349"><ele>737.3333333333333</ele><time>2026-03-23T13:12:10Z</time></trkpt><trkpt lat="30.347181701571817" lon="-5.781317444087541"><ele>737.0</ele><time>2026-03-23T13:12:11Z</time></trkpt><trkpt lat="30.34713944828765" lon="-5.78154980176606"><ele>737.0</ele><time>2026-03-23T13:12:12Z</time></trkpt><trkpt lat="30.34709289444914" lon="-5.781779783638098"><ele>737.0</ele><time>2026-03-23T13:12:13Z</time></trkpt><trkpt lat="30.347043470430545" lon="-5.782008213148886"><ele>737.0</ele><time>2026-03-23T13:12:14Z</time></trkpt><trkpt lat="30.34699587180964" lon="-5.782233162444102"><ele>736.0</ele><time>2026-03-23T13:12:15Z</time></trkpt><trkpt lat="30.34695227405458" lon="-5.782450839196252"><ele>735.0</ele><time>2026-03-23T13:12:16Z</time></trkpt><trkpt lat="30.34691481328916" lon="-5.782656642478559"><ele>734.0</ele><time>2026-03-23T13:12:17Z</time></trkpt><trkpt lat="30.346873708007504" lon="-5.782868182248112"><ele>733.6666666666666</ele><time>2026-03-23T13:12:18Z</time></trkpt><trkpt lat="30.346829786488502" lon="-5.783068994947438"><ele>733.3333333333334</ele><time>2026-03-23T13:12:19Z</time></trkpt><trkpt lat="30.34679052288798" lon="-5.783269711267299"><ele>733.0</ele><time>2026-03-23T13:12:20Z</time></trkpt><trkpt lat="30.346752979065105" lon="-5.783479826841517"><ele>732.6666666666667</ele><time>2026-03-23T13:12:21Z</time></trkpt><trkpt lat="30.34671904562781" lon="-5.783681608575267"><ele>732.3333333333334</ele><time>2026-03-23T13:12:22Z</time></trkpt><trkpt lat="30.34667622338484" lon="-5.78389629428438"><ele>732.0</ele><time>2026-03-23T13:12:23Z</time></trkpt><trkpt lat="30.346634794697525" lon="-5.784115385583772"><ele>732.0</ele><time>2026-03-23T13:12:24Z</time></trkpt><trkpt lat="30.34658499953381" lon="-5.7843455806150645"><ele>732.0</ele><time>2026-03-23T13:12:25Z</time></trkpt><trkpt lat="30.346533970831903" lon="-5.784575129722319"><ele>732.0</ele><time>2026-03-23T13:12:26Z</time></trkpt><trkpt lat="30.34648280117588" lon="-5.784810668403693"><ele>732.0</ele><time>2026-03-23T13:12:27Z</time></trkpt><trkpt lat="30.346431966268387" lon="-5.785059818129241"><ele>732.0</ele><time>2026-03-23T13:12:28Z</time></trkpt><trkpt lat="30.34637715370972" lon="-5.7853130332701115"><ele>732.0</ele><time>2026-03-23T13:12:29Z</time></trkpt><trkpt lat="30.34632860403863" lon="-5.785558739959904"><ele>732.0</ele><time>2026-03-23T13:12:30Z</time></trkpt><trkpt lat="30.346283084773134" lon="-5.785805868367359"><ele>732.0</ele><time>2026-03-23T13:12:31Z</time></trkpt><trkpt lat="30.346239294915275" lon="-5.786048148764281"><ele>732.0</ele><time>2026-03-23T13:12:32Z</time></trkpt><trkpt lat="30.346192306681544" lon="-5.786289027174235"><ele>731.6666666666666</ele><time>2026-03-23T13:12:33Z</time></trkpt><trkpt lat="30.34614584545154" lon="-5.786523309910737"><ele>731.3333333333333</ele><time>2026-03-23T13:12:34Z</time></trkpt><trkpt lat="30.3460934118612" lon="-5.786768173658761"><ele>731.0</ele><time>2026-03-23T13:12:35Z</time></trkpt><trkpt lat="30.346044800817356" lon="-5.787012799786157"><ele>731.0</ele><time>2026-03-23T13:12:36Z</time></trkpt><trkpt lat="30.34599286468618" lon="-5.7872606529774"><ele>731.0</ele><time>2026-03-23T13:12:37Z</time></trkpt><trkpt lat="30.34593419075079" lon="-5.787516398899873"><ele>731.0</ele><time>2026-03-23T13:12:38Z</time></trkpt><trkpt lat="30.345861419113323" lon="-5.787766630678054"><ele>730.3333333333333</ele><time>2026-03-23T13:12:39Z</time></trkpt><trkpt lat="30.345773076318096" lon="-5.788003716864826"><ele>729.6666666666666</ele><time>2026-03-23T13:12:40Z</time></trkpt><trkpt lat="30.345678527466426" lon="-5.78823534654906"><ele>729.0</ele><time>2026-03-23T13:12:41Z</time></trkpt><trkpt lat="30.345585034704794" lon="-5.788465366339691"><ele>729.0</ele><time>2026-03-23T13:12:42Z</time></trkpt><trkpt lat="30.345489891168754" lon="-5.788696672516979"><ele>729.0</ele><time>2026-03-23T13:12:43Z</time></trkpt><trkpt lat="30.345394873192042" lon="-5.788927356693175"><ele>729.0</ele><time>2026-03-23T13:12:44Z</time></trkpt><trkpt lat="30.345293766974027" lon="-5.789151859731652"><ele>727.6666666666666</ele><time>2026-03-23T13:12:45Z</time></trkpt><trkpt lat="30.345182556760697" lon="-5.789367144172596"><ele>726.3333333333333</ele><time>2026-03-23T13:12:46Z</time></trkpt><trkpt lat="30.34506023846153" lon="-5.789567689883385"><ele>725.0</ele><time>2026-03-23T13:12:47Z</time></trkpt><trkpt lat="30.344934296136227" lon="-5.7897658233476434"><ele>725.0</ele><time>2026-03-23T13:12:48Z</time></trkpt><trkpt lat="30.344806789993694" lon="-5.789961784683511"><ele>725.0</ele><time>2026-03-23T13:12:49Z</time></trkpt><trkpt lat="30.34468582296899" lon="-5.790133375943189"><ele>725.0</ele><time>2026-03-23T13:12:50Z</time></trkpt><trkpt lat="30.344578433659432" lon="-5.790276064084206"><ele>726.0</ele><time>2026-03-23T13:12:51Z</time></trkpt><trkpt lat="30.344468812840795" lon="-5.790422231891383"><ele>727.0</ele><time>2026-03-23T13:12:52Z</time></trkpt><trkpt lat="30.34435623207299" lon="-5.7905771395014565"><ele>728.0</ele><time>2026-03-23T13:12:53Z</time></trkpt><trkpt lat="30.344230803908964" lon="-5.790734877263015"><ele>728.0</ele><time>2026-03-23T13:12:54Z</time></trkpt><trkpt lat="30.344097726461207" lon="-5.790894471235994"><ele>728.0</ele><time>2026-03-23T13:12:55Z</time></trkpt><trkpt lat="30.34395535702086" lon="-5.79105290677466"><ele>728.0</ele><time>2026-03-23T13:12:56Z</time></trkpt><trkpt lat="30.343804608052242" lon="-5.791201344870566"><ele>727.6666666666666</ele><time>2026-03-23T13:12:57Z</time></trkpt><trkpt lat="30.343645906115565" lon="-5.791349303929012"><ele>727.3333333333334</ele><time>2026-03-23T13:12:58Z</time></trkpt><trkpt lat="30.343487543589834" lon="-5.791506654422992"><ele>727.0</ele><time>2026-03-23T13:12:59Z</time></trkpt><trkpt lat="30.34332554625217" lon="-5.7916683008610255"><ele>727.0</ele><time>2026-03-23T13:13:00Z</time></trkpt><trkpt lat="30.34316143964525" lon="-5.791831423100876"><ele>727.0</ele><time>2026-03-23T13:13:01Z</time></trkpt><trkpt lat="30.342996567078877" lon="-5.7919943948347585"><ele>727.0</ele><time>2026-03-23T13:13:02Z</time></trkpt><trkpt lat="30.34282133099255" lon="-5.7921616955990265"><ele>725.5</ele><time>2026-03-23T13:13:03Z</time></trkpt><trkpt lat="30.342648398989002" lon="-5.792329921037044"><ele>724.0</ele><time>2026-03-23T13:13:04Z</time></trkpt><trkpt lat="30.342472925468474" lon="-5.792502338586773"><ele>725.5</ele><time>2026-03-23T13:13:05Z</time></trkpt><trkpt lat="30.34229822567949" lon="-5.792673772937032"><ele>727.0</ele><time>2026-03-23T13:13:06Z</time></trkpt><trkpt lat="30.3421227026099" lon="-5.792841188257361"><ele>727.0</ele><time>2026-03-23T13:13:07Z</time></trkpt><trkpt lat="30.341956622146476" lon="-5.793000317097509"><ele>727.0</ele><time>2026-03-23T13:13:08Z</time></trkpt><trkpt lat="30.34179189914799" lon="-5.793156469091012"><ele>727.0</ele><time>2026-03-23T13:13:09Z</time></trkpt><trkpt lat="30.341629832508165" lon="-5.793315907497001"><ele>727.0</ele><time>2026-03-23T13:13:10Z</time></trkpt><trkpt lat="30.341468037307028" lon="-5.793475245063562"><ele>727.0</ele><time>2026-03-23T13:13:11Z</time></trkpt><trkpt lat="30.34130323918261" lon="-5.7936305694177195"><ele>727.0</ele><time>2026-03-23T13:13:12Z</time></trkpt><trkpt lat="30.341138529580903" lon="-5.793787005234697"><ele>726.3333333333334</ele><time>2026-03-23T13:13:13Z</time></trkpt><trkpt lat="30.34097626945583" lon="-5.793946845032439"><ele>725.6666666666666</ele><time>2026-03-23T13:13:14Z</time></trkpt><trkpt lat="30.34081366936156" lon="-5.794101510960054"><ele>725.0</ele><time>2026-03-23T13:13:15Z</time></trkpt><trkpt lat="30.340653462911675" lon="-5.794258262964178"><ele>726.0</ele><time>2026-03-23T13:13:16Z</time></trkpt><trkpt lat="30.34049583863841" lon="-5.794411439513219"><ele>727.0</ele><time>2026-03-23T13:13:17Z</time></trkpt><trkpt lat="30.340348850777758" lon="-5.7945542482644585"><ele>728.0</ele><time>2026-03-23T13:13:18Z</time></trkpt><trkpt lat="30.340223912040003" lon="-5.794675702702953"><ele>728.0</ele><time>2026-03-23T13:13:19Z</time></trkpt><trkpt lat="30.34011404582089" lon="-5.794787816286515"><ele>728.0</ele><time>2026-03-23T13:13:20Z</time></trkpt><trkpt lat="30.340016284670696" lon="-5.794891380674935"><ele>728.0</ele><time>2026-03-23T13:13:21Z</time></trkpt><trkpt lat="30.33992367347688" lon="-5.794986169941448"><ele>728.0</ele><time>2026-03-23T13:13:22Z</time></trkpt><trkpt lat="30.339836532296673" lon="-5.7950744357940875"><ele>728.0</ele><time>2026-03-23T13:13:23Z</time></trkpt><trkpt lat="30.339750940573172" lon="-5.795163993036787"><ele>728.0</ele><time>2026-03-23T13:13:24Z</time></trkpt><trkpt lat="30.339668060972016" lon="-5.795256708987397"><ele>728.0</ele><time>2026-03-23T13:13:25Z</time></trkpt><trkpt lat="30.33958640509157" lon="-5.7953505644798415"><ele>728.0</ele><time>2026-03-23T13:13:26Z</time></trkpt><trkpt lat="30.339499917091644" lon="-5.79545290327303"><ele>727.25</ele><time>2026-03-23T13:13:27Z</time></trkpt><trkpt lat="30.339404307202983" lon="-5.7955655193467495"><ele>726.5</ele><time>2026-03-23T13:13:28Z</time></trkpt><trkpt lat="30.339301569226485" lon="-5.795692810771615"><ele>725.75</ele><time>2026-03-23T13:13:29Z</time></trkpt><trkpt lat="30.33920280147975" lon="-5.795824693257067"><ele>725.0</ele><time>2026-03-23T13:13:30Z</time></trkpt><trkpt lat="30.33911065871176" lon="-5.79596185007624"><ele>725.0</ele><time>2026-03-23T13:13:31Z</time></trkpt><trkpt lat="30.339023129850464" lon="-5.796100576849519"><ele>725.0</ele><time>2026-03-23T13:13:32Z</time></trkpt><trkpt lat="30.33893735372766" lon="-5.79624422126842"><ele>725.0</ele><time>2026-03-23T13:13:33Z</time></trkpt><trkpt lat="30.338854683063914" lon="-5.796391272587089"><ele>725.0</ele><time>2026-03-23T13:13:34Z</time></trkpt><trkpt lat="30.338774515539576" lon="-5.796536773144729"><ele>725.0</ele><time>2026-03-23T13:13:35Z</time></trkpt><trkpt lat="30.338694798142658" lon="-5.796684847719615"><ele>725.0</ele><time>2026-03-23T13:13:36Z</time></trkpt><trkpt lat="30.338621516219323" lon="-5.796832782991571"><ele>725.0</ele><time>2026-03-23T13:13:37Z</time></trkpt><trkpt lat="30.338546576259873" lon="-5.79698114639312"><ele>725.25</ele><time>2026-03-23T13:13:38Z</time></trkpt><trkpt lat="30.338473743982167" lon="-5.797130179601442"><ele>725.5</ele><time>2026-03-23T13:13:39Z</time></trkpt><trkpt lat="30.338404166557858" lon="-5.79727957981104"><ele>725.75</ele><time>2026-03-23T13:13:40Z</time></trkpt><trkpt lat="30.33833320645273" lon="-5.797428557572779"><ele>726.0</ele><time>2026-03-23T13:13:41Z</time></trkpt><trkpt lat="30.33825955852242" lon="-5.797577067089934"><ele>725.6666666666666</ele><time>2026-03-23T13:13:42Z</time></trkpt><trkpt lat="30.33818598850583" lon="-5.797727022244593"><ele>725.3333333333333</ele><time>2026-03-23T13:13:43Z</time></trkpt><trkpt lat="30.33810951664322" lon="-5.7978757121328774"><ele>725.0</ele><time>2026-03-23T13:13:44Z</time></trkpt><trkpt lat="30.338031458014296" lon="-5.798026578418206"><ele>724.6666666666666</ele><time>2026-03-23T13:13:45Z</time></trkpt><trkpt lat="30.337951430499796" lon="-5.798181318309816"><ele>724.3333333333334</ele><time>2026-03-23T13:13:46Z</time></trkpt><trkpt lat="30.337873841053113" lon="-5.798333061063559"><ele>724.0</ele><time>2026-03-23T13:13:47Z</time></trkpt><trkpt lat="30.33779709798894" lon="-5.7984925520999955"><ele>723.6666666666667</ele><time>2026-03-23T13:13:48Z</time></trkpt><trkpt lat="30.337722077445992" lon="-5.798649507282914"><ele>723.3333333333334</ele><time>2026-03-23T13:13:49Z</time></trkpt><trkpt lat="30.33764461065927" lon="-5.798808396183741"><ele>723.0</ele><time>2026-03-23T13:13:50Z</time></trkpt><trkpt lat="30.337566058967894" lon="-5.798972145210736"><ele>723.0</ele><time>2026-03-23T13:13:51Z</time></trkpt><trkpt lat="30.337482836067615" lon="-5.7991350933808"><ele>723.0</ele><time>2026-03-23T13:13:52Z</time></trkpt><trkpt lat="30.337398176335924" lon="-5.799297024360303"><ele>723.0</ele><time>2026-03-23T13:13:53Z</time></trkpt><trkpt lat="30.337316948277977" lon="-5.799462909445883"><ele>723.3333333333334</ele><time>2026-03-23T13:13:54Z</time></trkpt><trkpt lat="30.337236490401803" lon="-5.799625869713771"><ele>723.6666666666667</ele><time>2026-03-23T13:13:55Z</time></trkpt><trkpt lat="30.33715939284825" lon="-5.799781564249496"><ele>724.0</ele><time>2026-03-23T13:13:56Z</time></trkpt><trkpt lat="30.33708136677985" lon="-5.799931912036773"><ele>724.5</ele><time>2026-03-23T13:13:57Z</time></trkpt><trkpt lat="30.337005518809374" lon="-5.800082868343182"><ele>725.0</ele><time>2026-03-23T13:13:58Z</time></trkpt><trkpt lat="30.33693378605677" lon="-5.8002297846281845"><ele>725.5</ele><time>2026-03-23T13:13:59Z</time></trkpt><trkpt lat="30.336863285656" lon="-5.800378460750444"><ele>726.0</ele><time>2026-03-23T13:14:00Z</time></trkpt><trkpt lat="30.336789748363127" lon="-5.800520991003538"><ele>726.0</ele><time>2026-03-23T13:14:01Z</time></trkpt><trkpt lat="30.336723760815595" lon="-5.8006460432015885"><ele>726.0</ele><time>2026-03-23T13:14:02Z</time></trkpt><trkpt lat="30.33665683874173" lon="-5.800775793969087"><ele>726.0</ele><time>2026-03-23T13:14:03Z</time></trkpt><trkpt lat="30.336590915245115" lon="-5.800913900157364"><ele>726.0</ele><time>2026-03-23T13:14:04Z</time></trkpt><trkpt lat="30.336520196263894" lon="-5.801052482343"><ele>725.5</ele><time>2026-03-23T13:14:05Z</time></trkpt><trkpt lat="30.33645081621753" lon="-5.801193245717772"><ele>725.0</ele><time>2026-03-23T13:14:06Z</time></trkpt><trkpt lat="30.336383426581236" lon="-5.8013322056264"><ele>724.5</ele><time>2026-03-23T13:14:07Z</time></trkpt><trkpt lat="30.33631758688705" lon="-5.8014755576493675"><ele>724.0</ele><time>2026-03-23T13:14:08Z</time></trkpt><trkpt lat="30.33624817396995" lon="-5.801621829824174"><ele>724.0</ele><time>2026-03-23T13:14:09Z</time></trkpt><trkpt lat="30.336168736638182" lon="-5.8017734538717844"><ele>724.0</ele><time>2026-03-23T13:14:10Z</time></trkpt><trkpt lat="30.33609425180349" lon="-5.801924948719224"><ele>724.0</ele><time>2026-03-23T13:14:11Z</time></trkpt><trkpt lat="30.3360194151441" lon="-5.802074717497367"><ele>724.0</ele><time>2026-03-23T13:14:12Z</time></trkpt><trkpt lat="30.33594664455921" lon="-5.802222628191397"><ele>724.0</ele><time>2026-03-23T13:14:13Z</time></trkpt><trkpt lat="30.33587201571289" lon="-5.802366997557094"><ele>724.0</ele><time>2026-03-23T13:14:14Z</time></trkpt><trkpt lat="30.335796776254146" lon="-5.802512416979163"><ele>724.0</ele><time>2026-03-23T13:14:15Z</time></trkpt><trkpt lat="30.335724610370576" lon="-5.80266471028242"><ele>725.0</ele><time>2026-03-23T13:14:16Z</time></trkpt><trkpt lat="30.33565300904906" lon="-5.802822654849502"><ele>726.0</ele><time>2026-03-23T13:14:17Z</time></trkpt><trkpt lat="30.33558935240195" lon="-5.802980681874605"><ele>727.0</ele><time>2026-03-23T13:14:18Z</time></trkpt><trkpt lat="30.33552559050082" lon="-5.803141771341616"><ele>727.6666666666667</ele><time>2026-03-23T13:14:19Z</time></trkpt><trkpt lat="30.335460983496787" lon="-5.8033047355031036"><ele>728.3333333333334</ele><time>2026-03-23T13:14:20Z</time></trkpt><trkpt lat="30.335398762465505" lon="-5.803469361949376"><ele>729.0</ele><time>2026-03-23T13:14:21Z</time></trkpt><trkpt lat="30.335335839971215" lon="-5.8036355243110025"><ele>729.0</ele><time>2026-03-23T13:14:22Z</time></trkpt><trkpt lat="30.33528039395061" lon="-5.803805195072051"><ele>729.0</ele><time>2026-03-23T13:14:23Z</time></trkpt><trkpt lat="30.33522477840294" lon="-5.803976757115634"><ele>729.0</ele><time>2026-03-23T13:14:24Z</time></trkpt><trkpt lat="30.335167219639477" lon="-5.804148370292107"><ele>729.0</ele><time>2026-03-23T13:14:25Z</time></trkpt><trkpt lat="30.335111422492776" lon="-5.804314667975625"><ele>729.0</ele><time>2026-03-23T13:14:26Z</time></trkpt><trkpt lat="30.33505263215335" lon="-5.804487005056202"><ele>729.0</ele><time>2026-03-23T13:14:27Z</time></trkpt><trkpt lat="30.33499198490296" lon="-5.804655566629006"><ele>728.6666666666666</ele><time>2026-03-23T13:14:28Z</time></trkpt><trkpt lat="30.334927793503915" lon="-5.804822601228245"><ele>728.3333333333333</ele><time>2026-03-23T13:14:29Z</time></trkpt><trkpt lat="30.334863491720427" lon="-5.804989344420251"><ele>728.0</ele><time>2026-03-23T13:14:30Z</time></trkpt><trkpt lat="30.33480380193869" lon="-5.805162774473133"><ele>728.0</ele><time>2026-03-23T13:14:31Z</time></trkpt><trkpt lat="30.334744191120965" lon="-5.80533925171651"><ele>728.0</ele><time>2026-03-23T13:14:32Z</time></trkpt><trkpt lat="30.33468366196998" lon="-5.805507903114815"><ele>728.0</ele><time>2026-03-23T13:14:33Z</time></trkpt><trkpt lat="30.334616105144487" lon="-5.80567874573791"><ele>728.0</ele><time>2026-03-23T13:14:34Z</time></trkpt><trkpt lat="30.334550618664192" lon="-5.805861131682677"><ele>728.0</ele><time>2026-03-23T13:14:35Z</time></trkpt><trkpt lat="30.334488977977724" lon="-5.806042936731336"><ele>728.0</ele><time>2026-03-23T13:14:36Z</time></trkpt><trkpt lat="30.33442510502333" lon="-5.806229828455188"><ele>726.6666666666666</ele><time>2026-03-23T13:14:37Z</time></trkpt><trkpt lat="30.334358705753978" lon="-5.806414993774007"><ele>725.3333333333334</ele><time>2026-03-23T13:14:38Z</time></trkpt><trkpt lat="30.33428969748591" lon="-5.8066012951569155"><ele>724.0</ele><time>2026-03-23T13:14:39Z</time></trkpt><trkpt lat="30.334224071218607" lon="-5.806787280962426"><ele>723.6666666666667</ele><time>2026-03-23T13:14:40Z</time></trkpt><trkpt lat="30.334154261323956" lon="-5.806974557181108"><ele>723.3333333333334</ele><time>2026-03-23T13:14:41Z</time></trkpt><trkpt lat="30.334071172716477" lon="-5.807153433387674"><ele>723.0</ele><time>2026-03-23T13:14:42Z</time></trkpt><trkpt lat="30.333960688649825" lon="-5.807317229782922"><ele>722.3333333333334</ele><time>2026-03-23T13:14:43Z</time></trkpt><trkpt lat="30.333837065708494" lon="-5.807466968035383"><ele>721.6666666666667</ele><time>2026-03-23T13:14:44Z</time></trkpt><trkpt lat="30.333709996271935" lon="-5.807606286535937"><ele>721.0</ele><time>2026-03-23T13:14:45Z</time></trkpt><trkpt lat="30.333579112993863" lon="-5.8077514033186945"><ele>721.0</ele><time>2026-03-23T13:14:46Z</time></trkpt><trkpt lat="30.333451716589245" lon="-5.807902969543843"><ele>721.0</ele><time>2026-03-23T13:14:47Z</time></trkpt><trkpt lat="30.333320413737795" lon="-5.8080675217003614"><ele>721.0</ele><time>2026-03-23T13:14:48Z</time></trkpt><trkpt lat="30.33319064580974" lon="-5.808232522762343"><ele>721.0</ele><time>2026-03-23T13:14:49Z</time></trkpt><trkpt lat="30.333061696871358" lon="-5.808400752953703"><ele>721.0</ele><time>2026-03-23T13:14:50Z</time></trkpt><trkpt lat="30.332929485302977" lon="-5.808566977436521"><ele>721.0</ele><time>2026-03-23T13:14:51Z</time></trkpt><trkpt lat="30.33279714966936" lon="-5.808730378089711"><ele>721.3333333333334</ele><time>2026-03-23T13:14:52Z</time></trkpt><trkpt lat="30.33266306563389" lon="-5.808896464450475"><ele>721.6666666666666</ele><time>2026-03-23T13:14:53Z</time></trkpt><trkpt lat="30.33252428130376" lon="-5.809060061889031"><ele>722.0</ele><time>2026-03-23T13:14:54Z</time></trkpt><trkpt lat="30.332390412467575" lon="-5.8092238038182975"><ele>720.6666666666666</ele><time>2026-03-23T13:14:55Z</time></trkpt><trkpt lat="30.33225576860999" lon="-5.809389830180591"><ele>719.3333333333334</ele><time>2026-03-23T13:14:56Z</time></trkpt><trkpt lat="30.33212245318896" lon="-5.8095546660783235"><ele>718.0</ele><time>2026-03-23T13:14:57Z</time></trkpt><trkpt lat="30.33198955200488" lon="-5.809718815488618"><ele>718.6666666666667</ele><time>2026-03-23T13:14:58Z</time></trkpt><trkpt lat="30.33185399825832" lon="-5.809881746778836"><ele>719.3333333333334</ele><time>2026-03-23T13:14:59Z</time></trkpt><trkpt lat="30.33171182538952" lon="-5.810048578919157"><ele>720.0</ele><time>2026-03-23T13:15:00Z</time></trkpt><trkpt lat="30.331574896050906" lon="-5.810210217755689"><ele>720.0</ele><time>2026-03-23T13:15:01Z</time></trkpt><trkpt lat="30.331441193197776" lon="-5.810369605453257"><ele>720.0</ele><time>2026-03-23T13:15:02Z</time></trkpt><trkpt lat="30.331306883906706" lon="-5.810531877295163"><ele>720.0</ele><time>2026-03-23T13:15:03Z</time></trkpt><trkpt lat="30.33116777816476" lon="-5.810688692312477"><ele>720.0</ele><time>2026-03-23T13:15:04Z</time></trkpt><trkpt lat="30.331022826465077" lon="-5.810842243486552"><ele>720.0</ele><time>2026-03-23T13:15:05Z</time></trkpt><trkpt lat="30.330870628508006" lon="-5.810992117580068"><ele>720.0</ele><time>2026-03-23T13:15:06Z</time></trkpt><trkpt lat="30.330723971350736" lon="-5.811141286235113"><ele>720.0</ele><time>2026-03-23T13:15:07Z</time></trkpt><trkpt lat="30.33058387219809" lon="-5.811290660203136"><ele>720.0</ele><time>2026-03-23T13:15:08Z</time></trkpt><trkpt lat="30.330441657884087" lon="-5.811439704920409"><ele>720.0</ele><time>2026-03-23T13:15:09Z</time></trkpt><trkpt lat="30.33029648269921" lon="-5.811586666366872"><ele>719.6666666666666</ele><time>2026-03-23T13:15:10Z</time></trkpt><trkpt lat="30.33015406565418" lon="-5.811731676508801"><ele>719.3333333333333</ele><time>2026-03-23T13:15:11Z</time></trkpt><trkpt lat="30.33001049932773" lon="-5.811884574249417"><ele>719.0</ele><time>2026-03-23T13:15:12Z</time></trkpt><trkpt lat="30.329869618588745" lon="-5.812033274472256"><ele>719.0</ele><time>2026-03-23T13:15:13Z</time></trkpt><trkpt lat="30.32972823510217" lon="-5.812179109637629"><ele>719.0</ele><time>2026-03-23T13:15:14Z</time></trkpt><trkpt lat="30.329588098001135" lon="-5.8123205102521505"><ele>719.0</ele><time>2026-03-23T13:15:15Z</time></trkpt><trkpt lat="30.329450299692432" lon="-5.812468380716577"><ele>719.6666666666666</ele><time>2026-03-23T13:15:16Z</time></trkpt><trkpt lat="30.329321835414685" lon="-5.812616913895663"><ele>720.3333333333334</ele><time>2026-03-23T13:15:17Z</time></trkpt><trkpt lat="30.329201372481553" lon="-5.812788241013978"><ele>721.0</ele><time>2026-03-23T13:15:18Z</time></trkpt><trkpt lat="30.329090707303447" lon="-5.812970365852263"><ele>721.6666666666667</ele><time>2026-03-23T13:15:19Z</time></trkpt><trkpt lat="30.328977157642715" lon="-5.813137244582606"><ele>722.3333333333334</ele><time>2026-03-23T13:15:20Z</time></trkpt><trkpt lat="30.32886421226995" lon="-5.813313393701082"><ele>723.0</ele><time>2026-03-23T13:15:21Z</time></trkpt><trkpt lat="30.328751080143235" lon="-5.8134891263110795"><ele>723.3333333333334</ele><time>2026-03-23T13:15:22Z</time></trkpt><trkpt lat="30.328639273204473" lon="-5.813668891539614"><ele>723.6666666666667</ele><time>2026-03-23T13:15:23Z</time></trkpt><trkpt lat="30.328527963974313" lon="-5.8138481269065405"><ele>724.0</ele><time>2026-03-23T13:15:24Z</time></trkpt><trkpt lat="30.328416439950352" lon="-5.814026481704708"><ele>724.0</ele><time>2026-03-23T13:15:25Z</time></trkpt><trkpt lat="30.32830248231883" lon="-5.814205725342632"><ele>724.0</ele><time>2026-03-23T13:15:26Z</time></trkpt><trkpt lat="30.3281864169297" lon="-5.814382079376223"><ele>724.0</ele><time>2026-03-23T13:15:27Z</time></trkpt><trkpt lat="30.328069868579306" lon="-5.814561672617257"><ele>722.6666666666667</ele><time>2026-03-23T13:15:28Z</time></trkpt><trkpt lat="30.327956131129792" lon="-5.814740535828423"><ele>721.3333333333334</ele><time>2026-03-23T13:15:29Z</time></trkpt><trkpt lat="30.32784486959105" lon="-5.814922965936274"><ele>720.0</ele><time>2026-03-23T13:15:30Z</time></trkpt><trkpt lat="30.327735009212798" lon="-5.815105885413628"><ele>718.6666666666666</ele><time>2026-03-23T13:15:31Z</time></trkpt><trkpt lat="30.327623489874394" lon="-5.815284548764039"><ele>717.3333333333333</ele><time>2026-03-23T13:15:32Z</time></trkpt><trkpt lat="30.327503512739778" lon="-5.8154606985211155"><ele>716.0</ele><time>2026-03-23T13:15:33Z</time></trkpt><trkpt lat="30.327382850169275" lon="-5.81564466092014"><ele>716.0</ele><time>2026-03-23T13:15:34Z</time></trkpt><trkpt lat="30.327266661911487" lon="-5.8158282886294375"><ele>716.0</ele><time>2026-03-23T13:15:35Z</time></trkpt><trkpt lat="30.327147623804493" lon="-5.8160043674950845"><ele>716.0</ele><time>2026-03-23T13:15:36Z</time></trkpt><trkpt lat="30.327024971279254" lon="-5.8161777883437376"><ele>718.3333333333333</ele><time>2026-03-23T13:15:37Z</time></trkpt><trkpt lat="30.32690987552943" lon="-5.8163537868211765"><ele>720.6666666666666</ele><time>2026-03-23T13:15:38Z</time></trkpt><trkpt lat="30.326801289264573" lon="-5.81653004505863"><ele>723.0</ele><time>2026-03-23T13:15:39Z</time></trkpt><trkpt lat="30.32669708874218" lon="-5.816708646637996"><ele>721.0</ele><time>2026-03-23T13:15:40Z</time></trkpt><trkpt lat="30.32659470509778" lon="-5.8168882598191205"><ele>719.0</ele><time>2026-03-23T13:15:41Z</time></trkpt><trkpt lat="30.32649186537068" lon="-5.817052812525996"><ele>717.0</ele><time>2026-03-23T13:15:42Z</time></trkpt><trkpt lat="30.32639309998446" lon="-5.817219257332858"><ele>720.3333333333334</ele><time>2026-03-23T13:15:43Z</time></trkpt><trkpt lat="30.32629451339588" lon="-5.817387177059499"><ele>723.6666666666667</ele><time>2026-03-23T13:15:44Z</time></trkpt><trkpt lat="30.32619549617199" lon="-5.817550250992705"><ele>727.0</ele><time>2026-03-23T13:15:45Z</time></trkpt><trkpt lat="30.32609793478683" lon="-5.817721377405943"><ele>727.0</ele><time>2026-03-23T13:15:46Z</time></trkpt><trkpt lat="30.325997624069416" lon="-5.81789621678154"><ele>727.0</ele><time>2026-03-23T13:15:47Z</time></trkpt><trkpt lat="30.325907656971797" lon="-5.818072345942569"><ele>727.0</ele><time>2026-03-23T13:15:48Z</time></trkpt><trkpt lat="30.32584028522029" lon="-5.818270991438283"><ele>727.0</ele><time>2026-03-23T13:15:49Z</time></trkpt><trkpt lat="30.325793471219477" lon="-5.818476150355751"><ele>727.0</ele><time>2026-03-23T13:15:50Z</time></trkpt><trkpt lat="30.325749020868695" lon="-5.81868353666081"><ele>727.0</ele><time>2026-03-23T13:15:51Z</time></trkpt><trkpt lat="30.325703947232512" lon="-5.818895556627389"><ele>724.6666666666667</ele><time>2026-03-23T13:15:52Z</time></trkpt><trkpt lat="30.325661063156957" lon="-5.81910883302874"><ele>722.3333333333334</ele><time>2026-03-23T13:15:53Z</time></trkpt><trkpt lat="30.325638073612698" lon="-5.819325776931697"><ele>720.0</ele><time>2026-03-23T13:15:54Z</time></trkpt><trkpt lat="30.325626604994817" lon="-5.819581140550676"><ele>718.5</ele><time>2026-03-23T13:15:55Z</time></trkpt><trkpt lat="30.32564028324804" lon="-5.819869011025647"><ele>717.0</ele><time>2026-03-23T13:15:56Z</time></trkpt><trkpt lat="30.325656415767714" lon="-5.820171641388241"><ele>717.0</ele><time>2026-03-23T13:15:57Z</time></trkpt><trkpt lat="30.32566882718937" lon="-5.820470337148687"><ele>717.0</ele><time>2026-03-23T13:15:58Z</time></trkpt><trkpt lat="30.325680663787246" lon="-5.820754825682764"><ele>718.5</ele><time>2026-03-23T13:15:59Z</time></trkpt><trkpt lat="30.32569557866695" lon="-5.821030468880133"><ele>720.0</ele><time>2026-03-23T13:16:00Z</time></trkpt><trkpt lat="30.325712787581672" lon="-5.821280427435487"><ele>720.0</ele><time>2026-03-23T13:16:01Z</time></trkpt><trkpt lat="30.32571816956785" lon="-5.821512980631427"><ele>720.0</ele><time>2026-03-23T13:16:02Z</time></trkpt><trkpt lat="30.32570194029957" lon="-5.821731402705468"><ele>720.0</ele><time>2026-03-23T13:16:03Z</time></trkpt><trkpt lat="30.325657633481544" lon="-5.821939574537215"><ele>717.6666666666666</ele><time>2026-03-23T13:16:04Z</time></trkpt><trkpt lat="30.325593834393466" lon="-5.822136918721863"><ele>715.3333333333333</ele><time>2026-03-23T13:16:05Z</time></trkpt><trkpt lat="30.325521184738175" lon="-5.822307188525011"><ele>713.0</ele><time>2026-03-23T13:16:06Z</time></trkpt><trkpt lat="30.32543334815198" lon="-5.822452950517671"><ele>715.0</ele><time>2026-03-23T13:16:07Z</time></trkpt><trkpt lat="30.325324335270494" lon="-5.822579849296504"><ele>717.0</ele><time>2026-03-23T13:16:08Z</time></trkpt><trkpt lat="30.325185927325094" lon="-5.822694800911855"><ele>719.0</ele><time>2026-03-23T13:16:09Z</time></trkpt><trkpt lat="30.32503553263705" lon="-5.822813350306111"><ele>719.0</ele><time>2026-03-23T13:16:10Z</time></trkpt><trkpt lat="30.32488233270513" lon="-5.822948112876796"><ele>719.0</ele><time>2026-03-23T13:16:11Z</time></trkpt><trkpt lat="30.32474066764757" lon="-5.82308802458402"><ele>719.0</ele><time>2026-03-23T13:16:12Z</time></trkpt><trkpt lat="30.324606848091435" lon="-5.8232564028348985"><ele>719.0</ele><time>2026-03-23T13:16:13Z</time></trkpt><trkpt lat="30.32447721566937" lon="-5.823431686033082"><ele>719.0</ele><time>2026-03-23T13:16:14Z</time></trkpt><trkpt lat="30.324340335301823" lon="-5.823608367034442"><ele>719.0</ele><time>2026-03-23T13:16:15Z</time></trkpt><trkpt lat="30.32419363381026" lon="-5.8237796385647105"><ele>719.0</ele><time>2026-03-23T13:16:16Z</time></trkpt><trkpt lat="30.324045943825194" lon="-5.823942910799306"><ele>719.0</ele><time>2026-03-23T13:16:17Z</time></trkpt><trkpt lat="30.323898680131776" lon="-5.824095362843075"><ele>719.0</ele><time>2026-03-23T13:16:18Z</time></trkpt><trkpt lat="30.323759760793674" lon="-5.824229495097228"><ele>718.6666666666666</ele><time>2026-03-23T13:16:19Z</time></trkpt><trkpt lat="30.323628329857627" lon="-5.824357789970725"><ele>718.3333333333334</ele><time>2026-03-23T13:16:20Z</time></trkpt><trkpt lat="30.32350551669734" lon="-5.824483359326409"><ele>718.0</ele><time>2026-03-23T13:16:21Z</time></trkpt><trkpt lat="30.323386463315398" lon="-5.82461885305026"><ele>718.0</ele><time>2026-03-23T13:16:22Z</time></trkpt><trkpt lat="30.32326832225144" lon="-5.824757321522473"><ele>718.0</ele><time>2026-03-23T13:16:23Z</time></trkpt><trkpt lat="30.323142320094302" lon="-5.824910747679403"><ele>718.0</ele><time>2026-03-23T13:16:24Z</time></trkpt><trkpt lat="30.323017910268653" lon="-5.825077558467692"><ele>719.0</ele><time>2026-03-23T13:16:25Z</time></trkpt><trkpt lat="30.322901213856984" lon="-5.825236259384523"><ele>720.0</ele><time>2026-03-23T13:16:26Z</time></trkpt><trkpt lat="30.32277456503441" lon="-5.825383405389614"><ele>721.0</ele><time>2026-03-23T13:16:27Z</time></trkpt><trkpt lat="30.322638591071065" lon="-5.825521644855917"><ele>721.0</ele><time>2026-03-23T13:16:28Z</time></trkpt><trkpt lat="30.322489848999567" lon="-5.825657221596678"><ele>721.0</ele><time>2026-03-23T13:16:29Z</time></trkpt><trkpt lat="30.322334238628688" lon="-5.825777656232207"><ele>721.0</ele><time>2026-03-23T13:16:30Z</time></trkpt><trkpt lat="30.322190685723047" lon="-5.825885217201663"><ele>720.3333333333334</ele><time>2026-03-23T13:16:31Z</time></trkpt><trkpt lat="30.322044860539215" lon="-5.825992174426209"><ele>719.6666666666666</ele><time>2026-03-23T13:16:32Z</time></trkpt><trkpt lat="30.321897378788023" lon="-5.826100571085072"><ele>719.0</ele><time>2026-03-23T13:16:33Z</time></trkpt><trkpt lat="30.32174701116084" lon="-5.826209042181491"><ele>719.0</ele><time>2026-03-23T13:16:34Z</time></trkpt><trkpt lat="30.321595084651612" lon="-5.826321435897957"><ele>719.0</ele><time>2026-03-23T13:16:35Z</time></trkpt><trkpt lat="30.321445709941525" lon="-5.826433146820335"><ele>719.0</ele><time>2026-03-23T13:16:36Z</time></trkpt><trkpt lat="30.321294008694178" lon="-5.826543960446375"><ele>719.0</ele><time>2026-03-23T13:16:37Z</time></trkpt><trkpt lat="30.321141939473875" lon="-5.82665644531489"><ele>719.0</ele><time>2026-03-23T13:16:38Z</time></trkpt><trkpt lat="30.320994367468778" lon="-5.826769655261005"><ele>719.0</ele><time>2026-03-23T13:16:39Z</time></trkpt><trkpt lat="30.320847923142072" lon="-5.82688303870564"><ele>719.0</ele><time>2026-03-23T13:16:40Z</time></trkpt><trkpt lat="30.320702448815336" lon="-5.826994719522318"><ele>719.0</ele><time>2026-03-23T13:16:41Z</time></trkpt><trkpt lat="30.32057115724108" lon="-5.82710049900357"><ele>719.0</ele><time>2026-03-23T13:16:42Z</time></trkpt><trkpt lat="30.320443770538848" lon="-5.827195584556643"><ele>719.75</ele><time>2026-03-23T13:16:43Z</time></trkpt><trkpt lat="30.320317738915346" lon="-5.827283127484216"><ele>720.5</ele><time>2026-03-23T13:16:44Z</time></trkpt><trkpt lat="30.320193746453235" lon="-5.8273368734952244"><ele>721.25</ele><time>2026-03-23T13:16:45Z</time></trkpt><trkpt lat="30.3200812322258" lon="-5.827401168293716"><ele>722.0</ele><time>2026-03-23T13:16:46Z</time></trkpt><trkpt lat="30.31996791187954" lon="-5.827437365549134"><ele>722.0</ele><time>2026-03-23T13:16:47Z</time></trkpt><trkpt lat="30.31985807882882" lon="-5.827465407381347"><ele>722.0</ele><time>2026-03-23T13:16:48Z</time></trkpt><trkpt lat="30.319740749949197" lon="-5.827494418131313"><ele>722.0</ele><time>2026-03-23T13:16:49Z</time></trkpt><trkpt lat="30.319619732289283" lon="-5.8275240973155755"><ele>722.0</ele><time>2026-03-23T13:16:50Z</time></trkpt><trkpt lat="30.31950209571435" lon="-5.827559000392097"><ele>721.4000000000001</ele><time>2026-03-23T13:16:51Z</time></trkpt><trkpt lat="30.31939333209717" lon="-5.8275966375921096"><ele>720.8000000000001</ele><time>2026-03-23T13:16:52Z</time></trkpt><trkpt lat="30.319302528355646" lon="-5.827629151774678"><ele>720.2</ele><time>2026-03-23T13:16:53Z</time></trkpt><trkpt lat="30.31921472864578" lon="-5.827647288597867"><ele>719.6</ele><time>2026-03-23T13:16:54Z</time></trkpt><trkpt lat="30.31913421040839" lon="-5.827680890711397"><ele>719.0</ele><time>2026-03-23T13:16:55Z</time></trkpt><trkpt lat="30.319046189203085" lon="-5.827711276807736"><ele>719.0</ele><time>2026-03-23T13:16:56Z</time></trkpt><trkpt lat="30.318957814032917" lon="-5.827747737068823"><ele>719.0</ele><time>2026-03-23T13:16:57Z</time></trkpt><trkpt lat="30.318870324992556" lon="-5.827789538243788"><ele>719.0</ele><time>2026-03-23T13:16:58Z</time></trkpt><trkpt lat="30.318781817056465" lon="-5.827836200916365"><ele>719.0</ele><time>2026-03-23T13:16:59Z</time></trkpt><trkpt lat="30.318688845271183" lon="-5.82788249331519"><ele>719.0</ele><time>2026-03-23T13:17:00Z</time></trkpt><trkpt lat="30.318602750758792" lon="-5.827926508352828"><ele>719.5</ele><time>2026-03-23T13:17:01Z</time></trkpt><trkpt lat="30.318527977309156" lon="-5.827966455791524"><ele>720.0</ele><time>2026-03-23T13:17:02Z</time></trkpt><trkpt lat="30.318461299862975" lon="-5.828006502144679"><ele>720.5</ele><time>2026-03-23T13:17:03Z</time></trkpt><trkpt lat="30.31840094296586" lon="-5.82804764785816"><ele>721.0</ele><time>2026-03-23T13:17:04Z</time></trkpt><trkpt lat="30.318347878363806" lon="-5.828092009303722"><ele>721.5</ele><time>2026-03-23T13:17:05Z</time></trkpt><trkpt lat="30.31827521089187" lon="-5.828217362505997"><ele>722.0</ele><time>2026-03-23T13:17:07Z</time></trkpt><trkpt lat="30.31826186703029" lon="-5.8283020806383306"><ele>722.0</ele><time>2026-03-23T13:17:08Z</time></trkpt><trkpt lat="30.318237172250736" lon="-5.828398869336456"><ele>722.0</ele><time>2026-03-23T13:17:09Z</time></trkpt><trkpt lat="30.318241193551017" lon="-5.82850925391203"><ele>722.0</ele><time>2026-03-23T13:17:10Z</time></trkpt><trkpt lat="30.318252495658776" lon="-5.828627130883013"><ele>722.0</ele><time>2026-03-23T13:17:11Z</time></trkpt><trkpt lat="30.318264020507126" lon="-5.828745683975058"><ele>722.0</ele><time>2026-03-23T13:17:12Z</time></trkpt><trkpt lat="30.31833526147528" lon="-5.828860445370471"><ele>721.5</ele><time>2026-03-23T13:17:13Z</time></trkpt><trkpt lat="30.31835941930974" lon="-5.828988991044074"><ele>721.0</ele><time>2026-03-23T13:17:14Z</time></trkpt><trkpt lat="30.31838332706466" lon="-5.829110441857323"><ele>720.5</ele><time>2026-03-23T13:17:15Z</time></trkpt><trkpt lat="30.318413504114293" lon="-5.829235435553493"><ele>720.0</ele><time>2026-03-23T13:17:16Z</time></trkpt><trkpt lat="30.31845415921697" lon="-5.829362676395313"><ele>719.8</ele><time>2026-03-23T13:17:17Z</time></trkpt><trkpt lat="30.318504961592858" lon="-5.829491398815636"><ele>719.6</ele><time>2026-03-23T13:17:18Z</time></trkpt><trkpt lat="30.318558834205387" lon="-5.829603682407857"><ele>719.4000000000001</ele><time>2026-03-23T13:17:19Z</time></trkpt><trkpt lat="30.31860328548543" lon="-5.8296894920818145"><ele>719.2</ele><time>2026-03-23T13:17:20Z</time></trkpt><trkpt lat="30.3186438549317" lon="-5.829754125863741"><ele>719.0</ele><time>2026-03-23T13:17:21Z</time></trkpt><trkpt lat="30.318683945063956" lon="-5.82981246199151"><ele>719.0</ele><time>2026-03-23T13:17:22Z</time></trkpt><trkpt lat="30.31873837742895" lon="-5.829879991198879"><ele>719.0</ele><time>2026-03-23T13:17:23Z</time></trkpt><trkpt lat="30.31880470442067" lon="-5.82995995467742"><ele>719.0</ele><time>2026-03-23T13:17:24Z</time></trkpt><trkpt lat="30.318884131650186" lon="-5.830049979402032"><ele>719.0</ele><time>2026-03-23T13:17:25Z</time></trkpt><trkpt lat="30.318962041836357" lon="-5.830153330460671"><ele>719.0</ele><time>2026-03-23T13:17:26Z</time></trkpt><trkpt lat="30.31904345047432" lon="-5.830269045053631"><ele>718.25</ele><time>2026-03-23T13:17:27Z</time></trkpt><trkpt lat="30.31912946665612" lon="-5.830384102114647"><ele>717.5</ele><time>2026-03-23T13:17:28Z</time></trkpt><trkpt lat="30.319209368285147" lon="-5.830489259130815"><ele>716.75</ele><time>2026-03-23T13:17:29Z</time></trkpt><trkpt lat="30.319298362532404" lon="-5.830592280439195"><ele>716.0</ele><time>2026-03-23T13:17:30Z</time></trkpt><trkpt lat="30.31939563851786" lon="-5.830695038149302"><ele>716.0</ele><time>2026-03-23T13:17:31Z</time></trkpt><trkpt lat="30.319487825191633" lon="-5.830803743987336"><ele>716.0</ele><time>2026-03-23T13:17:32Z</time></trkpt><trkpt lat="30.319574872640974" lon="-5.8309024553229305"><ele>716.0</ele><time>2026-03-23T13:17:33Z</time></trkpt><trkpt lat="30.319657731847034" lon="-5.83099625476144"><ele>716.0</ele><time>2026-03-23T13:17:34Z</time></trkpt><trkpt lat="30.319739836207265" lon="-5.831093384575311"><ele>715.75</ele><time>2026-03-23T13:17:35Z</time></trkpt><trkpt lat="30.31982102658051" lon="-5.8311942532715015"><ele>715.5</ele><time>2026-03-23T13:17:36Z</time></trkpt><trkpt lat="30.319898670261754" lon="-5.831302517272145"><ele>715.25</ele><time>2026-03-23T13:17:37Z</time></trkpt><trkpt lat="30.319979416715686" lon="-5.83141932092562"><ele>715.0</ele><time>2026-03-23T13:17:38Z</time></trkpt><trkpt lat="30.32005834441405" lon="-5.83155450494648"><ele>715.0</ele><time>2026-03-23T13:17:39Z</time></trkpt><trkpt lat="30.32012978796524" lon="-5.831711625744557"><ele>715.0</ele><time>2026-03-23T13:17:40Z</time></trkpt><trkpt lat="30.320209485939248" lon="-5.831863901882793"><ele>715.0</ele><time>2026-03-23T13:17:41Z</time></trkpt><trkpt lat="30.32028551204714" lon="-5.83201874691463"><ele>714.5</ele><time>2026-03-23T13:17:42Z</time></trkpt><trkpt lat="30.32035617441735" lon="-5.832173309995684"><ele>714.0</ele><time>2026-03-23T13:17:43Z</time></trkpt><trkpt lat="30.320427158440044" lon="-5.832320734528022"><ele>713.5</ele><time>2026-03-23T13:17:44Z</time></trkpt><trkpt lat="30.320498178012123" lon="-5.832468768025988"><ele>713.0</ele><time>2026-03-23T13:17:45Z</time></trkpt><trkpt lat="30.320560817226735" lon="-5.832597501186067"><ele>712.25</ele><time>2026-03-23T13:17:46Z</time></trkpt><trkpt lat="30.320607587100895" lon="-5.832719999129005"><ele>711.5</ele><time>2026-03-23T13:17:47Z</time></trkpt><trkpt lat="30.320647620580928" lon="-5.83284309444766"><ele>710.75</ele><time>2026-03-23T13:17:48Z</time></trkpt><trkpt lat="30.320678956044514" lon="-5.832975868826988"><ele>710.0</ele><time>2026-03-23T13:17:49Z</time></trkpt><trkpt lat="30.32070633425824" lon="-5.833124953050622"><ele>710.0</ele><time>2026-03-23T13:17:50Z</time></trkpt><trkpt lat="30.32073597307906" lon="-5.833289405641323"><ele>710.0</ele><time>2026-03-23T13:17:51Z</time></trkpt><trkpt lat="30.320772913885058" lon="-5.833462445287765"><ele>710.0</ele><time>2026-03-23T13:17:52Z</time></trkpt><trkpt lat="30.320815328299776" lon="-5.833640130711983"><ele>710.0</ele><time>2026-03-23T13:17:53Z</time></trkpt><trkpt lat="30.320858234894526" lon="-5.833813769540866"><ele>710.0</ele><time>2026-03-23T13:17:54Z</time></trkpt><trkpt lat="30.32089422708051" lon="-5.833989213329574"><ele>710.0</ele><time>2026-03-23T13:17:55Z</time></trkpt><trkpt lat="30.320926796474435" lon="-5.834157098528622"><ele>710.0</ele><time>2026-03-23T13:17:56Z</time></trkpt><trkpt lat="30.32095882923341" lon="-5.8342969509837905"><ele>710.0</ele><time>2026-03-23T13:17:57Z</time></trkpt><trkpt lat="30.32098468592546" lon="-5.83440803979445"><ele>710.0</ele><time>2026-03-23T13:17:58Z</time></trkpt><trkpt lat="30.321009925881754" lon="-5.83451069451535"><ele>710.0</ele><time>2026-03-23T13:17:59Z</time></trkpt><trkpt lat="30.321049635139943" lon="-5.834599896624968"><ele>710.0</ele><time>2026-03-23T13:18:00Z</time></trkpt><trkpt lat="30.321101502659435" lon="-5.834677117670636"><ele>710.8333333333333</ele><time>2026-03-23T13:18:01Z</time></trkpt><trkpt lat="30.321159544639098" lon="-5.834749087870926"><ele>711.6666666666666</ele><time>2026-03-23T13:18:02Z</time></trkpt><trkpt lat="30.321197631967102" lon="-5.834832767817812"><ele>712.5</ele><time>2026-03-23T13:18:03Z</time></trkpt><trkpt lat="30.321207686823982" lon="-5.834933344779889"><ele>713.3333333333334</ele><time>2026-03-23T13:18:04Z</time></trkpt><trkpt lat="30.321168150575197" lon="-5.835008965623019"><ele>714.1666666666667</ele><time>2026-03-23T13:18:05Z</time></trkpt><trkpt lat="30.321093396291275" lon="-5.835055743087056"><ele>715.0</ele><time>2026-03-23T13:18:06Z</time></trkpt><trkpt lat="30.321000057929684" lon="-5.835056518636256"><ele>715.0</ele><time>2026-03-23T13:18:07Z</time></trkpt><trkpt lat="30.320903630162107" lon="-5.835025464060932"><ele>715.0</ele><time>2026-03-23T13:18:08Z</time></trkpt><trkpt lat="30.320798440847337" lon="-5.835002142677121"><ele>715.0</ele><time>2026-03-23T13:18:09Z</time></trkpt><trkpt lat="30.320699313555295" lon="-5.835019095305369"><ele>715.0</ele><time>2026-03-23T13:18:10Z</time></trkpt><trkpt lat="30.320620944738952" lon="-5.83505981151927"><ele>715.0</ele><time>2026-03-23T13:18:11Z</time></trkpt><trkpt lat="30.32054008613843" lon="-5.835117210509796"><ele>715.4</ele><time>2026-03-23T13:18:12Z</time></trkpt><trkpt lat="30.32044447932777" lon="-5.835187689944267"><ele>715.8</ele><time>2026-03-23T13:18:13Z</time></trkpt><trkpt lat="30.320357998048916" lon="-5.835254091494172"><ele>716.2</ele><time>2026-03-23T13:18:14Z</time></trkpt><trkpt lat="30.320288050818125" lon="-5.835307519780304"><ele>716.6</ele><time>2026-03-23T13:18:15Z</time></trkpt><trkpt lat="30.320230668542628" lon="-5.835350877513821"><ele>717.0</ele><time>2026-03-23T13:18:16Z</time></trkpt><trkpt lat="30.320131248885872" lon="-5.8354270085708135"><ele>717.0</ele><time>2026-03-23T13:18:18Z</time></trkpt><trkpt lat="30.32003909909397" lon="-5.835504267888354"><ele>717.0</ele><time>2026-03-23T13:18:20Z</time></trkpt><trkpt lat="30.31994575386015" lon="-5.835584525574614"><ele>717.0</ele><time>2026-03-23T13:18:22Z</time></trkpt><trkpt lat="30.319852745136075" lon="-5.835670153211266"><ele>717.0</ele><time>2026-03-23T13:18:24Z</time></trkpt><trkpt lat="30.319782163342953" lon="-5.835758942911919"><ele>717.0</ele><time>2026-03-23T13:18:26Z</time></trkpt><trkpt lat="30.319737770429477" lon="-5.835888237065945"><ele>717.0</ele><time>2026-03-23T13:18:28Z</time></trkpt><trkpt lat="30.31968384086198" lon="-5.835952509806247"><ele>717.0</ele><time>2026-03-23T13:18:31Z</time></trkpt><trkpt lat="30.319627904223065" lon="-5.835995929888312"><ele>717.0</ele><time>2026-03-23T13:18:34Z</time></trkpt><trkpt lat="30.319582217868557" lon="-5.836046505953811"><ele>717.0</ele><time>2026-03-23T13:18:38Z</time></trkpt><trkpt lat="30.31953068433223" lon="-5.836110147536662"><ele>717.0</ele><time>2026-03-23T13:18:41Z</time></trkpt><trkpt lat="30.319479827495186" lon="-5.8361732519988285"><ele>717.0</ele><time>2026-03-23T13:18:46Z</time></trkpt><trkpt lat="30.319766808335753" lon="-5.836084588591314"><ele>717.0</ele><time>2026-03-23T13:19:24Z</time></trkpt><trkpt lat="30.319753891968208" lon="-5.836009692113768"><ele>717.0</ele><time>2026-03-23T13:19:25Z</time></trkpt><trkpt lat="30.31968285300009" lon="-5.835936230074409"><ele>717.25</ele><time>2026-03-23T13:19:27Z</time></trkpt><trkpt lat="30.319578472840394" lon="-5.835979978029496"><ele>717.5</ele><time>2026-03-23T13:19:29Z</time></trkpt><trkpt lat="30.319505963913468" lon="-5.836056267247371"><ele>717.75</ele><time>2026-03-23T13:19:30Z</time></trkpt><trkpt lat="30.319429316068796" lon="-5.8361685211140895"><ele>718.0</ele><time>2026-03-23T13:19:31Z</time></trkpt><trkpt lat="30.319352420610226" lon="-5.836302733053958"><ele>718.0</ele><time>2026-03-23T13:19:32Z</time></trkpt><trkpt lat="30.319291222742926" lon="-5.836439418292294"><ele>718.0</ele><time>2026-03-23T13:19:33Z</time></trkpt><trkpt lat="30.319284572750977" lon="-5.836549551500259"><ele>718.0</ele><time>2026-03-23T13:19:34Z</time></trkpt><trkpt lat="30.319269041610013" lon="-5.836662758320901"><ele>718.0</ele><time>2026-03-23T13:19:35Z</time></trkpt><trkpt lat="30.319339985942136" lon="-5.836792428518938"><ele>717.75</ele><time>2026-03-23T13:19:36Z</time></trkpt><trkpt lat="30.319394465276265" lon="-5.836926866020151"><ele>717.5</ele><time>2026-03-23T13:19:37Z</time></trkpt><trkpt lat="30.31945726765613" lon="-5.837064694924684"><ele>717.25</ele><time>2026-03-23T13:19:38Z</time></trkpt><trkpt lat="30.31952725922694" lon="-5.837209960693871"><ele>717.0</ele><time>2026-03-23T13:19:39Z</time></trkpt><trkpt lat="30.31959955859806" lon="-5.837375292424142"><ele>717.0</ele><time>2026-03-23T13:19:40Z</time></trkpt><trkpt lat="30.319668753612127" lon="-5.837545132806741"><ele>717.0</ele><time>2026-03-23T13:19:41Z</time></trkpt><trkpt lat="30.319730654180017" lon="-5.837694394093308"><ele>717.0</ele><time>2026-03-23T13:19:42Z</time></trkpt><trkpt lat="30.31979257710155" lon="-5.837835327995256"><ele>717.0</ele><time>2026-03-23T13:19:43Z</time></trkpt><trkpt lat="30.319854882957923" lon="-5.837984894735043"><ele>717.0</ele><time>2026-03-23T13:19:44Z</time></trkpt><trkpt lat="30.31992514253556" lon="-5.838141860086967"><ele>717.0</ele><time>2026-03-23T13:19:45Z</time></trkpt><trkpt lat="30.319999503785567" lon="-5.838302229378602"><ele>717.0</ele><time>2026-03-23T13:19:46Z</time></trkpt><trkpt lat="30.320077943190263" lon="-5.838466975625339"><ele>718.3333333333334</ele><time>2026-03-23T13:19:47Z</time></trkpt><trkpt lat="30.320162227577054" lon="-5.838630461971296"><ele>719.6666666666667</ele><time>2026-03-23T13:19:48Z</time></trkpt><trkpt lat="30.32024239113276" lon="-5.838779052516532"><ele>721.0</ele><time>2026-03-23T13:19:49Z</time></trkpt><trkpt lat="30.320317498408958" lon="-5.838911682250966"><ele>721.0</ele><time>2026-03-23T13:19:50Z</time></trkpt><trkpt lat="30.32036604036451" lon="-5.839042612970418"><ele>721.0</ele><time>2026-03-23T13:19:51Z</time></trkpt><trkpt lat="30.320422756990975" lon="-5.839154574641294"><ele>721.0</ele><time>2026-03-23T13:19:52Z</time></trkpt><trkpt lat="30.320480146726645" lon="-5.839266337363537"><ele>721.0</ele><time>2026-03-23T13:19:53Z</time></trkpt><trkpt lat="30.320532747304682" lon="-5.839369636960598"><ele>721.0</ele><time>2026-03-23T13:19:54Z</time></trkpt><trkpt lat="30.320577920801952" lon="-5.8394576173232675"><ele>721.0</ele><time>2026-03-23T13:19:55Z</time></trkpt><trkpt lat="30.320616492559576" lon="-5.839532740072272"><ele>721.0</ele><time>2026-03-23T13:19:56Z</time></trkpt><trkpt lat="30.32066127595272" lon="-5.8395978247000775"><ele>721.0</ele><time>2026-03-23T13:19:57Z</time></trkpt><trkpt lat="30.32070203049264" lon="-5.839673797781586"><ele>721.0</ele><time>2026-03-23T13:19:58Z</time></trkpt><trkpt lat="30.320750036611223" lon="-5.839755326486667"><ele>721.0</ele><time>2026-03-23T13:19:59Z</time></trkpt><trkpt lat="30.320783946203175" lon="-5.8398557500023625"><ele>721.0</ele><time>2026-03-23T13:20:00Z</time></trkpt><trkpt lat="30.320824479371407" lon="-5.83992732981343"><ele>721.0</ele><time>2026-03-23T13:20:01Z</time></trkpt><trkpt lat="30.320863672130187" lon="-5.839996542835514"><ele>721.0</ele><time>2026-03-23T13:20:03Z</time></trkpt><trkpt lat="30.320946245196343" lon="-5.8400493051263345"><ele>721.0</ele><time>2026-03-23T13:20:05Z</time></trkpt><trkpt lat="30.321069301762083" lon="-5.840079908308537"><ele>721.0</ele><time>2026-03-23T13:20:07Z</time></trkpt><trkpt lat="30.32115451667316" lon="-5.840082795532959"><ele>721.0</ele><time>2026-03-23T13:20:08Z</time></trkpt><trkpt lat="30.321253417993162" lon="-5.8400692150962294"><ele>721.0</ele><time>2026-03-23T13:20:09Z</time></trkpt><trkpt lat="30.32136336973161" lon="-5.840038746029255"><ele>721.0</ele><time>2026-03-23T13:20:10Z</time></trkpt><trkpt lat="30.32147986951" lon="-5.84001161578621"><ele>721.0</ele><time>2026-03-23T13:20:11Z</time></trkpt><trkpt lat="30.321586756245534" lon="-5.839992131202891"><ele>721.0</ele><time>2026-03-23T13:20:12Z</time></trkpt><trkpt lat="30.321678687741812" lon="-5.839987387093054"><ele>721.8</ele><time>2026-03-23T13:20:13Z</time></trkpt><trkpt lat="30.321764306717853" lon="-5.839994200423303"><ele>722.5999999999999</ele><time>2026-03-23T13:20:14Z</time></trkpt><trkpt lat="30.321852009658013" lon="-5.840006221833088"><ele>723.4</ele><time>2026-03-23T13:20:15Z</time></trkpt><trkpt lat="30.321946277352943" lon="-5.840015383285508"><ele>724.2</ele><time>2026-03-23T13:20:16Z</time></trkpt><trkpt lat="30.322058629006836" lon="-5.840035526700852"><ele>725.0</ele><time>2026-03-23T13:20:17Z</time></trkpt><trkpt lat="30.322178442174856" lon="-5.8400725641036315"><ele>725.4</ele><time>2026-03-23T13:20:18Z</time></trkpt><trkpt lat="30.3222897430093" lon="-5.840112450423049"><ele>725.8</ele><time>2026-03-23T13:20:19Z</time></trkpt><trkpt lat="30.322398258268255" lon="-5.840151919344026"><ele>726.2</ele><time>2026-03-23T13:20:20Z</time></trkpt><trkpt lat="30.322499640195975" lon="-5.840191220967955"><ele>726.6</ele><time>2026-03-23T13:20:21Z</time></trkpt><trkpt lat="30.32259397208065" lon="-5.840225968267951"><ele>727.0</ele><time>2026-03-23T13:20:22Z</time></trkpt><trkpt lat="30.322675076709693" lon="-5.840256210856592"><ele>727.6666666666667</ele><time>2026-03-23T13:20:23Z</time></trkpt><trkpt lat="30.322745330918075" lon="-5.840284702389983"><ele>728.3333333333334</ele><time>2026-03-23T13:20:24Z</time></trkpt><trkpt lat="30.32281554384769" lon="-5.840301795599871"><ele>729.0</ele><time>2026-03-23T13:20:26Z</time></trkpt><trkpt lat="30.322893976630013" lon="-5.840311764716598"><ele>729.6666666666666</ele><time>2026-03-23T13:20:44Z</time></trkpt><trkpt lat="30.322975196407207" lon="-5.840326191768294"><ele>730.3333333333333</ele><time>2026-03-23T13:20:55Z</time></trkpt><trkpt lat="30.323103706757596" lon="-5.8403080396619655"><ele>731.0</ele><time>2026-03-23T13:20:57Z</time></trkpt><trkpt lat="30.32319021153133" lon="-5.840314558070603"><ele>731.0</ele><time>2026-03-23T13:20:58Z</time></trkpt><trkpt lat="30.32328785058947" lon="-5.840338180501413"><ele>731.0</ele><time>2026-03-23T13:20:59Z</time></trkpt><trkpt lat="30.323374973353157" lon="-5.840398929260717"><ele>731.0</ele><time>2026-03-23T13:21:00Z</time></trkpt><trkpt lat="30.323466240229415" lon="-5.840454987303013"><ele>731.0</ele><time>2026-03-23T13:21:01Z</time></trkpt><trkpt lat="30.32358077682102" lon="-5.840418684225528"><ele>731.0</ele><time>2026-03-23T13:21:02Z</time></trkpt><trkpt lat="30.323674588228045" lon="-5.840385408622791"><ele>731.0</ele><time>2026-03-23T13:21:03Z</time></trkpt><trkpt lat="30.32376394972209" lon="-5.840292479842809"><ele>731.0</ele><time>2026-03-23T13:21:04Z</time></trkpt><trkpt lat="30.323890124892184" lon="-5.84023433090254"><ele>731.0</ele><time>2026-03-23T13:21:05Z</time></trkpt><trkpt lat="30.324019040012868" lon="-5.840174919230454"><ele>731.0</ele><time>2026-03-23T13:21:06Z</time></trkpt><trkpt lat="30.324137599336762" lon="-5.840120292013013"><ele>731.4</ele><time>2026-03-23T13:21:07Z</time></trkpt><trkpt lat="30.32424226269378" lon="-5.840072202177297"><ele>731.8</ele><time>2026-03-23T13:21:08Z</time></trkpt><trkpt lat="30.324334680798664" lon="-5.840029738725638"><ele>732.1999999999999</ele><time>2026-03-23T13:21:09Z</time></trkpt><trkpt lat="30.324420428014157" lon="-5.83999034030951"><ele>732.5999999999999</ele><time>2026-03-23T13:21:10Z</time></trkpt><trkpt lat="30.324498593451764" lon="-5.839954425536992"><ele>733.0</ele><time>2026-03-23T13:21:11Z</time></trkpt><trkpt lat="30.324575262001684" lon="-5.8399191985467915"><ele>733.0</ele><time>2026-03-23T13:21:12Z</time></trkpt><trkpt lat="30.324657443454644" lon="-5.839881438498792"><ele>733.0</ele><time>2026-03-23T13:21:13Z</time></trkpt><trkpt lat="30.324742056648116" lon="-5.8398425611495375"><ele>733.0</ele><time>2026-03-23T13:21:14Z</time></trkpt><trkpt lat="30.324828716442827" lon="-5.839802652424947"><ele>733.0</ele><time>2026-03-23T13:21:15Z</time></trkpt><trkpt lat="30.32491995090505" lon="-5.839760362305089"><ele>733.0</ele><time>2026-03-23T13:21:16Z</time></trkpt><trkpt lat="30.32501493869619" lon="-5.839714304736716"><ele>733.0</ele><time>2026-03-23T13:21:17Z</time></trkpt><trkpt lat="30.325114815199605" lon="-5.8396670952100775"><ele>733.0</ele><time>2026-03-23T13:21:18Z</time></trkpt><trkpt lat="30.325215950691536" lon="-5.839619298674889"><ele>733.0</ele><time>2026-03-23T13:21:19Z</time></trkpt><trkpt lat="30.32530499660187" lon="-5.839577215619642"><ele>733.0</ele><time>2026-03-23T13:21:20Z</time></trkpt><trkpt lat="30.32539396988319" lon="-5.8395351669471225"><ele>733.0</ele><time>2026-03-23T13:21:21Z</time></trkpt><trkpt lat="30.325484374200332" lon="-5.839491445124601"><ele>733.0</ele><time>2026-03-23T13:21:22Z</time></trkpt><trkpt lat="30.32557116335255" lon="-5.839450480608489"><ele>733.0</ele><time>2026-03-23T13:21:23Z</time></trkpt><trkpt lat="30.325647568671" lon="-5.8394144173220806"><ele>733.0</ele><time>2026-03-23T13:21:24Z</time></trkpt><trkpt lat="30.325728578288587" lon="-5.839385706936593"><ele>733.0</ele><time>2026-03-23T13:21:25Z</time></trkpt><trkpt lat="30.32580893401662" lon="-5.839335960160552"><ele>733.0</ele><time>2026-03-23T13:21:26Z</time></trkpt><trkpt lat="30.325893144319938" lon="-5.839301889988352"><ele>733.0</ele><time>2026-03-23T13:21:27Z</time></trkpt><trkpt lat="30.32597870584021" lon="-5.83926770388333"><ele>733.2</ele><time>2026-03-23T13:21:28Z</time></trkpt><trkpt lat="30.326066482216255" lon="-5.839231060524903"><ele>733.4</ele><time>2026-03-23T13:21:29Z</time></trkpt><trkpt lat="30.32614985960523" lon="-5.839192106831746"><ele>733.6</ele><time>2026-03-23T13:21:30Z</time></trkpt><trkpt lat="30.326234947701682" lon="-5.839153239021606"><ele>733.8000000000001</ele><time>2026-03-23T13:21:31Z</time></trkpt><trkpt lat="30.32632344967346" lon="-5.839108187233283"><ele>734.0</ele><time>2026-03-23T13:21:32Z</time></trkpt><trkpt lat="30.326405591754792" lon="-5.839067096986729"><ele>734.1666666666666</ele><time>2026-03-23T13:21:33Z</time></trkpt><trkpt lat="30.326483987986222" lon="-5.83902936058286"><ele>734.3333333333333</ele><time>2026-03-23T13:21:34Z</time></trkpt><trkpt lat="30.326553317806933" lon="-5.838997406595817"><ele>734.5</ele><time>2026-03-23T13:21:35Z</time></trkpt><trkpt lat="30.326625563097267" lon="-5.838965975012723"><ele>734.6666666666666</ele><time>2026-03-23T13:21:36Z</time></trkpt><trkpt lat="30.326701960736315" lon="-5.838931771516762"><ele>734.8333333333334</ele><time>2026-03-23T13:21:37Z</time></trkpt><trkpt lat="30.326781434666742" lon="-5.838887666542641"><ele>735.0</ele><time>2026-03-23T13:21:38Z</time></trkpt><trkpt lat="30.326863205372973" lon="-5.838845810070414"><ele>735.0</ele><time>2026-03-23T13:21:39Z</time></trkpt><trkpt lat="30.3269527990367" lon="-5.838796141000575"><ele>735.0</ele><time>2026-03-23T13:21:40Z</time></trkpt><trkpt lat="30.327044720022048" lon="-5.838750417541066"><ele>735.0</ele><time>2026-03-23T13:21:41Z</time></trkpt><trkpt lat="30.327141124283262" lon="-5.838709232711457"><ele>735.0</ele><time>2026-03-23T13:21:42Z</time></trkpt><trkpt lat="30.327238307499034" lon="-5.838664730575595"><ele>735.0</ele><time>2026-03-23T13:21:43Z</time></trkpt><trkpt lat="30.32733432523007" lon="-5.838625443125097"><ele>735.2</ele><time>2026-03-23T13:21:44Z</time></trkpt><trkpt lat="30.32743177157645" lon="-5.838590163069311"><ele>735.4</ele><time>2026-03-23T13:21:45Z</time></trkpt><trkpt lat="30.327520664631738" lon="-5.838540260575401"><ele>735.5999999999999</ele><time>2026-03-23T13:21:46Z</time></trkpt><trkpt lat="30.3276084529006" lon="-5.838513713928814"><ele>735.8</ele><time>2026-03-23T13:21:47Z</time></trkpt><trkpt lat="30.327695608878273" lon="-5.838507731124138"><ele>736.0</ele><time>2026-03-23T13:21:48Z</time></trkpt><trkpt lat="30.327777441365093" lon="-5.838481778897084"><ele>736.0</ele><time>2026-03-23T13:21:49Z</time></trkpt><trkpt lat="30.327861213686035" lon="-5.838448842390262"><ele>736.0</ele><time>2026-03-23T13:21:50Z</time></trkpt><trkpt lat="30.327940680878427" lon="-5.838426025655163"><ele>736.0</ele><time>2026-03-23T13:21:51Z</time></trkpt><trkpt lat="30.328021181208058" lon="-5.8384045852733335"><ele>736.0</ele><time>2026-03-23T13:21:52Z</time></trkpt><trkpt lat="30.328097101479365" lon="-5.838378565440365"><ele>736.0</ele><time>2026-03-23T13:21:53Z</time></trkpt><trkpt lat="30.3281703068848" lon="-5.838355129433157"><ele>736.0</ele><time>2026-03-23T13:21:54Z</time></trkpt><trkpt lat="30.328246581318187" lon="-5.838335771147828"><ele>735.8333333333334</ele><time>2026-03-23T13:21:55Z</time></trkpt><trkpt lat="30.328314301162166" lon="-5.838314138521288"><ele>735.6666666666667</ele><time>2026-03-23T13:21:56Z</time></trkpt><trkpt lat="30.328414792028347" lon="-5.838292570029193"><ele>735.5</ele><time>2026-03-23T13:21:58Z</time></trkpt><trkpt lat="30.328484609236458" lon="-5.838261423091811"><ele>735.3333333333334</ele><time>2026-03-23T13:22:00Z</time></trkpt><trkpt lat="30.328539802727565" lon="-5.838192302599238"><ele>735.1666666666666</ele><time>2026-03-23T13:22:02Z</time></trkpt><trkpt lat="30.328610753197733" lon="-5.838166424609162"><ele>735.0</ele><time>2026-03-23T13:22:05Z</time></trkpt><trkpt lat="30.328674040640887" lon="-5.838141322035242"><ele>735.0</ele><time>2026-03-23T13:22:10.999Z</time></trkpt><trkpt lat="30.32857005710201" lon="-5.838024661538287"><ele>735.0</ele><time>2026-03-23T13:22:29Z</time></trkpt><trkpt lat="30.328537160435467" lon="-5.838089837729687"><ele>735.0</ele><time>2026-03-23T13:22:40Z</time></trkpt><trkpt lat="30.328603825665265" lon="-5.83808172294129"><ele>735.0</ele><time>2026-03-23T13:23:20Z</time></trkpt><trkpt lat="30.328692361009963" lon="-5.838087860451746"><ele>735.0</ele><time>2026-03-23T13:26:52Z</time></trkpt><trkpt lat="30.328761291620072" lon="-5.838110475812652"><ele>735.0</ele><time>2026-03-23T13:26:54Z</time></trkpt><trkpt lat="30.32875467973162" lon="-5.838208646964074"><ele>735.0</ele><time>2026-03-23T13:26:57Z</time></trkpt><trkpt lat="30.32865016458196" lon="-5.838281274678761"><ele>735.0</ele><time>2026-03-23T13:26:59Z</time></trkpt><trkpt lat="30.328577935979737" lon="-5.838299581753515"><ele>735.0</ele><time>2026-03-23T13:27:00Z</time></trkpt><trkpt lat="30.32850947220402" lon="-5.838314243155006"><ele>735.0</ele><time>2026-03-23T13:27:01Z</time></trkpt><trkpt lat="30.328446625168368" lon="-5.838329562488092"><ele>735.0</ele><time>2026-03-23T13:27:02Z</time></trkpt><trkpt lat="30.328377179043127" lon="-5.838347640250387"><ele>735.0</ele><time>2026-03-23T13:27:03Z</time></trkpt><trkpt lat="30.328304607465107" lon="-5.838367913914328"><ele>735.0</ele><time>2026-03-23T13:27:04Z</time></trkpt><trkpt lat="30.32823246129732" lon="-5.838386011249212"><ele>735.0</ele><time>2026-03-23T13:27:05Z</time></trkpt><trkpt lat="30.328162256337116" lon="-5.838405142069314"><ele>735.0</ele><time>2026-03-23T13:27:06Z</time></trkpt><trkpt lat="30.328091665942154" lon="-5.838423614806965"><ele>735.0</ele><time>2026-03-23T13:27:07Z</time></trkpt><trkpt lat="30.32801946904043" lon="-5.838440963639999"><ele>735.0</ele><time>2026-03-23T13:27:08Z</time></trkpt><trkpt lat="30.327937720622383" lon="-5.838465029438886"><ele>735.0</ele><time>2026-03-23T13:27:09Z</time></trkpt><trkpt lat="30.32784616166506" lon="-5.8384931375166795"><ele>735.25</ele><time>2026-03-23T13:27:10Z</time></trkpt><trkpt lat="30.327752671124454" lon="-5.838526376259895"><ele>735.5</ele><time>2026-03-23T13:27:11Z</time></trkpt><trkpt lat="30.327644938543177" lon="-5.838562992491193"><ele>735.75</ele><time>2026-03-23T13:27:12Z</time></trkpt><trkpt lat="30.32752874511308" lon="-5.838602327542765"><ele>736.0</ele><time>2026-03-23T13:27:13Z</time></trkpt><trkpt lat="30.327407425968772" lon="-5.838648139444857"><ele>736.0</ele><time>2026-03-23T13:27:14Z</time></trkpt><trkpt lat="30.32728461818016" lon="-5.838700578685417"><ele>736.0</ele><time>2026-03-23T13:27:15Z</time></trkpt><trkpt lat="30.327162767575466" lon="-5.838755171912669"><ele>736.0</ele><time>2026-03-23T13:27:16Z</time></trkpt><trkpt lat="30.32703709653246" lon="-5.838813266878617"><ele>736.0</ele><time>2026-03-23T13:27:17Z</time></trkpt><trkpt lat="30.32691390074288" lon="-5.838871385986475"><ele>735.8</ele><time>2026-03-23T13:27:18Z</time></trkpt><trkpt lat="30.326798826194803" lon="-5.838924700052351"><ele>735.5999999999999</ele><time>2026-03-23T13:27:19Z</time></trkpt><trkpt lat="30.32669525761003" lon="-5.838973507673253"><ele>735.4</ele><time>2026-03-23T13:27:20Z</time></trkpt><trkpt lat="30.32660176340427" lon="-5.839017573088051"><ele>735.2</ele><time>2026-03-23T13:27:21Z</time></trkpt><trkpt lat="30.326510748448804" lon="-5.839055299197967"><ele>735.0</ele><time>2026-03-23T13:27:22Z</time></trkpt><trkpt lat="30.32641981863732" lon="-5.839099910318428"><ele>734.8</ele><time>2026-03-23T13:27:23Z</time></trkpt><trkpt lat="30.326333092641185" lon="-5.839152473490997"><ele>734.6</ele><time>2026-03-23T13:27:24Z</time></trkpt><trkpt lat="30.326242229524464" lon="-5.8392106649837485"><ele>734.4000000000001</ele><time>2026-03-23T13:27:25Z</time></trkpt><trkpt lat="30.326126738772544" lon="-5.839239042687705"><ele>734.2</ele><time>2026-03-23T13:27:26Z</time></trkpt><trkpt lat="30.32604456958149" lon="-5.839276048535479"><ele>734.0</ele><time>2026-03-23T13:27:27Z</time></trkpt><trkpt lat="30.32597244081213" lon="-5.83930922336422"><ele>734.0</ele><time>2026-03-23T13:27:28Z</time></trkpt><trkpt lat="30.325905852279192" lon="-5.839332694110472"><ele>734.0</ele><time>2026-03-23T13:27:29Z</time></trkpt><trkpt lat="30.325831702621684" lon="-5.839367774935364"><ele>734.0</ele><time>2026-03-23T13:27:31Z</time></trkpt><trkpt lat="30.32569292494262" lon="-5.839226198070926"><ele>734.0</ele><time>2026-03-23T13:27:32Z</time></trkpt><trkpt lat="30.32566459691509" lon="-5.839134415258169"><ele>734.0</ele><time>2026-03-23T13:27:33Z</time></trkpt><trkpt lat="30.325631588805827" lon="-5.839028155569717"><ele>734.0</ele><time>2026-03-23T13:27:34Z</time></trkpt><trkpt lat="30.3255998594456" lon="-5.838926012321597"><ele>734.0</ele><time>2026-03-23T13:27:35Z</time></trkpt><trkpt lat="30.325564037952322" lon="-5.838810695750763"><ele>734.0</ele><time>2026-03-23T13:27:36Z</time></trkpt><trkpt lat="30.325528461960268" lon="-5.838689577554851"><ele>734.0</ele><time>2026-03-23T13:27:37Z</time></trkpt><trkpt lat="30.32549684833164" lon="-5.8385783135809035"><ele>734.0</ele><time>2026-03-23T13:27:38Z</time></trkpt><trkpt lat="30.32546711130096" lon="-5.838473654311221"><ele>733.6666666666666</ele><time>2026-03-23T13:27:39Z</time></trkpt><trkpt lat="30.3254405218176" lon="-5.8383809077540585"><ele>733.3333333333333</ele><time>2026-03-23T13:27:40Z</time></trkpt><trkpt lat="30.325413586140442" lon="-5.838295396075435"><ele>733.0</ele><time>2026-03-23T13:27:41Z</time></trkpt><trkpt lat="30.325386545332897" lon="-5.838209574692369"><ele>732.6666666666666</ele><time>2026-03-23T13:27:42Z</time></trkpt><trkpt lat="30.32536036518919" lon="-5.838126484839812"><ele>732.3333333333334</ele><time>2026-03-23T13:27:43Z</time></trkpt><trkpt lat="30.325337545356618" lon="-5.838054059512215"><ele>732.0</ele><time>2026-03-23T13:27:44Z</time></trkpt><trkpt lat="30.325291560363826" lon="-5.837944714476951"><ele>732.0</ele><time>2026-03-23T13:27:46Z</time></trkpt><trkpt lat="30.325245674717337" lon="-5.83783093071533"><ele>732.0</ele><time>2026-03-23T13:27:48Z</time></trkpt><trkpt lat="30.32519364723404" lon="-5.837722052640439"><ele>732.0</ele><time>2026-03-23T13:27:50Z</time></trkpt><trkpt lat="30.3251594262382" lon="-5.837659856431499"><ele>732.0</ele><time>2026-03-23T13:27:51Z</time></trkpt><trkpt lat="30.325119967921285" lon="-5.83758823943754"><ele>732.0</ele><time>2026-03-23T13:27:52Z</time></trkpt><trkpt lat="30.325090876327113" lon="-5.837495765021182"><ele>732.0</ele><time>2026-03-23T13:27:53Z</time></trkpt><trkpt lat="30.325022500594944" lon="-5.8374309234900545"><ele>731.6666666666666</ele><time>2026-03-23T13:27:54Z</time></trkpt><trkpt lat="30.324946308230423" lon="-5.837387050137429"><ele>731.3333333333334</ele><time>2026-03-23T13:27:55Z</time></trkpt><trkpt lat="30.32486498795523" lon="-5.837374811247278"><ele>731.0</ele><time>2026-03-23T13:27:56Z</time></trkpt><trkpt lat="30.324780762716284" lon="-5.837391859420522"><ele>730.6666666666667</ele><time>2026-03-23T13:27:57Z</time></trkpt><trkpt lat="30.32469552119545" lon="-5.837417913973568"><ele>730.3333333333334</ele><time>2026-03-23T13:27:58Z</time></trkpt><trkpt lat="30.32460815968778" lon="-5.83746316039467"><ele>730.0</ele><time>2026-03-23T13:27:59Z</time></trkpt><trkpt lat="30.32452411433843" lon="-5.8375067156600915"><ele>730.2</ele><time>2026-03-23T13:28:00Z</time></trkpt><trkpt lat="30.324445739756573" lon="-5.837543481586845"><ele>730.4</ele><time>2026-03-23T13:28:01Z</time></trkpt><trkpt lat="30.324357950602344" lon="-5.837583484260426"><ele>730.5999999999999</ele><time>2026-03-23T13:28:02Z</time></trkpt><trkpt lat="30.324260220824687" lon="-5.8376344684505215"><ele>730.8</ele><time>2026-03-23T13:28:03Z</time></trkpt><trkpt lat="30.32416213027663" lon="-5.837696047551725"><ele>731.0</ele><time>2026-03-23T13:28:04Z</time></trkpt><trkpt lat="30.32406762711705" lon="-5.837759500305587"><ele>731.0</ele><time>2026-03-23T13:28:05Z</time></trkpt><trkpt lat="30.323960660562797" lon="-5.837800582571011"><ele>731.0</ele><time>2026-03-23T13:28:06Z</time></trkpt><trkpt lat="30.32385920185305" lon="-5.837864389101967"><ele>731.0</ele><time>2026-03-23T13:28:07Z</time></trkpt><trkpt lat="30.323760508381962" lon="-5.837928747036583"><ele>731.0</ele><time>2026-03-23T13:28:08Z</time></trkpt><trkpt lat="30.323683661598558" lon="-5.838011441733258"><ele>731.0</ele><time>2026-03-23T13:28:09Z</time></trkpt><trkpt lat="30.323599902514754" lon="-5.838072651480288"><ele>730.0</ele><time>2026-03-23T13:28:10Z</time></trkpt><trkpt lat="30.323520327813515" lon="-5.838131937593897"><ele>729.0</ele><time>2026-03-23T13:28:11Z</time></trkpt><trkpt lat="30.323451121663318" lon="-5.838194805432149"><ele>728.0</ele><time>2026-03-23T13:28:12Z</time></trkpt><trkpt lat="30.32338691469704" lon="-5.838260128669112"><ele>727.0</ele><time>2026-03-23T13:28:13Z</time></trkpt><trkpt lat="30.323317903969404" lon="-5.8383320746571"><ele>726.0</ele><time>2026-03-23T13:28:14Z</time></trkpt><trkpt lat="30.323251366297953" lon="-5.8383981768197994"><ele>725.0</ele><time>2026-03-23T13:28:15Z</time></trkpt><trkpt lat="30.32317874881648" lon="-5.838458633402933"><ele>725.0</ele><time>2026-03-23T13:28:16Z</time></trkpt><trkpt lat="30.323111823821577" lon="-5.838525089356743"><ele>730.0</ele><time>2026-03-23T13:28:17Z</time></trkpt><trkpt lat="30.323055041738442" lon="-5.838578223481838"><ele>724.0</ele><time>2026-03-23T13:28:18Z</time></trkpt><trkpt lat="30.323000005653647" lon="-5.838621982650412"><ele>724.0</ele><time>2026-03-23T13:28:25Z</time></trkpt></trkseg></trk></gpx>